<?xml version="1.0" encoding="UTF-8" standalone="no" ?>
<gpx xmlns="http://www.topografix.com/GPX/1/1" xmlns:xsi="http://www.w3.org/2001/XMLSchema-instance" xsi:schemaLocation="http://www.topografix.com/GPX/1/1 http://www.topografix.com/GPX/1/1/gpx.xsd" version="1.1" creator="VisuGPX - https://www.visugpx.com">
  <metadata>
    <name>St Jean de Thurac</name>
  </metadata>
  <trk>
    <name><![CDATA[2024 04 11 St Jean de Thurac Raymonde]]></name>
    <extensions>
      <line xmlns="http://www.topografix.com/GPX/gpx_style/0/2">
        <color>0000FF</color>
        <width>4</width>
      </line>
    </extensions>
    <trkseg>
      <trkpt lat="44.14834" lon="0.75531">
        <ele>53</ele>
        <time>2024-04-11T12:05:08.000Z</time>
      </trkpt>
      <trkpt lat="44.14834" lon="0.75529">
        <ele>53</ele>
        <time>2024-04-11T12:05:09.000Z</time>
      </trkpt>
      <trkpt lat="44.14834" lon="0.75527">
        <ele>54</ele>
        <time>2024-04-11T12:05:10.000Z</time>
      </trkpt>
      <trkpt lat="44.14833" lon="0.75526">
        <ele>54</ele>
        <time>2024-04-11T12:05:11.000Z</time>
      </trkpt>
      <trkpt lat="44.14833" lon="0.75524">
        <ele>54</ele>
        <time>2024-04-11T12:05:12.000Z</time>
      </trkpt>
      <trkpt lat="44.14832" lon="0.75522">
        <ele>55</ele>
        <time>2024-04-11T12:05:13.000Z</time>
      </trkpt>
      <trkpt lat="44.14832" lon="0.7552">
        <ele>55</ele>
        <time>2024-04-11T12:05:14.000Z</time>
      </trkpt>
      <trkpt lat="44.14831" lon="0.75518">
        <ele>55</ele>
        <time>2024-04-11T12:05:15.000Z</time>
      </trkpt>
      <trkpt lat="44.14831" lon="0.75517">
        <ele>55</ele>
        <time>2024-04-11T12:05:16.000Z</time>
      </trkpt>
      <trkpt lat="44.14832" lon="0.75515">
        <ele>55</ele>
        <time>2024-04-11T12:05:17.000Z</time>
      </trkpt>
      <trkpt lat="44.14831" lon="0.75513">
        <ele>55</ele>
        <time>2024-04-11T12:05:18.000Z</time>
      </trkpt>
      <trkpt lat="44.14831" lon="0.75511">
        <ele>55</ele>
        <time>2024-04-11T12:05:19.000Z</time>
      </trkpt>
      <trkpt lat="44.14831" lon="0.75509">
        <ele>55</ele>
        <time>2024-04-11T12:05:20.000Z</time>
      </trkpt>
      <trkpt lat="44.14831" lon="0.75507">
        <ele>55</ele>
        <time>2024-04-11T12:05:21.000Z</time>
      </trkpt>
      <trkpt lat="44.1483" lon="0.75506">
        <ele>55</ele>
        <time>2024-04-11T12:05:22.000Z</time>
      </trkpt>
      <trkpt lat="44.1483" lon="0.75504">
        <ele>55</ele>
        <time>2024-04-11T12:05:23.000Z</time>
      </trkpt>
      <trkpt lat="44.14829" lon="0.75503">
        <ele>55</ele>
        <time>2024-04-11T12:05:24.000Z</time>
      </trkpt>
      <trkpt lat="44.14829" lon="0.75501">
        <ele>55</ele>
        <time>2024-04-11T12:05:25.000Z</time>
      </trkpt>
      <trkpt lat="44.14828" lon="0.755">
        <ele>55</ele>
        <time>2024-04-11T12:05:26.000Z</time>
      </trkpt>
      <trkpt lat="44.14828" lon="0.75498">
        <ele>54</ele>
        <time>2024-04-11T12:05:27.000Z</time>
      </trkpt>
      <trkpt lat="44.14828" lon="0.75497">
        <ele>54</ele>
        <time>2024-04-11T12:05:28.000Z</time>
      </trkpt>
      <trkpt lat="44.14828" lon="0.75495">
        <ele>54</ele>
        <time>2024-04-11T12:05:29.000Z</time>
      </trkpt>
      <trkpt lat="44.14828" lon="0.75494">
        <ele>54</ele>
        <time>2024-04-11T12:05:30.000Z</time>
      </trkpt>
      <trkpt lat="44.14828" lon="0.75492">
        <ele>53</ele>
        <time>2024-04-11T12:05:31.000Z</time>
      </trkpt>
      <trkpt lat="44.14827" lon="0.7549">
        <ele>53</ele>
        <time>2024-04-11T12:05:32.000Z</time>
      </trkpt>
      <trkpt lat="44.14827" lon="0.75488">
        <ele>54</ele>
        <time>2024-04-11T12:05:33.000Z</time>
      </trkpt>
      <trkpt lat="44.14826" lon="0.75487">
        <ele>54</ele>
        <time>2024-04-11T12:05:34.000Z</time>
      </trkpt>
      <trkpt lat="44.14826" lon="0.75485">
        <ele>53</ele>
        <time>2024-04-11T12:05:35.000Z</time>
      </trkpt>
      <trkpt lat="44.14826" lon="0.75484">
        <ele>53</ele>
        <time>2024-04-11T12:05:36.000Z</time>
      </trkpt>
      <trkpt lat="44.14825" lon="0.75482">
        <ele>54</ele>
        <time>2024-04-11T12:05:37.000Z</time>
      </trkpt>
      <trkpt lat="44.14824" lon="0.75481">
        <ele>53</ele>
        <time>2024-04-11T12:05:38.000Z</time>
      </trkpt>
      <trkpt lat="44.14824" lon="0.75479">
        <ele>53</ele>
        <time>2024-04-11T12:05:39.000Z</time>
      </trkpt>
      <trkpt lat="44.14823" lon="0.75478">
        <ele>53</ele>
        <time>2024-04-11T12:05:40.000Z</time>
      </trkpt>
      <trkpt lat="44.14823" lon="0.75476">
        <ele>55</ele>
        <time>2024-04-11T12:05:41.000Z</time>
      </trkpt>
      <trkpt lat="44.14823" lon="0.75475">
        <ele>55</ele>
        <time>2024-04-11T12:05:42.000Z</time>
      </trkpt>
      <trkpt lat="44.14823" lon="0.75473">
        <ele>56</ele>
        <time>2024-04-11T12:05:43.000Z</time>
      </trkpt>
      <trkpt lat="44.14823" lon="0.75472">
        <ele>56</ele>
        <time>2024-04-11T12:05:44.000Z</time>
      </trkpt>
      <trkpt lat="44.14822" lon="0.75471">
        <ele>56</ele>
        <time>2024-04-11T12:05:45.000Z</time>
      </trkpt>
      <trkpt lat="44.14822" lon="0.75469">
        <ele>56</ele>
        <time>2024-04-11T12:05:46.000Z</time>
      </trkpt>
      <trkpt lat="44.14821" lon="0.75468">
        <ele>56</ele>
        <time>2024-04-11T12:05:47.000Z</time>
      </trkpt>
      <trkpt lat="44.14821" lon="0.75466">
        <ele>56</ele>
        <time>2024-04-11T12:05:48.000Z</time>
      </trkpt>
      <trkpt lat="44.1482" lon="0.75465">
        <ele>55</ele>
        <time>2024-04-11T12:05:49.000Z</time>
      </trkpt>
      <trkpt lat="44.1482" lon="0.75463">
        <ele>56</ele>
        <time>2024-04-11T12:05:50.000Z</time>
      </trkpt>
      <trkpt lat="44.1482" lon="0.75461">
        <ele>57</ele>
        <time>2024-04-11T12:05:51.000Z</time>
      </trkpt>
      <trkpt lat="44.1482" lon="0.75459">
        <ele>57</ele>
        <time>2024-04-11T12:05:52.000Z</time>
      </trkpt>
      <trkpt lat="44.1482" lon="0.75457">
        <ele>58</ele>
        <time>2024-04-11T12:05:53.000Z</time>
      </trkpt>
      <trkpt lat="44.14819" lon="0.75455">
        <ele>58</ele>
        <time>2024-04-11T12:05:54.000Z</time>
      </trkpt>
      <trkpt lat="44.14819" lon="0.75453">
        <ele>59</ele>
        <time>2024-04-11T12:05:55.000Z</time>
      </trkpt>
      <trkpt lat="44.14819" lon="0.75452">
        <ele>59</ele>
        <time>2024-04-11T12:05:56.000Z</time>
      </trkpt>
      <trkpt lat="44.14818" lon="0.7545">
        <ele>60</ele>
        <time>2024-04-11T12:05:57.000Z</time>
      </trkpt>
      <trkpt lat="44.14818" lon="0.75449">
        <ele>60</ele>
        <time>2024-04-11T12:05:58.000Z</time>
      </trkpt>
      <trkpt lat="44.14818" lon="0.75447">
        <ele>61</ele>
        <time>2024-04-11T12:05:59.000Z</time>
      </trkpt>
      <trkpt lat="44.14817" lon="0.75445">
        <ele>62</ele>
        <time>2024-04-11T12:06:00.000Z</time>
      </trkpt>
      <trkpt lat="44.14817" lon="0.75444">
        <ele>63</ele>
        <time>2024-04-11T12:06:01.000Z</time>
      </trkpt>
      <trkpt lat="44.14816" lon="0.75442">
        <ele>63</ele>
        <time>2024-04-11T12:06:02.000Z</time>
      </trkpt>
      <trkpt lat="44.14816" lon="0.75441">
        <ele>63</ele>
        <time>2024-04-11T12:06:03.000Z</time>
      </trkpt>
      <trkpt lat="44.14816" lon="0.7544">
        <ele>63</ele>
        <time>2024-04-11T12:06:04.000Z</time>
      </trkpt>
      <trkpt lat="44.14816" lon="0.75438">
        <ele>63</ele>
        <time>2024-04-11T12:06:05.000Z</time>
      </trkpt>
      <trkpt lat="44.14816" lon="0.75437">
        <ele>63</ele>
        <time>2024-04-11T12:06:06.000Z</time>
      </trkpt>
      <trkpt lat="44.14815" lon="0.75436">
        <ele>59</ele>
        <time>2024-04-11T12:06:07.000Z</time>
      </trkpt>
      <trkpt lat="44.14814" lon="0.75435">
        <ele>59</ele>
        <time>2024-04-11T12:06:08.000Z</time>
      </trkpt>
      <trkpt lat="44.14812" lon="0.75434">
        <ele>59</ele>
        <time>2024-04-11T12:06:09.000Z</time>
      </trkpt>
      <trkpt lat="44.14812" lon="0.75432">
        <ele>59</ele>
        <time>2024-04-11T12:06:10.000Z</time>
      </trkpt>
      <trkpt lat="44.14812" lon="0.75431">
        <ele>59</ele>
        <time>2024-04-11T12:06:11.000Z</time>
      </trkpt>
      <trkpt lat="44.14811" lon="0.75429">
        <ele>59</ele>
        <time>2024-04-11T12:06:12.000Z</time>
      </trkpt>
      <trkpt lat="44.14811" lon="0.75427">
        <ele>58</ele>
        <time>2024-04-11T12:06:13.000Z</time>
      </trkpt>
      <trkpt lat="44.1481" lon="0.75426">
        <ele>58</ele>
        <time>2024-04-11T12:06:14.000Z</time>
      </trkpt>
      <trkpt lat="44.14811" lon="0.75423">
        <ele>58</ele>
        <time>2024-04-11T12:06:15.000Z</time>
      </trkpt>
      <trkpt lat="44.14811" lon="0.75422">
        <ele>57</ele>
        <time>2024-04-11T12:06:16.000Z</time>
      </trkpt>
      <trkpt lat="44.1481" lon="0.7542">
        <ele>57</ele>
        <time>2024-04-11T12:06:17.000Z</time>
      </trkpt>
      <trkpt lat="44.1481" lon="0.75418">
        <ele>57</ele>
        <time>2024-04-11T12:06:18.000Z</time>
      </trkpt>
      <trkpt lat="44.14809" lon="0.75417">
        <ele>57</ele>
        <time>2024-04-11T12:06:19.000Z</time>
      </trkpt>
      <trkpt lat="44.14808" lon="0.75415">
        <ele>56</ele>
        <time>2024-04-11T12:06:20.000Z</time>
      </trkpt>
      <trkpt lat="44.14807" lon="0.75414">
        <ele>56</ele>
        <time>2024-04-11T12:06:21.000Z</time>
      </trkpt>
      <trkpt lat="44.14806" lon="0.75412">
        <ele>56</ele>
        <time>2024-04-11T12:06:22.000Z</time>
      </trkpt>
      <trkpt lat="44.14805" lon="0.7541">
        <ele>55</ele>
        <time>2024-04-11T12:06:23.000Z</time>
      </trkpt>
      <trkpt lat="44.14804" lon="0.75409">
        <ele>55</ele>
        <time>2024-04-11T12:06:24.000Z</time>
      </trkpt>
      <trkpt lat="44.14803" lon="0.75408">
        <ele>54</ele>
        <time>2024-04-11T12:06:25.000Z</time>
      </trkpt>
      <trkpt lat="44.14802" lon="0.75406">
        <ele>54</ele>
        <time>2024-04-11T12:06:26.000Z</time>
      </trkpt>
      <trkpt lat="44.14801" lon="0.75405">
        <ele>54</ele>
        <time>2024-04-11T12:06:27.000Z</time>
      </trkpt>
      <trkpt lat="44.148" lon="0.75403">
        <ele>54</ele>
        <time>2024-04-11T12:06:28.000Z</time>
      </trkpt>
      <trkpt lat="44.14799" lon="0.75402">
        <ele>54</ele>
        <time>2024-04-11T12:06:29.000Z</time>
      </trkpt>
      <trkpt lat="44.14798" lon="0.75401">
        <ele>54</ele>
        <time>2024-04-11T12:06:30.000Z</time>
      </trkpt>
      <trkpt lat="44.14798" lon="0.75399">
        <ele>54</ele>
        <time>2024-04-11T12:06:31.000Z</time>
      </trkpt>
      <trkpt lat="44.14797" lon="0.75398">
        <ele>54</ele>
        <time>2024-04-11T12:06:32.000Z</time>
      </trkpt>
      <trkpt lat="44.14796" lon="0.75396">
        <ele>54</ele>
        <time>2024-04-11T12:06:33.000Z</time>
      </trkpt>
      <trkpt lat="44.14795" lon="0.75395">
        <ele>53</ele>
        <time>2024-04-11T12:06:34.000Z</time>
      </trkpt>
      <trkpt lat="44.14794" lon="0.75394">
        <ele>54</ele>
        <time>2024-04-11T12:06:35.000Z</time>
      </trkpt>
      <trkpt lat="44.14793" lon="0.75392">
        <ele>54</ele>
        <time>2024-04-11T12:06:36.000Z</time>
      </trkpt>
      <trkpt lat="44.14792" lon="0.75391">
        <ele>54</ele>
        <time>2024-04-11T12:06:37.000Z</time>
      </trkpt>
      <trkpt lat="44.14791" lon="0.75389">
        <ele>53</ele>
        <time>2024-04-11T12:06:38.000Z</time>
      </trkpt>
      <trkpt lat="44.14791" lon="0.75388">
        <ele>52</ele>
        <time>2024-04-11T12:06:39.000Z</time>
      </trkpt>
      <trkpt lat="44.1479" lon="0.75387">
        <ele>52</ele>
        <time>2024-04-11T12:06:40.000Z</time>
      </trkpt>
      <trkpt lat="44.14789" lon="0.75385">
        <ele>52</ele>
        <time>2024-04-11T12:06:41.000Z</time>
      </trkpt>
      <trkpt lat="44.14788" lon="0.75384">
        <ele>52</ele>
        <time>2024-04-11T12:06:42.000Z</time>
      </trkpt>
      <trkpt lat="44.14787" lon="0.75383">
        <ele>52</ele>
        <time>2024-04-11T12:06:43.000Z</time>
      </trkpt>
      <trkpt lat="44.14787" lon="0.75381">
        <ele>52</ele>
        <time>2024-04-11T12:06:44.000Z</time>
      </trkpt>
      <trkpt lat="44.14786" lon="0.7538">
        <ele>53</ele>
        <time>2024-04-11T12:06:45.000Z</time>
      </trkpt>
      <trkpt lat="44.14785" lon="0.75378">
        <ele>52</ele>
        <time>2024-04-11T12:06:46.000Z</time>
      </trkpt>
      <trkpt lat="44.14785" lon="0.75377">
        <ele>52</ele>
        <time>2024-04-11T12:06:47.000Z</time>
      </trkpt>
      <trkpt lat="44.14784" lon="0.75375">
        <ele>53</ele>
        <time>2024-04-11T12:06:48.000Z</time>
      </trkpt>
      <trkpt lat="44.14783" lon="0.75374">
        <ele>53</ele>
        <time>2024-04-11T12:06:49.000Z</time>
      </trkpt>
      <trkpt lat="44.14782" lon="0.75372">
        <ele>53</ele>
        <time>2024-04-11T12:06:50.000Z</time>
      </trkpt>
      <trkpt lat="44.14781" lon="0.75371">
        <ele>53</ele>
        <time>2024-04-11T12:06:51.000Z</time>
      </trkpt>
      <trkpt lat="44.1478" lon="0.7537">
        <ele>53</ele>
        <time>2024-04-11T12:06:52.000Z</time>
      </trkpt>
      <trkpt lat="44.1478" lon="0.75368">
        <ele>52</ele>
        <time>2024-04-11T12:06:53.000Z</time>
      </trkpt>
      <trkpt lat="44.14779" lon="0.75367">
        <ele>53</ele>
        <time>2024-04-11T12:06:54.000Z</time>
      </trkpt>
      <trkpt lat="44.14778" lon="0.75366">
        <ele>52</ele>
        <time>2024-04-11T12:06:55.000Z</time>
      </trkpt>
      <trkpt lat="44.14777" lon="0.75364">
        <ele>52</ele>
        <time>2024-04-11T12:06:56.000Z</time>
      </trkpt>
      <trkpt lat="44.14776" lon="0.75363">
        <ele>52</ele>
        <time>2024-04-11T12:06:57.000Z</time>
      </trkpt>
      <trkpt lat="44.14775" lon="0.75362">
        <ele>52</ele>
        <time>2024-04-11T12:06:58.000Z</time>
      </trkpt>
      <trkpt lat="44.14774" lon="0.75361">
        <ele>52</ele>
        <time>2024-04-11T12:06:59.000Z</time>
      </trkpt>
      <trkpt lat="44.14774" lon="0.75359">
        <ele>52</ele>
        <time>2024-04-11T12:07:00.000Z</time>
      </trkpt>
      <trkpt lat="44.14773" lon="0.75358">
        <ele>52</ele>
        <time>2024-04-11T12:07:01.000Z</time>
      </trkpt>
      <trkpt lat="44.14772" lon="0.75357">
        <ele>52</ele>
        <time>2024-04-11T12:07:02.000Z</time>
      </trkpt>
      <trkpt lat="44.14771" lon="0.75355">
        <ele>52</ele>
        <time>2024-04-11T12:07:03.000Z</time>
      </trkpt>
      <trkpt lat="44.14771" lon="0.75354">
        <ele>52</ele>
        <time>2024-04-11T12:07:04.000Z</time>
      </trkpt>
      <trkpt lat="44.1477" lon="0.75353">
        <ele>52</ele>
        <time>2024-04-11T12:07:05.000Z</time>
      </trkpt>
      <trkpt lat="44.14769" lon="0.75351">
        <ele>53</ele>
        <time>2024-04-11T12:07:06.000Z</time>
      </trkpt>
      <trkpt lat="44.14768" lon="0.7535">
        <ele>52</ele>
        <time>2024-04-11T12:07:07.000Z</time>
      </trkpt>
      <trkpt lat="44.14767" lon="0.75349">
        <ele>53</ele>
        <time>2024-04-11T12:07:08.000Z</time>
      </trkpt>
      <trkpt lat="44.14767" lon="0.75348">
        <ele>53</ele>
        <time>2024-04-11T12:07:09.000Z</time>
      </trkpt>
      <trkpt lat="44.14766" lon="0.75347">
        <ele>53</ele>
        <time>2024-04-11T12:07:10.000Z</time>
      </trkpt>
      <trkpt lat="44.14765" lon="0.75346">
        <ele>53</ele>
        <time>2024-04-11T12:07:11.000Z</time>
      </trkpt>
      <trkpt lat="44.14764" lon="0.75345">
        <ele>53</ele>
        <time>2024-04-11T12:07:12.000Z</time>
      </trkpt>
      <trkpt lat="44.14763" lon="0.75344">
        <ele>53</ele>
        <time>2024-04-11T12:07:13.000Z</time>
      </trkpt>
      <trkpt lat="44.14762" lon="0.75343">
        <ele>53</ele>
        <time>2024-04-11T12:07:14.000Z</time>
      </trkpt>
      <trkpt lat="44.14761" lon="0.75342">
        <ele>52</ele>
        <time>2024-04-11T12:07:15.000Z</time>
      </trkpt>
      <trkpt lat="44.1476" lon="0.75341">
        <ele>52</ele>
        <time>2024-04-11T12:07:16.000Z</time>
      </trkpt>
      <trkpt lat="44.14759" lon="0.7534">
        <ele>52</ele>
        <time>2024-04-11T12:07:17.000Z</time>
      </trkpt>
      <trkpt lat="44.14758" lon="0.75339">
        <ele>52</ele>
        <time>2024-04-11T12:07:18.000Z</time>
      </trkpt>
      <trkpt lat="44.14757" lon="0.75337">
        <ele>53</ele>
        <time>2024-04-11T12:07:19.000Z</time>
      </trkpt>
      <trkpt lat="44.14756" lon="0.75336">
        <ele>53</ele>
        <time>2024-04-11T12:07:20.000Z</time>
      </trkpt>
      <trkpt lat="44.14755" lon="0.75335">
        <ele>53</ele>
        <time>2024-04-11T12:07:21.000Z</time>
      </trkpt>
      <trkpt lat="44.14754" lon="0.75334">
        <ele>53</ele>
        <time>2024-04-11T12:07:22.000Z</time>
      </trkpt>
      <trkpt lat="44.14753" lon="0.75333">
        <ele>53</ele>
        <time>2024-04-11T12:07:23.000Z</time>
      </trkpt>
      <trkpt lat="44.14752" lon="0.75332">
        <ele>53</ele>
        <time>2024-04-11T12:07:24.000Z</time>
      </trkpt>
      <trkpt lat="44.14752" lon="0.75331">
        <ele>53</ele>
        <time>2024-04-11T12:07:25.000Z</time>
      </trkpt>
      <trkpt lat="44.14751" lon="0.7533">
        <ele>53</ele>
        <time>2024-04-11T12:07:26.000Z</time>
      </trkpt>
      <trkpt lat="44.1475" lon="0.75329">
        <ele>53</ele>
        <time>2024-04-11T12:07:27.000Z</time>
      </trkpt>
      <trkpt lat="44.14749" lon="0.75327">
        <ele>53</ele>
        <time>2024-04-11T12:07:28.000Z</time>
      </trkpt>
      <trkpt lat="44.14748" lon="0.75326">
        <ele>54</ele>
        <time>2024-04-11T12:07:29.000Z</time>
      </trkpt>
      <trkpt lat="44.14747" lon="0.75325">
        <ele>54</ele>
        <time>2024-04-11T12:07:30.000Z</time>
      </trkpt>
      <trkpt lat="44.14746" lon="0.75324">
        <ele>54</ele>
        <time>2024-04-11T12:07:31.000Z</time>
      </trkpt>
      <trkpt lat="44.14745" lon="0.75323">
        <ele>54</ele>
        <time>2024-04-11T12:07:32.000Z</time>
      </trkpt>
      <trkpt lat="44.14744" lon="0.75322">
        <ele>54</ele>
        <time>2024-04-11T12:07:33.000Z</time>
      </trkpt>
      <trkpt lat="44.14743" lon="0.75321">
        <ele>54</ele>
        <time>2024-04-11T12:07:34.000Z</time>
      </trkpt>
      <trkpt lat="44.14742" lon="0.7532">
        <ele>54</ele>
        <time>2024-04-11T12:07:35.000Z</time>
      </trkpt>
      <trkpt lat="44.14741" lon="0.75319">
        <ele>54</ele>
        <time>2024-04-11T12:07:36.000Z</time>
      </trkpt>
      <trkpt lat="44.1474" lon="0.75317">
        <ele>54</ele>
        <time>2024-04-11T12:07:37.000Z</time>
      </trkpt>
      <trkpt lat="44.14739" lon="0.75316">
        <ele>54</ele>
        <time>2024-04-11T12:07:38.000Z</time>
      </trkpt>
      <trkpt lat="44.14738" lon="0.75315">
        <ele>53</ele>
        <time>2024-04-11T12:07:39.000Z</time>
      </trkpt>
      <trkpt lat="44.14737" lon="0.75314">
        <ele>52</ele>
        <time>2024-04-11T12:07:40.000Z</time>
      </trkpt>
      <trkpt lat="44.14737" lon="0.75313">
        <ele>52</ele>
        <time>2024-04-11T12:07:41.000Z</time>
      </trkpt>
      <trkpt lat="44.14735" lon="0.75312">
        <ele>52</ele>
        <time>2024-04-11T12:07:42.000Z</time>
      </trkpt>
      <trkpt lat="44.14734" lon="0.75311">
        <ele>52</ele>
        <time>2024-04-11T12:07:43.000Z</time>
      </trkpt>
      <trkpt lat="44.14733" lon="0.7531">
        <ele>51</ele>
        <time>2024-04-11T12:07:44.000Z</time>
      </trkpt>
      <trkpt lat="44.14732" lon="0.75309">
        <ele>51</ele>
        <time>2024-04-11T12:07:45.000Z</time>
      </trkpt>
      <trkpt lat="44.14731" lon="0.75308">
        <ele>51</ele>
        <time>2024-04-11T12:07:46.000Z</time>
      </trkpt>
      <trkpt lat="44.1473" lon="0.75307">
        <ele>51</ele>
        <time>2024-04-11T12:07:47.000Z</time>
      </trkpt>
      <trkpt lat="44.14729" lon="0.75306">
        <ele>52</ele>
        <time>2024-04-11T12:07:48.000Z</time>
      </trkpt>
      <trkpt lat="44.14728" lon="0.75304">
        <ele>53</ele>
        <time>2024-04-11T12:07:49.000Z</time>
      </trkpt>
      <trkpt lat="44.14727" lon="0.75303">
        <ele>53</ele>
        <time>2024-04-11T12:07:50.000Z</time>
      </trkpt>
      <trkpt lat="44.14726" lon="0.75302">
        <ele>53</ele>
        <time>2024-04-11T12:07:51.000Z</time>
      </trkpt>
      <trkpt lat="44.14725" lon="0.75301">
        <ele>53</ele>
        <time>2024-04-11T12:07:52.000Z</time>
      </trkpt>
      <trkpt lat="44.14724" lon="0.753">
        <ele>52</ele>
        <time>2024-04-11T12:07:53.000Z</time>
      </trkpt>
      <trkpt lat="44.14724" lon="0.75299">
        <ele>52</ele>
        <time>2024-04-11T12:07:54.000Z</time>
      </trkpt>
      <trkpt lat="44.14723" lon="0.75298">
        <ele>52</ele>
        <time>2024-04-11T12:07:55.000Z</time>
      </trkpt>
      <trkpt lat="44.14722" lon="0.75297">
        <ele>52</ele>
        <time>2024-04-11T12:07:56.000Z</time>
      </trkpt>
      <trkpt lat="44.14721" lon="0.75296">
        <ele>52</ele>
        <time>2024-04-11T12:07:57.000Z</time>
      </trkpt>
      <trkpt lat="44.1472" lon="0.75295">
        <ele>53</ele>
        <time>2024-04-11T12:07:58.000Z</time>
      </trkpt>
      <trkpt lat="44.14719" lon="0.75293">
        <ele>54</ele>
        <time>2024-04-11T12:07:59.000Z</time>
      </trkpt>
      <trkpt lat="44.14718" lon="0.75292">
        <ele>54</ele>
        <time>2024-04-11T12:08:00.000Z</time>
      </trkpt>
      <trkpt lat="44.14717" lon="0.75291">
        <ele>54</ele>
        <time>2024-04-11T12:08:01.000Z</time>
      </trkpt>
      <trkpt lat="44.14716" lon="0.7529">
        <ele>54</ele>
        <time>2024-04-11T12:08:02.000Z</time>
      </trkpt>
      <trkpt lat="44.14715" lon="0.75289">
        <ele>54</ele>
        <time>2024-04-11T12:08:03.000Z</time>
      </trkpt>
      <trkpt lat="44.14714" lon="0.75288">
        <ele>54</ele>
        <time>2024-04-11T12:08:04.000Z</time>
      </trkpt>
      <trkpt lat="44.14713" lon="0.75287">
        <ele>53</ele>
        <time>2024-04-11T12:08:05.000Z</time>
      </trkpt>
      <trkpt lat="44.14712" lon="0.75286">
        <ele>53</ele>
        <time>2024-04-11T12:08:06.000Z</time>
      </trkpt>
      <trkpt lat="44.14711" lon="0.75285">
        <ele>54</ele>
        <time>2024-04-11T12:08:07.000Z</time>
      </trkpt>
      <trkpt lat="44.1471" lon="0.75283">
        <ele>54</ele>
        <time>2024-04-11T12:08:08.000Z</time>
      </trkpt>
      <trkpt lat="44.14709" lon="0.75282">
        <ele>53</ele>
        <time>2024-04-11T12:08:09.000Z</time>
      </trkpt>
      <trkpt lat="44.14708" lon="0.75281">
        <ele>54</ele>
        <time>2024-04-11T12:08:10.000Z</time>
      </trkpt>
      <trkpt lat="44.14707" lon="0.7528">
        <ele>54</ele>
        <time>2024-04-11T12:08:11.000Z</time>
      </trkpt>
      <trkpt lat="44.14707" lon="0.75279">
        <ele>54</ele>
        <time>2024-04-11T12:08:12.000Z</time>
      </trkpt>
      <trkpt lat="44.14706" lon="0.75278">
        <ele>54</ele>
        <time>2024-04-11T12:08:13.000Z</time>
      </trkpt>
      <trkpt lat="44.14705" lon="0.75277">
        <ele>54</ele>
        <time>2024-04-11T12:08:14.000Z</time>
      </trkpt>
      <trkpt lat="44.14703" lon="0.75276">
        <ele>54</ele>
        <time>2024-04-11T12:08:15.000Z</time>
      </trkpt>
      <trkpt lat="44.14702" lon="0.75275">
        <ele>54</ele>
        <time>2024-04-11T12:08:16.000Z</time>
      </trkpt>
      <trkpt lat="44.14701" lon="0.75274">
        <ele>54</ele>
        <time>2024-04-11T12:08:17.000Z</time>
      </trkpt>
      <trkpt lat="44.14701" lon="0.75273">
        <ele>54</ele>
        <time>2024-04-11T12:08:18.000Z</time>
      </trkpt>
      <trkpt lat="44.147" lon="0.75272">
        <ele>54</ele>
        <time>2024-04-11T12:08:19.000Z</time>
      </trkpt>
      <trkpt lat="44.14699" lon="0.75271">
        <ele>54</ele>
        <time>2024-04-11T12:08:20.000Z</time>
      </trkpt>
      <trkpt lat="44.14698" lon="0.7527">
        <ele>54</ele>
        <time>2024-04-11T12:08:21.000Z</time>
      </trkpt>
      <trkpt lat="44.14697" lon="0.75269">
        <ele>54</ele>
        <time>2024-04-11T12:08:22.000Z</time>
      </trkpt>
      <trkpt lat="44.14696" lon="0.75268">
        <ele>54</ele>
        <time>2024-04-11T12:08:23.000Z</time>
      </trkpt>
      <trkpt lat="44.14695" lon="0.75267">
        <ele>54</ele>
        <time>2024-04-11T12:08:24.000Z</time>
      </trkpt>
      <trkpt lat="44.14694" lon="0.75266">
        <ele>54</ele>
        <time>2024-04-11T12:08:25.000Z</time>
      </trkpt>
      <trkpt lat="44.14694" lon="0.75265">
        <ele>53</ele>
        <time>2024-04-11T12:08:26.000Z</time>
      </trkpt>
      <trkpt lat="44.14693" lon="0.75263">
        <ele>53</ele>
        <time>2024-04-11T12:08:27.000Z</time>
      </trkpt>
      <trkpt lat="44.14692" lon="0.75262">
        <ele>53</ele>
        <time>2024-04-11T12:08:28.000Z</time>
      </trkpt>
      <trkpt lat="44.14691" lon="0.75261">
        <ele>53</ele>
        <time>2024-04-11T12:08:29.000Z</time>
      </trkpt>
      <trkpt lat="44.1469" lon="0.7526">
        <ele>53</ele>
        <time>2024-04-11T12:08:30.000Z</time>
      </trkpt>
      <trkpt lat="44.14689" lon="0.75259">
        <ele>53</ele>
        <time>2024-04-11T12:08:31.000Z</time>
      </trkpt>
      <trkpt lat="44.14688" lon="0.75259">
        <ele>53</ele>
        <time>2024-04-11T12:08:32.000Z</time>
      </trkpt>
      <trkpt lat="44.14688" lon="0.75257">
        <ele>52</ele>
        <time>2024-04-11T12:08:33.000Z</time>
      </trkpt>
      <trkpt lat="44.14687" lon="0.75256">
        <ele>52</ele>
        <time>2024-04-11T12:08:34.000Z</time>
      </trkpt>
      <trkpt lat="44.14686" lon="0.75255">
        <ele>52</ele>
        <time>2024-04-11T12:08:35.000Z</time>
      </trkpt>
      <trkpt lat="44.14685" lon="0.75254">
        <ele>52</ele>
        <time>2024-04-11T12:08:36.000Z</time>
      </trkpt>
      <trkpt lat="44.14684" lon="0.75253">
        <ele>52</ele>
        <time>2024-04-11T12:08:37.000Z</time>
      </trkpt>
      <trkpt lat="44.14683" lon="0.75251">
        <ele>52</ele>
        <time>2024-04-11T12:08:38.000Z</time>
      </trkpt>
      <trkpt lat="44.14683" lon="0.7525">
        <ele>52</ele>
        <time>2024-04-11T12:08:39.000Z</time>
      </trkpt>
      <trkpt lat="44.14682" lon="0.75248">
        <ele>53</ele>
        <time>2024-04-11T12:08:40.000Z</time>
      </trkpt>
      <trkpt lat="44.14681" lon="0.75247">
        <ele>53</ele>
        <time>2024-04-11T12:08:41.000Z</time>
      </trkpt>
      <trkpt lat="44.14681" lon="0.75246">
        <ele>53</ele>
        <time>2024-04-11T12:08:42.000Z</time>
      </trkpt>
      <trkpt lat="44.1468" lon="0.75244">
        <ele>53</ele>
        <time>2024-04-11T12:08:43.000Z</time>
      </trkpt>
      <trkpt lat="44.14679" lon="0.75243">
        <ele>53</ele>
        <time>2024-04-11T12:08:44.000Z</time>
      </trkpt>
      <trkpt lat="44.14679" lon="0.75241">
        <ele>53</ele>
        <time>2024-04-11T12:08:45.000Z</time>
      </trkpt>
      <trkpt lat="44.14678" lon="0.7524">
        <ele>53</ele>
        <time>2024-04-11T12:08:46.000Z</time>
      </trkpt>
      <trkpt lat="44.14677" lon="0.75238">
        <ele>53</ele>
        <time>2024-04-11T12:08:47.000Z</time>
      </trkpt>
      <trkpt lat="44.14677" lon="0.75236">
        <ele>53</ele>
        <time>2024-04-11T12:08:48.000Z</time>
      </trkpt>
      <trkpt lat="44.14676" lon="0.75235">
        <ele>54</ele>
        <time>2024-04-11T12:08:49.000Z</time>
      </trkpt>
      <trkpt lat="44.14676" lon="0.75233">
        <ele>54</ele>
        <time>2024-04-11T12:08:50.000Z</time>
      </trkpt>
      <trkpt lat="44.14675" lon="0.75231">
        <ele>54</ele>
        <time>2024-04-11T12:08:51.000Z</time>
      </trkpt>
      <trkpt lat="44.14675" lon="0.75229">
        <ele>54</ele>
        <time>2024-04-11T12:08:52.000Z</time>
      </trkpt>
      <trkpt lat="44.14675" lon="0.75228">
        <ele>55</ele>
        <time>2024-04-11T12:08:53.000Z</time>
      </trkpt>
      <trkpt lat="44.14674" lon="0.75226">
        <ele>55</ele>
        <time>2024-04-11T12:08:54.000Z</time>
      </trkpt>
      <trkpt lat="44.14674" lon="0.75224">
        <ele>55</ele>
        <time>2024-04-11T12:08:55.000Z</time>
      </trkpt>
      <trkpt lat="44.14674" lon="0.75223">
        <ele>55</ele>
        <time>2024-04-11T12:08:56.000Z</time>
      </trkpt>
      <trkpt lat="44.14674" lon="0.75221">
        <ele>55</ele>
        <time>2024-04-11T12:08:57.000Z</time>
      </trkpt>
      <trkpt lat="44.14674" lon="0.75219">
        <ele>55</ele>
        <time>2024-04-11T12:08:58.000Z</time>
      </trkpt>
      <trkpt lat="44.14673" lon="0.75218">
        <ele>55</ele>
        <time>2024-04-11T12:08:59.000Z</time>
      </trkpt>
      <trkpt lat="44.14673" lon="0.75216">
        <ele>55</ele>
        <time>2024-04-11T12:09:00.000Z</time>
      </trkpt>
      <trkpt lat="44.14673" lon="0.75214">
        <ele>55</ele>
        <time>2024-04-11T12:09:01.000Z</time>
      </trkpt>
      <trkpt lat="44.14673" lon="0.75212">
        <ele>55</ele>
        <time>2024-04-11T12:09:02.000Z</time>
      </trkpt>
      <trkpt lat="44.14673" lon="0.75211">
        <ele>56</ele>
        <time>2024-04-11T12:09:03.000Z</time>
      </trkpt>
      <trkpt lat="44.14673" lon="0.75209">
        <ele>55</ele>
        <time>2024-04-11T12:09:04.000Z</time>
      </trkpt>
      <trkpt lat="44.14673" lon="0.75207">
        <ele>55</ele>
        <time>2024-04-11T12:09:05.000Z</time>
      </trkpt>
      <trkpt lat="44.14673" lon="0.75206">
        <ele>55</ele>
        <time>2024-04-11T12:09:06.000Z</time>
      </trkpt>
      <trkpt lat="44.14673" lon="0.75204">
        <ele>55</ele>
        <time>2024-04-11T12:09:07.000Z</time>
      </trkpt>
      <trkpt lat="44.14673" lon="0.75202">
        <ele>55</ele>
        <time>2024-04-11T12:09:08.000Z</time>
      </trkpt>
      <trkpt lat="44.14673" lon="0.752">
        <ele>56</ele>
        <time>2024-04-11T12:09:09.000Z</time>
      </trkpt>
      <trkpt lat="44.14673" lon="0.75198">
        <ele>56</ele>
        <time>2024-04-11T12:09:10.000Z</time>
      </trkpt>
      <trkpt lat="44.14673" lon="0.75197">
        <ele>56</ele>
        <time>2024-04-11T12:09:11.000Z</time>
      </trkpt>
      <trkpt lat="44.14673" lon="0.75195">
        <ele>56</ele>
        <time>2024-04-11T12:09:12.000Z</time>
      </trkpt>
      <trkpt lat="44.14673" lon="0.75193">
        <ele>55</ele>
        <time>2024-04-11T12:09:13.000Z</time>
      </trkpt>
      <trkpt lat="44.14673" lon="0.75191">
        <ele>55</ele>
        <time>2024-04-11T12:09:14.000Z</time>
      </trkpt>
      <trkpt lat="44.14674" lon="0.7519">
        <ele>55</ele>
        <time>2024-04-11T12:09:15.000Z</time>
      </trkpt>
      <trkpt lat="44.14674" lon="0.75188">
        <ele>55</ele>
        <time>2024-04-11T12:09:16.000Z</time>
      </trkpt>
      <trkpt lat="44.14674" lon="0.75186">
        <ele>55</ele>
        <time>2024-04-11T12:09:17.000Z</time>
      </trkpt>
      <trkpt lat="44.14674" lon="0.75185">
        <ele>55</ele>
        <time>2024-04-11T12:09:18.000Z</time>
      </trkpt>
      <trkpt lat="44.14674" lon="0.75183">
        <ele>55</ele>
        <time>2024-04-11T12:09:19.000Z</time>
      </trkpt>
      <trkpt lat="44.14674" lon="0.75182">
        <ele>55</ele>
        <time>2024-04-11T12:09:20.000Z</time>
      </trkpt>
      <trkpt lat="44.14674" lon="0.7518">
        <ele>55</ele>
        <time>2024-04-11T12:09:21.000Z</time>
      </trkpt>
      <trkpt lat="44.14675" lon="0.75178">
        <ele>55</ele>
        <time>2024-04-11T12:09:22.000Z</time>
      </trkpt>
      <trkpt lat="44.14675" lon="0.75177">
        <ele>55</ele>
        <time>2024-04-11T12:09:23.000Z</time>
      </trkpt>
      <trkpt lat="44.14675" lon="0.75175">
        <ele>55</ele>
        <time>2024-04-11T12:09:24.000Z</time>
      </trkpt>
      <trkpt lat="44.14675" lon="0.75173">
        <ele>55</ele>
        <time>2024-04-11T12:09:25.000Z</time>
      </trkpt>
      <trkpt lat="44.14675" lon="0.75172">
        <ele>55</ele>
        <time>2024-04-11T12:09:26.000Z</time>
      </trkpt>
      <trkpt lat="44.14675" lon="0.7517">
        <ele>55</ele>
        <time>2024-04-11T12:09:27.000Z</time>
      </trkpt>
      <trkpt lat="44.14676" lon="0.75168">
        <ele>55</ele>
        <time>2024-04-11T12:09:28.000Z</time>
      </trkpt>
      <trkpt lat="44.14676" lon="0.75167">
        <ele>55</ele>
        <time>2024-04-11T12:09:29.000Z</time>
      </trkpt>
      <trkpt lat="44.14676" lon="0.75165">
        <ele>55</ele>
        <time>2024-04-11T12:09:30.000Z</time>
      </trkpt>
      <trkpt lat="44.14676" lon="0.75163">
        <ele>55</ele>
        <time>2024-04-11T12:09:31.000Z</time>
      </trkpt>
      <trkpt lat="44.14676" lon="0.75162">
        <ele>55</ele>
        <time>2024-04-11T12:09:32.000Z</time>
      </trkpt>
      <trkpt lat="44.14676" lon="0.7516">
        <ele>55</ele>
        <time>2024-04-11T12:09:33.000Z</time>
      </trkpt>
      <trkpt lat="44.14676" lon="0.75158">
        <ele>55</ele>
        <time>2024-04-11T12:09:34.000Z</time>
      </trkpt>
      <trkpt lat="44.14676" lon="0.75156">
        <ele>55</ele>
        <time>2024-04-11T12:09:35.000Z</time>
      </trkpt>
      <trkpt lat="44.14676" lon="0.75155">
        <ele>55</ele>
        <time>2024-04-11T12:09:36.000Z</time>
      </trkpt>
      <trkpt lat="44.14677" lon="0.75153">
        <ele>55</ele>
        <time>2024-04-11T12:09:37.000Z</time>
      </trkpt>
      <trkpt lat="44.14677" lon="0.75151">
        <ele>55</ele>
        <time>2024-04-11T12:09:38.000Z</time>
      </trkpt>
      <trkpt lat="44.14677" lon="0.7515">
        <ele>55</ele>
        <time>2024-04-11T12:09:39.000Z</time>
      </trkpt>
      <trkpt lat="44.14677" lon="0.75148">
        <ele>54</ele>
        <time>2024-04-11T12:09:40.000Z</time>
      </trkpt>
      <trkpt lat="44.14677" lon="0.75147">
        <ele>54</ele>
        <time>2024-04-11T12:09:41.000Z</time>
      </trkpt>
      <trkpt lat="44.14677" lon="0.75145">
        <ele>54</ele>
        <time>2024-04-11T12:09:42.000Z</time>
      </trkpt>
      <trkpt lat="44.14677" lon="0.75144">
        <ele>54</ele>
        <time>2024-04-11T12:09:43.000Z</time>
      </trkpt>
      <trkpt lat="44.14677" lon="0.75142">
        <ele>54</ele>
        <time>2024-04-11T12:09:44.000Z</time>
      </trkpt>
      <trkpt lat="44.14677" lon="0.7514">
        <ele>53</ele>
        <time>2024-04-11T12:09:45.000Z</time>
      </trkpt>
      <trkpt lat="44.14677" lon="0.75138">
        <ele>53</ele>
        <time>2024-04-11T12:09:46.000Z</time>
      </trkpt>
      <trkpt lat="44.14677" lon="0.75137">
        <ele>53</ele>
        <time>2024-04-11T12:09:47.000Z</time>
      </trkpt>
      <trkpt lat="44.14677" lon="0.75135">
        <ele>53</ele>
        <time>2024-04-11T12:09:48.000Z</time>
      </trkpt>
      <trkpt lat="44.14677" lon="0.75134">
        <ele>53</ele>
        <time>2024-04-11T12:09:49.000Z</time>
      </trkpt>
      <trkpt lat="44.14677" lon="0.75132">
        <ele>52</ele>
        <time>2024-04-11T12:09:50.000Z</time>
      </trkpt>
      <trkpt lat="44.14678" lon="0.75131">
        <ele>52</ele>
        <time>2024-04-11T12:09:51.000Z</time>
      </trkpt>
      <trkpt lat="44.14678" lon="0.75129">
        <ele>52</ele>
        <time>2024-04-11T12:09:52.000Z</time>
      </trkpt>
      <trkpt lat="44.14678" lon="0.75127">
        <ele>52</ele>
        <time>2024-04-11T12:09:53.000Z</time>
      </trkpt>
      <trkpt lat="44.14678" lon="0.75126">
        <ele>51</ele>
        <time>2024-04-11T12:09:54.000Z</time>
      </trkpt>
      <trkpt lat="44.14678" lon="0.75124">
        <ele>51</ele>
        <time>2024-04-11T12:09:55.000Z</time>
      </trkpt>
      <trkpt lat="44.14678" lon="0.75123">
        <ele>50</ele>
        <time>2024-04-11T12:09:56.000Z</time>
      </trkpt>
      <trkpt lat="44.14678" lon="0.75121">
        <ele>50</ele>
        <time>2024-04-11T12:09:57.000Z</time>
      </trkpt>
      <trkpt lat="44.14678" lon="0.75119">
        <ele>50</ele>
        <time>2024-04-11T12:09:58.000Z</time>
      </trkpt>
      <trkpt lat="44.14678" lon="0.75118">
        <ele>50</ele>
        <time>2024-04-11T12:09:59.000Z</time>
      </trkpt>
      <trkpt lat="44.14678" lon="0.75116">
        <ele>49</ele>
        <time>2024-04-11T12:10:00.000Z</time>
      </trkpt>
      <trkpt lat="44.14677" lon="0.75115">
        <ele>49</ele>
        <time>2024-04-11T12:10:01.000Z</time>
      </trkpt>
      <trkpt lat="44.14677" lon="0.75113">
        <ele>49</ele>
        <time>2024-04-11T12:10:02.000Z</time>
      </trkpt>
      <trkpt lat="44.14677" lon="0.75112">
        <ele>49</ele>
        <time>2024-04-11T12:10:03.000Z</time>
      </trkpt>
      <trkpt lat="44.14677" lon="0.7511">
        <ele>48</ele>
        <time>2024-04-11T12:10:04.000Z</time>
      </trkpt>
      <trkpt lat="44.14677" lon="0.75108">
        <ele>49</ele>
        <time>2024-04-11T12:10:05.000Z</time>
      </trkpt>
      <trkpt lat="44.14677" lon="0.75106">
        <ele>49</ele>
        <time>2024-04-11T12:10:06.000Z</time>
      </trkpt>
      <trkpt lat="44.14677" lon="0.75104">
        <ele>50</ele>
        <time>2024-04-11T12:10:07.000Z</time>
      </trkpt>
      <trkpt lat="44.14677" lon="0.75102">
        <ele>49</ele>
        <time>2024-04-11T12:10:08.000Z</time>
      </trkpt>
      <trkpt lat="44.14677" lon="0.751">
        <ele>49</ele>
        <time>2024-04-11T12:10:09.000Z</time>
      </trkpt>
      <trkpt lat="44.14677" lon="0.75099">
        <ele>49</ele>
        <time>2024-04-11T12:10:10.000Z</time>
      </trkpt>
      <trkpt lat="44.14676" lon="0.75097">
        <ele>49</ele>
        <time>2024-04-11T12:10:11.000Z</time>
      </trkpt>
      <trkpt lat="44.14676" lon="0.75095">
        <ele>49</ele>
        <time>2024-04-11T12:10:12.000Z</time>
      </trkpt>
      <trkpt lat="44.14676" lon="0.75093">
        <ele>49</ele>
        <time>2024-04-11T12:10:13.000Z</time>
      </trkpt>
      <trkpt lat="44.14676" lon="0.75091">
        <ele>49</ele>
        <time>2024-04-11T12:10:14.000Z</time>
      </trkpt>
      <trkpt lat="44.14676" lon="0.7509">
        <ele>50</ele>
        <time>2024-04-11T12:10:15.000Z</time>
      </trkpt>
      <trkpt lat="44.14676" lon="0.75088">
        <ele>50</ele>
        <time>2024-04-11T12:10:16.000Z</time>
      </trkpt>
      <trkpt lat="44.14676" lon="0.75086">
        <ele>50</ele>
        <time>2024-04-11T12:10:17.000Z</time>
      </trkpt>
      <trkpt lat="44.14675" lon="0.75084">
        <ele>50</ele>
        <time>2024-04-11T12:10:18.000Z</time>
      </trkpt>
      <trkpt lat="44.14675" lon="0.75082">
        <ele>50</ele>
        <time>2024-04-11T12:10:19.000Z</time>
      </trkpt>
      <trkpt lat="44.14675" lon="0.75081">
        <ele>50</ele>
        <time>2024-04-11T12:10:20.000Z</time>
      </trkpt>
      <trkpt lat="44.14675" lon="0.75079">
        <ele>49</ele>
        <time>2024-04-11T12:10:21.000Z</time>
      </trkpt>
      <trkpt lat="44.14675" lon="0.75078">
        <ele>49</ele>
        <time>2024-04-11T12:10:22.000Z</time>
      </trkpt>
      <trkpt lat="44.14675" lon="0.75076">
        <ele>49</ele>
        <time>2024-04-11T12:10:23.000Z</time>
      </trkpt>
      <trkpt lat="44.14675" lon="0.75074">
        <ele>49</ele>
        <time>2024-04-11T12:10:24.000Z</time>
      </trkpt>
      <trkpt lat="44.14675" lon="0.75073">
        <ele>49</ele>
        <time>2024-04-11T12:10:25.000Z</time>
      </trkpt>
      <trkpt lat="44.14675" lon="0.75071">
        <ele>48</ele>
        <time>2024-04-11T12:10:26.000Z</time>
      </trkpt>
      <trkpt lat="44.14675" lon="0.7507">
        <ele>48</ele>
        <time>2024-04-11T12:10:27.000Z</time>
      </trkpt>
      <trkpt lat="44.14675" lon="0.75068">
        <ele>48</ele>
        <time>2024-04-11T12:10:28.000Z</time>
      </trkpt>
      <trkpt lat="44.14675" lon="0.75067">
        <ele>48</ele>
        <time>2024-04-11T12:10:29.000Z</time>
      </trkpt>
      <trkpt lat="44.14675" lon="0.75065">
        <ele>48</ele>
        <time>2024-04-11T12:10:30.000Z</time>
      </trkpt>
      <trkpt lat="44.14675" lon="0.75064">
        <ele>48</ele>
        <time>2024-04-11T12:10:31.000Z</time>
      </trkpt>
      <trkpt lat="44.14674" lon="0.75062">
        <ele>48</ele>
        <time>2024-04-11T12:10:32.000Z</time>
      </trkpt>
      <trkpt lat="44.14674" lon="0.75061">
        <ele>48</ele>
        <time>2024-04-11T12:10:33.000Z</time>
      </trkpt>
      <trkpt lat="44.14674" lon="0.75059">
        <ele>47</ele>
        <time>2024-04-11T12:10:34.000Z</time>
      </trkpt>
      <trkpt lat="44.14674" lon="0.75057">
        <ele>48</ele>
        <time>2024-04-11T12:10:35.000Z</time>
      </trkpt>
      <trkpt lat="44.14674" lon="0.75056">
        <ele>48</ele>
        <time>2024-04-11T12:10:36.000Z</time>
      </trkpt>
      <trkpt lat="44.14674" lon="0.75054">
        <ele>48</ele>
        <time>2024-04-11T12:10:37.000Z</time>
      </trkpt>
      <trkpt lat="44.14674" lon="0.75052">
        <ele>48</ele>
        <time>2024-04-11T12:10:38.000Z</time>
      </trkpt>
      <trkpt lat="44.14674" lon="0.7505">
        <ele>48</ele>
        <time>2024-04-11T12:10:39.000Z</time>
      </trkpt>
      <trkpt lat="44.14674" lon="0.75048">
        <ele>48</ele>
        <time>2024-04-11T12:10:40.000Z</time>
      </trkpt>
      <trkpt lat="44.14674" lon="0.75046">
        <ele>48</ele>
        <time>2024-04-11T12:10:41.000Z</time>
      </trkpt>
      <trkpt lat="44.14674" lon="0.75045">
        <ele>48</ele>
        <time>2024-04-11T12:10:42.000Z</time>
      </trkpt>
      <trkpt lat="44.14674" lon="0.75043">
        <ele>48</ele>
        <time>2024-04-11T12:10:43.000Z</time>
      </trkpt>
      <trkpt lat="44.14674" lon="0.75041">
        <ele>48</ele>
        <time>2024-04-11T12:10:44.000Z</time>
      </trkpt>
      <trkpt lat="44.14674" lon="0.7504">
        <ele>48</ele>
        <time>2024-04-11T12:10:45.000Z</time>
      </trkpt>
      <trkpt lat="44.14674" lon="0.75038">
        <ele>48</ele>
        <time>2024-04-11T12:10:46.000Z</time>
      </trkpt>
      <trkpt lat="44.14674" lon="0.75037">
        <ele>48</ele>
        <time>2024-04-11T12:10:47.000Z</time>
      </trkpt>
      <trkpt lat="44.14674" lon="0.75035">
        <ele>48</ele>
        <time>2024-04-11T12:10:48.000Z</time>
      </trkpt>
      <trkpt lat="44.14674" lon="0.75033">
        <ele>48</ele>
        <time>2024-04-11T12:10:49.000Z</time>
      </trkpt>
      <trkpt lat="44.14674" lon="0.75032">
        <ele>48</ele>
        <time>2024-04-11T12:10:50.000Z</time>
      </trkpt>
      <trkpt lat="44.14674" lon="0.7503">
        <ele>48</ele>
        <time>2024-04-11T12:10:51.000Z</time>
      </trkpt>
      <trkpt lat="44.14673" lon="0.75028">
        <ele>49</ele>
        <time>2024-04-11T12:10:52.000Z</time>
      </trkpt>
      <trkpt lat="44.14673" lon="0.75027">
        <ele>48</ele>
        <time>2024-04-11T12:10:53.000Z</time>
      </trkpt>
      <trkpt lat="44.14673" lon="0.75025">
        <ele>48</ele>
        <time>2024-04-11T12:10:54.000Z</time>
      </trkpt>
      <trkpt lat="44.14673" lon="0.75023">
        <ele>48</ele>
        <time>2024-04-11T12:10:55.000Z</time>
      </trkpt>
      <trkpt lat="44.14673" lon="0.75022">
        <ele>48</ele>
        <time>2024-04-11T12:10:56.000Z</time>
      </trkpt>
      <trkpt lat="44.14674" lon="0.7502">
        <ele>48</ele>
        <time>2024-04-11T12:10:57.000Z</time>
      </trkpt>
      <trkpt lat="44.14674" lon="0.75018">
        <ele>48</ele>
        <time>2024-04-11T12:10:58.000Z</time>
      </trkpt>
      <trkpt lat="44.14674" lon="0.75017">
        <ele>48</ele>
        <time>2024-04-11T12:10:59.000Z</time>
      </trkpt>
      <trkpt lat="44.14674" lon="0.75015">
        <ele>48</ele>
        <time>2024-04-11T12:11:00.000Z</time>
      </trkpt>
      <trkpt lat="44.14674" lon="0.75013">
        <ele>48</ele>
        <time>2024-04-11T12:11:01.000Z</time>
      </trkpt>
      <trkpt lat="44.14674" lon="0.75011">
        <ele>49</ele>
        <time>2024-04-11T12:11:02.000Z</time>
      </trkpt>
      <trkpt lat="44.14674" lon="0.75009">
        <ele>49</ele>
        <time>2024-04-11T12:11:03.000Z</time>
      </trkpt>
      <trkpt lat="44.14674" lon="0.75008">
        <ele>48</ele>
        <time>2024-04-11T12:11:04.000Z</time>
      </trkpt>
      <trkpt lat="44.14675" lon="0.75006">
        <ele>48</ele>
        <time>2024-04-11T12:11:05.000Z</time>
      </trkpt>
      <trkpt lat="44.14675" lon="0.75004">
        <ele>48</ele>
        <time>2024-04-11T12:11:06.000Z</time>
      </trkpt>
      <trkpt lat="44.14675" lon="0.75003">
        <ele>48</ele>
        <time>2024-04-11T12:11:07.000Z</time>
      </trkpt>
      <trkpt lat="44.14675" lon="0.75001">
        <ele>49</ele>
        <time>2024-04-11T12:11:08.000Z</time>
      </trkpt>
      <trkpt lat="44.14675" lon="0.75">
        <ele>48</ele>
        <time>2024-04-11T12:11:09.000Z</time>
      </trkpt>
      <trkpt lat="44.14676" lon="0.74998">
        <ele>48</ele>
        <time>2024-04-11T12:11:10.000Z</time>
      </trkpt>
      <trkpt lat="44.14676" lon="0.74996">
        <ele>48</ele>
        <time>2024-04-11T12:11:11.000Z</time>
      </trkpt>
      <trkpt lat="44.14676" lon="0.74995">
        <ele>48</ele>
        <time>2024-04-11T12:11:12.000Z</time>
      </trkpt>
      <trkpt lat="44.14676" lon="0.74993">
        <ele>47</ele>
        <time>2024-04-11T12:11:13.000Z</time>
      </trkpt>
      <trkpt lat="44.14677" lon="0.74992">
        <ele>47</ele>
        <time>2024-04-11T12:11:14.000Z</time>
      </trkpt>
      <trkpt lat="44.14677" lon="0.7499">
        <ele>47</ele>
        <time>2024-04-11T12:11:15.000Z</time>
      </trkpt>
      <trkpt lat="44.14677" lon="0.74988">
        <ele>47</ele>
        <time>2024-04-11T12:11:16.000Z</time>
      </trkpt>
      <trkpt lat="44.14677" lon="0.74987">
        <ele>48</ele>
        <time>2024-04-11T12:11:17.000Z</time>
      </trkpt>
      <trkpt lat="44.14678" lon="0.74985">
        <ele>48</ele>
        <time>2024-04-11T12:11:18.000Z</time>
      </trkpt>
      <trkpt lat="44.14678" lon="0.74983">
        <ele>48</ele>
        <time>2024-04-11T12:11:19.000Z</time>
      </trkpt>
      <trkpt lat="44.14679" lon="0.74982">
        <ele>48</ele>
        <time>2024-04-11T12:11:20.000Z</time>
      </trkpt>
      <trkpt lat="44.14679" lon="0.7498">
        <ele>48</ele>
        <time>2024-04-11T12:11:21.000Z</time>
      </trkpt>
      <trkpt lat="44.1468" lon="0.74978">
        <ele>48</ele>
        <time>2024-04-11T12:11:22.000Z</time>
      </trkpt>
      <trkpt lat="44.1468" lon="0.74977">
        <ele>48</ele>
        <time>2024-04-11T12:11:23.000Z</time>
      </trkpt>
      <trkpt lat="44.14681" lon="0.74975">
        <ele>48</ele>
        <time>2024-04-11T12:11:24.000Z</time>
      </trkpt>
      <trkpt lat="44.14681" lon="0.74974">
        <ele>48</ele>
        <time>2024-04-11T12:11:25.000Z</time>
      </trkpt>
      <trkpt lat="44.14682" lon="0.74972">
        <ele>48</ele>
        <time>2024-04-11T12:11:26.000Z</time>
      </trkpt>
      <trkpt lat="44.14683" lon="0.74971">
        <ele>48</ele>
        <time>2024-04-11T12:11:27.000Z</time>
      </trkpt>
      <trkpt lat="44.14683" lon="0.74969">
        <ele>48</ele>
        <time>2024-04-11T12:11:28.000Z</time>
      </trkpt>
      <trkpt lat="44.14684" lon="0.74968">
        <ele>48</ele>
        <time>2024-04-11T12:11:29.000Z</time>
      </trkpt>
      <trkpt lat="44.14685" lon="0.74966">
        <ele>49</ele>
        <time>2024-04-11T12:11:30.000Z</time>
      </trkpt>
      <trkpt lat="44.14685" lon="0.74965">
        <ele>49</ele>
        <time>2024-04-11T12:11:31.000Z</time>
      </trkpt>
      <trkpt lat="44.14686" lon="0.74963">
        <ele>49</ele>
        <time>2024-04-11T12:11:32.000Z</time>
      </trkpt>
      <trkpt lat="44.14686" lon="0.74961">
        <ele>49</ele>
        <time>2024-04-11T12:11:33.000Z</time>
      </trkpt>
      <trkpt lat="44.14687" lon="0.7496">
        <ele>49</ele>
        <time>2024-04-11T12:11:34.000Z</time>
      </trkpt>
      <trkpt lat="44.14688" lon="0.74958">
        <ele>50</ele>
        <time>2024-04-11T12:11:35.000Z</time>
      </trkpt>
      <trkpt lat="44.14689" lon="0.74957">
        <ele>50</ele>
        <time>2024-04-11T12:11:36.000Z</time>
      </trkpt>
      <trkpt lat="44.14689" lon="0.74955">
        <ele>51</ele>
        <time>2024-04-11T12:11:37.000Z</time>
      </trkpt>
      <trkpt lat="44.1469" lon="0.74954">
        <ele>50</ele>
        <time>2024-04-11T12:11:38.000Z</time>
      </trkpt>
      <trkpt lat="44.1469" lon="0.74952">
        <ele>50</ele>
        <time>2024-04-11T12:11:39.000Z</time>
      </trkpt>
      <trkpt lat="44.14691" lon="0.74951">
        <ele>50</ele>
        <time>2024-04-11T12:11:40.000Z</time>
      </trkpt>
      <trkpt lat="44.14692" lon="0.74949">
        <ele>50</ele>
        <time>2024-04-11T12:11:41.000Z</time>
      </trkpt>
      <trkpt lat="44.14693" lon="0.74948">
        <ele>51</ele>
        <time>2024-04-11T12:11:42.000Z</time>
      </trkpt>
      <trkpt lat="44.14693" lon="0.74946">
        <ele>51</ele>
        <time>2024-04-11T12:11:43.000Z</time>
      </trkpt>
      <trkpt lat="44.14694" lon="0.74945">
        <ele>52</ele>
        <time>2024-04-11T12:11:44.000Z</time>
      </trkpt>
      <trkpt lat="44.14695" lon="0.74943">
        <ele>51</ele>
        <time>2024-04-11T12:11:45.000Z</time>
      </trkpt>
      <trkpt lat="44.14695" lon="0.74942">
        <ele>51</ele>
        <time>2024-04-11T12:11:46.000Z</time>
      </trkpt>
      <trkpt lat="44.14696" lon="0.7494">
        <ele>51</ele>
        <time>2024-04-11T12:11:47.000Z</time>
      </trkpt>
      <trkpt lat="44.14697" lon="0.74939">
        <ele>51</ele>
        <time>2024-04-11T12:11:48.000Z</time>
      </trkpt>
      <trkpt lat="44.14697" lon="0.74937">
        <ele>51</ele>
        <time>2024-04-11T12:11:49.000Z</time>
      </trkpt>
      <trkpt lat="44.14698" lon="0.74936">
        <ele>51</ele>
        <time>2024-04-11T12:11:50.000Z</time>
      </trkpt>
      <trkpt lat="44.14698" lon="0.74934">
        <ele>51</ele>
        <time>2024-04-11T12:11:51.000Z</time>
      </trkpt>
      <trkpt lat="44.14699" lon="0.74932">
        <ele>51</ele>
        <time>2024-04-11T12:11:52.000Z</time>
      </trkpt>
      <trkpt lat="44.147" lon="0.74931">
        <ele>52</ele>
        <time>2024-04-11T12:11:53.000Z</time>
      </trkpt>
      <trkpt lat="44.147" lon="0.74929">
        <ele>51</ele>
        <time>2024-04-11T12:11:54.000Z</time>
      </trkpt>
      <trkpt lat="44.14701" lon="0.74928">
        <ele>52</ele>
        <time>2024-04-11T12:11:55.000Z</time>
      </trkpt>
      <trkpt lat="44.14702" lon="0.74926">
        <ele>51</ele>
        <time>2024-04-11T12:11:56.000Z</time>
      </trkpt>
      <trkpt lat="44.14703" lon="0.74925">
        <ele>51</ele>
        <time>2024-04-11T12:11:57.000Z</time>
      </trkpt>
      <trkpt lat="44.14703" lon="0.74923">
        <ele>52</ele>
        <time>2024-04-11T12:11:58.000Z</time>
      </trkpt>
      <trkpt lat="44.14704" lon="0.74922">
        <ele>52</ele>
        <time>2024-04-11T12:11:59.000Z</time>
      </trkpt>
      <trkpt lat="44.14705" lon="0.7492">
        <ele>52</ele>
        <time>2024-04-11T12:12:00.000Z</time>
      </trkpt>
      <trkpt lat="44.14705" lon="0.74919">
        <ele>52</ele>
        <time>2024-04-11T12:12:01.000Z</time>
      </trkpt>
      <trkpt lat="44.14706" lon="0.74917">
        <ele>51</ele>
        <time>2024-04-11T12:12:02.000Z</time>
      </trkpt>
      <trkpt lat="44.14707" lon="0.74916">
        <ele>51</ele>
        <time>2024-04-11T12:12:03.000Z</time>
      </trkpt>
      <trkpt lat="44.14707" lon="0.74914">
        <ele>51</ele>
        <time>2024-04-11T12:12:04.000Z</time>
      </trkpt>
      <trkpt lat="44.14708" lon="0.74913">
        <ele>51</ele>
        <time>2024-04-11T12:12:05.000Z</time>
      </trkpt>
      <trkpt lat="44.14708" lon="0.74911">
        <ele>50</ele>
        <time>2024-04-11T12:12:06.000Z</time>
      </trkpt>
      <trkpt lat="44.14709" lon="0.7491">
        <ele>50</ele>
        <time>2024-04-11T12:12:07.000Z</time>
      </trkpt>
      <trkpt lat="44.14709" lon="0.74909">
        <ele>50</ele>
        <time>2024-04-11T12:12:08.000Z</time>
      </trkpt>
      <trkpt lat="44.1471" lon="0.74907">
        <ele>51</ele>
        <time>2024-04-11T12:12:09.000Z</time>
      </trkpt>
      <trkpt lat="44.1471" lon="0.74907">
        <ele>50</ele>
        <time>2024-04-11T12:12:10.000Z</time>
      </trkpt>
      <trkpt lat="44.1471" lon="0.74906">
        <ele>50</ele>
        <time>2024-04-11T12:12:11.000Z</time>
      </trkpt>
      <trkpt lat="44.14711" lon="0.74905">
        <ele>50</ele>
        <time>2024-04-11T12:12:12.000Z</time>
      </trkpt>
      <trkpt lat="44.14711" lon="0.74904">
        <ele>50</ele>
        <time>2024-04-11T12:12:13.000Z</time>
      </trkpt>
      <trkpt lat="44.14711" lon="0.74903">
        <ele>50</ele>
        <time>2024-04-11T12:12:14.000Z</time>
      </trkpt>
      <trkpt lat="44.14711" lon="0.74902">
        <ele>50</ele>
        <time>2024-04-11T12:12:15.000Z</time>
      </trkpt>
      <trkpt lat="44.14711" lon="0.74902">
        <ele>50</ele>
        <time>2024-04-11T12:12:16.000Z</time>
      </trkpt>
      <trkpt lat="44.14712" lon="0.74901">
        <ele>51</ele>
        <time>2024-04-11T12:12:17.000Z</time>
      </trkpt>
      <trkpt lat="44.14712" lon="0.749">
        <ele>50</ele>
        <time>2024-04-11T12:12:18.000Z</time>
      </trkpt>
      <trkpt lat="44.14712" lon="0.749">
        <ele>51</ele>
        <time>2024-04-11T12:12:19.000Z</time>
      </trkpt>
      <trkpt lat="44.14713" lon="0.74899">
        <ele>51</ele>
        <time>2024-04-11T12:12:20.000Z</time>
      </trkpt>
      <trkpt lat="44.14713" lon="0.74898">
        <ele>51</ele>
        <time>2024-04-11T12:12:21.000Z</time>
      </trkpt>
      <trkpt lat="44.14714" lon="0.74897">
        <ele>52</ele>
        <time>2024-04-11T12:12:22.000Z</time>
      </trkpt>
      <trkpt lat="44.14714" lon="0.74896">
        <ele>52</ele>
        <time>2024-04-11T12:12:23.000Z</time>
      </trkpt>
      <trkpt lat="44.14715" lon="0.74895">
        <ele>53</ele>
        <time>2024-04-11T12:12:24.000Z</time>
      </trkpt>
      <trkpt lat="44.14715" lon="0.74894">
        <ele>53</ele>
        <time>2024-04-11T12:12:25.000Z</time>
      </trkpt>
      <trkpt lat="44.14715" lon="0.74893">
        <ele>53</ele>
        <time>2024-04-11T12:12:26.000Z</time>
      </trkpt>
      <trkpt lat="44.14716" lon="0.74892">
        <ele>53</ele>
        <time>2024-04-11T12:12:27.000Z</time>
      </trkpt>
      <trkpt lat="44.14716" lon="0.74891">
        <ele>53</ele>
        <time>2024-04-11T12:12:28.000Z</time>
      </trkpt>
      <trkpt lat="44.14717" lon="0.7489">
        <ele>54</ele>
        <time>2024-04-11T12:12:29.000Z</time>
      </trkpt>
      <trkpt lat="44.14717" lon="0.74889">
        <ele>54</ele>
        <time>2024-04-11T12:12:30.000Z</time>
      </trkpt>
      <trkpt lat="44.14717" lon="0.74888">
        <ele>55</ele>
        <time>2024-04-11T12:12:31.000Z</time>
      </trkpt>
      <trkpt lat="44.14718" lon="0.74887">
        <ele>55</ele>
        <time>2024-04-11T12:12:32.000Z</time>
      </trkpt>
      <trkpt lat="44.14718" lon="0.74886">
        <ele>55</ele>
        <time>2024-04-11T12:12:33.000Z</time>
      </trkpt>
      <trkpt lat="44.14718" lon="0.74885">
        <ele>55</ele>
        <time>2024-04-11T12:12:34.000Z</time>
      </trkpt>
      <trkpt lat="44.14719" lon="0.74884">
        <ele>55</ele>
        <time>2024-04-11T12:12:35.000Z</time>
      </trkpt>
      <trkpt lat="44.14719" lon="0.74883">
        <ele>55</ele>
        <time>2024-04-11T12:12:36.000Z</time>
      </trkpt>
      <trkpt lat="44.1472" lon="0.74882">
        <ele>55</ele>
        <time>2024-04-11T12:12:37.000Z</time>
      </trkpt>
      <trkpt lat="44.1472" lon="0.7488">
        <ele>55</ele>
        <time>2024-04-11T12:12:38.000Z</time>
      </trkpt>
      <trkpt lat="44.14721" lon="0.74879">
        <ele>55</ele>
        <time>2024-04-11T12:12:39.000Z</time>
      </trkpt>
      <trkpt lat="44.14721" lon="0.74877">
        <ele>55</ele>
        <time>2024-04-11T12:12:40.000Z</time>
      </trkpt>
      <trkpt lat="44.14722" lon="0.74876">
        <ele>54</ele>
        <time>2024-04-11T12:12:41.000Z</time>
      </trkpt>
      <trkpt lat="44.14722" lon="0.74874">
        <ele>54</ele>
        <time>2024-04-11T12:12:42.000Z</time>
      </trkpt>
      <trkpt lat="44.14723" lon="0.74873">
        <ele>54</ele>
        <time>2024-04-11T12:12:43.000Z</time>
      </trkpt>
      <trkpt lat="44.14723" lon="0.74871">
        <ele>54</ele>
        <time>2024-04-11T12:12:44.000Z</time>
      </trkpt>
      <trkpt lat="44.14724" lon="0.7487">
        <ele>54</ele>
        <time>2024-04-11T12:12:45.000Z</time>
      </trkpt>
      <trkpt lat="44.14724" lon="0.74868">
        <ele>55</ele>
        <time>2024-04-11T12:12:46.000Z</time>
      </trkpt>
      <trkpt lat="44.14725" lon="0.74867">
        <ele>55</ele>
        <time>2024-04-11T12:12:47.000Z</time>
      </trkpt>
      <trkpt lat="44.14725" lon="0.74865">
        <ele>55</ele>
        <time>2024-04-11T12:12:48.000Z</time>
      </trkpt>
      <trkpt lat="44.14725" lon="0.74863">
        <ele>55</ele>
        <time>2024-04-11T12:12:49.000Z</time>
      </trkpt>
      <trkpt lat="44.14726" lon="0.74862">
        <ele>55</ele>
        <time>2024-04-11T12:12:50.000Z</time>
      </trkpt>
      <trkpt lat="44.14726" lon="0.7486">
        <ele>56</ele>
        <time>2024-04-11T12:12:51.000Z</time>
      </trkpt>
      <trkpt lat="44.14727" lon="0.74859">
        <ele>55</ele>
        <time>2024-04-11T12:12:52.000Z</time>
      </trkpt>
      <trkpt lat="44.14728" lon="0.74857">
        <ele>56</ele>
        <time>2024-04-11T12:12:53.000Z</time>
      </trkpt>
      <trkpt lat="44.14728" lon="0.74856">
        <ele>56</ele>
        <time>2024-04-11T12:12:54.000Z</time>
      </trkpt>
      <trkpt lat="44.14729" lon="0.74854">
        <ele>57</ele>
        <time>2024-04-11T12:12:55.000Z</time>
      </trkpt>
      <trkpt lat="44.14729" lon="0.74852">
        <ele>57</ele>
        <time>2024-04-11T12:12:56.000Z</time>
      </trkpt>
      <trkpt lat="44.1473" lon="0.74851">
        <ele>56</ele>
        <time>2024-04-11T12:12:57.000Z</time>
      </trkpt>
      <trkpt lat="44.1473" lon="0.74849">
        <ele>56</ele>
        <time>2024-04-11T12:12:58.000Z</time>
      </trkpt>
      <trkpt lat="44.14731" lon="0.74848">
        <ele>56</ele>
        <time>2024-04-11T12:12:59.000Z</time>
      </trkpt>
      <trkpt lat="44.14732" lon="0.74846">
        <ele>56</ele>
        <time>2024-04-11T12:13:00.000Z</time>
      </trkpt>
      <trkpt lat="44.14732" lon="0.74845">
        <ele>56</ele>
        <time>2024-04-11T12:13:01.000Z</time>
      </trkpt>
      <trkpt lat="44.14732" lon="0.74843">
        <ele>56</ele>
        <time>2024-04-11T12:13:02.000Z</time>
      </trkpt>
      <trkpt lat="44.14733" lon="0.74842">
        <ele>55</ele>
        <time>2024-04-11T12:13:03.000Z</time>
      </trkpt>
      <trkpt lat="44.14733" lon="0.7484">
        <ele>56</ele>
        <time>2024-04-11T12:13:04.000Z</time>
      </trkpt>
      <trkpt lat="44.14734" lon="0.74839">
        <ele>55</ele>
        <time>2024-04-11T12:13:05.000Z</time>
      </trkpt>
      <trkpt lat="44.14734" lon="0.74837">
        <ele>54</ele>
        <time>2024-04-11T12:13:06.000Z</time>
      </trkpt>
      <trkpt lat="44.14735" lon="0.74836">
        <ele>55</ele>
        <time>2024-04-11T12:13:07.000Z</time>
      </trkpt>
      <trkpt lat="44.14735" lon="0.74834">
        <ele>55</ele>
        <time>2024-04-11T12:13:08.000Z</time>
      </trkpt>
      <trkpt lat="44.14736" lon="0.74833">
        <ele>55</ele>
        <time>2024-04-11T12:13:09.000Z</time>
      </trkpt>
      <trkpt lat="44.14736" lon="0.74831">
        <ele>55</ele>
        <time>2024-04-11T12:13:10.000Z</time>
      </trkpt>
      <trkpt lat="44.14737" lon="0.7483">
        <ele>55</ele>
        <time>2024-04-11T12:13:11.000Z</time>
      </trkpt>
      <trkpt lat="44.14737" lon="0.74828">
        <ele>55</ele>
        <time>2024-04-11T12:13:12.000Z</time>
      </trkpt>
      <trkpt lat="44.14738" lon="0.74827">
        <ele>55</ele>
        <time>2024-04-11T12:13:13.000Z</time>
      </trkpt>
      <trkpt lat="44.14739" lon="0.74826">
        <ele>55</ele>
        <time>2024-04-11T12:13:14.000Z</time>
      </trkpt>
      <trkpt lat="44.1474" lon="0.74824">
        <ele>55</ele>
        <time>2024-04-11T12:13:15.000Z</time>
      </trkpt>
      <trkpt lat="44.1474" lon="0.74823">
        <ele>55</ele>
        <time>2024-04-11T12:13:16.000Z</time>
      </trkpt>
      <trkpt lat="44.14741" lon="0.74821">
        <ele>54</ele>
        <time>2024-04-11T12:13:17.000Z</time>
      </trkpt>
      <trkpt lat="44.14741" lon="0.74819">
        <ele>55</ele>
        <time>2024-04-11T12:13:18.000Z</time>
      </trkpt>
      <trkpt lat="44.14742" lon="0.74818">
        <ele>54</ele>
        <time>2024-04-11T12:13:19.000Z</time>
      </trkpt>
      <trkpt lat="44.14742" lon="0.74817">
        <ele>52</ele>
        <time>2024-04-11T12:13:20.000Z</time>
      </trkpt>
      <trkpt lat="44.14742" lon="0.74815">
        <ele>51</ele>
        <time>2024-04-11T12:13:21.000Z</time>
      </trkpt>
      <trkpt lat="44.14743" lon="0.74814">
        <ele>51</ele>
        <time>2024-04-11T12:13:22.000Z</time>
      </trkpt>
      <trkpt lat="44.14743" lon="0.74813">
        <ele>51</ele>
        <time>2024-04-11T12:13:23.000Z</time>
      </trkpt>
      <trkpt lat="44.14743" lon="0.74811">
        <ele>52</ele>
        <time>2024-04-11T12:13:24.000Z</time>
      </trkpt>
      <trkpt lat="44.14744" lon="0.7481">
        <ele>52</ele>
        <time>2024-04-11T12:13:25.000Z</time>
      </trkpt>
      <trkpt lat="44.14745" lon="0.74808">
        <ele>52</ele>
        <time>2024-04-11T12:13:26.000Z</time>
      </trkpt>
      <trkpt lat="44.14746" lon="0.74807">
        <ele>52</ele>
        <time>2024-04-11T12:13:27.000Z</time>
      </trkpt>
      <trkpt lat="44.14747" lon="0.74806">
        <ele>53</ele>
        <time>2024-04-11T12:13:28.000Z</time>
      </trkpt>
      <trkpt lat="44.14747" lon="0.74804">
        <ele>52</ele>
        <time>2024-04-11T12:13:29.000Z</time>
      </trkpt>
      <trkpt lat="44.14748" lon="0.74803">
        <ele>53</ele>
        <time>2024-04-11T12:13:30.000Z</time>
      </trkpt>
      <trkpt lat="44.14748" lon="0.74801">
        <ele>53</ele>
        <time>2024-04-11T12:13:31.000Z</time>
      </trkpt>
      <trkpt lat="44.14749" lon="0.74799">
        <ele>53</ele>
        <time>2024-04-11T12:13:32.000Z</time>
      </trkpt>
      <trkpt lat="44.1475" lon="0.74798">
        <ele>52</ele>
        <time>2024-04-11T12:13:33.000Z</time>
      </trkpt>
      <trkpt lat="44.1475" lon="0.74797">
        <ele>53</ele>
        <time>2024-04-11T12:13:34.000Z</time>
      </trkpt>
      <trkpt lat="44.14751" lon="0.74795">
        <ele>54</ele>
        <time>2024-04-11T12:13:35.000Z</time>
      </trkpt>
      <trkpt lat="44.14751" lon="0.74793">
        <ele>54</ele>
        <time>2024-04-11T12:13:36.000Z</time>
      </trkpt>
      <trkpt lat="44.14752" lon="0.74792">
        <ele>54</ele>
        <time>2024-04-11T12:13:37.000Z</time>
      </trkpt>
      <trkpt lat="44.14752" lon="0.7479">
        <ele>54</ele>
        <time>2024-04-11T12:13:38.000Z</time>
      </trkpt>
      <trkpt lat="44.14753" lon="0.74789">
        <ele>53</ele>
        <time>2024-04-11T12:13:39.000Z</time>
      </trkpt>
      <trkpt lat="44.14753" lon="0.74788">
        <ele>53</ele>
        <time>2024-04-11T12:13:40.000Z</time>
      </trkpt>
      <trkpt lat="44.14754" lon="0.74786">
        <ele>53</ele>
        <time>2024-04-11T12:13:41.000Z</time>
      </trkpt>
      <trkpt lat="44.14754" lon="0.74785">
        <ele>53</ele>
        <time>2024-04-11T12:13:42.000Z</time>
      </trkpt>
      <trkpt lat="44.14755" lon="0.74783">
        <ele>53</ele>
        <time>2024-04-11T12:13:43.000Z</time>
      </trkpt>
      <trkpt lat="44.14755" lon="0.74782">
        <ele>53</ele>
        <time>2024-04-11T12:13:44.000Z</time>
      </trkpt>
      <trkpt lat="44.14756" lon="0.7478">
        <ele>53</ele>
        <time>2024-04-11T12:13:45.000Z</time>
      </trkpt>
      <trkpt lat="44.14757" lon="0.74779">
        <ele>53</ele>
        <time>2024-04-11T12:13:46.000Z</time>
      </trkpt>
      <trkpt lat="44.14758" lon="0.74777">
        <ele>52</ele>
        <time>2024-04-11T12:13:47.000Z</time>
      </trkpt>
      <trkpt lat="44.14758" lon="0.74776">
        <ele>52</ele>
        <time>2024-04-11T12:13:48.000Z</time>
      </trkpt>
      <trkpt lat="44.14759" lon="0.74774">
        <ele>52</ele>
        <time>2024-04-11T12:13:49.000Z</time>
      </trkpt>
      <trkpt lat="44.1476" lon="0.74773">
        <ele>52</ele>
        <time>2024-04-11T12:13:50.000Z</time>
      </trkpt>
      <trkpt lat="44.1476" lon="0.74771">
        <ele>52</ele>
        <time>2024-04-11T12:13:51.000Z</time>
      </trkpt>
      <trkpt lat="44.14761" lon="0.74769">
        <ele>52</ele>
        <time>2024-04-11T12:13:52.000Z</time>
      </trkpt>
      <trkpt lat="44.14761" lon="0.74768">
        <ele>52</ele>
        <time>2024-04-11T12:13:53.000Z</time>
      </trkpt>
      <trkpt lat="44.14762" lon="0.74766">
        <ele>52</ele>
        <time>2024-04-11T12:13:54.000Z</time>
      </trkpt>
      <trkpt lat="44.14763" lon="0.74765">
        <ele>52</ele>
        <time>2024-04-11T12:13:55.000Z</time>
      </trkpt>
      <trkpt lat="44.14763" lon="0.74764">
        <ele>51</ele>
        <time>2024-04-11T12:13:56.000Z</time>
      </trkpt>
      <trkpt lat="44.14764" lon="0.74762">
        <ele>50</ele>
        <time>2024-04-11T12:13:57.000Z</time>
      </trkpt>
      <trkpt lat="44.14764" lon="0.74761">
        <ele>50</ele>
        <time>2024-04-11T12:13:58.000Z</time>
      </trkpt>
      <trkpt lat="44.14765" lon="0.74759">
        <ele>51</ele>
        <time>2024-04-11T12:13:59.000Z</time>
      </trkpt>
      <trkpt lat="44.14766" lon="0.74758">
        <ele>51</ele>
        <time>2024-04-11T12:14:00.000Z</time>
      </trkpt>
      <trkpt lat="44.14766" lon="0.74757">
        <ele>51</ele>
        <time>2024-04-11T12:14:01.000Z</time>
      </trkpt>
      <trkpt lat="44.14767" lon="0.74755">
        <ele>52</ele>
        <time>2024-04-11T12:14:02.000Z</time>
      </trkpt>
      <trkpt lat="44.14768" lon="0.74754">
        <ele>52</ele>
        <time>2024-04-11T12:14:03.000Z</time>
      </trkpt>
      <trkpt lat="44.14768" lon="0.74752">
        <ele>52</ele>
        <time>2024-04-11T12:14:04.000Z</time>
      </trkpt>
      <trkpt lat="44.14769" lon="0.74751">
        <ele>52</ele>
        <time>2024-04-11T12:14:05.000Z</time>
      </trkpt>
      <trkpt lat="44.14769" lon="0.74749">
        <ele>52</ele>
        <time>2024-04-11T12:14:06.000Z</time>
      </trkpt>
      <trkpt lat="44.1477" lon="0.74748">
        <ele>52</ele>
        <time>2024-04-11T12:14:07.000Z</time>
      </trkpt>
      <trkpt lat="44.14771" lon="0.74747">
        <ele>52</ele>
        <time>2024-04-11T12:14:08.000Z</time>
      </trkpt>
      <trkpt lat="44.14772" lon="0.74745">
        <ele>52</ele>
        <time>2024-04-11T12:14:09.000Z</time>
      </trkpt>
      <trkpt lat="44.14773" lon="0.74744">
        <ele>53</ele>
        <time>2024-04-11T12:14:10.000Z</time>
      </trkpt>
      <trkpt lat="44.14774" lon="0.74742">
        <ele>53</ele>
        <time>2024-04-11T12:14:11.000Z</time>
      </trkpt>
      <trkpt lat="44.14774" lon="0.74741">
        <ele>53</ele>
        <time>2024-04-11T12:14:12.000Z</time>
      </trkpt>
      <trkpt lat="44.14775" lon="0.7474">
        <ele>54</ele>
        <time>2024-04-11T12:14:13.000Z</time>
      </trkpt>
      <trkpt lat="44.14775" lon="0.74738">
        <ele>53</ele>
        <time>2024-04-11T12:14:14.000Z</time>
      </trkpt>
      <trkpt lat="44.14776" lon="0.74736">
        <ele>54</ele>
        <time>2024-04-11T12:14:15.000Z</time>
      </trkpt>
      <trkpt lat="44.14777" lon="0.74735">
        <ele>54</ele>
        <time>2024-04-11T12:14:16.000Z</time>
      </trkpt>
      <trkpt lat="44.14778" lon="0.74733">
        <ele>54</ele>
        <time>2024-04-11T12:14:17.000Z</time>
      </trkpt>
      <trkpt lat="44.14779" lon="0.74732">
        <ele>54</ele>
        <time>2024-04-11T12:14:18.000Z</time>
      </trkpt>
      <trkpt lat="44.14779" lon="0.7473">
        <ele>55</ele>
        <time>2024-04-11T12:14:19.000Z</time>
      </trkpt>
      <trkpt lat="44.1478" lon="0.74729">
        <ele>55</ele>
        <time>2024-04-11T12:14:20.000Z</time>
      </trkpt>
      <trkpt lat="44.14781" lon="0.74727">
        <ele>55</ele>
        <time>2024-04-11T12:14:21.000Z</time>
      </trkpt>
      <trkpt lat="44.14781" lon="0.74726">
        <ele>55</ele>
        <time>2024-04-11T12:14:22.000Z</time>
      </trkpt>
      <trkpt lat="44.14782" lon="0.74724">
        <ele>55</ele>
        <time>2024-04-11T12:14:23.000Z</time>
      </trkpt>
      <trkpt lat="44.14782" lon="0.74723">
        <ele>55</ele>
        <time>2024-04-11T12:14:24.000Z</time>
      </trkpt>
      <trkpt lat="44.14783" lon="0.74722">
        <ele>55</ele>
        <time>2024-04-11T12:14:25.000Z</time>
      </trkpt>
      <trkpt lat="44.14784" lon="0.7472">
        <ele>54</ele>
        <time>2024-04-11T12:14:26.000Z</time>
      </trkpt>
      <trkpt lat="44.14784" lon="0.74719">
        <ele>55</ele>
        <time>2024-04-11T12:14:27.000Z</time>
      </trkpt>
      <trkpt lat="44.14785" lon="0.74717">
        <ele>55</ele>
        <time>2024-04-11T12:14:28.000Z</time>
      </trkpt>
      <trkpt lat="44.14786" lon="0.74716">
        <ele>55</ele>
        <time>2024-04-11T12:14:29.000Z</time>
      </trkpt>
      <trkpt lat="44.14787" lon="0.74714">
        <ele>54</ele>
        <time>2024-04-11T12:14:30.000Z</time>
      </trkpt>
      <trkpt lat="44.14787" lon="0.74712">
        <ele>54</ele>
        <time>2024-04-11T12:14:31.000Z</time>
      </trkpt>
      <trkpt lat="44.14788" lon="0.7471">
        <ele>53</ele>
        <time>2024-04-11T12:14:32.000Z</time>
      </trkpt>
      <trkpt lat="44.14788" lon="0.74709">
        <ele>53</ele>
        <time>2024-04-11T12:14:33.000Z</time>
      </trkpt>
      <trkpt lat="44.14789" lon="0.74707">
        <ele>52</ele>
        <time>2024-04-11T12:14:34.000Z</time>
      </trkpt>
      <trkpt lat="44.14789" lon="0.74706">
        <ele>53</ele>
        <time>2024-04-11T12:14:35.000Z</time>
      </trkpt>
      <trkpt lat="44.1479" lon="0.74704">
        <ele>53</ele>
        <time>2024-04-11T12:14:36.000Z</time>
      </trkpt>
      <trkpt lat="44.14791" lon="0.74702">
        <ele>53</ele>
        <time>2024-04-11T12:14:37.000Z</time>
      </trkpt>
      <trkpt lat="44.14791" lon="0.74701">
        <ele>53</ele>
        <time>2024-04-11T12:14:38.000Z</time>
      </trkpt>
      <trkpt lat="44.14792" lon="0.74699">
        <ele>53</ele>
        <time>2024-04-11T12:14:39.000Z</time>
      </trkpt>
      <trkpt lat="44.14792" lon="0.74698">
        <ele>53</ele>
        <time>2024-04-11T12:14:40.000Z</time>
      </trkpt>
      <trkpt lat="44.14793" lon="0.74696">
        <ele>52</ele>
        <time>2024-04-11T12:14:41.000Z</time>
      </trkpt>
      <trkpt lat="44.14794" lon="0.74695">
        <ele>52</ele>
        <time>2024-04-11T12:14:42.000Z</time>
      </trkpt>
      <trkpt lat="44.14795" lon="0.74693">
        <ele>52</ele>
        <time>2024-04-11T12:14:43.000Z</time>
      </trkpt>
      <trkpt lat="44.14795" lon="0.74692">
        <ele>52</ele>
        <time>2024-04-11T12:14:44.000Z</time>
      </trkpt>
      <trkpt lat="44.14796" lon="0.74691">
        <ele>52</ele>
        <time>2024-04-11T12:14:45.000Z</time>
      </trkpt>
      <trkpt lat="44.14797" lon="0.74689">
        <ele>52</ele>
        <time>2024-04-11T12:14:46.000Z</time>
      </trkpt>
      <trkpt lat="44.14797" lon="0.74688">
        <ele>53</ele>
        <time>2024-04-11T12:14:47.000Z</time>
      </trkpt>
      <trkpt lat="44.14798" lon="0.74687">
        <ele>52</ele>
        <time>2024-04-11T12:14:48.000Z</time>
      </trkpt>
      <trkpt lat="44.14799" lon="0.74685">
        <ele>52</ele>
        <time>2024-04-11T12:14:49.000Z</time>
      </trkpt>
      <trkpt lat="44.14799" lon="0.74684">
        <ele>53</ele>
        <time>2024-04-11T12:14:50.000Z</time>
      </trkpt>
      <trkpt lat="44.148" lon="0.74683">
        <ele>54</ele>
        <time>2024-04-11T12:14:51.000Z</time>
      </trkpt>
      <trkpt lat="44.148" lon="0.74681">
        <ele>55</ele>
        <time>2024-04-11T12:14:52.000Z</time>
      </trkpt>
      <trkpt lat="44.14801" lon="0.7468">
        <ele>55</ele>
        <time>2024-04-11T12:14:53.000Z</time>
      </trkpt>
      <trkpt lat="44.14802" lon="0.74679">
        <ele>56</ele>
        <time>2024-04-11T12:14:54.000Z</time>
      </trkpt>
      <trkpt lat="44.14803" lon="0.74677">
        <ele>56</ele>
        <time>2024-04-11T12:14:55.000Z</time>
      </trkpt>
      <trkpt lat="44.14804" lon="0.74676">
        <ele>57</ele>
        <time>2024-04-11T12:14:56.000Z</time>
      </trkpt>
      <trkpt lat="44.14804" lon="0.74674">
        <ele>58</ele>
        <time>2024-04-11T12:14:57.000Z</time>
      </trkpt>
      <trkpt lat="44.14805" lon="0.74673">
        <ele>59</ele>
        <time>2024-04-11T12:14:58.000Z</time>
      </trkpt>
      <trkpt lat="44.14806" lon="0.74671">
        <ele>59</ele>
        <time>2024-04-11T12:14:59.000Z</time>
      </trkpt>
      <trkpt lat="44.14807" lon="0.74669">
        <ele>58</ele>
        <time>2024-04-11T12:15:00.000Z</time>
      </trkpt>
      <trkpt lat="44.14807" lon="0.74668">
        <ele>58</ele>
        <time>2024-04-11T12:15:01.000Z</time>
      </trkpt>
      <trkpt lat="44.14808" lon="0.74667">
        <ele>58</ele>
        <time>2024-04-11T12:15:02.000Z</time>
      </trkpt>
      <trkpt lat="44.14809" lon="0.74665">
        <ele>58</ele>
        <time>2024-04-11T12:15:03.000Z</time>
      </trkpt>
      <trkpt lat="44.14809" lon="0.74664">
        <ele>59</ele>
        <time>2024-04-11T12:15:04.000Z</time>
      </trkpt>
      <trkpt lat="44.1481" lon="0.74663">
        <ele>60</ele>
        <time>2024-04-11T12:15:05.000Z</time>
      </trkpt>
      <trkpt lat="44.14811" lon="0.74661">
        <ele>61</ele>
        <time>2024-04-11T12:15:06.000Z</time>
      </trkpt>
      <trkpt lat="44.14811" lon="0.7466">
        <ele>60</ele>
        <time>2024-04-11T12:15:07.000Z</time>
      </trkpt>
      <trkpt lat="44.14812" lon="0.74658">
        <ele>60</ele>
        <time>2024-04-11T12:15:08.000Z</time>
      </trkpt>
      <trkpt lat="44.14812" lon="0.74657">
        <ele>60</ele>
        <time>2024-04-11T12:15:09.000Z</time>
      </trkpt>
      <trkpt lat="44.14813" lon="0.74655">
        <ele>61</ele>
        <time>2024-04-11T12:15:10.000Z</time>
      </trkpt>
      <trkpt lat="44.14814" lon="0.74654">
        <ele>61</ele>
        <time>2024-04-11T12:15:11.000Z</time>
      </trkpt>
      <trkpt lat="44.14814" lon="0.74652">
        <ele>61</ele>
        <time>2024-04-11T12:15:12.000Z</time>
      </trkpt>
      <trkpt lat="44.14815" lon="0.74651">
        <ele>60</ele>
        <time>2024-04-11T12:15:13.000Z</time>
      </trkpt>
      <trkpt lat="44.14816" lon="0.7465">
        <ele>60</ele>
        <time>2024-04-11T12:15:14.000Z</time>
      </trkpt>
      <trkpt lat="44.14816" lon="0.74648">
        <ele>60</ele>
        <time>2024-04-11T12:15:15.000Z</time>
      </trkpt>
      <trkpt lat="44.14817" lon="0.74647">
        <ele>59</ele>
        <time>2024-04-11T12:15:16.000Z</time>
      </trkpt>
      <trkpt lat="44.14818" lon="0.74645">
        <ele>59</ele>
        <time>2024-04-11T12:15:17.000Z</time>
      </trkpt>
      <trkpt lat="44.14819" lon="0.74644">
        <ele>59</ele>
        <time>2024-04-11T12:15:18.000Z</time>
      </trkpt>
      <trkpt lat="44.14819" lon="0.74642">
        <ele>59</ele>
        <time>2024-04-11T12:15:19.000Z</time>
      </trkpt>
      <trkpt lat="44.1482" lon="0.74641">
        <ele>59</ele>
        <time>2024-04-11T12:15:20.000Z</time>
      </trkpt>
      <trkpt lat="44.1482" lon="0.7464">
        <ele>59</ele>
        <time>2024-04-11T12:15:21.000Z</time>
      </trkpt>
      <trkpt lat="44.1482" lon="0.74639">
        <ele>59</ele>
        <time>2024-04-11T12:15:22.000Z</time>
      </trkpt>
      <trkpt lat="44.14821" lon="0.74637">
        <ele>59</ele>
        <time>2024-04-11T12:15:23.000Z</time>
      </trkpt>
      <trkpt lat="44.14822" lon="0.74636">
        <ele>59</ele>
        <time>2024-04-11T12:15:24.000Z</time>
      </trkpt>
      <trkpt lat="44.14822" lon="0.74634">
        <ele>60</ele>
        <time>2024-04-11T12:15:25.000Z</time>
      </trkpt>
      <trkpt lat="44.14823" lon="0.74633">
        <ele>58</ele>
        <time>2024-04-11T12:15:26.000Z</time>
      </trkpt>
      <trkpt lat="44.14824" lon="0.74632">
        <ele>57</ele>
        <time>2024-04-11T12:15:27.000Z</time>
      </trkpt>
      <trkpt lat="44.14824" lon="0.74631">
        <ele>58</ele>
        <time>2024-04-11T12:15:28.000Z</time>
      </trkpt>
      <trkpt lat="44.14825" lon="0.74629">
        <ele>57</ele>
        <time>2024-04-11T12:15:29.000Z</time>
      </trkpt>
      <trkpt lat="44.14825" lon="0.74628">
        <ele>56</ele>
        <time>2024-04-11T12:15:30.000Z</time>
      </trkpt>
      <trkpt lat="44.14826" lon="0.74626">
        <ele>55</ele>
        <time>2024-04-11T12:15:31.000Z</time>
      </trkpt>
      <trkpt lat="44.14826" lon="0.74625">
        <ele>56</ele>
        <time>2024-04-11T12:15:32.000Z</time>
      </trkpt>
      <trkpt lat="44.14828" lon="0.74623">
        <ele>56</ele>
        <time>2024-04-11T12:15:33.000Z</time>
      </trkpt>
      <trkpt lat="44.14828" lon="0.74621">
        <ele>56</ele>
        <time>2024-04-11T12:15:34.000Z</time>
      </trkpt>
      <trkpt lat="44.14829" lon="0.7462">
        <ele>55</ele>
        <time>2024-04-11T12:15:35.000Z</time>
      </trkpt>
      <trkpt lat="44.14829" lon="0.74618">
        <ele>56</ele>
        <time>2024-04-11T12:15:36.000Z</time>
      </trkpt>
      <trkpt lat="44.14829" lon="0.74617">
        <ele>56</ele>
        <time>2024-04-11T12:15:37.000Z</time>
      </trkpt>
      <trkpt lat="44.1483" lon="0.74615">
        <ele>56</ele>
        <time>2024-04-11T12:15:38.000Z</time>
      </trkpt>
      <trkpt lat="44.1483" lon="0.74614">
        <ele>56</ele>
        <time>2024-04-11T12:15:39.000Z</time>
      </trkpt>
      <trkpt lat="44.14831" lon="0.74612">
        <ele>55</ele>
        <time>2024-04-11T12:15:40.000Z</time>
      </trkpt>
      <trkpt lat="44.14831" lon="0.74611">
        <ele>55</ele>
        <time>2024-04-11T12:15:41.000Z</time>
      </trkpt>
      <trkpt lat="44.14832" lon="0.74609">
        <ele>56</ele>
        <time>2024-04-11T12:15:42.000Z</time>
      </trkpt>
      <trkpt lat="44.14833" lon="0.74607">
        <ele>55</ele>
        <time>2024-04-11T12:15:43.000Z</time>
      </trkpt>
      <trkpt lat="44.14834" lon="0.74605">
        <ele>54</ele>
        <time>2024-04-11T12:15:44.000Z</time>
      </trkpt>
      <trkpt lat="44.14834" lon="0.74604">
        <ele>54</ele>
        <time>2024-04-11T12:15:45.000Z</time>
      </trkpt>
      <trkpt lat="44.14835" lon="0.74603">
        <ele>53</ele>
        <time>2024-04-11T12:15:46.000Z</time>
      </trkpt>
      <trkpt lat="44.14836" lon="0.74601">
        <ele>54</ele>
        <time>2024-04-11T12:15:47.000Z</time>
      </trkpt>
      <trkpt lat="44.14836" lon="0.74599">
        <ele>53</ele>
        <time>2024-04-11T12:15:48.000Z</time>
      </trkpt>
      <trkpt lat="44.14837" lon="0.74598">
        <ele>52</ele>
        <time>2024-04-11T12:15:49.000Z</time>
      </trkpt>
      <trkpt lat="44.14838" lon="0.74596">
        <ele>52</ele>
        <time>2024-04-11T12:15:50.000Z</time>
      </trkpt>
      <trkpt lat="44.14839" lon="0.74595">
        <ele>51</ele>
        <time>2024-04-11T12:15:51.000Z</time>
      </trkpt>
      <trkpt lat="44.14839" lon="0.74594">
        <ele>50</ele>
        <time>2024-04-11T12:15:52.000Z</time>
      </trkpt>
      <trkpt lat="44.1484" lon="0.74592">
        <ele>50</ele>
        <time>2024-04-11T12:15:53.000Z</time>
      </trkpt>
      <trkpt lat="44.14841" lon="0.74591">
        <ele>51</ele>
        <time>2024-04-11T12:15:54.000Z</time>
      </trkpt>
      <trkpt lat="44.14841" lon="0.74589">
        <ele>51</ele>
        <time>2024-04-11T12:15:55.000Z</time>
      </trkpt>
      <trkpt lat="44.14842" lon="0.74588">
        <ele>51</ele>
        <time>2024-04-11T12:15:56.000Z</time>
      </trkpt>
      <trkpt lat="44.14842" lon="0.74586">
        <ele>51</ele>
        <time>2024-04-11T12:15:57.000Z</time>
      </trkpt>
      <trkpt lat="44.14843" lon="0.74585">
        <ele>52</ele>
        <time>2024-04-11T12:15:58.000Z</time>
      </trkpt>
      <trkpt lat="44.14844" lon="0.74583">
        <ele>52</ele>
        <time>2024-04-11T12:15:59.000Z</time>
      </trkpt>
      <trkpt lat="44.14844" lon="0.74581">
        <ele>52</ele>
        <time>2024-04-11T12:16:00.000Z</time>
      </trkpt>
      <trkpt lat="44.14845" lon="0.74579">
        <ele>52</ele>
        <time>2024-04-11T12:16:01.000Z</time>
      </trkpt>
      <trkpt lat="44.14846" lon="0.74577">
        <ele>53</ele>
        <time>2024-04-11T12:16:02.000Z</time>
      </trkpt>
      <trkpt lat="44.14846" lon="0.74575">
        <ele>53</ele>
        <time>2024-04-11T12:16:03.000Z</time>
      </trkpt>
      <trkpt lat="44.14847" lon="0.74574">
        <ele>53</ele>
        <time>2024-04-11T12:16:04.000Z</time>
      </trkpt>
      <trkpt lat="44.14848" lon="0.74572">
        <ele>53</ele>
        <time>2024-04-11T12:16:05.000Z</time>
      </trkpt>
      <trkpt lat="44.14848" lon="0.7457">
        <ele>53</ele>
        <time>2024-04-11T12:16:06.000Z</time>
      </trkpt>
      <trkpt lat="44.14849" lon="0.74569">
        <ele>54</ele>
        <time>2024-04-11T12:16:07.000Z</time>
      </trkpt>
      <trkpt lat="44.14849" lon="0.74567">
        <ele>53</ele>
        <time>2024-04-11T12:16:08.000Z</time>
      </trkpt>
      <trkpt lat="44.1485" lon="0.74566">
        <ele>53</ele>
        <time>2024-04-11T12:16:09.000Z</time>
      </trkpt>
      <trkpt lat="44.1485" lon="0.74565">
        <ele>53</ele>
        <time>2024-04-11T12:16:10.000Z</time>
      </trkpt>
      <trkpt lat="44.14851" lon="0.74563">
        <ele>53</ele>
        <time>2024-04-11T12:16:11.000Z</time>
      </trkpt>
      <trkpt lat="44.14851" lon="0.74562">
        <ele>53</ele>
        <time>2024-04-11T12:16:12.000Z</time>
      </trkpt>
      <trkpt lat="44.14852" lon="0.7456">
        <ele>52</ele>
        <time>2024-04-11T12:16:13.000Z</time>
      </trkpt>
      <trkpt lat="44.14852" lon="0.74559">
        <ele>52</ele>
        <time>2024-04-11T12:16:14.000Z</time>
      </trkpt>
      <trkpt lat="44.14853" lon="0.74557">
        <ele>53</ele>
        <time>2024-04-11T12:16:15.000Z</time>
      </trkpt>
      <trkpt lat="44.14854" lon="0.74556">
        <ele>53</ele>
        <time>2024-04-11T12:16:16.000Z</time>
      </trkpt>
      <trkpt lat="44.14854" lon="0.74554">
        <ele>53</ele>
        <time>2024-04-11T12:16:17.000Z</time>
      </trkpt>
      <trkpt lat="44.14855" lon="0.74553">
        <ele>53</ele>
        <time>2024-04-11T12:16:18.000Z</time>
      </trkpt>
      <trkpt lat="44.14856" lon="0.74551">
        <ele>53</ele>
        <time>2024-04-11T12:16:19.000Z</time>
      </trkpt>
      <trkpt lat="44.14856" lon="0.7455">
        <ele>53</ele>
        <time>2024-04-11T12:16:20.000Z</time>
      </trkpt>
      <trkpt lat="44.14857" lon="0.74548">
        <ele>54</ele>
        <time>2024-04-11T12:16:21.000Z</time>
      </trkpt>
      <trkpt lat="44.14858" lon="0.74546">
        <ele>53</ele>
        <time>2024-04-11T12:16:22.000Z</time>
      </trkpt>
      <trkpt lat="44.14858" lon="0.74545">
        <ele>53</ele>
        <time>2024-04-11T12:16:23.000Z</time>
      </trkpt>
      <trkpt lat="44.14859" lon="0.74544">
        <ele>53</ele>
        <time>2024-04-11T12:16:24.000Z</time>
      </trkpt>
      <trkpt lat="44.1486" lon="0.74542">
        <ele>53</ele>
        <time>2024-04-11T12:16:25.000Z</time>
      </trkpt>
      <trkpt lat="44.14861" lon="0.74541">
        <ele>52</ele>
        <time>2024-04-11T12:16:26.000Z</time>
      </trkpt>
      <trkpt lat="44.14862" lon="0.74539">
        <ele>53</ele>
        <time>2024-04-11T12:16:27.000Z</time>
      </trkpt>
      <trkpt lat="44.14862" lon="0.74538">
        <ele>52</ele>
        <time>2024-04-11T12:16:28.000Z</time>
      </trkpt>
      <trkpt lat="44.14863" lon="0.74536">
        <ele>53</ele>
        <time>2024-04-11T12:16:29.000Z</time>
      </trkpt>
      <trkpt lat="44.14864" lon="0.74535">
        <ele>53</ele>
        <time>2024-04-11T12:16:30.000Z</time>
      </trkpt>
      <trkpt lat="44.14864" lon="0.74533">
        <ele>53</ele>
        <time>2024-04-11T12:16:31.000Z</time>
      </trkpt>
      <trkpt lat="44.14865" lon="0.74532">
        <ele>53</ele>
        <time>2024-04-11T12:16:32.000Z</time>
      </trkpt>
      <trkpt lat="44.14866" lon="0.7453">
        <ele>53</ele>
        <time>2024-04-11T12:16:33.000Z</time>
      </trkpt>
      <trkpt lat="44.14866" lon="0.74529">
        <ele>53</ele>
        <time>2024-04-11T12:16:34.000Z</time>
      </trkpt>
      <trkpt lat="44.14867" lon="0.74527">
        <ele>53</ele>
        <time>2024-04-11T12:16:35.000Z</time>
      </trkpt>
      <trkpt lat="44.14867" lon="0.74526">
        <ele>53</ele>
        <time>2024-04-11T12:16:36.000Z</time>
      </trkpt>
      <trkpt lat="44.14868" lon="0.74524">
        <ele>53</ele>
        <time>2024-04-11T12:16:37.000Z</time>
      </trkpt>
      <trkpt lat="44.14869" lon="0.74523">
        <ele>53</ele>
        <time>2024-04-11T12:16:38.000Z</time>
      </trkpt>
      <trkpt lat="44.1487" lon="0.74521">
        <ele>53</ele>
        <time>2024-04-11T12:16:39.000Z</time>
      </trkpt>
      <trkpt lat="44.1487" lon="0.7452">
        <ele>53</ele>
        <time>2024-04-11T12:16:40.000Z</time>
      </trkpt>
      <trkpt lat="44.14871" lon="0.74518">
        <ele>53</ele>
        <time>2024-04-11T12:16:41.000Z</time>
      </trkpt>
      <trkpt lat="44.14871" lon="0.74517">
        <ele>53</ele>
        <time>2024-04-11T12:16:42.000Z</time>
      </trkpt>
      <trkpt lat="44.14872" lon="0.74515">
        <ele>53</ele>
        <time>2024-04-11T12:16:43.000Z</time>
      </trkpt>
      <trkpt lat="44.14872" lon="0.74514">
        <ele>53</ele>
        <time>2024-04-11T12:16:44.000Z</time>
      </trkpt>
      <trkpt lat="44.14873" lon="0.74512">
        <ele>52</ele>
        <time>2024-04-11T12:16:45.000Z</time>
      </trkpt>
      <trkpt lat="44.14873" lon="0.74511">
        <ele>51</ele>
        <time>2024-04-11T12:16:46.000Z</time>
      </trkpt>
      <trkpt lat="44.14873" lon="0.74509">
        <ele>51</ele>
        <time>2024-04-11T12:16:47.000Z</time>
      </trkpt>
      <trkpt lat="44.14874" lon="0.74508">
        <ele>51</ele>
        <time>2024-04-11T12:16:48.000Z</time>
      </trkpt>
      <trkpt lat="44.14874" lon="0.74506">
        <ele>52</ele>
        <time>2024-04-11T12:16:49.000Z</time>
      </trkpt>
      <trkpt lat="44.14875" lon="0.74505">
        <ele>51</ele>
        <time>2024-04-11T12:16:50.000Z</time>
      </trkpt>
      <trkpt lat="44.14876" lon="0.74503">
        <ele>51</ele>
        <time>2024-04-11T12:16:51.000Z</time>
      </trkpt>
      <trkpt lat="44.14876" lon="0.74502">
        <ele>51</ele>
        <time>2024-04-11T12:16:52.000Z</time>
      </trkpt>
      <trkpt lat="44.14877" lon="0.745">
        <ele>52</ele>
        <time>2024-04-11T12:16:53.000Z</time>
      </trkpt>
      <trkpt lat="44.14878" lon="0.74499">
        <ele>52</ele>
        <time>2024-04-11T12:16:54.000Z</time>
      </trkpt>
      <trkpt lat="44.14878" lon="0.74498">
        <ele>52</ele>
        <time>2024-04-11T12:16:55.000Z</time>
      </trkpt>
      <trkpt lat="44.14879" lon="0.74496">
        <ele>52</ele>
        <time>2024-04-11T12:16:56.000Z</time>
      </trkpt>
      <trkpt lat="44.1488" lon="0.74495">
        <ele>52</ele>
        <time>2024-04-11T12:16:57.000Z</time>
      </trkpt>
      <trkpt lat="44.14881" lon="0.74493">
        <ele>52</ele>
        <time>2024-04-11T12:16:58.000Z</time>
      </trkpt>
      <trkpt lat="44.14881" lon="0.74492">
        <ele>52</ele>
        <time>2024-04-11T12:16:59.000Z</time>
      </trkpt>
      <trkpt lat="44.14882" lon="0.7449">
        <ele>51</ele>
        <time>2024-04-11T12:17:00.000Z</time>
      </trkpt>
      <trkpt lat="44.14883" lon="0.74489">
        <ele>51</ele>
        <time>2024-04-11T12:17:01.000Z</time>
      </trkpt>
      <trkpt lat="44.14884" lon="0.74487">
        <ele>52</ele>
        <time>2024-04-11T12:17:02.000Z</time>
      </trkpt>
      <trkpt lat="44.14885" lon="0.74485">
        <ele>52</ele>
        <time>2024-04-11T12:17:03.000Z</time>
      </trkpt>
      <trkpt lat="44.14886" lon="0.74484">
        <ele>51</ele>
        <time>2024-04-11T12:17:04.000Z</time>
      </trkpt>
      <trkpt lat="44.14886" lon="0.74482">
        <ele>52</ele>
        <time>2024-04-11T12:17:05.000Z</time>
      </trkpt>
      <trkpt lat="44.14887" lon="0.74481">
        <ele>51</ele>
        <time>2024-04-11T12:17:06.000Z</time>
      </trkpt>
      <trkpt lat="44.14888" lon="0.7448">
        <ele>52</ele>
        <time>2024-04-11T12:17:07.000Z</time>
      </trkpt>
      <trkpt lat="44.14888" lon="0.74478">
        <ele>52</ele>
        <time>2024-04-11T12:17:08.000Z</time>
      </trkpt>
      <trkpt lat="44.14889" lon="0.74477">
        <ele>52</ele>
        <time>2024-04-11T12:17:09.000Z</time>
      </trkpt>
      <trkpt lat="44.1489" lon="0.74475">
        <ele>51</ele>
        <time>2024-04-11T12:17:10.000Z</time>
      </trkpt>
      <trkpt lat="44.1489" lon="0.74473">
        <ele>51</ele>
        <time>2024-04-11T12:17:11.000Z</time>
      </trkpt>
      <trkpt lat="44.14891" lon="0.74472">
        <ele>51</ele>
        <time>2024-04-11T12:17:12.000Z</time>
      </trkpt>
      <trkpt lat="44.14892" lon="0.7447">
        <ele>52</ele>
        <time>2024-04-11T12:17:13.000Z</time>
      </trkpt>
      <trkpt lat="44.14893" lon="0.74469">
        <ele>52</ele>
        <time>2024-04-11T12:17:14.000Z</time>
      </trkpt>
      <trkpt lat="44.14893" lon="0.74467">
        <ele>52</ele>
        <time>2024-04-11T12:17:15.000Z</time>
      </trkpt>
      <trkpt lat="44.14894" lon="0.74466">
        <ele>53</ele>
        <time>2024-04-11T12:17:16.000Z</time>
      </trkpt>
      <trkpt lat="44.14895" lon="0.74465">
        <ele>53</ele>
        <time>2024-04-11T12:17:17.000Z</time>
      </trkpt>
      <trkpt lat="44.14895" lon="0.74463">
        <ele>53</ele>
        <time>2024-04-11T12:17:18.000Z</time>
      </trkpt>
      <trkpt lat="44.14896" lon="0.74462">
        <ele>53</ele>
        <time>2024-04-11T12:17:19.000Z</time>
      </trkpt>
      <trkpt lat="44.14896" lon="0.74461">
        <ele>53</ele>
        <time>2024-04-11T12:17:20.000Z</time>
      </trkpt>
      <trkpt lat="44.14897" lon="0.74459">
        <ele>52</ele>
        <time>2024-04-11T12:17:21.000Z</time>
      </trkpt>
      <trkpt lat="44.14898" lon="0.74458">
        <ele>53</ele>
        <time>2024-04-11T12:17:22.000Z</time>
      </trkpt>
      <trkpt lat="44.14899" lon="0.74457">
        <ele>53</ele>
        <time>2024-04-11T12:17:23.000Z</time>
      </trkpt>
      <trkpt lat="44.149" lon="0.74455">
        <ele>53</ele>
        <time>2024-04-11T12:17:24.000Z</time>
      </trkpt>
      <trkpt lat="44.149" lon="0.74454">
        <ele>53</ele>
        <time>2024-04-11T12:17:25.000Z</time>
      </trkpt>
      <trkpt lat="44.14901" lon="0.74452">
        <ele>53</ele>
        <time>2024-04-11T12:17:26.000Z</time>
      </trkpt>
      <trkpt lat="44.14902" lon="0.74451">
        <ele>54</ele>
        <time>2024-04-11T12:17:27.000Z</time>
      </trkpt>
      <trkpt lat="44.14903" lon="0.74449">
        <ele>54</ele>
        <time>2024-04-11T12:17:28.000Z</time>
      </trkpt>
      <trkpt lat="44.14903" lon="0.74448">
        <ele>54</ele>
        <time>2024-04-11T12:17:29.000Z</time>
      </trkpt>
      <trkpt lat="44.14904" lon="0.74446">
        <ele>52</ele>
        <time>2024-04-11T12:17:30.000Z</time>
      </trkpt>
      <trkpt lat="44.14904" lon="0.74445">
        <ele>52</ele>
        <time>2024-04-11T12:17:31.000Z</time>
      </trkpt>
      <trkpt lat="44.14905" lon="0.74443">
        <ele>51</ele>
        <time>2024-04-11T12:17:32.000Z</time>
      </trkpt>
      <trkpt lat="44.14905" lon="0.74442">
        <ele>51</ele>
        <time>2024-04-11T12:17:33.000Z</time>
      </trkpt>
      <trkpt lat="44.14906" lon="0.7444">
        <ele>51</ele>
        <time>2024-04-11T12:17:34.000Z</time>
      </trkpt>
      <trkpt lat="44.14907" lon="0.74439">
        <ele>51</ele>
        <time>2024-04-11T12:17:35.000Z</time>
      </trkpt>
      <trkpt lat="44.14907" lon="0.74437">
        <ele>50</ele>
        <time>2024-04-11T12:17:36.000Z</time>
      </trkpt>
      <trkpt lat="44.14908" lon="0.74436">
        <ele>50</ele>
        <time>2024-04-11T12:17:37.000Z</time>
      </trkpt>
      <trkpt lat="44.14908" lon="0.74434">
        <ele>50</ele>
        <time>2024-04-11T12:17:38.000Z</time>
      </trkpt>
      <trkpt lat="44.14909" lon="0.74433">
        <ele>50</ele>
        <time>2024-04-11T12:17:39.000Z</time>
      </trkpt>
      <trkpt lat="44.1491" lon="0.74432">
        <ele>50</ele>
        <time>2024-04-11T12:17:40.000Z</time>
      </trkpt>
      <trkpt lat="44.14911" lon="0.7443">
        <ele>50</ele>
        <time>2024-04-11T12:17:41.000Z</time>
      </trkpt>
      <trkpt lat="44.14911" lon="0.74428">
        <ele>50</ele>
        <time>2024-04-11T12:17:42.000Z</time>
      </trkpt>
      <trkpt lat="44.14912" lon="0.74427">
        <ele>52</ele>
        <time>2024-04-11T12:17:43.000Z</time>
      </trkpt>
      <trkpt lat="44.14912" lon="0.74425">
        <ele>52</ele>
        <time>2024-04-11T12:17:44.000Z</time>
      </trkpt>
      <trkpt lat="44.14913" lon="0.74423">
        <ele>52</ele>
        <time>2024-04-11T12:17:45.000Z</time>
      </trkpt>
      <trkpt lat="44.14914" lon="0.74422">
        <ele>52</ele>
        <time>2024-04-11T12:17:46.000Z</time>
      </trkpt>
      <trkpt lat="44.14914" lon="0.7442">
        <ele>52</ele>
        <time>2024-04-11T12:17:47.000Z</time>
      </trkpt>
      <trkpt lat="44.14915" lon="0.74419">
        <ele>52</ele>
        <time>2024-04-11T12:17:48.000Z</time>
      </trkpt>
      <trkpt lat="44.14915" lon="0.74418">
        <ele>52</ele>
        <time>2024-04-11T12:17:49.000Z</time>
      </trkpt>
      <trkpt lat="44.14916" lon="0.74416">
        <ele>52</ele>
        <time>2024-04-11T12:17:50.000Z</time>
      </trkpt>
      <trkpt lat="44.14917" lon="0.74414">
        <ele>52</ele>
        <time>2024-04-11T12:17:51.000Z</time>
      </trkpt>
      <trkpt lat="44.14918" lon="0.74413">
        <ele>52</ele>
        <time>2024-04-11T12:17:52.000Z</time>
      </trkpt>
      <trkpt lat="44.14918" lon="0.74411">
        <ele>52</ele>
        <time>2024-04-11T12:17:53.000Z</time>
      </trkpt>
      <trkpt lat="44.14919" lon="0.7441">
        <ele>53</ele>
        <time>2024-04-11T12:17:54.000Z</time>
      </trkpt>
      <trkpt lat="44.14919" lon="0.74408">
        <ele>53</ele>
        <time>2024-04-11T12:17:55.000Z</time>
      </trkpt>
      <trkpt lat="44.1492" lon="0.74407">
        <ele>54</ele>
        <time>2024-04-11T12:17:56.000Z</time>
      </trkpt>
      <trkpt lat="44.14921" lon="0.74405">
        <ele>55</ele>
        <time>2024-04-11T12:17:57.000Z</time>
      </trkpt>
      <trkpt lat="44.14922" lon="0.74403">
        <ele>56</ele>
        <time>2024-04-11T12:17:58.000Z</time>
      </trkpt>
      <trkpt lat="44.14922" lon="0.74402">
        <ele>56</ele>
        <time>2024-04-11T12:17:59.000Z</time>
      </trkpt>
      <trkpt lat="44.14923" lon="0.744">
        <ele>56</ele>
        <time>2024-04-11T12:18:00.000Z</time>
      </trkpt>
      <trkpt lat="44.14924" lon="0.74399">
        <ele>56</ele>
        <time>2024-04-11T12:18:01.000Z</time>
      </trkpt>
      <trkpt lat="44.14924" lon="0.74397">
        <ele>56</ele>
        <time>2024-04-11T12:18:02.000Z</time>
      </trkpt>
      <trkpt lat="44.14925" lon="0.74395">
        <ele>56</ele>
        <time>2024-04-11T12:18:03.000Z</time>
      </trkpt>
      <trkpt lat="44.14925" lon="0.74394">
        <ele>56</ele>
        <time>2024-04-11T12:18:04.000Z</time>
      </trkpt>
      <trkpt lat="44.14926" lon="0.74393">
        <ele>54</ele>
        <time>2024-04-11T12:18:05.000Z</time>
      </trkpt>
      <trkpt lat="44.14926" lon="0.74391">
        <ele>54</ele>
        <time>2024-04-11T12:18:06.000Z</time>
      </trkpt>
      <trkpt lat="44.14927" lon="0.7439">
        <ele>55</ele>
        <time>2024-04-11T12:18:07.000Z</time>
      </trkpt>
      <trkpt lat="44.14928" lon="0.74388">
        <ele>54</ele>
        <time>2024-04-11T12:18:08.000Z</time>
      </trkpt>
      <trkpt lat="44.14929" lon="0.74387">
        <ele>55</ele>
        <time>2024-04-11T12:18:09.000Z</time>
      </trkpt>
      <trkpt lat="44.14929" lon="0.74386">
        <ele>54</ele>
        <time>2024-04-11T12:18:10.000Z</time>
      </trkpt>
      <trkpt lat="44.1493" lon="0.74384">
        <ele>54</ele>
        <time>2024-04-11T12:18:11.000Z</time>
      </trkpt>
      <trkpt lat="44.14931" lon="0.74383">
        <ele>54</ele>
        <time>2024-04-11T12:18:12.000Z</time>
      </trkpt>
      <trkpt lat="44.14932" lon="0.74382">
        <ele>54</ele>
        <time>2024-04-11T12:18:13.000Z</time>
      </trkpt>
      <trkpt lat="44.14933" lon="0.7438">
        <ele>54</ele>
        <time>2024-04-11T12:18:14.000Z</time>
      </trkpt>
      <trkpt lat="44.14933" lon="0.74379">
        <ele>55</ele>
        <time>2024-04-11T12:18:15.000Z</time>
      </trkpt>
      <trkpt lat="44.14934" lon="0.74377">
        <ele>55</ele>
        <time>2024-04-11T12:18:16.000Z</time>
      </trkpt>
      <trkpt lat="44.14935" lon="0.74376">
        <ele>54</ele>
        <time>2024-04-11T12:18:17.000Z</time>
      </trkpt>
      <trkpt lat="44.14935" lon="0.74374">
        <ele>54</ele>
        <time>2024-04-11T12:18:18.000Z</time>
      </trkpt>
      <trkpt lat="44.14936" lon="0.74373">
        <ele>54</ele>
        <time>2024-04-11T12:18:19.000Z</time>
      </trkpt>
      <trkpt lat="44.14937" lon="0.74371">
        <ele>54</ele>
        <time>2024-04-11T12:18:20.000Z</time>
      </trkpt>
      <trkpt lat="44.14937" lon="0.7437">
        <ele>54</ele>
        <time>2024-04-11T12:18:21.000Z</time>
      </trkpt>
      <trkpt lat="44.14938" lon="0.74368">
        <ele>54</ele>
        <time>2024-04-11T12:18:22.000Z</time>
      </trkpt>
      <trkpt lat="44.14938" lon="0.74367">
        <ele>53</ele>
        <time>2024-04-11T12:18:23.000Z</time>
      </trkpt>
      <trkpt lat="44.14939" lon="0.74365">
        <ele>54</ele>
        <time>2024-04-11T12:18:24.000Z</time>
      </trkpt>
      <trkpt lat="44.1494" lon="0.74363">
        <ele>54</ele>
        <time>2024-04-11T12:18:25.000Z</time>
      </trkpt>
      <trkpt lat="44.1494" lon="0.74362">
        <ele>54</ele>
        <time>2024-04-11T12:18:26.000Z</time>
      </trkpt>
      <trkpt lat="44.14941" lon="0.7436">
        <ele>53</ele>
        <time>2024-04-11T12:18:27.000Z</time>
      </trkpt>
      <trkpt lat="44.14941" lon="0.74359">
        <ele>54</ele>
        <time>2024-04-11T12:18:28.000Z</time>
      </trkpt>
      <trkpt lat="44.14942" lon="0.74357">
        <ele>54</ele>
        <time>2024-04-11T12:18:29.000Z</time>
      </trkpt>
      <trkpt lat="44.14943" lon="0.74356">
        <ele>54</ele>
        <time>2024-04-11T12:18:30.000Z</time>
      </trkpt>
      <trkpt lat="44.14943" lon="0.74354">
        <ele>54</ele>
        <time>2024-04-11T12:18:31.000Z</time>
      </trkpt>
      <trkpt lat="44.14944" lon="0.74353">
        <ele>54</ele>
        <time>2024-04-11T12:18:32.000Z</time>
      </trkpt>
      <trkpt lat="44.14944" lon="0.74351">
        <ele>54</ele>
        <time>2024-04-11T12:18:33.000Z</time>
      </trkpt>
      <trkpt lat="44.14945" lon="0.7435">
        <ele>54</ele>
        <time>2024-04-11T12:18:34.000Z</time>
      </trkpt>
      <trkpt lat="44.14946" lon="0.74348">
        <ele>53</ele>
        <time>2024-04-11T12:18:35.000Z</time>
      </trkpt>
      <trkpt lat="44.14946" lon="0.74347">
        <ele>54</ele>
        <time>2024-04-11T12:18:36.000Z</time>
      </trkpt>
      <trkpt lat="44.14947" lon="0.74345">
        <ele>53</ele>
        <time>2024-04-11T12:18:37.000Z</time>
      </trkpt>
      <trkpt lat="44.14948" lon="0.74344">
        <ele>53</ele>
        <time>2024-04-11T12:18:38.000Z</time>
      </trkpt>
      <trkpt lat="44.14948" lon="0.74343">
        <ele>54</ele>
        <time>2024-04-11T12:18:39.000Z</time>
      </trkpt>
      <trkpt lat="44.14949" lon="0.74341">
        <ele>53</ele>
        <time>2024-04-11T12:18:40.000Z</time>
      </trkpt>
      <trkpt lat="44.1495" lon="0.7434">
        <ele>52</ele>
        <time>2024-04-11T12:18:41.000Z</time>
      </trkpt>
      <trkpt lat="44.1495" lon="0.74339">
        <ele>52</ele>
        <time>2024-04-11T12:18:42.000Z</time>
      </trkpt>
      <trkpt lat="44.14951" lon="0.74338">
        <ele>52</ele>
        <time>2024-04-11T12:18:43.000Z</time>
      </trkpt>
      <trkpt lat="44.14951" lon="0.74336">
        <ele>51</ele>
        <time>2024-04-11T12:18:44.000Z</time>
      </trkpt>
      <trkpt lat="44.14952" lon="0.74335">
        <ele>51</ele>
        <time>2024-04-11T12:18:45.000Z</time>
      </trkpt>
      <trkpt lat="44.14953" lon="0.74333">
        <ele>50</ele>
        <time>2024-04-11T12:18:46.000Z</time>
      </trkpt>
      <trkpt lat="44.14953" lon="0.74332">
        <ele>50</ele>
        <time>2024-04-11T12:18:47.000Z</time>
      </trkpt>
      <trkpt lat="44.14954" lon="0.7433">
        <ele>50</ele>
        <time>2024-04-11T12:18:48.000Z</time>
      </trkpt>
      <trkpt lat="44.14955" lon="0.74329">
        <ele>50</ele>
        <time>2024-04-11T12:18:49.000Z</time>
      </trkpt>
      <trkpt lat="44.14955" lon="0.74328">
        <ele>51</ele>
        <time>2024-04-11T12:18:50.000Z</time>
      </trkpt>
      <trkpt lat="44.14956" lon="0.74326">
        <ele>51</ele>
        <time>2024-04-11T12:18:51.000Z</time>
      </trkpt>
      <trkpt lat="44.14957" lon="0.74325">
        <ele>50</ele>
        <time>2024-04-11T12:18:52.000Z</time>
      </trkpt>
      <trkpt lat="44.14958" lon="0.74323">
        <ele>50</ele>
        <time>2024-04-11T12:18:53.000Z</time>
      </trkpt>
      <trkpt lat="44.14959" lon="0.74322">
        <ele>50</ele>
        <time>2024-04-11T12:18:54.000Z</time>
      </trkpt>
      <trkpt lat="44.14959" lon="0.74321">
        <ele>51</ele>
        <time>2024-04-11T12:18:55.000Z</time>
      </trkpt>
      <trkpt lat="44.1496" lon="0.74319">
        <ele>51</ele>
        <time>2024-04-11T12:18:56.000Z</time>
      </trkpt>
      <trkpt lat="44.14961" lon="0.74318">
        <ele>51</ele>
        <time>2024-04-11T12:18:57.000Z</time>
      </trkpt>
      <trkpt lat="44.14961" lon="0.74316">
        <ele>51</ele>
        <time>2024-04-11T12:18:58.000Z</time>
      </trkpt>
      <trkpt lat="44.14962" lon="0.74315">
        <ele>50</ele>
        <time>2024-04-11T12:18:59.000Z</time>
      </trkpt>
      <trkpt lat="44.14962" lon="0.74313">
        <ele>51</ele>
        <time>2024-04-11T12:19:00.000Z</time>
      </trkpt>
      <trkpt lat="44.14963" lon="0.74312">
        <ele>51</ele>
        <time>2024-04-11T12:19:01.000Z</time>
      </trkpt>
      <trkpt lat="44.14963" lon="0.7431">
        <ele>51</ele>
        <time>2024-04-11T12:19:02.000Z</time>
      </trkpt>
      <trkpt lat="44.14964" lon="0.74308">
        <ele>51</ele>
        <time>2024-04-11T12:19:03.000Z</time>
      </trkpt>
      <trkpt lat="44.14964" lon="0.74307">
        <ele>50</ele>
        <time>2024-04-11T12:19:04.000Z</time>
      </trkpt>
      <trkpt lat="44.14965" lon="0.74306">
        <ele>51</ele>
        <time>2024-04-11T12:19:05.000Z</time>
      </trkpt>
      <trkpt lat="44.14966" lon="0.74304">
        <ele>50</ele>
        <time>2024-04-11T12:19:06.000Z</time>
      </trkpt>
      <trkpt lat="44.14966" lon="0.74303">
        <ele>50</ele>
        <time>2024-04-11T12:19:07.000Z</time>
      </trkpt>
      <trkpt lat="44.14967" lon="0.74301">
        <ele>50</ele>
        <time>2024-04-11T12:19:08.000Z</time>
      </trkpt>
      <trkpt lat="44.14967" lon="0.74299">
        <ele>50</ele>
        <time>2024-04-11T12:19:09.000Z</time>
      </trkpt>
      <trkpt lat="44.14968" lon="0.74298">
        <ele>50</ele>
        <time>2024-04-11T12:19:10.000Z</time>
      </trkpt>
      <trkpt lat="44.14968" lon="0.74296">
        <ele>50</ele>
        <time>2024-04-11T12:19:11.000Z</time>
      </trkpt>
      <trkpt lat="44.14969" lon="0.74295">
        <ele>50</ele>
        <time>2024-04-11T12:19:12.000Z</time>
      </trkpt>
      <trkpt lat="44.1497" lon="0.74293">
        <ele>50</ele>
        <time>2024-04-11T12:19:13.000Z</time>
      </trkpt>
      <trkpt lat="44.1497" lon="0.74292">
        <ele>50</ele>
        <time>2024-04-11T12:19:14.000Z</time>
      </trkpt>
      <trkpt lat="44.1497" lon="0.7429">
        <ele>50</ele>
        <time>2024-04-11T12:19:15.000Z</time>
      </trkpt>
      <trkpt lat="44.14971" lon="0.74289">
        <ele>50</ele>
        <time>2024-04-11T12:19:16.000Z</time>
      </trkpt>
      <trkpt lat="44.14972" lon="0.74288">
        <ele>49</ele>
        <time>2024-04-11T12:19:17.000Z</time>
      </trkpt>
      <trkpt lat="44.14973" lon="0.74286">
        <ele>50</ele>
        <time>2024-04-11T12:19:18.000Z</time>
      </trkpt>
      <trkpt lat="44.14973" lon="0.74285">
        <ele>51</ele>
        <time>2024-04-11T12:19:19.000Z</time>
      </trkpt>
      <trkpt lat="44.14973" lon="0.74284">
        <ele>50</ele>
        <time>2024-04-11T12:19:20.000Z</time>
      </trkpt>
      <trkpt lat="44.14974" lon="0.74282">
        <ele>50</ele>
        <time>2024-04-11T12:19:21.000Z</time>
      </trkpt>
      <trkpt lat="44.14974" lon="0.7428">
        <ele>50</ele>
        <time>2024-04-11T12:19:22.000Z</time>
      </trkpt>
      <trkpt lat="44.14975" lon="0.74279">
        <ele>50</ele>
        <time>2024-04-11T12:19:23.000Z</time>
      </trkpt>
      <trkpt lat="44.14976" lon="0.74277">
        <ele>50</ele>
        <time>2024-04-11T12:19:24.000Z</time>
      </trkpt>
      <trkpt lat="44.14976" lon="0.74276">
        <ele>50</ele>
        <time>2024-04-11T12:19:25.000Z</time>
      </trkpt>
      <trkpt lat="44.14977" lon="0.74274">
        <ele>50</ele>
        <time>2024-04-11T12:19:26.000Z</time>
      </trkpt>
      <trkpt lat="44.14977" lon="0.74272">
        <ele>50</ele>
        <time>2024-04-11T12:19:27.000Z</time>
      </trkpt>
      <trkpt lat="44.14978" lon="0.74271">
        <ele>50</ele>
        <time>2024-04-11T12:19:28.000Z</time>
      </trkpt>
      <trkpt lat="44.14978" lon="0.74269">
        <ele>50</ele>
        <time>2024-04-11T12:19:29.000Z</time>
      </trkpt>
      <trkpt lat="44.14979" lon="0.74267">
        <ele>50</ele>
        <time>2024-04-11T12:19:30.000Z</time>
      </trkpt>
      <trkpt lat="44.14979" lon="0.74266">
        <ele>50</ele>
        <time>2024-04-11T12:19:31.000Z</time>
      </trkpt>
      <trkpt lat="44.1498" lon="0.74264">
        <ele>50</ele>
        <time>2024-04-11T12:19:32.000Z</time>
      </trkpt>
      <trkpt lat="44.1498" lon="0.74263">
        <ele>51</ele>
        <time>2024-04-11T12:19:33.000Z</time>
      </trkpt>
      <trkpt lat="44.14981" lon="0.74261">
        <ele>51</ele>
        <time>2024-04-11T12:19:34.000Z</time>
      </trkpt>
      <trkpt lat="44.14982" lon="0.7426">
        <ele>51</ele>
        <time>2024-04-11T12:19:35.000Z</time>
      </trkpt>
      <trkpt lat="44.14982" lon="0.74258">
        <ele>51</ele>
        <time>2024-04-11T12:19:36.000Z</time>
      </trkpt>
      <trkpt lat="44.14983" lon="0.74257">
        <ele>50</ele>
        <time>2024-04-11T12:19:37.000Z</time>
      </trkpt>
      <trkpt lat="44.14984" lon="0.74255">
        <ele>50</ele>
        <time>2024-04-11T12:19:38.000Z</time>
      </trkpt>
      <trkpt lat="44.14984" lon="0.74254">
        <ele>50</ele>
        <time>2024-04-11T12:19:39.000Z</time>
      </trkpt>
      <trkpt lat="44.14985" lon="0.74252">
        <ele>50</ele>
        <time>2024-04-11T12:19:40.000Z</time>
      </trkpt>
      <trkpt lat="44.14985" lon="0.74251">
        <ele>50</ele>
        <time>2024-04-11T12:19:41.000Z</time>
      </trkpt>
      <trkpt lat="44.14986" lon="0.74249">
        <ele>50</ele>
        <time>2024-04-11T12:19:42.000Z</time>
      </trkpt>
      <trkpt lat="44.14986" lon="0.74248">
        <ele>50</ele>
        <time>2024-04-11T12:19:43.000Z</time>
      </trkpt>
      <trkpt lat="44.14987" lon="0.74246">
        <ele>51</ele>
        <time>2024-04-11T12:19:44.000Z</time>
      </trkpt>
      <trkpt lat="44.14987" lon="0.74245">
        <ele>52</ele>
        <time>2024-04-11T12:19:45.000Z</time>
      </trkpt>
      <trkpt lat="44.14988" lon="0.74244">
        <ele>52</ele>
        <time>2024-04-11T12:19:46.000Z</time>
      </trkpt>
      <trkpt lat="44.14989" lon="0.74243">
        <ele>52</ele>
        <time>2024-04-11T12:19:47.000Z</time>
      </trkpt>
      <trkpt lat="44.14989" lon="0.74241">
        <ele>52</ele>
        <time>2024-04-11T12:19:48.000Z</time>
      </trkpt>
      <trkpt lat="44.1499" lon="0.7424">
        <ele>52</ele>
        <time>2024-04-11T12:19:49.000Z</time>
      </trkpt>
      <trkpt lat="44.1499" lon="0.74238">
        <ele>52</ele>
        <time>2024-04-11T12:19:50.000Z</time>
      </trkpt>
      <trkpt lat="44.14991" lon="0.74237">
        <ele>52</ele>
        <time>2024-04-11T12:19:51.000Z</time>
      </trkpt>
      <trkpt lat="44.14992" lon="0.74235">
        <ele>52</ele>
        <time>2024-04-11T12:19:52.000Z</time>
      </trkpt>
      <trkpt lat="44.14993" lon="0.74234">
        <ele>52</ele>
        <time>2024-04-11T12:19:53.000Z</time>
      </trkpt>
      <trkpt lat="44.14994" lon="0.74232">
        <ele>52</ele>
        <time>2024-04-11T12:19:54.000Z</time>
      </trkpt>
      <trkpt lat="44.14994" lon="0.74231">
        <ele>53</ele>
        <time>2024-04-11T12:19:55.000Z</time>
      </trkpt>
      <trkpt lat="44.14995" lon="0.74229">
        <ele>53</ele>
        <time>2024-04-11T12:19:56.000Z</time>
      </trkpt>
      <trkpt lat="44.14996" lon="0.74228">
        <ele>53</ele>
        <time>2024-04-11T12:19:57.000Z</time>
      </trkpt>
      <trkpt lat="44.14997" lon="0.74226">
        <ele>53</ele>
        <time>2024-04-11T12:19:58.000Z</time>
      </trkpt>
      <trkpt lat="44.14997" lon="0.74225">
        <ele>52</ele>
        <time>2024-04-11T12:19:59.000Z</time>
      </trkpt>
      <trkpt lat="44.14998" lon="0.74223">
        <ele>52</ele>
        <time>2024-04-11T12:20:00.000Z</time>
      </trkpt>
      <trkpt lat="44.14998" lon="0.74222">
        <ele>52</ele>
        <time>2024-04-11T12:20:01.000Z</time>
      </trkpt>
      <trkpt lat="44.14998" lon="0.7422">
        <ele>52</ele>
        <time>2024-04-11T12:20:02.000Z</time>
      </trkpt>
      <trkpt lat="44.14998" lon="0.74219">
        <ele>52</ele>
        <time>2024-04-11T12:20:03.000Z</time>
      </trkpt>
      <trkpt lat="44.14999" lon="0.74218">
        <ele>52</ele>
        <time>2024-04-11T12:20:04.000Z</time>
      </trkpt>
      <trkpt lat="44.15" lon="0.74216">
        <ele>52</ele>
        <time>2024-04-11T12:20:05.000Z</time>
      </trkpt>
      <trkpt lat="44.15" lon="0.74215">
        <ele>52</ele>
        <time>2024-04-11T12:20:06.000Z</time>
      </trkpt>
      <trkpt lat="44.15001" lon="0.74213">
        <ele>52</ele>
        <time>2024-04-11T12:20:07.000Z</time>
      </trkpt>
      <trkpt lat="44.15001" lon="0.74212">
        <ele>53</ele>
        <time>2024-04-11T12:20:08.000Z</time>
      </trkpt>
      <trkpt lat="44.15002" lon="0.7421">
        <ele>52</ele>
        <time>2024-04-11T12:20:09.000Z</time>
      </trkpt>
      <trkpt lat="44.15002" lon="0.74208">
        <ele>52</ele>
        <time>2024-04-11T12:20:10.000Z</time>
      </trkpt>
      <trkpt lat="44.15003" lon="0.74207">
        <ele>53</ele>
        <time>2024-04-11T12:20:11.000Z</time>
      </trkpt>
      <trkpt lat="44.15003" lon="0.74205">
        <ele>53</ele>
        <time>2024-04-11T12:20:12.000Z</time>
      </trkpt>
      <trkpt lat="44.15004" lon="0.74204">
        <ele>52</ele>
        <time>2024-04-11T12:20:13.000Z</time>
      </trkpt>
      <trkpt lat="44.15004" lon="0.74203">
        <ele>53</ele>
        <time>2024-04-11T12:20:14.000Z</time>
      </trkpt>
      <trkpt lat="44.15005" lon="0.74201">
        <ele>53</ele>
        <time>2024-04-11T12:20:15.000Z</time>
      </trkpt>
      <trkpt lat="44.15006" lon="0.742">
        <ele>53</ele>
        <time>2024-04-11T12:20:16.000Z</time>
      </trkpt>
      <trkpt lat="44.15006" lon="0.74198">
        <ele>53</ele>
        <time>2024-04-11T12:20:17.000Z</time>
      </trkpt>
      <trkpt lat="44.15007" lon="0.74197">
        <ele>53</ele>
        <time>2024-04-11T12:20:18.000Z</time>
      </trkpt>
      <trkpt lat="44.15008" lon="0.74195">
        <ele>53</ele>
        <time>2024-04-11T12:20:19.000Z</time>
      </trkpt>
      <trkpt lat="44.15008" lon="0.74193">
        <ele>53</ele>
        <time>2024-04-11T12:20:20.000Z</time>
      </trkpt>
      <trkpt lat="44.15009" lon="0.74192">
        <ele>53</ele>
        <time>2024-04-11T12:20:21.000Z</time>
      </trkpt>
      <trkpt lat="44.15009" lon="0.7419">
        <ele>52</ele>
        <time>2024-04-11T12:20:22.000Z</time>
      </trkpt>
      <trkpt lat="44.1501" lon="0.74189">
        <ele>52</ele>
        <time>2024-04-11T12:20:23.000Z</time>
      </trkpt>
      <trkpt lat="44.15011" lon="0.74188">
        <ele>52</ele>
        <time>2024-04-11T12:20:24.000Z</time>
      </trkpt>
      <trkpt lat="44.15012" lon="0.74186">
        <ele>51</ele>
        <time>2024-04-11T12:20:25.000Z</time>
      </trkpt>
      <trkpt lat="44.15012" lon="0.74185">
        <ele>51</ele>
        <time>2024-04-11T12:20:26.000Z</time>
      </trkpt>
      <trkpt lat="44.15013" lon="0.74183">
        <ele>51</ele>
        <time>2024-04-11T12:20:27.000Z</time>
      </trkpt>
      <trkpt lat="44.15013" lon="0.74182">
        <ele>51</ele>
        <time>2024-04-11T12:20:28.000Z</time>
      </trkpt>
      <trkpt lat="44.15014" lon="0.7418">
        <ele>51</ele>
        <time>2024-04-11T12:20:29.000Z</time>
      </trkpt>
      <trkpt lat="44.15015" lon="0.74179">
        <ele>51</ele>
        <time>2024-04-11T12:20:30.000Z</time>
      </trkpt>
      <trkpt lat="44.15016" lon="0.74178">
        <ele>51</ele>
        <time>2024-04-11T12:20:31.000Z</time>
      </trkpt>
      <trkpt lat="44.15016" lon="0.74177">
        <ele>51</ele>
        <time>2024-04-11T12:20:32.000Z</time>
      </trkpt>
      <trkpt lat="44.15017" lon="0.74177">
        <ele>51</ele>
        <time>2024-04-11T12:20:33.000Z</time>
      </trkpt>
      <trkpt lat="44.15018" lon="0.74176">
        <ele>52</ele>
        <time>2024-04-11T12:20:34.000Z</time>
      </trkpt>
      <trkpt lat="44.15019" lon="0.74176">
        <ele>52</ele>
        <time>2024-04-11T12:20:35.000Z</time>
      </trkpt>
      <trkpt lat="44.1502" lon="0.74176">
        <ele>52</ele>
        <time>2024-04-11T12:20:36.000Z</time>
      </trkpt>
      <trkpt lat="44.1502" lon="0.74175">
        <ele>52</ele>
        <time>2024-04-11T12:20:37.000Z</time>
      </trkpt>
      <trkpt lat="44.15021" lon="0.74175">
        <ele>53</ele>
        <time>2024-04-11T12:20:38.000Z</time>
      </trkpt>
      <trkpt lat="44.15022" lon="0.74175">
        <ele>53</ele>
        <time>2024-04-11T12:20:39.000Z</time>
      </trkpt>
      <trkpt lat="44.15023" lon="0.74176">
        <ele>54</ele>
        <time>2024-04-11T12:20:40.000Z</time>
      </trkpt>
      <trkpt lat="44.15023" lon="0.74176">
        <ele>54</ele>
        <time>2024-04-11T12:20:41.000Z</time>
      </trkpt>
      <trkpt lat="44.15024" lon="0.74176">
        <ele>54</ele>
        <time>2024-04-11T12:20:42.000Z</time>
      </trkpt>
      <trkpt lat="44.15025" lon="0.74177">
        <ele>55</ele>
        <time>2024-04-11T12:20:43.000Z</time>
      </trkpt>
      <trkpt lat="44.15026" lon="0.74177">
        <ele>55</ele>
        <time>2024-04-11T12:20:44.000Z</time>
      </trkpt>
      <trkpt lat="44.15027" lon="0.74177">
        <ele>55</ele>
        <time>2024-04-11T12:20:45.000Z</time>
      </trkpt>
      <trkpt lat="44.15028" lon="0.74178">
        <ele>55</ele>
        <time>2024-04-11T12:20:46.000Z</time>
      </trkpt>
      <trkpt lat="44.15029" lon="0.74178">
        <ele>55</ele>
        <time>2024-04-11T12:20:47.000Z</time>
      </trkpt>
      <trkpt lat="44.1503" lon="0.74178">
        <ele>55</ele>
        <time>2024-04-11T12:20:48.000Z</time>
      </trkpt>
      <trkpt lat="44.15031" lon="0.74179">
        <ele>55</ele>
        <time>2024-04-11T12:20:49.000Z</time>
      </trkpt>
      <trkpt lat="44.15032" lon="0.7418">
        <ele>54</ele>
        <time>2024-04-11T12:20:50.000Z</time>
      </trkpt>
      <trkpt lat="44.15033" lon="0.74181">
        <ele>54</ele>
        <time>2024-04-11T12:20:51.000Z</time>
      </trkpt>
      <trkpt lat="44.15034" lon="0.74181">
        <ele>53</ele>
        <time>2024-04-11T12:20:52.000Z</time>
      </trkpt>
      <trkpt lat="44.15035" lon="0.74182">
        <ele>53</ele>
        <time>2024-04-11T12:20:53.000Z</time>
      </trkpt>
      <trkpt lat="44.15036" lon="0.74183">
        <ele>53</ele>
        <time>2024-04-11T12:20:54.000Z</time>
      </trkpt>
      <trkpt lat="44.15037" lon="0.74183">
        <ele>53</ele>
        <time>2024-04-11T12:20:55.000Z</time>
      </trkpt>
      <trkpt lat="44.15038" lon="0.74184">
        <ele>53</ele>
        <time>2024-04-11T12:20:56.000Z</time>
      </trkpt>
      <trkpt lat="44.15039" lon="0.74185">
        <ele>53</ele>
        <time>2024-04-11T12:20:57.000Z</time>
      </trkpt>
      <trkpt lat="44.1504" lon="0.74186">
        <ele>53</ele>
        <time>2024-04-11T12:20:58.000Z</time>
      </trkpt>
      <trkpt lat="44.15041" lon="0.74186">
        <ele>53</ele>
        <time>2024-04-11T12:20:59.000Z</time>
      </trkpt>
      <trkpt lat="44.15043" lon="0.74187">
        <ele>54</ele>
        <time>2024-04-11T12:21:00.000Z</time>
      </trkpt>
      <trkpt lat="44.15044" lon="0.74188">
        <ele>54</ele>
        <time>2024-04-11T12:21:01.000Z</time>
      </trkpt>
      <trkpt lat="44.15045" lon="0.74188">
        <ele>54</ele>
        <time>2024-04-11T12:21:02.000Z</time>
      </trkpt>
      <trkpt lat="44.15046" lon="0.74189">
        <ele>55</ele>
        <time>2024-04-11T12:21:03.000Z</time>
      </trkpt>
      <trkpt lat="44.15047" lon="0.7419">
        <ele>55</ele>
        <time>2024-04-11T12:21:04.000Z</time>
      </trkpt>
      <trkpt lat="44.15048" lon="0.7419">
        <ele>55</ele>
        <time>2024-04-11T12:21:05.000Z</time>
      </trkpt>
      <trkpt lat="44.15049" lon="0.74191">
        <ele>55</ele>
        <time>2024-04-11T12:21:06.000Z</time>
      </trkpt>
      <trkpt lat="44.1505" lon="0.74192">
        <ele>55</ele>
        <time>2024-04-11T12:21:07.000Z</time>
      </trkpt>
      <trkpt lat="44.15051" lon="0.74193">
        <ele>55</ele>
        <time>2024-04-11T12:21:08.000Z</time>
      </trkpt>
      <trkpt lat="44.15052" lon="0.74194">
        <ele>55</ele>
        <time>2024-04-11T12:21:09.000Z</time>
      </trkpt>
      <trkpt lat="44.15053" lon="0.74194">
        <ele>55</ele>
        <time>2024-04-11T12:21:10.000Z</time>
      </trkpt>
      <trkpt lat="44.15054" lon="0.74195">
        <ele>55</ele>
        <time>2024-04-11T12:21:11.000Z</time>
      </trkpt>
      <trkpt lat="44.15055" lon="0.74196">
        <ele>55</ele>
        <time>2024-04-11T12:21:12.000Z</time>
      </trkpt>
      <trkpt lat="44.15056" lon="0.74196">
        <ele>55</ele>
        <time>2024-04-11T12:21:13.000Z</time>
      </trkpt>
      <trkpt lat="44.15057" lon="0.74197">
        <ele>54</ele>
        <time>2024-04-11T12:21:14.000Z</time>
      </trkpt>
      <trkpt lat="44.15058" lon="0.74198">
        <ele>54</ele>
        <time>2024-04-11T12:21:15.000Z</time>
      </trkpt>
      <trkpt lat="44.1506" lon="0.74199">
        <ele>54</ele>
        <time>2024-04-11T12:21:16.000Z</time>
      </trkpt>
      <trkpt lat="44.15061" lon="0.74199">
        <ele>54</ele>
        <time>2024-04-11T12:21:17.000Z</time>
      </trkpt>
      <trkpt lat="44.15062" lon="0.742">
        <ele>54</ele>
        <time>2024-04-11T12:21:18.000Z</time>
      </trkpt>
      <trkpt lat="44.15063" lon="0.74201">
        <ele>54</ele>
        <time>2024-04-11T12:21:19.000Z</time>
      </trkpt>
      <trkpt lat="44.15064" lon="0.74201">
        <ele>54</ele>
        <time>2024-04-11T12:21:20.000Z</time>
      </trkpt>
      <trkpt lat="44.15065" lon="0.74202">
        <ele>54</ele>
        <time>2024-04-11T12:21:21.000Z</time>
      </trkpt>
      <trkpt lat="44.15067" lon="0.74202">
        <ele>54</ele>
        <time>2024-04-11T12:21:22.000Z</time>
      </trkpt>
      <trkpt lat="44.15068" lon="0.74203">
        <ele>55</ele>
        <time>2024-04-11T12:21:23.000Z</time>
      </trkpt>
      <trkpt lat="44.15068" lon="0.74203">
        <ele>55</ele>
        <time>2024-04-11T12:21:24.000Z</time>
      </trkpt>
      <trkpt lat="44.15069" lon="0.74204">
        <ele>55</ele>
        <time>2024-04-11T12:21:25.000Z</time>
      </trkpt>
      <trkpt lat="44.1507" lon="0.74205">
        <ele>55</ele>
        <time>2024-04-11T12:21:26.000Z</time>
      </trkpt>
      <trkpt lat="44.15071" lon="0.74206">
        <ele>55</ele>
        <time>2024-04-11T12:21:27.000Z</time>
      </trkpt>
      <trkpt lat="44.15072" lon="0.74206">
        <ele>55</ele>
        <time>2024-04-11T12:21:28.000Z</time>
      </trkpt>
      <trkpt lat="44.15073" lon="0.74207">
        <ele>55</ele>
        <time>2024-04-11T12:21:29.000Z</time>
      </trkpt>
      <trkpt lat="44.15074" lon="0.74208">
        <ele>55</ele>
        <time>2024-04-11T12:21:30.000Z</time>
      </trkpt>
      <trkpt lat="44.15075" lon="0.74209">
        <ele>56</ele>
        <time>2024-04-11T12:21:31.000Z</time>
      </trkpt>
      <trkpt lat="44.15076" lon="0.74209">
        <ele>56</ele>
        <time>2024-04-11T12:21:32.000Z</time>
      </trkpt>
      <trkpt lat="44.15077" lon="0.7421">
        <ele>56</ele>
        <time>2024-04-11T12:21:33.000Z</time>
      </trkpt>
      <trkpt lat="44.15078" lon="0.74211">
        <ele>56</ele>
        <time>2024-04-11T12:21:34.000Z</time>
      </trkpt>
      <trkpt lat="44.15079" lon="0.74211">
        <ele>56</ele>
        <time>2024-04-11T12:21:35.000Z</time>
      </trkpt>
      <trkpt lat="44.1508" lon="0.74212">
        <ele>56</ele>
        <time>2024-04-11T12:21:36.000Z</time>
      </trkpt>
      <trkpt lat="44.15081" lon="0.74213">
        <ele>57</ele>
        <time>2024-04-11T12:21:37.000Z</time>
      </trkpt>
      <trkpt lat="44.15082" lon="0.74214">
        <ele>57</ele>
        <time>2024-04-11T12:21:38.000Z</time>
      </trkpt>
      <trkpt lat="44.15083" lon="0.74214">
        <ele>57</ele>
        <time>2024-04-11T12:21:39.000Z</time>
      </trkpt>
      <trkpt lat="44.15084" lon="0.74215">
        <ele>56</ele>
        <time>2024-04-11T12:21:40.000Z</time>
      </trkpt>
      <trkpt lat="44.15085" lon="0.74216">
        <ele>56</ele>
        <time>2024-04-11T12:21:41.000Z</time>
      </trkpt>
      <trkpt lat="44.15086" lon="0.74217">
        <ele>56</ele>
        <time>2024-04-11T12:21:42.000Z</time>
      </trkpt>
      <trkpt lat="44.15088" lon="0.74217">
        <ele>56</ele>
        <time>2024-04-11T12:21:43.000Z</time>
      </trkpt>
      <trkpt lat="44.15089" lon="0.74218">
        <ele>56</ele>
        <time>2024-04-11T12:21:44.000Z</time>
      </trkpt>
      <trkpt lat="44.1509" lon="0.74219">
        <ele>56</ele>
        <time>2024-04-11T12:21:45.000Z</time>
      </trkpt>
      <trkpt lat="44.15091" lon="0.74219">
        <ele>55</ele>
        <time>2024-04-11T12:21:46.000Z</time>
      </trkpt>
      <trkpt lat="44.15092" lon="0.74221">
        <ele>55</ele>
        <time>2024-04-11T12:21:47.000Z</time>
      </trkpt>
      <trkpt lat="44.15093" lon="0.74222">
        <ele>55</ele>
        <time>2024-04-11T12:21:48.000Z</time>
      </trkpt>
      <trkpt lat="44.15094" lon="0.74223">
        <ele>54</ele>
        <time>2024-04-11T12:21:49.000Z</time>
      </trkpt>
      <trkpt lat="44.15095" lon="0.74224">
        <ele>54</ele>
        <time>2024-04-11T12:21:50.000Z</time>
      </trkpt>
      <trkpt lat="44.15097" lon="0.74224">
        <ele>54</ele>
        <time>2024-04-11T12:21:51.000Z</time>
      </trkpt>
      <trkpt lat="44.15098" lon="0.74225">
        <ele>54</ele>
        <time>2024-04-11T12:21:52.000Z</time>
      </trkpt>
      <trkpt lat="44.15099" lon="0.74226">
        <ele>54</ele>
        <time>2024-04-11T12:21:53.000Z</time>
      </trkpt>
      <trkpt lat="44.151" lon="0.74226">
        <ele>53</ele>
        <time>2024-04-11T12:21:54.000Z</time>
      </trkpt>
      <trkpt lat="44.15102" lon="0.74227">
        <ele>53</ele>
        <time>2024-04-11T12:21:55.000Z</time>
      </trkpt>
      <trkpt lat="44.15103" lon="0.74228">
        <ele>54</ele>
        <time>2024-04-11T12:21:56.000Z</time>
      </trkpt>
      <trkpt lat="44.15104" lon="0.74229">
        <ele>54</ele>
        <time>2024-04-11T12:21:57.000Z</time>
      </trkpt>
      <trkpt lat="44.15105" lon="0.7423">
        <ele>54</ele>
        <time>2024-04-11T12:21:58.000Z</time>
      </trkpt>
      <trkpt lat="44.15106" lon="0.74231">
        <ele>54</ele>
        <time>2024-04-11T12:21:59.000Z</time>
      </trkpt>
      <trkpt lat="44.15107" lon="0.74232">
        <ele>54</ele>
        <time>2024-04-11T12:22:00.000Z</time>
      </trkpt>
      <trkpt lat="44.15108" lon="0.74232">
        <ele>54</ele>
        <time>2024-04-11T12:22:01.000Z</time>
      </trkpt>
      <trkpt lat="44.15109" lon="0.74233">
        <ele>54</ele>
        <time>2024-04-11T12:22:02.000Z</time>
      </trkpt>
      <trkpt lat="44.1511" lon="0.74234">
        <ele>53</ele>
        <time>2024-04-11T12:22:03.000Z</time>
      </trkpt>
      <trkpt lat="44.15111" lon="0.74235">
        <ele>53</ele>
        <time>2024-04-11T12:22:04.000Z</time>
      </trkpt>
      <trkpt lat="44.15113" lon="0.74236">
        <ele>53</ele>
        <time>2024-04-11T12:22:05.000Z</time>
      </trkpt>
      <trkpt lat="44.15114" lon="0.74236">
        <ele>53</ele>
        <time>2024-04-11T12:22:06.000Z</time>
      </trkpt>
      <trkpt lat="44.15115" lon="0.74237">
        <ele>53</ele>
        <time>2024-04-11T12:22:07.000Z</time>
      </trkpt>
      <trkpt lat="44.15115" lon="0.74238">
        <ele>53</ele>
        <time>2024-04-11T12:22:08.000Z</time>
      </trkpt>
      <trkpt lat="44.15116" lon="0.74239">
        <ele>53</ele>
        <time>2024-04-11T12:22:09.000Z</time>
      </trkpt>
      <trkpt lat="44.15117" lon="0.74239">
        <ele>53</ele>
        <time>2024-04-11T12:22:10.000Z</time>
      </trkpt>
      <trkpt lat="44.15118" lon="0.7424">
        <ele>54</ele>
        <time>2024-04-11T12:22:11.000Z</time>
      </trkpt>
      <trkpt lat="44.15119" lon="0.74241">
        <ele>54</ele>
        <time>2024-04-11T12:22:12.000Z</time>
      </trkpt>
      <trkpt lat="44.1512" lon="0.74242">
        <ele>54</ele>
        <time>2024-04-11T12:22:13.000Z</time>
      </trkpt>
      <trkpt lat="44.1512" lon="0.74243">
        <ele>54</ele>
        <time>2024-04-11T12:22:14.000Z</time>
      </trkpt>
      <trkpt lat="44.15121" lon="0.74244">
        <ele>54</ele>
        <time>2024-04-11T12:22:15.000Z</time>
      </trkpt>
      <trkpt lat="44.15121" lon="0.74245">
        <ele>55</ele>
        <time>2024-04-11T12:22:16.000Z</time>
      </trkpt>
      <trkpt lat="44.15122" lon="0.74246">
        <ele>56</ele>
        <time>2024-04-11T12:22:17.000Z</time>
      </trkpt>
      <trkpt lat="44.15123" lon="0.74247">
        <ele>56</ele>
        <time>2024-04-11T12:22:18.000Z</time>
      </trkpt>
      <trkpt lat="44.15124" lon="0.74248">
        <ele>56</ele>
        <time>2024-04-11T12:22:19.000Z</time>
      </trkpt>
      <trkpt lat="44.15125" lon="0.74249">
        <ele>56</ele>
        <time>2024-04-11T12:22:20.000Z</time>
      </trkpt>
      <trkpt lat="44.15126" lon="0.7425">
        <ele>56</ele>
        <time>2024-04-11T12:22:21.000Z</time>
      </trkpt>
      <trkpt lat="44.15127" lon="0.74251">
        <ele>56</ele>
        <time>2024-04-11T12:22:22.000Z</time>
      </trkpt>
      <trkpt lat="44.15128" lon="0.74251">
        <ele>56</ele>
        <time>2024-04-11T12:22:23.000Z</time>
      </trkpt>
      <trkpt lat="44.15129" lon="0.74252">
        <ele>56</ele>
        <time>2024-04-11T12:22:24.000Z</time>
      </trkpt>
      <trkpt lat="44.15131" lon="0.74253">
        <ele>56</ele>
        <time>2024-04-11T12:22:25.000Z</time>
      </trkpt>
      <trkpt lat="44.15132" lon="0.74253">
        <ele>56</ele>
        <time>2024-04-11T12:22:26.000Z</time>
      </trkpt>
      <trkpt lat="44.15133" lon="0.74254">
        <ele>56</ele>
        <time>2024-04-11T12:22:27.000Z</time>
      </trkpt>
      <trkpt lat="44.15134" lon="0.74255">
        <ele>56</ele>
        <time>2024-04-11T12:22:28.000Z</time>
      </trkpt>
      <trkpt lat="44.15135" lon="0.74255">
        <ele>56</ele>
        <time>2024-04-11T12:22:29.000Z</time>
      </trkpt>
      <trkpt lat="44.15136" lon="0.74256">
        <ele>56</ele>
        <time>2024-04-11T12:22:30.000Z</time>
      </trkpt>
      <trkpt lat="44.15137" lon="0.74256">
        <ele>55</ele>
        <time>2024-04-11T12:22:31.000Z</time>
      </trkpt>
      <trkpt lat="44.15138" lon="0.74257">
        <ele>55</ele>
        <time>2024-04-11T12:22:32.000Z</time>
      </trkpt>
      <trkpt lat="44.15139" lon="0.74258">
        <ele>55</ele>
        <time>2024-04-11T12:22:33.000Z</time>
      </trkpt>
      <trkpt lat="44.1514" lon="0.74259">
        <ele>55</ele>
        <time>2024-04-11T12:22:34.000Z</time>
      </trkpt>
      <trkpt lat="44.15141" lon="0.74259">
        <ele>55</ele>
        <time>2024-04-11T12:22:35.000Z</time>
      </trkpt>
      <trkpt lat="44.15143" lon="0.7426">
        <ele>55</ele>
        <time>2024-04-11T12:22:36.000Z</time>
      </trkpt>
      <trkpt lat="44.15144" lon="0.74261">
        <ele>55</ele>
        <time>2024-04-11T12:22:37.000Z</time>
      </trkpt>
      <trkpt lat="44.15145" lon="0.74261">
        <ele>55</ele>
        <time>2024-04-11T12:22:38.000Z</time>
      </trkpt>
      <trkpt lat="44.15146" lon="0.74262">
        <ele>56</ele>
        <time>2024-04-11T12:22:39.000Z</time>
      </trkpt>
      <trkpt lat="44.15147" lon="0.74263">
        <ele>56</ele>
        <time>2024-04-11T12:22:40.000Z</time>
      </trkpt>
      <trkpt lat="44.15148" lon="0.74264">
        <ele>56</ele>
        <time>2024-04-11T12:22:41.000Z</time>
      </trkpt>
      <trkpt lat="44.15149" lon="0.74265">
        <ele>56</ele>
        <time>2024-04-11T12:22:42.000Z</time>
      </trkpt>
      <trkpt lat="44.1515" lon="0.74266">
        <ele>55</ele>
        <time>2024-04-11T12:22:43.000Z</time>
      </trkpt>
      <trkpt lat="44.15151" lon="0.74266">
        <ele>55</ele>
        <time>2024-04-11T12:22:44.000Z</time>
      </trkpt>
      <trkpt lat="44.15152" lon="0.74267">
        <ele>55</ele>
        <time>2024-04-11T12:22:45.000Z</time>
      </trkpt>
      <trkpt lat="44.15153" lon="0.74268">
        <ele>55</ele>
        <time>2024-04-11T12:22:46.000Z</time>
      </trkpt>
      <trkpt lat="44.15154" lon="0.74268">
        <ele>55</ele>
        <time>2024-04-11T12:22:47.000Z</time>
      </trkpt>
      <trkpt lat="44.15156" lon="0.74268">
        <ele>55</ele>
        <time>2024-04-11T12:22:48.000Z</time>
      </trkpt>
      <trkpt lat="44.15157" lon="0.74269">
        <ele>55</ele>
        <time>2024-04-11T12:22:49.000Z</time>
      </trkpt>
      <trkpt lat="44.15158" lon="0.7427">
        <ele>55</ele>
        <time>2024-04-11T12:22:50.000Z</time>
      </trkpt>
      <trkpt lat="44.15159" lon="0.7427">
        <ele>55</ele>
        <time>2024-04-11T12:22:51.000Z</time>
      </trkpt>
      <trkpt lat="44.1516" lon="0.74271">
        <ele>55</ele>
        <time>2024-04-11T12:22:52.000Z</time>
      </trkpt>
      <trkpt lat="44.15161" lon="0.74272">
        <ele>55</ele>
        <time>2024-04-11T12:22:53.000Z</time>
      </trkpt>
      <trkpt lat="44.15162" lon="0.74273">
        <ele>56</ele>
        <time>2024-04-11T12:22:54.000Z</time>
      </trkpt>
      <trkpt lat="44.15163" lon="0.74274">
        <ele>55</ele>
        <time>2024-04-11T12:22:55.000Z</time>
      </trkpt>
      <trkpt lat="44.15164" lon="0.74275">
        <ele>55</ele>
        <time>2024-04-11T12:22:56.000Z</time>
      </trkpt>
      <trkpt lat="44.15165" lon="0.74276">
        <ele>55</ele>
        <time>2024-04-11T12:22:57.000Z</time>
      </trkpt>
      <trkpt lat="44.15166" lon="0.74276">
        <ele>55</ele>
        <time>2024-04-11T12:22:58.000Z</time>
      </trkpt>
      <trkpt lat="44.15167" lon="0.74277">
        <ele>55</ele>
        <time>2024-04-11T12:22:59.000Z</time>
      </trkpt>
      <trkpt lat="44.15169" lon="0.74277">
        <ele>56</ele>
        <time>2024-04-11T12:23:00.000Z</time>
      </trkpt>
      <trkpt lat="44.1517" lon="0.74278">
        <ele>56</ele>
        <time>2024-04-11T12:23:01.000Z</time>
      </trkpt>
      <trkpt lat="44.15171" lon="0.74278">
        <ele>57</ele>
        <time>2024-04-11T12:23:02.000Z</time>
      </trkpt>
      <trkpt lat="44.15172" lon="0.74279">
        <ele>57</ele>
        <time>2024-04-11T12:23:03.000Z</time>
      </trkpt>
      <trkpt lat="44.15173" lon="0.74279">
        <ele>57</ele>
        <time>2024-04-11T12:23:04.000Z</time>
      </trkpt>
      <trkpt lat="44.15174" lon="0.7428">
        <ele>57</ele>
        <time>2024-04-11T12:23:05.000Z</time>
      </trkpt>
      <trkpt lat="44.15175" lon="0.7428">
        <ele>57</ele>
        <time>2024-04-11T12:23:06.000Z</time>
      </trkpt>
      <trkpt lat="44.15176" lon="0.74281">
        <ele>57</ele>
        <time>2024-04-11T12:23:07.000Z</time>
      </trkpt>
      <trkpt lat="44.15177" lon="0.74282">
        <ele>57</ele>
        <time>2024-04-11T12:23:08.000Z</time>
      </trkpt>
      <trkpt lat="44.15177" lon="0.74283">
        <ele>58</ele>
        <time>2024-04-11T12:23:09.000Z</time>
      </trkpt>
      <trkpt lat="44.15178" lon="0.74284">
        <ele>57</ele>
        <time>2024-04-11T12:23:10.000Z</time>
      </trkpt>
      <trkpt lat="44.15179" lon="0.74284">
        <ele>58</ele>
        <time>2024-04-11T12:23:11.000Z</time>
      </trkpt>
      <trkpt lat="44.1518" lon="0.74285">
        <ele>58</ele>
        <time>2024-04-11T12:23:12.000Z</time>
      </trkpt>
      <trkpt lat="44.15181" lon="0.74286">
        <ele>57</ele>
        <time>2024-04-11T12:23:13.000Z</time>
      </trkpt>
      <trkpt lat="44.15183" lon="0.74286">
        <ele>57</ele>
        <time>2024-04-11T12:23:14.000Z</time>
      </trkpt>
      <trkpt lat="44.15184" lon="0.74287">
        <ele>58</ele>
        <time>2024-04-11T12:23:15.000Z</time>
      </trkpt>
      <trkpt lat="44.15185" lon="0.74288">
        <ele>58</ele>
        <time>2024-04-11T12:23:16.000Z</time>
      </trkpt>
      <trkpt lat="44.15186" lon="0.74288">
        <ele>58</ele>
        <time>2024-04-11T12:23:17.000Z</time>
      </trkpt>
      <trkpt lat="44.15187" lon="0.74289">
        <ele>58</ele>
        <time>2024-04-11T12:23:18.000Z</time>
      </trkpt>
      <trkpt lat="44.15188" lon="0.7429">
        <ele>58</ele>
        <time>2024-04-11T12:23:19.000Z</time>
      </trkpt>
      <trkpt lat="44.15189" lon="0.7429">
        <ele>58</ele>
        <time>2024-04-11T12:23:20.000Z</time>
      </trkpt>
      <trkpt lat="44.1519" lon="0.74291">
        <ele>58</ele>
        <time>2024-04-11T12:23:21.000Z</time>
      </trkpt>
      <trkpt lat="44.15191" lon="0.74292">
        <ele>59</ele>
        <time>2024-04-11T12:23:22.000Z</time>
      </trkpt>
      <trkpt lat="44.15192" lon="0.74292">
        <ele>59</ele>
        <time>2024-04-11T12:23:23.000Z</time>
      </trkpt>
      <trkpt lat="44.15193" lon="0.74293">
        <ele>59</ele>
        <time>2024-04-11T12:23:24.000Z</time>
      </trkpt>
      <trkpt lat="44.15195" lon="0.74294">
        <ele>59</ele>
        <time>2024-04-11T12:23:25.000Z</time>
      </trkpt>
      <trkpt lat="44.15196" lon="0.74294">
        <ele>59</ele>
        <time>2024-04-11T12:23:26.000Z</time>
      </trkpt>
      <trkpt lat="44.15197" lon="0.74295">
        <ele>59</ele>
        <time>2024-04-11T12:23:27.000Z</time>
      </trkpt>
      <trkpt lat="44.15198" lon="0.74296">
        <ele>59</ele>
        <time>2024-04-11T12:23:28.000Z</time>
      </trkpt>
      <trkpt lat="44.15199" lon="0.74296">
        <ele>59</ele>
        <time>2024-04-11T12:23:29.000Z</time>
      </trkpt>
      <trkpt lat="44.152" lon="0.74297">
        <ele>59</ele>
        <time>2024-04-11T12:23:30.000Z</time>
      </trkpt>
      <trkpt lat="44.15201" lon="0.74298">
        <ele>59</ele>
        <time>2024-04-11T12:23:31.000Z</time>
      </trkpt>
      <trkpt lat="44.15202" lon="0.74298">
        <ele>59</ele>
        <time>2024-04-11T12:23:32.000Z</time>
      </trkpt>
      <trkpt lat="44.15203" lon="0.74299">
        <ele>59</ele>
        <time>2024-04-11T12:23:33.000Z</time>
      </trkpt>
      <trkpt lat="44.15205" lon="0.74299">
        <ele>60</ele>
        <time>2024-04-11T12:23:34.000Z</time>
      </trkpt>
      <trkpt lat="44.15206" lon="0.743">
        <ele>60</ele>
        <time>2024-04-11T12:23:35.000Z</time>
      </trkpt>
      <trkpt lat="44.15207" lon="0.74301">
        <ele>60</ele>
        <time>2024-04-11T12:23:36.000Z</time>
      </trkpt>
      <trkpt lat="44.15208" lon="0.74301">
        <ele>59</ele>
        <time>2024-04-11T12:23:37.000Z</time>
      </trkpt>
      <trkpt lat="44.15209" lon="0.74302">
        <ele>59</ele>
        <time>2024-04-11T12:23:38.000Z</time>
      </trkpt>
      <trkpt lat="44.15211" lon="0.74302">
        <ele>59</ele>
        <time>2024-04-11T12:23:39.000Z</time>
      </trkpt>
      <trkpt lat="44.15212" lon="0.74303">
        <ele>59</ele>
        <time>2024-04-11T12:23:40.000Z</time>
      </trkpt>
      <trkpt lat="44.15213" lon="0.74304">
        <ele>59</ele>
        <time>2024-04-11T12:23:41.000Z</time>
      </trkpt>
      <trkpt lat="44.15214" lon="0.74304">
        <ele>59</ele>
        <time>2024-04-11T12:23:42.000Z</time>
      </trkpt>
      <trkpt lat="44.15215" lon="0.74305">
        <ele>59</ele>
        <time>2024-04-11T12:23:43.000Z</time>
      </trkpt>
      <trkpt lat="44.15216" lon="0.74305">
        <ele>59</ele>
        <time>2024-04-11T12:23:44.000Z</time>
      </trkpt>
      <trkpt lat="44.15217" lon="0.74306">
        <ele>59</ele>
        <time>2024-04-11T12:23:45.000Z</time>
      </trkpt>
      <trkpt lat="44.15219" lon="0.74307">
        <ele>59</ele>
        <time>2024-04-11T12:23:46.000Z</time>
      </trkpt>
      <trkpt lat="44.1522" lon="0.74307">
        <ele>59</ele>
        <time>2024-04-11T12:23:47.000Z</time>
      </trkpt>
      <trkpt lat="44.15221" lon="0.74308">
        <ele>59</ele>
        <time>2024-04-11T12:23:48.000Z</time>
      </trkpt>
      <trkpt lat="44.15222" lon="0.74309">
        <ele>59</ele>
        <time>2024-04-11T12:23:49.000Z</time>
      </trkpt>
      <trkpt lat="44.15223" lon="0.74309">
        <ele>59</ele>
        <time>2024-04-11T12:23:50.000Z</time>
      </trkpt>
      <trkpt lat="44.15225" lon="0.7431">
        <ele>58</ele>
        <time>2024-04-11T12:23:51.000Z</time>
      </trkpt>
      <trkpt lat="44.15226" lon="0.74311">
        <ele>58</ele>
        <time>2024-04-11T12:23:52.000Z</time>
      </trkpt>
      <trkpt lat="44.15227" lon="0.74311">
        <ele>58</ele>
        <time>2024-04-11T12:23:53.000Z</time>
      </trkpt>
      <trkpt lat="44.15228" lon="0.74312">
        <ele>58</ele>
        <time>2024-04-11T12:23:54.000Z</time>
      </trkpt>
      <trkpt lat="44.15229" lon="0.74312">
        <ele>58</ele>
        <time>2024-04-11T12:23:55.000Z</time>
      </trkpt>
      <trkpt lat="44.1523" lon="0.74313">
        <ele>58</ele>
        <time>2024-04-11T12:23:56.000Z</time>
      </trkpt>
      <trkpt lat="44.15231" lon="0.74313">
        <ele>57</ele>
        <time>2024-04-11T12:23:57.000Z</time>
      </trkpt>
      <trkpt lat="44.15233" lon="0.74314">
        <ele>57</ele>
        <time>2024-04-11T12:23:58.000Z</time>
      </trkpt>
      <trkpt lat="44.15234" lon="0.74315">
        <ele>57</ele>
        <time>2024-04-11T12:23:59.000Z</time>
      </trkpt>
      <trkpt lat="44.15235" lon="0.74315">
        <ele>57</ele>
        <time>2024-04-11T12:24:00.000Z</time>
      </trkpt>
      <trkpt lat="44.15236" lon="0.74316">
        <ele>57</ele>
        <time>2024-04-11T12:24:01.000Z</time>
      </trkpt>
      <trkpt lat="44.15238" lon="0.74317">
        <ele>57</ele>
        <time>2024-04-11T12:24:02.000Z</time>
      </trkpt>
      <trkpt lat="44.15239" lon="0.74317">
        <ele>57</ele>
        <time>2024-04-11T12:24:03.000Z</time>
      </trkpt>
      <trkpt lat="44.1524" lon="0.74318">
        <ele>57</ele>
        <time>2024-04-11T12:24:04.000Z</time>
      </trkpt>
      <trkpt lat="44.15241" lon="0.74319">
        <ele>57</ele>
        <time>2024-04-11T12:24:05.000Z</time>
      </trkpt>
      <trkpt lat="44.15243" lon="0.74319">
        <ele>57</ele>
        <time>2024-04-11T12:24:06.000Z</time>
      </trkpt>
      <trkpt lat="44.15244" lon="0.7432">
        <ele>57</ele>
        <time>2024-04-11T12:24:07.000Z</time>
      </trkpt>
      <trkpt lat="44.15245" lon="0.74321">
        <ele>57</ele>
        <time>2024-04-11T12:24:08.000Z</time>
      </trkpt>
      <trkpt lat="44.15246" lon="0.74321">
        <ele>57</ele>
        <time>2024-04-11T12:24:09.000Z</time>
      </trkpt>
      <trkpt lat="44.15247" lon="0.74322">
        <ele>57</ele>
        <time>2024-04-11T12:24:10.000Z</time>
      </trkpt>
      <trkpt lat="44.15248" lon="0.74323">
        <ele>57</ele>
        <time>2024-04-11T12:24:11.000Z</time>
      </trkpt>
      <trkpt lat="44.15249" lon="0.74323">
        <ele>56</ele>
        <time>2024-04-11T12:24:12.000Z</time>
      </trkpt>
      <trkpt lat="44.1525" lon="0.74324">
        <ele>56</ele>
        <time>2024-04-11T12:24:13.000Z</time>
      </trkpt>
      <trkpt lat="44.15252" lon="0.74324">
        <ele>56</ele>
        <time>2024-04-11T12:24:14.000Z</time>
      </trkpt>
      <trkpt lat="44.15253" lon="0.74325">
        <ele>56</ele>
        <time>2024-04-11T12:24:15.000Z</time>
      </trkpt>
      <trkpt lat="44.15254" lon="0.74326">
        <ele>56</ele>
        <time>2024-04-11T12:24:16.000Z</time>
      </trkpt>
      <trkpt lat="44.15255" lon="0.74327">
        <ele>56</ele>
        <time>2024-04-11T12:24:17.000Z</time>
      </trkpt>
      <trkpt lat="44.15256" lon="0.74327">
        <ele>56</ele>
        <time>2024-04-11T12:24:18.000Z</time>
      </trkpt>
      <trkpt lat="44.15257" lon="0.74328">
        <ele>55</ele>
        <time>2024-04-11T12:24:19.000Z</time>
      </trkpt>
      <trkpt lat="44.15258" lon="0.74329">
        <ele>56</ele>
        <time>2024-04-11T12:24:20.000Z</time>
      </trkpt>
      <trkpt lat="44.15259" lon="0.7433">
        <ele>56</ele>
        <time>2024-04-11T12:24:21.000Z</time>
      </trkpt>
      <trkpt lat="44.1526" lon="0.74332">
        <ele>56</ele>
        <time>2024-04-11T12:24:22.000Z</time>
      </trkpt>
      <trkpt lat="44.1526" lon="0.74333">
        <ele>56</ele>
        <time>2024-04-11T12:24:23.000Z</time>
      </trkpt>
      <trkpt lat="44.15261" lon="0.74335">
        <ele>56</ele>
        <time>2024-04-11T12:24:24.000Z</time>
      </trkpt>
      <trkpt lat="44.15262" lon="0.74336">
        <ele>56</ele>
        <time>2024-04-11T12:24:25.000Z</time>
      </trkpt>
      <trkpt lat="44.15262" lon="0.74337">
        <ele>57</ele>
        <time>2024-04-11T12:24:26.000Z</time>
      </trkpt>
      <trkpt lat="44.15263" lon="0.74338">
        <ele>57</ele>
        <time>2024-04-11T12:24:27.000Z</time>
      </trkpt>
      <trkpt lat="44.15263" lon="0.74339">
        <ele>57</ele>
        <time>2024-04-11T12:24:28.000Z</time>
      </trkpt>
      <trkpt lat="44.15264" lon="0.74339">
        <ele>56</ele>
        <time>2024-04-11T12:24:29.000Z</time>
      </trkpt>
      <trkpt lat="44.15264" lon="0.7434">
        <ele>56</ele>
        <time>2024-04-11T12:24:30.000Z</time>
      </trkpt>
      <trkpt lat="44.15264" lon="0.7434">
        <ele>56</ele>
        <time>2024-04-11T12:24:31.000Z</time>
      </trkpt>
      <trkpt lat="44.15265" lon="0.7434">
        <ele>55</ele>
        <time>2024-04-11T12:24:32.000Z</time>
      </trkpt>
      <trkpt lat="44.15265" lon="0.7434">
        <ele>55</ele>
        <time>2024-04-11T12:24:33.000Z</time>
      </trkpt>
      <trkpt lat="44.15266" lon="0.7434">
        <ele>55</ele>
        <time>2024-04-11T12:24:34.000Z</time>
      </trkpt>
      <trkpt lat="44.15266" lon="0.74341">
        <ele>55</ele>
        <time>2024-04-11T12:24:35.000Z</time>
      </trkpt>
      <trkpt lat="44.15267" lon="0.74341">
        <ele>55</ele>
        <time>2024-04-11T12:24:36.000Z</time>
      </trkpt>
      <trkpt lat="44.15268" lon="0.74341">
        <ele>55</ele>
        <time>2024-04-11T12:24:37.000Z</time>
      </trkpt>
      <trkpt lat="44.15269" lon="0.74341">
        <ele>55</ele>
        <time>2024-04-11T12:24:38.000Z</time>
      </trkpt>
      <trkpt lat="44.1527" lon="0.74342">
        <ele>55</ele>
        <time>2024-04-11T12:24:39.000Z</time>
      </trkpt>
      <trkpt lat="44.15271" lon="0.74342">
        <ele>55</ele>
        <time>2024-04-11T12:24:40.000Z</time>
      </trkpt>
      <trkpt lat="44.15272" lon="0.74342">
        <ele>55</ele>
        <time>2024-04-11T12:24:41.000Z</time>
      </trkpt>
      <trkpt lat="44.15273" lon="0.74342">
        <ele>55</ele>
        <time>2024-04-11T12:24:42.000Z</time>
      </trkpt>
      <trkpt lat="44.15274" lon="0.74342">
        <ele>55</ele>
        <time>2024-04-11T12:24:43.000Z</time>
      </trkpt>
      <trkpt lat="44.15276" lon="0.74341">
        <ele>55</ele>
        <time>2024-04-11T12:24:44.000Z</time>
      </trkpt>
      <trkpt lat="44.15277" lon="0.7434">
        <ele>55</ele>
        <time>2024-04-11T12:24:45.000Z</time>
      </trkpt>
      <trkpt lat="44.15278" lon="0.74339">
        <ele>55</ele>
        <time>2024-04-11T12:24:46.000Z</time>
      </trkpt>
      <trkpt lat="44.15279" lon="0.74337">
        <ele>54</ele>
        <time>2024-04-11T12:24:47.000Z</time>
      </trkpt>
      <trkpt lat="44.1528" lon="0.74336">
        <ele>54</ele>
        <time>2024-04-11T12:24:48.000Z</time>
      </trkpt>
      <trkpt lat="44.1528" lon="0.74335">
        <ele>53</ele>
        <time>2024-04-11T12:24:49.000Z</time>
      </trkpt>
      <trkpt lat="44.15281" lon="0.74333">
        <ele>52</ele>
        <time>2024-04-11T12:24:50.000Z</time>
      </trkpt>
      <trkpt lat="44.15282" lon="0.74332">
        <ele>52</ele>
        <time>2024-04-11T12:24:51.000Z</time>
      </trkpt>
      <trkpt lat="44.15283" lon="0.74331">
        <ele>51</ele>
        <time>2024-04-11T12:24:52.000Z</time>
      </trkpt>
      <trkpt lat="44.15284" lon="0.7433">
        <ele>51</ele>
        <time>2024-04-11T12:24:53.000Z</time>
      </trkpt>
      <trkpt lat="44.15285" lon="0.74329">
        <ele>51</ele>
        <time>2024-04-11T12:24:54.000Z</time>
      </trkpt>
      <trkpt lat="44.15286" lon="0.74328">
        <ele>50</ele>
        <time>2024-04-11T12:24:55.000Z</time>
      </trkpt>
      <trkpt lat="44.15287" lon="0.74328">
        <ele>50</ele>
        <time>2024-04-11T12:24:56.000Z</time>
      </trkpt>
      <trkpt lat="44.15288" lon="0.74327">
        <ele>50</ele>
        <time>2024-04-11T12:24:57.000Z</time>
      </trkpt>
      <trkpt lat="44.15289" lon="0.74327">
        <ele>50</ele>
        <time>2024-04-11T12:24:58.000Z</time>
      </trkpt>
      <trkpt lat="44.1529" lon="0.74326">
        <ele>50</ele>
        <time>2024-04-11T12:24:59.000Z</time>
      </trkpt>
      <trkpt lat="44.15291" lon="0.74326">
        <ele>50</ele>
        <time>2024-04-11T12:25:00.000Z</time>
      </trkpt>
      <trkpt lat="44.15292" lon="0.74325">
        <ele>50</ele>
        <time>2024-04-11T12:25:01.000Z</time>
      </trkpt>
      <trkpt lat="44.15293" lon="0.74325">
        <ele>51</ele>
        <time>2024-04-11T12:25:02.000Z</time>
      </trkpt>
      <trkpt lat="44.15294" lon="0.74326">
        <ele>51</ele>
        <time>2024-04-11T12:25:03.000Z</time>
      </trkpt>
      <trkpt lat="44.15295" lon="0.74326">
        <ele>52</ele>
        <time>2024-04-11T12:25:04.000Z</time>
      </trkpt>
      <trkpt lat="44.15296" lon="0.74326">
        <ele>52</ele>
        <time>2024-04-11T12:25:05.000Z</time>
      </trkpt>
      <trkpt lat="44.15297" lon="0.74326">
        <ele>53</ele>
        <time>2024-04-11T12:25:06.000Z</time>
      </trkpt>
      <trkpt lat="44.15298" lon="0.74326">
        <ele>53</ele>
        <time>2024-04-11T12:25:07.000Z</time>
      </trkpt>
      <trkpt lat="44.15299" lon="0.74326">
        <ele>54</ele>
        <time>2024-04-11T12:25:08.000Z</time>
      </trkpt>
      <trkpt lat="44.153" lon="0.74326">
        <ele>54</ele>
        <time>2024-04-11T12:25:09.000Z</time>
      </trkpt>
      <trkpt lat="44.15301" lon="0.74326">
        <ele>54</ele>
        <time>2024-04-11T12:25:10.000Z</time>
      </trkpt>
      <trkpt lat="44.15302" lon="0.74326">
        <ele>54</ele>
        <time>2024-04-11T12:25:11.000Z</time>
      </trkpt>
      <trkpt lat="44.15303" lon="0.74326">
        <ele>55</ele>
        <time>2024-04-11T12:25:12.000Z</time>
      </trkpt>
      <trkpt lat="44.15303" lon="0.74327">
        <ele>55</ele>
        <time>2024-04-11T12:25:13.000Z</time>
      </trkpt>
      <trkpt lat="44.15304" lon="0.74327">
        <ele>55</ele>
        <time>2024-04-11T12:25:14.000Z</time>
      </trkpt>
      <trkpt lat="44.15305" lon="0.74327">
        <ele>55</ele>
        <time>2024-04-11T12:25:15.000Z</time>
      </trkpt>
      <trkpt lat="44.15306" lon="0.74327">
        <ele>55</ele>
        <time>2024-04-11T12:25:16.000Z</time>
      </trkpt>
      <trkpt lat="44.15307" lon="0.74327">
        <ele>55</ele>
        <time>2024-04-11T12:25:17.000Z</time>
      </trkpt>
      <trkpt lat="44.15308" lon="0.74328">
        <ele>55</ele>
        <time>2024-04-11T12:25:18.000Z</time>
      </trkpt>
      <trkpt lat="44.15309" lon="0.74328">
        <ele>55</ele>
        <time>2024-04-11T12:25:19.000Z</time>
      </trkpt>
      <trkpt lat="44.1531" lon="0.74328">
        <ele>56</ele>
        <time>2024-04-11T12:25:20.000Z</time>
      </trkpt>
      <trkpt lat="44.15311" lon="0.74328">
        <ele>56</ele>
        <time>2024-04-11T12:25:21.000Z</time>
      </trkpt>
      <trkpt lat="44.15312" lon="0.74328">
        <ele>56</ele>
        <time>2024-04-11T12:25:22.000Z</time>
      </trkpt>
      <trkpt lat="44.15312" lon="0.74328">
        <ele>57</ele>
        <time>2024-04-11T12:25:23.000Z</time>
      </trkpt>
      <trkpt lat="44.15313" lon="0.74328">
        <ele>57</ele>
        <time>2024-04-11T12:25:24.000Z</time>
      </trkpt>
      <trkpt lat="44.15314" lon="0.74328">
        <ele>57</ele>
        <time>2024-04-11T12:25:25.000Z</time>
      </trkpt>
      <trkpt lat="44.15315" lon="0.74328">
        <ele>58</ele>
        <time>2024-04-11T12:25:26.000Z</time>
      </trkpt>
      <trkpt lat="44.15316" lon="0.74328">
        <ele>58</ele>
        <time>2024-04-11T12:25:27.000Z</time>
      </trkpt>
      <trkpt lat="44.15317" lon="0.74328">
        <ele>58</ele>
        <time>2024-04-11T12:25:28.000Z</time>
      </trkpt>
      <trkpt lat="44.15318" lon="0.74328">
        <ele>58</ele>
        <time>2024-04-11T12:25:29.000Z</time>
      </trkpt>
      <trkpt lat="44.1532" lon="0.74327">
        <ele>58</ele>
        <time>2024-04-11T12:25:30.000Z</time>
      </trkpt>
      <trkpt lat="44.15321" lon="0.74327">
        <ele>58</ele>
        <time>2024-04-11T12:25:31.000Z</time>
      </trkpt>
      <trkpt lat="44.15322" lon="0.74327">
        <ele>58</ele>
        <time>2024-04-11T12:25:32.000Z</time>
      </trkpt>
      <trkpt lat="44.15323" lon="0.74327">
        <ele>59</ele>
        <time>2024-04-11T12:25:33.000Z</time>
      </trkpt>
      <trkpt lat="44.15323" lon="0.74327">
        <ele>59</ele>
        <time>2024-04-11T12:25:34.000Z</time>
      </trkpt>
      <trkpt lat="44.15324" lon="0.74327">
        <ele>59</ele>
        <time>2024-04-11T12:25:35.000Z</time>
      </trkpt>
      <trkpt lat="44.15325" lon="0.74327">
        <ele>59</ele>
        <time>2024-04-11T12:25:36.000Z</time>
      </trkpt>
      <trkpt lat="44.15326" lon="0.74327">
        <ele>59</ele>
        <time>2024-04-11T12:25:37.000Z</time>
      </trkpt>
      <trkpt lat="44.15327" lon="0.74327">
        <ele>59</ele>
        <time>2024-04-11T12:25:38.000Z</time>
      </trkpt>
      <trkpt lat="44.15328" lon="0.74327">
        <ele>60</ele>
        <time>2024-04-11T12:25:39.000Z</time>
      </trkpt>
      <trkpt lat="44.15329" lon="0.74327">
        <ele>60</ele>
        <time>2024-04-11T12:25:40.000Z</time>
      </trkpt>
      <trkpt lat="44.1533" lon="0.74327">
        <ele>60</ele>
        <time>2024-04-11T12:25:41.000Z</time>
      </trkpt>
      <trkpt lat="44.15331" lon="0.74327">
        <ele>61</ele>
        <time>2024-04-11T12:25:42.000Z</time>
      </trkpt>
      <trkpt lat="44.15332" lon="0.74326">
        <ele>60</ele>
        <time>2024-04-11T12:25:43.000Z</time>
      </trkpt>
      <trkpt lat="44.15333" lon="0.74326">
        <ele>61</ele>
        <time>2024-04-11T12:25:44.000Z</time>
      </trkpt>
      <trkpt lat="44.15334" lon="0.74326">
        <ele>61</ele>
        <time>2024-04-11T12:25:45.000Z</time>
      </trkpt>
      <trkpt lat="44.15335" lon="0.74326">
        <ele>61</ele>
        <time>2024-04-11T12:25:46.000Z</time>
      </trkpt>
      <trkpt lat="44.15336" lon="0.74326">
        <ele>61</ele>
        <time>2024-04-11T12:25:47.000Z</time>
      </trkpt>
      <trkpt lat="44.15337" lon="0.74326">
        <ele>62</ele>
        <time>2024-04-11T12:25:48.000Z</time>
      </trkpt>
      <trkpt lat="44.15338" lon="0.74325">
        <ele>62</ele>
        <time>2024-04-11T12:25:49.000Z</time>
      </trkpt>
      <trkpt lat="44.15339" lon="0.74325">
        <ele>62</ele>
        <time>2024-04-11T12:25:50.000Z</time>
      </trkpt>
      <trkpt lat="44.1534" lon="0.74325">
        <ele>63</ele>
        <time>2024-04-11T12:25:51.000Z</time>
      </trkpt>
      <trkpt lat="44.15341" lon="0.74325">
        <ele>63</ele>
        <time>2024-04-11T12:25:52.000Z</time>
      </trkpt>
      <trkpt lat="44.15342" lon="0.74325">
        <ele>63</ele>
        <time>2024-04-11T12:25:53.000Z</time>
      </trkpt>
      <trkpt lat="44.15343" lon="0.74325">
        <ele>64</ele>
        <time>2024-04-11T12:25:54.000Z</time>
      </trkpt>
      <trkpt lat="44.15343" lon="0.74325">
        <ele>64</ele>
        <time>2024-04-11T12:25:55.000Z</time>
      </trkpt>
      <trkpt lat="44.15344" lon="0.74325">
        <ele>65</ele>
        <time>2024-04-11T12:25:56.000Z</time>
      </trkpt>
      <trkpt lat="44.15345" lon="0.74325">
        <ele>66</ele>
        <time>2024-04-11T12:25:57.000Z</time>
      </trkpt>
      <trkpt lat="44.15346" lon="0.74324">
        <ele>66</ele>
        <time>2024-04-11T12:25:58.000Z</time>
      </trkpt>
      <trkpt lat="44.15347" lon="0.74324">
        <ele>66</ele>
        <time>2024-04-11T12:25:59.000Z</time>
      </trkpt>
      <trkpt lat="44.15349" lon="0.74324">
        <ele>67</ele>
        <time>2024-04-11T12:26:00.000Z</time>
      </trkpt>
      <trkpt lat="44.1535" lon="0.74323">
        <ele>67</ele>
        <time>2024-04-11T12:26:01.000Z</time>
      </trkpt>
      <trkpt lat="44.15351" lon="0.74323">
        <ele>68</ele>
        <time>2024-04-11T12:26:02.000Z</time>
      </trkpt>
      <trkpt lat="44.15352" lon="0.74323">
        <ele>68</ele>
        <time>2024-04-11T12:26:03.000Z</time>
      </trkpt>
      <trkpt lat="44.15353" lon="0.74322">
        <ele>69</ele>
        <time>2024-04-11T12:26:04.000Z</time>
      </trkpt>
      <trkpt lat="44.15354" lon="0.74322">
        <ele>69</ele>
        <time>2024-04-11T12:26:05.000Z</time>
      </trkpt>
      <trkpt lat="44.15355" lon="0.74322">
        <ele>70</ele>
        <time>2024-04-11T12:26:06.000Z</time>
      </trkpt>
      <trkpt lat="44.15356" lon="0.74322">
        <ele>70</ele>
        <time>2024-04-11T12:26:07.000Z</time>
      </trkpt>
      <trkpt lat="44.15357" lon="0.74321">
        <ele>70</ele>
        <time>2024-04-11T12:26:08.000Z</time>
      </trkpt>
      <trkpt lat="44.15358" lon="0.74321">
        <ele>70</ele>
        <time>2024-04-11T12:26:09.000Z</time>
      </trkpt>
      <trkpt lat="44.15359" lon="0.7432">
        <ele>70</ele>
        <time>2024-04-11T12:26:10.000Z</time>
      </trkpt>
      <trkpt lat="44.1536" lon="0.7432">
        <ele>70</ele>
        <time>2024-04-11T12:26:11.000Z</time>
      </trkpt>
      <trkpt lat="44.15361" lon="0.74319">
        <ele>70</ele>
        <time>2024-04-11T12:26:12.000Z</time>
      </trkpt>
      <trkpt lat="44.15362" lon="0.74318">
        <ele>71</ele>
        <time>2024-04-11T12:26:13.000Z</time>
      </trkpt>
      <trkpt lat="44.15363" lon="0.74317">
        <ele>71</ele>
        <time>2024-04-11T12:26:14.000Z</time>
      </trkpt>
      <trkpt lat="44.15364" lon="0.74317">
        <ele>71</ele>
        <time>2024-04-11T12:26:15.000Z</time>
      </trkpt>
      <trkpt lat="44.15365" lon="0.74316">
        <ele>71</ele>
        <time>2024-04-11T12:26:16.000Z</time>
      </trkpt>
      <trkpt lat="44.15366" lon="0.74315">
        <ele>71</ele>
        <time>2024-04-11T12:26:17.000Z</time>
      </trkpt>
      <trkpt lat="44.15367" lon="0.74314">
        <ele>72</ele>
        <time>2024-04-11T12:26:18.000Z</time>
      </trkpt>
      <trkpt lat="44.15367" lon="0.74314">
        <ele>72</ele>
        <time>2024-04-11T12:26:19.000Z</time>
      </trkpt>
      <trkpt lat="44.15368" lon="0.74313">
        <ele>72</ele>
        <time>2024-04-11T12:26:20.000Z</time>
      </trkpt>
      <trkpt lat="44.15369" lon="0.74312">
        <ele>72</ele>
        <time>2024-04-11T12:26:21.000Z</time>
      </trkpt>
      <trkpt lat="44.15369" lon="0.74311">
        <ele>72</ele>
        <time>2024-04-11T12:26:22.000Z</time>
      </trkpt>
      <trkpt lat="44.1537" lon="0.74309">
        <ele>72</ele>
        <time>2024-04-11T12:26:23.000Z</time>
      </trkpt>
      <trkpt lat="44.15371" lon="0.74308">
        <ele>73</ele>
        <time>2024-04-11T12:26:24.000Z</time>
      </trkpt>
      <trkpt lat="44.15371" lon="0.74307">
        <ele>73</ele>
        <time>2024-04-11T12:26:25.000Z</time>
      </trkpt>
      <trkpt lat="44.15372" lon="0.74306">
        <ele>74</ele>
        <time>2024-04-11T12:26:26.000Z</time>
      </trkpt>
      <trkpt lat="44.15372" lon="0.74305">
        <ele>74</ele>
        <time>2024-04-11T12:26:27.000Z</time>
      </trkpt>
      <trkpt lat="44.15373" lon="0.74304">
        <ele>74</ele>
        <time>2024-04-11T12:26:28.000Z</time>
      </trkpt>
      <trkpt lat="44.15373" lon="0.74303">
        <ele>74</ele>
        <time>2024-04-11T12:26:29.000Z</time>
      </trkpt>
      <trkpt lat="44.15373" lon="0.74302">
        <ele>74</ele>
        <time>2024-04-11T12:26:30.000Z</time>
      </trkpt>
      <trkpt lat="44.15374" lon="0.74301">
        <ele>75</ele>
        <time>2024-04-11T12:26:31.000Z</time>
      </trkpt>
      <trkpt lat="44.15374" lon="0.74299">
        <ele>75</ele>
        <time>2024-04-11T12:26:32.000Z</time>
      </trkpt>
      <trkpt lat="44.15375" lon="0.74298">
        <ele>74</ele>
        <time>2024-04-11T12:26:33.000Z</time>
      </trkpt>
      <trkpt lat="44.15375" lon="0.74297">
        <ele>75</ele>
        <time>2024-04-11T12:26:34.000Z</time>
      </trkpt>
      <trkpt lat="44.15375" lon="0.74296">
        <ele>75</ele>
        <time>2024-04-11T12:26:35.000Z</time>
      </trkpt>
      <trkpt lat="44.15376" lon="0.74295">
        <ele>75</ele>
        <time>2024-04-11T12:26:36.000Z</time>
      </trkpt>
      <trkpt lat="44.15376" lon="0.74293">
        <ele>75</ele>
        <time>2024-04-11T12:26:37.000Z</time>
      </trkpt>
      <trkpt lat="44.15377" lon="0.74292">
        <ele>75</ele>
        <time>2024-04-11T12:26:38.000Z</time>
      </trkpt>
      <trkpt lat="44.15377" lon="0.74291">
        <ele>75</ele>
        <time>2024-04-11T12:26:39.000Z</time>
      </trkpt>
      <trkpt lat="44.15378" lon="0.7429">
        <ele>75</ele>
        <time>2024-04-11T12:26:40.000Z</time>
      </trkpt>
      <trkpt lat="44.15378" lon="0.74289">
        <ele>75</ele>
        <time>2024-04-11T12:26:41.000Z</time>
      </trkpt>
      <trkpt lat="44.15378" lon="0.74288">
        <ele>74</ele>
        <time>2024-04-11T12:26:42.000Z</time>
      </trkpt>
      <trkpt lat="44.15379" lon="0.74287">
        <ele>75</ele>
        <time>2024-04-11T12:26:43.000Z</time>
      </trkpt>
      <trkpt lat="44.15379" lon="0.74286">
        <ele>74</ele>
        <time>2024-04-11T12:26:44.000Z</time>
      </trkpt>
      <trkpt lat="44.15379" lon="0.74285">
        <ele>74</ele>
        <time>2024-04-11T12:26:45.000Z</time>
      </trkpt>
      <trkpt lat="44.15379" lon="0.74284">
        <ele>74</ele>
        <time>2024-04-11T12:26:46.000Z</time>
      </trkpt>
      <trkpt lat="44.1538" lon="0.74282">
        <ele>74</ele>
        <time>2024-04-11T12:26:47.000Z</time>
      </trkpt>
      <trkpt lat="44.1538" lon="0.74281">
        <ele>75</ele>
        <time>2024-04-11T12:26:48.000Z</time>
      </trkpt>
      <trkpt lat="44.1538" lon="0.7428">
        <ele>75</ele>
        <time>2024-04-11T12:26:49.000Z</time>
      </trkpt>
      <trkpt lat="44.15381" lon="0.74279">
        <ele>75</ele>
        <time>2024-04-11T12:26:50.000Z</time>
      </trkpt>
      <trkpt lat="44.15381" lon="0.74278">
        <ele>74</ele>
        <time>2024-04-11T12:26:51.000Z</time>
      </trkpt>
      <trkpt lat="44.15382" lon="0.74276">
        <ele>74</ele>
        <time>2024-04-11T12:26:52.000Z</time>
      </trkpt>
      <trkpt lat="44.15382" lon="0.74275">
        <ele>75</ele>
        <time>2024-04-11T12:26:53.000Z</time>
      </trkpt>
      <trkpt lat="44.15383" lon="0.74274">
        <ele>74</ele>
        <time>2024-04-11T12:26:54.000Z</time>
      </trkpt>
      <trkpt lat="44.15383" lon="0.74273">
        <ele>74</ele>
        <time>2024-04-11T12:26:55.000Z</time>
      </trkpt>
      <trkpt lat="44.15383" lon="0.74273">
        <ele>75</ele>
        <time>2024-04-11T12:26:56.000Z</time>
      </trkpt>
      <trkpt lat="44.15383" lon="0.74272">
        <ele>75</ele>
        <time>2024-04-11T12:26:57.000Z</time>
      </trkpt>
      <trkpt lat="44.15383" lon="0.74272">
        <ele>75</ele>
        <time>2024-04-11T12:26:58.000Z</time>
      </trkpt>
      <trkpt lat="44.15384" lon="0.74272">
        <ele>75</ele>
        <time>2024-04-11T12:26:59.000Z</time>
      </trkpt>
      <trkpt lat="44.15384" lon="0.74272">
        <ele>76</ele>
        <time>2024-04-11T12:27:00.000Z</time>
      </trkpt>
      <trkpt lat="44.15384" lon="0.74272">
        <ele>76</ele>
        <time>2024-04-11T12:27:01.000Z</time>
      </trkpt>
      <trkpt lat="44.15384" lon="0.74272">
        <ele>76</ele>
        <time>2024-04-11T12:27:02.000Z</time>
      </trkpt>
      <trkpt lat="44.15384" lon="0.74272">
        <ele>76</ele>
        <time>2024-04-11T12:27:03.000Z</time>
      </trkpt>
      <trkpt lat="44.15384" lon="0.74272">
        <ele>76</ele>
        <time>2024-04-11T12:27:04.000Z</time>
      </trkpt>
      <trkpt lat="44.15384" lon="0.74272">
        <ele>77</ele>
        <time>2024-04-11T12:27:05.000Z</time>
      </trkpt>
      <trkpt lat="44.15385" lon="0.74272">
        <ele>77</ele>
        <time>2024-04-11T12:27:06.000Z</time>
      </trkpt>
      <trkpt lat="44.15385" lon="0.74272">
        <ele>77</ele>
        <time>2024-04-11T12:27:07.000Z</time>
      </trkpt>
      <trkpt lat="44.15385" lon="0.74272">
        <ele>76</ele>
        <time>2024-04-11T12:27:08.000Z</time>
      </trkpt>
      <trkpt lat="44.15385" lon="0.74272">
        <ele>76</ele>
        <time>2024-04-11T12:27:09.000Z</time>
      </trkpt>
      <trkpt lat="44.15385" lon="0.74272">
        <ele>76</ele>
        <time>2024-04-11T12:27:10.000Z</time>
      </trkpt>
      <trkpt lat="44.15386" lon="0.74272">
        <ele>76</ele>
        <time>2024-04-11T12:27:11.000Z</time>
      </trkpt>
      <trkpt lat="44.15386" lon="0.74271">
        <ele>76</ele>
        <time>2024-04-11T12:27:12.000Z</time>
      </trkpt>
      <trkpt lat="44.15386" lon="0.74271">
        <ele>75</ele>
        <time>2024-04-11T12:27:13.000Z</time>
      </trkpt>
      <trkpt lat="44.15386" lon="0.74271">
        <ele>75</ele>
        <time>2024-04-11T12:27:14.000Z</time>
      </trkpt>
      <trkpt lat="44.15386" lon="0.74271">
        <ele>75</ele>
        <time>2024-04-11T12:27:15.000Z</time>
      </trkpt>
      <trkpt lat="44.15386" lon="0.74271">
        <ele>76</ele>
        <time>2024-04-11T12:27:16.000Z</time>
      </trkpt>
      <trkpt lat="44.15387" lon="0.74271">
        <ele>75</ele>
        <time>2024-04-11T12:27:17.000Z</time>
      </trkpt>
      <trkpt lat="44.15387" lon="0.74271">
        <ele>75</ele>
        <time>2024-04-11T12:27:18.000Z</time>
      </trkpt>
      <trkpt lat="44.15387" lon="0.7427">
        <ele>75</ele>
        <time>2024-04-11T12:27:19.000Z</time>
      </trkpt>
      <trkpt lat="44.15388" lon="0.7427">
        <ele>75</ele>
        <time>2024-04-11T12:27:20.000Z</time>
      </trkpt>
      <trkpt lat="44.15388" lon="0.7427">
        <ele>75</ele>
        <time>2024-04-11T12:27:21.000Z</time>
      </trkpt>
      <trkpt lat="44.15389" lon="0.74269">
        <ele>74</ele>
        <time>2024-04-11T12:27:22.000Z</time>
      </trkpt>
      <trkpt lat="44.15389" lon="0.74269">
        <ele>74</ele>
        <time>2024-04-11T12:27:23.000Z</time>
      </trkpt>
      <trkpt lat="44.15389" lon="0.74269">
        <ele>74</ele>
        <time>2024-04-11T12:27:24.000Z</time>
      </trkpt>
      <trkpt lat="44.1539" lon="0.74268">
        <ele>74</ele>
        <time>2024-04-11T12:27:25.000Z</time>
      </trkpt>
      <trkpt lat="44.1539" lon="0.74268">
        <ele>74</ele>
        <time>2024-04-11T12:27:26.000Z</time>
      </trkpt>
      <trkpt lat="44.1539" lon="0.74268">
        <ele>74</ele>
        <time>2024-04-11T12:27:27.000Z</time>
      </trkpt>
      <trkpt lat="44.1539" lon="0.74267">
        <ele>74</ele>
        <time>2024-04-11T12:27:28.000Z</time>
      </trkpt>
      <trkpt lat="44.1539" lon="0.74267">
        <ele>74</ele>
        <time>2024-04-11T12:27:29.000Z</time>
      </trkpt>
      <trkpt lat="44.1539" lon="0.74267">
        <ele>74</ele>
        <time>2024-04-11T12:27:30.000Z</time>
      </trkpt>
      <trkpt lat="44.1539" lon="0.74266">
        <ele>74</ele>
        <time>2024-04-11T12:27:31.000Z</time>
      </trkpt>
      <trkpt lat="44.1539" lon="0.74266">
        <ele>74</ele>
        <time>2024-04-11T12:27:32.000Z</time>
      </trkpt>
      <trkpt lat="44.1539" lon="0.74266">
        <ele>74</ele>
        <time>2024-04-11T12:27:33.000Z</time>
      </trkpt>
      <trkpt lat="44.1539" lon="0.74266">
        <ele>74</ele>
        <time>2024-04-11T12:27:34.000Z</time>
      </trkpt>
      <trkpt lat="44.1539" lon="0.74266">
        <ele>74</ele>
        <time>2024-04-11T12:27:35.000Z</time>
      </trkpt>
      <trkpt lat="44.1539" lon="0.74265">
        <ele>74</ele>
        <time>2024-04-11T12:27:36.000Z</time>
      </trkpt>
      <trkpt lat="44.1539" lon="0.74264">
        <ele>74</ele>
        <time>2024-04-11T12:27:37.000Z</time>
      </trkpt>
      <trkpt lat="44.15389" lon="0.74264">
        <ele>74</ele>
        <time>2024-04-11T12:27:38.000Z</time>
      </trkpt>
      <trkpt lat="44.15389" lon="0.74263">
        <ele>73</ele>
        <time>2024-04-11T12:27:39.000Z</time>
      </trkpt>
      <trkpt lat="44.15389" lon="0.74263">
        <ele>73</ele>
        <time>2024-04-11T12:27:40.000Z</time>
      </trkpt>
      <trkpt lat="44.15389" lon="0.74263">
        <ele>73</ele>
        <time>2024-04-11T12:27:41.000Z</time>
      </trkpt>
      <trkpt lat="44.15389" lon="0.74263">
        <ele>73</ele>
        <time>2024-04-11T12:27:42.000Z</time>
      </trkpt>
      <trkpt lat="44.15389" lon="0.74263">
        <ele>73</ele>
        <time>2024-04-11T12:27:43.000Z</time>
      </trkpt>
      <trkpt lat="44.15389" lon="0.74263">
        <ele>73</ele>
        <time>2024-04-11T12:27:44.000Z</time>
      </trkpt>
      <trkpt lat="44.15389" lon="0.74263">
        <ele>73</ele>
        <time>2024-04-11T12:27:45.000Z</time>
      </trkpt>
      <trkpt lat="44.15389" lon="0.74263">
        <ele>73</ele>
        <time>2024-04-11T12:27:46.000Z</time>
      </trkpt>
      <trkpt lat="44.15389" lon="0.74263">
        <ele>73</ele>
        <time>2024-04-11T12:27:47.000Z</time>
      </trkpt>
      <trkpt lat="44.15389" lon="0.74263">
        <ele>73</ele>
        <time>2024-04-11T12:27:48.000Z</time>
      </trkpt>
      <trkpt lat="44.15389" lon="0.74263">
        <ele>73</ele>
        <time>2024-04-11T12:27:49.000Z</time>
      </trkpt>
      <trkpt lat="44.15389" lon="0.74263">
        <ele>73</ele>
        <time>2024-04-11T12:27:50.000Z</time>
      </trkpt>
      <trkpt lat="44.15389" lon="0.74263">
        <ele>73</ele>
        <time>2024-04-11T12:27:51.000Z</time>
      </trkpt>
      <trkpt lat="44.15389" lon="0.74263">
        <ele>73</ele>
        <time>2024-04-11T12:27:52.000Z</time>
      </trkpt>
      <trkpt lat="44.15389" lon="0.74263">
        <ele>73</ele>
        <time>2024-04-11T12:27:53.000Z</time>
      </trkpt>
      <trkpt lat="44.15389" lon="0.74263">
        <ele>74</ele>
        <time>2024-04-11T12:27:54.000Z</time>
      </trkpt>
      <trkpt lat="44.1539" lon="0.74263">
        <ele>74</ele>
        <time>2024-04-11T12:27:55.000Z</time>
      </trkpt>
      <trkpt lat="44.1539" lon="0.74263">
        <ele>74</ele>
        <time>2024-04-11T12:27:56.000Z</time>
      </trkpt>
      <trkpt lat="44.1539" lon="0.74263">
        <ele>74</ele>
        <time>2024-04-11T12:27:57.000Z</time>
      </trkpt>
      <trkpt lat="44.1539" lon="0.74263">
        <ele>74</ele>
        <time>2024-04-11T12:27:58.000Z</time>
      </trkpt>
      <trkpt lat="44.1539" lon="0.74263">
        <ele>73</ele>
        <time>2024-04-11T12:27:59.000Z</time>
      </trkpt>
      <trkpt lat="44.15391" lon="0.74263">
        <ele>73</ele>
        <time>2024-04-11T12:28:00.000Z</time>
      </trkpt>
      <trkpt lat="44.15391" lon="0.74263">
        <ele>73</ele>
        <time>2024-04-11T12:28:01.000Z</time>
      </trkpt>
      <trkpt lat="44.15391" lon="0.74263">
        <ele>73</ele>
        <time>2024-04-11T12:28:02.000Z</time>
      </trkpt>
      <trkpt lat="44.15391" lon="0.74263">
        <ele>73</ele>
        <time>2024-04-11T12:28:03.000Z</time>
      </trkpt>
      <trkpt lat="44.15391" lon="0.74263">
        <ele>73</ele>
        <time>2024-04-11T12:28:04.000Z</time>
      </trkpt>
      <trkpt lat="44.15391" lon="0.74262">
        <ele>72</ele>
        <time>2024-04-11T12:28:05.000Z</time>
      </trkpt>
      <trkpt lat="44.15391" lon="0.74262">
        <ele>72</ele>
        <time>2024-04-11T12:28:06.000Z</time>
      </trkpt>
      <trkpt lat="44.15391" lon="0.74261">
        <ele>72</ele>
        <time>2024-04-11T12:28:07.000Z</time>
      </trkpt>
      <trkpt lat="44.15391" lon="0.74261">
        <ele>72</ele>
        <time>2024-04-11T12:28:08.000Z</time>
      </trkpt>
      <trkpt lat="44.15391" lon="0.7426">
        <ele>72</ele>
        <time>2024-04-11T12:28:09.000Z</time>
      </trkpt>
      <trkpt lat="44.15391" lon="0.7426">
        <ele>72</ele>
        <time>2024-04-11T12:28:10.000Z</time>
      </trkpt>
      <trkpt lat="44.15392" lon="0.7426">
        <ele>72</ele>
        <time>2024-04-11T12:28:11.000Z</time>
      </trkpt>
      <trkpt lat="44.15392" lon="0.7426">
        <ele>72</ele>
        <time>2024-04-11T12:28:12.000Z</time>
      </trkpt>
      <trkpt lat="44.15392" lon="0.7426">
        <ele>73</ele>
        <time>2024-04-11T12:28:13.000Z</time>
      </trkpt>
      <trkpt lat="44.15392" lon="0.7426">
        <ele>73</ele>
        <time>2024-04-11T12:28:14.000Z</time>
      </trkpt>
      <trkpt lat="44.15392" lon="0.74259">
        <ele>73</ele>
        <time>2024-04-11T12:28:15.000Z</time>
      </trkpt>
      <trkpt lat="44.15392" lon="0.74259">
        <ele>73</ele>
        <time>2024-04-11T12:28:16.000Z</time>
      </trkpt>
      <trkpt lat="44.15392" lon="0.74259">
        <ele>74</ele>
        <time>2024-04-11T12:28:17.000Z</time>
      </trkpt>
      <trkpt lat="44.15392" lon="0.74259">
        <ele>73</ele>
        <time>2024-04-11T12:28:18.000Z</time>
      </trkpt>
      <trkpt lat="44.15392" lon="0.74259">
        <ele>73</ele>
        <time>2024-04-11T12:28:19.000Z</time>
      </trkpt>
      <trkpt lat="44.15392" lon="0.74258">
        <ele>73</ele>
        <time>2024-04-11T12:28:20.000Z</time>
      </trkpt>
      <trkpt lat="44.15392" lon="0.74258">
        <ele>73</ele>
        <time>2024-04-11T12:28:21.000Z</time>
      </trkpt>
      <trkpt lat="44.15391" lon="0.74257">
        <ele>72</ele>
        <time>2024-04-11T12:28:22.000Z</time>
      </trkpt>
      <trkpt lat="44.15391" lon="0.74257">
        <ele>72</ele>
        <time>2024-04-11T12:28:23.000Z</time>
      </trkpt>
      <trkpt lat="44.15391" lon="0.74256">
        <ele>72</ele>
        <time>2024-04-11T12:28:24.000Z</time>
      </trkpt>
      <trkpt lat="44.15391" lon="0.74256">
        <ele>73</ele>
        <time>2024-04-11T12:28:25.000Z</time>
      </trkpt>
      <trkpt lat="44.15391" lon="0.74256">
        <ele>73</ele>
        <time>2024-04-11T12:28:26.000Z</time>
      </trkpt>
      <trkpt lat="44.1539" lon="0.74256">
        <ele>73</ele>
        <time>2024-04-11T12:28:27.000Z</time>
      </trkpt>
      <trkpt lat="44.1539" lon="0.74256">
        <ele>73</ele>
        <time>2024-04-11T12:28:28.000Z</time>
      </trkpt>
      <trkpt lat="44.1539" lon="0.74256">
        <ele>73</ele>
        <time>2024-04-11T12:28:29.000Z</time>
      </trkpt>
      <trkpt lat="44.1539" lon="0.74256">
        <ele>73</ele>
        <time>2024-04-11T12:28:30.000Z</time>
      </trkpt>
      <trkpt lat="44.1539" lon="0.74256">
        <ele>73</ele>
        <time>2024-04-11T12:28:31.000Z</time>
      </trkpt>
      <trkpt lat="44.1539" lon="0.74256">
        <ele>73</ele>
        <time>2024-04-11T12:28:32.000Z</time>
      </trkpt>
      <trkpt lat="44.15389" lon="0.74256">
        <ele>73</ele>
        <time>2024-04-11T12:28:33.000Z</time>
      </trkpt>
      <trkpt lat="44.15389" lon="0.74256">
        <ele>73</ele>
        <time>2024-04-11T12:28:34.000Z</time>
      </trkpt>
      <trkpt lat="44.15389" lon="0.74256">
        <ele>73</ele>
        <time>2024-04-11T12:28:35.000Z</time>
      </trkpt>
      <trkpt lat="44.15389" lon="0.74256">
        <ele>74</ele>
        <time>2024-04-11T12:28:36.000Z</time>
      </trkpt>
      <trkpt lat="44.15389" lon="0.74256">
        <ele>74</ele>
        <time>2024-04-11T12:28:37.000Z</time>
      </trkpt>
      <trkpt lat="44.15388" lon="0.74256">
        <ele>73</ele>
        <time>2024-04-11T12:28:38.000Z</time>
      </trkpt>
      <trkpt lat="44.15388" lon="0.74256">
        <ele>73</ele>
        <time>2024-04-11T12:28:39.000Z</time>
      </trkpt>
      <trkpt lat="44.15388" lon="0.74257">
        <ele>74</ele>
        <time>2024-04-11T12:28:40.000Z</time>
      </trkpt>
      <trkpt lat="44.15388" lon="0.74257">
        <ele>73</ele>
        <time>2024-04-11T12:28:41.000Z</time>
      </trkpt>
      <trkpt lat="44.15387" lon="0.74257">
        <ele>73</ele>
        <time>2024-04-11T12:28:42.000Z</time>
      </trkpt>
      <trkpt lat="44.15387" lon="0.74257">
        <ele>73</ele>
        <time>2024-04-11T12:28:43.000Z</time>
      </trkpt>
      <trkpt lat="44.15387" lon="0.74257">
        <ele>73</ele>
        <time>2024-04-11T12:28:44.000Z</time>
      </trkpt>
      <trkpt lat="44.15387" lon="0.74256">
        <ele>73</ele>
        <time>2024-04-11T12:28:45.000Z</time>
      </trkpt>
      <trkpt lat="44.15387" lon="0.74256">
        <ele>73</ele>
        <time>2024-04-11T12:28:46.000Z</time>
      </trkpt>
      <trkpt lat="44.15387" lon="0.74256">
        <ele>73</ele>
        <time>2024-04-11T12:28:47.000Z</time>
      </trkpt>
      <trkpt lat="44.15387" lon="0.74256">
        <ele>73</ele>
        <time>2024-04-11T12:28:48.000Z</time>
      </trkpt>
      <trkpt lat="44.15387" lon="0.74256">
        <ele>72</ele>
        <time>2024-04-11T12:28:49.000Z</time>
      </trkpt>
      <trkpt lat="44.15387" lon="0.74255">
        <ele>73</ele>
        <time>2024-04-11T12:28:50.000Z</time>
      </trkpt>
      <trkpt lat="44.15387" lon="0.74254">
        <ele>73</ele>
        <time>2024-04-11T12:28:51.000Z</time>
      </trkpt>
      <trkpt lat="44.15387" lon="0.74253">
        <ele>73</ele>
        <time>2024-04-11T12:28:52.000Z</time>
      </trkpt>
      <trkpt lat="44.15387" lon="0.74252">
        <ele>73</ele>
        <time>2024-04-11T12:28:53.000Z</time>
      </trkpt>
      <trkpt lat="44.15387" lon="0.74251">
        <ele>73</ele>
        <time>2024-04-11T12:28:54.000Z</time>
      </trkpt>
      <trkpt lat="44.15387" lon="0.7425">
        <ele>73</ele>
        <time>2024-04-11T12:28:55.000Z</time>
      </trkpt>
      <trkpt lat="44.15388" lon="0.74249">
        <ele>72</ele>
        <time>2024-04-11T12:28:56.000Z</time>
      </trkpt>
      <trkpt lat="44.15388" lon="0.74248">
        <ele>72</ele>
        <time>2024-04-11T12:28:57.000Z</time>
      </trkpt>
      <trkpt lat="44.15388" lon="0.74247">
        <ele>72</ele>
        <time>2024-04-11T12:28:58.000Z</time>
      </trkpt>
      <trkpt lat="44.15388" lon="0.74246">
        <ele>73</ele>
        <time>2024-04-11T12:28:59.000Z</time>
      </trkpt>
      <trkpt lat="44.15388" lon="0.74244">
        <ele>73</ele>
        <time>2024-04-11T12:29:00.000Z</time>
      </trkpt>
      <trkpt lat="44.15389" lon="0.74243">
        <ele>73</ele>
        <time>2024-04-11T12:29:01.000Z</time>
      </trkpt>
      <trkpt lat="44.15389" lon="0.74241">
        <ele>73</ele>
        <time>2024-04-11T12:29:02.000Z</time>
      </trkpt>
      <trkpt lat="44.15389" lon="0.7424">
        <ele>73</ele>
        <time>2024-04-11T12:29:03.000Z</time>
      </trkpt>
      <trkpt lat="44.15389" lon="0.74238">
        <ele>73</ele>
        <time>2024-04-11T12:29:04.000Z</time>
      </trkpt>
      <trkpt lat="44.15389" lon="0.74237">
        <ele>73</ele>
        <time>2024-04-11T12:29:05.000Z</time>
      </trkpt>
      <trkpt lat="44.1539" lon="0.74235">
        <ele>73</ele>
        <time>2024-04-11T12:29:06.000Z</time>
      </trkpt>
      <trkpt lat="44.1539" lon="0.74234">
        <ele>73</ele>
        <time>2024-04-11T12:29:07.000Z</time>
      </trkpt>
      <trkpt lat="44.1539" lon="0.74233">
        <ele>73</ele>
        <time>2024-04-11T12:29:08.000Z</time>
      </trkpt>
      <trkpt lat="44.1539" lon="0.74231">
        <ele>73</ele>
        <time>2024-04-11T12:29:09.000Z</time>
      </trkpt>
      <trkpt lat="44.1539" lon="0.7423">
        <ele>73</ele>
        <time>2024-04-11T12:29:10.000Z</time>
      </trkpt>
      <trkpt lat="44.1539" lon="0.74228">
        <ele>73</ele>
        <time>2024-04-11T12:29:11.000Z</time>
      </trkpt>
      <trkpt lat="44.1539" lon="0.74227">
        <ele>74</ele>
        <time>2024-04-11T12:29:12.000Z</time>
      </trkpt>
      <trkpt lat="44.1539" lon="0.74225">
        <ele>74</ele>
        <time>2024-04-11T12:29:13.000Z</time>
      </trkpt>
      <trkpt lat="44.1539" lon="0.74224">
        <ele>74</ele>
        <time>2024-04-11T12:29:14.000Z</time>
      </trkpt>
      <trkpt lat="44.1539" lon="0.74223">
        <ele>74</ele>
        <time>2024-04-11T12:29:15.000Z</time>
      </trkpt>
      <trkpt lat="44.1539" lon="0.74221">
        <ele>74</ele>
        <time>2024-04-11T12:29:16.000Z</time>
      </trkpt>
      <trkpt lat="44.15391" lon="0.7422">
        <ele>74</ele>
        <time>2024-04-11T12:29:17.000Z</time>
      </trkpt>
      <trkpt lat="44.15391" lon="0.74219">
        <ele>75</ele>
        <time>2024-04-11T12:29:18.000Z</time>
      </trkpt>
      <trkpt lat="44.15391" lon="0.74218">
        <ele>75</ele>
        <time>2024-04-11T12:29:19.000Z</time>
      </trkpt>
      <trkpt lat="44.15391" lon="0.74217">
        <ele>76</ele>
        <time>2024-04-11T12:29:20.000Z</time>
      </trkpt>
      <trkpt lat="44.15392" lon="0.74216">
        <ele>76</ele>
        <time>2024-04-11T12:29:21.000Z</time>
      </trkpt>
      <trkpt lat="44.15392" lon="0.74215">
        <ele>76</ele>
        <time>2024-04-11T12:29:22.000Z</time>
      </trkpt>
      <trkpt lat="44.15392" lon="0.74213">
        <ele>76</ele>
        <time>2024-04-11T12:29:23.000Z</time>
      </trkpt>
      <trkpt lat="44.15393" lon="0.74213">
        <ele>77</ele>
        <time>2024-04-11T12:29:24.000Z</time>
      </trkpt>
      <trkpt lat="44.15393" lon="0.74212">
        <ele>78</ele>
        <time>2024-04-11T12:29:25.000Z</time>
      </trkpt>
      <trkpt lat="44.15393" lon="0.74211">
        <ele>78</ele>
        <time>2024-04-11T12:29:26.000Z</time>
      </trkpt>
      <trkpt lat="44.15394" lon="0.7421">
        <ele>79</ele>
        <time>2024-04-11T12:29:27.000Z</time>
      </trkpt>
      <trkpt lat="44.15394" lon="0.74209">
        <ele>79</ele>
        <time>2024-04-11T12:29:28.000Z</time>
      </trkpt>
      <trkpt lat="44.15395" lon="0.74208">
        <ele>80</ele>
        <time>2024-04-11T12:29:29.000Z</time>
      </trkpt>
      <trkpt lat="44.15395" lon="0.74208">
        <ele>80</ele>
        <time>2024-04-11T12:29:30.000Z</time>
      </trkpt>
      <trkpt lat="44.15396" lon="0.74207">
        <ele>81</ele>
        <time>2024-04-11T12:29:31.000Z</time>
      </trkpt>
      <trkpt lat="44.15396" lon="0.74206">
        <ele>82</ele>
        <time>2024-04-11T12:29:32.000Z</time>
      </trkpt>
      <trkpt lat="44.15397" lon="0.74205">
        <ele>81</ele>
        <time>2024-04-11T12:29:33.000Z</time>
      </trkpt>
      <trkpt lat="44.15397" lon="0.74203">
        <ele>81</ele>
        <time>2024-04-11T12:29:34.000Z</time>
      </trkpt>
      <trkpt lat="44.15398" lon="0.74201">
        <ele>80</ele>
        <time>2024-04-11T12:29:35.000Z</time>
      </trkpt>
      <trkpt lat="44.15398" lon="0.74199">
        <ele>80</ele>
        <time>2024-04-11T12:29:36.000Z</time>
      </trkpt>
      <trkpt lat="44.15398" lon="0.74198">
        <ele>80</ele>
        <time>2024-04-11T12:29:37.000Z</time>
      </trkpt>
      <trkpt lat="44.15399" lon="0.74196">
        <ele>79</ele>
        <time>2024-04-11T12:29:38.000Z</time>
      </trkpt>
      <trkpt lat="44.15399" lon="0.74194">
        <ele>79</ele>
        <time>2024-04-11T12:29:39.000Z</time>
      </trkpt>
      <trkpt lat="44.15399" lon="0.74192">
        <ele>79</ele>
        <time>2024-04-11T12:29:40.000Z</time>
      </trkpt>
      <trkpt lat="44.15399" lon="0.74191">
        <ele>79</ele>
        <time>2024-04-11T12:29:41.000Z</time>
      </trkpt>
      <trkpt lat="44.154" lon="0.74189">
        <ele>79</ele>
        <time>2024-04-11T12:29:42.000Z</time>
      </trkpt>
      <trkpt lat="44.154" lon="0.74188">
        <ele>79</ele>
        <time>2024-04-11T12:29:43.000Z</time>
      </trkpt>
      <trkpt lat="44.15401" lon="0.74187">
        <ele>79</ele>
        <time>2024-04-11T12:29:44.000Z</time>
      </trkpt>
      <trkpt lat="44.15401" lon="0.74185">
        <ele>79</ele>
        <time>2024-04-11T12:29:45.000Z</time>
      </trkpt>
      <trkpt lat="44.15402" lon="0.74184">
        <ele>79</ele>
        <time>2024-04-11T12:29:46.000Z</time>
      </trkpt>
      <trkpt lat="44.15402" lon="0.74182">
        <ele>79</ele>
        <time>2024-04-11T12:29:47.000Z</time>
      </trkpt>
      <trkpt lat="44.15402" lon="0.7418">
        <ele>79</ele>
        <time>2024-04-11T12:29:48.000Z</time>
      </trkpt>
      <trkpt lat="44.15403" lon="0.74179">
        <ele>78</ele>
        <time>2024-04-11T12:29:49.000Z</time>
      </trkpt>
      <trkpt lat="44.15404" lon="0.74177">
        <ele>78</ele>
        <time>2024-04-11T12:29:50.000Z</time>
      </trkpt>
      <trkpt lat="44.15404" lon="0.74176">
        <ele>77</ele>
        <time>2024-04-11T12:29:51.000Z</time>
      </trkpt>
      <trkpt lat="44.15405" lon="0.74174">
        <ele>76</ele>
        <time>2024-04-11T12:29:52.000Z</time>
      </trkpt>
      <trkpt lat="44.15406" lon="0.74173">
        <ele>76</ele>
        <time>2024-04-11T12:29:53.000Z</time>
      </trkpt>
      <trkpt lat="44.15407" lon="0.74172">
        <ele>75</ele>
        <time>2024-04-11T12:29:54.000Z</time>
      </trkpt>
      <trkpt lat="44.15408" lon="0.74172">
        <ele>74</ele>
        <time>2024-04-11T12:29:55.000Z</time>
      </trkpt>
      <trkpt lat="44.1541" lon="0.74171">
        <ele>73</ele>
        <time>2024-04-11T12:29:56.000Z</time>
      </trkpt>
      <trkpt lat="44.15411" lon="0.74171">
        <ele>73</ele>
        <time>2024-04-11T12:29:57.000Z</time>
      </trkpt>
      <trkpt lat="44.15412" lon="0.74171">
        <ele>71</ele>
        <time>2024-04-11T12:29:58.000Z</time>
      </trkpt>
      <trkpt lat="44.15414" lon="0.74172">
        <ele>72</ele>
        <time>2024-04-11T12:29:59.000Z</time>
      </trkpt>
      <trkpt lat="44.15415" lon="0.74172">
        <ele>72</ele>
        <time>2024-04-11T12:30:00.000Z</time>
      </trkpt>
      <trkpt lat="44.15416" lon="0.74173">
        <ele>73</ele>
        <time>2024-04-11T12:30:01.000Z</time>
      </trkpt>
      <trkpt lat="44.15417" lon="0.74173">
        <ele>72</ele>
        <time>2024-04-11T12:30:02.000Z</time>
      </trkpt>
      <trkpt lat="44.15418" lon="0.74174">
        <ele>72</ele>
        <time>2024-04-11T12:30:03.000Z</time>
      </trkpt>
      <trkpt lat="44.1542" lon="0.74174">
        <ele>72</ele>
        <time>2024-04-11T12:30:04.000Z</time>
      </trkpt>
      <trkpt lat="44.15421" lon="0.74175">
        <ele>72</ele>
        <time>2024-04-11T12:30:05.000Z</time>
      </trkpt>
      <trkpt lat="44.15421" lon="0.74175">
        <ele>72</ele>
        <time>2024-04-11T12:30:06.000Z</time>
      </trkpt>
      <trkpt lat="44.15422" lon="0.74176">
        <ele>73</ele>
        <time>2024-04-11T12:30:07.000Z</time>
      </trkpt>
      <trkpt lat="44.15423" lon="0.74177">
        <ele>73</ele>
        <time>2024-04-11T12:30:08.000Z</time>
      </trkpt>
      <trkpt lat="44.15424" lon="0.74178">
        <ele>73</ele>
        <time>2024-04-11T12:30:09.000Z</time>
      </trkpt>
      <trkpt lat="44.15424" lon="0.74179">
        <ele>73</ele>
        <time>2024-04-11T12:30:10.000Z</time>
      </trkpt>
      <trkpt lat="44.15425" lon="0.7418">
        <ele>73</ele>
        <time>2024-04-11T12:30:11.000Z</time>
      </trkpt>
      <trkpt lat="44.15426" lon="0.74181">
        <ele>74</ele>
        <time>2024-04-11T12:30:12.000Z</time>
      </trkpt>
      <trkpt lat="44.15427" lon="0.74183">
        <ele>73</ele>
        <time>2024-04-11T12:30:13.000Z</time>
      </trkpt>
      <trkpt lat="44.15427" lon="0.74184">
        <ele>73</ele>
        <time>2024-04-11T12:30:14.000Z</time>
      </trkpt>
      <trkpt lat="44.15428" lon="0.74185">
        <ele>73</ele>
        <time>2024-04-11T12:30:15.000Z</time>
      </trkpt>
      <trkpt lat="44.15429" lon="0.74186">
        <ele>73</ele>
        <time>2024-04-11T12:30:16.000Z</time>
      </trkpt>
      <trkpt lat="44.1543" lon="0.74187">
        <ele>73</ele>
        <time>2024-04-11T12:30:17.000Z</time>
      </trkpt>
      <trkpt lat="44.15431" lon="0.74188">
        <ele>73</ele>
        <time>2024-04-11T12:30:18.000Z</time>
      </trkpt>
      <trkpt lat="44.15431" lon="0.74189">
        <ele>73</ele>
        <time>2024-04-11T12:30:19.000Z</time>
      </trkpt>
      <trkpt lat="44.15432" lon="0.74189">
        <ele>73</ele>
        <time>2024-04-11T12:30:20.000Z</time>
      </trkpt>
      <trkpt lat="44.15433" lon="0.7419">
        <ele>73</ele>
        <time>2024-04-11T12:30:21.000Z</time>
      </trkpt>
      <trkpt lat="44.15434" lon="0.74191">
        <ele>73</ele>
        <time>2024-04-11T12:30:22.000Z</time>
      </trkpt>
      <trkpt lat="44.15435" lon="0.74192">
        <ele>73</ele>
        <time>2024-04-11T12:30:23.000Z</time>
      </trkpt>
      <trkpt lat="44.15436" lon="0.74194">
        <ele>73</ele>
        <time>2024-04-11T12:30:24.000Z</time>
      </trkpt>
      <trkpt lat="44.15437" lon="0.74195">
        <ele>73</ele>
        <time>2024-04-11T12:30:25.000Z</time>
      </trkpt>
      <trkpt lat="44.15438" lon="0.74196">
        <ele>73</ele>
        <time>2024-04-11T12:30:26.000Z</time>
      </trkpt>
      <trkpt lat="44.15439" lon="0.74197">
        <ele>74</ele>
        <time>2024-04-11T12:30:27.000Z</time>
      </trkpt>
      <trkpt lat="44.1544" lon="0.74198">
        <ele>74</ele>
        <time>2024-04-11T12:30:28.000Z</time>
      </trkpt>
      <trkpt lat="44.15441" lon="0.74199">
        <ele>74</ele>
        <time>2024-04-11T12:30:29.000Z</time>
      </trkpt>
      <trkpt lat="44.15442" lon="0.74199">
        <ele>75</ele>
        <time>2024-04-11T12:30:30.000Z</time>
      </trkpt>
      <trkpt lat="44.15442" lon="0.742">
        <ele>75</ele>
        <time>2024-04-11T12:30:31.000Z</time>
      </trkpt>
      <trkpt lat="44.15443" lon="0.74201">
        <ele>75</ele>
        <time>2024-04-11T12:30:32.000Z</time>
      </trkpt>
      <trkpt lat="44.15444" lon="0.74202">
        <ele>75</ele>
        <time>2024-04-11T12:30:33.000Z</time>
      </trkpt>
      <trkpt lat="44.15445" lon="0.74203">
        <ele>76</ele>
        <time>2024-04-11T12:30:34.000Z</time>
      </trkpt>
      <trkpt lat="44.15446" lon="0.74204">
        <ele>76</ele>
        <time>2024-04-11T12:30:35.000Z</time>
      </trkpt>
      <trkpt lat="44.15447" lon="0.74205">
        <ele>76</ele>
        <time>2024-04-11T12:30:36.000Z</time>
      </trkpt>
      <trkpt lat="44.15448" lon="0.74206">
        <ele>76</ele>
        <time>2024-04-11T12:30:37.000Z</time>
      </trkpt>
      <trkpt lat="44.15449" lon="0.74207">
        <ele>76</ele>
        <time>2024-04-11T12:30:38.000Z</time>
      </trkpt>
      <trkpt lat="44.15449" lon="0.74208">
        <ele>76</ele>
        <time>2024-04-11T12:30:39.000Z</time>
      </trkpt>
      <trkpt lat="44.1545" lon="0.74209">
        <ele>76</ele>
        <time>2024-04-11T12:30:40.000Z</time>
      </trkpt>
      <trkpt lat="44.15451" lon="0.74211">
        <ele>77</ele>
        <time>2024-04-11T12:30:41.000Z</time>
      </trkpt>
      <trkpt lat="44.15451" lon="0.74212">
        <ele>77</ele>
        <time>2024-04-11T12:30:42.000Z</time>
      </trkpt>
      <trkpt lat="44.15451" lon="0.74213">
        <ele>77</ele>
        <time>2024-04-11T12:30:43.000Z</time>
      </trkpt>
      <trkpt lat="44.15451" lon="0.74215">
        <ele>77</ele>
        <time>2024-04-11T12:30:44.000Z</time>
      </trkpt>
      <trkpt lat="44.15451" lon="0.74216">
        <ele>77</ele>
        <time>2024-04-11T12:30:45.000Z</time>
      </trkpt>
      <trkpt lat="44.15452" lon="0.74218">
        <ele>77</ele>
        <time>2024-04-11T12:30:46.000Z</time>
      </trkpt>
      <trkpt lat="44.15452" lon="0.74219">
        <ele>77</ele>
        <time>2024-04-11T12:30:47.000Z</time>
      </trkpt>
      <trkpt lat="44.15451" lon="0.74221">
        <ele>76</ele>
        <time>2024-04-11T12:30:48.000Z</time>
      </trkpt>
      <trkpt lat="44.15451" lon="0.74222">
        <ele>77</ele>
        <time>2024-04-11T12:30:49.000Z</time>
      </trkpt>
      <trkpt lat="44.15451" lon="0.74224">
        <ele>77</ele>
        <time>2024-04-11T12:30:50.000Z</time>
      </trkpt>
      <trkpt lat="44.1545" lon="0.74226">
        <ele>77</ele>
        <time>2024-04-11T12:30:51.000Z</time>
      </trkpt>
      <trkpt lat="44.1545" lon="0.74227">
        <ele>77</ele>
        <time>2024-04-11T12:30:52.000Z</time>
      </trkpt>
      <trkpt lat="44.1545" lon="0.74229">
        <ele>77</ele>
        <time>2024-04-11T12:30:53.000Z</time>
      </trkpt>
      <trkpt lat="44.15449" lon="0.7423">
        <ele>77</ele>
        <time>2024-04-11T12:30:54.000Z</time>
      </trkpt>
      <trkpt lat="44.15449" lon="0.74232">
        <ele>77</ele>
        <time>2024-04-11T12:30:55.000Z</time>
      </trkpt>
      <trkpt lat="44.15449" lon="0.74234">
        <ele>77</ele>
        <time>2024-04-11T12:30:56.000Z</time>
      </trkpt>
      <trkpt lat="44.15449" lon="0.74235">
        <ele>77</ele>
        <time>2024-04-11T12:30:57.000Z</time>
      </trkpt>
      <trkpt lat="44.15448" lon="0.74236">
        <ele>77</ele>
        <time>2024-04-11T12:30:58.000Z</time>
      </trkpt>
      <trkpt lat="44.15448" lon="0.74238">
        <ele>77</ele>
        <time>2024-04-11T12:30:59.000Z</time>
      </trkpt>
      <trkpt lat="44.15448" lon="0.74239">
        <ele>77</ele>
        <time>2024-04-11T12:31:00.000Z</time>
      </trkpt>
      <trkpt lat="44.15447" lon="0.74241">
        <ele>77</ele>
        <time>2024-04-11T12:31:01.000Z</time>
      </trkpt>
      <trkpt lat="44.15447" lon="0.74242">
        <ele>77</ele>
        <time>2024-04-11T12:31:02.000Z</time>
      </trkpt>
      <trkpt lat="44.15447" lon="0.74244">
        <ele>77</ele>
        <time>2024-04-11T12:31:03.000Z</time>
      </trkpt>
      <trkpt lat="44.15446" lon="0.74246">
        <ele>77</ele>
        <time>2024-04-11T12:31:04.000Z</time>
      </trkpt>
      <trkpt lat="44.15446" lon="0.74247">
        <ele>76</ele>
        <time>2024-04-11T12:31:05.000Z</time>
      </trkpt>
      <trkpt lat="44.15446" lon="0.74249">
        <ele>76</ele>
        <time>2024-04-11T12:31:06.000Z</time>
      </trkpt>
      <trkpt lat="44.15446" lon="0.7425">
        <ele>76</ele>
        <time>2024-04-11T12:31:07.000Z</time>
      </trkpt>
      <trkpt lat="44.15446" lon="0.74252">
        <ele>76</ele>
        <time>2024-04-11T12:31:08.000Z</time>
      </trkpt>
      <trkpt lat="44.15446" lon="0.74254">
        <ele>76</ele>
        <time>2024-04-11T12:31:09.000Z</time>
      </trkpt>
      <trkpt lat="44.15446" lon="0.74255">
        <ele>76</ele>
        <time>2024-04-11T12:31:10.000Z</time>
      </trkpt>
      <trkpt lat="44.15446" lon="0.74257">
        <ele>76</ele>
        <time>2024-04-11T12:31:11.000Z</time>
      </trkpt>
      <trkpt lat="44.15446" lon="0.74258">
        <ele>76</ele>
        <time>2024-04-11T12:31:12.000Z</time>
      </trkpt>
      <trkpt lat="44.15446" lon="0.7426">
        <ele>76</ele>
        <time>2024-04-11T12:31:13.000Z</time>
      </trkpt>
      <trkpt lat="44.15446" lon="0.74261">
        <ele>76</ele>
        <time>2024-04-11T12:31:14.000Z</time>
      </trkpt>
      <trkpt lat="44.15446" lon="0.74263">
        <ele>76</ele>
        <time>2024-04-11T12:31:15.000Z</time>
      </trkpt>
      <trkpt lat="44.15447" lon="0.74264">
        <ele>77</ele>
        <time>2024-04-11T12:31:16.000Z</time>
      </trkpt>
      <trkpt lat="44.15448" lon="0.74265">
        <ele>77</ele>
        <time>2024-04-11T12:31:17.000Z</time>
      </trkpt>
      <trkpt lat="44.15449" lon="0.74266">
        <ele>77</ele>
        <time>2024-04-11T12:31:18.000Z</time>
      </trkpt>
      <trkpt lat="44.15449" lon="0.74268">
        <ele>77</ele>
        <time>2024-04-11T12:31:19.000Z</time>
      </trkpt>
      <trkpt lat="44.1545" lon="0.74269">
        <ele>77</ele>
        <time>2024-04-11T12:31:20.000Z</time>
      </trkpt>
      <trkpt lat="44.1545" lon="0.7427">
        <ele>77</ele>
        <time>2024-04-11T12:31:21.000Z</time>
      </trkpt>
      <trkpt lat="44.15451" lon="0.74271">
        <ele>77</ele>
        <time>2024-04-11T12:31:22.000Z</time>
      </trkpt>
      <trkpt lat="44.15452" lon="0.74273">
        <ele>78</ele>
        <time>2024-04-11T12:31:23.000Z</time>
      </trkpt>
      <trkpt lat="44.15453" lon="0.74274">
        <ele>78</ele>
        <time>2024-04-11T12:31:24.000Z</time>
      </trkpt>
      <trkpt lat="44.15453" lon="0.74275">
        <ele>78</ele>
        <time>2024-04-11T12:31:25.000Z</time>
      </trkpt>
      <trkpt lat="44.15454" lon="0.74277">
        <ele>78</ele>
        <time>2024-04-11T12:31:26.000Z</time>
      </trkpt>
      <trkpt lat="44.15455" lon="0.74278">
        <ele>78</ele>
        <time>2024-04-11T12:31:27.000Z</time>
      </trkpt>
      <trkpt lat="44.15455" lon="0.74279">
        <ele>78</ele>
        <time>2024-04-11T12:31:28.000Z</time>
      </trkpt>
      <trkpt lat="44.15456" lon="0.7428">
        <ele>78</ele>
        <time>2024-04-11T12:31:29.000Z</time>
      </trkpt>
      <trkpt lat="44.15456" lon="0.74281">
        <ele>78</ele>
        <time>2024-04-11T12:31:30.000Z</time>
      </trkpt>
      <trkpt lat="44.15457" lon="0.74283">
        <ele>78</ele>
        <time>2024-04-11T12:31:31.000Z</time>
      </trkpt>
      <trkpt lat="44.15457" lon="0.74284">
        <ele>78</ele>
        <time>2024-04-11T12:31:32.000Z</time>
      </trkpt>
      <trkpt lat="44.15458" lon="0.74285">
        <ele>78</ele>
        <time>2024-04-11T12:31:33.000Z</time>
      </trkpt>
      <trkpt lat="44.15459" lon="0.74287">
        <ele>78</ele>
        <time>2024-04-11T12:31:34.000Z</time>
      </trkpt>
      <trkpt lat="44.15459" lon="0.74288">
        <ele>78</ele>
        <time>2024-04-11T12:31:35.000Z</time>
      </trkpt>
      <trkpt lat="44.1546" lon="0.7429">
        <ele>78</ele>
        <time>2024-04-11T12:31:36.000Z</time>
      </trkpt>
      <trkpt lat="44.1546" lon="0.74291">
        <ele>78</ele>
        <time>2024-04-11T12:31:37.000Z</time>
      </trkpt>
      <trkpt lat="44.15461" lon="0.74293">
        <ele>78</ele>
        <time>2024-04-11T12:31:38.000Z</time>
      </trkpt>
      <trkpt lat="44.15461" lon="0.74294">
        <ele>78</ele>
        <time>2024-04-11T12:31:39.000Z</time>
      </trkpt>
      <trkpt lat="44.15461" lon="0.74296">
        <ele>79</ele>
        <time>2024-04-11T12:31:40.000Z</time>
      </trkpt>
      <trkpt lat="44.15462" lon="0.74297">
        <ele>79</ele>
        <time>2024-04-11T12:31:41.000Z</time>
      </trkpt>
      <trkpt lat="44.15462" lon="0.74299">
        <ele>79</ele>
        <time>2024-04-11T12:31:42.000Z</time>
      </trkpt>
      <trkpt lat="44.15462" lon="0.74301">
        <ele>79</ele>
        <time>2024-04-11T12:31:43.000Z</time>
      </trkpt>
      <trkpt lat="44.15463" lon="0.74302">
        <ele>79</ele>
        <time>2024-04-11T12:31:44.000Z</time>
      </trkpt>
      <trkpt lat="44.15463" lon="0.74304">
        <ele>78</ele>
        <time>2024-04-11T12:31:45.000Z</time>
      </trkpt>
      <trkpt lat="44.15464" lon="0.74305">
        <ele>79</ele>
        <time>2024-04-11T12:31:46.000Z</time>
      </trkpt>
      <trkpt lat="44.15464" lon="0.74307">
        <ele>79</ele>
        <time>2024-04-11T12:31:47.000Z</time>
      </trkpt>
      <trkpt lat="44.15464" lon="0.74308">
        <ele>79</ele>
        <time>2024-04-11T12:31:48.000Z</time>
      </trkpt>
      <trkpt lat="44.15465" lon="0.7431">
        <ele>79</ele>
        <time>2024-04-11T12:31:49.000Z</time>
      </trkpt>
      <trkpt lat="44.15465" lon="0.74311">
        <ele>78</ele>
        <time>2024-04-11T12:31:50.000Z</time>
      </trkpt>
      <trkpt lat="44.15466" lon="0.74313">
        <ele>78</ele>
        <time>2024-04-11T12:31:51.000Z</time>
      </trkpt>
      <trkpt lat="44.15466" lon="0.74314">
        <ele>78</ele>
        <time>2024-04-11T12:31:52.000Z</time>
      </trkpt>
      <trkpt lat="44.15466" lon="0.74316">
        <ele>79</ele>
        <time>2024-04-11T12:31:53.000Z</time>
      </trkpt>
      <trkpt lat="44.15467" lon="0.74318">
        <ele>79</ele>
        <time>2024-04-11T12:31:54.000Z</time>
      </trkpt>
      <trkpt lat="44.15467" lon="0.74319">
        <ele>79</ele>
        <time>2024-04-11T12:31:55.000Z</time>
      </trkpt>
      <trkpt lat="44.15467" lon="0.74321">
        <ele>79</ele>
        <time>2024-04-11T12:31:56.000Z</time>
      </trkpt>
      <trkpt lat="44.15468" lon="0.74322">
        <ele>79</ele>
        <time>2024-04-11T12:31:57.000Z</time>
      </trkpt>
      <trkpt lat="44.15468" lon="0.74324">
        <ele>79</ele>
        <time>2024-04-11T12:31:58.000Z</time>
      </trkpt>
      <trkpt lat="44.15468" lon="0.74326">
        <ele>78</ele>
        <time>2024-04-11T12:31:59.000Z</time>
      </trkpt>
      <trkpt lat="44.15468" lon="0.74327">
        <ele>78</ele>
        <time>2024-04-11T12:32:00.000Z</time>
      </trkpt>
      <trkpt lat="44.15469" lon="0.74329">
        <ele>78</ele>
        <time>2024-04-11T12:32:01.000Z</time>
      </trkpt>
      <trkpt lat="44.15469" lon="0.7433">
        <ele>78</ele>
        <time>2024-04-11T12:32:02.000Z</time>
      </trkpt>
      <trkpt lat="44.15469" lon="0.74332">
        <ele>78</ele>
        <time>2024-04-11T12:32:03.000Z</time>
      </trkpt>
      <trkpt lat="44.15469" lon="0.74333">
        <ele>78</ele>
        <time>2024-04-11T12:32:04.000Z</time>
      </trkpt>
      <trkpt lat="44.15469" lon="0.74335">
        <ele>78</ele>
        <time>2024-04-11T12:32:05.000Z</time>
      </trkpt>
      <trkpt lat="44.15469" lon="0.74336">
        <ele>78</ele>
        <time>2024-04-11T12:32:06.000Z</time>
      </trkpt>
      <trkpt lat="44.15469" lon="0.74338">
        <ele>78</ele>
        <time>2024-04-11T12:32:07.000Z</time>
      </trkpt>
      <trkpt lat="44.15469" lon="0.7434">
        <ele>78</ele>
        <time>2024-04-11T12:32:08.000Z</time>
      </trkpt>
      <trkpt lat="44.15469" lon="0.74341">
        <ele>78</ele>
        <time>2024-04-11T12:32:09.000Z</time>
      </trkpt>
      <trkpt lat="44.1547" lon="0.74343">
        <ele>78</ele>
        <time>2024-04-11T12:32:10.000Z</time>
      </trkpt>
      <trkpt lat="44.1547" lon="0.74344">
        <ele>78</ele>
        <time>2024-04-11T12:32:11.000Z</time>
      </trkpt>
      <trkpt lat="44.1547" lon="0.74346">
        <ele>78</ele>
        <time>2024-04-11T12:32:12.000Z</time>
      </trkpt>
      <trkpt lat="44.1547" lon="0.74347">
        <ele>78</ele>
        <time>2024-04-11T12:32:13.000Z</time>
      </trkpt>
      <trkpt lat="44.1547" lon="0.74349">
        <ele>78</ele>
        <time>2024-04-11T12:32:14.000Z</time>
      </trkpt>
      <trkpt lat="44.1547" lon="0.74351">
        <ele>78</ele>
        <time>2024-04-11T12:32:15.000Z</time>
      </trkpt>
      <trkpt lat="44.15471" lon="0.74352">
        <ele>78</ele>
        <time>2024-04-11T12:32:16.000Z</time>
      </trkpt>
      <trkpt lat="44.15471" lon="0.74354">
        <ele>79</ele>
        <time>2024-04-11T12:32:17.000Z</time>
      </trkpt>
      <trkpt lat="44.15471" lon="0.74356">
        <ele>79</ele>
        <time>2024-04-11T12:32:18.000Z</time>
      </trkpt>
      <trkpt lat="44.15471" lon="0.74358">
        <ele>79</ele>
        <time>2024-04-11T12:32:19.000Z</time>
      </trkpt>
      <trkpt lat="44.15471" lon="0.74359">
        <ele>79</ele>
        <time>2024-04-11T12:32:20.000Z</time>
      </trkpt>
      <trkpt lat="44.15471" lon="0.74361">
        <ele>79</ele>
        <time>2024-04-11T12:32:21.000Z</time>
      </trkpt>
      <trkpt lat="44.15471" lon="0.74362">
        <ele>79</ele>
        <time>2024-04-11T12:32:22.000Z</time>
      </trkpt>
      <trkpt lat="44.15471" lon="0.74364">
        <ele>79</ele>
        <time>2024-04-11T12:32:23.000Z</time>
      </trkpt>
      <trkpt lat="44.15471" lon="0.74366">
        <ele>79</ele>
        <time>2024-04-11T12:32:24.000Z</time>
      </trkpt>
      <trkpt lat="44.15471" lon="0.74367">
        <ele>79</ele>
        <time>2024-04-11T12:32:25.000Z</time>
      </trkpt>
      <trkpt lat="44.15471" lon="0.74369">
        <ele>80</ele>
        <time>2024-04-11T12:32:26.000Z</time>
      </trkpt>
      <trkpt lat="44.15471" lon="0.7437">
        <ele>80</ele>
        <time>2024-04-11T12:32:27.000Z</time>
      </trkpt>
      <trkpt lat="44.15471" lon="0.74372">
        <ele>80</ele>
        <time>2024-04-11T12:32:28.000Z</time>
      </trkpt>
      <trkpt lat="44.15471" lon="0.74373">
        <ele>80</ele>
        <time>2024-04-11T12:32:29.000Z</time>
      </trkpt>
      <trkpt lat="44.15471" lon="0.74375">
        <ele>80</ele>
        <time>2024-04-11T12:32:30.000Z</time>
      </trkpt>
      <trkpt lat="44.15471" lon="0.74377">
        <ele>80</ele>
        <time>2024-04-11T12:32:31.000Z</time>
      </trkpt>
      <trkpt lat="44.15472" lon="0.74378">
        <ele>80</ele>
        <time>2024-04-11T12:32:32.000Z</time>
      </trkpt>
      <trkpt lat="44.15472" lon="0.7438">
        <ele>80</ele>
        <time>2024-04-11T12:32:33.000Z</time>
      </trkpt>
      <trkpt lat="44.15472" lon="0.74381">
        <ele>80</ele>
        <time>2024-04-11T12:32:34.000Z</time>
      </trkpt>
      <trkpt lat="44.15472" lon="0.74383">
        <ele>80</ele>
        <time>2024-04-11T12:32:35.000Z</time>
      </trkpt>
      <trkpt lat="44.15473" lon="0.74385">
        <ele>80</ele>
        <time>2024-04-11T12:32:36.000Z</time>
      </trkpt>
      <trkpt lat="44.15473" lon="0.74386">
        <ele>80</ele>
        <time>2024-04-11T12:32:37.000Z</time>
      </trkpt>
      <trkpt lat="44.15473" lon="0.74387">
        <ele>81</ele>
        <time>2024-04-11T12:32:38.000Z</time>
      </trkpt>
      <trkpt lat="44.15474" lon="0.74389">
        <ele>80</ele>
        <time>2024-04-11T12:32:39.000Z</time>
      </trkpt>
      <trkpt lat="44.15474" lon="0.7439">
        <ele>80</ele>
        <time>2024-04-11T12:32:40.000Z</time>
      </trkpt>
      <trkpt lat="44.15475" lon="0.74392">
        <ele>81</ele>
        <time>2024-04-11T12:32:41.000Z</time>
      </trkpt>
      <trkpt lat="44.15475" lon="0.74393">
        <ele>81</ele>
        <time>2024-04-11T12:32:42.000Z</time>
      </trkpt>
      <trkpt lat="44.15476" lon="0.74394">
        <ele>81</ele>
        <time>2024-04-11T12:32:43.000Z</time>
      </trkpt>
      <trkpt lat="44.15476" lon="0.74396">
        <ele>81</ele>
        <time>2024-04-11T12:32:44.000Z</time>
      </trkpt>
      <trkpt lat="44.15477" lon="0.74397">
        <ele>82</ele>
        <time>2024-04-11T12:32:45.000Z</time>
      </trkpt>
      <trkpt lat="44.15477" lon="0.74399">
        <ele>82</ele>
        <time>2024-04-11T12:32:46.000Z</time>
      </trkpt>
      <trkpt lat="44.15478" lon="0.744">
        <ele>82</ele>
        <time>2024-04-11T12:32:47.000Z</time>
      </trkpt>
      <trkpt lat="44.15478" lon="0.74401">
        <ele>82</ele>
        <time>2024-04-11T12:32:48.000Z</time>
      </trkpt>
      <trkpt lat="44.15479" lon="0.74402">
        <ele>83</ele>
        <time>2024-04-11T12:32:49.000Z</time>
      </trkpt>
      <trkpt lat="44.1548" lon="0.74403">
        <ele>82</ele>
        <time>2024-04-11T12:32:50.000Z</time>
      </trkpt>
      <trkpt lat="44.1548" lon="0.74405">
        <ele>83</ele>
        <time>2024-04-11T12:32:51.000Z</time>
      </trkpt>
      <trkpt lat="44.15481" lon="0.74406">
        <ele>83</ele>
        <time>2024-04-11T12:32:52.000Z</time>
      </trkpt>
      <trkpt lat="44.15482" lon="0.74407">
        <ele>83</ele>
        <time>2024-04-11T12:32:53.000Z</time>
      </trkpt>
      <trkpt lat="44.15483" lon="0.74408">
        <ele>82</ele>
        <time>2024-04-11T12:32:54.000Z</time>
      </trkpt>
      <trkpt lat="44.15484" lon="0.74409">
        <ele>83</ele>
        <time>2024-04-11T12:32:55.000Z</time>
      </trkpt>
      <trkpt lat="44.15485" lon="0.7441">
        <ele>83</ele>
        <time>2024-04-11T12:32:56.000Z</time>
      </trkpt>
      <trkpt lat="44.15485" lon="0.74411">
        <ele>83</ele>
        <time>2024-04-11T12:32:57.000Z</time>
      </trkpt>
      <trkpt lat="44.15486" lon="0.74412">
        <ele>83</ele>
        <time>2024-04-11T12:32:58.000Z</time>
      </trkpt>
      <trkpt lat="44.15487" lon="0.74414">
        <ele>83</ele>
        <time>2024-04-11T12:32:59.000Z</time>
      </trkpt>
      <trkpt lat="44.15488" lon="0.74415">
        <ele>83</ele>
        <time>2024-04-11T12:33:00.000Z</time>
      </trkpt>
      <trkpt lat="44.15488" lon="0.74416">
        <ele>83</ele>
        <time>2024-04-11T12:33:01.000Z</time>
      </trkpt>
      <trkpt lat="44.15489" lon="0.74417">
        <ele>83</ele>
        <time>2024-04-11T12:33:02.000Z</time>
      </trkpt>
      <trkpt lat="44.1549" lon="0.74418">
        <ele>83</ele>
        <time>2024-04-11T12:33:03.000Z</time>
      </trkpt>
      <trkpt lat="44.15491" lon="0.74419">
        <ele>83</ele>
        <time>2024-04-11T12:33:04.000Z</time>
      </trkpt>
      <trkpt lat="44.15491" lon="0.74421">
        <ele>84</ele>
        <time>2024-04-11T12:33:05.000Z</time>
      </trkpt>
      <trkpt lat="44.15492" lon="0.74422">
        <ele>83</ele>
        <time>2024-04-11T12:33:06.000Z</time>
      </trkpt>
      <trkpt lat="44.15492" lon="0.74423">
        <ele>83</ele>
        <time>2024-04-11T12:33:07.000Z</time>
      </trkpt>
      <trkpt lat="44.15493" lon="0.74424">
        <ele>83</ele>
        <time>2024-04-11T12:33:08.000Z</time>
      </trkpt>
      <trkpt lat="44.15494" lon="0.74426">
        <ele>84</ele>
        <time>2024-04-11T12:33:09.000Z</time>
      </trkpt>
      <trkpt lat="44.15495" lon="0.74427">
        <ele>84</ele>
        <time>2024-04-11T12:33:10.000Z</time>
      </trkpt>
      <trkpt lat="44.15495" lon="0.74428">
        <ele>84</ele>
        <time>2024-04-11T12:33:11.000Z</time>
      </trkpt>
      <trkpt lat="44.15496" lon="0.74429">
        <ele>84</ele>
        <time>2024-04-11T12:33:12.000Z</time>
      </trkpt>
      <trkpt lat="44.15496" lon="0.74431">
        <ele>84</ele>
        <time>2024-04-11T12:33:13.000Z</time>
      </trkpt>
      <trkpt lat="44.15497" lon="0.74432">
        <ele>84</ele>
        <time>2024-04-11T12:33:14.000Z</time>
      </trkpt>
      <trkpt lat="44.15498" lon="0.74433">
        <ele>84</ele>
        <time>2024-04-11T12:33:15.000Z</time>
      </trkpt>
      <trkpt lat="44.15498" lon="0.74434">
        <ele>84</ele>
        <time>2024-04-11T12:33:16.000Z</time>
      </trkpt>
      <trkpt lat="44.15499" lon="0.74436">
        <ele>84</ele>
        <time>2024-04-11T12:33:17.000Z</time>
      </trkpt>
      <trkpt lat="44.155" lon="0.74437">
        <ele>84</ele>
        <time>2024-04-11T12:33:18.000Z</time>
      </trkpt>
      <trkpt lat="44.155" lon="0.74438">
        <ele>84</ele>
        <time>2024-04-11T12:33:19.000Z</time>
      </trkpt>
      <trkpt lat="44.155" lon="0.7444">
        <ele>84</ele>
        <time>2024-04-11T12:33:20.000Z</time>
      </trkpt>
      <trkpt lat="44.15501" lon="0.74441">
        <ele>84</ele>
        <time>2024-04-11T12:33:21.000Z</time>
      </trkpt>
      <trkpt lat="44.15501" lon="0.74442">
        <ele>84</ele>
        <time>2024-04-11T12:33:22.000Z</time>
      </trkpt>
      <trkpt lat="44.15502" lon="0.74444">
        <ele>84</ele>
        <time>2024-04-11T12:33:23.000Z</time>
      </trkpt>
      <trkpt lat="44.15502" lon="0.74445">
        <ele>85</ele>
        <time>2024-04-11T12:33:24.000Z</time>
      </trkpt>
      <trkpt lat="44.15503" lon="0.74447">
        <ele>85</ele>
        <time>2024-04-11T12:33:25.000Z</time>
      </trkpt>
      <trkpt lat="44.15503" lon="0.74448">
        <ele>85</ele>
        <time>2024-04-11T12:33:26.000Z</time>
      </trkpt>
      <trkpt lat="44.15503" lon="0.7445">
        <ele>85</ele>
        <time>2024-04-11T12:33:27.000Z</time>
      </trkpt>
      <trkpt lat="44.15503" lon="0.74451">
        <ele>85</ele>
        <time>2024-04-11T12:33:28.000Z</time>
      </trkpt>
      <trkpt lat="44.15504" lon="0.74452">
        <ele>85</ele>
        <time>2024-04-11T12:33:29.000Z</time>
      </trkpt>
      <trkpt lat="44.15504" lon="0.74454">
        <ele>85</ele>
        <time>2024-04-11T12:33:30.000Z</time>
      </trkpt>
      <trkpt lat="44.15504" lon="0.74455">
        <ele>85</ele>
        <time>2024-04-11T12:33:31.000Z</time>
      </trkpt>
      <trkpt lat="44.15505" lon="0.74457">
        <ele>85</ele>
        <time>2024-04-11T12:33:32.000Z</time>
      </trkpt>
      <trkpt lat="44.15505" lon="0.74458">
        <ele>85</ele>
        <time>2024-04-11T12:33:33.000Z</time>
      </trkpt>
      <trkpt lat="44.15505" lon="0.74459">
        <ele>85</ele>
        <time>2024-04-11T12:33:34.000Z</time>
      </trkpt>
      <trkpt lat="44.15505" lon="0.74461">
        <ele>85</ele>
        <time>2024-04-11T12:33:35.000Z</time>
      </trkpt>
      <trkpt lat="44.15506" lon="0.74462">
        <ele>85</ele>
        <time>2024-04-11T12:33:36.000Z</time>
      </trkpt>
      <trkpt lat="44.15506" lon="0.74464">
        <ele>85</ele>
        <time>2024-04-11T12:33:37.000Z</time>
      </trkpt>
      <trkpt lat="44.15506" lon="0.74465">
        <ele>85</ele>
        <time>2024-04-11T12:33:38.000Z</time>
      </trkpt>
      <trkpt lat="44.15506" lon="0.74467">
        <ele>85</ele>
        <time>2024-04-11T12:33:39.000Z</time>
      </trkpt>
      <trkpt lat="44.15506" lon="0.74468">
        <ele>85</ele>
        <time>2024-04-11T12:33:40.000Z</time>
      </trkpt>
      <trkpt lat="44.15507" lon="0.74469">
        <ele>85</ele>
        <time>2024-04-11T12:33:41.000Z</time>
      </trkpt>
      <trkpt lat="44.15507" lon="0.74471">
        <ele>86</ele>
        <time>2024-04-11T12:33:42.000Z</time>
      </trkpt>
      <trkpt lat="44.15507" lon="0.74472">
        <ele>86</ele>
        <time>2024-04-11T12:33:43.000Z</time>
      </trkpt>
      <trkpt lat="44.15507" lon="0.74474">
        <ele>86</ele>
        <time>2024-04-11T12:33:44.000Z</time>
      </trkpt>
      <trkpt lat="44.15507" lon="0.74475">
        <ele>86</ele>
        <time>2024-04-11T12:33:45.000Z</time>
      </trkpt>
      <trkpt lat="44.15507" lon="0.74477">
        <ele>86</ele>
        <time>2024-04-11T12:33:46.000Z</time>
      </trkpt>
      <trkpt lat="44.15507" lon="0.74478">
        <ele>86</ele>
        <time>2024-04-11T12:33:47.000Z</time>
      </trkpt>
      <trkpt lat="44.15508" lon="0.7448">
        <ele>86</ele>
        <time>2024-04-11T12:33:48.000Z</time>
      </trkpt>
      <trkpt lat="44.15508" lon="0.74481">
        <ele>86</ele>
        <time>2024-04-11T12:33:49.000Z</time>
      </trkpt>
      <trkpt lat="44.15508" lon="0.74483">
        <ele>87</ele>
        <time>2024-04-11T12:33:50.000Z</time>
      </trkpt>
      <trkpt lat="44.15508" lon="0.74484">
        <ele>87</ele>
        <time>2024-04-11T12:33:51.000Z</time>
      </trkpt>
      <trkpt lat="44.15508" lon="0.74486">
        <ele>87</ele>
        <time>2024-04-11T12:33:52.000Z</time>
      </trkpt>
      <trkpt lat="44.15509" lon="0.74487">
        <ele>87</ele>
        <time>2024-04-11T12:33:53.000Z</time>
      </trkpt>
      <trkpt lat="44.15509" lon="0.74489">
        <ele>87</ele>
        <time>2024-04-11T12:33:54.000Z</time>
      </trkpt>
      <trkpt lat="44.15509" lon="0.74491">
        <ele>87</ele>
        <time>2024-04-11T12:33:55.000Z</time>
      </trkpt>
      <trkpt lat="44.15509" lon="0.74492">
        <ele>88</ele>
        <time>2024-04-11T12:33:56.000Z</time>
      </trkpt>
      <trkpt lat="44.15509" lon="0.74494">
        <ele>88</ele>
        <time>2024-04-11T12:33:57.000Z</time>
      </trkpt>
      <trkpt lat="44.15509" lon="0.74495">
        <ele>88</ele>
        <time>2024-04-11T12:33:58.000Z</time>
      </trkpt>
      <trkpt lat="44.15509" lon="0.74497">
        <ele>88</ele>
        <time>2024-04-11T12:33:59.000Z</time>
      </trkpt>
      <trkpt lat="44.1551" lon="0.74498">
        <ele>88</ele>
        <time>2024-04-11T12:34:00.000Z</time>
      </trkpt>
      <trkpt lat="44.1551" lon="0.745">
        <ele>88</ele>
        <time>2024-04-11T12:34:01.000Z</time>
      </trkpt>
      <trkpt lat="44.1551" lon="0.74501">
        <ele>88</ele>
        <time>2024-04-11T12:34:02.000Z</time>
      </trkpt>
      <trkpt lat="44.15511" lon="0.74503">
        <ele>89</ele>
        <time>2024-04-11T12:34:03.000Z</time>
      </trkpt>
      <trkpt lat="44.15511" lon="0.74504">
        <ele>89</ele>
        <time>2024-04-11T12:34:04.000Z</time>
      </trkpt>
      <trkpt lat="44.15511" lon="0.74505">
        <ele>89</ele>
        <time>2024-04-11T12:34:05.000Z</time>
      </trkpt>
      <trkpt lat="44.15511" lon="0.74507">
        <ele>89</ele>
        <time>2024-04-11T12:34:06.000Z</time>
      </trkpt>
      <trkpt lat="44.15512" lon="0.74509">
        <ele>89</ele>
        <time>2024-04-11T12:34:07.000Z</time>
      </trkpt>
      <trkpt lat="44.15512" lon="0.7451">
        <ele>89</ele>
        <time>2024-04-11T12:34:08.000Z</time>
      </trkpt>
      <trkpt lat="44.15512" lon="0.74511">
        <ele>89</ele>
        <time>2024-04-11T12:34:09.000Z</time>
      </trkpt>
      <trkpt lat="44.15513" lon="0.74513">
        <ele>89</ele>
        <time>2024-04-11T12:34:10.000Z</time>
      </trkpt>
      <trkpt lat="44.15513" lon="0.74514">
        <ele>90</ele>
        <time>2024-04-11T12:34:11.000Z</time>
      </trkpt>
      <trkpt lat="44.15513" lon="0.74516">
        <ele>90</ele>
        <time>2024-04-11T12:34:12.000Z</time>
      </trkpt>
      <trkpt lat="44.15513" lon="0.74517">
        <ele>90</ele>
        <time>2024-04-11T12:34:13.000Z</time>
      </trkpt>
      <trkpt lat="44.15514" lon="0.74519">
        <ele>90</ele>
        <time>2024-04-11T12:34:14.000Z</time>
      </trkpt>
      <trkpt lat="44.15514" lon="0.7452">
        <ele>90</ele>
        <time>2024-04-11T12:34:15.000Z</time>
      </trkpt>
      <trkpt lat="44.15514" lon="0.74521">
        <ele>91</ele>
        <time>2024-04-11T12:34:16.000Z</time>
      </trkpt>
      <trkpt lat="44.15514" lon="0.74523">
        <ele>91</ele>
        <time>2024-04-11T12:34:17.000Z</time>
      </trkpt>
      <trkpt lat="44.15515" lon="0.74524">
        <ele>91</ele>
        <time>2024-04-11T12:34:18.000Z</time>
      </trkpt>
      <trkpt lat="44.15515" lon="0.74526">
        <ele>91</ele>
        <time>2024-04-11T12:34:19.000Z</time>
      </trkpt>
      <trkpt lat="44.15516" lon="0.74527">
        <ele>91</ele>
        <time>2024-04-11T12:34:20.000Z</time>
      </trkpt>
      <trkpt lat="44.15516" lon="0.74528">
        <ele>91</ele>
        <time>2024-04-11T12:34:21.000Z</time>
      </trkpt>
      <trkpt lat="44.15517" lon="0.7453">
        <ele>91</ele>
        <time>2024-04-11T12:34:22.000Z</time>
      </trkpt>
      <trkpt lat="44.15517" lon="0.74531">
        <ele>92</ele>
        <time>2024-04-11T12:34:23.000Z</time>
      </trkpt>
      <trkpt lat="44.15517" lon="0.74532">
        <ele>91</ele>
        <time>2024-04-11T12:34:24.000Z</time>
      </trkpt>
      <trkpt lat="44.15518" lon="0.74533">
        <ele>92</ele>
        <time>2024-04-11T12:34:25.000Z</time>
      </trkpt>
      <trkpt lat="44.15518" lon="0.74534">
        <ele>92</ele>
        <time>2024-04-11T12:34:26.000Z</time>
      </trkpt>
      <trkpt lat="44.15519" lon="0.74536">
        <ele>92</ele>
        <time>2024-04-11T12:34:27.000Z</time>
      </trkpt>
      <trkpt lat="44.15519" lon="0.74537">
        <ele>92</ele>
        <time>2024-04-11T12:34:28.000Z</time>
      </trkpt>
      <trkpt lat="44.1552" lon="0.74538">
        <ele>93</ele>
        <time>2024-04-11T12:34:29.000Z</time>
      </trkpt>
      <trkpt lat="44.1552" lon="0.74539">
        <ele>93</ele>
        <time>2024-04-11T12:34:30.000Z</time>
      </trkpt>
      <trkpt lat="44.15521" lon="0.7454">
        <ele>93</ele>
        <time>2024-04-11T12:34:31.000Z</time>
      </trkpt>
      <trkpt lat="44.15521" lon="0.74541">
        <ele>93</ele>
        <time>2024-04-11T12:34:32.000Z</time>
      </trkpt>
      <trkpt lat="44.15522" lon="0.74542">
        <ele>93</ele>
        <time>2024-04-11T12:34:33.000Z</time>
      </trkpt>
      <trkpt lat="44.15522" lon="0.74543">
        <ele>93</ele>
        <time>2024-04-11T12:34:34.000Z</time>
      </trkpt>
      <trkpt lat="44.15523" lon="0.74544">
        <ele>93</ele>
        <time>2024-04-11T12:34:35.000Z</time>
      </trkpt>
      <trkpt lat="44.15523" lon="0.74545">
        <ele>93</ele>
        <time>2024-04-11T12:34:36.000Z</time>
      </trkpt>
      <trkpt lat="44.15524" lon="0.74546">
        <ele>93</ele>
        <time>2024-04-11T12:34:37.000Z</time>
      </trkpt>
      <trkpt lat="44.15524" lon="0.74546">
        <ele>93</ele>
        <time>2024-04-11T12:34:38.000Z</time>
      </trkpt>
      <trkpt lat="44.15525" lon="0.74547">
        <ele>93</ele>
        <time>2024-04-11T12:34:39.000Z</time>
      </trkpt>
      <trkpt lat="44.15525" lon="0.74548">
        <ele>93</ele>
        <time>2024-04-11T12:34:40.000Z</time>
      </trkpt>
      <trkpt lat="44.15526" lon="0.74549">
        <ele>94</ele>
        <time>2024-04-11T12:34:41.000Z</time>
      </trkpt>
      <trkpt lat="44.15527" lon="0.7455">
        <ele>94</ele>
        <time>2024-04-11T12:34:42.000Z</time>
      </trkpt>
      <trkpt lat="44.15527" lon="0.74551">
        <ele>94</ele>
        <time>2024-04-11T12:34:43.000Z</time>
      </trkpt>
      <trkpt lat="44.15528" lon="0.74552">
        <ele>94</ele>
        <time>2024-04-11T12:34:44.000Z</time>
      </trkpt>
      <trkpt lat="44.15528" lon="0.74552">
        <ele>94</ele>
        <time>2024-04-11T12:34:45.000Z</time>
      </trkpt>
      <trkpt lat="44.15529" lon="0.74553">
        <ele>95</ele>
        <time>2024-04-11T12:34:46.000Z</time>
      </trkpt>
      <trkpt lat="44.15529" lon="0.74554">
        <ele>94</ele>
        <time>2024-04-11T12:34:47.000Z</time>
      </trkpt>
      <trkpt lat="44.1553" lon="0.74555">
        <ele>94</ele>
        <time>2024-04-11T12:34:48.000Z</time>
      </trkpt>
      <trkpt lat="44.15531" lon="0.74556">
        <ele>94</ele>
        <time>2024-04-11T12:34:49.000Z</time>
      </trkpt>
      <trkpt lat="44.15531" lon="0.74557">
        <ele>95</ele>
        <time>2024-04-11T12:34:50.000Z</time>
      </trkpt>
      <trkpt lat="44.15532" lon="0.74558">
        <ele>94</ele>
        <time>2024-04-11T12:34:51.000Z</time>
      </trkpt>
      <trkpt lat="44.15533" lon="0.74559">
        <ele>95</ele>
        <time>2024-04-11T12:34:52.000Z</time>
      </trkpt>
      <trkpt lat="44.15533" lon="0.7456">
        <ele>95</ele>
        <time>2024-04-11T12:34:53.000Z</time>
      </trkpt>
      <trkpt lat="44.15534" lon="0.74561">
        <ele>95</ele>
        <time>2024-04-11T12:34:54.000Z</time>
      </trkpt>
      <trkpt lat="44.15535" lon="0.74562">
        <ele>95</ele>
        <time>2024-04-11T12:34:55.000Z</time>
      </trkpt>
      <trkpt lat="44.15535" lon="0.74562">
        <ele>96</ele>
        <time>2024-04-11T12:34:56.000Z</time>
      </trkpt>
      <trkpt lat="44.15536" lon="0.74563">
        <ele>96</ele>
        <time>2024-04-11T12:34:57.000Z</time>
      </trkpt>
      <trkpt lat="44.15537" lon="0.74564">
        <ele>96</ele>
        <time>2024-04-11T12:34:58.000Z</time>
      </trkpt>
      <trkpt lat="44.15537" lon="0.74565">
        <ele>96</ele>
        <time>2024-04-11T12:34:59.000Z</time>
      </trkpt>
      <trkpt lat="44.15538" lon="0.74565">
        <ele>96</ele>
        <time>2024-04-11T12:35:00.000Z</time>
      </trkpt>
      <trkpt lat="44.15538" lon="0.74566">
        <ele>96</ele>
        <time>2024-04-11T12:35:01.000Z</time>
      </trkpt>
      <trkpt lat="44.15539" lon="0.74567">
        <ele>96</ele>
        <time>2024-04-11T12:35:02.000Z</time>
      </trkpt>
      <trkpt lat="44.15539" lon="0.74568">
        <ele>96</ele>
        <time>2024-04-11T12:35:03.000Z</time>
      </trkpt>
      <trkpt lat="44.15539" lon="0.74569">
        <ele>96</ele>
        <time>2024-04-11T12:35:04.000Z</time>
      </trkpt>
      <trkpt lat="44.1554" lon="0.7457">
        <ele>96</ele>
        <time>2024-04-11T12:35:05.000Z</time>
      </trkpt>
      <trkpt lat="44.1554" lon="0.74571">
        <ele>97</ele>
        <time>2024-04-11T12:35:06.000Z</time>
      </trkpt>
      <trkpt lat="44.1554" lon="0.74572">
        <ele>97</ele>
        <time>2024-04-11T12:35:07.000Z</time>
      </trkpt>
      <trkpt lat="44.15541" lon="0.74573">
        <ele>97</ele>
        <time>2024-04-11T12:35:08.000Z</time>
      </trkpt>
      <trkpt lat="44.15541" lon="0.74574">
        <ele>97</ele>
        <time>2024-04-11T12:35:09.000Z</time>
      </trkpt>
      <trkpt lat="44.15541" lon="0.74575">
        <ele>97</ele>
        <time>2024-04-11T12:35:10.000Z</time>
      </trkpt>
      <trkpt lat="44.15541" lon="0.74576">
        <ele>98</ele>
        <time>2024-04-11T12:35:11.000Z</time>
      </trkpt>
      <trkpt lat="44.15541" lon="0.74577">
        <ele>98</ele>
        <time>2024-04-11T12:35:12.000Z</time>
      </trkpt>
      <trkpt lat="44.15541" lon="0.74578">
        <ele>98</ele>
        <time>2024-04-11T12:35:13.000Z</time>
      </trkpt>
      <trkpt lat="44.15541" lon="0.74578">
        <ele>98</ele>
        <time>2024-04-11T12:35:14.000Z</time>
      </trkpt>
      <trkpt lat="44.15541" lon="0.74579">
        <ele>97</ele>
        <time>2024-04-11T12:35:15.000Z</time>
      </trkpt>
      <trkpt lat="44.1554" lon="0.74579">
        <ele>97</ele>
        <time>2024-04-11T12:35:16.000Z</time>
      </trkpt>
      <trkpt lat="44.1554" lon="0.74579">
        <ele>97</ele>
        <time>2024-04-11T12:35:17.000Z</time>
      </trkpt>
      <trkpt lat="44.1554" lon="0.74579">
        <ele>97</ele>
        <time>2024-04-11T12:35:18.000Z</time>
      </trkpt>
      <trkpt lat="44.1554" lon="0.74579">
        <ele>97</ele>
        <time>2024-04-11T12:35:19.000Z</time>
      </trkpt>
      <trkpt lat="44.1554" lon="0.74579">
        <ele>97</ele>
        <time>2024-04-11T12:35:20.000Z</time>
      </trkpt>
      <trkpt lat="44.1554" lon="0.74579">
        <ele>97</ele>
        <time>2024-04-11T12:35:21.000Z</time>
      </trkpt>
      <trkpt lat="44.15541" lon="0.7458">
        <ele>97</ele>
        <time>2024-04-11T12:35:22.000Z</time>
      </trkpt>
      <trkpt lat="44.15541" lon="0.74581">
        <ele>98</ele>
        <time>2024-04-11T12:35:23.000Z</time>
      </trkpt>
      <trkpt lat="44.15541" lon="0.74582">
        <ele>98</ele>
        <time>2024-04-11T12:35:24.000Z</time>
      </trkpt>
      <trkpt lat="44.15541" lon="0.74584">
        <ele>98</ele>
        <time>2024-04-11T12:35:25.000Z</time>
      </trkpt>
      <trkpt lat="44.15542" lon="0.74585">
        <ele>98</ele>
        <time>2024-04-11T12:35:26.000Z</time>
      </trkpt>
      <trkpt lat="44.15542" lon="0.74586">
        <ele>98</ele>
        <time>2024-04-11T12:35:27.000Z</time>
      </trkpt>
      <trkpt lat="44.15542" lon="0.74588">
        <ele>98</ele>
        <time>2024-04-11T12:35:28.000Z</time>
      </trkpt>
      <trkpt lat="44.15542" lon="0.74589">
        <ele>98</ele>
        <time>2024-04-11T12:35:29.000Z</time>
      </trkpt>
      <trkpt lat="44.15541" lon="0.74591">
        <ele>98</ele>
        <time>2024-04-11T12:35:30.000Z</time>
      </trkpt>
      <trkpt lat="44.15541" lon="0.74592">
        <ele>98</ele>
        <time>2024-04-11T12:35:31.000Z</time>
      </trkpt>
      <trkpt lat="44.1554" lon="0.74593">
        <ele>98</ele>
        <time>2024-04-11T12:35:32.000Z</time>
      </trkpt>
      <trkpt lat="44.1554" lon="0.74595">
        <ele>99</ele>
        <time>2024-04-11T12:35:33.000Z</time>
      </trkpt>
      <trkpt lat="44.15539" lon="0.74596">
        <ele>100</ele>
        <time>2024-04-11T12:35:34.000Z</time>
      </trkpt>
      <trkpt lat="44.15539" lon="0.74597">
        <ele>100</ele>
        <time>2024-04-11T12:35:35.000Z</time>
      </trkpt>
      <trkpt lat="44.15538" lon="0.74598">
        <ele>100</ele>
        <time>2024-04-11T12:35:36.000Z</time>
      </trkpt>
      <trkpt lat="44.15537" lon="0.74599">
        <ele>100</ele>
        <time>2024-04-11T12:35:37.000Z</time>
      </trkpt>
      <trkpt lat="44.15537" lon="0.746">
        <ele>100</ele>
        <time>2024-04-11T12:35:38.000Z</time>
      </trkpt>
      <trkpt lat="44.15536" lon="0.74602">
        <ele>101</ele>
        <time>2024-04-11T12:35:39.000Z</time>
      </trkpt>
      <trkpt lat="44.15536" lon="0.74603">
        <ele>101</ele>
        <time>2024-04-11T12:35:40.000Z</time>
      </trkpt>
      <trkpt lat="44.15535" lon="0.74604">
        <ele>101</ele>
        <time>2024-04-11T12:35:41.000Z</time>
      </trkpt>
      <trkpt lat="44.15535" lon="0.74605">
        <ele>101</ele>
        <time>2024-04-11T12:35:42.000Z</time>
      </trkpt>
      <trkpt lat="44.15534" lon="0.74606">
        <ele>102</ele>
        <time>2024-04-11T12:35:43.000Z</time>
      </trkpt>
      <trkpt lat="44.15534" lon="0.74608">
        <ele>102</ele>
        <time>2024-04-11T12:35:44.000Z</time>
      </trkpt>
      <trkpt lat="44.15533" lon="0.74608">
        <ele>101</ele>
        <time>2024-04-11T12:35:45.000Z</time>
      </trkpt>
      <trkpt lat="44.15533" lon="0.74609">
        <ele>101</ele>
        <time>2024-04-11T12:35:46.000Z</time>
      </trkpt>
      <trkpt lat="44.15533" lon="0.74609">
        <ele>101</ele>
        <time>2024-04-11T12:35:47.000Z</time>
      </trkpt>
      <trkpt lat="44.15533" lon="0.74609">
        <ele>101</ele>
        <time>2024-04-11T12:35:48.000Z</time>
      </trkpt>
      <trkpt lat="44.15533" lon="0.74609">
        <ele>101</ele>
        <time>2024-04-11T12:35:49.000Z</time>
      </trkpt>
      <trkpt lat="44.15533" lon="0.74609">
        <ele>101</ele>
        <time>2024-04-11T12:35:50.000Z</time>
      </trkpt>
      <trkpt lat="44.15533" lon="0.74609">
        <ele>101</ele>
        <time>2024-04-11T12:35:51.000Z</time>
      </trkpt>
      <trkpt lat="44.15533" lon="0.7461">
        <ele>101</ele>
        <time>2024-04-11T12:35:52.000Z</time>
      </trkpt>
      <trkpt lat="44.15532" lon="0.74611">
        <ele>101</ele>
        <time>2024-04-11T12:35:53.000Z</time>
      </trkpt>
      <trkpt lat="44.15532" lon="0.74612">
        <ele>102</ele>
        <time>2024-04-11T12:35:54.000Z</time>
      </trkpt>
      <trkpt lat="44.15532" lon="0.74613">
        <ele>102</ele>
        <time>2024-04-11T12:35:55.000Z</time>
      </trkpt>
      <trkpt lat="44.15531" lon="0.74614">
        <ele>102</ele>
        <time>2024-04-11T12:35:56.000Z</time>
      </trkpt>
      <trkpt lat="44.1553" lon="0.74615">
        <ele>102</ele>
        <time>2024-04-11T12:35:57.000Z</time>
      </trkpt>
      <trkpt lat="44.1553" lon="0.74617">
        <ele>102</ele>
        <time>2024-04-11T12:35:58.000Z</time>
      </trkpt>
      <trkpt lat="44.1553" lon="0.74618">
        <ele>102</ele>
        <time>2024-04-11T12:35:59.000Z</time>
      </trkpt>
      <trkpt lat="44.15529" lon="0.74619">
        <ele>103</ele>
        <time>2024-04-11T12:36:00.000Z</time>
      </trkpt>
      <trkpt lat="44.15529" lon="0.7462">
        <ele>103</ele>
        <time>2024-04-11T12:36:01.000Z</time>
      </trkpt>
      <trkpt lat="44.15528" lon="0.74622">
        <ele>103</ele>
        <time>2024-04-11T12:36:02.000Z</time>
      </trkpt>
      <trkpt lat="44.15528" lon="0.74623">
        <ele>103</ele>
        <time>2024-04-11T12:36:03.000Z</time>
      </trkpt>
      <trkpt lat="44.15527" lon="0.74624">
        <ele>104</ele>
        <time>2024-04-11T12:36:04.000Z</time>
      </trkpt>
      <trkpt lat="44.15527" lon="0.74625">
        <ele>104</ele>
        <time>2024-04-11T12:36:05.000Z</time>
      </trkpt>
      <trkpt lat="44.15526" lon="0.74627">
        <ele>104</ele>
        <time>2024-04-11T12:36:06.000Z</time>
      </trkpt>
      <trkpt lat="44.15526" lon="0.74628">
        <ele>104</ele>
        <time>2024-04-11T12:36:07.000Z</time>
      </trkpt>
      <trkpt lat="44.15526" lon="0.74629">
        <ele>104</ele>
        <time>2024-04-11T12:36:08.000Z</time>
      </trkpt>
      <trkpt lat="44.15525" lon="0.7463">
        <ele>105</ele>
        <time>2024-04-11T12:36:09.000Z</time>
      </trkpt>
      <trkpt lat="44.15525" lon="0.74632">
        <ele>105</ele>
        <time>2024-04-11T12:36:10.000Z</time>
      </trkpt>
      <trkpt lat="44.15525" lon="0.74633">
        <ele>105</ele>
        <time>2024-04-11T12:36:11.000Z</time>
      </trkpt>
      <trkpt lat="44.15525" lon="0.74635">
        <ele>105</ele>
        <time>2024-04-11T12:36:12.000Z</time>
      </trkpt>
      <trkpt lat="44.15525" lon="0.74636">
        <ele>106</ele>
        <time>2024-04-11T12:36:13.000Z</time>
      </trkpt>
      <trkpt lat="44.15525" lon="0.74637">
        <ele>106</ele>
        <time>2024-04-11T12:36:14.000Z</time>
      </trkpt>
      <trkpt lat="44.15525" lon="0.74639">
        <ele>105</ele>
        <time>2024-04-11T12:36:15.000Z</time>
      </trkpt>
      <trkpt lat="44.15526" lon="0.7464">
        <ele>106</ele>
        <time>2024-04-11T12:36:16.000Z</time>
      </trkpt>
      <trkpt lat="44.15527" lon="0.74641">
        <ele>106</ele>
        <time>2024-04-11T12:36:17.000Z</time>
      </trkpt>
      <trkpt lat="44.15527" lon="0.74641">
        <ele>106</ele>
        <time>2024-04-11T12:36:18.000Z</time>
      </trkpt>
      <trkpt lat="44.15528" lon="0.74642">
        <ele>106</ele>
        <time>2024-04-11T12:36:19.000Z</time>
      </trkpt>
      <trkpt lat="44.15528" lon="0.74643">
        <ele>107</ele>
        <time>2024-04-11T12:36:20.000Z</time>
      </trkpt>
      <trkpt lat="44.15529" lon="0.74643">
        <ele>107</ele>
        <time>2024-04-11T12:36:21.000Z</time>
      </trkpt>
      <trkpt lat="44.1553" lon="0.74644">
        <ele>107</ele>
        <time>2024-04-11T12:36:22.000Z</time>
      </trkpt>
      <trkpt lat="44.1553" lon="0.74644">
        <ele>108</ele>
        <time>2024-04-11T12:36:23.000Z</time>
      </trkpt>
      <trkpt lat="44.15531" lon="0.74644">
        <ele>107</ele>
        <time>2024-04-11T12:36:24.000Z</time>
      </trkpt>
      <trkpt lat="44.15532" lon="0.74644">
        <ele>107</ele>
        <time>2024-04-11T12:36:25.000Z</time>
      </trkpt>
      <trkpt lat="44.15533" lon="0.74644">
        <ele>107</ele>
        <time>2024-04-11T12:36:26.000Z</time>
      </trkpt>
      <trkpt lat="44.15534" lon="0.74643">
        <ele>108</ele>
        <time>2024-04-11T12:36:27.000Z</time>
      </trkpt>
      <trkpt lat="44.15534" lon="0.74643">
        <ele>107</ele>
        <time>2024-04-11T12:36:28.000Z</time>
      </trkpt>
      <trkpt lat="44.15535" lon="0.74643">
        <ele>107</ele>
        <time>2024-04-11T12:36:29.000Z</time>
      </trkpt>
      <trkpt lat="44.15535" lon="0.74643">
        <ele>108</ele>
        <time>2024-04-11T12:36:30.000Z</time>
      </trkpt>
      <trkpt lat="44.15535" lon="0.74643">
        <ele>108</ele>
        <time>2024-04-11T12:36:31.000Z</time>
      </trkpt>
      <trkpt lat="44.15535" lon="0.74643">
        <ele>108</ele>
        <time>2024-04-11T12:36:32.000Z</time>
      </trkpt>
      <trkpt lat="44.15534" lon="0.74643">
        <ele>108</ele>
        <time>2024-04-11T12:36:33.000Z</time>
      </trkpt>
      <trkpt lat="44.15534" lon="0.74643">
        <ele>108</ele>
        <time>2024-04-11T12:36:34.000Z</time>
      </trkpt>
      <trkpt lat="44.15534" lon="0.74643">
        <ele>108</ele>
        <time>2024-04-11T12:36:35.000Z</time>
      </trkpt>
      <trkpt lat="44.15534" lon="0.74643">
        <ele>108</ele>
        <time>2024-04-11T12:36:36.000Z</time>
      </trkpt>
      <trkpt lat="44.15535" lon="0.74643">
        <ele>108</ele>
        <time>2024-04-11T12:36:37.000Z</time>
      </trkpt>
      <trkpt lat="44.15535" lon="0.74643">
        <ele>108</ele>
        <time>2024-04-11T12:36:38.000Z</time>
      </trkpt>
      <trkpt lat="44.15535" lon="0.74643">
        <ele>108</ele>
        <time>2024-04-11T12:36:39.000Z</time>
      </trkpt>
      <trkpt lat="44.15535" lon="0.74643">
        <ele>108</ele>
        <time>2024-04-11T12:36:40.000Z</time>
      </trkpt>
      <trkpt lat="44.15535" lon="0.74643">
        <ele>107</ele>
        <time>2024-04-11T12:36:41.000Z</time>
      </trkpt>
      <trkpt lat="44.15535" lon="0.74643">
        <ele>107</ele>
        <time>2024-04-11T12:36:42.000Z</time>
      </trkpt>
      <trkpt lat="44.15536" lon="0.74643">
        <ele>108</ele>
        <time>2024-04-11T12:36:43.000Z</time>
      </trkpt>
      <trkpt lat="44.15536" lon="0.74642">
        <ele>108</ele>
        <time>2024-04-11T12:36:44.000Z</time>
      </trkpt>
      <trkpt lat="44.15537" lon="0.74642">
        <ele>108</ele>
        <time>2024-04-11T12:36:45.000Z</time>
      </trkpt>
      <trkpt lat="44.15538" lon="0.74641">
        <ele>108</ele>
        <time>2024-04-11T12:36:46.000Z</time>
      </trkpt>
      <trkpt lat="44.15539" lon="0.74641">
        <ele>108</ele>
        <time>2024-04-11T12:36:47.000Z</time>
      </trkpt>
      <trkpt lat="44.1554" lon="0.7464">
        <ele>109</ele>
        <time>2024-04-11T12:36:48.000Z</time>
      </trkpt>
      <trkpt lat="44.15541" lon="0.7464">
        <ele>108</ele>
        <time>2024-04-11T12:36:49.000Z</time>
      </trkpt>
      <trkpt lat="44.15542" lon="0.74639">
        <ele>109</ele>
        <time>2024-04-11T12:36:50.000Z</time>
      </trkpt>
      <trkpt lat="44.15543" lon="0.74639">
        <ele>109</ele>
        <time>2024-04-11T12:36:51.000Z</time>
      </trkpt>
      <trkpt lat="44.15544" lon="0.74638">
        <ele>109</ele>
        <time>2024-04-11T12:36:52.000Z</time>
      </trkpt>
      <trkpt lat="44.15545" lon="0.74638">
        <ele>109</ele>
        <time>2024-04-11T12:36:53.000Z</time>
      </trkpt>
      <trkpt lat="44.15546" lon="0.74637">
        <ele>109</ele>
        <time>2024-04-11T12:36:54.000Z</time>
      </trkpt>
      <trkpt lat="44.15547" lon="0.74637">
        <ele>109</ele>
        <time>2024-04-11T12:36:55.000Z</time>
      </trkpt>
      <trkpt lat="44.15548" lon="0.74636">
        <ele>109</ele>
        <time>2024-04-11T12:36:56.000Z</time>
      </trkpt>
      <trkpt lat="44.15549" lon="0.74635">
        <ele>109</ele>
        <time>2024-04-11T12:36:57.000Z</time>
      </trkpt>
      <trkpt lat="44.1555" lon="0.74635">
        <ele>109</ele>
        <time>2024-04-11T12:36:58.000Z</time>
      </trkpt>
      <trkpt lat="44.15551" lon="0.74634">
        <ele>109</ele>
        <time>2024-04-11T12:36:59.000Z</time>
      </trkpt>
      <trkpt lat="44.15552" lon="0.74633">
        <ele>109</ele>
        <time>2024-04-11T12:37:00.000Z</time>
      </trkpt>
      <trkpt lat="44.15553" lon="0.74633">
        <ele>110</ele>
        <time>2024-04-11T12:37:01.000Z</time>
      </trkpt>
      <trkpt lat="44.15554" lon="0.74632">
        <ele>110</ele>
        <time>2024-04-11T12:37:02.000Z</time>
      </trkpt>
      <trkpt lat="44.15555" lon="0.74632">
        <ele>111</ele>
        <time>2024-04-11T12:37:03.000Z</time>
      </trkpt>
      <trkpt lat="44.15555" lon="0.74632">
        <ele>113</ele>
        <time>2024-04-11T12:37:04.000Z</time>
      </trkpt>
      <trkpt lat="44.15556" lon="0.74631">
        <ele>113</ele>
        <time>2024-04-11T12:37:05.000Z</time>
      </trkpt>
      <trkpt lat="44.15557" lon="0.74631">
        <ele>114</ele>
        <time>2024-04-11T12:37:06.000Z</time>
      </trkpt>
      <trkpt lat="44.15558" lon="0.74631">
        <ele>114</ele>
        <time>2024-04-11T12:37:07.000Z</time>
      </trkpt>
      <trkpt lat="44.15559" lon="0.7463">
        <ele>114</ele>
        <time>2024-04-11T12:37:08.000Z</time>
      </trkpt>
      <trkpt lat="44.1556" lon="0.74629">
        <ele>114</ele>
        <time>2024-04-11T12:37:09.000Z</time>
      </trkpt>
      <trkpt lat="44.15561" lon="0.74629">
        <ele>114</ele>
        <time>2024-04-11T12:37:10.000Z</time>
      </trkpt>
      <trkpt lat="44.15562" lon="0.74628">
        <ele>114</ele>
        <time>2024-04-11T12:37:11.000Z</time>
      </trkpt>
      <trkpt lat="44.15563" lon="0.74628">
        <ele>115</ele>
        <time>2024-04-11T12:37:12.000Z</time>
      </trkpt>
      <trkpt lat="44.15564" lon="0.74628">
        <ele>115</ele>
        <time>2024-04-11T12:37:13.000Z</time>
      </trkpt>
      <trkpt lat="44.15565" lon="0.74628">
        <ele>115</ele>
        <time>2024-04-11T12:37:14.000Z</time>
      </trkpt>
      <trkpt lat="44.15566" lon="0.74627">
        <ele>115</ele>
        <time>2024-04-11T12:37:15.000Z</time>
      </trkpt>
      <trkpt lat="44.15566" lon="0.74627">
        <ele>115</ele>
        <time>2024-04-11T12:37:16.000Z</time>
      </trkpt>
      <trkpt lat="44.15567" lon="0.74627">
        <ele>114</ele>
        <time>2024-04-11T12:37:17.000Z</time>
      </trkpt>
      <trkpt lat="44.15567" lon="0.74627">
        <ele>114</ele>
        <time>2024-04-11T12:37:18.000Z</time>
      </trkpt>
      <trkpt lat="44.15567" lon="0.74627">
        <ele>115</ele>
        <time>2024-04-11T12:37:19.000Z</time>
      </trkpt>
      <trkpt lat="44.15567" lon="0.74627">
        <ele>115</ele>
        <time>2024-04-11T12:37:20.000Z</time>
      </trkpt>
      <trkpt lat="44.15567" lon="0.74627">
        <ele>116</ele>
        <time>2024-04-11T12:37:21.000Z</time>
      </trkpt>
      <trkpt lat="44.15567" lon="0.74627">
        <ele>116</ele>
        <time>2024-04-11T12:37:22.000Z</time>
      </trkpt>
      <trkpt lat="44.15567" lon="0.74627">
        <ele>116</ele>
        <time>2024-04-11T12:37:23.000Z</time>
      </trkpt>
      <trkpt lat="44.15567" lon="0.74627">
        <ele>116</ele>
        <time>2024-04-11T12:37:24.000Z</time>
      </trkpt>
      <trkpt lat="44.15568" lon="0.74627">
        <ele>116</ele>
        <time>2024-04-11T12:37:25.000Z</time>
      </trkpt>
      <trkpt lat="44.15568" lon="0.74626">
        <ele>117</ele>
        <time>2024-04-11T12:37:26.000Z</time>
      </trkpt>
      <trkpt lat="44.15569" lon="0.74626">
        <ele>117</ele>
        <time>2024-04-11T12:37:27.000Z</time>
      </trkpt>
      <trkpt lat="44.1557" lon="0.74626">
        <ele>117</ele>
        <time>2024-04-11T12:37:28.000Z</time>
      </trkpt>
      <trkpt lat="44.15571" lon="0.74625">
        <ele>117</ele>
        <time>2024-04-11T12:37:29.000Z</time>
      </trkpt>
      <trkpt lat="44.15572" lon="0.74625">
        <ele>117</ele>
        <time>2024-04-11T12:37:30.000Z</time>
      </trkpt>
      <trkpt lat="44.15573" lon="0.74625">
        <ele>118</ele>
        <time>2024-04-11T12:37:31.000Z</time>
      </trkpt>
      <trkpt lat="44.15574" lon="0.74624">
        <ele>119</ele>
        <time>2024-04-11T12:37:32.000Z</time>
      </trkpt>
      <trkpt lat="44.15575" lon="0.74624">
        <ele>118</ele>
        <time>2024-04-11T12:37:33.000Z</time>
      </trkpt>
      <trkpt lat="44.15576" lon="0.74623">
        <ele>118</ele>
        <time>2024-04-11T12:37:34.000Z</time>
      </trkpt>
      <trkpt lat="44.15577" lon="0.74623">
        <ele>118</ele>
        <time>2024-04-11T12:37:35.000Z</time>
      </trkpt>
      <trkpt lat="44.15578" lon="0.74623">
        <ele>118</ele>
        <time>2024-04-11T12:37:36.000Z</time>
      </trkpt>
      <trkpt lat="44.15579" lon="0.74622">
        <ele>118</ele>
        <time>2024-04-11T12:37:37.000Z</time>
      </trkpt>
      <trkpt lat="44.15581" lon="0.74622">
        <ele>119</ele>
        <time>2024-04-11T12:37:38.000Z</time>
      </trkpt>
      <trkpt lat="44.15582" lon="0.74623">
        <ele>119</ele>
        <time>2024-04-11T12:37:39.000Z</time>
      </trkpt>
      <trkpt lat="44.15583" lon="0.74623">
        <ele>120</ele>
        <time>2024-04-11T12:37:40.000Z</time>
      </trkpt>
      <trkpt lat="44.15584" lon="0.74624">
        <ele>120</ele>
        <time>2024-04-11T12:37:41.000Z</time>
      </trkpt>
      <trkpt lat="44.15585" lon="0.74625">
        <ele>120</ele>
        <time>2024-04-11T12:37:42.000Z</time>
      </trkpt>
      <trkpt lat="44.15586" lon="0.74626">
        <ele>121</ele>
        <time>2024-04-11T12:37:43.000Z</time>
      </trkpt>
      <trkpt lat="44.15587" lon="0.74627">
        <ele>121</ele>
        <time>2024-04-11T12:37:44.000Z</time>
      </trkpt>
      <trkpt lat="44.15587" lon="0.74628">
        <ele>121</ele>
        <time>2024-04-11T12:37:45.000Z</time>
      </trkpt>
      <trkpt lat="44.15588" lon="0.74629">
        <ele>121</ele>
        <time>2024-04-11T12:37:46.000Z</time>
      </trkpt>
      <trkpt lat="44.15589" lon="0.7463">
        <ele>121</ele>
        <time>2024-04-11T12:37:47.000Z</time>
      </trkpt>
      <trkpt lat="44.15589" lon="0.74631">
        <ele>121</ele>
        <time>2024-04-11T12:37:48.000Z</time>
      </trkpt>
      <trkpt lat="44.15589" lon="0.74632">
        <ele>121</ele>
        <time>2024-04-11T12:37:49.000Z</time>
      </trkpt>
      <trkpt lat="44.15589" lon="0.74634">
        <ele>121</ele>
        <time>2024-04-11T12:37:50.000Z</time>
      </trkpt>
      <trkpt lat="44.15589" lon="0.74635">
        <ele>122</ele>
        <time>2024-04-11T12:37:51.000Z</time>
      </trkpt>
      <trkpt lat="44.15589" lon="0.74637">
        <ele>122</ele>
        <time>2024-04-11T12:37:52.000Z</time>
      </trkpt>
      <trkpt lat="44.15588" lon="0.74638">
        <ele>123</ele>
        <time>2024-04-11T12:37:53.000Z</time>
      </trkpt>
      <trkpt lat="44.15588" lon="0.7464">
        <ele>122</ele>
        <time>2024-04-11T12:37:54.000Z</time>
      </trkpt>
      <trkpt lat="44.15588" lon="0.74641">
        <ele>122</ele>
        <time>2024-04-11T12:37:55.000Z</time>
      </trkpt>
      <trkpt lat="44.15587" lon="0.74642">
        <ele>122</ele>
        <time>2024-04-11T12:37:56.000Z</time>
      </trkpt>
      <trkpt lat="44.15587" lon="0.74643">
        <ele>122</ele>
        <time>2024-04-11T12:37:57.000Z</time>
      </trkpt>
      <trkpt lat="44.15586" lon="0.74644">
        <ele>122</ele>
        <time>2024-04-11T12:37:58.000Z</time>
      </trkpt>
      <trkpt lat="44.15585" lon="0.74645">
        <ele>122</ele>
        <time>2024-04-11T12:37:59.000Z</time>
      </trkpt>
      <trkpt lat="44.15585" lon="0.74646">
        <ele>122</ele>
        <time>2024-04-11T12:38:00.000Z</time>
      </trkpt>
      <trkpt lat="44.15584" lon="0.74647">
        <ele>122</ele>
        <time>2024-04-11T12:38:01.000Z</time>
      </trkpt>
      <trkpt lat="44.15583" lon="0.74647">
        <ele>122</ele>
        <time>2024-04-11T12:38:02.000Z</time>
      </trkpt>
      <trkpt lat="44.15582" lon="0.74648">
        <ele>122</ele>
        <time>2024-04-11T12:38:03.000Z</time>
      </trkpt>
      <trkpt lat="44.15582" lon="0.74649">
        <ele>122</ele>
        <time>2024-04-11T12:38:04.000Z</time>
      </trkpt>
      <trkpt lat="44.15581" lon="0.7465">
        <ele>122</ele>
        <time>2024-04-11T12:38:05.000Z</time>
      </trkpt>
      <trkpt lat="44.15581" lon="0.7465">
        <ele>122</ele>
        <time>2024-04-11T12:38:06.000Z</time>
      </trkpt>
      <trkpt lat="44.1558" lon="0.74651">
        <ele>122</ele>
        <time>2024-04-11T12:38:07.000Z</time>
      </trkpt>
      <trkpt lat="44.15579" lon="0.74652">
        <ele>122</ele>
        <time>2024-04-11T12:38:08.000Z</time>
      </trkpt>
      <trkpt lat="44.15579" lon="0.74653">
        <ele>122</ele>
        <time>2024-04-11T12:38:09.000Z</time>
      </trkpt>
      <trkpt lat="44.15578" lon="0.74654">
        <ele>122</ele>
        <time>2024-04-11T12:38:10.000Z</time>
      </trkpt>
      <trkpt lat="44.15577" lon="0.74655">
        <ele>122</ele>
        <time>2024-04-11T12:38:11.000Z</time>
      </trkpt>
      <trkpt lat="44.15576" lon="0.74656">
        <ele>123</ele>
        <time>2024-04-11T12:38:12.000Z</time>
      </trkpt>
      <trkpt lat="44.15576" lon="0.74657">
        <ele>123</ele>
        <time>2024-04-11T12:38:13.000Z</time>
      </trkpt>
      <trkpt lat="44.15575" lon="0.74658">
        <ele>123</ele>
        <time>2024-04-11T12:38:14.000Z</time>
      </trkpt>
      <trkpt lat="44.15574" lon="0.74659">
        <ele>123</ele>
        <time>2024-04-11T12:38:15.000Z</time>
      </trkpt>
      <trkpt lat="44.15573" lon="0.7466">
        <ele>124</ele>
        <time>2024-04-11T12:38:16.000Z</time>
      </trkpt>
      <trkpt lat="44.15573" lon="0.74661">
        <ele>124</ele>
        <time>2024-04-11T12:38:17.000Z</time>
      </trkpt>
      <trkpt lat="44.15572" lon="0.74662">
        <ele>124</ele>
        <time>2024-04-11T12:38:18.000Z</time>
      </trkpt>
      <trkpt lat="44.15572" lon="0.74663">
        <ele>124</ele>
        <time>2024-04-11T12:38:19.000Z</time>
      </trkpt>
      <trkpt lat="44.15572" lon="0.74664">
        <ele>124</ele>
        <time>2024-04-11T12:38:20.000Z</time>
      </trkpt>
      <trkpt lat="44.15571" lon="0.74665">
        <ele>124</ele>
        <time>2024-04-11T12:38:21.000Z</time>
      </trkpt>
      <trkpt lat="44.15571" lon="0.74666">
        <ele>124</ele>
        <time>2024-04-11T12:38:22.000Z</time>
      </trkpt>
      <trkpt lat="44.15571" lon="0.74667">
        <ele>125</ele>
        <time>2024-04-11T12:38:23.000Z</time>
      </trkpt>
      <trkpt lat="44.15571" lon="0.74669">
        <ele>125</ele>
        <time>2024-04-11T12:38:24.000Z</time>
      </trkpt>
      <trkpt lat="44.15571" lon="0.7467">
        <ele>125</ele>
        <time>2024-04-11T12:38:25.000Z</time>
      </trkpt>
      <trkpt lat="44.15572" lon="0.74671">
        <ele>125</ele>
        <time>2024-04-11T12:38:26.000Z</time>
      </trkpt>
      <trkpt lat="44.15572" lon="0.74672">
        <ele>125</ele>
        <time>2024-04-11T12:38:27.000Z</time>
      </trkpt>
      <trkpt lat="44.15572" lon="0.74673">
        <ele>125</ele>
        <time>2024-04-11T12:38:28.000Z</time>
      </trkpt>
      <trkpt lat="44.15573" lon="0.74673">
        <ele>125</ele>
        <time>2024-04-11T12:38:29.000Z</time>
      </trkpt>
      <trkpt lat="44.15574" lon="0.74674">
        <ele>125</ele>
        <time>2024-04-11T12:38:30.000Z</time>
      </trkpt>
      <trkpt lat="44.15574" lon="0.74674">
        <ele>125</ele>
        <time>2024-04-11T12:38:31.000Z</time>
      </trkpt>
      <trkpt lat="44.15575" lon="0.74675">
        <ele>125</ele>
        <time>2024-04-11T12:38:32.000Z</time>
      </trkpt>
      <trkpt lat="44.15575" lon="0.74675">
        <ele>126</ele>
        <time>2024-04-11T12:38:33.000Z</time>
      </trkpt>
      <trkpt lat="44.15576" lon="0.74675">
        <ele>125</ele>
        <time>2024-04-11T12:38:34.000Z</time>
      </trkpt>
      <trkpt lat="44.15577" lon="0.74675">
        <ele>125</ele>
        <time>2024-04-11T12:38:35.000Z</time>
      </trkpt>
      <trkpt lat="44.15579" lon="0.74675">
        <ele>125</ele>
        <time>2024-04-11T12:38:36.000Z</time>
      </trkpt>
      <trkpt lat="44.15579" lon="0.74674">
        <ele>125</ele>
        <time>2024-04-11T12:38:37.000Z</time>
      </trkpt>
      <trkpt lat="44.1558" lon="0.74674">
        <ele>125</ele>
        <time>2024-04-11T12:38:38.000Z</time>
      </trkpt>
      <trkpt lat="44.15581" lon="0.74674">
        <ele>125</ele>
        <time>2024-04-11T12:38:39.000Z</time>
      </trkpt>
      <trkpt lat="44.15582" lon="0.74673">
        <ele>125</ele>
        <time>2024-04-11T12:38:40.000Z</time>
      </trkpt>
      <trkpt lat="44.15583" lon="0.74673">
        <ele>124</ele>
        <time>2024-04-11T12:38:41.000Z</time>
      </trkpt>
      <trkpt lat="44.15584" lon="0.74672">
        <ele>124</ele>
        <time>2024-04-11T12:38:42.000Z</time>
      </trkpt>
      <trkpt lat="44.15584" lon="0.74671">
        <ele>124</ele>
        <time>2024-04-11T12:38:43.000Z</time>
      </trkpt>
      <trkpt lat="44.15585" lon="0.74671">
        <ele>124</ele>
        <time>2024-04-11T12:38:44.000Z</time>
      </trkpt>
      <trkpt lat="44.15586" lon="0.7467">
        <ele>124</ele>
        <time>2024-04-11T12:38:45.000Z</time>
      </trkpt>
      <trkpt lat="44.15587" lon="0.7467">
        <ele>124</ele>
        <time>2024-04-11T12:38:46.000Z</time>
      </trkpt>
      <trkpt lat="44.15588" lon="0.74669">
        <ele>124</ele>
        <time>2024-04-11T12:38:47.000Z</time>
      </trkpt>
      <trkpt lat="44.15589" lon="0.74669">
        <ele>124</ele>
        <time>2024-04-11T12:38:48.000Z</time>
      </trkpt>
      <trkpt lat="44.15589" lon="0.74668">
        <ele>124</ele>
        <time>2024-04-11T12:38:49.000Z</time>
      </trkpt>
      <trkpt lat="44.1559" lon="0.74667">
        <ele>124</ele>
        <time>2024-04-11T12:38:50.000Z</time>
      </trkpt>
      <trkpt lat="44.15591" lon="0.74666">
        <ele>124</ele>
        <time>2024-04-11T12:38:51.000Z</time>
      </trkpt>
      <trkpt lat="44.15592" lon="0.74666">
        <ele>124</ele>
        <time>2024-04-11T12:38:52.000Z</time>
      </trkpt>
      <trkpt lat="44.15593" lon="0.74665">
        <ele>125</ele>
        <time>2024-04-11T12:38:53.000Z</time>
      </trkpt>
      <trkpt lat="44.15594" lon="0.74665">
        <ele>125</ele>
        <time>2024-04-11T12:38:54.000Z</time>
      </trkpt>
      <trkpt lat="44.15594" lon="0.74664">
        <ele>125</ele>
        <time>2024-04-11T12:38:55.000Z</time>
      </trkpt>
      <trkpt lat="44.15595" lon="0.74663">
        <ele>125</ele>
        <time>2024-04-11T12:38:56.000Z</time>
      </trkpt>
      <trkpt lat="44.15596" lon="0.74663">
        <ele>125</ele>
        <time>2024-04-11T12:38:57.000Z</time>
      </trkpt>
      <trkpt lat="44.15597" lon="0.74662">
        <ele>125</ele>
        <time>2024-04-11T12:38:58.000Z</time>
      </trkpt>
      <trkpt lat="44.15598" lon="0.74662">
        <ele>125</ele>
        <time>2024-04-11T12:38:59.000Z</time>
      </trkpt>
      <trkpt lat="44.15598" lon="0.74661">
        <ele>125</ele>
        <time>2024-04-11T12:39:00.000Z</time>
      </trkpt>
      <trkpt lat="44.15599" lon="0.74661">
        <ele>125</ele>
        <time>2024-04-11T12:39:01.000Z</time>
      </trkpt>
      <trkpt lat="44.156" lon="0.74661">
        <ele>125</ele>
        <time>2024-04-11T12:39:02.000Z</time>
      </trkpt>
      <trkpt lat="44.15601" lon="0.74661">
        <ele>125</ele>
        <time>2024-04-11T12:39:03.000Z</time>
      </trkpt>
      <trkpt lat="44.15601" lon="0.74661">
        <ele>125</ele>
        <time>2024-04-11T12:39:04.000Z</time>
      </trkpt>
      <trkpt lat="44.15602" lon="0.74661">
        <ele>125</ele>
        <time>2024-04-11T12:39:05.000Z</time>
      </trkpt>
      <trkpt lat="44.15603" lon="0.74661">
        <ele>125</ele>
        <time>2024-04-11T12:39:06.000Z</time>
      </trkpt>
      <trkpt lat="44.15604" lon="0.74661">
        <ele>125</ele>
        <time>2024-04-11T12:39:07.000Z</time>
      </trkpt>
      <trkpt lat="44.15605" lon="0.74661">
        <ele>124</ele>
        <time>2024-04-11T12:39:08.000Z</time>
      </trkpt>
      <trkpt lat="44.15606" lon="0.7466">
        <ele>125</ele>
        <time>2024-04-11T12:39:09.000Z</time>
      </trkpt>
      <trkpt lat="44.15606" lon="0.7466">
        <ele>124</ele>
        <time>2024-04-11T12:39:10.000Z</time>
      </trkpt>
      <trkpt lat="44.15607" lon="0.7466">
        <ele>124</ele>
        <time>2024-04-11T12:39:11.000Z</time>
      </trkpt>
      <trkpt lat="44.15608" lon="0.74659">
        <ele>124</ele>
        <time>2024-04-11T12:39:12.000Z</time>
      </trkpt>
      <trkpt lat="44.15609" lon="0.74658">
        <ele>125</ele>
        <time>2024-04-11T12:39:13.000Z</time>
      </trkpt>
      <trkpt lat="44.1561" lon="0.74658">
        <ele>124</ele>
        <time>2024-04-11T12:39:14.000Z</time>
      </trkpt>
      <trkpt lat="44.15611" lon="0.74658">
        <ele>124</ele>
        <time>2024-04-11T12:39:15.000Z</time>
      </trkpt>
      <trkpt lat="44.15612" lon="0.74657">
        <ele>125</ele>
        <time>2024-04-11T12:39:16.000Z</time>
      </trkpt>
      <trkpt lat="44.15613" lon="0.74657">
        <ele>124</ele>
        <time>2024-04-11T12:39:17.000Z</time>
      </trkpt>
      <trkpt lat="44.15614" lon="0.74656">
        <ele>124</ele>
        <time>2024-04-11T12:39:18.000Z</time>
      </trkpt>
      <trkpt lat="44.15614" lon="0.74656">
        <ele>124</ele>
        <time>2024-04-11T12:39:19.000Z</time>
      </trkpt>
      <trkpt lat="44.15615" lon="0.74655">
        <ele>124</ele>
        <time>2024-04-11T12:39:20.000Z</time>
      </trkpt>
      <trkpt lat="44.15616" lon="0.74655">
        <ele>124</ele>
        <time>2024-04-11T12:39:21.000Z</time>
      </trkpt>
      <trkpt lat="44.15617" lon="0.74654">
        <ele>123</ele>
        <time>2024-04-11T12:39:22.000Z</time>
      </trkpt>
      <trkpt lat="44.15618" lon="0.74654">
        <ele>123</ele>
        <time>2024-04-11T12:39:23.000Z</time>
      </trkpt>
      <trkpt lat="44.15619" lon="0.74653">
        <ele>123</ele>
        <time>2024-04-11T12:39:24.000Z</time>
      </trkpt>
      <trkpt lat="44.1562" lon="0.74652">
        <ele>123</ele>
        <time>2024-04-11T12:39:25.000Z</time>
      </trkpt>
      <trkpt lat="44.15621" lon="0.74651">
        <ele>123</ele>
        <time>2024-04-11T12:39:26.000Z</time>
      </trkpt>
      <trkpt lat="44.15622" lon="0.7465">
        <ele>123</ele>
        <time>2024-04-11T12:39:27.000Z</time>
      </trkpt>
      <trkpt lat="44.15622" lon="0.7465">
        <ele>124</ele>
        <time>2024-04-11T12:39:28.000Z</time>
      </trkpt>
      <trkpt lat="44.15623" lon="0.74649">
        <ele>124</ele>
        <time>2024-04-11T12:39:29.000Z</time>
      </trkpt>
      <trkpt lat="44.15624" lon="0.74648">
        <ele>124</ele>
        <time>2024-04-11T12:39:30.000Z</time>
      </trkpt>
      <trkpt lat="44.15625" lon="0.74648">
        <ele>125</ele>
        <time>2024-04-11T12:39:31.000Z</time>
      </trkpt>
      <trkpt lat="44.15625" lon="0.74647">
        <ele>125</ele>
        <time>2024-04-11T12:39:32.000Z</time>
      </trkpt>
      <trkpt lat="44.15626" lon="0.74647">
        <ele>126</ele>
        <time>2024-04-11T12:39:33.000Z</time>
      </trkpt>
      <trkpt lat="44.15626" lon="0.74646">
        <ele>126</ele>
        <time>2024-04-11T12:39:34.000Z</time>
      </trkpt>
      <trkpt lat="44.15627" lon="0.74646">
        <ele>126</ele>
        <time>2024-04-11T12:39:35.000Z</time>
      </trkpt>
      <trkpt lat="44.15626" lon="0.74646">
        <ele>127</ele>
        <time>2024-04-11T12:39:36.000Z</time>
      </trkpt>
      <trkpt lat="44.15626" lon="0.74646">
        <ele>126</ele>
        <time>2024-04-11T12:39:37.000Z</time>
      </trkpt>
      <trkpt lat="44.15626" lon="0.74646">
        <ele>127</ele>
        <time>2024-04-11T12:39:38.000Z</time>
      </trkpt>
      <trkpt lat="44.15626" lon="0.74646">
        <ele>127</ele>
        <time>2024-04-11T12:39:39.000Z</time>
      </trkpt>
      <trkpt lat="44.15626" lon="0.74646">
        <ele>128</ele>
        <time>2024-04-11T12:39:40.000Z</time>
      </trkpt>
      <trkpt lat="44.15627" lon="0.74646">
        <ele>127</ele>
        <time>2024-04-11T12:39:41.000Z</time>
      </trkpt>
      <trkpt lat="44.15627" lon="0.74646">
        <ele>126</ele>
        <time>2024-04-11T12:39:42.000Z</time>
      </trkpt>
      <trkpt lat="44.15628" lon="0.74645">
        <ele>127</ele>
        <time>2024-04-11T12:39:43.000Z</time>
      </trkpt>
      <trkpt lat="44.15629" lon="0.74645">
        <ele>127</ele>
        <time>2024-04-11T12:39:44.000Z</time>
      </trkpt>
      <trkpt lat="44.15629" lon="0.74644">
        <ele>126</ele>
        <time>2024-04-11T12:39:45.000Z</time>
      </trkpt>
      <trkpt lat="44.1563" lon="0.74644">
        <ele>127</ele>
        <time>2024-04-11T12:39:46.000Z</time>
      </trkpt>
      <trkpt lat="44.15631" lon="0.74643">
        <ele>127</ele>
        <time>2024-04-11T12:39:47.000Z</time>
      </trkpt>
      <trkpt lat="44.15632" lon="0.74643">
        <ele>127</ele>
        <time>2024-04-11T12:39:48.000Z</time>
      </trkpt>
      <trkpt lat="44.15632" lon="0.74643">
        <ele>128</ele>
        <time>2024-04-11T12:39:49.000Z</time>
      </trkpt>
      <trkpt lat="44.15633" lon="0.74643">
        <ele>127</ele>
        <time>2024-04-11T12:39:50.000Z</time>
      </trkpt>
      <trkpt lat="44.15633" lon="0.74643">
        <ele>127</ele>
        <time>2024-04-11T12:39:51.000Z</time>
      </trkpt>
      <trkpt lat="44.15633" lon="0.74643">
        <ele>127</ele>
        <time>2024-04-11T12:39:52.000Z</time>
      </trkpt>
      <trkpt lat="44.15633" lon="0.74643">
        <ele>127</ele>
        <time>2024-04-11T12:39:53.000Z</time>
      </trkpt>
      <trkpt lat="44.15633" lon="0.74642">
        <ele>127</ele>
        <time>2024-04-11T12:39:54.000Z</time>
      </trkpt>
      <trkpt lat="44.15634" lon="0.74642">
        <ele>127</ele>
        <time>2024-04-11T12:39:55.000Z</time>
      </trkpt>
      <trkpt lat="44.15635" lon="0.74641">
        <ele>128</ele>
        <time>2024-04-11T12:39:56.000Z</time>
      </trkpt>
      <trkpt lat="44.15636" lon="0.74641">
        <ele>128</ele>
        <time>2024-04-11T12:39:57.000Z</time>
      </trkpt>
      <trkpt lat="44.15636" lon="0.7464">
        <ele>128</ele>
        <time>2024-04-11T12:39:58.000Z</time>
      </trkpt>
      <trkpt lat="44.15637" lon="0.7464">
        <ele>128</ele>
        <time>2024-04-11T12:39:59.000Z</time>
      </trkpt>
      <trkpt lat="44.15638" lon="0.74639">
        <ele>128</ele>
        <time>2024-04-11T12:40:00.000Z</time>
      </trkpt>
      <trkpt lat="44.15638" lon="0.74639">
        <ele>128</ele>
        <time>2024-04-11T12:40:01.000Z</time>
      </trkpt>
      <trkpt lat="44.15639" lon="0.74638">
        <ele>128</ele>
        <time>2024-04-11T12:40:02.000Z</time>
      </trkpt>
      <trkpt lat="44.1564" lon="0.74638">
        <ele>128</ele>
        <time>2024-04-11T12:40:03.000Z</time>
      </trkpt>
      <trkpt lat="44.15641" lon="0.74638">
        <ele>129</ele>
        <time>2024-04-11T12:40:04.000Z</time>
      </trkpt>
      <trkpt lat="44.15642" lon="0.74638">
        <ele>129</ele>
        <time>2024-04-11T12:40:05.000Z</time>
      </trkpt>
      <trkpt lat="44.15643" lon="0.74637">
        <ele>129</ele>
        <time>2024-04-11T12:40:06.000Z</time>
      </trkpt>
      <trkpt lat="44.15644" lon="0.74637">
        <ele>129</ele>
        <time>2024-04-11T12:40:07.000Z</time>
      </trkpt>
      <trkpt lat="44.15644" lon="0.74637">
        <ele>130</ele>
        <time>2024-04-11T12:40:08.000Z</time>
      </trkpt>
      <trkpt lat="44.15645" lon="0.74637">
        <ele>130</ele>
        <time>2024-04-11T12:40:09.000Z</time>
      </trkpt>
      <trkpt lat="44.15646" lon="0.74637">
        <ele>131</ele>
        <time>2024-04-11T12:40:10.000Z</time>
      </trkpt>
      <trkpt lat="44.15647" lon="0.74637">
        <ele>131</ele>
        <time>2024-04-11T12:40:11.000Z</time>
      </trkpt>
      <trkpt lat="44.15648" lon="0.74637">
        <ele>131</ele>
        <time>2024-04-11T12:40:12.000Z</time>
      </trkpt>
      <trkpt lat="44.15649" lon="0.74637">
        <ele>131</ele>
        <time>2024-04-11T12:40:13.000Z</time>
      </trkpt>
      <trkpt lat="44.1565" lon="0.74637">
        <ele>131</ele>
        <time>2024-04-11T12:40:14.000Z</time>
      </trkpt>
      <trkpt lat="44.15651" lon="0.74637">
        <ele>132</ele>
        <time>2024-04-11T12:40:15.000Z</time>
      </trkpt>
      <trkpt lat="44.15651" lon="0.74637">
        <ele>132</ele>
        <time>2024-04-11T12:40:16.000Z</time>
      </trkpt>
      <trkpt lat="44.15652" lon="0.74638">
        <ele>133</ele>
        <time>2024-04-11T12:40:17.000Z</time>
      </trkpt>
      <trkpt lat="44.15653" lon="0.74638">
        <ele>133</ele>
        <time>2024-04-11T12:40:18.000Z</time>
      </trkpt>
      <trkpt lat="44.15654" lon="0.74639">
        <ele>133</ele>
        <time>2024-04-11T12:40:19.000Z</time>
      </trkpt>
      <trkpt lat="44.15654" lon="0.7464">
        <ele>133</ele>
        <time>2024-04-11T12:40:20.000Z</time>
      </trkpt>
      <trkpt lat="44.15655" lon="0.74641">
        <ele>133</ele>
        <time>2024-04-11T12:40:21.000Z</time>
      </trkpt>
      <trkpt lat="44.15656" lon="0.74642">
        <ele>134</ele>
        <time>2024-04-11T12:40:22.000Z</time>
      </trkpt>
      <trkpt lat="44.15656" lon="0.74642">
        <ele>134</ele>
        <time>2024-04-11T12:40:23.000Z</time>
      </trkpt>
      <trkpt lat="44.15656" lon="0.74643">
        <ele>134</ele>
        <time>2024-04-11T12:40:24.000Z</time>
      </trkpt>
      <trkpt lat="44.15657" lon="0.74644">
        <ele>134</ele>
        <time>2024-04-11T12:40:25.000Z</time>
      </trkpt>
      <trkpt lat="44.15657" lon="0.74645">
        <ele>134</ele>
        <time>2024-04-11T12:40:26.000Z</time>
      </trkpt>
      <trkpt lat="44.15658" lon="0.74646">
        <ele>134</ele>
        <time>2024-04-11T12:40:27.000Z</time>
      </trkpt>
      <trkpt lat="44.15658" lon="0.74647">
        <ele>135</ele>
        <time>2024-04-11T12:40:28.000Z</time>
      </trkpt>
      <trkpt lat="44.15659" lon="0.74648">
        <ele>135</ele>
        <time>2024-04-11T12:40:29.000Z</time>
      </trkpt>
      <trkpt lat="44.15659" lon="0.74649">
        <ele>135</ele>
        <time>2024-04-11T12:40:30.000Z</time>
      </trkpt>
      <trkpt lat="44.15659" lon="0.7465">
        <ele>135</ele>
        <time>2024-04-11T12:40:31.000Z</time>
      </trkpt>
      <trkpt lat="44.1566" lon="0.74651">
        <ele>135</ele>
        <time>2024-04-11T12:40:32.000Z</time>
      </trkpt>
      <trkpt lat="44.1566" lon="0.74652">
        <ele>135</ele>
        <time>2024-04-11T12:40:33.000Z</time>
      </trkpt>
      <trkpt lat="44.1566" lon="0.74653">
        <ele>135</ele>
        <time>2024-04-11T12:40:34.000Z</time>
      </trkpt>
      <trkpt lat="44.1566" lon="0.74654">
        <ele>135</ele>
        <time>2024-04-11T12:40:35.000Z</time>
      </trkpt>
      <trkpt lat="44.1566" lon="0.74656">
        <ele>135</ele>
        <time>2024-04-11T12:40:36.000Z</time>
      </trkpt>
      <trkpt lat="44.15661" lon="0.74657">
        <ele>135</ele>
        <time>2024-04-11T12:40:37.000Z</time>
      </trkpt>
      <trkpt lat="44.15661" lon="0.74658">
        <ele>135</ele>
        <time>2024-04-11T12:40:38.000Z</time>
      </trkpt>
      <trkpt lat="44.15661" lon="0.74659">
        <ele>135</ele>
        <time>2024-04-11T12:40:39.000Z</time>
      </trkpt>
      <trkpt lat="44.15661" lon="0.7466">
        <ele>135</ele>
        <time>2024-04-11T12:40:40.000Z</time>
      </trkpt>
      <trkpt lat="44.1566" lon="0.74661">
        <ele>135</ele>
        <time>2024-04-11T12:40:41.000Z</time>
      </trkpt>
      <trkpt lat="44.1566" lon="0.74662">
        <ele>135</ele>
        <time>2024-04-11T12:40:42.000Z</time>
      </trkpt>
      <trkpt lat="44.15661" lon="0.74664">
        <ele>135</ele>
        <time>2024-04-11T12:40:43.000Z</time>
      </trkpt>
      <trkpt lat="44.15661" lon="0.74665">
        <ele>136</ele>
        <time>2024-04-11T12:40:44.000Z</time>
      </trkpt>
      <trkpt lat="44.1566" lon="0.74666">
        <ele>136</ele>
        <time>2024-04-11T12:40:45.000Z</time>
      </trkpt>
      <trkpt lat="44.1566" lon="0.74667">
        <ele>136</ele>
        <time>2024-04-11T12:40:46.000Z</time>
      </trkpt>
      <trkpt lat="44.1566" lon="0.74668">
        <ele>136</ele>
        <time>2024-04-11T12:40:47.000Z</time>
      </trkpt>
      <trkpt lat="44.1566" lon="0.7467">
        <ele>136</ele>
        <time>2024-04-11T12:40:48.000Z</time>
      </trkpt>
      <trkpt lat="44.1566" lon="0.74671">
        <ele>136</ele>
        <time>2024-04-11T12:40:49.000Z</time>
      </trkpt>
      <trkpt lat="44.1566" lon="0.74672">
        <ele>136</ele>
        <time>2024-04-11T12:40:50.000Z</time>
      </trkpt>
      <trkpt lat="44.1566" lon="0.74673">
        <ele>136</ele>
        <time>2024-04-11T12:40:51.000Z</time>
      </trkpt>
      <trkpt lat="44.1566" lon="0.74675">
        <ele>137</ele>
        <time>2024-04-11T12:40:52.000Z</time>
      </trkpt>
      <trkpt lat="44.1566" lon="0.74676">
        <ele>137</ele>
        <time>2024-04-11T12:40:53.000Z</time>
      </trkpt>
      <trkpt lat="44.1566" lon="0.74677">
        <ele>137</ele>
        <time>2024-04-11T12:40:54.000Z</time>
      </trkpt>
      <trkpt lat="44.1566" lon="0.74678">
        <ele>137</ele>
        <time>2024-04-11T12:40:55.000Z</time>
      </trkpt>
      <trkpt lat="44.1566" lon="0.7468">
        <ele>137</ele>
        <time>2024-04-11T12:40:56.000Z</time>
      </trkpt>
      <trkpt lat="44.1566" lon="0.74681">
        <ele>137</ele>
        <time>2024-04-11T12:40:57.000Z</time>
      </trkpt>
      <trkpt lat="44.1566" lon="0.74682">
        <ele>137</ele>
        <time>2024-04-11T12:40:58.000Z</time>
      </trkpt>
      <trkpt lat="44.1566" lon="0.74683">
        <ele>138</ele>
        <time>2024-04-11T12:40:59.000Z</time>
      </trkpt>
      <trkpt lat="44.15661" lon="0.74684">
        <ele>138</ele>
        <time>2024-04-11T12:41:00.000Z</time>
      </trkpt>
      <trkpt lat="44.15661" lon="0.74685">
        <ele>138</ele>
        <time>2024-04-11T12:41:01.000Z</time>
      </trkpt>
      <trkpt lat="44.15661" lon="0.74686">
        <ele>138</ele>
        <time>2024-04-11T12:41:02.000Z</time>
      </trkpt>
      <trkpt lat="44.15661" lon="0.74687">
        <ele>138</ele>
        <time>2024-04-11T12:41:03.000Z</time>
      </trkpt>
      <trkpt lat="44.15661" lon="0.74689">
        <ele>138</ele>
        <time>2024-04-11T12:41:04.000Z</time>
      </trkpt>
      <trkpt lat="44.15661" lon="0.7469">
        <ele>138</ele>
        <time>2024-04-11T12:41:05.000Z</time>
      </trkpt>
      <trkpt lat="44.15661" lon="0.74691">
        <ele>139</ele>
        <time>2024-04-11T12:41:06.000Z</time>
      </trkpt>
      <trkpt lat="44.15661" lon="0.74692">
        <ele>139</ele>
        <time>2024-04-11T12:41:07.000Z</time>
      </trkpt>
      <trkpt lat="44.15661" lon="0.74693">
        <ele>139</ele>
        <time>2024-04-11T12:41:08.000Z</time>
      </trkpt>
      <trkpt lat="44.15661" lon="0.74694">
        <ele>139</ele>
        <time>2024-04-11T12:41:09.000Z</time>
      </trkpt>
      <trkpt lat="44.15662" lon="0.74696">
        <ele>139</ele>
        <time>2024-04-11T12:41:10.000Z</time>
      </trkpt>
      <trkpt lat="44.15662" lon="0.74697">
        <ele>139</ele>
        <time>2024-04-11T12:41:11.000Z</time>
      </trkpt>
      <trkpt lat="44.15662" lon="0.74698">
        <ele>140</ele>
        <time>2024-04-11T12:41:12.000Z</time>
      </trkpt>
      <trkpt lat="44.15662" lon="0.74699">
        <ele>140</ele>
        <time>2024-04-11T12:41:13.000Z</time>
      </trkpt>
      <trkpt lat="44.15662" lon="0.747">
        <ele>140</ele>
        <time>2024-04-11T12:41:14.000Z</time>
      </trkpt>
      <trkpt lat="44.15662" lon="0.74701">
        <ele>140</ele>
        <time>2024-04-11T12:41:15.000Z</time>
      </trkpt>
      <trkpt lat="44.15663" lon="0.74702">
        <ele>140</ele>
        <time>2024-04-11T12:41:16.000Z</time>
      </trkpt>
      <trkpt lat="44.15663" lon="0.74703">
        <ele>140</ele>
        <time>2024-04-11T12:41:17.000Z</time>
      </trkpt>
      <trkpt lat="44.15663" lon="0.74704">
        <ele>140</ele>
        <time>2024-04-11T12:41:18.000Z</time>
      </trkpt>
      <trkpt lat="44.15664" lon="0.74705">
        <ele>140</ele>
        <time>2024-04-11T12:41:19.000Z</time>
      </trkpt>
      <trkpt lat="44.15664" lon="0.74706">
        <ele>140</ele>
        <time>2024-04-11T12:41:20.000Z</time>
      </trkpt>
      <trkpt lat="44.15665" lon="0.74707">
        <ele>140</ele>
        <time>2024-04-11T12:41:21.000Z</time>
      </trkpt>
      <trkpt lat="44.15665" lon="0.74708">
        <ele>141</ele>
        <time>2024-04-11T12:41:22.000Z</time>
      </trkpt>
      <trkpt lat="44.15665" lon="0.74709">
        <ele>141</ele>
        <time>2024-04-11T12:41:23.000Z</time>
      </trkpt>
      <trkpt lat="44.15666" lon="0.7471">
        <ele>141</ele>
        <time>2024-04-11T12:41:24.000Z</time>
      </trkpt>
      <trkpt lat="44.15666" lon="0.74711">
        <ele>141</ele>
        <time>2024-04-11T12:41:25.000Z</time>
      </trkpt>
      <trkpt lat="44.15667" lon="0.74712">
        <ele>141</ele>
        <time>2024-04-11T12:41:26.000Z</time>
      </trkpt>
      <trkpt lat="44.15668" lon="0.74713">
        <ele>142</ele>
        <time>2024-04-11T12:41:27.000Z</time>
      </trkpt>
      <trkpt lat="44.15668" lon="0.74714">
        <ele>142</ele>
        <time>2024-04-11T12:41:28.000Z</time>
      </trkpt>
      <trkpt lat="44.15669" lon="0.74715">
        <ele>141</ele>
        <time>2024-04-11T12:41:29.000Z</time>
      </trkpt>
      <trkpt lat="44.1567" lon="0.74716">
        <ele>142</ele>
        <time>2024-04-11T12:41:30.000Z</time>
      </trkpt>
      <trkpt lat="44.1567" lon="0.74717">
        <ele>142</ele>
        <time>2024-04-11T12:41:31.000Z</time>
      </trkpt>
      <trkpt lat="44.15671" lon="0.74717">
        <ele>142</ele>
        <time>2024-04-11T12:41:32.000Z</time>
      </trkpt>
      <trkpt lat="44.15672" lon="0.74719">
        <ele>142</ele>
        <time>2024-04-11T12:41:33.000Z</time>
      </trkpt>
      <trkpt lat="44.15672" lon="0.74719">
        <ele>142</ele>
        <time>2024-04-11T12:41:34.000Z</time>
      </trkpt>
      <trkpt lat="44.15673" lon="0.7472">
        <ele>142</ele>
        <time>2024-04-11T12:41:35.000Z</time>
      </trkpt>
      <trkpt lat="44.15674" lon="0.74721">
        <ele>142</ele>
        <time>2024-04-11T12:41:36.000Z</time>
      </trkpt>
      <trkpt lat="44.15675" lon="0.74722">
        <ele>142</ele>
        <time>2024-04-11T12:41:37.000Z</time>
      </trkpt>
      <trkpt lat="44.15675" lon="0.74723">
        <ele>142</ele>
        <time>2024-04-11T12:41:38.000Z</time>
      </trkpt>
      <trkpt lat="44.15676" lon="0.74724">
        <ele>142</ele>
        <time>2024-04-11T12:41:39.000Z</time>
      </trkpt>
      <trkpt lat="44.15677" lon="0.74725">
        <ele>142</ele>
        <time>2024-04-11T12:41:40.000Z</time>
      </trkpt>
      <trkpt lat="44.15678" lon="0.74726">
        <ele>142</ele>
        <time>2024-04-11T12:41:41.000Z</time>
      </trkpt>
      <trkpt lat="44.15678" lon="0.74726">
        <ele>142</ele>
        <time>2024-04-11T12:41:42.000Z</time>
      </trkpt>
      <trkpt lat="44.15679" lon="0.74727">
        <ele>142</ele>
        <time>2024-04-11T12:41:43.000Z</time>
      </trkpt>
      <trkpt lat="44.15679" lon="0.74728">
        <ele>142</ele>
        <time>2024-04-11T12:41:44.000Z</time>
      </trkpt>
      <trkpt lat="44.1568" lon="0.74728">
        <ele>142</ele>
        <time>2024-04-11T12:41:45.000Z</time>
      </trkpt>
      <trkpt lat="44.15681" lon="0.74729">
        <ele>142</ele>
        <time>2024-04-11T12:41:46.000Z</time>
      </trkpt>
      <trkpt lat="44.15681" lon="0.7473">
        <ele>142</ele>
        <time>2024-04-11T12:41:47.000Z</time>
      </trkpt>
      <trkpt lat="44.15682" lon="0.7473">
        <ele>142</ele>
        <time>2024-04-11T12:41:48.000Z</time>
      </trkpt>
      <trkpt lat="44.15682" lon="0.74731">
        <ele>142</ele>
        <time>2024-04-11T12:41:49.000Z</time>
      </trkpt>
      <trkpt lat="44.15683" lon="0.74731">
        <ele>142</ele>
        <time>2024-04-11T12:41:50.000Z</time>
      </trkpt>
      <trkpt lat="44.15684" lon="0.74732">
        <ele>143</ele>
        <time>2024-04-11T12:41:51.000Z</time>
      </trkpt>
      <trkpt lat="44.15684" lon="0.74732">
        <ele>143</ele>
        <time>2024-04-11T12:41:52.000Z</time>
      </trkpt>
      <trkpt lat="44.15685" lon="0.74733">
        <ele>143</ele>
        <time>2024-04-11T12:41:53.000Z</time>
      </trkpt>
      <trkpt lat="44.15685" lon="0.74734">
        <ele>143</ele>
        <time>2024-04-11T12:41:54.000Z</time>
      </trkpt>
      <trkpt lat="44.15685" lon="0.74734">
        <ele>143</ele>
        <time>2024-04-11T12:41:55.000Z</time>
      </trkpt>
      <trkpt lat="44.15686" lon="0.74735">
        <ele>143</ele>
        <time>2024-04-11T12:41:56.000Z</time>
      </trkpt>
      <trkpt lat="44.15686" lon="0.74735">
        <ele>143</ele>
        <time>2024-04-11T12:41:57.000Z</time>
      </trkpt>
      <trkpt lat="44.15686" lon="0.74736">
        <ele>144</ele>
        <time>2024-04-11T12:41:58.000Z</time>
      </trkpt>
      <trkpt lat="44.15687" lon="0.74736">
        <ele>143</ele>
        <time>2024-04-11T12:41:59.000Z</time>
      </trkpt>
      <trkpt lat="44.15687" lon="0.74736">
        <ele>144</ele>
        <time>2024-04-11T12:42:00.000Z</time>
      </trkpt>
      <trkpt lat="44.15687" lon="0.74736">
        <ele>144</ele>
        <time>2024-04-11T12:42:01.000Z</time>
      </trkpt>
      <trkpt lat="44.15686" lon="0.74736">
        <ele>144</ele>
        <time>2024-04-11T12:42:02.000Z</time>
      </trkpt>
      <trkpt lat="44.15686" lon="0.74736">
        <ele>144</ele>
        <time>2024-04-11T12:42:03.000Z</time>
      </trkpt>
      <trkpt lat="44.15686" lon="0.74736">
        <ele>144</ele>
        <time>2024-04-11T12:42:04.000Z</time>
      </trkpt>
      <trkpt lat="44.15687" lon="0.74736">
        <ele>144</ele>
        <time>2024-04-11T12:42:05.000Z</time>
      </trkpt>
      <trkpt lat="44.15687" lon="0.74737">
        <ele>144</ele>
        <time>2024-04-11T12:42:06.000Z</time>
      </trkpt>
      <trkpt lat="44.15688" lon="0.74737">
        <ele>144</ele>
        <time>2024-04-11T12:42:07.000Z</time>
      </trkpt>
      <trkpt lat="44.15688" lon="0.74738">
        <ele>144</ele>
        <time>2024-04-11T12:42:08.000Z</time>
      </trkpt>
      <trkpt lat="44.15689" lon="0.74739">
        <ele>144</ele>
        <time>2024-04-11T12:42:09.000Z</time>
      </trkpt>
      <trkpt lat="44.15689" lon="0.74739">
        <ele>144</ele>
        <time>2024-04-11T12:42:10.000Z</time>
      </trkpt>
      <trkpt lat="44.1569" lon="0.7474">
        <ele>144</ele>
        <time>2024-04-11T12:42:11.000Z</time>
      </trkpt>
      <trkpt lat="44.1569" lon="0.74741">
        <ele>144</ele>
        <time>2024-04-11T12:42:12.000Z</time>
      </trkpt>
      <trkpt lat="44.15691" lon="0.74741">
        <ele>145</ele>
        <time>2024-04-11T12:42:13.000Z</time>
      </trkpt>
      <trkpt lat="44.15691" lon="0.74742">
        <ele>145</ele>
        <time>2024-04-11T12:42:14.000Z</time>
      </trkpt>
      <trkpt lat="44.15692" lon="0.74743">
        <ele>145</ele>
        <time>2024-04-11T12:42:15.000Z</time>
      </trkpt>
      <trkpt lat="44.15693" lon="0.74744">
        <ele>146</ele>
        <time>2024-04-11T12:42:16.000Z</time>
      </trkpt>
      <trkpt lat="44.15693" lon="0.74745">
        <ele>146</ele>
        <time>2024-04-11T12:42:17.000Z</time>
      </trkpt>
      <trkpt lat="44.15694" lon="0.74745">
        <ele>146</ele>
        <time>2024-04-11T12:42:18.000Z</time>
      </trkpt>
      <trkpt lat="44.15694" lon="0.74746">
        <ele>146</ele>
        <time>2024-04-11T12:42:19.000Z</time>
      </trkpt>
      <trkpt lat="44.15695" lon="0.74747">
        <ele>147</ele>
        <time>2024-04-11T12:42:20.000Z</time>
      </trkpt>
      <trkpt lat="44.15696" lon="0.74748">
        <ele>147</ele>
        <time>2024-04-11T12:42:21.000Z</time>
      </trkpt>
      <trkpt lat="44.15696" lon="0.74749">
        <ele>147</ele>
        <time>2024-04-11T12:42:22.000Z</time>
      </trkpt>
      <trkpt lat="44.15697" lon="0.74749">
        <ele>147</ele>
        <time>2024-04-11T12:42:23.000Z</time>
      </trkpt>
      <trkpt lat="44.15698" lon="0.7475">
        <ele>147</ele>
        <time>2024-04-11T12:42:24.000Z</time>
      </trkpt>
      <trkpt lat="44.15699" lon="0.74751">
        <ele>147</ele>
        <time>2024-04-11T12:42:25.000Z</time>
      </trkpt>
      <trkpt lat="44.15699" lon="0.74752">
        <ele>147</ele>
        <time>2024-04-11T12:42:26.000Z</time>
      </trkpt>
      <trkpt lat="44.157" lon="0.74753">
        <ele>148</ele>
        <time>2024-04-11T12:42:27.000Z</time>
      </trkpt>
      <trkpt lat="44.157" lon="0.74753">
        <ele>148</ele>
        <time>2024-04-11T12:42:28.000Z</time>
      </trkpt>
      <trkpt lat="44.15701" lon="0.74754">
        <ele>148</ele>
        <time>2024-04-11T12:42:29.000Z</time>
      </trkpt>
      <trkpt lat="44.15702" lon="0.74755">
        <ele>148</ele>
        <time>2024-04-11T12:42:30.000Z</time>
      </trkpt>
      <trkpt lat="44.15703" lon="0.74755">
        <ele>148</ele>
        <time>2024-04-11T12:42:31.000Z</time>
      </trkpt>
      <trkpt lat="44.15704" lon="0.74756">
        <ele>148</ele>
        <time>2024-04-11T12:42:32.000Z</time>
      </trkpt>
      <trkpt lat="44.15704" lon="0.74757">
        <ele>148</ele>
        <time>2024-04-11T12:42:33.000Z</time>
      </trkpt>
      <trkpt lat="44.15705" lon="0.74758">
        <ele>148</ele>
        <time>2024-04-11T12:42:34.000Z</time>
      </trkpt>
      <trkpt lat="44.15706" lon="0.74758">
        <ele>148</ele>
        <time>2024-04-11T12:42:35.000Z</time>
      </trkpt>
      <trkpt lat="44.15706" lon="0.74759">
        <ele>148</ele>
        <time>2024-04-11T12:42:36.000Z</time>
      </trkpt>
      <trkpt lat="44.15707" lon="0.7476">
        <ele>148</ele>
        <time>2024-04-11T12:42:37.000Z</time>
      </trkpt>
      <trkpt lat="44.15708" lon="0.74761">
        <ele>148</ele>
        <time>2024-04-11T12:42:38.000Z</time>
      </trkpt>
      <trkpt lat="44.15708" lon="0.74761">
        <ele>149</ele>
        <time>2024-04-11T12:42:39.000Z</time>
      </trkpt>
      <trkpt lat="44.15709" lon="0.74762">
        <ele>149</ele>
        <time>2024-04-11T12:42:40.000Z</time>
      </trkpt>
      <trkpt lat="44.15709" lon="0.74763">
        <ele>149</ele>
        <time>2024-04-11T12:42:41.000Z</time>
      </trkpt>
      <trkpt lat="44.1571" lon="0.74764">
        <ele>150</ele>
        <time>2024-04-11T12:42:42.000Z</time>
      </trkpt>
      <trkpt lat="44.15711" lon="0.74765">
        <ele>150</ele>
        <time>2024-04-11T12:42:43.000Z</time>
      </trkpt>
      <trkpt lat="44.15711" lon="0.74766">
        <ele>150</ele>
        <time>2024-04-11T12:42:44.000Z</time>
      </trkpt>
      <trkpt lat="44.15712" lon="0.74767">
        <ele>150</ele>
        <time>2024-04-11T12:42:45.000Z</time>
      </trkpt>
      <trkpt lat="44.15713" lon="0.74768">
        <ele>151</ele>
        <time>2024-04-11T12:42:46.000Z</time>
      </trkpt>
      <trkpt lat="44.15713" lon="0.74769">
        <ele>151</ele>
        <time>2024-04-11T12:42:47.000Z</time>
      </trkpt>
      <trkpt lat="44.15714" lon="0.7477">
        <ele>151</ele>
        <time>2024-04-11T12:42:48.000Z</time>
      </trkpt>
      <trkpt lat="44.15715" lon="0.7477">
        <ele>151</ele>
        <time>2024-04-11T12:42:49.000Z</time>
      </trkpt>
      <trkpt lat="44.15715" lon="0.74771">
        <ele>151</ele>
        <time>2024-04-11T12:42:50.000Z</time>
      </trkpt>
      <trkpt lat="44.15716" lon="0.74771">
        <ele>151</ele>
        <time>2024-04-11T12:42:51.000Z</time>
      </trkpt>
      <trkpt lat="44.15717" lon="0.74772">
        <ele>151</ele>
        <time>2024-04-11T12:42:52.000Z</time>
      </trkpt>
      <trkpt lat="44.15717" lon="0.74772">
        <ele>151</ele>
        <time>2024-04-11T12:42:53.000Z</time>
      </trkpt>
      <trkpt lat="44.15718" lon="0.74773">
        <ele>152</ele>
        <time>2024-04-11T12:42:54.000Z</time>
      </trkpt>
      <trkpt lat="44.15719" lon="0.74774">
        <ele>152</ele>
        <time>2024-04-11T12:42:55.000Z</time>
      </trkpt>
      <trkpt lat="44.15719" lon="0.74774">
        <ele>152</ele>
        <time>2024-04-11T12:42:56.000Z</time>
      </trkpt>
      <trkpt lat="44.1572" lon="0.74775">
        <ele>152</ele>
        <time>2024-04-11T12:42:57.000Z</time>
      </trkpt>
      <trkpt lat="44.1572" lon="0.74776">
        <ele>153</ele>
        <time>2024-04-11T12:42:58.000Z</time>
      </trkpt>
      <trkpt lat="44.1572" lon="0.74776">
        <ele>153</ele>
        <time>2024-04-11T12:42:59.000Z</time>
      </trkpt>
      <trkpt lat="44.15721" lon="0.74777">
        <ele>153</ele>
        <time>2024-04-11T12:43:00.000Z</time>
      </trkpt>
      <trkpt lat="44.15722" lon="0.74778">
        <ele>153</ele>
        <time>2024-04-11T12:43:01.000Z</time>
      </trkpt>
      <trkpt lat="44.15722" lon="0.74779">
        <ele>154</ele>
        <time>2024-04-11T12:43:02.000Z</time>
      </trkpt>
      <trkpt lat="44.15723" lon="0.74779">
        <ele>154</ele>
        <time>2024-04-11T12:43:03.000Z</time>
      </trkpt>
      <trkpt lat="44.15724" lon="0.7478">
        <ele>154</ele>
        <time>2024-04-11T12:43:04.000Z</time>
      </trkpt>
      <trkpt lat="44.15724" lon="0.7478">
        <ele>154</ele>
        <time>2024-04-11T12:43:05.000Z</time>
      </trkpt>
      <trkpt lat="44.15725" lon="0.74781">
        <ele>154</ele>
        <time>2024-04-11T12:43:06.000Z</time>
      </trkpt>
      <trkpt lat="44.15725" lon="0.74782">
        <ele>155</ele>
        <time>2024-04-11T12:43:07.000Z</time>
      </trkpt>
      <trkpt lat="44.15726" lon="0.74783">
        <ele>155</ele>
        <time>2024-04-11T12:43:08.000Z</time>
      </trkpt>
      <trkpt lat="44.15726" lon="0.74783">
        <ele>155</ele>
        <time>2024-04-11T12:43:09.000Z</time>
      </trkpt>
      <trkpt lat="44.15726" lon="0.74784">
        <ele>156</ele>
        <time>2024-04-11T12:43:10.000Z</time>
      </trkpt>
      <trkpt lat="44.15727" lon="0.74785">
        <ele>156</ele>
        <time>2024-04-11T12:43:11.000Z</time>
      </trkpt>
      <trkpt lat="44.15728" lon="0.74785">
        <ele>156</ele>
        <time>2024-04-11T12:43:12.000Z</time>
      </trkpt>
      <trkpt lat="44.15728" lon="0.74786">
        <ele>156</ele>
        <time>2024-04-11T12:43:13.000Z</time>
      </trkpt>
      <trkpt lat="44.15729" lon="0.74786">
        <ele>157</ele>
        <time>2024-04-11T12:43:14.000Z</time>
      </trkpt>
      <trkpt lat="44.15729" lon="0.74787">
        <ele>157</ele>
        <time>2024-04-11T12:43:15.000Z</time>
      </trkpt>
      <trkpt lat="44.1573" lon="0.74788">
        <ele>157</ele>
        <time>2024-04-11T12:43:16.000Z</time>
      </trkpt>
      <trkpt lat="44.1573" lon="0.74788">
        <ele>157</ele>
        <time>2024-04-11T12:43:17.000Z</time>
      </trkpt>
      <trkpt lat="44.15731" lon="0.74789">
        <ele>157</ele>
        <time>2024-04-11T12:43:18.000Z</time>
      </trkpt>
      <trkpt lat="44.15731" lon="0.7479">
        <ele>157</ele>
        <time>2024-04-11T12:43:19.000Z</time>
      </trkpt>
      <trkpt lat="44.15732" lon="0.74791">
        <ele>157</ele>
        <time>2024-04-11T12:43:20.000Z</time>
      </trkpt>
      <trkpt lat="44.15733" lon="0.74791">
        <ele>157</ele>
        <time>2024-04-11T12:43:21.000Z</time>
      </trkpt>
      <trkpt lat="44.15733" lon="0.74792">
        <ele>157</ele>
        <time>2024-04-11T12:43:22.000Z</time>
      </trkpt>
      <trkpt lat="44.15734" lon="0.74793">
        <ele>158</ele>
        <time>2024-04-11T12:43:23.000Z</time>
      </trkpt>
      <trkpt lat="44.15734" lon="0.74794">
        <ele>158</ele>
        <time>2024-04-11T12:43:24.000Z</time>
      </trkpt>
      <trkpt lat="44.15735" lon="0.74794">
        <ele>158</ele>
        <time>2024-04-11T12:43:25.000Z</time>
      </trkpt>
      <trkpt lat="44.15736" lon="0.74795">
        <ele>158</ele>
        <time>2024-04-11T12:43:26.000Z</time>
      </trkpt>
      <trkpt lat="44.15736" lon="0.74796">
        <ele>158</ele>
        <time>2024-04-11T12:43:27.000Z</time>
      </trkpt>
      <trkpt lat="44.15737" lon="0.74797">
        <ele>158</ele>
        <time>2024-04-11T12:43:28.000Z</time>
      </trkpt>
      <trkpt lat="44.15737" lon="0.74797">
        <ele>158</ele>
        <time>2024-04-11T12:43:29.000Z</time>
      </trkpt>
      <trkpt lat="44.15738" lon="0.74798">
        <ele>158</ele>
        <time>2024-04-11T12:43:30.000Z</time>
      </trkpt>
      <trkpt lat="44.15738" lon="0.74798">
        <ele>158</ele>
        <time>2024-04-11T12:43:31.000Z</time>
      </trkpt>
      <trkpt lat="44.15738" lon="0.74799">
        <ele>158</ele>
        <time>2024-04-11T12:43:32.000Z</time>
      </trkpt>
      <trkpt lat="44.15738" lon="0.74799">
        <ele>158</ele>
        <time>2024-04-11T12:43:33.000Z</time>
      </trkpt>
      <trkpt lat="44.15738" lon="0.748">
        <ele>158</ele>
        <time>2024-04-11T12:43:34.000Z</time>
      </trkpt>
      <trkpt lat="44.15738" lon="0.748">
        <ele>157</ele>
        <time>2024-04-11T12:43:35.000Z</time>
      </trkpt>
      <trkpt lat="44.15738" lon="0.74801">
        <ele>158</ele>
        <time>2024-04-11T12:43:36.000Z</time>
      </trkpt>
      <trkpt lat="44.15738" lon="0.74801">
        <ele>157</ele>
        <time>2024-04-11T12:43:37.000Z</time>
      </trkpt>
      <trkpt lat="44.15738" lon="0.74801">
        <ele>157</ele>
        <time>2024-04-11T12:43:38.000Z</time>
      </trkpt>
      <trkpt lat="44.15738" lon="0.74802">
        <ele>157</ele>
        <time>2024-04-11T12:43:39.000Z</time>
      </trkpt>
      <trkpt lat="44.15738" lon="0.74802">
        <ele>158</ele>
        <time>2024-04-11T12:43:40.000Z</time>
      </trkpt>
      <trkpt lat="44.15738" lon="0.74802">
        <ele>157</ele>
        <time>2024-04-11T12:43:41.000Z</time>
      </trkpt>
      <trkpt lat="44.15738" lon="0.74802">
        <ele>157</ele>
        <time>2024-04-11T12:43:42.000Z</time>
      </trkpt>
      <trkpt lat="44.15738" lon="0.74802">
        <ele>158</ele>
        <time>2024-04-11T12:43:43.000Z</time>
      </trkpt>
      <trkpt lat="44.15738" lon="0.74802">
        <ele>158</ele>
        <time>2024-04-11T12:43:44.000Z</time>
      </trkpt>
      <trkpt lat="44.15738" lon="0.74802">
        <ele>158</ele>
        <time>2024-04-11T12:43:45.000Z</time>
      </trkpt>
      <trkpt lat="44.15738" lon="0.74802">
        <ele>158</ele>
        <time>2024-04-11T12:43:46.000Z</time>
      </trkpt>
      <trkpt lat="44.15738" lon="0.74803">
        <ele>158</ele>
        <time>2024-04-11T12:43:47.000Z</time>
      </trkpt>
      <trkpt lat="44.15738" lon="0.74803">
        <ele>158</ele>
        <time>2024-04-11T12:43:48.000Z</time>
      </trkpt>
      <trkpt lat="44.15738" lon="0.74803">
        <ele>158</ele>
        <time>2024-04-11T12:43:49.000Z</time>
      </trkpt>
      <trkpt lat="44.15738" lon="0.74803">
        <ele>158</ele>
        <time>2024-04-11T12:43:50.000Z</time>
      </trkpt>
      <trkpt lat="44.15738" lon="0.74803">
        <ele>158</ele>
        <time>2024-04-11T12:43:51.000Z</time>
      </trkpt>
      <trkpt lat="44.15738" lon="0.74803">
        <ele>158</ele>
        <time>2024-04-11T12:43:52.000Z</time>
      </trkpt>
      <trkpt lat="44.15738" lon="0.74803">
        <ele>158</ele>
        <time>2024-04-11T12:43:53.000Z</time>
      </trkpt>
      <trkpt lat="44.15738" lon="0.74803">
        <ele>158</ele>
        <time>2024-04-11T12:43:54.000Z</time>
      </trkpt>
      <trkpt lat="44.15738" lon="0.74803">
        <ele>158</ele>
        <time>2024-04-11T12:43:55.000Z</time>
      </trkpt>
      <trkpt lat="44.15738" lon="0.74803">
        <ele>158</ele>
        <time>2024-04-11T12:43:56.000Z</time>
      </trkpt>
      <trkpt lat="44.15738" lon="0.74803">
        <ele>158</ele>
        <time>2024-04-11T12:43:57.000Z</time>
      </trkpt>
      <trkpt lat="44.15738" lon="0.74803">
        <ele>158</ele>
        <time>2024-04-11T12:43:58.000Z</time>
      </trkpt>
      <trkpt lat="44.15738" lon="0.74803">
        <ele>158</ele>
        <time>2024-04-11T12:43:59.000Z</time>
      </trkpt>
      <trkpt lat="44.15738" lon="0.74803">
        <ele>158</ele>
        <time>2024-04-11T12:44:00.000Z</time>
      </trkpt>
      <trkpt lat="44.15738" lon="0.74803">
        <ele>158</ele>
        <time>2024-04-11T12:44:01.000Z</time>
      </trkpt>
      <trkpt lat="44.15738" lon="0.74803">
        <ele>158</ele>
        <time>2024-04-11T12:44:02.000Z</time>
      </trkpt>
      <trkpt lat="44.15738" lon="0.74803">
        <ele>158</ele>
        <time>2024-04-11T12:44:03.000Z</time>
      </trkpt>
      <trkpt lat="44.15738" lon="0.74803">
        <ele>158</ele>
        <time>2024-04-11T12:44:04.000Z</time>
      </trkpt>
      <trkpt lat="44.15738" lon="0.74803">
        <ele>158</ele>
        <time>2024-04-11T12:44:05.000Z</time>
      </trkpt>
      <trkpt lat="44.15738" lon="0.74803">
        <ele>158</ele>
        <time>2024-04-11T12:44:06.000Z</time>
      </trkpt>
      <trkpt lat="44.15738" lon="0.74803">
        <ele>158</ele>
        <time>2024-04-11T12:44:07.000Z</time>
      </trkpt>
      <trkpt lat="44.15738" lon="0.74803">
        <ele>158</ele>
        <time>2024-04-11T12:44:08.000Z</time>
      </trkpt>
      <trkpt lat="44.15738" lon="0.74803">
        <ele>158</ele>
        <time>2024-04-11T12:44:09.000Z</time>
      </trkpt>
      <trkpt lat="44.15738" lon="0.74803">
        <ele>158</ele>
        <time>2024-04-11T12:44:10.000Z</time>
      </trkpt>
      <trkpt lat="44.15738" lon="0.74803">
        <ele>158</ele>
        <time>2024-04-11T12:44:11.000Z</time>
      </trkpt>
      <trkpt lat="44.15738" lon="0.74802">
        <ele>158</ele>
        <time>2024-04-11T12:44:12.000Z</time>
      </trkpt>
      <trkpt lat="44.15738" lon="0.74802">
        <ele>158</ele>
        <time>2024-04-11T12:44:13.000Z</time>
      </trkpt>
      <trkpt lat="44.15738" lon="0.74802">
        <ele>158</ele>
        <time>2024-04-11T12:44:14.000Z</time>
      </trkpt>
      <trkpt lat="44.15738" lon="0.74802">
        <ele>158</ele>
        <time>2024-04-11T12:44:15.000Z</time>
      </trkpt>
      <trkpt lat="44.15738" lon="0.74802">
        <ele>158</ele>
        <time>2024-04-11T12:44:16.000Z</time>
      </trkpt>
      <trkpt lat="44.15738" lon="0.74802">
        <ele>158</ele>
        <time>2024-04-11T12:44:17.000Z</time>
      </trkpt>
      <trkpt lat="44.15738" lon="0.74802">
        <ele>158</ele>
        <time>2024-04-11T12:44:18.000Z</time>
      </trkpt>
      <trkpt lat="44.15738" lon="0.74802">
        <ele>158</ele>
        <time>2024-04-11T12:44:19.000Z</time>
      </trkpt>
      <trkpt lat="44.15738" lon="0.74802">
        <ele>158</ele>
        <time>2024-04-11T12:44:20.000Z</time>
      </trkpt>
      <trkpt lat="44.15738" lon="0.74802">
        <ele>158</ele>
        <time>2024-04-11T12:44:21.000Z</time>
      </trkpt>
      <trkpt lat="44.15738" lon="0.74802">
        <ele>158</ele>
        <time>2024-04-11T12:44:22.000Z</time>
      </trkpt>
      <trkpt lat="44.15738" lon="0.74802">
        <ele>158</ele>
        <time>2024-04-11T12:44:23.000Z</time>
      </trkpt>
      <trkpt lat="44.15738" lon="0.74802">
        <ele>158</ele>
        <time>2024-04-11T12:44:24.000Z</time>
      </trkpt>
      <trkpt lat="44.15738" lon="0.74802">
        <ele>158</ele>
        <time>2024-04-11T12:44:25.000Z</time>
      </trkpt>
      <trkpt lat="44.15738" lon="0.74802">
        <ele>158</ele>
        <time>2024-04-11T12:44:26.000Z</time>
      </trkpt>
      <trkpt lat="44.15738" lon="0.74802">
        <ele>157</ele>
        <time>2024-04-11T12:44:27.000Z</time>
      </trkpt>
      <trkpt lat="44.15738" lon="0.74802">
        <ele>157</ele>
        <time>2024-04-11T12:44:28.000Z</time>
      </trkpt>
      <trkpt lat="44.15738" lon="0.74802">
        <ele>157</ele>
        <time>2024-04-11T12:44:29.000Z</time>
      </trkpt>
      <trkpt lat="44.15738" lon="0.74802">
        <ele>157</ele>
        <time>2024-04-11T12:44:30.000Z</time>
      </trkpt>
      <trkpt lat="44.15738" lon="0.74802">
        <ele>156</ele>
        <time>2024-04-11T12:44:31.000Z</time>
      </trkpt>
      <trkpt lat="44.15738" lon="0.74802">
        <ele>156</ele>
        <time>2024-04-11T12:44:32.000Z</time>
      </trkpt>
      <trkpt lat="44.15738" lon="0.74802">
        <ele>156</ele>
        <time>2024-04-11T12:44:33.000Z</time>
      </trkpt>
      <trkpt lat="44.15738" lon="0.74803">
        <ele>157</ele>
        <time>2024-04-11T12:44:34.000Z</time>
      </trkpt>
      <trkpt lat="44.15738" lon="0.74803">
        <ele>157</ele>
        <time>2024-04-11T12:44:35.000Z</time>
      </trkpt>
      <trkpt lat="44.15738" lon="0.74803">
        <ele>157</ele>
        <time>2024-04-11T12:44:36.000Z</time>
      </trkpt>
      <trkpt lat="44.15739" lon="0.74803">
        <ele>157</ele>
        <time>2024-04-11T12:44:37.000Z</time>
      </trkpt>
      <trkpt lat="44.15739" lon="0.74803">
        <ele>157</ele>
        <time>2024-04-11T12:44:38.000Z</time>
      </trkpt>
      <trkpt lat="44.15739" lon="0.74804">
        <ele>158</ele>
        <time>2024-04-11T12:44:39.000Z</time>
      </trkpt>
      <trkpt lat="44.15739" lon="0.74804">
        <ele>157</ele>
        <time>2024-04-11T12:44:40.000Z</time>
      </trkpt>
      <trkpt lat="44.15739" lon="0.74804">
        <ele>157</ele>
        <time>2024-04-11T12:44:41.000Z</time>
      </trkpt>
      <trkpt lat="44.15739" lon="0.74804">
        <ele>157</ele>
        <time>2024-04-11T12:44:42.000Z</time>
      </trkpt>
      <trkpt lat="44.15739" lon="0.74804">
        <ele>157</ele>
        <time>2024-04-11T12:44:43.000Z</time>
      </trkpt>
      <trkpt lat="44.15739" lon="0.74804">
        <ele>157</ele>
        <time>2024-04-11T12:44:44.000Z</time>
      </trkpt>
      <trkpt lat="44.15739" lon="0.74804">
        <ele>157</ele>
        <time>2024-04-11T12:44:45.000Z</time>
      </trkpt>
      <trkpt lat="44.15739" lon="0.74804">
        <ele>157</ele>
        <time>2024-04-11T12:44:46.000Z</time>
      </trkpt>
      <trkpt lat="44.15739" lon="0.74804">
        <ele>157</ele>
        <time>2024-04-11T12:44:47.000Z</time>
      </trkpt>
      <trkpt lat="44.15739" lon="0.74804">
        <ele>157</ele>
        <time>2024-04-11T12:44:48.000Z</time>
      </trkpt>
      <trkpt lat="44.15739" lon="0.74804">
        <ele>157</ele>
        <time>2024-04-11T12:44:49.000Z</time>
      </trkpt>
      <trkpt lat="44.15739" lon="0.74804">
        <ele>158</ele>
        <time>2024-04-11T12:44:50.000Z</time>
      </trkpt>
      <trkpt lat="44.15739" lon="0.74804">
        <ele>158</ele>
        <time>2024-04-11T12:44:51.000Z</time>
      </trkpt>
      <trkpt lat="44.15739" lon="0.74804">
        <ele>158</ele>
        <time>2024-04-11T12:44:52.000Z</time>
      </trkpt>
      <trkpt lat="44.15739" lon="0.74804">
        <ele>157</ele>
        <time>2024-04-11T12:44:53.000Z</time>
      </trkpt>
      <trkpt lat="44.1574" lon="0.74804">
        <ele>157</ele>
        <time>2024-04-11T12:44:54.000Z</time>
      </trkpt>
      <trkpt lat="44.1574" lon="0.74804">
        <ele>158</ele>
        <time>2024-04-11T12:44:55.000Z</time>
      </trkpt>
      <trkpt lat="44.1574" lon="0.74804">
        <ele>157</ele>
        <time>2024-04-11T12:44:56.000Z</time>
      </trkpt>
      <trkpt lat="44.15741" lon="0.74804">
        <ele>157</ele>
        <time>2024-04-11T12:44:57.000Z</time>
      </trkpt>
      <trkpt lat="44.15741" lon="0.74804">
        <ele>157</ele>
        <time>2024-04-11T12:44:58.000Z</time>
      </trkpt>
      <trkpt lat="44.15742" lon="0.74804">
        <ele>157</ele>
        <time>2024-04-11T12:44:59.000Z</time>
      </trkpt>
      <trkpt lat="44.15742" lon="0.74804">
        <ele>158</ele>
        <time>2024-04-11T12:45:00.000Z</time>
      </trkpt>
      <trkpt lat="44.15742" lon="0.74804">
        <ele>158</ele>
        <time>2024-04-11T12:45:01.000Z</time>
      </trkpt>
      <trkpt lat="44.15743" lon="0.74805">
        <ele>158</ele>
        <time>2024-04-11T12:45:02.000Z</time>
      </trkpt>
      <trkpt lat="44.15743" lon="0.74805">
        <ele>159</ele>
        <time>2024-04-11T12:45:03.000Z</time>
      </trkpt>
      <trkpt lat="44.15743" lon="0.74805">
        <ele>159</ele>
        <time>2024-04-11T12:45:04.000Z</time>
      </trkpt>
      <trkpt lat="44.15742" lon="0.74805">
        <ele>159</ele>
        <time>2024-04-11T12:45:05.000Z</time>
      </trkpt>
      <trkpt lat="44.15742" lon="0.74805">
        <ele>159</ele>
        <time>2024-04-11T12:45:06.000Z</time>
      </trkpt>
      <trkpt lat="44.15742" lon="0.74805">
        <ele>159</ele>
        <time>2024-04-11T12:45:07.000Z</time>
      </trkpt>
      <trkpt lat="44.15742" lon="0.74805">
        <ele>159</ele>
        <time>2024-04-11T12:45:08.000Z</time>
      </trkpt>
      <trkpt lat="44.15742" lon="0.74805">
        <ele>159</ele>
        <time>2024-04-11T12:45:09.000Z</time>
      </trkpt>
      <trkpt lat="44.15742" lon="0.74805">
        <ele>159</ele>
        <time>2024-04-11T12:45:10.000Z</time>
      </trkpt>
      <trkpt lat="44.15742" lon="0.74805">
        <ele>159</ele>
        <time>2024-04-11T12:45:11.000Z</time>
      </trkpt>
      <trkpt lat="44.15742" lon="0.74805">
        <ele>159</ele>
        <time>2024-04-11T12:45:12.000Z</time>
      </trkpt>
      <trkpt lat="44.15742" lon="0.74805">
        <ele>159</ele>
        <time>2024-04-11T12:45:13.000Z</time>
      </trkpt>
      <trkpt lat="44.15742" lon="0.74805">
        <ele>159</ele>
        <time>2024-04-11T12:45:14.000Z</time>
      </trkpt>
      <trkpt lat="44.15742" lon="0.74805">
        <ele>159</ele>
        <time>2024-04-11T12:45:15.000Z</time>
      </trkpt>
      <trkpt lat="44.15742" lon="0.74805">
        <ele>159</ele>
        <time>2024-04-11T12:45:16.000Z</time>
      </trkpt>
      <trkpt lat="44.15743" lon="0.74805">
        <ele>159</ele>
        <time>2024-04-11T12:45:17.000Z</time>
      </trkpt>
      <trkpt lat="44.15743" lon="0.74805">
        <ele>159</ele>
        <time>2024-04-11T12:45:18.000Z</time>
      </trkpt>
      <trkpt lat="44.15744" lon="0.74806">
        <ele>159</ele>
        <time>2024-04-11T12:45:19.000Z</time>
      </trkpt>
      <trkpt lat="44.15744" lon="0.74806">
        <ele>159</ele>
        <time>2024-04-11T12:45:20.000Z</time>
      </trkpt>
      <trkpt lat="44.15745" lon="0.74807">
        <ele>159</ele>
        <time>2024-04-11T12:45:21.000Z</time>
      </trkpt>
      <trkpt lat="44.15745" lon="0.74807">
        <ele>159</ele>
        <time>2024-04-11T12:45:22.000Z</time>
      </trkpt>
      <trkpt lat="44.15745" lon="0.74808">
        <ele>160</ele>
        <time>2024-04-11T12:45:23.000Z</time>
      </trkpt>
      <trkpt lat="44.15745" lon="0.74808">
        <ele>160</ele>
        <time>2024-04-11T12:45:24.000Z</time>
      </trkpt>
      <trkpt lat="44.15745" lon="0.74808">
        <ele>160</ele>
        <time>2024-04-11T12:45:25.000Z</time>
      </trkpt>
      <trkpt lat="44.15745" lon="0.74808">
        <ele>160</ele>
        <time>2024-04-11T12:45:26.000Z</time>
      </trkpt>
      <trkpt lat="44.15745" lon="0.74808">
        <ele>160</ele>
        <time>2024-04-11T12:45:27.000Z</time>
      </trkpt>
      <trkpt lat="44.15745" lon="0.74808">
        <ele>160</ele>
        <time>2024-04-11T12:45:28.000Z</time>
      </trkpt>
      <trkpt lat="44.15746" lon="0.74808">
        <ele>160</ele>
        <time>2024-04-11T12:45:29.000Z</time>
      </trkpt>
      <trkpt lat="44.15745" lon="0.74808">
        <ele>160</ele>
        <time>2024-04-11T12:45:30.000Z</time>
      </trkpt>
      <trkpt lat="44.15745" lon="0.74808">
        <ele>160</ele>
        <time>2024-04-11T12:45:31.000Z</time>
      </trkpt>
      <trkpt lat="44.15745" lon="0.74808">
        <ele>160</ele>
        <time>2024-04-11T12:45:32.000Z</time>
      </trkpt>
      <trkpt lat="44.15745" lon="0.74808">
        <ele>160</ele>
        <time>2024-04-11T12:45:33.000Z</time>
      </trkpt>
      <trkpt lat="44.15745" lon="0.74808">
        <ele>159</ele>
        <time>2024-04-11T12:45:34.000Z</time>
      </trkpt>
      <trkpt lat="44.15745" lon="0.74808">
        <ele>159</ele>
        <time>2024-04-11T12:45:35.000Z</time>
      </trkpt>
      <trkpt lat="44.15745" lon="0.74808">
        <ele>159</ele>
        <time>2024-04-11T12:45:36.000Z</time>
      </trkpt>
      <trkpt lat="44.15746" lon="0.74808">
        <ele>159</ele>
        <time>2024-04-11T12:45:37.000Z</time>
      </trkpt>
      <trkpt lat="44.15746" lon="0.74808">
        <ele>158</ele>
        <time>2024-04-11T12:45:38.000Z</time>
      </trkpt>
      <trkpt lat="44.15746" lon="0.74808">
        <ele>158</ele>
        <time>2024-04-11T12:45:39.000Z</time>
      </trkpt>
      <trkpt lat="44.15746" lon="0.74809">
        <ele>158</ele>
        <time>2024-04-11T12:45:40.000Z</time>
      </trkpt>
      <trkpt lat="44.15747" lon="0.74809">
        <ele>158</ele>
        <time>2024-04-11T12:45:41.000Z</time>
      </trkpt>
      <trkpt lat="44.15747" lon="0.74809">
        <ele>158</ele>
        <time>2024-04-11T12:45:42.000Z</time>
      </trkpt>
      <trkpt lat="44.15747" lon="0.7481">
        <ele>158</ele>
        <time>2024-04-11T12:45:43.000Z</time>
      </trkpt>
      <trkpt lat="44.15747" lon="0.7481">
        <ele>158</ele>
        <time>2024-04-11T12:45:44.000Z</time>
      </trkpt>
      <trkpt lat="44.15747" lon="0.7481">
        <ele>158</ele>
        <time>2024-04-11T12:45:45.000Z</time>
      </trkpt>
      <trkpt lat="44.15747" lon="0.7481">
        <ele>158</ele>
        <time>2024-04-11T12:45:46.000Z</time>
      </trkpt>
      <trkpt lat="44.15747" lon="0.74809">
        <ele>158</ele>
        <time>2024-04-11T12:45:47.000Z</time>
      </trkpt>
      <trkpt lat="44.15747" lon="0.74809">
        <ele>158</ele>
        <time>2024-04-11T12:45:48.000Z</time>
      </trkpt>
      <trkpt lat="44.15747" lon="0.74809">
        <ele>158</ele>
        <time>2024-04-11T12:45:49.000Z</time>
      </trkpt>
      <trkpt lat="44.15747" lon="0.74809">
        <ele>158</ele>
        <time>2024-04-11T12:45:50.000Z</time>
      </trkpt>
      <trkpt lat="44.15747" lon="0.74809">
        <ele>158</ele>
        <time>2024-04-11T12:45:51.000Z</time>
      </trkpt>
      <trkpt lat="44.15748" lon="0.74809">
        <ele>158</ele>
        <time>2024-04-11T12:45:52.000Z</time>
      </trkpt>
      <trkpt lat="44.15748" lon="0.74809">
        <ele>158</ele>
        <time>2024-04-11T12:45:53.000Z</time>
      </trkpt>
      <trkpt lat="44.15748" lon="0.74809">
        <ele>158</ele>
        <time>2024-04-11T12:45:54.000Z</time>
      </trkpt>
      <trkpt lat="44.15749" lon="0.74809">
        <ele>158</ele>
        <time>2024-04-11T12:45:55.000Z</time>
      </trkpt>
      <trkpt lat="44.15749" lon="0.74809">
        <ele>158</ele>
        <time>2024-04-11T12:45:56.000Z</time>
      </trkpt>
      <trkpt lat="44.15749" lon="0.74808">
        <ele>158</ele>
        <time>2024-04-11T12:45:57.000Z</time>
      </trkpt>
      <trkpt lat="44.1575" lon="0.74808">
        <ele>158</ele>
        <time>2024-04-11T12:45:58.000Z</time>
      </trkpt>
      <trkpt lat="44.1575" lon="0.74807">
        <ele>159</ele>
        <time>2024-04-11T12:45:59.000Z</time>
      </trkpt>
      <trkpt lat="44.15751" lon="0.74807">
        <ele>159</ele>
        <time>2024-04-11T12:46:00.000Z</time>
      </trkpt>
      <trkpt lat="44.15751" lon="0.74806">
        <ele>159</ele>
        <time>2024-04-11T12:46:01.000Z</time>
      </trkpt>
      <trkpt lat="44.15752" lon="0.74805">
        <ele>159</ele>
        <time>2024-04-11T12:46:02.000Z</time>
      </trkpt>
      <trkpt lat="44.15752" lon="0.74804">
        <ele>159</ele>
        <time>2024-04-11T12:46:03.000Z</time>
      </trkpt>
      <trkpt lat="44.15753" lon="0.74803">
        <ele>159</ele>
        <time>2024-04-11T12:46:04.000Z</time>
      </trkpt>
      <trkpt lat="44.15753" lon="0.74802">
        <ele>159</ele>
        <time>2024-04-11T12:46:05.000Z</time>
      </trkpt>
      <trkpt lat="44.15754" lon="0.74801">
        <ele>159</ele>
        <time>2024-04-11T12:46:06.000Z</time>
      </trkpt>
      <trkpt lat="44.15754" lon="0.748">
        <ele>159</ele>
        <time>2024-04-11T12:46:07.000Z</time>
      </trkpt>
      <trkpt lat="44.15755" lon="0.74799">
        <ele>159</ele>
        <time>2024-04-11T12:46:08.000Z</time>
      </trkpt>
      <trkpt lat="44.15755" lon="0.74798">
        <ele>159</ele>
        <time>2024-04-11T12:46:09.000Z</time>
      </trkpt>
      <trkpt lat="44.15756" lon="0.74797">
        <ele>159</ele>
        <time>2024-04-11T12:46:10.000Z</time>
      </trkpt>
      <trkpt lat="44.15756" lon="0.74796">
        <ele>159</ele>
        <time>2024-04-11T12:46:11.000Z</time>
      </trkpt>
      <trkpt lat="44.15757" lon="0.74795">
        <ele>159</ele>
        <time>2024-04-11T12:46:12.000Z</time>
      </trkpt>
      <trkpt lat="44.15757" lon="0.74794">
        <ele>159</ele>
        <time>2024-04-11T12:46:13.000Z</time>
      </trkpt>
      <trkpt lat="44.15758" lon="0.74792">
        <ele>158</ele>
        <time>2024-04-11T12:46:14.000Z</time>
      </trkpt>
      <trkpt lat="44.15758" lon="0.74791">
        <ele>158</ele>
        <time>2024-04-11T12:46:15.000Z</time>
      </trkpt>
      <trkpt lat="44.15759" lon="0.7479">
        <ele>158</ele>
        <time>2024-04-11T12:46:16.000Z</time>
      </trkpt>
      <trkpt lat="44.1576" lon="0.74789">
        <ele>158</ele>
        <time>2024-04-11T12:46:17.000Z</time>
      </trkpt>
      <trkpt lat="44.1576" lon="0.74788">
        <ele>158</ele>
        <time>2024-04-11T12:46:18.000Z</time>
      </trkpt>
      <trkpt lat="44.15761" lon="0.74787">
        <ele>159</ele>
        <time>2024-04-11T12:46:19.000Z</time>
      </trkpt>
      <trkpt lat="44.15761" lon="0.74786">
        <ele>158</ele>
        <time>2024-04-11T12:46:20.000Z</time>
      </trkpt>
      <trkpt lat="44.15762" lon="0.74785">
        <ele>159</ele>
        <time>2024-04-11T12:46:21.000Z</time>
      </trkpt>
      <trkpt lat="44.15762" lon="0.74784">
        <ele>159</ele>
        <time>2024-04-11T12:46:22.000Z</time>
      </trkpt>
      <trkpt lat="44.15763" lon="0.74782">
        <ele>159</ele>
        <time>2024-04-11T12:46:23.000Z</time>
      </trkpt>
      <trkpt lat="44.15764" lon="0.74781">
        <ele>159</ele>
        <time>2024-04-11T12:46:24.000Z</time>
      </trkpt>
      <trkpt lat="44.15764" lon="0.7478">
        <ele>159</ele>
        <time>2024-04-11T12:46:25.000Z</time>
      </trkpt>
      <trkpt lat="44.15765" lon="0.74779">
        <ele>159</ele>
        <time>2024-04-11T12:46:26.000Z</time>
      </trkpt>
      <trkpt lat="44.15765" lon="0.74778">
        <ele>159</ele>
        <time>2024-04-11T12:46:27.000Z</time>
      </trkpt>
      <trkpt lat="44.15766" lon="0.74776">
        <ele>159</ele>
        <time>2024-04-11T12:46:28.000Z</time>
      </trkpt>
      <trkpt lat="44.15767" lon="0.74775">
        <ele>160</ele>
        <time>2024-04-11T12:46:29.000Z</time>
      </trkpt>
      <trkpt lat="44.15767" lon="0.74774">
        <ele>160</ele>
        <time>2024-04-11T12:46:30.000Z</time>
      </trkpt>
      <trkpt lat="44.15768" lon="0.74773">
        <ele>160</ele>
        <time>2024-04-11T12:46:31.000Z</time>
      </trkpt>
      <trkpt lat="44.15768" lon="0.74771">
        <ele>161</ele>
        <time>2024-04-11T12:46:32.000Z</time>
      </trkpt>
      <trkpt lat="44.15769" lon="0.7477">
        <ele>161</ele>
        <time>2024-04-11T12:46:33.000Z</time>
      </trkpt>
      <trkpt lat="44.1577" lon="0.74769">
        <ele>161</ele>
        <time>2024-04-11T12:46:34.000Z</time>
      </trkpt>
      <trkpt lat="44.1577" lon="0.74768">
        <ele>161</ele>
        <time>2024-04-11T12:46:35.000Z</time>
      </trkpt>
      <trkpt lat="44.15771" lon="0.74767">
        <ele>161</ele>
        <time>2024-04-11T12:46:36.000Z</time>
      </trkpt>
      <trkpt lat="44.15772" lon="0.74765">
        <ele>160</ele>
        <time>2024-04-11T12:46:37.000Z</time>
      </trkpt>
      <trkpt lat="44.15772" lon="0.74764">
        <ele>160</ele>
        <time>2024-04-11T12:46:38.000Z</time>
      </trkpt>
      <trkpt lat="44.15773" lon="0.74763">
        <ele>160</ele>
        <time>2024-04-11T12:46:39.000Z</time>
      </trkpt>
      <trkpt lat="44.15774" lon="0.74762">
        <ele>160</ele>
        <time>2024-04-11T12:46:40.000Z</time>
      </trkpt>
      <trkpt lat="44.15774" lon="0.7476">
        <ele>160</ele>
        <time>2024-04-11T12:46:41.000Z</time>
      </trkpt>
      <trkpt lat="44.15775" lon="0.74759">
        <ele>160</ele>
        <time>2024-04-11T12:46:42.000Z</time>
      </trkpt>
      <trkpt lat="44.15776" lon="0.74758">
        <ele>160</ele>
        <time>2024-04-11T12:46:43.000Z</time>
      </trkpt>
      <trkpt lat="44.15776" lon="0.74756">
        <ele>160</ele>
        <time>2024-04-11T12:46:44.000Z</time>
      </trkpt>
      <trkpt lat="44.15777" lon="0.74755">
        <ele>160</ele>
        <time>2024-04-11T12:46:45.000Z</time>
      </trkpt>
      <trkpt lat="44.15777" lon="0.74754">
        <ele>160</ele>
        <time>2024-04-11T12:46:46.000Z</time>
      </trkpt>
      <trkpt lat="44.15778" lon="0.74752">
        <ele>160</ele>
        <time>2024-04-11T12:46:47.000Z</time>
      </trkpt>
      <trkpt lat="44.15779" lon="0.74751">
        <ele>160</ele>
        <time>2024-04-11T12:46:48.000Z</time>
      </trkpt>
      <trkpt lat="44.15779" lon="0.74749">
        <ele>160</ele>
        <time>2024-04-11T12:46:49.000Z</time>
      </trkpt>
      <trkpt lat="44.1578" lon="0.74748">
        <ele>160</ele>
        <time>2024-04-11T12:46:50.000Z</time>
      </trkpt>
      <trkpt lat="44.1578" lon="0.74747">
        <ele>160</ele>
        <time>2024-04-11T12:46:51.000Z</time>
      </trkpt>
      <trkpt lat="44.15781" lon="0.74746">
        <ele>159</ele>
        <time>2024-04-11T12:46:52.000Z</time>
      </trkpt>
      <trkpt lat="44.15782" lon="0.74744">
        <ele>160</ele>
        <time>2024-04-11T12:46:53.000Z</time>
      </trkpt>
      <trkpt lat="44.15783" lon="0.74743">
        <ele>160</ele>
        <time>2024-04-11T12:46:54.000Z</time>
      </trkpt>
      <trkpt lat="44.15783" lon="0.74741">
        <ele>160</ele>
        <time>2024-04-11T12:46:55.000Z</time>
      </trkpt>
      <trkpt lat="44.15784" lon="0.7474">
        <ele>160</ele>
        <time>2024-04-11T12:46:56.000Z</time>
      </trkpt>
      <trkpt lat="44.15785" lon="0.74739">
        <ele>160</ele>
        <time>2024-04-11T12:46:57.000Z</time>
      </trkpt>
      <trkpt lat="44.15786" lon="0.74737">
        <ele>160</ele>
        <time>2024-04-11T12:46:58.000Z</time>
      </trkpt>
      <trkpt lat="44.15787" lon="0.74736">
        <ele>160</ele>
        <time>2024-04-11T12:46:59.000Z</time>
      </trkpt>
      <trkpt lat="44.15788" lon="0.74735">
        <ele>160</ele>
        <time>2024-04-11T12:47:00.000Z</time>
      </trkpt>
      <trkpt lat="44.15788" lon="0.74733">
        <ele>160</ele>
        <time>2024-04-11T12:47:01.000Z</time>
      </trkpt>
      <trkpt lat="44.15789" lon="0.74732">
        <ele>160</ele>
        <time>2024-04-11T12:47:02.000Z</time>
      </trkpt>
      <trkpt lat="44.15789" lon="0.74731">
        <ele>160</ele>
        <time>2024-04-11T12:47:03.000Z</time>
      </trkpt>
      <trkpt lat="44.1579" lon="0.7473">
        <ele>160</ele>
        <time>2024-04-11T12:47:04.000Z</time>
      </trkpt>
      <trkpt lat="44.15791" lon="0.74728">
        <ele>159</ele>
        <time>2024-04-11T12:47:05.000Z</time>
      </trkpt>
      <trkpt lat="44.15792" lon="0.74727">
        <ele>159</ele>
        <time>2024-04-11T12:47:06.000Z</time>
      </trkpt>
      <trkpt lat="44.15792" lon="0.74726">
        <ele>159</ele>
        <time>2024-04-11T12:47:07.000Z</time>
      </trkpt>
      <trkpt lat="44.15793" lon="0.74725">
        <ele>159</ele>
        <time>2024-04-11T12:47:08.000Z</time>
      </trkpt>
      <trkpt lat="44.15794" lon="0.74724">
        <ele>159</ele>
        <time>2024-04-11T12:47:09.000Z</time>
      </trkpt>
      <trkpt lat="44.15794" lon="0.74723">
        <ele>159</ele>
        <time>2024-04-11T12:47:10.000Z</time>
      </trkpt>
      <trkpt lat="44.15795" lon="0.74722">
        <ele>159</ele>
        <time>2024-04-11T12:47:11.000Z</time>
      </trkpt>
      <trkpt lat="44.15795" lon="0.74721">
        <ele>159</ele>
        <time>2024-04-11T12:47:12.000Z</time>
      </trkpt>
      <trkpt lat="44.15796" lon="0.7472">
        <ele>159</ele>
        <time>2024-04-11T12:47:13.000Z</time>
      </trkpt>
      <trkpt lat="44.15796" lon="0.74719">
        <ele>159</ele>
        <time>2024-04-11T12:47:14.000Z</time>
      </trkpt>
      <trkpt lat="44.15797" lon="0.74717">
        <ele>159</ele>
        <time>2024-04-11T12:47:15.000Z</time>
      </trkpt>
      <trkpt lat="44.15797" lon="0.74716">
        <ele>159</ele>
        <time>2024-04-11T12:47:16.000Z</time>
      </trkpt>
      <trkpt lat="44.15798" lon="0.74714">
        <ele>159</ele>
        <time>2024-04-11T12:47:17.000Z</time>
      </trkpt>
      <trkpt lat="44.15798" lon="0.74713">
        <ele>159</ele>
        <time>2024-04-11T12:47:18.000Z</time>
      </trkpt>
      <trkpt lat="44.15799" lon="0.74711">
        <ele>159</ele>
        <time>2024-04-11T12:47:19.000Z</time>
      </trkpt>
      <trkpt lat="44.158" lon="0.7471">
        <ele>159</ele>
        <time>2024-04-11T12:47:20.000Z</time>
      </trkpt>
      <trkpt lat="44.158" lon="0.74709">
        <ele>159</ele>
        <time>2024-04-11T12:47:21.000Z</time>
      </trkpt>
      <trkpt lat="44.15801" lon="0.74707">
        <ele>159</ele>
        <time>2024-04-11T12:47:22.000Z</time>
      </trkpt>
      <trkpt lat="44.15802" lon="0.74706">
        <ele>159</ele>
        <time>2024-04-11T12:47:23.000Z</time>
      </trkpt>
      <trkpt lat="44.15802" lon="0.74704">
        <ele>159</ele>
        <time>2024-04-11T12:47:24.000Z</time>
      </trkpt>
      <trkpt lat="44.15803" lon="0.74703">
        <ele>159</ele>
        <time>2024-04-11T12:47:25.000Z</time>
      </trkpt>
      <trkpt lat="44.15804" lon="0.74702">
        <ele>159</ele>
        <time>2024-04-11T12:47:26.000Z</time>
      </trkpt>
      <trkpt lat="44.15804" lon="0.747">
        <ele>159</ele>
        <time>2024-04-11T12:47:27.000Z</time>
      </trkpt>
      <trkpt lat="44.15805" lon="0.74699">
        <ele>159</ele>
        <time>2024-04-11T12:47:28.000Z</time>
      </trkpt>
      <trkpt lat="44.15805" lon="0.74698">
        <ele>159</ele>
        <time>2024-04-11T12:47:29.000Z</time>
      </trkpt>
      <trkpt lat="44.15806" lon="0.74696">
        <ele>159</ele>
        <time>2024-04-11T12:47:30.000Z</time>
      </trkpt>
      <trkpt lat="44.15807" lon="0.74695">
        <ele>159</ele>
        <time>2024-04-11T12:47:31.000Z</time>
      </trkpt>
      <trkpt lat="44.15807" lon="0.74694">
        <ele>159</ele>
        <time>2024-04-11T12:47:32.000Z</time>
      </trkpt>
      <trkpt lat="44.15808" lon="0.74692">
        <ele>158</ele>
        <time>2024-04-11T12:47:33.000Z</time>
      </trkpt>
      <trkpt lat="44.15809" lon="0.74691">
        <ele>158</ele>
        <time>2024-04-11T12:47:34.000Z</time>
      </trkpt>
      <trkpt lat="44.15809" lon="0.74689">
        <ele>158</ele>
        <time>2024-04-11T12:47:35.000Z</time>
      </trkpt>
      <trkpt lat="44.1581" lon="0.74688">
        <ele>157</ele>
        <time>2024-04-11T12:47:36.000Z</time>
      </trkpt>
      <trkpt lat="44.15811" lon="0.74686">
        <ele>157</ele>
        <time>2024-04-11T12:47:37.000Z</time>
      </trkpt>
      <trkpt lat="44.15811" lon="0.74685">
        <ele>157</ele>
        <time>2024-04-11T12:47:38.000Z</time>
      </trkpt>
      <trkpt lat="44.15812" lon="0.74683">
        <ele>157</ele>
        <time>2024-04-11T12:47:39.000Z</time>
      </trkpt>
      <trkpt lat="44.15813" lon="0.74682">
        <ele>157</ele>
        <time>2024-04-11T12:47:40.000Z</time>
      </trkpt>
      <trkpt lat="44.15813" lon="0.74681">
        <ele>157</ele>
        <time>2024-04-11T12:47:41.000Z</time>
      </trkpt>
      <trkpt lat="44.15814" lon="0.7468">
        <ele>157</ele>
        <time>2024-04-11T12:47:42.000Z</time>
      </trkpt>
      <trkpt lat="44.15814" lon="0.74679">
        <ele>157</ele>
        <time>2024-04-11T12:47:43.000Z</time>
      </trkpt>
      <trkpt lat="44.15815" lon="0.74678">
        <ele>156</ele>
        <time>2024-04-11T12:47:44.000Z</time>
      </trkpt>
      <trkpt lat="44.15815" lon="0.74677">
        <ele>157</ele>
        <time>2024-04-11T12:47:45.000Z</time>
      </trkpt>
      <trkpt lat="44.15816" lon="0.74675">
        <ele>156</ele>
        <time>2024-04-11T12:47:46.000Z</time>
      </trkpt>
      <trkpt lat="44.15816" lon="0.74674">
        <ele>156</ele>
        <time>2024-04-11T12:47:47.000Z</time>
      </trkpt>
      <trkpt lat="44.15817" lon="0.74673">
        <ele>157</ele>
        <time>2024-04-11T12:47:48.000Z</time>
      </trkpt>
      <trkpt lat="44.15818" lon="0.74671">
        <ele>157</ele>
        <time>2024-04-11T12:47:49.000Z</time>
      </trkpt>
      <trkpt lat="44.15818" lon="0.7467">
        <ele>157</ele>
        <time>2024-04-11T12:47:50.000Z</time>
      </trkpt>
      <trkpt lat="44.15819" lon="0.74669">
        <ele>157</ele>
        <time>2024-04-11T12:47:51.000Z</time>
      </trkpt>
      <trkpt lat="44.1582" lon="0.74667">
        <ele>157</ele>
        <time>2024-04-11T12:47:52.000Z</time>
      </trkpt>
      <trkpt lat="44.1582" lon="0.74666">
        <ele>157</ele>
        <time>2024-04-11T12:47:53.000Z</time>
      </trkpt>
      <trkpt lat="44.15821" lon="0.74665">
        <ele>157</ele>
        <time>2024-04-11T12:47:54.000Z</time>
      </trkpt>
      <trkpt lat="44.15821" lon="0.74664">
        <ele>157</ele>
        <time>2024-04-11T12:47:55.000Z</time>
      </trkpt>
      <trkpt lat="44.15822" lon="0.74662">
        <ele>157</ele>
        <time>2024-04-11T12:47:56.000Z</time>
      </trkpt>
      <trkpt lat="44.15823" lon="0.74661">
        <ele>156</ele>
        <time>2024-04-11T12:47:57.000Z</time>
      </trkpt>
      <trkpt lat="44.15823" lon="0.7466">
        <ele>156</ele>
        <time>2024-04-11T12:47:58.000Z</time>
      </trkpt>
      <trkpt lat="44.15824" lon="0.74658">
        <ele>156</ele>
        <time>2024-04-11T12:47:59.000Z</time>
      </trkpt>
      <trkpt lat="44.15825" lon="0.74657">
        <ele>156</ele>
        <time>2024-04-11T12:48:00.000Z</time>
      </trkpt>
      <trkpt lat="44.15825" lon="0.74655">
        <ele>156</ele>
        <time>2024-04-11T12:48:01.000Z</time>
      </trkpt>
      <trkpt lat="44.15826" lon="0.74654">
        <ele>156</ele>
        <time>2024-04-11T12:48:02.000Z</time>
      </trkpt>
      <trkpt lat="44.15826" lon="0.74653">
        <ele>157</ele>
        <time>2024-04-11T12:48:03.000Z</time>
      </trkpt>
      <trkpt lat="44.15827" lon="0.74652">
        <ele>157</ele>
        <time>2024-04-11T12:48:04.000Z</time>
      </trkpt>
      <trkpt lat="44.15827" lon="0.7465">
        <ele>157</ele>
        <time>2024-04-11T12:48:05.000Z</time>
      </trkpt>
      <trkpt lat="44.15828" lon="0.74649">
        <ele>157</ele>
        <time>2024-04-11T12:48:06.000Z</time>
      </trkpt>
      <trkpt lat="44.15828" lon="0.74647">
        <ele>157</ele>
        <time>2024-04-11T12:48:07.000Z</time>
      </trkpt>
      <trkpt lat="44.15829" lon="0.74646">
        <ele>157</ele>
        <time>2024-04-11T12:48:08.000Z</time>
      </trkpt>
      <trkpt lat="44.15829" lon="0.74644">
        <ele>157</ele>
        <time>2024-04-11T12:48:09.000Z</time>
      </trkpt>
      <trkpt lat="44.1583" lon="0.74643">
        <ele>157</ele>
        <time>2024-04-11T12:48:10.000Z</time>
      </trkpt>
      <trkpt lat="44.15831" lon="0.74641">
        <ele>158</ele>
        <time>2024-04-11T12:48:11.000Z</time>
      </trkpt>
      <trkpt lat="44.15831" lon="0.7464">
        <ele>157</ele>
        <time>2024-04-11T12:48:12.000Z</time>
      </trkpt>
      <trkpt lat="44.15832" lon="0.74638">
        <ele>158</ele>
        <time>2024-04-11T12:48:13.000Z</time>
      </trkpt>
      <trkpt lat="44.15832" lon="0.74637">
        <ele>158</ele>
        <time>2024-04-11T12:48:14.000Z</time>
      </trkpt>
      <trkpt lat="44.15833" lon="0.74635">
        <ele>158</ele>
        <time>2024-04-11T12:48:15.000Z</time>
      </trkpt>
      <trkpt lat="44.15833" lon="0.74634">
        <ele>158</ele>
        <time>2024-04-11T12:48:16.000Z</time>
      </trkpt>
      <trkpt lat="44.15834" lon="0.74632">
        <ele>158</ele>
        <time>2024-04-11T12:48:17.000Z</time>
      </trkpt>
      <trkpt lat="44.15835" lon="0.74631">
        <ele>158</ele>
        <time>2024-04-11T12:48:18.000Z</time>
      </trkpt>
      <trkpt lat="44.15835" lon="0.74629">
        <ele>158</ele>
        <time>2024-04-11T12:48:19.000Z</time>
      </trkpt>
      <trkpt lat="44.15836" lon="0.74628">
        <ele>159</ele>
        <time>2024-04-11T12:48:20.000Z</time>
      </trkpt>
      <trkpt lat="44.15836" lon="0.74626">
        <ele>158</ele>
        <time>2024-04-11T12:48:21.000Z</time>
      </trkpt>
      <trkpt lat="44.15837" lon="0.74625">
        <ele>159</ele>
        <time>2024-04-11T12:48:22.000Z</time>
      </trkpt>
      <trkpt lat="44.15837" lon="0.74623">
        <ele>159</ele>
        <time>2024-04-11T12:48:23.000Z</time>
      </trkpt>
      <trkpt lat="44.15838" lon="0.74622">
        <ele>159</ele>
        <time>2024-04-11T12:48:24.000Z</time>
      </trkpt>
      <trkpt lat="44.15838" lon="0.74621">
        <ele>159</ele>
        <time>2024-04-11T12:48:25.000Z</time>
      </trkpt>
      <trkpt lat="44.15839" lon="0.74619">
        <ele>159</ele>
        <time>2024-04-11T12:48:26.000Z</time>
      </trkpt>
      <trkpt lat="44.15839" lon="0.74618">
        <ele>160</ele>
        <time>2024-04-11T12:48:27.000Z</time>
      </trkpt>
      <trkpt lat="44.1584" lon="0.74616">
        <ele>160</ele>
        <time>2024-04-11T12:48:28.000Z</time>
      </trkpt>
      <trkpt lat="44.1584" lon="0.74615">
        <ele>160</ele>
        <time>2024-04-11T12:48:29.000Z</time>
      </trkpt>
      <trkpt lat="44.15841" lon="0.74613">
        <ele>160</ele>
        <time>2024-04-11T12:48:30.000Z</time>
      </trkpt>
      <trkpt lat="44.15842" lon="0.74612">
        <ele>160</ele>
        <time>2024-04-11T12:48:31.000Z</time>
      </trkpt>
      <trkpt lat="44.15842" lon="0.74611">
        <ele>160</ele>
        <time>2024-04-11T12:48:32.000Z</time>
      </trkpt>
      <trkpt lat="44.15843" lon="0.74609">
        <ele>160</ele>
        <time>2024-04-11T12:48:33.000Z</time>
      </trkpt>
      <trkpt lat="44.15843" lon="0.74608">
        <ele>160</ele>
        <time>2024-04-11T12:48:34.000Z</time>
      </trkpt>
      <trkpt lat="44.15844" lon="0.74606">
        <ele>160</ele>
        <time>2024-04-11T12:48:35.000Z</time>
      </trkpt>
      <trkpt lat="44.15844" lon="0.74605">
        <ele>160</ele>
        <time>2024-04-11T12:48:36.000Z</time>
      </trkpt>
      <trkpt lat="44.15845" lon="0.74603">
        <ele>159</ele>
        <time>2024-04-11T12:48:37.000Z</time>
      </trkpt>
      <trkpt lat="44.15845" lon="0.74602">
        <ele>159</ele>
        <time>2024-04-11T12:48:38.000Z</time>
      </trkpt>
      <trkpt lat="44.15846" lon="0.746">
        <ele>159</ele>
        <time>2024-04-11T12:48:39.000Z</time>
      </trkpt>
      <trkpt lat="44.15846" lon="0.74599">
        <ele>159</ele>
        <time>2024-04-11T12:48:40.000Z</time>
      </trkpt>
      <trkpt lat="44.15847" lon="0.74597">
        <ele>159</ele>
        <time>2024-04-11T12:48:41.000Z</time>
      </trkpt>
      <trkpt lat="44.15848" lon="0.74596">
        <ele>159</ele>
        <time>2024-04-11T12:48:42.000Z</time>
      </trkpt>
      <trkpt lat="44.15848" lon="0.74594">
        <ele>159</ele>
        <time>2024-04-11T12:48:43.000Z</time>
      </trkpt>
      <trkpt lat="44.15849" lon="0.74593">
        <ele>159</ele>
        <time>2024-04-11T12:48:44.000Z</time>
      </trkpt>
      <trkpt lat="44.15849" lon="0.74591">
        <ele>158</ele>
        <time>2024-04-11T12:48:45.000Z</time>
      </trkpt>
      <trkpt lat="44.1585" lon="0.7459">
        <ele>158</ele>
        <time>2024-04-11T12:48:46.000Z</time>
      </trkpt>
      <trkpt lat="44.1585" lon="0.74588">
        <ele>158</ele>
        <time>2024-04-11T12:48:47.000Z</time>
      </trkpt>
      <trkpt lat="44.15851" lon="0.74587">
        <ele>158</ele>
        <time>2024-04-11T12:48:48.000Z</time>
      </trkpt>
      <trkpt lat="44.15852" lon="0.74586">
        <ele>158</ele>
        <time>2024-04-11T12:48:49.000Z</time>
      </trkpt>
      <trkpt lat="44.15852" lon="0.74584">
        <ele>158</ele>
        <time>2024-04-11T12:48:50.000Z</time>
      </trkpt>
      <trkpt lat="44.15853" lon="0.74583">
        <ele>158</ele>
        <time>2024-04-11T12:48:51.000Z</time>
      </trkpt>
      <trkpt lat="44.15853" lon="0.74581">
        <ele>158</ele>
        <time>2024-04-11T12:48:52.000Z</time>
      </trkpt>
      <trkpt lat="44.15854" lon="0.7458">
        <ele>158</ele>
        <time>2024-04-11T12:48:53.000Z</time>
      </trkpt>
      <trkpt lat="44.15854" lon="0.74578">
        <ele>158</ele>
        <time>2024-04-11T12:48:54.000Z</time>
      </trkpt>
      <trkpt lat="44.15855" lon="0.74577">
        <ele>158</ele>
        <time>2024-04-11T12:48:55.000Z</time>
      </trkpt>
      <trkpt lat="44.15856" lon="0.74575">
        <ele>158</ele>
        <time>2024-04-11T12:48:56.000Z</time>
      </trkpt>
      <trkpt lat="44.15856" lon="0.74574">
        <ele>158</ele>
        <time>2024-04-11T12:48:57.000Z</time>
      </trkpt>
      <trkpt lat="44.15857" lon="0.74572">
        <ele>158</ele>
        <time>2024-04-11T12:48:58.000Z</time>
      </trkpt>
      <trkpt lat="44.15857" lon="0.7457">
        <ele>158</ele>
        <time>2024-04-11T12:48:59.000Z</time>
      </trkpt>
      <trkpt lat="44.15858" lon="0.74569">
        <ele>158</ele>
        <time>2024-04-11T12:49:00.000Z</time>
      </trkpt>
      <trkpt lat="44.15859" lon="0.74568">
        <ele>158</ele>
        <time>2024-04-11T12:49:01.000Z</time>
      </trkpt>
      <trkpt lat="44.15859" lon="0.74566">
        <ele>158</ele>
        <time>2024-04-11T12:49:02.000Z</time>
      </trkpt>
      <trkpt lat="44.15859" lon="0.74565">
        <ele>158</ele>
        <time>2024-04-11T12:49:03.000Z</time>
      </trkpt>
      <trkpt lat="44.1586" lon="0.74563">
        <ele>158</ele>
        <time>2024-04-11T12:49:04.000Z</time>
      </trkpt>
      <trkpt lat="44.15861" lon="0.74562">
        <ele>158</ele>
        <time>2024-04-11T12:49:05.000Z</time>
      </trkpt>
      <trkpt lat="44.15861" lon="0.7456">
        <ele>158</ele>
        <time>2024-04-11T12:49:06.000Z</time>
      </trkpt>
      <trkpt lat="44.15862" lon="0.74559">
        <ele>158</ele>
        <time>2024-04-11T12:49:07.000Z</time>
      </trkpt>
      <trkpt lat="44.15862" lon="0.74557">
        <ele>158</ele>
        <time>2024-04-11T12:49:08.000Z</time>
      </trkpt>
      <trkpt lat="44.15863" lon="0.74556">
        <ele>159</ele>
        <time>2024-04-11T12:49:09.000Z</time>
      </trkpt>
      <trkpt lat="44.15863" lon="0.74554">
        <ele>159</ele>
        <time>2024-04-11T12:49:10.000Z</time>
      </trkpt>
      <trkpt lat="44.15864" lon="0.74553">
        <ele>158</ele>
        <time>2024-04-11T12:49:11.000Z</time>
      </trkpt>
      <trkpt lat="44.15864" lon="0.74551">
        <ele>159</ele>
        <time>2024-04-11T12:49:12.000Z</time>
      </trkpt>
      <trkpt lat="44.15865" lon="0.7455">
        <ele>158</ele>
        <time>2024-04-11T12:49:13.000Z</time>
      </trkpt>
      <trkpt lat="44.15865" lon="0.74548">
        <ele>158</ele>
        <time>2024-04-11T12:49:14.000Z</time>
      </trkpt>
      <trkpt lat="44.15866" lon="0.74547">
        <ele>158</ele>
        <time>2024-04-11T12:49:15.000Z</time>
      </trkpt>
      <trkpt lat="44.15867" lon="0.74546">
        <ele>158</ele>
        <time>2024-04-11T12:49:16.000Z</time>
      </trkpt>
      <trkpt lat="44.15867" lon="0.74544">
        <ele>158</ele>
        <time>2024-04-11T12:49:17.000Z</time>
      </trkpt>
      <trkpt lat="44.15868" lon="0.74543">
        <ele>158</ele>
        <time>2024-04-11T12:49:18.000Z</time>
      </trkpt>
      <trkpt lat="44.15868" lon="0.74541">
        <ele>158</ele>
        <time>2024-04-11T12:49:19.000Z</time>
      </trkpt>
      <trkpt lat="44.15869" lon="0.7454">
        <ele>158</ele>
        <time>2024-04-11T12:49:20.000Z</time>
      </trkpt>
      <trkpt lat="44.15869" lon="0.74538">
        <ele>158</ele>
        <time>2024-04-11T12:49:21.000Z</time>
      </trkpt>
      <trkpt lat="44.1587" lon="0.74537">
        <ele>158</ele>
        <time>2024-04-11T12:49:22.000Z</time>
      </trkpt>
      <trkpt lat="44.1587" lon="0.74535">
        <ele>159</ele>
        <time>2024-04-11T12:49:23.000Z</time>
      </trkpt>
      <trkpt lat="44.15871" lon="0.74534">
        <ele>159</ele>
        <time>2024-04-11T12:49:24.000Z</time>
      </trkpt>
      <trkpt lat="44.15872" lon="0.74533">
        <ele>159</ele>
        <time>2024-04-11T12:49:25.000Z</time>
      </trkpt>
      <trkpt lat="44.15872" lon="0.74531">
        <ele>159</ele>
        <time>2024-04-11T12:49:26.000Z</time>
      </trkpt>
      <trkpt lat="44.15873" lon="0.7453">
        <ele>159</ele>
        <time>2024-04-11T12:49:27.000Z</time>
      </trkpt>
      <trkpt lat="44.15873" lon="0.74528">
        <ele>159</ele>
        <time>2024-04-11T12:49:28.000Z</time>
      </trkpt>
      <trkpt lat="44.15874" lon="0.74527">
        <ele>159</ele>
        <time>2024-04-11T12:49:29.000Z</time>
      </trkpt>
      <trkpt lat="44.15874" lon="0.74525">
        <ele>159</ele>
        <time>2024-04-11T12:49:30.000Z</time>
      </trkpt>
      <trkpt lat="44.15875" lon="0.74524">
        <ele>159</ele>
        <time>2024-04-11T12:49:31.000Z</time>
      </trkpt>
      <trkpt lat="44.15875" lon="0.74522">
        <ele>159</ele>
        <time>2024-04-11T12:49:32.000Z</time>
      </trkpt>
      <trkpt lat="44.15876" lon="0.74521">
        <ele>159</ele>
        <time>2024-04-11T12:49:33.000Z</time>
      </trkpt>
      <trkpt lat="44.15877" lon="0.74519">
        <ele>159</ele>
        <time>2024-04-11T12:49:34.000Z</time>
      </trkpt>
      <trkpt lat="44.15877" lon="0.74518">
        <ele>159</ele>
        <time>2024-04-11T12:49:35.000Z</time>
      </trkpt>
      <trkpt lat="44.15878" lon="0.74516">
        <ele>159</ele>
        <time>2024-04-11T12:49:36.000Z</time>
      </trkpt>
      <trkpt lat="44.15878" lon="0.74515">
        <ele>159</ele>
        <time>2024-04-11T12:49:37.000Z</time>
      </trkpt>
      <trkpt lat="44.15879" lon="0.74514">
        <ele>159</ele>
        <time>2024-04-11T12:49:38.000Z</time>
      </trkpt>
      <trkpt lat="44.1588" lon="0.74512">
        <ele>159</ele>
        <time>2024-04-11T12:49:39.000Z</time>
      </trkpt>
      <trkpt lat="44.1588" lon="0.74511">
        <ele>159</ele>
        <time>2024-04-11T12:49:40.000Z</time>
      </trkpt>
      <trkpt lat="44.15881" lon="0.74509">
        <ele>159</ele>
        <time>2024-04-11T12:49:41.000Z</time>
      </trkpt>
      <trkpt lat="44.15881" lon="0.74508">
        <ele>159</ele>
        <time>2024-04-11T12:49:42.000Z</time>
      </trkpt>
      <trkpt lat="44.15882" lon="0.74506">
        <ele>159</ele>
        <time>2024-04-11T12:49:43.000Z</time>
      </trkpt>
      <trkpt lat="44.15883" lon="0.74505">
        <ele>159</ele>
        <time>2024-04-11T12:49:44.000Z</time>
      </trkpt>
      <trkpt lat="44.15883" lon="0.74503">
        <ele>159</ele>
        <time>2024-04-11T12:49:45.000Z</time>
      </trkpt>
      <trkpt lat="44.15884" lon="0.74502">
        <ele>159</ele>
        <time>2024-04-11T12:49:46.000Z</time>
      </trkpt>
      <trkpt lat="44.15884" lon="0.74501">
        <ele>159</ele>
        <time>2024-04-11T12:49:47.000Z</time>
      </trkpt>
      <trkpt lat="44.15885" lon="0.74499">
        <ele>159</ele>
        <time>2024-04-11T12:49:48.000Z</time>
      </trkpt>
      <trkpt lat="44.15885" lon="0.74498">
        <ele>159</ele>
        <time>2024-04-11T12:49:49.000Z</time>
      </trkpt>
      <trkpt lat="44.15886" lon="0.74496">
        <ele>159</ele>
        <time>2024-04-11T12:49:50.000Z</time>
      </trkpt>
      <trkpt lat="44.15887" lon="0.74495">
        <ele>159</ele>
        <time>2024-04-11T12:49:51.000Z</time>
      </trkpt>
      <trkpt lat="44.15887" lon="0.74494">
        <ele>159</ele>
        <time>2024-04-11T12:49:52.000Z</time>
      </trkpt>
      <trkpt lat="44.15888" lon="0.74492">
        <ele>159</ele>
        <time>2024-04-11T12:49:53.000Z</time>
      </trkpt>
      <trkpt lat="44.15889" lon="0.74491">
        <ele>159</ele>
        <time>2024-04-11T12:49:54.000Z</time>
      </trkpt>
      <trkpt lat="44.15889" lon="0.7449">
        <ele>159</ele>
        <time>2024-04-11T12:49:55.000Z</time>
      </trkpt>
      <trkpt lat="44.1589" lon="0.74488">
        <ele>159</ele>
        <time>2024-04-11T12:49:56.000Z</time>
      </trkpt>
      <trkpt lat="44.1589" lon="0.74487">
        <ele>159</ele>
        <time>2024-04-11T12:49:57.000Z</time>
      </trkpt>
      <trkpt lat="44.15891" lon="0.74486">
        <ele>159</ele>
        <time>2024-04-11T12:49:58.000Z</time>
      </trkpt>
      <trkpt lat="44.15892" lon="0.74484">
        <ele>159</ele>
        <time>2024-04-11T12:49:59.000Z</time>
      </trkpt>
      <trkpt lat="44.15892" lon="0.74483">
        <ele>158</ele>
        <time>2024-04-11T12:50:00.000Z</time>
      </trkpt>
      <trkpt lat="44.15893" lon="0.74482">
        <ele>158</ele>
        <time>2024-04-11T12:50:01.000Z</time>
      </trkpt>
      <trkpt lat="44.15894" lon="0.7448">
        <ele>158</ele>
        <time>2024-04-11T12:50:02.000Z</time>
      </trkpt>
      <trkpt lat="44.15894" lon="0.74479">
        <ele>158</ele>
        <time>2024-04-11T12:50:03.000Z</time>
      </trkpt>
      <trkpt lat="44.15895" lon="0.74478">
        <ele>158</ele>
        <time>2024-04-11T12:50:04.000Z</time>
      </trkpt>
      <trkpt lat="44.15896" lon="0.74476">
        <ele>158</ele>
        <time>2024-04-11T12:50:05.000Z</time>
      </trkpt>
      <trkpt lat="44.15896" lon="0.74475">
        <ele>158</ele>
        <time>2024-04-11T12:50:06.000Z</time>
      </trkpt>
      <trkpt lat="44.15897" lon="0.74474">
        <ele>158</ele>
        <time>2024-04-11T12:50:07.000Z</time>
      </trkpt>
      <trkpt lat="44.15897" lon="0.74472">
        <ele>158</ele>
        <time>2024-04-11T12:50:08.000Z</time>
      </trkpt>
      <trkpt lat="44.15898" lon="0.74471">
        <ele>158</ele>
        <time>2024-04-11T12:50:09.000Z</time>
      </trkpt>
      <trkpt lat="44.15899" lon="0.74469">
        <ele>158</ele>
        <time>2024-04-11T12:50:10.000Z</time>
      </trkpt>
      <trkpt lat="44.15899" lon="0.74468">
        <ele>158</ele>
        <time>2024-04-11T12:50:11.000Z</time>
      </trkpt>
      <trkpt lat="44.159" lon="0.74467">
        <ele>158</ele>
        <time>2024-04-11T12:50:12.000Z</time>
      </trkpt>
      <trkpt lat="44.15901" lon="0.74465">
        <ele>158</ele>
        <time>2024-04-11T12:50:13.000Z</time>
      </trkpt>
      <trkpt lat="44.15902" lon="0.74464">
        <ele>158</ele>
        <time>2024-04-11T12:50:14.000Z</time>
      </trkpt>
      <trkpt lat="44.15902" lon="0.74463">
        <ele>158</ele>
        <time>2024-04-11T12:50:15.000Z</time>
      </trkpt>
      <trkpt lat="44.15903" lon="0.74462">
        <ele>158</ele>
        <time>2024-04-11T12:50:16.000Z</time>
      </trkpt>
      <trkpt lat="44.15904" lon="0.74461">
        <ele>158</ele>
        <time>2024-04-11T12:50:17.000Z</time>
      </trkpt>
      <trkpt lat="44.15905" lon="0.74459">
        <ele>158</ele>
        <time>2024-04-11T12:50:18.000Z</time>
      </trkpt>
      <trkpt lat="44.15906" lon="0.74458">
        <ele>159</ele>
        <time>2024-04-11T12:50:19.000Z</time>
      </trkpt>
      <trkpt lat="44.15906" lon="0.74457">
        <ele>159</ele>
        <time>2024-04-11T12:50:20.000Z</time>
      </trkpt>
      <trkpt lat="44.15907" lon="0.74456">
        <ele>159</ele>
        <time>2024-04-11T12:50:21.000Z</time>
      </trkpt>
      <trkpt lat="44.15908" lon="0.74455">
        <ele>159</ele>
        <time>2024-04-11T12:50:22.000Z</time>
      </trkpt>
      <trkpt lat="44.15908" lon="0.74454">
        <ele>159</ele>
        <time>2024-04-11T12:50:23.000Z</time>
      </trkpt>
      <trkpt lat="44.15909" lon="0.74453">
        <ele>159</ele>
        <time>2024-04-11T12:50:24.000Z</time>
      </trkpt>
      <trkpt lat="44.1591" lon="0.74451">
        <ele>159</ele>
        <time>2024-04-11T12:50:25.000Z</time>
      </trkpt>
      <trkpt lat="44.15911" lon="0.7445">
        <ele>159</ele>
        <time>2024-04-11T12:50:26.000Z</time>
      </trkpt>
      <trkpt lat="44.15911" lon="0.74449">
        <ele>159</ele>
        <time>2024-04-11T12:50:27.000Z</time>
      </trkpt>
      <trkpt lat="44.15912" lon="0.74448">
        <ele>159</ele>
        <time>2024-04-11T12:50:28.000Z</time>
      </trkpt>
      <trkpt lat="44.15913" lon="0.74447">
        <ele>159</ele>
        <time>2024-04-11T12:50:29.000Z</time>
      </trkpt>
      <trkpt lat="44.15913" lon="0.74446">
        <ele>159</ele>
        <time>2024-04-11T12:50:30.000Z</time>
      </trkpt>
      <trkpt lat="44.15914" lon="0.74445">
        <ele>159</ele>
        <time>2024-04-11T12:50:31.000Z</time>
      </trkpt>
      <trkpt lat="44.15915" lon="0.74443">
        <ele>159</ele>
        <time>2024-04-11T12:50:32.000Z</time>
      </trkpt>
      <trkpt lat="44.15916" lon="0.74442">
        <ele>159</ele>
        <time>2024-04-11T12:50:33.000Z</time>
      </trkpt>
      <trkpt lat="44.15917" lon="0.74441">
        <ele>159</ele>
        <time>2024-04-11T12:50:34.000Z</time>
      </trkpt>
      <trkpt lat="44.15917" lon="0.7444">
        <ele>159</ele>
        <time>2024-04-11T12:50:35.000Z</time>
      </trkpt>
      <trkpt lat="44.15918" lon="0.74439">
        <ele>159</ele>
        <time>2024-04-11T12:50:36.000Z</time>
      </trkpt>
      <trkpt lat="44.15919" lon="0.74438">
        <ele>159</ele>
        <time>2024-04-11T12:50:37.000Z</time>
      </trkpt>
      <trkpt lat="44.1592" lon="0.74437">
        <ele>159</ele>
        <time>2024-04-11T12:50:38.000Z</time>
      </trkpt>
      <trkpt lat="44.15921" lon="0.74436">
        <ele>159</ele>
        <time>2024-04-11T12:50:39.000Z</time>
      </trkpt>
      <trkpt lat="44.15921" lon="0.74434">
        <ele>159</ele>
        <time>2024-04-11T12:50:40.000Z</time>
      </trkpt>
      <trkpt lat="44.15922" lon="0.74433">
        <ele>159</ele>
        <time>2024-04-11T12:50:41.000Z</time>
      </trkpt>
      <trkpt lat="44.15923" lon="0.74432">
        <ele>159</ele>
        <time>2024-04-11T12:50:42.000Z</time>
      </trkpt>
      <trkpt lat="44.15924" lon="0.74431">
        <ele>159</ele>
        <time>2024-04-11T12:50:43.000Z</time>
      </trkpt>
      <trkpt lat="44.15925" lon="0.7443">
        <ele>159</ele>
        <time>2024-04-11T12:50:44.000Z</time>
      </trkpt>
      <trkpt lat="44.15926" lon="0.74429">
        <ele>159</ele>
        <time>2024-04-11T12:50:45.000Z</time>
      </trkpt>
      <trkpt lat="44.15926" lon="0.74428">
        <ele>159</ele>
        <time>2024-04-11T12:50:46.000Z</time>
      </trkpt>
      <trkpt lat="44.15927" lon="0.74427">
        <ele>160</ele>
        <time>2024-04-11T12:50:47.000Z</time>
      </trkpt>
      <trkpt lat="44.15928" lon="0.74426">
        <ele>160</ele>
        <time>2024-04-11T12:50:48.000Z</time>
      </trkpt>
      <trkpt lat="44.15929" lon="0.74424">
        <ele>160</ele>
        <time>2024-04-11T12:50:49.000Z</time>
      </trkpt>
      <trkpt lat="44.1593" lon="0.74423">
        <ele>160</ele>
        <time>2024-04-11T12:50:50.000Z</time>
      </trkpt>
      <trkpt lat="44.1593" lon="0.74422">
        <ele>160</ele>
        <time>2024-04-11T12:50:51.000Z</time>
      </trkpt>
      <trkpt lat="44.15931" lon="0.74421">
        <ele>160</ele>
        <time>2024-04-11T12:50:52.000Z</time>
      </trkpt>
      <trkpt lat="44.15932" lon="0.7442">
        <ele>160</ele>
        <time>2024-04-11T12:50:53.000Z</time>
      </trkpt>
      <trkpt lat="44.15933" lon="0.74419">
        <ele>160</ele>
        <time>2024-04-11T12:50:54.000Z</time>
      </trkpt>
      <trkpt lat="44.15933" lon="0.74419">
        <ele>160</ele>
        <time>2024-04-11T12:50:55.000Z</time>
      </trkpt>
      <trkpt lat="44.15934" lon="0.74418">
        <ele>160</ele>
        <time>2024-04-11T12:50:56.000Z</time>
      </trkpt>
      <trkpt lat="44.15934" lon="0.74417">
        <ele>160</ele>
        <time>2024-04-11T12:50:57.000Z</time>
      </trkpt>
      <trkpt lat="44.15935" lon="0.74416">
        <ele>160</ele>
        <time>2024-04-11T12:50:58.000Z</time>
      </trkpt>
      <trkpt lat="44.15936" lon="0.74416">
        <ele>160</ele>
        <time>2024-04-11T12:50:59.000Z</time>
      </trkpt>
      <trkpt lat="44.15936" lon="0.74415">
        <ele>160</ele>
        <time>2024-04-11T12:51:00.000Z</time>
      </trkpt>
      <trkpt lat="44.15936" lon="0.74415">
        <ele>160</ele>
        <time>2024-04-11T12:51:01.000Z</time>
      </trkpt>
      <trkpt lat="44.15936" lon="0.74414">
        <ele>160</ele>
        <time>2024-04-11T12:51:02.000Z</time>
      </trkpt>
      <trkpt lat="44.15937" lon="0.74414">
        <ele>160</ele>
        <time>2024-04-11T12:51:03.000Z</time>
      </trkpt>
      <trkpt lat="44.15937" lon="0.74413">
        <ele>160</ele>
        <time>2024-04-11T12:51:04.000Z</time>
      </trkpt>
      <trkpt lat="44.15937" lon="0.74413">
        <ele>160</ele>
        <time>2024-04-11T12:51:05.000Z</time>
      </trkpt>
      <trkpt lat="44.15937" lon="0.74413">
        <ele>160</ele>
        <time>2024-04-11T12:51:06.000Z</time>
      </trkpt>
      <trkpt lat="44.15937" lon="0.74412">
        <ele>160</ele>
        <time>2024-04-11T12:51:07.000Z</time>
      </trkpt>
      <trkpt lat="44.15938" lon="0.74412">
        <ele>160</ele>
        <time>2024-04-11T12:51:08.000Z</time>
      </trkpt>
      <trkpt lat="44.15938" lon="0.74412">
        <ele>160</ele>
        <time>2024-04-11T12:51:09.000Z</time>
      </trkpt>
      <trkpt lat="44.15938" lon="0.74412">
        <ele>160</ele>
        <time>2024-04-11T12:51:10.000Z</time>
      </trkpt>
      <trkpt lat="44.15938" lon="0.74412">
        <ele>160</ele>
        <time>2024-04-11T12:51:11.000Z</time>
      </trkpt>
      <trkpt lat="44.15938" lon="0.74412">
        <ele>160</ele>
        <time>2024-04-11T12:51:12.000Z</time>
      </trkpt>
      <trkpt lat="44.15938" lon="0.74412">
        <ele>160</ele>
        <time>2024-04-11T12:51:13.000Z</time>
      </trkpt>
      <trkpt lat="44.15938" lon="0.74412">
        <ele>160</ele>
        <time>2024-04-11T12:51:14.000Z</time>
      </trkpt>
      <trkpt lat="44.15938" lon="0.74412">
        <ele>160</ele>
        <time>2024-04-11T12:51:15.000Z</time>
      </trkpt>
      <trkpt lat="44.15939" lon="0.74411">
        <ele>160</ele>
        <time>2024-04-11T12:51:16.000Z</time>
      </trkpt>
      <trkpt lat="44.15939" lon="0.74411">
        <ele>161</ele>
        <time>2024-04-11T12:51:17.000Z</time>
      </trkpt>
      <trkpt lat="44.15939" lon="0.74411">
        <ele>161</ele>
        <time>2024-04-11T12:51:18.000Z</time>
      </trkpt>
      <trkpt lat="44.15939" lon="0.74411">
        <ele>161</ele>
        <time>2024-04-11T12:51:19.000Z</time>
      </trkpt>
      <trkpt lat="44.15939" lon="0.74411">
        <ele>161</ele>
        <time>2024-04-11T12:51:20.000Z</time>
      </trkpt>
      <trkpt lat="44.15939" lon="0.74411">
        <ele>161</ele>
        <time>2024-04-11T12:51:21.000Z</time>
      </trkpt>
      <trkpt lat="44.15939" lon="0.74411">
        <ele>161</ele>
        <time>2024-04-11T12:51:22.000Z</time>
      </trkpt>
      <trkpt lat="44.15939" lon="0.74411">
        <ele>161</ele>
        <time>2024-04-11T12:51:23.000Z</time>
      </trkpt>
      <trkpt lat="44.15938" lon="0.74411">
        <ele>161</ele>
        <time>2024-04-11T12:51:24.000Z</time>
      </trkpt>
      <trkpt lat="44.15937" lon="0.74411">
        <ele>161</ele>
        <time>2024-04-11T12:51:25.000Z</time>
      </trkpt>
      <trkpt lat="44.15937" lon="0.74411">
        <ele>161</ele>
        <time>2024-04-11T12:51:26.000Z</time>
      </trkpt>
      <trkpt lat="44.15937" lon="0.74411">
        <ele>161</ele>
        <time>2024-04-11T12:51:27.000Z</time>
      </trkpt>
      <trkpt lat="44.15937" lon="0.74411">
        <ele>161</ele>
        <time>2024-04-11T12:51:28.000Z</time>
      </trkpt>
      <trkpt lat="44.15937" lon="0.74411">
        <ele>161</ele>
        <time>2024-04-11T12:51:29.000Z</time>
      </trkpt>
      <trkpt lat="44.15937" lon="0.74411">
        <ele>161</ele>
        <time>2024-04-11T12:51:30.000Z</time>
      </trkpt>
      <trkpt lat="44.15937" lon="0.74411">
        <ele>161</ele>
        <time>2024-04-11T12:51:31.000Z</time>
      </trkpt>
      <trkpt lat="44.15937" lon="0.74411">
        <ele>162</ele>
        <time>2024-04-11T12:51:32.000Z</time>
      </trkpt>
      <trkpt lat="44.15937" lon="0.74411">
        <ele>162</ele>
        <time>2024-04-11T12:51:33.000Z</time>
      </trkpt>
      <trkpt lat="44.15937" lon="0.74411">
        <ele>162</ele>
        <time>2024-04-11T12:51:34.000Z</time>
      </trkpt>
      <trkpt lat="44.15937" lon="0.74411">
        <ele>162</ele>
        <time>2024-04-11T12:51:35.000Z</time>
      </trkpt>
      <trkpt lat="44.15937" lon="0.74411">
        <ele>162</ele>
        <time>2024-04-11T12:51:36.000Z</time>
      </trkpt>
      <trkpt lat="44.15937" lon="0.74411">
        <ele>162</ele>
        <time>2024-04-11T12:51:37.000Z</time>
      </trkpt>
      <trkpt lat="44.15937" lon="0.74411">
        <ele>162</ele>
        <time>2024-04-11T12:51:38.000Z</time>
      </trkpt>
      <trkpt lat="44.15937" lon="0.74411">
        <ele>162</ele>
        <time>2024-04-11T12:51:39.000Z</time>
      </trkpt>
      <trkpt lat="44.15937" lon="0.74411">
        <ele>162</ele>
        <time>2024-04-11T12:51:40.000Z</time>
      </trkpt>
      <trkpt lat="44.15937" lon="0.7441">
        <ele>162</ele>
        <time>2024-04-11T12:51:41.000Z</time>
      </trkpt>
      <trkpt lat="44.15937" lon="0.7441">
        <ele>162</ele>
        <time>2024-04-11T12:51:42.000Z</time>
      </trkpt>
      <trkpt lat="44.15937" lon="0.7441">
        <ele>162</ele>
        <time>2024-04-11T12:51:43.000Z</time>
      </trkpt>
      <trkpt lat="44.15937" lon="0.7441">
        <ele>162</ele>
        <time>2024-04-11T12:51:44.000Z</time>
      </trkpt>
      <trkpt lat="44.15938" lon="0.7441">
        <ele>162</ele>
        <time>2024-04-11T12:51:45.000Z</time>
      </trkpt>
      <trkpt lat="44.15938" lon="0.7441">
        <ele>162</ele>
        <time>2024-04-11T12:51:46.000Z</time>
      </trkpt>
      <trkpt lat="44.15938" lon="0.74409">
        <ele>162</ele>
        <time>2024-04-11T12:51:47.000Z</time>
      </trkpt>
      <trkpt lat="44.15939" lon="0.74409">
        <ele>162</ele>
        <time>2024-04-11T12:51:48.000Z</time>
      </trkpt>
      <trkpt lat="44.1594" lon="0.74408">
        <ele>162</ele>
        <time>2024-04-11T12:51:49.000Z</time>
      </trkpt>
      <trkpt lat="44.1594" lon="0.74407">
        <ele>162</ele>
        <time>2024-04-11T12:51:50.000Z</time>
      </trkpt>
      <trkpt lat="44.15941" lon="0.74407">
        <ele>162</ele>
        <time>2024-04-11T12:51:51.000Z</time>
      </trkpt>
      <trkpt lat="44.15942" lon="0.74406">
        <ele>162</ele>
        <time>2024-04-11T12:51:52.000Z</time>
      </trkpt>
      <trkpt lat="44.15943" lon="0.74405">
        <ele>162</ele>
        <time>2024-04-11T12:51:53.000Z</time>
      </trkpt>
      <trkpt lat="44.15943" lon="0.74404">
        <ele>162</ele>
        <time>2024-04-11T12:51:54.000Z</time>
      </trkpt>
      <trkpt lat="44.15944" lon="0.74403">
        <ele>162</ele>
        <time>2024-04-11T12:51:55.000Z</time>
      </trkpt>
      <trkpt lat="44.15945" lon="0.74402">
        <ele>162</ele>
        <time>2024-04-11T12:51:56.000Z</time>
      </trkpt>
      <trkpt lat="44.15945" lon="0.74401">
        <ele>162</ele>
        <time>2024-04-11T12:51:57.000Z</time>
      </trkpt>
      <trkpt lat="44.15946" lon="0.744">
        <ele>162</ele>
        <time>2024-04-11T12:51:58.000Z</time>
      </trkpt>
      <trkpt lat="44.15947" lon="0.74399">
        <ele>162</ele>
        <time>2024-04-11T12:51:59.000Z</time>
      </trkpt>
      <trkpt lat="44.15947" lon="0.74398">
        <ele>162</ele>
        <time>2024-04-11T12:52:00.000Z</time>
      </trkpt>
      <trkpt lat="44.15948" lon="0.74397">
        <ele>162</ele>
        <time>2024-04-11T12:52:01.000Z</time>
      </trkpt>
      <trkpt lat="44.15948" lon="0.74396">
        <ele>162</ele>
        <time>2024-04-11T12:52:02.000Z</time>
      </trkpt>
      <trkpt lat="44.15949" lon="0.74395">
        <ele>162</ele>
        <time>2024-04-11T12:52:03.000Z</time>
      </trkpt>
      <trkpt lat="44.15949" lon="0.74394">
        <ele>162</ele>
        <time>2024-04-11T12:52:04.000Z</time>
      </trkpt>
      <trkpt lat="44.1595" lon="0.74393">
        <ele>162</ele>
        <time>2024-04-11T12:52:05.000Z</time>
      </trkpt>
      <trkpt lat="44.15951" lon="0.74391">
        <ele>162</ele>
        <time>2024-04-11T12:52:06.000Z</time>
      </trkpt>
      <trkpt lat="44.15951" lon="0.7439">
        <ele>162</ele>
        <time>2024-04-11T12:52:07.000Z</time>
      </trkpt>
      <trkpt lat="44.15952" lon="0.74389">
        <ele>162</ele>
        <time>2024-04-11T12:52:08.000Z</time>
      </trkpt>
      <trkpt lat="44.15952" lon="0.74388">
        <ele>163</ele>
        <time>2024-04-11T12:52:09.000Z</time>
      </trkpt>
      <trkpt lat="44.15953" lon="0.74387">
        <ele>163</ele>
        <time>2024-04-11T12:52:10.000Z</time>
      </trkpt>
      <trkpt lat="44.15954" lon="0.74386">
        <ele>163</ele>
        <time>2024-04-11T12:52:11.000Z</time>
      </trkpt>
      <trkpt lat="44.15954" lon="0.74385">
        <ele>163</ele>
        <time>2024-04-11T12:52:12.000Z</time>
      </trkpt>
      <trkpt lat="44.15955" lon="0.74384">
        <ele>163</ele>
        <time>2024-04-11T12:52:13.000Z</time>
      </trkpt>
      <trkpt lat="44.15955" lon="0.74383">
        <ele>163</ele>
        <time>2024-04-11T12:52:14.000Z</time>
      </trkpt>
      <trkpt lat="44.15956" lon="0.74382">
        <ele>163</ele>
        <time>2024-04-11T12:52:15.000Z</time>
      </trkpt>
      <trkpt lat="44.15957" lon="0.7438">
        <ele>163</ele>
        <time>2024-04-11T12:52:16.000Z</time>
      </trkpt>
      <trkpt lat="44.15957" lon="0.74379">
        <ele>164</ele>
        <time>2024-04-11T12:52:17.000Z</time>
      </trkpt>
      <trkpt lat="44.15958" lon="0.74378">
        <ele>164</ele>
        <time>2024-04-11T12:52:18.000Z</time>
      </trkpt>
      <trkpt lat="44.15958" lon="0.74377">
        <ele>164</ele>
        <time>2024-04-11T12:52:19.000Z</time>
      </trkpt>
      <trkpt lat="44.15959" lon="0.74376">
        <ele>164</ele>
        <time>2024-04-11T12:52:20.000Z</time>
      </trkpt>
      <trkpt lat="44.1596" lon="0.74375">
        <ele>164</ele>
        <time>2024-04-11T12:52:21.000Z</time>
      </trkpt>
      <trkpt lat="44.1596" lon="0.74373">
        <ele>164</ele>
        <time>2024-04-11T12:52:22.000Z</time>
      </trkpt>
      <trkpt lat="44.15961" lon="0.74372">
        <ele>164</ele>
        <time>2024-04-11T12:52:23.000Z</time>
      </trkpt>
      <trkpt lat="44.15961" lon="0.74371">
        <ele>164</ele>
        <time>2024-04-11T12:52:24.000Z</time>
      </trkpt>
      <trkpt lat="44.15962" lon="0.74369">
        <ele>164</ele>
        <time>2024-04-11T12:52:25.000Z</time>
      </trkpt>
      <trkpt lat="44.15962" lon="0.74368">
        <ele>164</ele>
        <time>2024-04-11T12:52:26.000Z</time>
      </trkpt>
      <trkpt lat="44.15962" lon="0.74367">
        <ele>164</ele>
        <time>2024-04-11T12:52:27.000Z</time>
      </trkpt>
      <trkpt lat="44.15963" lon="0.74365">
        <ele>164</ele>
        <time>2024-04-11T12:52:28.000Z</time>
      </trkpt>
      <trkpt lat="44.15963" lon="0.74364">
        <ele>164</ele>
        <time>2024-04-11T12:52:29.000Z</time>
      </trkpt>
      <trkpt lat="44.15964" lon="0.74363">
        <ele>164</ele>
        <time>2024-04-11T12:52:30.000Z</time>
      </trkpt>
      <trkpt lat="44.15964" lon="0.74362">
        <ele>165</ele>
        <time>2024-04-11T12:52:31.000Z</time>
      </trkpt>
      <trkpt lat="44.15965" lon="0.7436">
        <ele>165</ele>
        <time>2024-04-11T12:52:32.000Z</time>
      </trkpt>
      <trkpt lat="44.15965" lon="0.74359">
        <ele>165</ele>
        <time>2024-04-11T12:52:33.000Z</time>
      </trkpt>
      <trkpt lat="44.15965" lon="0.74358">
        <ele>165</ele>
        <time>2024-04-11T12:52:34.000Z</time>
      </trkpt>
      <trkpt lat="44.15966" lon="0.74357">
        <ele>165</ele>
        <time>2024-04-11T12:52:35.000Z</time>
      </trkpt>
      <trkpt lat="44.15966" lon="0.74356">
        <ele>165</ele>
        <time>2024-04-11T12:52:36.000Z</time>
      </trkpt>
      <trkpt lat="44.15966" lon="0.74355">
        <ele>165</ele>
        <time>2024-04-11T12:52:37.000Z</time>
      </trkpt>
      <trkpt lat="44.15967" lon="0.74354">
        <ele>165</ele>
        <time>2024-04-11T12:52:38.000Z</time>
      </trkpt>
      <trkpt lat="44.15967" lon="0.74353">
        <ele>166</ele>
        <time>2024-04-11T12:52:39.000Z</time>
      </trkpt>
      <trkpt lat="44.15967" lon="0.74352">
        <ele>166</ele>
        <time>2024-04-11T12:52:40.000Z</time>
      </trkpt>
      <trkpt lat="44.15968" lon="0.74352">
        <ele>166</ele>
        <time>2024-04-11T12:52:41.000Z</time>
      </trkpt>
      <trkpt lat="44.15968" lon="0.74352">
        <ele>166</ele>
        <time>2024-04-11T12:52:42.000Z</time>
      </trkpt>
      <trkpt lat="44.15968" lon="0.74352">
        <ele>166</ele>
        <time>2024-04-11T12:52:43.000Z</time>
      </trkpt>
      <trkpt lat="44.15968" lon="0.74352">
        <ele>166</ele>
        <time>2024-04-11T12:52:44.000Z</time>
      </trkpt>
      <trkpt lat="44.15968" lon="0.74352">
        <ele>166</ele>
        <time>2024-04-11T12:52:45.000Z</time>
      </trkpt>
      <trkpt lat="44.15969" lon="0.74352">
        <ele>166</ele>
        <time>2024-04-11T12:52:46.000Z</time>
      </trkpt>
      <trkpt lat="44.15969" lon="0.74352">
        <ele>166</ele>
        <time>2024-04-11T12:52:47.000Z</time>
      </trkpt>
      <trkpt lat="44.15969" lon="0.74351">
        <ele>166</ele>
        <time>2024-04-11T12:52:48.000Z</time>
      </trkpt>
      <trkpt lat="44.15969" lon="0.74351">
        <ele>166</ele>
        <time>2024-04-11T12:52:49.000Z</time>
      </trkpt>
      <trkpt lat="44.15969" lon="0.74351">
        <ele>167</ele>
        <time>2024-04-11T12:52:50.000Z</time>
      </trkpt>
      <trkpt lat="44.15969" lon="0.74351">
        <ele>166</ele>
        <time>2024-04-11T12:52:51.000Z</time>
      </trkpt>
      <trkpt lat="44.1597" lon="0.74351">
        <ele>166</ele>
        <time>2024-04-11T12:52:52.000Z</time>
      </trkpt>
      <trkpt lat="44.1597" lon="0.74351">
        <ele>167</ele>
        <time>2024-04-11T12:52:53.000Z</time>
      </trkpt>
      <trkpt lat="44.1597" lon="0.74351">
        <ele>167</ele>
        <time>2024-04-11T12:52:54.000Z</time>
      </trkpt>
      <trkpt lat="44.1597" lon="0.74351">
        <ele>167</ele>
        <time>2024-04-11T12:52:55.000Z</time>
      </trkpt>
      <trkpt lat="44.1597" lon="0.74351">
        <ele>167</ele>
        <time>2024-04-11T12:52:56.000Z</time>
      </trkpt>
      <trkpt lat="44.1597" lon="0.7435">
        <ele>167</ele>
        <time>2024-04-11T12:52:57.000Z</time>
      </trkpt>
      <trkpt lat="44.1597" lon="0.7435">
        <ele>167</ele>
        <time>2024-04-11T12:52:58.000Z</time>
      </trkpt>
      <trkpt lat="44.1597" lon="0.7435">
        <ele>167</ele>
        <time>2024-04-11T12:52:59.000Z</time>
      </trkpt>
      <trkpt lat="44.15971" lon="0.7435">
        <ele>167</ele>
        <time>2024-04-11T12:53:00.000Z</time>
      </trkpt>
      <trkpt lat="44.15971" lon="0.7435">
        <ele>167</ele>
        <time>2024-04-11T12:53:01.000Z</time>
      </trkpt>
      <trkpt lat="44.15971" lon="0.7435">
        <ele>167</ele>
        <time>2024-04-11T12:53:02.000Z</time>
      </trkpt>
      <trkpt lat="44.15971" lon="0.7435">
        <ele>167</ele>
        <time>2024-04-11T12:53:03.000Z</time>
      </trkpt>
      <trkpt lat="44.15972" lon="0.7435">
        <ele>167</ele>
        <time>2024-04-11T12:53:04.000Z</time>
      </trkpt>
      <trkpt lat="44.15972" lon="0.7435">
        <ele>167</ele>
        <time>2024-04-11T12:53:05.000Z</time>
      </trkpt>
      <trkpt lat="44.15972" lon="0.7435">
        <ele>168</ele>
        <time>2024-04-11T12:53:06.000Z</time>
      </trkpt>
      <trkpt lat="44.15972" lon="0.7435">
        <ele>168</ele>
        <time>2024-04-11T12:53:07.000Z</time>
      </trkpt>
      <trkpt lat="44.15971" lon="0.7435">
        <ele>168</ele>
        <time>2024-04-11T12:53:08.000Z</time>
      </trkpt>
      <trkpt lat="44.15971" lon="0.7435">
        <ele>168</ele>
        <time>2024-04-11T12:53:09.000Z</time>
      </trkpt>
      <trkpt lat="44.15971" lon="0.74351">
        <ele>168</ele>
        <time>2024-04-11T12:53:10.000Z</time>
      </trkpt>
      <trkpt lat="44.1597" lon="0.74351">
        <ele>168</ele>
        <time>2024-04-11T12:53:11.000Z</time>
      </trkpt>
      <trkpt lat="44.1597" lon="0.74351">
        <ele>168</ele>
        <time>2024-04-11T12:53:12.000Z</time>
      </trkpt>
      <trkpt lat="44.1597" lon="0.74351">
        <ele>168</ele>
        <time>2024-04-11T12:53:13.000Z</time>
      </trkpt>
      <trkpt lat="44.1597" lon="0.74351">
        <ele>169</ele>
        <time>2024-04-11T12:53:14.000Z</time>
      </trkpt>
      <trkpt lat="44.1597" lon="0.74351">
        <ele>169</ele>
        <time>2024-04-11T12:53:15.000Z</time>
      </trkpt>
      <trkpt lat="44.15969" lon="0.74351">
        <ele>169</ele>
        <time>2024-04-11T12:53:16.000Z</time>
      </trkpt>
      <trkpt lat="44.15969" lon="0.74351">
        <ele>169</ele>
        <time>2024-04-11T12:53:17.000Z</time>
      </trkpt>
      <trkpt lat="44.15969" lon="0.74351">
        <ele>169</ele>
        <time>2024-04-11T12:53:18.000Z</time>
      </trkpt>
      <trkpt lat="44.15968" lon="0.74352">
        <ele>169</ele>
        <time>2024-04-11T12:53:19.000Z</time>
      </trkpt>
      <trkpt lat="44.15968" lon="0.74352">
        <ele>169</ele>
        <time>2024-04-11T12:53:20.000Z</time>
      </trkpt>
      <trkpt lat="44.15968" lon="0.74352">
        <ele>170</ele>
        <time>2024-04-11T12:53:21.000Z</time>
      </trkpt>
      <trkpt lat="44.15968" lon="0.74352">
        <ele>170</ele>
        <time>2024-04-11T12:53:22.000Z</time>
      </trkpt>
      <trkpt lat="44.15968" lon="0.74352">
        <ele>170</ele>
        <time>2024-04-11T12:53:23.000Z</time>
      </trkpt>
      <trkpt lat="44.15968" lon="0.74352">
        <ele>170</ele>
        <time>2024-04-11T12:53:24.000Z</time>
      </trkpt>
      <trkpt lat="44.15968" lon="0.74352">
        <ele>170</ele>
        <time>2024-04-11T12:53:25.000Z</time>
      </trkpt>
      <trkpt lat="44.15969" lon="0.74352">
        <ele>170</ele>
        <time>2024-04-11T12:53:26.000Z</time>
      </trkpt>
      <trkpt lat="44.15969" lon="0.74352">
        <ele>170</ele>
        <time>2024-04-11T12:53:27.000Z</time>
      </trkpt>
      <trkpt lat="44.1597" lon="0.74351">
        <ele>170</ele>
        <time>2024-04-11T12:53:28.000Z</time>
      </trkpt>
      <trkpt lat="44.15971" lon="0.7435">
        <ele>170</ele>
        <time>2024-04-11T12:53:29.000Z</time>
      </trkpt>
      <trkpt lat="44.15972" lon="0.74349">
        <ele>169</ele>
        <time>2024-04-11T12:53:30.000Z</time>
      </trkpt>
      <trkpt lat="44.15972" lon="0.74348">
        <ele>169</ele>
        <time>2024-04-11T12:53:31.000Z</time>
      </trkpt>
      <trkpt lat="44.15973" lon="0.74348">
        <ele>168</ele>
        <time>2024-04-11T12:53:32.000Z</time>
      </trkpt>
      <trkpt lat="44.15973" lon="0.74347">
        <ele>168</ele>
        <time>2024-04-11T12:53:33.000Z</time>
      </trkpt>
      <trkpt lat="44.15974" lon="0.74346">
        <ele>168</ele>
        <time>2024-04-11T12:53:34.000Z</time>
      </trkpt>
      <trkpt lat="44.15974" lon="0.74346">
        <ele>168</ele>
        <time>2024-04-11T12:53:35.000Z</time>
      </trkpt>
      <trkpt lat="44.15974" lon="0.74346">
        <ele>168</ele>
        <time>2024-04-11T12:53:36.000Z</time>
      </trkpt>
      <trkpt lat="44.15973" lon="0.74346">
        <ele>168</ele>
        <time>2024-04-11T12:53:37.000Z</time>
      </trkpt>
      <trkpt lat="44.15973" lon="0.74345">
        <ele>168</ele>
        <time>2024-04-11T12:53:38.000Z</time>
      </trkpt>
      <trkpt lat="44.15973" lon="0.74345">
        <ele>168</ele>
        <time>2024-04-11T12:53:39.000Z</time>
      </trkpt>
      <trkpt lat="44.15973" lon="0.74345">
        <ele>167</ele>
        <time>2024-04-11T12:53:40.000Z</time>
      </trkpt>
      <trkpt lat="44.15973" lon="0.74345">
        <ele>167</ele>
        <time>2024-04-11T12:53:41.000Z</time>
      </trkpt>
      <trkpt lat="44.15973" lon="0.74345">
        <ele>167</ele>
        <time>2024-04-11T12:53:42.000Z</time>
      </trkpt>
      <trkpt lat="44.15973" lon="0.74345">
        <ele>167</ele>
        <time>2024-04-11T12:53:43.000Z</time>
      </trkpt>
      <trkpt lat="44.15973" lon="0.74345">
        <ele>166</ele>
        <time>2024-04-11T12:53:44.000Z</time>
      </trkpt>
      <trkpt lat="44.15974" lon="0.74345">
        <ele>166</ele>
        <time>2024-04-11T12:53:45.000Z</time>
      </trkpt>
      <trkpt lat="44.15974" lon="0.74344">
        <ele>166</ele>
        <time>2024-04-11T12:53:46.000Z</time>
      </trkpt>
      <trkpt lat="44.15974" lon="0.74344">
        <ele>166</ele>
        <time>2024-04-11T12:53:47.000Z</time>
      </trkpt>
      <trkpt lat="44.15974" lon="0.74344">
        <ele>166</ele>
        <time>2024-04-11T12:53:48.000Z</time>
      </trkpt>
      <trkpt lat="44.15974" lon="0.74344">
        <ele>166</ele>
        <time>2024-04-11T12:53:49.000Z</time>
      </trkpt>
      <trkpt lat="44.15974" lon="0.74343">
        <ele>165</ele>
        <time>2024-04-11T12:53:50.000Z</time>
      </trkpt>
      <trkpt lat="44.15974" lon="0.74343">
        <ele>165</ele>
        <time>2024-04-11T12:53:51.000Z</time>
      </trkpt>
      <trkpt lat="44.15974" lon="0.74343">
        <ele>165</ele>
        <time>2024-04-11T12:53:52.000Z</time>
      </trkpt>
      <trkpt lat="44.15974" lon="0.74343">
        <ele>165</ele>
        <time>2024-04-11T12:53:53.000Z</time>
      </trkpt>
      <trkpt lat="44.15974" lon="0.74343">
        <ele>165</ele>
        <time>2024-04-11T12:53:54.000Z</time>
      </trkpt>
      <trkpt lat="44.15974" lon="0.74342">
        <ele>165</ele>
        <time>2024-04-11T12:53:55.000Z</time>
      </trkpt>
      <trkpt lat="44.15974" lon="0.74342">
        <ele>165</ele>
        <time>2024-04-11T12:53:56.000Z</time>
      </trkpt>
      <trkpt lat="44.15974" lon="0.74342">
        <ele>165</ele>
        <time>2024-04-11T12:53:57.000Z</time>
      </trkpt>
      <trkpt lat="44.15974" lon="0.74342">
        <ele>165</ele>
        <time>2024-04-11T12:53:58.000Z</time>
      </trkpt>
      <trkpt lat="44.15974" lon="0.74342">
        <ele>165</ele>
        <time>2024-04-11T12:53:59.000Z</time>
      </trkpt>
      <trkpt lat="44.15974" lon="0.74342">
        <ele>165</ele>
        <time>2024-04-11T12:54:00.000Z</time>
      </trkpt>
      <trkpt lat="44.15974" lon="0.74342">
        <ele>165</ele>
        <time>2024-04-11T12:54:01.000Z</time>
      </trkpt>
      <trkpt lat="44.15974" lon="0.74342">
        <ele>165</ele>
        <time>2024-04-11T12:54:02.000Z</time>
      </trkpt>
      <trkpt lat="44.15974" lon="0.74342">
        <ele>165</ele>
        <time>2024-04-11T12:54:03.000Z</time>
      </trkpt>
      <trkpt lat="44.15975" lon="0.74342">
        <ele>165</ele>
        <time>2024-04-11T12:54:04.000Z</time>
      </trkpt>
      <trkpt lat="44.15975" lon="0.74342">
        <ele>165</ele>
        <time>2024-04-11T12:54:05.000Z</time>
      </trkpt>
      <trkpt lat="44.15975" lon="0.74342">
        <ele>165</ele>
        <time>2024-04-11T12:54:06.000Z</time>
      </trkpt>
      <trkpt lat="44.15975" lon="0.74342">
        <ele>165</ele>
        <time>2024-04-11T12:54:07.000Z</time>
      </trkpt>
      <trkpt lat="44.15975" lon="0.74342">
        <ele>165</ele>
        <time>2024-04-11T12:54:08.000Z</time>
      </trkpt>
      <trkpt lat="44.15975" lon="0.74342">
        <ele>165</ele>
        <time>2024-04-11T12:54:09.000Z</time>
      </trkpt>
      <trkpt lat="44.15975" lon="0.74341">
        <ele>165</ele>
        <time>2024-04-11T12:54:10.000Z</time>
      </trkpt>
      <trkpt lat="44.15975" lon="0.74341">
        <ele>165</ele>
        <time>2024-04-11T12:54:11.000Z</time>
      </trkpt>
      <trkpt lat="44.15975" lon="0.74341">
        <ele>165</ele>
        <time>2024-04-11T12:54:12.000Z</time>
      </trkpt>
      <trkpt lat="44.15976" lon="0.74341">
        <ele>165</ele>
        <time>2024-04-11T12:54:13.000Z</time>
      </trkpt>
      <trkpt lat="44.15976" lon="0.74341">
        <ele>165</ele>
        <time>2024-04-11T12:54:14.000Z</time>
      </trkpt>
      <trkpt lat="44.15976" lon="0.74341">
        <ele>165</ele>
        <time>2024-04-11T12:54:15.000Z</time>
      </trkpt>
      <trkpt lat="44.15976" lon="0.74341">
        <ele>165</ele>
        <time>2024-04-11T12:54:16.000Z</time>
      </trkpt>
      <trkpt lat="44.15976" lon="0.74341">
        <ele>165</ele>
        <time>2024-04-11T12:54:17.000Z</time>
      </trkpt>
      <trkpt lat="44.15976" lon="0.74341">
        <ele>165</ele>
        <time>2024-04-11T12:54:18.000Z</time>
      </trkpt>
      <trkpt lat="44.15976" lon="0.7434">
        <ele>165</ele>
        <time>2024-04-11T12:54:19.000Z</time>
      </trkpt>
      <trkpt lat="44.15976" lon="0.7434">
        <ele>165</ele>
        <time>2024-04-11T12:54:20.000Z</time>
      </trkpt>
      <trkpt lat="44.15975" lon="0.7434">
        <ele>165</ele>
        <time>2024-04-11T12:54:21.000Z</time>
      </trkpt>
      <trkpt lat="44.15975" lon="0.74341">
        <ele>164</ele>
        <time>2024-04-11T12:54:22.000Z</time>
      </trkpt>
      <trkpt lat="44.15975" lon="0.74341">
        <ele>164</ele>
        <time>2024-04-11T12:54:23.000Z</time>
      </trkpt>
      <trkpt lat="44.15975" lon="0.74341">
        <ele>164</ele>
        <time>2024-04-11T12:54:24.000Z</time>
      </trkpt>
      <trkpt lat="44.15975" lon="0.74341">
        <ele>164</ele>
        <time>2024-04-11T12:54:25.000Z</time>
      </trkpt>
      <trkpt lat="44.15975" lon="0.74341">
        <ele>164</ele>
        <time>2024-04-11T12:54:26.000Z</time>
      </trkpt>
      <trkpt lat="44.15975" lon="0.7434">
        <ele>164</ele>
        <time>2024-04-11T12:54:27.000Z</time>
      </trkpt>
      <trkpt lat="44.15975" lon="0.7434">
        <ele>165</ele>
        <time>2024-04-11T12:54:28.000Z</time>
      </trkpt>
      <trkpt lat="44.15974" lon="0.7434">
        <ele>165</ele>
        <time>2024-04-11T12:54:29.000Z</time>
      </trkpt>
      <trkpt lat="44.15974" lon="0.7434">
        <ele>165</ele>
        <time>2024-04-11T12:54:30.000Z</time>
      </trkpt>
      <trkpt lat="44.15974" lon="0.7434">
        <ele>165</ele>
        <time>2024-04-11T12:54:31.000Z</time>
      </trkpt>
      <trkpt lat="44.15974" lon="0.7434">
        <ele>165</ele>
        <time>2024-04-11T12:54:32.000Z</time>
      </trkpt>
      <trkpt lat="44.15974" lon="0.7434">
        <ele>165</ele>
        <time>2024-04-11T12:54:33.000Z</time>
      </trkpt>
      <trkpt lat="44.15974" lon="0.7434">
        <ele>165</ele>
        <time>2024-04-11T12:54:34.000Z</time>
      </trkpt>
      <trkpt lat="44.15974" lon="0.7434">
        <ele>165</ele>
        <time>2024-04-11T12:54:35.000Z</time>
      </trkpt>
      <trkpt lat="44.15974" lon="0.7434">
        <ele>164</ele>
        <time>2024-04-11T12:54:36.000Z</time>
      </trkpt>
      <trkpt lat="44.15975" lon="0.7434">
        <ele>164</ele>
        <time>2024-04-11T12:54:37.000Z</time>
      </trkpt>
      <trkpt lat="44.15975" lon="0.7434">
        <ele>164</ele>
        <time>2024-04-11T12:54:38.000Z</time>
      </trkpt>
      <trkpt lat="44.15975" lon="0.7434">
        <ele>164</ele>
        <time>2024-04-11T12:54:39.000Z</time>
      </trkpt>
      <trkpt lat="44.15975" lon="0.7434">
        <ele>164</ele>
        <time>2024-04-11T12:54:40.000Z</time>
      </trkpt>
      <trkpt lat="44.15975" lon="0.7434">
        <ele>164</ele>
        <time>2024-04-11T12:54:41.000Z</time>
      </trkpt>
      <trkpt lat="44.15975" lon="0.7434">
        <ele>164</ele>
        <time>2024-04-11T12:54:42.000Z</time>
      </trkpt>
      <trkpt lat="44.15975" lon="0.7434">
        <ele>164</ele>
        <time>2024-04-11T12:54:43.000Z</time>
      </trkpt>
      <trkpt lat="44.15975" lon="0.7434">
        <ele>164</ele>
        <time>2024-04-11T12:54:44.000Z</time>
      </trkpt>
      <trkpt lat="44.15975" lon="0.74341">
        <ele>164</ele>
        <time>2024-04-11T12:54:45.000Z</time>
      </trkpt>
      <trkpt lat="44.15975" lon="0.74341">
        <ele>164</ele>
        <time>2024-04-11T12:54:46.000Z</time>
      </trkpt>
      <trkpt lat="44.15975" lon="0.74341">
        <ele>163</ele>
        <time>2024-04-11T12:54:47.000Z</time>
      </trkpt>
      <trkpt lat="44.15975" lon="0.74341">
        <ele>163</ele>
        <time>2024-04-11T12:54:48.000Z</time>
      </trkpt>
      <trkpt lat="44.15976" lon="0.74341">
        <ele>163</ele>
        <time>2024-04-11T12:54:49.000Z</time>
      </trkpt>
      <trkpt lat="44.15976" lon="0.74341">
        <ele>163</ele>
        <time>2024-04-11T12:54:50.000Z</time>
      </trkpt>
      <trkpt lat="44.15976" lon="0.74341">
        <ele>163</ele>
        <time>2024-04-11T12:54:51.000Z</time>
      </trkpt>
      <trkpt lat="44.15976" lon="0.74342">
        <ele>163</ele>
        <time>2024-04-11T12:54:52.000Z</time>
      </trkpt>
      <trkpt lat="44.15975" lon="0.74342">
        <ele>162</ele>
        <time>2024-04-11T12:54:53.000Z</time>
      </trkpt>
      <trkpt lat="44.15975" lon="0.74341">
        <ele>163</ele>
        <time>2024-04-11T12:54:54.000Z</time>
      </trkpt>
      <trkpt lat="44.15975" lon="0.74341">
        <ele>162</ele>
        <time>2024-04-11T12:54:55.000Z</time>
      </trkpt>
      <trkpt lat="44.15974" lon="0.7434">
        <ele>162</ele>
        <time>2024-04-11T12:54:56.000Z</time>
      </trkpt>
      <trkpt lat="44.15974" lon="0.7434">
        <ele>163</ele>
        <time>2024-04-11T12:54:57.000Z</time>
      </trkpt>
      <trkpt lat="44.15973" lon="0.74339">
        <ele>163</ele>
        <time>2024-04-11T12:54:58.000Z</time>
      </trkpt>
      <trkpt lat="44.15973" lon="0.74339">
        <ele>163</ele>
        <time>2024-04-11T12:54:59.000Z</time>
      </trkpt>
      <trkpt lat="44.15972" lon="0.74338">
        <ele>163</ele>
        <time>2024-04-11T12:55:00.000Z</time>
      </trkpt>
      <trkpt lat="44.15971" lon="0.74338">
        <ele>164</ele>
        <time>2024-04-11T12:55:01.000Z</time>
      </trkpt>
      <trkpt lat="44.15971" lon="0.74338">
        <ele>164</ele>
        <time>2024-04-11T12:55:02.000Z</time>
      </trkpt>
      <trkpt lat="44.1597" lon="0.74337">
        <ele>164</ele>
        <time>2024-04-11T12:55:03.000Z</time>
      </trkpt>
      <trkpt lat="44.1597" lon="0.74337">
        <ele>164</ele>
        <time>2024-04-11T12:55:04.000Z</time>
      </trkpt>
      <trkpt lat="44.15969" lon="0.74336">
        <ele>164</ele>
        <time>2024-04-11T12:55:05.000Z</time>
      </trkpt>
      <trkpt lat="44.15969" lon="0.74335">
        <ele>164</ele>
        <time>2024-04-11T12:55:06.000Z</time>
      </trkpt>
      <trkpt lat="44.15968" lon="0.74335">
        <ele>164</ele>
        <time>2024-04-11T12:55:07.000Z</time>
      </trkpt>
      <trkpt lat="44.15968" lon="0.74334">
        <ele>164</ele>
        <time>2024-04-11T12:55:08.000Z</time>
      </trkpt>
      <trkpt lat="44.15967" lon="0.74334">
        <ele>164</ele>
        <time>2024-04-11T12:55:09.000Z</time>
      </trkpt>
      <trkpt lat="44.15966" lon="0.74333">
        <ele>164</ele>
        <time>2024-04-11T12:55:10.000Z</time>
      </trkpt>
      <trkpt lat="44.15965" lon="0.74332">
        <ele>165</ele>
        <time>2024-04-11T12:55:11.000Z</time>
      </trkpt>
      <trkpt lat="44.15964" lon="0.74332">
        <ele>165</ele>
        <time>2024-04-11T12:55:12.000Z</time>
      </trkpt>
      <trkpt lat="44.15964" lon="0.74331">
        <ele>165</ele>
        <time>2024-04-11T12:55:13.000Z</time>
      </trkpt>
      <trkpt lat="44.15963" lon="0.7433">
        <ele>165</ele>
        <time>2024-04-11T12:55:14.000Z</time>
      </trkpt>
      <trkpt lat="44.15962" lon="0.7433">
        <ele>165</ele>
        <time>2024-04-11T12:55:15.000Z</time>
      </trkpt>
      <trkpt lat="44.15961" lon="0.7433">
        <ele>165</ele>
        <time>2024-04-11T12:55:16.000Z</time>
      </trkpt>
      <trkpt lat="44.1596" lon="0.74329">
        <ele>165</ele>
        <time>2024-04-11T12:55:17.000Z</time>
      </trkpt>
      <trkpt lat="44.15959" lon="0.74329">
        <ele>165</ele>
        <time>2024-04-11T12:55:18.000Z</time>
      </trkpt>
      <trkpt lat="44.15959" lon="0.74328">
        <ele>165</ele>
        <time>2024-04-11T12:55:19.000Z</time>
      </trkpt>
      <trkpt lat="44.15958" lon="0.74328">
        <ele>165</ele>
        <time>2024-04-11T12:55:20.000Z</time>
      </trkpt>
      <trkpt lat="44.15957" lon="0.74327">
        <ele>165</ele>
        <time>2024-04-11T12:55:21.000Z</time>
      </trkpt>
      <trkpt lat="44.15956" lon="0.74327">
        <ele>165</ele>
        <time>2024-04-11T12:55:22.000Z</time>
      </trkpt>
      <trkpt lat="44.15955" lon="0.74327">
        <ele>165</ele>
        <time>2024-04-11T12:55:23.000Z</time>
      </trkpt>
      <trkpt lat="44.15954" lon="0.74327">
        <ele>165</ele>
        <time>2024-04-11T12:55:24.000Z</time>
      </trkpt>
      <trkpt lat="44.15953" lon="0.74327">
        <ele>165</ele>
        <time>2024-04-11T12:55:25.000Z</time>
      </trkpt>
      <trkpt lat="44.15952" lon="0.74327">
        <ele>165</ele>
        <time>2024-04-11T12:55:26.000Z</time>
      </trkpt>
      <trkpt lat="44.15951" lon="0.74327">
        <ele>165</ele>
        <time>2024-04-11T12:55:27.000Z</time>
      </trkpt>
      <trkpt lat="44.1595" lon="0.74326">
        <ele>164</ele>
        <time>2024-04-11T12:55:28.000Z</time>
      </trkpt>
      <trkpt lat="44.15949" lon="0.74326">
        <ele>165</ele>
        <time>2024-04-11T12:55:29.000Z</time>
      </trkpt>
      <trkpt lat="44.15948" lon="0.74326">
        <ele>165</ele>
        <time>2024-04-11T12:55:30.000Z</time>
      </trkpt>
      <trkpt lat="44.15947" lon="0.74326">
        <ele>165</ele>
        <time>2024-04-11T12:55:31.000Z</time>
      </trkpt>
      <trkpt lat="44.15946" lon="0.74325">
        <ele>165</ele>
        <time>2024-04-11T12:55:32.000Z</time>
      </trkpt>
      <trkpt lat="44.15944" lon="0.74325">
        <ele>165</ele>
        <time>2024-04-11T12:55:33.000Z</time>
      </trkpt>
      <trkpt lat="44.15943" lon="0.74324">
        <ele>165</ele>
        <time>2024-04-11T12:55:34.000Z</time>
      </trkpt>
      <trkpt lat="44.15942" lon="0.74324">
        <ele>165</ele>
        <time>2024-04-11T12:55:35.000Z</time>
      </trkpt>
      <trkpt lat="44.15941" lon="0.74324">
        <ele>165</ele>
        <time>2024-04-11T12:55:36.000Z</time>
      </trkpt>
      <trkpt lat="44.1594" lon="0.74323">
        <ele>165</ele>
        <time>2024-04-11T12:55:37.000Z</time>
      </trkpt>
      <trkpt lat="44.15939" lon="0.74323">
        <ele>165</ele>
        <time>2024-04-11T12:55:38.000Z</time>
      </trkpt>
      <trkpt lat="44.15938" lon="0.74322">
        <ele>165</ele>
        <time>2024-04-11T12:55:39.000Z</time>
      </trkpt>
      <trkpt lat="44.15937" lon="0.74322">
        <ele>164</ele>
        <time>2024-04-11T12:55:40.000Z</time>
      </trkpt>
      <trkpt lat="44.15936" lon="0.74322">
        <ele>164</ele>
        <time>2024-04-11T12:55:41.000Z</time>
      </trkpt>
      <trkpt lat="44.15935" lon="0.74321">
        <ele>164</ele>
        <time>2024-04-11T12:55:42.000Z</time>
      </trkpt>
      <trkpt lat="44.15934" lon="0.74321">
        <ele>164</ele>
        <time>2024-04-11T12:55:43.000Z</time>
      </trkpt>
      <trkpt lat="44.15933" lon="0.7432">
        <ele>163</ele>
        <time>2024-04-11T12:55:44.000Z</time>
      </trkpt>
      <trkpt lat="44.15932" lon="0.7432">
        <ele>163</ele>
        <time>2024-04-11T12:55:45.000Z</time>
      </trkpt>
      <trkpt lat="44.15931" lon="0.7432">
        <ele>163</ele>
        <time>2024-04-11T12:55:46.000Z</time>
      </trkpt>
      <trkpt lat="44.1593" lon="0.74319">
        <ele>162</ele>
        <time>2024-04-11T12:55:47.000Z</time>
      </trkpt>
      <trkpt lat="44.15929" lon="0.74319">
        <ele>162</ele>
        <time>2024-04-11T12:55:48.000Z</time>
      </trkpt>
      <trkpt lat="44.15928" lon="0.74318">
        <ele>162</ele>
        <time>2024-04-11T12:55:49.000Z</time>
      </trkpt>
      <trkpt lat="44.15927" lon="0.74318">
        <ele>162</ele>
        <time>2024-04-11T12:55:50.000Z</time>
      </trkpt>
      <trkpt lat="44.15926" lon="0.74317">
        <ele>161</ele>
        <time>2024-04-11T12:55:51.000Z</time>
      </trkpt>
      <trkpt lat="44.15926" lon="0.74316">
        <ele>161</ele>
        <time>2024-04-11T12:55:52.000Z</time>
      </trkpt>
      <trkpt lat="44.15925" lon="0.74316">
        <ele>161</ele>
        <time>2024-04-11T12:55:53.000Z</time>
      </trkpt>
      <trkpt lat="44.15924" lon="0.74316">
        <ele>160</ele>
        <time>2024-04-11T12:55:54.000Z</time>
      </trkpt>
      <trkpt lat="44.15923" lon="0.74316">
        <ele>160</ele>
        <time>2024-04-11T12:55:55.000Z</time>
      </trkpt>
      <trkpt lat="44.15922" lon="0.74315">
        <ele>160</ele>
        <time>2024-04-11T12:55:56.000Z</time>
      </trkpt>
      <trkpt lat="44.15922" lon="0.74314">
        <ele>160</ele>
        <time>2024-04-11T12:55:57.000Z</time>
      </trkpt>
      <trkpt lat="44.15921" lon="0.74313">
        <ele>160</ele>
        <time>2024-04-11T12:55:58.000Z</time>
      </trkpt>
      <trkpt lat="44.1592" lon="0.74312">
        <ele>159</ele>
        <time>2024-04-11T12:55:59.000Z</time>
      </trkpt>
      <trkpt lat="44.15919" lon="0.74312">
        <ele>159</ele>
        <time>2024-04-11T12:56:00.000Z</time>
      </trkpt>
      <trkpt lat="44.15918" lon="0.74311">
        <ele>159</ele>
        <time>2024-04-11T12:56:01.000Z</time>
      </trkpt>
      <trkpt lat="44.15917" lon="0.74311">
        <ele>159</ele>
        <time>2024-04-11T12:56:02.000Z</time>
      </trkpt>
      <trkpt lat="44.15916" lon="0.7431">
        <ele>159</ele>
        <time>2024-04-11T12:56:03.000Z</time>
      </trkpt>
      <trkpt lat="44.15915" lon="0.7431">
        <ele>158</ele>
        <time>2024-04-11T12:56:04.000Z</time>
      </trkpt>
      <trkpt lat="44.15914" lon="0.74309">
        <ele>158</ele>
        <time>2024-04-11T12:56:05.000Z</time>
      </trkpt>
      <trkpt lat="44.15913" lon="0.74308">
        <ele>158</ele>
        <time>2024-04-11T12:56:06.000Z</time>
      </trkpt>
      <trkpt lat="44.15912" lon="0.74308">
        <ele>158</ele>
        <time>2024-04-11T12:56:07.000Z</time>
      </trkpt>
      <trkpt lat="44.15912" lon="0.74307">
        <ele>158</ele>
        <time>2024-04-11T12:56:08.000Z</time>
      </trkpt>
      <trkpt lat="44.15911" lon="0.74307">
        <ele>158</ele>
        <time>2024-04-11T12:56:09.000Z</time>
      </trkpt>
      <trkpt lat="44.1591" lon="0.74306">
        <ele>157</ele>
        <time>2024-04-11T12:56:10.000Z</time>
      </trkpt>
      <trkpt lat="44.15909" lon="0.74305">
        <ele>157</ele>
        <time>2024-04-11T12:56:11.000Z</time>
      </trkpt>
      <trkpt lat="44.15908" lon="0.74305">
        <ele>157</ele>
        <time>2024-04-11T12:56:12.000Z</time>
      </trkpt>
      <trkpt lat="44.15907" lon="0.74304">
        <ele>157</ele>
        <time>2024-04-11T12:56:13.000Z</time>
      </trkpt>
      <trkpt lat="44.15906" lon="0.74304">
        <ele>157</ele>
        <time>2024-04-11T12:56:14.000Z</time>
      </trkpt>
      <trkpt lat="44.15905" lon="0.74303">
        <ele>156</ele>
        <time>2024-04-11T12:56:15.000Z</time>
      </trkpt>
      <trkpt lat="44.15904" lon="0.74303">
        <ele>156</ele>
        <time>2024-04-11T12:56:16.000Z</time>
      </trkpt>
      <trkpt lat="44.15903" lon="0.74302">
        <ele>156</ele>
        <time>2024-04-11T12:56:17.000Z</time>
      </trkpt>
      <trkpt lat="44.15902" lon="0.74302">
        <ele>155</ele>
        <time>2024-04-11T12:56:18.000Z</time>
      </trkpt>
      <trkpt lat="44.15901" lon="0.74301">
        <ele>155</ele>
        <time>2024-04-11T12:56:19.000Z</time>
      </trkpt>
      <trkpt lat="44.159" lon="0.74301">
        <ele>155</ele>
        <time>2024-04-11T12:56:20.000Z</time>
      </trkpt>
      <trkpt lat="44.15899" lon="0.743">
        <ele>155</ele>
        <time>2024-04-11T12:56:21.000Z</time>
      </trkpt>
      <trkpt lat="44.15898" lon="0.74299">
        <ele>155</ele>
        <time>2024-04-11T12:56:22.000Z</time>
      </trkpt>
      <trkpt lat="44.15897" lon="0.74299">
        <ele>155</ele>
        <time>2024-04-11T12:56:23.000Z</time>
      </trkpt>
      <trkpt lat="44.15896" lon="0.74298">
        <ele>154</ele>
        <time>2024-04-11T12:56:24.000Z</time>
      </trkpt>
      <trkpt lat="44.15895" lon="0.74298">
        <ele>154</ele>
        <time>2024-04-11T12:56:25.000Z</time>
      </trkpt>
      <trkpt lat="44.15894" lon="0.74297">
        <ele>155</ele>
        <time>2024-04-11T12:56:26.000Z</time>
      </trkpt>
      <trkpt lat="44.15893" lon="0.74297">
        <ele>155</ele>
        <time>2024-04-11T12:56:27.000Z</time>
      </trkpt>
      <trkpt lat="44.15892" lon="0.74296">
        <ele>155</ele>
        <time>2024-04-11T12:56:28.000Z</time>
      </trkpt>
      <trkpt lat="44.15891" lon="0.74295">
        <ele>154</ele>
        <time>2024-04-11T12:56:29.000Z</time>
      </trkpt>
      <trkpt lat="44.1589" lon="0.74294">
        <ele>154</ele>
        <time>2024-04-11T12:56:30.000Z</time>
      </trkpt>
      <trkpt lat="44.15888" lon="0.74293">
        <ele>154</ele>
        <time>2024-04-11T12:56:31.000Z</time>
      </trkpt>
      <trkpt lat="44.15888" lon="0.74293">
        <ele>154</ele>
        <time>2024-04-11T12:56:32.000Z</time>
      </trkpt>
      <trkpt lat="44.15886" lon="0.74292">
        <ele>154</ele>
        <time>2024-04-11T12:56:33.000Z</time>
      </trkpt>
      <trkpt lat="44.15886" lon="0.74292">
        <ele>153</ele>
        <time>2024-04-11T12:56:34.000Z</time>
      </trkpt>
      <trkpt lat="44.15885" lon="0.74291">
        <ele>153</ele>
        <time>2024-04-11T12:56:35.000Z</time>
      </trkpt>
      <trkpt lat="44.15884" lon="0.74291">
        <ele>153</ele>
        <time>2024-04-11T12:56:36.000Z</time>
      </trkpt>
      <trkpt lat="44.15883" lon="0.7429">
        <ele>153</ele>
        <time>2024-04-11T12:56:37.000Z</time>
      </trkpt>
      <trkpt lat="44.15882" lon="0.7429">
        <ele>153</ele>
        <time>2024-04-11T12:56:38.000Z</time>
      </trkpt>
      <trkpt lat="44.15881" lon="0.74289">
        <ele>153</ele>
        <time>2024-04-11T12:56:39.000Z</time>
      </trkpt>
      <trkpt lat="44.1588" lon="0.74289">
        <ele>153</ele>
        <time>2024-04-11T12:56:40.000Z</time>
      </trkpt>
      <trkpt lat="44.15879" lon="0.74288">
        <ele>152</ele>
        <time>2024-04-11T12:56:41.000Z</time>
      </trkpt>
      <trkpt lat="44.15878" lon="0.74288">
        <ele>152</ele>
        <time>2024-04-11T12:56:42.000Z</time>
      </trkpt>
      <trkpt lat="44.15877" lon="0.74287">
        <ele>152</ele>
        <time>2024-04-11T12:56:43.000Z</time>
      </trkpt>
      <trkpt lat="44.15876" lon="0.74287">
        <ele>152</ele>
        <time>2024-04-11T12:56:44.000Z</time>
      </trkpt>
      <trkpt lat="44.15875" lon="0.74286">
        <ele>152</ele>
        <time>2024-04-11T12:56:45.000Z</time>
      </trkpt>
      <trkpt lat="44.15874" lon="0.74285">
        <ele>151</ele>
        <time>2024-04-11T12:56:46.000Z</time>
      </trkpt>
      <trkpt lat="44.15873" lon="0.74284">
        <ele>151</ele>
        <time>2024-04-11T12:56:47.000Z</time>
      </trkpt>
      <trkpt lat="44.15872" lon="0.74284">
        <ele>151</ele>
        <time>2024-04-11T12:56:48.000Z</time>
      </trkpt>
      <trkpt lat="44.15871" lon="0.74283">
        <ele>151</ele>
        <time>2024-04-11T12:56:49.000Z</time>
      </trkpt>
      <trkpt lat="44.1587" lon="0.74282">
        <ele>150</ele>
        <time>2024-04-11T12:56:50.000Z</time>
      </trkpt>
      <trkpt lat="44.15869" lon="0.74282">
        <ele>151</ele>
        <time>2024-04-11T12:56:51.000Z</time>
      </trkpt>
      <trkpt lat="44.15868" lon="0.74281">
        <ele>150</ele>
        <time>2024-04-11T12:56:52.000Z</time>
      </trkpt>
      <trkpt lat="44.15867" lon="0.7428">
        <ele>150</ele>
        <time>2024-04-11T12:56:53.000Z</time>
      </trkpt>
      <trkpt lat="44.15866" lon="0.7428">
        <ele>149</ele>
        <time>2024-04-11T12:56:54.000Z</time>
      </trkpt>
      <trkpt lat="44.15865" lon="0.74279">
        <ele>149</ele>
        <time>2024-04-11T12:56:55.000Z</time>
      </trkpt>
      <trkpt lat="44.15864" lon="0.74278">
        <ele>149</ele>
        <time>2024-04-11T12:56:56.000Z</time>
      </trkpt>
      <trkpt lat="44.15863" lon="0.74278">
        <ele>149</ele>
        <time>2024-04-11T12:56:57.000Z</time>
      </trkpt>
      <trkpt lat="44.15862" lon="0.74277">
        <ele>149</ele>
        <time>2024-04-11T12:56:58.000Z</time>
      </trkpt>
      <trkpt lat="44.15861" lon="0.74276">
        <ele>148</ele>
        <time>2024-04-11T12:56:59.000Z</time>
      </trkpt>
      <trkpt lat="44.1586" lon="0.74275">
        <ele>148</ele>
        <time>2024-04-11T12:57:00.000Z</time>
      </trkpt>
      <trkpt lat="44.15859" lon="0.74275">
        <ele>148</ele>
        <time>2024-04-11T12:57:01.000Z</time>
      </trkpt>
      <trkpt lat="44.15858" lon="0.74274">
        <ele>148</ele>
        <time>2024-04-11T12:57:02.000Z</time>
      </trkpt>
      <trkpt lat="44.15857" lon="0.74273">
        <ele>148</ele>
        <time>2024-04-11T12:57:03.000Z</time>
      </trkpt>
      <trkpt lat="44.15856" lon="0.74272">
        <ele>147</ele>
        <time>2024-04-11T12:57:04.000Z</time>
      </trkpt>
      <trkpt lat="44.15855" lon="0.74272">
        <ele>147</ele>
        <time>2024-04-11T12:57:05.000Z</time>
      </trkpt>
      <trkpt lat="44.15855" lon="0.74271">
        <ele>147</ele>
        <time>2024-04-11T12:57:06.000Z</time>
      </trkpt>
      <trkpt lat="44.15854" lon="0.7427">
        <ele>146</ele>
        <time>2024-04-11T12:57:07.000Z</time>
      </trkpt>
      <trkpt lat="44.15853" lon="0.74269">
        <ele>146</ele>
        <time>2024-04-11T12:57:08.000Z</time>
      </trkpt>
      <trkpt lat="44.15852" lon="0.74269">
        <ele>146</ele>
        <time>2024-04-11T12:57:09.000Z</time>
      </trkpt>
      <trkpt lat="44.15851" lon="0.74268">
        <ele>146</ele>
        <time>2024-04-11T12:57:10.000Z</time>
      </trkpt>
      <trkpt lat="44.1585" lon="0.74267">
        <ele>146</ele>
        <time>2024-04-11T12:57:11.000Z</time>
      </trkpt>
      <trkpt lat="44.15849" lon="0.74266">
        <ele>146</ele>
        <time>2024-04-11T12:57:12.000Z</time>
      </trkpt>
      <trkpt lat="44.15849" lon="0.74265">
        <ele>146</ele>
        <time>2024-04-11T12:57:13.000Z</time>
      </trkpt>
      <trkpt lat="44.15848" lon="0.74264">
        <ele>146</ele>
        <time>2024-04-11T12:57:14.000Z</time>
      </trkpt>
      <trkpt lat="44.15847" lon="0.74264">
        <ele>146</ele>
        <time>2024-04-11T12:57:15.000Z</time>
      </trkpt>
      <trkpt lat="44.15847" lon="0.74263">
        <ele>146</ele>
        <time>2024-04-11T12:57:16.000Z</time>
      </trkpt>
      <trkpt lat="44.15846" lon="0.74262">
        <ele>145</ele>
        <time>2024-04-11T12:57:17.000Z</time>
      </trkpt>
      <trkpt lat="44.15845" lon="0.74261">
        <ele>145</ele>
        <time>2024-04-11T12:57:18.000Z</time>
      </trkpt>
      <trkpt lat="44.15844" lon="0.7426">
        <ele>145</ele>
        <time>2024-04-11T12:57:19.000Z</time>
      </trkpt>
      <trkpt lat="44.15843" lon="0.74259">
        <ele>144</ele>
        <time>2024-04-11T12:57:20.000Z</time>
      </trkpt>
      <trkpt lat="44.15843" lon="0.74258">
        <ele>144</ele>
        <time>2024-04-11T12:57:21.000Z</time>
      </trkpt>
      <trkpt lat="44.15843" lon="0.74257">
        <ele>143</ele>
        <time>2024-04-11T12:57:22.000Z</time>
      </trkpt>
      <trkpt lat="44.15842" lon="0.74256">
        <ele>143</ele>
        <time>2024-04-11T12:57:23.000Z</time>
      </trkpt>
      <trkpt lat="44.15841" lon="0.74255">
        <ele>142</ele>
        <time>2024-04-11T12:57:24.000Z</time>
      </trkpt>
      <trkpt lat="44.15841" lon="0.74253">
        <ele>142</ele>
        <time>2024-04-11T12:57:25.000Z</time>
      </trkpt>
      <trkpt lat="44.1584" lon="0.74252">
        <ele>142</ele>
        <time>2024-04-11T12:57:26.000Z</time>
      </trkpt>
      <trkpt lat="44.15839" lon="0.74251">
        <ele>142</ele>
        <time>2024-04-11T12:57:27.000Z</time>
      </trkpt>
      <trkpt lat="44.15838" lon="0.7425">
        <ele>142</ele>
        <time>2024-04-11T12:57:28.000Z</time>
      </trkpt>
      <trkpt lat="44.15838" lon="0.74248">
        <ele>142</ele>
        <time>2024-04-11T12:57:29.000Z</time>
      </trkpt>
      <trkpt lat="44.15837" lon="0.74247">
        <ele>142</ele>
        <time>2024-04-11T12:57:30.000Z</time>
      </trkpt>
      <trkpt lat="44.15837" lon="0.74246">
        <ele>142</ele>
        <time>2024-04-11T12:57:31.000Z</time>
      </trkpt>
      <trkpt lat="44.15836" lon="0.74245">
        <ele>142</ele>
        <time>2024-04-11T12:57:32.000Z</time>
      </trkpt>
      <trkpt lat="44.15835" lon="0.74244">
        <ele>141</ele>
        <time>2024-04-11T12:57:33.000Z</time>
      </trkpt>
      <trkpt lat="44.15834" lon="0.74243">
        <ele>141</ele>
        <time>2024-04-11T12:57:34.000Z</time>
      </trkpt>
      <trkpt lat="44.15834" lon="0.74242">
        <ele>141</ele>
        <time>2024-04-11T12:57:35.000Z</time>
      </trkpt>
      <trkpt lat="44.15833" lon="0.7424">
        <ele>140</ele>
        <time>2024-04-11T12:57:36.000Z</time>
      </trkpt>
      <trkpt lat="44.15832" lon="0.74239">
        <ele>140</ele>
        <time>2024-04-11T12:57:37.000Z</time>
      </trkpt>
      <trkpt lat="44.15832" lon="0.74238">
        <ele>140</ele>
        <time>2024-04-11T12:57:38.000Z</time>
      </trkpt>
      <trkpt lat="44.15831" lon="0.74237">
        <ele>140</ele>
        <time>2024-04-11T12:57:39.000Z</time>
      </trkpt>
      <trkpt lat="44.1583" lon="0.74236">
        <ele>140</ele>
        <time>2024-04-11T12:57:40.000Z</time>
      </trkpt>
      <trkpt lat="44.1583" lon="0.74235">
        <ele>139</ele>
        <time>2024-04-11T12:57:41.000Z</time>
      </trkpt>
      <trkpt lat="44.15829" lon="0.74233">
        <ele>139</ele>
        <time>2024-04-11T12:57:42.000Z</time>
      </trkpt>
      <trkpt lat="44.15828" lon="0.74232">
        <ele>138</ele>
        <time>2024-04-11T12:57:43.000Z</time>
      </trkpt>
      <trkpt lat="44.15828" lon="0.74231">
        <ele>138</ele>
        <time>2024-04-11T12:57:44.000Z</time>
      </trkpt>
      <trkpt lat="44.15827" lon="0.7423">
        <ele>138</ele>
        <time>2024-04-11T12:57:45.000Z</time>
      </trkpt>
      <trkpt lat="44.15826" lon="0.74229">
        <ele>138</ele>
        <time>2024-04-11T12:57:46.000Z</time>
      </trkpt>
      <trkpt lat="44.15825" lon="0.74227">
        <ele>137</ele>
        <time>2024-04-11T12:57:47.000Z</time>
      </trkpt>
      <trkpt lat="44.15825" lon="0.74226">
        <ele>137</ele>
        <time>2024-04-11T12:57:48.000Z</time>
      </trkpt>
      <trkpt lat="44.15824" lon="0.74225">
        <ele>137</ele>
        <time>2024-04-11T12:57:49.000Z</time>
      </trkpt>
      <trkpt lat="44.15824" lon="0.74224">
        <ele>136</ele>
        <time>2024-04-11T12:57:50.000Z</time>
      </trkpt>
      <trkpt lat="44.15823" lon="0.74222">
        <ele>136</ele>
        <time>2024-04-11T12:57:51.000Z</time>
      </trkpt>
      <trkpt lat="44.15822" lon="0.74221">
        <ele>136</ele>
        <time>2024-04-11T12:57:52.000Z</time>
      </trkpt>
      <trkpt lat="44.15821" lon="0.74219">
        <ele>136</ele>
        <time>2024-04-11T12:57:53.000Z</time>
      </trkpt>
      <trkpt lat="44.15821" lon="0.74218">
        <ele>136</ele>
        <time>2024-04-11T12:57:54.000Z</time>
      </trkpt>
      <trkpt lat="44.1582" lon="0.74217">
        <ele>136</ele>
        <time>2024-04-11T12:57:55.000Z</time>
      </trkpt>
      <trkpt lat="44.1582" lon="0.74215">
        <ele>136</ele>
        <time>2024-04-11T12:57:56.000Z</time>
      </trkpt>
      <trkpt lat="44.15819" lon="0.74214">
        <ele>135</ele>
        <time>2024-04-11T12:57:57.000Z</time>
      </trkpt>
      <trkpt lat="44.15819" lon="0.74213">
        <ele>135</ele>
        <time>2024-04-11T12:57:58.000Z</time>
      </trkpt>
      <trkpt lat="44.15818" lon="0.74212">
        <ele>135</ele>
        <time>2024-04-11T12:57:59.000Z</time>
      </trkpt>
      <trkpt lat="44.15818" lon="0.74211">
        <ele>135</ele>
        <time>2024-04-11T12:58:00.000Z</time>
      </trkpt>
      <trkpt lat="44.15817" lon="0.74209">
        <ele>134</ele>
        <time>2024-04-11T12:58:01.000Z</time>
      </trkpt>
      <trkpt lat="44.15817" lon="0.74208">
        <ele>134</ele>
        <time>2024-04-11T12:58:02.000Z</time>
      </trkpt>
      <trkpt lat="44.15816" lon="0.74206">
        <ele>134</ele>
        <time>2024-04-11T12:58:03.000Z</time>
      </trkpt>
      <trkpt lat="44.15816" lon="0.74205">
        <ele>133</ele>
        <time>2024-04-11T12:58:04.000Z</time>
      </trkpt>
      <trkpt lat="44.15815" lon="0.74204">
        <ele>133</ele>
        <time>2024-04-11T12:58:05.000Z</time>
      </trkpt>
      <trkpt lat="44.15815" lon="0.74202">
        <ele>133</ele>
        <time>2024-04-11T12:58:06.000Z</time>
      </trkpt>
      <trkpt lat="44.15814" lon="0.74201">
        <ele>133</ele>
        <time>2024-04-11T12:58:07.000Z</time>
      </trkpt>
      <trkpt lat="44.15814" lon="0.742">
        <ele>133</ele>
        <time>2024-04-11T12:58:08.000Z</time>
      </trkpt>
      <trkpt lat="44.15813" lon="0.74198">
        <ele>133</ele>
        <time>2024-04-11T12:58:09.000Z</time>
      </trkpt>
      <trkpt lat="44.15813" lon="0.74197">
        <ele>133</ele>
        <time>2024-04-11T12:58:10.000Z</time>
      </trkpt>
      <trkpt lat="44.15813" lon="0.74195">
        <ele>132</ele>
        <time>2024-04-11T12:58:11.000Z</time>
      </trkpt>
      <trkpt lat="44.15813" lon="0.74194">
        <ele>133</ele>
        <time>2024-04-11T12:58:12.000Z</time>
      </trkpt>
      <trkpt lat="44.15812" lon="0.74192">
        <ele>133</ele>
        <time>2024-04-11T12:58:13.000Z</time>
      </trkpt>
      <trkpt lat="44.15812" lon="0.74191">
        <ele>133</ele>
        <time>2024-04-11T12:58:14.000Z</time>
      </trkpt>
      <trkpt lat="44.15812" lon="0.74189">
        <ele>132</ele>
        <time>2024-04-11T12:58:15.000Z</time>
      </trkpt>
      <trkpt lat="44.15811" lon="0.74188">
        <ele>132</ele>
        <time>2024-04-11T12:58:16.000Z</time>
      </trkpt>
      <trkpt lat="44.15811" lon="0.74186">
        <ele>132</ele>
        <time>2024-04-11T12:58:17.000Z</time>
      </trkpt>
      <trkpt lat="44.1581" lon="0.74185">
        <ele>132</ele>
        <time>2024-04-11T12:58:18.000Z</time>
      </trkpt>
      <trkpt lat="44.1581" lon="0.74183">
        <ele>132</ele>
        <time>2024-04-11T12:58:19.000Z</time>
      </trkpt>
      <trkpt lat="44.1581" lon="0.74182">
        <ele>132</ele>
        <time>2024-04-11T12:58:20.000Z</time>
      </trkpt>
      <trkpt lat="44.15809" lon="0.7418">
        <ele>132</ele>
        <time>2024-04-11T12:58:21.000Z</time>
      </trkpt>
      <trkpt lat="44.15809" lon="0.74179">
        <ele>132</ele>
        <time>2024-04-11T12:58:22.000Z</time>
      </trkpt>
      <trkpt lat="44.15808" lon="0.74177">
        <ele>132</ele>
        <time>2024-04-11T12:58:23.000Z</time>
      </trkpt>
      <trkpt lat="44.15808" lon="0.74175">
        <ele>132</ele>
        <time>2024-04-11T12:58:24.000Z</time>
      </trkpt>
      <trkpt lat="44.15808" lon="0.74174">
        <ele>132</ele>
        <time>2024-04-11T12:58:25.000Z</time>
      </trkpt>
      <trkpt lat="44.15808" lon="0.74172">
        <ele>132</ele>
        <time>2024-04-11T12:58:26.000Z</time>
      </trkpt>
      <trkpt lat="44.15807" lon="0.74171">
        <ele>132</ele>
        <time>2024-04-11T12:58:27.000Z</time>
      </trkpt>
      <trkpt lat="44.15807" lon="0.74169">
        <ele>132</ele>
        <time>2024-04-11T12:58:28.000Z</time>
      </trkpt>
      <trkpt lat="44.15807" lon="0.74168">
        <ele>132</ele>
        <time>2024-04-11T12:58:29.000Z</time>
      </trkpt>
      <trkpt lat="44.15807" lon="0.74166">
        <ele>132</ele>
        <time>2024-04-11T12:58:30.000Z</time>
      </trkpt>
      <trkpt lat="44.15806" lon="0.74164">
        <ele>131</ele>
        <time>2024-04-11T12:58:31.000Z</time>
      </trkpt>
      <trkpt lat="44.15806" lon="0.74163">
        <ele>131</ele>
        <time>2024-04-11T12:58:32.000Z</time>
      </trkpt>
      <trkpt lat="44.15806" lon="0.74161">
        <ele>131</ele>
        <time>2024-04-11T12:58:33.000Z</time>
      </trkpt>
      <trkpt lat="44.15806" lon="0.74159">
        <ele>131</ele>
        <time>2024-04-11T12:58:34.000Z</time>
      </trkpt>
      <trkpt lat="44.15805" lon="0.74158">
        <ele>131</ele>
        <time>2024-04-11T12:58:35.000Z</time>
      </trkpt>
      <trkpt lat="44.15805" lon="0.74156">
        <ele>131</ele>
        <time>2024-04-11T12:58:36.000Z</time>
      </trkpt>
      <trkpt lat="44.15805" lon="0.74154">
        <ele>131</ele>
        <time>2024-04-11T12:58:37.000Z</time>
      </trkpt>
      <trkpt lat="44.15805" lon="0.74153">
        <ele>130</ele>
        <time>2024-04-11T12:58:38.000Z</time>
      </trkpt>
      <trkpt lat="44.15805" lon="0.74151">
        <ele>130</ele>
        <time>2024-04-11T12:58:39.000Z</time>
      </trkpt>
      <trkpt lat="44.15804" lon="0.74149">
        <ele>130</ele>
        <time>2024-04-11T12:58:40.000Z</time>
      </trkpt>
      <trkpt lat="44.15804" lon="0.74148">
        <ele>130</ele>
        <time>2024-04-11T12:58:41.000Z</time>
      </trkpt>
      <trkpt lat="44.15804" lon="0.74146">
        <ele>130</ele>
        <time>2024-04-11T12:58:42.000Z</time>
      </trkpt>
      <trkpt lat="44.15804" lon="0.74144">
        <ele>130</ele>
        <time>2024-04-11T12:58:43.000Z</time>
      </trkpt>
      <trkpt lat="44.15804" lon="0.74143">
        <ele>130</ele>
        <time>2024-04-11T12:58:44.000Z</time>
      </trkpt>
      <trkpt lat="44.15804" lon="0.74141">
        <ele>130</ele>
        <time>2024-04-11T12:58:45.000Z</time>
      </trkpt>
      <trkpt lat="44.15804" lon="0.74139">
        <ele>130</ele>
        <time>2024-04-11T12:58:46.000Z</time>
      </trkpt>
      <trkpt lat="44.15804" lon="0.74138">
        <ele>130</ele>
        <time>2024-04-11T12:58:47.000Z</time>
      </trkpt>
      <trkpt lat="44.15804" lon="0.74136">
        <ele>130</ele>
        <time>2024-04-11T12:58:48.000Z</time>
      </trkpt>
      <trkpt lat="44.15803" lon="0.74135">
        <ele>130</ele>
        <time>2024-04-11T12:58:49.000Z</time>
      </trkpt>
      <trkpt lat="44.15803" lon="0.74133">
        <ele>130</ele>
        <time>2024-04-11T12:58:50.000Z</time>
      </trkpt>
      <trkpt lat="44.15803" lon="0.74131">
        <ele>130</ele>
        <time>2024-04-11T12:58:51.000Z</time>
      </trkpt>
      <trkpt lat="44.15803" lon="0.7413">
        <ele>130</ele>
        <time>2024-04-11T12:58:52.000Z</time>
      </trkpt>
      <trkpt lat="44.15803" lon="0.74128">
        <ele>130</ele>
        <time>2024-04-11T12:58:53.000Z</time>
      </trkpt>
      <trkpt lat="44.15803" lon="0.74127">
        <ele>130</ele>
        <time>2024-04-11T12:58:54.000Z</time>
      </trkpt>
      <trkpt lat="44.15803" lon="0.74125">
        <ele>130</ele>
        <time>2024-04-11T12:58:55.000Z</time>
      </trkpt>
      <trkpt lat="44.15803" lon="0.74124">
        <ele>130</ele>
        <time>2024-04-11T12:58:56.000Z</time>
      </trkpt>
      <trkpt lat="44.15803" lon="0.74122">
        <ele>129</ele>
        <time>2024-04-11T12:58:57.000Z</time>
      </trkpt>
      <trkpt lat="44.15802" lon="0.74121">
        <ele>129</ele>
        <time>2024-04-11T12:58:58.000Z</time>
      </trkpt>
      <trkpt lat="44.15802" lon="0.74119">
        <ele>129</ele>
        <time>2024-04-11T12:58:59.000Z</time>
      </trkpt>
      <trkpt lat="44.15802" lon="0.74118">
        <ele>129</ele>
        <time>2024-04-11T12:59:00.000Z</time>
      </trkpt>
      <trkpt lat="44.15801" lon="0.74116">
        <ele>128</ele>
        <time>2024-04-11T12:59:01.000Z</time>
      </trkpt>
      <trkpt lat="44.15801" lon="0.74115">
        <ele>128</ele>
        <time>2024-04-11T12:59:02.000Z</time>
      </trkpt>
      <trkpt lat="44.15801" lon="0.74113">
        <ele>128</ele>
        <time>2024-04-11T12:59:03.000Z</time>
      </trkpt>
      <trkpt lat="44.15801" lon="0.74112">
        <ele>128</ele>
        <time>2024-04-11T12:59:04.000Z</time>
      </trkpt>
      <trkpt lat="44.15801" lon="0.7411">
        <ele>128</ele>
        <time>2024-04-11T12:59:05.000Z</time>
      </trkpt>
      <trkpt lat="44.15801" lon="0.74109">
        <ele>128</ele>
        <time>2024-04-11T12:59:06.000Z</time>
      </trkpt>
      <trkpt lat="44.15801" lon="0.74107">
        <ele>127</ele>
        <time>2024-04-11T12:59:07.000Z</time>
      </trkpt>
      <trkpt lat="44.158" lon="0.74106">
        <ele>127</ele>
        <time>2024-04-11T12:59:08.000Z</time>
      </trkpt>
      <trkpt lat="44.158" lon="0.74105">
        <ele>127</ele>
        <time>2024-04-11T12:59:09.000Z</time>
      </trkpt>
      <trkpt lat="44.158" lon="0.74104">
        <ele>127</ele>
        <time>2024-04-11T12:59:10.000Z</time>
      </trkpt>
      <trkpt lat="44.158" lon="0.74103">
        <ele>127</ele>
        <time>2024-04-11T12:59:11.000Z</time>
      </trkpt>
      <trkpt lat="44.158" lon="0.74101">
        <ele>127</ele>
        <time>2024-04-11T12:59:12.000Z</time>
      </trkpt>
      <trkpt lat="44.158" lon="0.741">
        <ele>127</ele>
        <time>2024-04-11T12:59:13.000Z</time>
      </trkpt>
      <trkpt lat="44.15799" lon="0.74099">
        <ele>127</ele>
        <time>2024-04-11T12:59:14.000Z</time>
      </trkpt>
      <trkpt lat="44.15799" lon="0.74097">
        <ele>127</ele>
        <time>2024-04-11T12:59:15.000Z</time>
      </trkpt>
      <trkpt lat="44.15799" lon="0.74096">
        <ele>126</ele>
        <time>2024-04-11T12:59:16.000Z</time>
      </trkpt>
      <trkpt lat="44.15799" lon="0.74095">
        <ele>126</ele>
        <time>2024-04-11T12:59:17.000Z</time>
      </trkpt>
      <trkpt lat="44.15799" lon="0.74093">
        <ele>125</ele>
        <time>2024-04-11T12:59:18.000Z</time>
      </trkpt>
      <trkpt lat="44.15798" lon="0.74092">
        <ele>125</ele>
        <time>2024-04-11T12:59:19.000Z</time>
      </trkpt>
      <trkpt lat="44.15798" lon="0.7409">
        <ele>124</ele>
        <time>2024-04-11T12:59:20.000Z</time>
      </trkpt>
      <trkpt lat="44.15798" lon="0.74089">
        <ele>124</ele>
        <time>2024-04-11T12:59:21.000Z</time>
      </trkpt>
      <trkpt lat="44.15798" lon="0.74088">
        <ele>124</ele>
        <time>2024-04-11T12:59:22.000Z</time>
      </trkpt>
      <trkpt lat="44.15797" lon="0.74086">
        <ele>124</ele>
        <time>2024-04-11T12:59:23.000Z</time>
      </trkpt>
      <trkpt lat="44.15797" lon="0.74085">
        <ele>124</ele>
        <time>2024-04-11T12:59:24.000Z</time>
      </trkpt>
      <trkpt lat="44.15797" lon="0.74083">
        <ele>123</ele>
        <time>2024-04-11T12:59:25.000Z</time>
      </trkpt>
      <trkpt lat="44.15798" lon="0.74082">
        <ele>123</ele>
        <time>2024-04-11T12:59:26.000Z</time>
      </trkpt>
      <trkpt lat="44.15797" lon="0.74081">
        <ele>123</ele>
        <time>2024-04-11T12:59:27.000Z</time>
      </trkpt>
      <trkpt lat="44.15797" lon="0.74079">
        <ele>123</ele>
        <time>2024-04-11T12:59:28.000Z</time>
      </trkpt>
      <trkpt lat="44.15797" lon="0.74077">
        <ele>123</ele>
        <time>2024-04-11T12:59:29.000Z</time>
      </trkpt>
      <trkpt lat="44.15796" lon="0.74075">
        <ele>123</ele>
        <time>2024-04-11T12:59:30.000Z</time>
      </trkpt>
      <trkpt lat="44.15796" lon="0.74074">
        <ele>122</ele>
        <time>2024-04-11T12:59:31.000Z</time>
      </trkpt>
      <trkpt lat="44.15796" lon="0.74072">
        <ele>122</ele>
        <time>2024-04-11T12:59:32.000Z</time>
      </trkpt>
      <trkpt lat="44.15795" lon="0.7407">
        <ele>122</ele>
        <time>2024-04-11T12:59:33.000Z</time>
      </trkpt>
      <trkpt lat="44.15795" lon="0.74068">
        <ele>121</ele>
        <time>2024-04-11T12:59:34.000Z</time>
      </trkpt>
      <trkpt lat="44.15795" lon="0.74067">
        <ele>121</ele>
        <time>2024-04-11T12:59:35.000Z</time>
      </trkpt>
      <trkpt lat="44.15795" lon="0.74065">
        <ele>121</ele>
        <time>2024-04-11T12:59:36.000Z</time>
      </trkpt>
      <trkpt lat="44.15795" lon="0.74064">
        <ele>121</ele>
        <time>2024-04-11T12:59:37.000Z</time>
      </trkpt>
      <trkpt lat="44.15795" lon="0.74062">
        <ele>120</ele>
        <time>2024-04-11T12:59:38.000Z</time>
      </trkpt>
      <trkpt lat="44.15795" lon="0.74061">
        <ele>120</ele>
        <time>2024-04-11T12:59:39.000Z</time>
      </trkpt>
      <trkpt lat="44.15795" lon="0.74059">
        <ele>120</ele>
        <time>2024-04-11T12:59:40.000Z</time>
      </trkpt>
      <trkpt lat="44.15795" lon="0.74058">
        <ele>120</ele>
        <time>2024-04-11T12:59:41.000Z</time>
      </trkpt>
      <trkpt lat="44.15795" lon="0.74056">
        <ele>120</ele>
        <time>2024-04-11T12:59:42.000Z</time>
      </trkpt>
      <trkpt lat="44.15795" lon="0.74055">
        <ele>120</ele>
        <time>2024-04-11T12:59:43.000Z</time>
      </trkpt>
      <trkpt lat="44.15795" lon="0.74053">
        <ele>120</ele>
        <time>2024-04-11T12:59:44.000Z</time>
      </trkpt>
      <trkpt lat="44.15795" lon="0.74052">
        <ele>119</ele>
        <time>2024-04-11T12:59:45.000Z</time>
      </trkpt>
      <trkpt lat="44.15795" lon="0.7405">
        <ele>119</ele>
        <time>2024-04-11T12:59:46.000Z</time>
      </trkpt>
      <trkpt lat="44.15795" lon="0.74049">
        <ele>119</ele>
        <time>2024-04-11T12:59:47.000Z</time>
      </trkpt>
      <trkpt lat="44.15795" lon="0.74047">
        <ele>119</ele>
        <time>2024-04-11T12:59:48.000Z</time>
      </trkpt>
      <trkpt lat="44.15795" lon="0.74046">
        <ele>119</ele>
        <time>2024-04-11T12:59:49.000Z</time>
      </trkpt>
      <trkpt lat="44.15795" lon="0.74044">
        <ele>118</ele>
        <time>2024-04-11T12:59:50.000Z</time>
      </trkpt>
      <trkpt lat="44.15795" lon="0.74043">
        <ele>118</ele>
        <time>2024-04-11T12:59:51.000Z</time>
      </trkpt>
      <trkpt lat="44.15795" lon="0.74041">
        <ele>118</ele>
        <time>2024-04-11T12:59:52.000Z</time>
      </trkpt>
      <trkpt lat="44.15795" lon="0.74039">
        <ele>118</ele>
        <time>2024-04-11T12:59:53.000Z</time>
      </trkpt>
      <trkpt lat="44.15795" lon="0.74038">
        <ele>118</ele>
        <time>2024-04-11T12:59:54.000Z</time>
      </trkpt>
      <trkpt lat="44.15795" lon="0.74036">
        <ele>118</ele>
        <time>2024-04-11T12:59:55.000Z</time>
      </trkpt>
      <trkpt lat="44.15795" lon="0.74034">
        <ele>118</ele>
        <time>2024-04-11T12:59:56.000Z</time>
      </trkpt>
      <trkpt lat="44.15795" lon="0.74032">
        <ele>118</ele>
        <time>2024-04-11T12:59:57.000Z</time>
      </trkpt>
      <trkpt lat="44.15795" lon="0.74031">
        <ele>118</ele>
        <time>2024-04-11T12:59:58.000Z</time>
      </trkpt>
      <trkpt lat="44.15795" lon="0.74029">
        <ele>118</ele>
        <time>2024-04-11T12:59:59.000Z</time>
      </trkpt>
      <trkpt lat="44.15795" lon="0.74027">
        <ele>118</ele>
        <time>2024-04-11T13:00:00.000Z</time>
      </trkpt>
      <trkpt lat="44.15795" lon="0.74025">
        <ele>117</ele>
        <time>2024-04-11T13:00:01.000Z</time>
      </trkpt>
      <trkpt lat="44.15795" lon="0.74024">
        <ele>118</ele>
        <time>2024-04-11T13:00:02.000Z</time>
      </trkpt>
      <trkpt lat="44.15795" lon="0.74022">
        <ele>118</ele>
        <time>2024-04-11T13:00:03.000Z</time>
      </trkpt>
      <trkpt lat="44.15796" lon="0.7402">
        <ele>118</ele>
        <time>2024-04-11T13:00:04.000Z</time>
      </trkpt>
      <trkpt lat="44.15796" lon="0.74019">
        <ele>119</ele>
        <time>2024-04-11T13:00:05.000Z</time>
      </trkpt>
      <trkpt lat="44.15797" lon="0.74018">
        <ele>119</ele>
        <time>2024-04-11T13:00:06.000Z</time>
      </trkpt>
      <trkpt lat="44.15797" lon="0.74016">
        <ele>120</ele>
        <time>2024-04-11T13:00:07.000Z</time>
      </trkpt>
      <trkpt lat="44.15798" lon="0.74016">
        <ele>120</ele>
        <time>2024-04-11T13:00:08.000Z</time>
      </trkpt>
      <trkpt lat="44.15799" lon="0.74015">
        <ele>120</ele>
        <time>2024-04-11T13:00:09.000Z</time>
      </trkpt>
      <trkpt lat="44.158" lon="0.74014">
        <ele>120</ele>
        <time>2024-04-11T13:00:10.000Z</time>
      </trkpt>
      <trkpt lat="44.158" lon="0.74013">
        <ele>120</ele>
        <time>2024-04-11T13:00:11.000Z</time>
      </trkpt>
      <trkpt lat="44.15801" lon="0.74012">
        <ele>121</ele>
        <time>2024-04-11T13:00:12.000Z</time>
      </trkpt>
      <trkpt lat="44.15802" lon="0.74011">
        <ele>121</ele>
        <time>2024-04-11T13:00:13.000Z</time>
      </trkpt>
      <trkpt lat="44.15802" lon="0.7401">
        <ele>121</ele>
        <time>2024-04-11T13:00:14.000Z</time>
      </trkpt>
      <trkpt lat="44.15803" lon="0.74009">
        <ele>121</ele>
        <time>2024-04-11T13:00:15.000Z</time>
      </trkpt>
      <trkpt lat="44.15804" lon="0.74008">
        <ele>121</ele>
        <time>2024-04-11T13:00:16.000Z</time>
      </trkpt>
      <trkpt lat="44.15805" lon="0.74008">
        <ele>120</ele>
        <time>2024-04-11T13:00:17.000Z</time>
      </trkpt>
      <trkpt lat="44.15806" lon="0.74007">
        <ele>120</ele>
        <time>2024-04-11T13:00:18.000Z</time>
      </trkpt>
      <trkpt lat="44.15807" lon="0.74006">
        <ele>121</ele>
        <time>2024-04-11T13:00:19.000Z</time>
      </trkpt>
      <trkpt lat="44.15808" lon="0.74006">
        <ele>121</ele>
        <time>2024-04-11T13:00:20.000Z</time>
      </trkpt>
      <trkpt lat="44.15808" lon="0.74005">
        <ele>122</ele>
        <time>2024-04-11T13:00:21.000Z</time>
      </trkpt>
      <trkpt lat="44.15809" lon="0.74005">
        <ele>122</ele>
        <time>2024-04-11T13:00:22.000Z</time>
      </trkpt>
      <trkpt lat="44.1581" lon="0.74004">
        <ele>123</ele>
        <time>2024-04-11T13:00:23.000Z</time>
      </trkpt>
      <trkpt lat="44.1581" lon="0.74003">
        <ele>123</ele>
        <time>2024-04-11T13:00:24.000Z</time>
      </trkpt>
      <trkpt lat="44.15811" lon="0.74003">
        <ele>124</ele>
        <time>2024-04-11T13:00:25.000Z</time>
      </trkpt>
      <trkpt lat="44.15811" lon="0.74002">
        <ele>124</ele>
        <time>2024-04-11T13:00:26.000Z</time>
      </trkpt>
      <trkpt lat="44.15812" lon="0.74001">
        <ele>124</ele>
        <time>2024-04-11T13:00:27.000Z</time>
      </trkpt>
      <trkpt lat="44.15812" lon="0.74001">
        <ele>124</ele>
        <time>2024-04-11T13:00:28.000Z</time>
      </trkpt>
      <trkpt lat="44.15813" lon="0.74">
        <ele>124</ele>
        <time>2024-04-11T13:00:29.000Z</time>
      </trkpt>
      <trkpt lat="44.15814" lon="0.73999">
        <ele>125</ele>
        <time>2024-04-11T13:00:30.000Z</time>
      </trkpt>
      <trkpt lat="44.15814" lon="0.73999">
        <ele>124</ele>
        <time>2024-04-11T13:00:31.000Z</time>
      </trkpt>
      <trkpt lat="44.15815" lon="0.73998">
        <ele>125</ele>
        <time>2024-04-11T13:00:32.000Z</time>
      </trkpt>
      <trkpt lat="44.15816" lon="0.73997">
        <ele>125</ele>
        <time>2024-04-11T13:00:33.000Z</time>
      </trkpt>
      <trkpt lat="44.15817" lon="0.73997">
        <ele>125</ele>
        <time>2024-04-11T13:00:34.000Z</time>
      </trkpt>
      <trkpt lat="44.15817" lon="0.73996">
        <ele>126</ele>
        <time>2024-04-11T13:00:35.000Z</time>
      </trkpt>
      <trkpt lat="44.15818" lon="0.73996">
        <ele>125</ele>
        <time>2024-04-11T13:00:36.000Z</time>
      </trkpt>
      <trkpt lat="44.15819" lon="0.73995">
        <ele>126</ele>
        <time>2024-04-11T13:00:37.000Z</time>
      </trkpt>
      <trkpt lat="44.1582" lon="0.73994">
        <ele>126</ele>
        <time>2024-04-11T13:00:38.000Z</time>
      </trkpt>
      <trkpt lat="44.15821" lon="0.73994">
        <ele>127</ele>
        <time>2024-04-11T13:00:39.000Z</time>
      </trkpt>
      <trkpt lat="44.15821" lon="0.73993">
        <ele>128</ele>
        <time>2024-04-11T13:00:40.000Z</time>
      </trkpt>
      <trkpt lat="44.15822" lon="0.73992">
        <ele>128</ele>
        <time>2024-04-11T13:00:41.000Z</time>
      </trkpt>
      <trkpt lat="44.15823" lon="0.73991">
        <ele>128</ele>
        <time>2024-04-11T13:00:42.000Z</time>
      </trkpt>
      <trkpt lat="44.15824" lon="0.7399">
        <ele>129</ele>
        <time>2024-04-11T13:00:43.000Z</time>
      </trkpt>
      <trkpt lat="44.15825" lon="0.73989">
        <ele>129</ele>
        <time>2024-04-11T13:00:44.000Z</time>
      </trkpt>
      <trkpt lat="44.15826" lon="0.73988">
        <ele>129</ele>
        <time>2024-04-11T13:00:45.000Z</time>
      </trkpt>
      <trkpt lat="44.15827" lon="0.73987">
        <ele>129</ele>
        <time>2024-04-11T13:00:46.000Z</time>
      </trkpt>
      <trkpt lat="44.15828" lon="0.73985">
        <ele>130</ele>
        <time>2024-04-11T13:00:47.000Z</time>
      </trkpt>
      <trkpt lat="44.15829" lon="0.73984">
        <ele>130</ele>
        <time>2024-04-11T13:00:48.000Z</time>
      </trkpt>
      <trkpt lat="44.1583" lon="0.73983">
        <ele>130</ele>
        <time>2024-04-11T13:00:49.000Z</time>
      </trkpt>
      <trkpt lat="44.1583" lon="0.73982">
        <ele>130</ele>
        <time>2024-04-11T13:00:50.000Z</time>
      </trkpt>
      <trkpt lat="44.15831" lon="0.73981">
        <ele>129</ele>
        <time>2024-04-11T13:00:51.000Z</time>
      </trkpt>
      <trkpt lat="44.15832" lon="0.7398">
        <ele>129</ele>
        <time>2024-04-11T13:00:52.000Z</time>
      </trkpt>
      <trkpt lat="44.15833" lon="0.73979">
        <ele>129</ele>
        <time>2024-04-11T13:00:53.000Z</time>
      </trkpt>
      <trkpt lat="44.15833" lon="0.73977">
        <ele>129</ele>
        <time>2024-04-11T13:00:54.000Z</time>
      </trkpt>
      <trkpt lat="44.15834" lon="0.73976">
        <ele>129</ele>
        <time>2024-04-11T13:00:55.000Z</time>
      </trkpt>
      <trkpt lat="44.15835" lon="0.73975">
        <ele>129</ele>
        <time>2024-04-11T13:00:56.000Z</time>
      </trkpt>
      <trkpt lat="44.15835" lon="0.73974">
        <ele>129</ele>
        <time>2024-04-11T13:00:57.000Z</time>
      </trkpt>
      <trkpt lat="44.15836" lon="0.73973">
        <ele>129</ele>
        <time>2024-04-11T13:00:58.000Z</time>
      </trkpt>
      <trkpt lat="44.15837" lon="0.73972">
        <ele>129</ele>
        <time>2024-04-11T13:00:59.000Z</time>
      </trkpt>
      <trkpt lat="44.15837" lon="0.73971">
        <ele>130</ele>
        <time>2024-04-11T13:01:00.000Z</time>
      </trkpt>
      <trkpt lat="44.15838" lon="0.7397">
        <ele>130</ele>
        <time>2024-04-11T13:01:01.000Z</time>
      </trkpt>
      <trkpt lat="44.15839" lon="0.73969">
        <ele>131</ele>
        <time>2024-04-11T13:01:02.000Z</time>
      </trkpt>
      <trkpt lat="44.1584" lon="0.73969">
        <ele>131</ele>
        <time>2024-04-11T13:01:03.000Z</time>
      </trkpt>
      <trkpt lat="44.15841" lon="0.73968">
        <ele>131</ele>
        <time>2024-04-11T13:01:04.000Z</time>
      </trkpt>
      <trkpt lat="44.15841" lon="0.73968">
        <ele>131</ele>
        <time>2024-04-11T13:01:05.000Z</time>
      </trkpt>
      <trkpt lat="44.15842" lon="0.73967">
        <ele>131</ele>
        <time>2024-04-11T13:01:06.000Z</time>
      </trkpt>
      <trkpt lat="44.15843" lon="0.73966">
        <ele>131</ele>
        <time>2024-04-11T13:01:07.000Z</time>
      </trkpt>
      <trkpt lat="44.15844" lon="0.73965">
        <ele>131</ele>
        <time>2024-04-11T13:01:08.000Z</time>
      </trkpt>
      <trkpt lat="44.15845" lon="0.73965">
        <ele>132</ele>
        <time>2024-04-11T13:01:09.000Z</time>
      </trkpt>
      <trkpt lat="44.15846" lon="0.73964">
        <ele>131</ele>
        <time>2024-04-11T13:01:10.000Z</time>
      </trkpt>
      <trkpt lat="44.15847" lon="0.73963">
        <ele>131</ele>
        <time>2024-04-11T13:01:11.000Z</time>
      </trkpt>
      <trkpt lat="44.15848" lon="0.73963">
        <ele>131</ele>
        <time>2024-04-11T13:01:12.000Z</time>
      </trkpt>
      <trkpt lat="44.15849" lon="0.73962">
        <ele>131</ele>
        <time>2024-04-11T13:01:13.000Z</time>
      </trkpt>
      <trkpt lat="44.1585" lon="0.73962">
        <ele>132</ele>
        <time>2024-04-11T13:01:14.000Z</time>
      </trkpt>
      <trkpt lat="44.15851" lon="0.73961">
        <ele>133</ele>
        <time>2024-04-11T13:01:15.000Z</time>
      </trkpt>
      <trkpt lat="44.15852" lon="0.73961">
        <ele>133</ele>
        <time>2024-04-11T13:01:16.000Z</time>
      </trkpt>
      <trkpt lat="44.15853" lon="0.73961">
        <ele>133</ele>
        <time>2024-04-11T13:01:17.000Z</time>
      </trkpt>
      <trkpt lat="44.15854" lon="0.7396">
        <ele>133</ele>
        <time>2024-04-11T13:01:18.000Z</time>
      </trkpt>
      <trkpt lat="44.15854" lon="0.7396">
        <ele>133</ele>
        <time>2024-04-11T13:01:19.000Z</time>
      </trkpt>
      <trkpt lat="44.15855" lon="0.7396">
        <ele>134</ele>
        <time>2024-04-11T13:01:20.000Z</time>
      </trkpt>
      <trkpt lat="44.15856" lon="0.7396">
        <ele>134</ele>
        <time>2024-04-11T13:01:21.000Z</time>
      </trkpt>
      <trkpt lat="44.15857" lon="0.7396">
        <ele>134</ele>
        <time>2024-04-11T13:01:22.000Z</time>
      </trkpt>
      <trkpt lat="44.15858" lon="0.7396">
        <ele>135</ele>
        <time>2024-04-11T13:01:23.000Z</time>
      </trkpt>
      <trkpt lat="44.15859" lon="0.7396">
        <ele>135</ele>
        <time>2024-04-11T13:01:24.000Z</time>
      </trkpt>
      <trkpt lat="44.1586" lon="0.7396">
        <ele>135</ele>
        <time>2024-04-11T13:01:25.000Z</time>
      </trkpt>
      <trkpt lat="44.15861" lon="0.73959">
        <ele>136</ele>
        <time>2024-04-11T13:01:26.000Z</time>
      </trkpt>
      <trkpt lat="44.15862" lon="0.73959">
        <ele>135</ele>
        <time>2024-04-11T13:01:27.000Z</time>
      </trkpt>
      <trkpt lat="44.15862" lon="0.73959">
        <ele>136</ele>
        <time>2024-04-11T13:01:28.000Z</time>
      </trkpt>
      <trkpt lat="44.15863" lon="0.7396">
        <ele>136</ele>
        <time>2024-04-11T13:01:29.000Z</time>
      </trkpt>
      <trkpt lat="44.15864" lon="0.7396">
        <ele>136</ele>
        <time>2024-04-11T13:01:30.000Z</time>
      </trkpt>
      <trkpt lat="44.15865" lon="0.7396">
        <ele>136</ele>
        <time>2024-04-11T13:01:31.000Z</time>
      </trkpt>
      <trkpt lat="44.15866" lon="0.73961">
        <ele>136</ele>
        <time>2024-04-11T13:01:32.000Z</time>
      </trkpt>
      <trkpt lat="44.15867" lon="0.73961">
        <ele>136</ele>
        <time>2024-04-11T13:01:33.000Z</time>
      </trkpt>
      <trkpt lat="44.15868" lon="0.73961">
        <ele>136</ele>
        <time>2024-04-11T13:01:34.000Z</time>
      </trkpt>
      <trkpt lat="44.15869" lon="0.73962">
        <ele>136</ele>
        <time>2024-04-11T13:01:35.000Z</time>
      </trkpt>
      <trkpt lat="44.1587" lon="0.73962">
        <ele>136</ele>
        <time>2024-04-11T13:01:36.000Z</time>
      </trkpt>
      <trkpt lat="44.15871" lon="0.73963">
        <ele>136</ele>
        <time>2024-04-11T13:01:37.000Z</time>
      </trkpt>
      <trkpt lat="44.15872" lon="0.73963">
        <ele>136</ele>
        <time>2024-04-11T13:01:38.000Z</time>
      </trkpt>
      <trkpt lat="44.15873" lon="0.73963">
        <ele>135</ele>
        <time>2024-04-11T13:01:39.000Z</time>
      </trkpt>
      <trkpt lat="44.15874" lon="0.73963">
        <ele>136</ele>
        <time>2024-04-11T13:01:40.000Z</time>
      </trkpt>
      <trkpt lat="44.15875" lon="0.73964">
        <ele>136</ele>
        <time>2024-04-11T13:01:41.000Z</time>
      </trkpt>
      <trkpt lat="44.15875" lon="0.73964">
        <ele>136</ele>
        <time>2024-04-11T13:01:42.000Z</time>
      </trkpt>
      <trkpt lat="44.15876" lon="0.73964">
        <ele>136</ele>
        <time>2024-04-11T13:01:43.000Z</time>
      </trkpt>
      <trkpt lat="44.15877" lon="0.73965">
        <ele>136</ele>
        <time>2024-04-11T13:01:44.000Z</time>
      </trkpt>
      <trkpt lat="44.15878" lon="0.73965">
        <ele>136</ele>
        <time>2024-04-11T13:01:45.000Z</time>
      </trkpt>
      <trkpt lat="44.15879" lon="0.73965">
        <ele>136</ele>
        <time>2024-04-11T13:01:46.000Z</time>
      </trkpt>
      <trkpt lat="44.1588" lon="0.73966">
        <ele>136</ele>
        <time>2024-04-11T13:01:47.000Z</time>
      </trkpt>
      <trkpt lat="44.15881" lon="0.73966">
        <ele>136</ele>
        <time>2024-04-11T13:01:48.000Z</time>
      </trkpt>
      <trkpt lat="44.15882" lon="0.73966">
        <ele>136</ele>
        <time>2024-04-11T13:01:49.000Z</time>
      </trkpt>
      <trkpt lat="44.15883" lon="0.73967">
        <ele>136</ele>
        <time>2024-04-11T13:01:50.000Z</time>
      </trkpt>
      <trkpt lat="44.15884" lon="0.73967">
        <ele>136</ele>
        <time>2024-04-11T13:01:51.000Z</time>
      </trkpt>
      <trkpt lat="44.15885" lon="0.73968">
        <ele>136</ele>
        <time>2024-04-11T13:01:52.000Z</time>
      </trkpt>
      <trkpt lat="44.15886" lon="0.73968">
        <ele>137</ele>
        <time>2024-04-11T13:01:53.000Z</time>
      </trkpt>
      <trkpt lat="44.15886" lon="0.73968">
        <ele>137</ele>
        <time>2024-04-11T13:01:54.000Z</time>
      </trkpt>
      <trkpt lat="44.15887" lon="0.73969">
        <ele>137</ele>
        <time>2024-04-11T13:01:55.000Z</time>
      </trkpt>
      <trkpt lat="44.15888" lon="0.73969">
        <ele>137</ele>
        <time>2024-04-11T13:01:56.000Z</time>
      </trkpt>
      <trkpt lat="44.15889" lon="0.7397">
        <ele>137</ele>
        <time>2024-04-11T13:01:57.000Z</time>
      </trkpt>
      <trkpt lat="44.1589" lon="0.7397">
        <ele>137</ele>
        <time>2024-04-11T13:01:58.000Z</time>
      </trkpt>
      <trkpt lat="44.15891" lon="0.73971">
        <ele>138</ele>
        <time>2024-04-11T13:01:59.000Z</time>
      </trkpt>
      <trkpt lat="44.15892" lon="0.73971">
        <ele>138</ele>
        <time>2024-04-11T13:02:00.000Z</time>
      </trkpt>
      <trkpt lat="44.15893" lon="0.73971">
        <ele>138</ele>
        <time>2024-04-11T13:02:01.000Z</time>
      </trkpt>
      <trkpt lat="44.15894" lon="0.73972">
        <ele>139</ele>
        <time>2024-04-11T13:02:02.000Z</time>
      </trkpt>
      <trkpt lat="44.15894" lon="0.73972">
        <ele>139</ele>
        <time>2024-04-11T13:02:03.000Z</time>
      </trkpt>
      <trkpt lat="44.15895" lon="0.73972">
        <ele>139</ele>
        <time>2024-04-11T13:02:04.000Z</time>
      </trkpt>
      <trkpt lat="44.15896" lon="0.73973">
        <ele>139</ele>
        <time>2024-04-11T13:02:05.000Z</time>
      </trkpt>
      <trkpt lat="44.15897" lon="0.73973">
        <ele>139</ele>
        <time>2024-04-11T13:02:06.000Z</time>
      </trkpt>
      <trkpt lat="44.15898" lon="0.73974">
        <ele>139</ele>
        <time>2024-04-11T13:02:07.000Z</time>
      </trkpt>
      <trkpt lat="44.15899" lon="0.73974">
        <ele>139</ele>
        <time>2024-04-11T13:02:08.000Z</time>
      </trkpt>
      <trkpt lat="44.159" lon="0.73974">
        <ele>139</ele>
        <time>2024-04-11T13:02:09.000Z</time>
      </trkpt>
      <trkpt lat="44.15901" lon="0.73975">
        <ele>139</ele>
        <time>2024-04-11T13:02:10.000Z</time>
      </trkpt>
      <trkpt lat="44.15902" lon="0.73975">
        <ele>140</ele>
        <time>2024-04-11T13:02:11.000Z</time>
      </trkpt>
      <trkpt lat="44.15903" lon="0.73975">
        <ele>140</ele>
        <time>2024-04-11T13:02:12.000Z</time>
      </trkpt>
      <trkpt lat="44.15903" lon="0.73976">
        <ele>141</ele>
        <time>2024-04-11T13:02:13.000Z</time>
      </trkpt>
      <trkpt lat="44.15904" lon="0.73976">
        <ele>141</ele>
        <time>2024-04-11T13:02:14.000Z</time>
      </trkpt>
      <trkpt lat="44.15905" lon="0.73976">
        <ele>141</ele>
        <time>2024-04-11T13:02:15.000Z</time>
      </trkpt>
      <trkpt lat="44.15906" lon="0.73977">
        <ele>141</ele>
        <time>2024-04-11T13:02:16.000Z</time>
      </trkpt>
      <trkpt lat="44.15907" lon="0.73977">
        <ele>142</ele>
        <time>2024-04-11T13:02:17.000Z</time>
      </trkpt>
      <trkpt lat="44.15908" lon="0.73977">
        <ele>142</ele>
        <time>2024-04-11T13:02:18.000Z</time>
      </trkpt>
      <trkpt lat="44.15908" lon="0.73977">
        <ele>142</ele>
        <time>2024-04-11T13:02:19.000Z</time>
      </trkpt>
      <trkpt lat="44.15909" lon="0.73977">
        <ele>141</ele>
        <time>2024-04-11T13:02:20.000Z</time>
      </trkpt>
      <trkpt lat="44.1591" lon="0.73978">
        <ele>141</ele>
        <time>2024-04-11T13:02:21.000Z</time>
      </trkpt>
      <trkpt lat="44.15911" lon="0.73978">
        <ele>141</ele>
        <time>2024-04-11T13:02:22.000Z</time>
      </trkpt>
      <trkpt lat="44.15912" lon="0.73978">
        <ele>140</ele>
        <time>2024-04-11T13:02:23.000Z</time>
      </trkpt>
      <trkpt lat="44.15913" lon="0.73979">
        <ele>141</ele>
        <time>2024-04-11T13:02:24.000Z</time>
      </trkpt>
      <trkpt lat="44.15914" lon="0.73979">
        <ele>141</ele>
        <time>2024-04-11T13:02:25.000Z</time>
      </trkpt>
      <trkpt lat="44.15915" lon="0.73979">
        <ele>141</ele>
        <time>2024-04-11T13:02:26.000Z</time>
      </trkpt>
      <trkpt lat="44.15916" lon="0.7398">
        <ele>141</ele>
        <time>2024-04-11T13:02:27.000Z</time>
      </trkpt>
      <trkpt lat="44.15917" lon="0.7398">
        <ele>141</ele>
        <time>2024-04-11T13:02:28.000Z</time>
      </trkpt>
      <trkpt lat="44.15917" lon="0.7398">
        <ele>142</ele>
        <time>2024-04-11T13:02:29.000Z</time>
      </trkpt>
      <trkpt lat="44.15918" lon="0.73981">
        <ele>142</ele>
        <time>2024-04-11T13:02:30.000Z</time>
      </trkpt>
      <trkpt lat="44.15919" lon="0.73981">
        <ele>142</ele>
        <time>2024-04-11T13:02:31.000Z</time>
      </trkpt>
      <trkpt lat="44.1592" lon="0.73981">
        <ele>142</ele>
        <time>2024-04-11T13:02:32.000Z</time>
      </trkpt>
      <trkpt lat="44.15921" lon="0.73981">
        <ele>142</ele>
        <time>2024-04-11T13:02:33.000Z</time>
      </trkpt>
      <trkpt lat="44.15922" lon="0.73982">
        <ele>142</ele>
        <time>2024-04-11T13:02:34.000Z</time>
      </trkpt>
      <trkpt lat="44.15922" lon="0.73982">
        <ele>143</ele>
        <time>2024-04-11T13:02:35.000Z</time>
      </trkpt>
      <trkpt lat="44.15923" lon="0.73982">
        <ele>143</ele>
        <time>2024-04-11T13:02:36.000Z</time>
      </trkpt>
      <trkpt lat="44.15924" lon="0.73982">
        <ele>144</ele>
        <time>2024-04-11T13:02:37.000Z</time>
      </trkpt>
      <trkpt lat="44.15925" lon="0.73983">
        <ele>144</ele>
        <time>2024-04-11T13:02:38.000Z</time>
      </trkpt>
      <trkpt lat="44.15925" lon="0.73983">
        <ele>144</ele>
        <time>2024-04-11T13:02:39.000Z</time>
      </trkpt>
      <trkpt lat="44.15926" lon="0.73983">
        <ele>144</ele>
        <time>2024-04-11T13:02:40.000Z</time>
      </trkpt>
      <trkpt lat="44.15926" lon="0.73983">
        <ele>144</ele>
        <time>2024-04-11T13:02:41.000Z</time>
      </trkpt>
      <trkpt lat="44.15927" lon="0.73983">
        <ele>144</ele>
        <time>2024-04-11T13:02:42.000Z</time>
      </trkpt>
      <trkpt lat="44.15927" lon="0.73983">
        <ele>144</ele>
        <time>2024-04-11T13:02:43.000Z</time>
      </trkpt>
      <trkpt lat="44.15928" lon="0.73983">
        <ele>145</ele>
        <time>2024-04-11T13:02:44.000Z</time>
      </trkpt>
      <trkpt lat="44.15929" lon="0.73982">
        <ele>144</ele>
        <time>2024-04-11T13:02:45.000Z</time>
      </trkpt>
      <trkpt lat="44.1593" lon="0.73982">
        <ele>145</ele>
        <time>2024-04-11T13:02:46.000Z</time>
      </trkpt>
      <trkpt lat="44.1593" lon="0.73982">
        <ele>144</ele>
        <time>2024-04-11T13:02:47.000Z</time>
      </trkpt>
      <trkpt lat="44.15931" lon="0.73982">
        <ele>144</ele>
        <time>2024-04-11T13:02:48.000Z</time>
      </trkpt>
      <trkpt lat="44.15932" lon="0.73982">
        <ele>144</ele>
        <time>2024-04-11T13:02:49.000Z</time>
      </trkpt>
      <trkpt lat="44.15933" lon="0.73981">
        <ele>145</ele>
        <time>2024-04-11T13:02:50.000Z</time>
      </trkpt>
      <trkpt lat="44.15933" lon="0.73981">
        <ele>145</ele>
        <time>2024-04-11T13:02:51.000Z</time>
      </trkpt>
      <trkpt lat="44.15934" lon="0.73981">
        <ele>145</ele>
        <time>2024-04-11T13:02:52.000Z</time>
      </trkpt>
      <trkpt lat="44.15935" lon="0.73981">
        <ele>145</ele>
        <time>2024-04-11T13:02:53.000Z</time>
      </trkpt>
      <trkpt lat="44.15936" lon="0.73981">
        <ele>146</ele>
        <time>2024-04-11T13:02:54.000Z</time>
      </trkpt>
      <trkpt lat="44.15937" lon="0.73981">
        <ele>146</ele>
        <time>2024-04-11T13:02:55.000Z</time>
      </trkpt>
      <trkpt lat="44.15937" lon="0.73981">
        <ele>146</ele>
        <time>2024-04-11T13:02:56.000Z</time>
      </trkpt>
      <trkpt lat="44.15938" lon="0.7398">
        <ele>147</ele>
        <time>2024-04-11T13:02:57.000Z</time>
      </trkpt>
      <trkpt lat="44.15938" lon="0.7398">
        <ele>147</ele>
        <time>2024-04-11T13:02:58.000Z</time>
      </trkpt>
      <trkpt lat="44.15939" lon="0.73979">
        <ele>147</ele>
        <time>2024-04-11T13:02:59.000Z</time>
      </trkpt>
      <trkpt lat="44.15939" lon="0.73979">
        <ele>147</ele>
        <time>2024-04-11T13:03:00.000Z</time>
      </trkpt>
      <trkpt lat="44.1594" lon="0.73979">
        <ele>147</ele>
        <time>2024-04-11T13:03:01.000Z</time>
      </trkpt>
      <trkpt lat="44.15941" lon="0.73978">
        <ele>147</ele>
        <time>2024-04-11T13:03:02.000Z</time>
      </trkpt>
      <trkpt lat="44.15942" lon="0.73978">
        <ele>148</ele>
        <time>2024-04-11T13:03:03.000Z</time>
      </trkpt>
      <trkpt lat="44.15942" lon="0.73978">
        <ele>148</ele>
        <time>2024-04-11T13:03:04.000Z</time>
      </trkpt>
      <trkpt lat="44.15943" lon="0.73978">
        <ele>148</ele>
        <time>2024-04-11T13:03:05.000Z</time>
      </trkpt>
      <trkpt lat="44.15944" lon="0.73977">
        <ele>148</ele>
        <time>2024-04-11T13:03:06.000Z</time>
      </trkpt>
      <trkpt lat="44.15945" lon="0.73977">
        <ele>148</ele>
        <time>2024-04-11T13:03:07.000Z</time>
      </trkpt>
      <trkpt lat="44.15946" lon="0.73976">
        <ele>149</ele>
        <time>2024-04-11T13:03:08.000Z</time>
      </trkpt>
      <trkpt lat="44.15946" lon="0.73976">
        <ele>149</ele>
        <time>2024-04-11T13:03:09.000Z</time>
      </trkpt>
      <trkpt lat="44.15947" lon="0.73976">
        <ele>149</ele>
        <time>2024-04-11T13:03:10.000Z</time>
      </trkpt>
      <trkpt lat="44.15948" lon="0.73975">
        <ele>150</ele>
        <time>2024-04-11T13:03:11.000Z</time>
      </trkpt>
      <trkpt lat="44.15948" lon="0.73975">
        <ele>150</ele>
        <time>2024-04-11T13:03:12.000Z</time>
      </trkpt>
      <trkpt lat="44.15949" lon="0.73974">
        <ele>150</ele>
        <time>2024-04-11T13:03:13.000Z</time>
      </trkpt>
      <trkpt lat="44.1595" lon="0.73974">
        <ele>150</ele>
        <time>2024-04-11T13:03:14.000Z</time>
      </trkpt>
      <trkpt lat="44.15951" lon="0.73973">
        <ele>150</ele>
        <time>2024-04-11T13:03:15.000Z</time>
      </trkpt>
      <trkpt lat="44.15951" lon="0.73973">
        <ele>149</ele>
        <time>2024-04-11T13:03:16.000Z</time>
      </trkpt>
      <trkpt lat="44.15952" lon="0.73972">
        <ele>150</ele>
        <time>2024-04-11T13:03:17.000Z</time>
      </trkpt>
      <trkpt lat="44.15953" lon="0.73971">
        <ele>149</ele>
        <time>2024-04-11T13:03:18.000Z</time>
      </trkpt>
      <trkpt lat="44.15953" lon="0.7397">
        <ele>150</ele>
        <time>2024-04-11T13:03:19.000Z</time>
      </trkpt>
      <trkpt lat="44.15954" lon="0.7397">
        <ele>150</ele>
        <time>2024-04-11T13:03:20.000Z</time>
      </trkpt>
      <trkpt lat="44.15955" lon="0.73969">
        <ele>150</ele>
        <time>2024-04-11T13:03:21.000Z</time>
      </trkpt>
      <trkpt lat="44.15955" lon="0.73968">
        <ele>150</ele>
        <time>2024-04-11T13:03:22.000Z</time>
      </trkpt>
      <trkpt lat="44.15956" lon="0.73967">
        <ele>151</ele>
        <time>2024-04-11T13:03:23.000Z</time>
      </trkpt>
      <trkpt lat="44.15956" lon="0.73967">
        <ele>151</ele>
        <time>2024-04-11T13:03:24.000Z</time>
      </trkpt>
      <trkpt lat="44.15957" lon="0.73966">
        <ele>151</ele>
        <time>2024-04-11T13:03:25.000Z</time>
      </trkpt>
      <trkpt lat="44.15957" lon="0.73965">
        <ele>151</ele>
        <time>2024-04-11T13:03:26.000Z</time>
      </trkpt>
      <trkpt lat="44.15958" lon="0.73964">
        <ele>151</ele>
        <time>2024-04-11T13:03:27.000Z</time>
      </trkpt>
      <trkpt lat="44.15959" lon="0.73964">
        <ele>152</ele>
        <time>2024-04-11T13:03:28.000Z</time>
      </trkpt>
      <trkpt lat="44.15959" lon="0.73963">
        <ele>152</ele>
        <time>2024-04-11T13:03:29.000Z</time>
      </trkpt>
      <trkpt lat="44.1596" lon="0.73962">
        <ele>152</ele>
        <time>2024-04-11T13:03:30.000Z</time>
      </trkpt>
      <trkpt lat="44.15961" lon="0.73961">
        <ele>152</ele>
        <time>2024-04-11T13:03:31.000Z</time>
      </trkpt>
      <trkpt lat="44.15961" lon="0.73961">
        <ele>153</ele>
        <time>2024-04-11T13:03:32.000Z</time>
      </trkpt>
      <trkpt lat="44.15962" lon="0.7396">
        <ele>153</ele>
        <time>2024-04-11T13:03:33.000Z</time>
      </trkpt>
      <trkpt lat="44.15963" lon="0.73959">
        <ele>153</ele>
        <time>2024-04-11T13:03:34.000Z</time>
      </trkpt>
      <trkpt lat="44.15963" lon="0.73958">
        <ele>153</ele>
        <time>2024-04-11T13:03:35.000Z</time>
      </trkpt>
      <trkpt lat="44.15964" lon="0.73957">
        <ele>153</ele>
        <time>2024-04-11T13:03:36.000Z</time>
      </trkpt>
      <trkpt lat="44.15964" lon="0.73956">
        <ele>154</ele>
        <time>2024-04-11T13:03:37.000Z</time>
      </trkpt>
      <trkpt lat="44.15965" lon="0.73955">
        <ele>154</ele>
        <time>2024-04-11T13:03:38.000Z</time>
      </trkpt>
      <trkpt lat="44.15965" lon="0.73954">
        <ele>154</ele>
        <time>2024-04-11T13:03:39.000Z</time>
      </trkpt>
      <trkpt lat="44.15966" lon="0.73954">
        <ele>154</ele>
        <time>2024-04-11T13:03:40.000Z</time>
      </trkpt>
      <trkpt lat="44.15966" lon="0.73953">
        <ele>154</ele>
        <time>2024-04-11T13:03:41.000Z</time>
      </trkpt>
      <trkpt lat="44.15967" lon="0.73952">
        <ele>154</ele>
        <time>2024-04-11T13:03:42.000Z</time>
      </trkpt>
      <trkpt lat="44.15968" lon="0.73951">
        <ele>154</ele>
        <time>2024-04-11T13:03:43.000Z</time>
      </trkpt>
      <trkpt lat="44.15968" lon="0.7395">
        <ele>154</ele>
        <time>2024-04-11T13:03:44.000Z</time>
      </trkpt>
      <trkpt lat="44.15969" lon="0.73949">
        <ele>154</ele>
        <time>2024-04-11T13:03:45.000Z</time>
      </trkpt>
      <trkpt lat="44.1597" lon="0.73948">
        <ele>154</ele>
        <time>2024-04-11T13:03:46.000Z</time>
      </trkpt>
      <trkpt lat="44.15971" lon="0.73947">
        <ele>154</ele>
        <time>2024-04-11T13:03:47.000Z</time>
      </trkpt>
      <trkpt lat="44.15971" lon="0.73946">
        <ele>155</ele>
        <time>2024-04-11T13:03:48.000Z</time>
      </trkpt>
      <trkpt lat="44.15972" lon="0.73945">
        <ele>154</ele>
        <time>2024-04-11T13:03:49.000Z</time>
      </trkpt>
      <trkpt lat="44.15972" lon="0.73944">
        <ele>156</ele>
        <time>2024-04-11T13:03:50.000Z</time>
      </trkpt>
      <trkpt lat="44.15973" lon="0.73943">
        <ele>156</ele>
        <time>2024-04-11T13:03:51.000Z</time>
      </trkpt>
      <trkpt lat="44.15973" lon="0.73942">
        <ele>156</ele>
        <time>2024-04-11T13:03:52.000Z</time>
      </trkpt>
      <trkpt lat="44.15974" lon="0.73941">
        <ele>155</ele>
        <time>2024-04-11T13:03:53.000Z</time>
      </trkpt>
      <trkpt lat="44.15974" lon="0.7394">
        <ele>155</ele>
        <time>2024-04-11T13:03:54.000Z</time>
      </trkpt>
      <trkpt lat="44.15975" lon="0.73939">
        <ele>155</ele>
        <time>2024-04-11T13:03:55.000Z</time>
      </trkpt>
      <trkpt lat="44.15975" lon="0.73938">
        <ele>156</ele>
        <time>2024-04-11T13:03:56.000Z</time>
      </trkpt>
      <trkpt lat="44.15976" lon="0.73937">
        <ele>156</ele>
        <time>2024-04-11T13:03:57.000Z</time>
      </trkpt>
      <trkpt lat="44.15977" lon="0.73936">
        <ele>156</ele>
        <time>2024-04-11T13:03:58.000Z</time>
      </trkpt>
      <trkpt lat="44.15977" lon="0.73935">
        <ele>157</ele>
        <time>2024-04-11T13:03:59.000Z</time>
      </trkpt>
      <trkpt lat="44.15978" lon="0.73934">
        <ele>157</ele>
        <time>2024-04-11T13:04:00.000Z</time>
      </trkpt>
      <trkpt lat="44.15978" lon="0.73933">
        <ele>157</ele>
        <time>2024-04-11T13:04:01.000Z</time>
      </trkpt>
      <trkpt lat="44.15979" lon="0.73932">
        <ele>157</ele>
        <time>2024-04-11T13:04:02.000Z</time>
      </trkpt>
      <trkpt lat="44.1598" lon="0.73931">
        <ele>157</ele>
        <time>2024-04-11T13:04:03.000Z</time>
      </trkpt>
      <trkpt lat="44.1598" lon="0.7393">
        <ele>157</ele>
        <time>2024-04-11T13:04:04.000Z</time>
      </trkpt>
      <trkpt lat="44.15981" lon="0.73929">
        <ele>157</ele>
        <time>2024-04-11T13:04:05.000Z</time>
      </trkpt>
      <trkpt lat="44.15982" lon="0.73928">
        <ele>157</ele>
        <time>2024-04-11T13:04:06.000Z</time>
      </trkpt>
      <trkpt lat="44.15982" lon="0.73927">
        <ele>157</ele>
        <time>2024-04-11T13:04:07.000Z</time>
      </trkpt>
      <trkpt lat="44.15983" lon="0.73926">
        <ele>157</ele>
        <time>2024-04-11T13:04:08.000Z</time>
      </trkpt>
      <trkpt lat="44.15983" lon="0.73925">
        <ele>157</ele>
        <time>2024-04-11T13:04:09.000Z</time>
      </trkpt>
      <trkpt lat="44.15984" lon="0.73924">
        <ele>157</ele>
        <time>2024-04-11T13:04:10.000Z</time>
      </trkpt>
      <trkpt lat="44.15985" lon="0.73923">
        <ele>158</ele>
        <time>2024-04-11T13:04:11.000Z</time>
      </trkpt>
      <trkpt lat="44.15985" lon="0.73922">
        <ele>158</ele>
        <time>2024-04-11T13:04:12.000Z</time>
      </trkpt>
      <trkpt lat="44.15986" lon="0.73921">
        <ele>158</ele>
        <time>2024-04-11T13:04:13.000Z</time>
      </trkpt>
      <trkpt lat="44.15987" lon="0.7392">
        <ele>158</ele>
        <time>2024-04-11T13:04:14.000Z</time>
      </trkpt>
      <trkpt lat="44.15987" lon="0.73919">
        <ele>158</ele>
        <time>2024-04-11T13:04:15.000Z</time>
      </trkpt>
      <trkpt lat="44.15988" lon="0.73918">
        <ele>159</ele>
        <time>2024-04-11T13:04:16.000Z</time>
      </trkpt>
      <trkpt lat="44.15988" lon="0.73917">
        <ele>159</ele>
        <time>2024-04-11T13:04:17.000Z</time>
      </trkpt>
      <trkpt lat="44.15989" lon="0.73916">
        <ele>159</ele>
        <time>2024-04-11T13:04:18.000Z</time>
      </trkpt>
      <trkpt lat="44.15989" lon="0.73915">
        <ele>159</ele>
        <time>2024-04-11T13:04:19.000Z</time>
      </trkpt>
      <trkpt lat="44.1599" lon="0.73914">
        <ele>159</ele>
        <time>2024-04-11T13:04:20.000Z</time>
      </trkpt>
      <trkpt lat="44.15991" lon="0.73913">
        <ele>159</ele>
        <time>2024-04-11T13:04:21.000Z</time>
      </trkpt>
      <trkpt lat="44.15991" lon="0.73913">
        <ele>159</ele>
        <time>2024-04-11T13:04:22.000Z</time>
      </trkpt>
      <trkpt lat="44.15992" lon="0.73912">
        <ele>159</ele>
        <time>2024-04-11T13:04:23.000Z</time>
      </trkpt>
      <trkpt lat="44.15993" lon="0.73911">
        <ele>159</ele>
        <time>2024-04-11T13:04:24.000Z</time>
      </trkpt>
      <trkpt lat="44.15994" lon="0.73911">
        <ele>160</ele>
        <time>2024-04-11T13:04:25.000Z</time>
      </trkpt>
      <trkpt lat="44.15995" lon="0.7391">
        <ele>160</ele>
        <time>2024-04-11T13:04:26.000Z</time>
      </trkpt>
      <trkpt lat="44.15996" lon="0.73909">
        <ele>160</ele>
        <time>2024-04-11T13:04:27.000Z</time>
      </trkpt>
      <trkpt lat="44.15996" lon="0.73909">
        <ele>160</ele>
        <time>2024-04-11T13:04:28.000Z</time>
      </trkpt>
      <trkpt lat="44.15997" lon="0.73908">
        <ele>161</ele>
        <time>2024-04-11T13:04:29.000Z</time>
      </trkpt>
      <trkpt lat="44.15998" lon="0.73907">
        <ele>161</ele>
        <time>2024-04-11T13:04:30.000Z</time>
      </trkpt>
      <trkpt lat="44.15999" lon="0.73906">
        <ele>161</ele>
        <time>2024-04-11T13:04:31.000Z</time>
      </trkpt>
      <trkpt lat="44.16" lon="0.73905">
        <ele>161</ele>
        <time>2024-04-11T13:04:32.000Z</time>
      </trkpt>
      <trkpt lat="44.16001" lon="0.73904">
        <ele>161</ele>
        <time>2024-04-11T13:04:33.000Z</time>
      </trkpt>
      <trkpt lat="44.16002" lon="0.73904">
        <ele>161</ele>
        <time>2024-04-11T13:04:34.000Z</time>
      </trkpt>
      <trkpt lat="44.16003" lon="0.73903">
        <ele>161</ele>
        <time>2024-04-11T13:04:35.000Z</time>
      </trkpt>
      <trkpt lat="44.16003" lon="0.73902">
        <ele>161</ele>
        <time>2024-04-11T13:04:36.000Z</time>
      </trkpt>
      <trkpt lat="44.16004" lon="0.73901">
        <ele>161</ele>
        <time>2024-04-11T13:04:37.000Z</time>
      </trkpt>
      <trkpt lat="44.16005" lon="0.73901">
        <ele>161</ele>
        <time>2024-04-11T13:04:38.000Z</time>
      </trkpt>
      <trkpt lat="44.16006" lon="0.739">
        <ele>162</ele>
        <time>2024-04-11T13:04:39.000Z</time>
      </trkpt>
      <trkpt lat="44.16007" lon="0.73899">
        <ele>162</ele>
        <time>2024-04-11T13:04:40.000Z</time>
      </trkpt>
      <trkpt lat="44.16007" lon="0.73898">
        <ele>162</ele>
        <time>2024-04-11T13:04:41.000Z</time>
      </trkpt>
      <trkpt lat="44.16008" lon="0.73898">
        <ele>162</ele>
        <time>2024-04-11T13:04:42.000Z</time>
      </trkpt>
      <trkpt lat="44.16009" lon="0.73897">
        <ele>163</ele>
        <time>2024-04-11T13:04:43.000Z</time>
      </trkpt>
      <trkpt lat="44.1601" lon="0.73896">
        <ele>163</ele>
        <time>2024-04-11T13:04:44.000Z</time>
      </trkpt>
      <trkpt lat="44.16011" lon="0.73896">
        <ele>163</ele>
        <time>2024-04-11T13:04:45.000Z</time>
      </trkpt>
      <trkpt lat="44.16012" lon="0.73895">
        <ele>163</ele>
        <time>2024-04-11T13:04:46.000Z</time>
      </trkpt>
      <trkpt lat="44.16013" lon="0.73894">
        <ele>162</ele>
        <time>2024-04-11T13:04:47.000Z</time>
      </trkpt>
      <trkpt lat="44.16014" lon="0.73893">
        <ele>163</ele>
        <time>2024-04-11T13:04:48.000Z</time>
      </trkpt>
      <trkpt lat="44.16015" lon="0.73893">
        <ele>163</ele>
        <time>2024-04-11T13:04:49.000Z</time>
      </trkpt>
      <trkpt lat="44.16016" lon="0.73892">
        <ele>163</ele>
        <time>2024-04-11T13:04:50.000Z</time>
      </trkpt>
      <trkpt lat="44.16017" lon="0.73891">
        <ele>163</ele>
        <time>2024-04-11T13:04:51.000Z</time>
      </trkpt>
      <trkpt lat="44.16018" lon="0.73891">
        <ele>163</ele>
        <time>2024-04-11T13:04:52.000Z</time>
      </trkpt>
      <trkpt lat="44.16019" lon="0.7389">
        <ele>163</ele>
        <time>2024-04-11T13:04:53.000Z</time>
      </trkpt>
      <trkpt lat="44.1602" lon="0.7389">
        <ele>163</ele>
        <time>2024-04-11T13:04:54.000Z</time>
      </trkpt>
      <trkpt lat="44.16021" lon="0.73889">
        <ele>163</ele>
        <time>2024-04-11T13:04:55.000Z</time>
      </trkpt>
      <trkpt lat="44.16021" lon="0.73889">
        <ele>164</ele>
        <time>2024-04-11T13:04:56.000Z</time>
      </trkpt>
      <trkpt lat="44.16022" lon="0.73888">
        <ele>164</ele>
        <time>2024-04-11T13:04:57.000Z</time>
      </trkpt>
      <trkpt lat="44.16023" lon="0.73888">
        <ele>164</ele>
        <time>2024-04-11T13:04:58.000Z</time>
      </trkpt>
      <trkpt lat="44.16024" lon="0.73888">
        <ele>164</ele>
        <time>2024-04-11T13:04:59.000Z</time>
      </trkpt>
      <trkpt lat="44.16025" lon="0.73887">
        <ele>164</ele>
        <time>2024-04-11T13:05:00.000Z</time>
      </trkpt>
      <trkpt lat="44.16026" lon="0.73887">
        <ele>165</ele>
        <time>2024-04-11T13:05:01.000Z</time>
      </trkpt>
      <trkpt lat="44.16027" lon="0.73887">
        <ele>165</ele>
        <time>2024-04-11T13:05:02.000Z</time>
      </trkpt>
      <trkpt lat="44.16029" lon="0.73886">
        <ele>166</ele>
        <time>2024-04-11T13:05:03.000Z</time>
      </trkpt>
      <trkpt lat="44.1603" lon="0.73886">
        <ele>166</ele>
        <time>2024-04-11T13:05:04.000Z</time>
      </trkpt>
      <trkpt lat="44.16031" lon="0.73886">
        <ele>166</ele>
        <time>2024-04-11T13:05:05.000Z</time>
      </trkpt>
      <trkpt lat="44.16031" lon="0.73885">
        <ele>166</ele>
        <time>2024-04-11T13:05:06.000Z</time>
      </trkpt>
      <trkpt lat="44.16032" lon="0.73885">
        <ele>167</ele>
        <time>2024-04-11T13:05:07.000Z</time>
      </trkpt>
      <trkpt lat="44.16033" lon="0.73885">
        <ele>167</ele>
        <time>2024-04-11T13:05:08.000Z</time>
      </trkpt>
      <trkpt lat="44.16034" lon="0.73884">
        <ele>168</ele>
        <time>2024-04-11T13:05:09.000Z</time>
      </trkpt>
      <trkpt lat="44.16035" lon="0.73884">
        <ele>168</ele>
        <time>2024-04-11T13:05:10.000Z</time>
      </trkpt>
      <trkpt lat="44.16036" lon="0.73884">
        <ele>168</ele>
        <time>2024-04-11T13:05:11.000Z</time>
      </trkpt>
      <trkpt lat="44.16037" lon="0.73884">
        <ele>168</ele>
        <time>2024-04-11T13:05:12.000Z</time>
      </trkpt>
      <trkpt lat="44.16038" lon="0.73883">
        <ele>168</ele>
        <time>2024-04-11T13:05:13.000Z</time>
      </trkpt>
      <trkpt lat="44.16039" lon="0.73883">
        <ele>168</ele>
        <time>2024-04-11T13:05:14.000Z</time>
      </trkpt>
      <trkpt lat="44.1604" lon="0.73883">
        <ele>167</ele>
        <time>2024-04-11T13:05:15.000Z</time>
      </trkpt>
      <trkpt lat="44.16041" lon="0.73882">
        <ele>168</ele>
        <time>2024-04-11T13:05:16.000Z</time>
      </trkpt>
      <trkpt lat="44.16042" lon="0.73882">
        <ele>168</ele>
        <time>2024-04-11T13:05:17.000Z</time>
      </trkpt>
      <trkpt lat="44.16043" lon="0.73881">
        <ele>169</ele>
        <time>2024-04-11T13:05:18.000Z</time>
      </trkpt>
      <trkpt lat="44.16044" lon="0.7388">
        <ele>168</ele>
        <time>2024-04-11T13:05:19.000Z</time>
      </trkpt>
      <trkpt lat="44.16045" lon="0.7388">
        <ele>169</ele>
        <time>2024-04-11T13:05:20.000Z</time>
      </trkpt>
      <trkpt lat="44.16046" lon="0.7388">
        <ele>169</ele>
        <time>2024-04-11T13:05:21.000Z</time>
      </trkpt>
      <trkpt lat="44.16047" lon="0.73879">
        <ele>169</ele>
        <time>2024-04-11T13:05:22.000Z</time>
      </trkpt>
      <trkpt lat="44.16048" lon="0.73879">
        <ele>170</ele>
        <time>2024-04-11T13:05:23.000Z</time>
      </trkpt>
      <trkpt lat="44.16049" lon="0.73879">
        <ele>170</ele>
        <time>2024-04-11T13:05:24.000Z</time>
      </trkpt>
      <trkpt lat="44.1605" lon="0.73879">
        <ele>170</ele>
        <time>2024-04-11T13:05:25.000Z</time>
      </trkpt>
      <trkpt lat="44.16051" lon="0.73879">
        <ele>170</ele>
        <time>2024-04-11T13:05:26.000Z</time>
      </trkpt>
      <trkpt lat="44.16052" lon="0.73879">
        <ele>171</ele>
        <time>2024-04-11T13:05:27.000Z</time>
      </trkpt>
      <trkpt lat="44.16054" lon="0.73879">
        <ele>172</ele>
        <time>2024-04-11T13:05:28.000Z</time>
      </trkpt>
      <trkpt lat="44.16055" lon="0.73879">
        <ele>172</ele>
        <time>2024-04-11T13:05:29.000Z</time>
      </trkpt>
      <trkpt lat="44.16056" lon="0.73879">
        <ele>171</ele>
        <time>2024-04-11T13:05:30.000Z</time>
      </trkpt>
      <trkpt lat="44.16057" lon="0.73878">
        <ele>172</ele>
        <time>2024-04-11T13:05:31.000Z</time>
      </trkpt>
      <trkpt lat="44.16058" lon="0.73878">
        <ele>172</ele>
        <time>2024-04-11T13:05:32.000Z</time>
      </trkpt>
      <trkpt lat="44.1606" lon="0.73878">
        <ele>172</ele>
        <time>2024-04-11T13:05:33.000Z</time>
      </trkpt>
      <trkpt lat="44.16061" lon="0.73877">
        <ele>173</ele>
        <time>2024-04-11T13:05:34.000Z</time>
      </trkpt>
      <trkpt lat="44.16062" lon="0.73877">
        <ele>173</ele>
        <time>2024-04-11T13:05:35.000Z</time>
      </trkpt>
      <trkpt lat="44.16063" lon="0.73877">
        <ele>173</ele>
        <time>2024-04-11T13:05:36.000Z</time>
      </trkpt>
      <trkpt lat="44.16064" lon="0.73877">
        <ele>173</ele>
        <time>2024-04-11T13:05:37.000Z</time>
      </trkpt>
      <trkpt lat="44.16065" lon="0.73877">
        <ele>173</ele>
        <time>2024-04-11T13:05:38.000Z</time>
      </trkpt>
      <trkpt lat="44.16066" lon="0.73877">
        <ele>173</ele>
        <time>2024-04-11T13:05:39.000Z</time>
      </trkpt>
      <trkpt lat="44.16067" lon="0.73877">
        <ele>174</ele>
        <time>2024-04-11T13:05:40.000Z</time>
      </trkpt>
      <trkpt lat="44.16068" lon="0.73877">
        <ele>174</ele>
        <time>2024-04-11T13:05:41.000Z</time>
      </trkpt>
      <trkpt lat="44.16069" lon="0.73877">
        <ele>174</ele>
        <time>2024-04-11T13:05:42.000Z</time>
      </trkpt>
      <trkpt lat="44.16071" lon="0.73877">
        <ele>174</ele>
        <time>2024-04-11T13:05:43.000Z</time>
      </trkpt>
      <trkpt lat="44.16072" lon="0.73876">
        <ele>174</ele>
        <time>2024-04-11T13:05:44.000Z</time>
      </trkpt>
      <trkpt lat="44.16073" lon="0.73876">
        <ele>174</ele>
        <time>2024-04-11T13:05:45.000Z</time>
      </trkpt>
      <trkpt lat="44.16074" lon="0.73876">
        <ele>174</ele>
        <time>2024-04-11T13:05:46.000Z</time>
      </trkpt>
      <trkpt lat="44.16075" lon="0.73876">
        <ele>174</ele>
        <time>2024-04-11T13:05:47.000Z</time>
      </trkpt>
      <trkpt lat="44.16076" lon="0.73875">
        <ele>175</ele>
        <time>2024-04-11T13:05:48.000Z</time>
      </trkpt>
      <trkpt lat="44.16077" lon="0.73875">
        <ele>175</ele>
        <time>2024-04-11T13:05:49.000Z</time>
      </trkpt>
      <trkpt lat="44.16078" lon="0.73875">
        <ele>176</ele>
        <time>2024-04-11T13:05:50.000Z</time>
      </trkpt>
      <trkpt lat="44.16079" lon="0.73875">
        <ele>176</ele>
        <time>2024-04-11T13:05:51.000Z</time>
      </trkpt>
      <trkpt lat="44.1608" lon="0.73874">
        <ele>176</ele>
        <time>2024-04-11T13:05:52.000Z</time>
      </trkpt>
      <trkpt lat="44.16081" lon="0.73874">
        <ele>175</ele>
        <time>2024-04-11T13:05:53.000Z</time>
      </trkpt>
      <trkpt lat="44.16082" lon="0.73874">
        <ele>175</ele>
        <time>2024-04-11T13:05:54.000Z</time>
      </trkpt>
      <trkpt lat="44.16083" lon="0.73874">
        <ele>175</ele>
        <time>2024-04-11T13:05:55.000Z</time>
      </trkpt>
      <trkpt lat="44.16085" lon="0.73873">
        <ele>175</ele>
        <time>2024-04-11T13:05:56.000Z</time>
      </trkpt>
      <trkpt lat="44.16086" lon="0.73873">
        <ele>175</ele>
        <time>2024-04-11T13:05:57.000Z</time>
      </trkpt>
      <trkpt lat="44.16087" lon="0.73873">
        <ele>175</ele>
        <time>2024-04-11T13:05:58.000Z</time>
      </trkpt>
      <trkpt lat="44.16088" lon="0.73872">
        <ele>175</ele>
        <time>2024-04-11T13:05:59.000Z</time>
      </trkpt>
      <trkpt lat="44.16089" lon="0.73872">
        <ele>175</ele>
        <time>2024-04-11T13:06:00.000Z</time>
      </trkpt>
      <trkpt lat="44.1609" lon="0.73872">
        <ele>175</ele>
        <time>2024-04-11T13:06:01.000Z</time>
      </trkpt>
      <trkpt lat="44.16091" lon="0.73872">
        <ele>175</ele>
        <time>2024-04-11T13:06:02.000Z</time>
      </trkpt>
      <trkpt lat="44.16093" lon="0.73872">
        <ele>175</ele>
        <time>2024-04-11T13:06:03.000Z</time>
      </trkpt>
      <trkpt lat="44.16094" lon="0.73872">
        <ele>175</ele>
        <time>2024-04-11T13:06:04.000Z</time>
      </trkpt>
      <trkpt lat="44.16094" lon="0.73872">
        <ele>175</ele>
        <time>2024-04-11T13:06:05.000Z</time>
      </trkpt>
      <trkpt lat="44.16095" lon="0.73871">
        <ele>175</ele>
        <time>2024-04-11T13:06:06.000Z</time>
      </trkpt>
      <trkpt lat="44.16096" lon="0.73871">
        <ele>175</ele>
        <time>2024-04-11T13:06:07.000Z</time>
      </trkpt>
      <trkpt lat="44.16097" lon="0.73871">
        <ele>175</ele>
        <time>2024-04-11T13:06:08.000Z</time>
      </trkpt>
      <trkpt lat="44.16098" lon="0.73871">
        <ele>175</ele>
        <time>2024-04-11T13:06:09.000Z</time>
      </trkpt>
      <trkpt lat="44.16099" lon="0.73871">
        <ele>175</ele>
        <time>2024-04-11T13:06:10.000Z</time>
      </trkpt>
      <trkpt lat="44.161" lon="0.73871">
        <ele>175</ele>
        <time>2024-04-11T13:06:11.000Z</time>
      </trkpt>
      <trkpt lat="44.16101" lon="0.73871">
        <ele>175</ele>
        <time>2024-04-11T13:06:12.000Z</time>
      </trkpt>
      <trkpt lat="44.16102" lon="0.7387">
        <ele>175</ele>
        <time>2024-04-11T13:06:13.000Z</time>
      </trkpt>
      <trkpt lat="44.16103" lon="0.7387">
        <ele>175</ele>
        <time>2024-04-11T13:06:14.000Z</time>
      </trkpt>
      <trkpt lat="44.16104" lon="0.7387">
        <ele>174</ele>
        <time>2024-04-11T13:06:15.000Z</time>
      </trkpt>
      <trkpt lat="44.16105" lon="0.7387">
        <ele>174</ele>
        <time>2024-04-11T13:06:16.000Z</time>
      </trkpt>
      <trkpt lat="44.16106" lon="0.7387">
        <ele>174</ele>
        <time>2024-04-11T13:06:17.000Z</time>
      </trkpt>
      <trkpt lat="44.16107" lon="0.73869">
        <ele>174</ele>
        <time>2024-04-11T13:06:18.000Z</time>
      </trkpt>
      <trkpt lat="44.16108" lon="0.73869">
        <ele>174</ele>
        <time>2024-04-11T13:06:19.000Z</time>
      </trkpt>
      <trkpt lat="44.16109" lon="0.73868">
        <ele>174</ele>
        <time>2024-04-11T13:06:20.000Z</time>
      </trkpt>
      <trkpt lat="44.1611" lon="0.73868">
        <ele>173</ele>
        <time>2024-04-11T13:06:21.000Z</time>
      </trkpt>
      <trkpt lat="44.16111" lon="0.73868">
        <ele>173</ele>
        <time>2024-04-11T13:06:22.000Z</time>
      </trkpt>
      <trkpt lat="44.16111" lon="0.73868">
        <ele>173</ele>
        <time>2024-04-11T13:06:23.000Z</time>
      </trkpt>
      <trkpt lat="44.16112" lon="0.73867">
        <ele>173</ele>
        <time>2024-04-11T13:06:24.000Z</time>
      </trkpt>
      <trkpt lat="44.16112" lon="0.73867">
        <ele>173</ele>
        <time>2024-04-11T13:06:25.000Z</time>
      </trkpt>
      <trkpt lat="44.16113" lon="0.73867">
        <ele>174</ele>
        <time>2024-04-11T13:06:26.000Z</time>
      </trkpt>
      <trkpt lat="44.16113" lon="0.73866">
        <ele>173</ele>
        <time>2024-04-11T13:06:27.000Z</time>
      </trkpt>
      <trkpt lat="44.16113" lon="0.73866">
        <ele>172</ele>
        <time>2024-04-11T13:06:28.000Z</time>
      </trkpt>
      <trkpt lat="44.16113" lon="0.73866">
        <ele>172</ele>
        <time>2024-04-11T13:06:29.000Z</time>
      </trkpt>
      <trkpt lat="44.16113" lon="0.73866">
        <ele>172</ele>
        <time>2024-04-11T13:06:30.000Z</time>
      </trkpt>
      <trkpt lat="44.16114" lon="0.73866">
        <ele>171</ele>
        <time>2024-04-11T13:06:31.000Z</time>
      </trkpt>
      <trkpt lat="44.16114" lon="0.73866">
        <ele>171</ele>
        <time>2024-04-11T13:06:32.000Z</time>
      </trkpt>
      <trkpt lat="44.16114" lon="0.73866">
        <ele>171</ele>
        <time>2024-04-11T13:06:33.000Z</time>
      </trkpt>
      <trkpt lat="44.16114" lon="0.73866">
        <ele>171</ele>
        <time>2024-04-11T13:06:34.000Z</time>
      </trkpt>
      <trkpt lat="44.16114" lon="0.73866">
        <ele>171</ele>
        <time>2024-04-11T13:06:35.000Z</time>
      </trkpt>
      <trkpt lat="44.16114" lon="0.73866">
        <ele>170</ele>
        <time>2024-04-11T13:06:36.000Z</time>
      </trkpt>
      <trkpt lat="44.16114" lon="0.73866">
        <ele>170</ele>
        <time>2024-04-11T13:06:37.000Z</time>
      </trkpt>
      <trkpt lat="44.16114" lon="0.73866">
        <ele>170</ele>
        <time>2024-04-11T13:06:38.000Z</time>
      </trkpt>
      <trkpt lat="44.16114" lon="0.73865">
        <ele>169</ele>
        <time>2024-04-11T13:06:39.000Z</time>
      </trkpt>
      <trkpt lat="44.16114" lon="0.73865">
        <ele>169</ele>
        <time>2024-04-11T13:06:40.000Z</time>
      </trkpt>
      <trkpt lat="44.16114" lon="0.73865">
        <ele>169</ele>
        <time>2024-04-11T13:06:41.000Z</time>
      </trkpt>
      <trkpt lat="44.16114" lon="0.73865">
        <ele>168</ele>
        <time>2024-04-11T13:06:42.000Z</time>
      </trkpt>
      <trkpt lat="44.16114" lon="0.73865">
        <ele>168</ele>
        <time>2024-04-11T13:06:43.000Z</time>
      </trkpt>
      <trkpt lat="44.16114" lon="0.73865">
        <ele>168</ele>
        <time>2024-04-11T13:06:44.000Z</time>
      </trkpt>
      <trkpt lat="44.16114" lon="0.73865">
        <ele>168</ele>
        <time>2024-04-11T13:06:45.000Z</time>
      </trkpt>
      <trkpt lat="44.16114" lon="0.73865">
        <ele>167</ele>
        <time>2024-04-11T13:06:46.000Z</time>
      </trkpt>
      <trkpt lat="44.16114" lon="0.73865">
        <ele>167</ele>
        <time>2024-04-11T13:06:47.000Z</time>
      </trkpt>
      <trkpt lat="44.16114" lon="0.73865">
        <ele>167</ele>
        <time>2024-04-11T13:06:48.000Z</time>
      </trkpt>
      <trkpt lat="44.16114" lon="0.73865">
        <ele>167</ele>
        <time>2024-04-11T13:06:49.000Z</time>
      </trkpt>
      <trkpt lat="44.16114" lon="0.73865">
        <ele>167</ele>
        <time>2024-04-11T13:06:50.000Z</time>
      </trkpt>
      <trkpt lat="44.16114" lon="0.73865">
        <ele>167</ele>
        <time>2024-04-11T13:06:51.000Z</time>
      </trkpt>
      <trkpt lat="44.16114" lon="0.73865">
        <ele>167</ele>
        <time>2024-04-11T13:06:52.000Z</time>
      </trkpt>
      <trkpt lat="44.16114" lon="0.73865">
        <ele>167</ele>
        <time>2024-04-11T13:06:53.000Z</time>
      </trkpt>
      <trkpt lat="44.16114" lon="0.73865">
        <ele>167</ele>
        <time>2024-04-11T13:06:54.000Z</time>
      </trkpt>
      <trkpt lat="44.16114" lon="0.73865">
        <ele>166</ele>
        <time>2024-04-11T13:06:55.000Z</time>
      </trkpt>
      <trkpt lat="44.16114" lon="0.73865">
        <ele>166</ele>
        <time>2024-04-11T13:06:56.000Z</time>
      </trkpt>
      <trkpt lat="44.16114" lon="0.73865">
        <ele>166</ele>
        <time>2024-04-11T13:06:57.000Z</time>
      </trkpt>
      <trkpt lat="44.16114" lon="0.73865">
        <ele>166</ele>
        <time>2024-04-11T13:06:58.000Z</time>
      </trkpt>
      <trkpt lat="44.16114" lon="0.73865">
        <ele>166</ele>
        <time>2024-04-11T13:06:59.000Z</time>
      </trkpt>
      <trkpt lat="44.16114" lon="0.73865">
        <ele>166</ele>
        <time>2024-04-11T13:07:00.000Z</time>
      </trkpt>
      <trkpt lat="44.16114" lon="0.73865">
        <ele>166</ele>
        <time>2024-04-11T13:07:01.000Z</time>
      </trkpt>
      <trkpt lat="44.16114" lon="0.73865">
        <ele>166</ele>
        <time>2024-04-11T13:07:02.000Z</time>
      </trkpt>
      <trkpt lat="44.16115" lon="0.73865">
        <ele>166</ele>
        <time>2024-04-11T13:07:03.000Z</time>
      </trkpt>
      <trkpt lat="44.16115" lon="0.73865">
        <ele>167</ele>
        <time>2024-04-11T13:07:04.000Z</time>
      </trkpt>
      <trkpt lat="44.16115" lon="0.73865">
        <ele>167</ele>
        <time>2024-04-11T13:07:05.000Z</time>
      </trkpt>
      <trkpt lat="44.16115" lon="0.73865">
        <ele>167</ele>
        <time>2024-04-11T13:07:06.000Z</time>
      </trkpt>
      <trkpt lat="44.16115" lon="0.73865">
        <ele>167</ele>
        <time>2024-04-11T13:07:07.000Z</time>
      </trkpt>
      <trkpt lat="44.16115" lon="0.73865">
        <ele>167</ele>
        <time>2024-04-11T13:07:08.000Z</time>
      </trkpt>
      <trkpt lat="44.16115" lon="0.73865">
        <ele>167</ele>
        <time>2024-04-11T13:07:09.000Z</time>
      </trkpt>
      <trkpt lat="44.16115" lon="0.73865">
        <ele>167</ele>
        <time>2024-04-11T13:07:10.000Z</time>
      </trkpt>
      <trkpt lat="44.16115" lon="0.73865">
        <ele>167</ele>
        <time>2024-04-11T13:07:11.000Z</time>
      </trkpt>
      <trkpt lat="44.16115" lon="0.73864">
        <ele>167</ele>
        <time>2024-04-11T13:07:12.000Z</time>
      </trkpt>
      <trkpt lat="44.16115" lon="0.73864">
        <ele>168</ele>
        <time>2024-04-11T13:07:13.000Z</time>
      </trkpt>
      <trkpt lat="44.16115" lon="0.73864">
        <ele>168</ele>
        <time>2024-04-11T13:07:14.000Z</time>
      </trkpt>
      <trkpt lat="44.16115" lon="0.73864">
        <ele>168</ele>
        <time>2024-04-11T13:07:15.000Z</time>
      </trkpt>
      <trkpt lat="44.16115" lon="0.73864">
        <ele>168</ele>
        <time>2024-04-11T13:07:16.000Z</time>
      </trkpt>
      <trkpt lat="44.16115" lon="0.73864">
        <ele>168</ele>
        <time>2024-04-11T13:07:17.000Z</time>
      </trkpt>
      <trkpt lat="44.16115" lon="0.73864">
        <ele>168</ele>
        <time>2024-04-11T13:07:18.000Z</time>
      </trkpt>
      <trkpt lat="44.16115" lon="0.73864">
        <ele>168</ele>
        <time>2024-04-11T13:07:19.000Z</time>
      </trkpt>
      <trkpt lat="44.16115" lon="0.73864">
        <ele>168</ele>
        <time>2024-04-11T13:07:20.000Z</time>
      </trkpt>
      <trkpt lat="44.16115" lon="0.73864">
        <ele>167</ele>
        <time>2024-04-11T13:07:21.000Z</time>
      </trkpt>
      <trkpt lat="44.16115" lon="0.73864">
        <ele>167</ele>
        <time>2024-04-11T13:07:22.000Z</time>
      </trkpt>
      <trkpt lat="44.16115" lon="0.73864">
        <ele>167</ele>
        <time>2024-04-11T13:07:23.000Z</time>
      </trkpt>
      <trkpt lat="44.16115" lon="0.73864">
        <ele>167</ele>
        <time>2024-04-11T13:07:24.000Z</time>
      </trkpt>
      <trkpt lat="44.16115" lon="0.73864">
        <ele>167</ele>
        <time>2024-04-11T13:07:25.000Z</time>
      </trkpt>
      <trkpt lat="44.16115" lon="0.73865">
        <ele>167</ele>
        <time>2024-04-11T13:07:26.000Z</time>
      </trkpt>
      <trkpt lat="44.16115" lon="0.73865">
        <ele>167</ele>
        <time>2024-04-11T13:07:27.000Z</time>
      </trkpt>
      <trkpt lat="44.16115" lon="0.73865">
        <ele>167</ele>
        <time>2024-04-11T13:07:28.000Z</time>
      </trkpt>
      <trkpt lat="44.16115" lon="0.73865">
        <ele>166</ele>
        <time>2024-04-11T13:07:29.000Z</time>
      </trkpt>
      <trkpt lat="44.16115" lon="0.73865">
        <ele>166</ele>
        <time>2024-04-11T13:07:30.000Z</time>
      </trkpt>
      <trkpt lat="44.16115" lon="0.73865">
        <ele>166</ele>
        <time>2024-04-11T13:07:31.000Z</time>
      </trkpt>
      <trkpt lat="44.16115" lon="0.73865">
        <ele>166</ele>
        <time>2024-04-11T13:07:32.000Z</time>
      </trkpt>
      <trkpt lat="44.16115" lon="0.73865">
        <ele>165</ele>
        <time>2024-04-11T13:07:33.000Z</time>
      </trkpt>
      <trkpt lat="44.16115" lon="0.73865">
        <ele>165</ele>
        <time>2024-04-11T13:07:34.000Z</time>
      </trkpt>
      <trkpt lat="44.16115" lon="0.73865">
        <ele>165</ele>
        <time>2024-04-11T13:07:35.000Z</time>
      </trkpt>
      <trkpt lat="44.16116" lon="0.73865">
        <ele>164</ele>
        <time>2024-04-11T13:07:36.000Z</time>
      </trkpt>
      <trkpt lat="44.16116" lon="0.73865">
        <ele>164</ele>
        <time>2024-04-11T13:07:37.000Z</time>
      </trkpt>
      <trkpt lat="44.16116" lon="0.73866">
        <ele>164</ele>
        <time>2024-04-11T13:07:38.000Z</time>
      </trkpt>
      <trkpt lat="44.16116" lon="0.73866">
        <ele>164</ele>
        <time>2024-04-11T13:07:39.000Z</time>
      </trkpt>
      <trkpt lat="44.16116" lon="0.73865">
        <ele>164</ele>
        <time>2024-04-11T13:07:40.000Z</time>
      </trkpt>
      <trkpt lat="44.16116" lon="0.73865">
        <ele>164</ele>
        <time>2024-04-11T13:07:41.000Z</time>
      </trkpt>
      <trkpt lat="44.16116" lon="0.73865">
        <ele>164</ele>
        <time>2024-04-11T13:07:42.000Z</time>
      </trkpt>
      <trkpt lat="44.16116" lon="0.73865">
        <ele>164</ele>
        <time>2024-04-11T13:07:43.000Z</time>
      </trkpt>
      <trkpt lat="44.16116" lon="0.73865">
        <ele>164</ele>
        <time>2024-04-11T13:07:44.000Z</time>
      </trkpt>
      <trkpt lat="44.16116" lon="0.73865">
        <ele>164</ele>
        <time>2024-04-11T13:07:45.000Z</time>
      </trkpt>
      <trkpt lat="44.16116" lon="0.73865">
        <ele>164</ele>
        <time>2024-04-11T13:07:46.000Z</time>
      </trkpt>
      <trkpt lat="44.16116" lon="0.73865">
        <ele>165</ele>
        <time>2024-04-11T13:07:47.000Z</time>
      </trkpt>
      <trkpt lat="44.16116" lon="0.73865">
        <ele>165</ele>
        <time>2024-04-11T13:07:48.000Z</time>
      </trkpt>
      <trkpt lat="44.16116" lon="0.73865">
        <ele>165</ele>
        <time>2024-04-11T13:07:49.000Z</time>
      </trkpt>
      <trkpt lat="44.16116" lon="0.73865">
        <ele>166</ele>
        <time>2024-04-11T13:07:50.000Z</time>
      </trkpt>
      <trkpt lat="44.16116" lon="0.73865">
        <ele>166</ele>
        <time>2024-04-11T13:07:51.000Z</time>
      </trkpt>
      <trkpt lat="44.16116" lon="0.73865">
        <ele>166</ele>
        <time>2024-04-11T13:07:52.000Z</time>
      </trkpt>
      <trkpt lat="44.16116" lon="0.73865">
        <ele>166</ele>
        <time>2024-04-11T13:07:53.000Z</time>
      </trkpt>
      <trkpt lat="44.16116" lon="0.73865">
        <ele>167</ele>
        <time>2024-04-11T13:07:54.000Z</time>
      </trkpt>
      <trkpt lat="44.16116" lon="0.73865">
        <ele>167</ele>
        <time>2024-04-11T13:07:55.000Z</time>
      </trkpt>
      <trkpt lat="44.16116" lon="0.73865">
        <ele>167</ele>
        <time>2024-04-11T13:07:56.000Z</time>
      </trkpt>
      <trkpt lat="44.16116" lon="0.73865">
        <ele>167</ele>
        <time>2024-04-11T13:07:57.000Z</time>
      </trkpt>
      <trkpt lat="44.16116" lon="0.73865">
        <ele>167</ele>
        <time>2024-04-11T13:07:58.000Z</time>
      </trkpt>
      <trkpt lat="44.16116" lon="0.73865">
        <ele>167</ele>
        <time>2024-04-11T13:07:59.000Z</time>
      </trkpt>
      <trkpt lat="44.16116" lon="0.73865">
        <ele>168</ele>
        <time>2024-04-11T13:08:00.000Z</time>
      </trkpt>
      <trkpt lat="44.16116" lon="0.73865">
        <ele>168</ele>
        <time>2024-04-11T13:08:01.000Z</time>
      </trkpt>
      <trkpt lat="44.16116" lon="0.73865">
        <ele>168</ele>
        <time>2024-04-11T13:08:02.000Z</time>
      </trkpt>
      <trkpt lat="44.16116" lon="0.73865">
        <ele>168</ele>
        <time>2024-04-11T13:08:03.000Z</time>
      </trkpt>
      <trkpt lat="44.16116" lon="0.73865">
        <ele>168</ele>
        <time>2024-04-11T13:08:04.000Z</time>
      </trkpt>
      <trkpt lat="44.16116" lon="0.73865">
        <ele>168</ele>
        <time>2024-04-11T13:08:05.000Z</time>
      </trkpt>
      <trkpt lat="44.16116" lon="0.73865">
        <ele>169</ele>
        <time>2024-04-11T13:08:06.000Z</time>
      </trkpt>
      <trkpt lat="44.16116" lon="0.73865">
        <ele>169</ele>
        <time>2024-04-11T13:08:07.000Z</time>
      </trkpt>
      <trkpt lat="44.16116" lon="0.73865">
        <ele>169</ele>
        <time>2024-04-11T13:08:08.000Z</time>
      </trkpt>
      <trkpt lat="44.16116" lon="0.73865">
        <ele>169</ele>
        <time>2024-04-11T13:08:09.000Z</time>
      </trkpt>
      <trkpt lat="44.16116" lon="0.73865">
        <ele>169</ele>
        <time>2024-04-11T13:08:10.000Z</time>
      </trkpt>
      <trkpt lat="44.16116" lon="0.73865">
        <ele>169</ele>
        <time>2024-04-11T13:08:11.000Z</time>
      </trkpt>
      <trkpt lat="44.16116" lon="0.73865">
        <ele>169</ele>
        <time>2024-04-11T13:08:12.000Z</time>
      </trkpt>
      <trkpt lat="44.16116" lon="0.73865">
        <ele>169</ele>
        <time>2024-04-11T13:08:13.000Z</time>
      </trkpt>
      <trkpt lat="44.16116" lon="0.73865">
        <ele>169</ele>
        <time>2024-04-11T13:08:14.000Z</time>
      </trkpt>
      <trkpt lat="44.16117" lon="0.73865">
        <ele>169</ele>
        <time>2024-04-11T13:08:15.000Z</time>
      </trkpt>
      <trkpt lat="44.16117" lon="0.73865">
        <ele>169</ele>
        <time>2024-04-11T13:08:16.000Z</time>
      </trkpt>
      <trkpt lat="44.16117" lon="0.73864">
        <ele>168</ele>
        <time>2024-04-11T13:08:17.000Z</time>
      </trkpt>
      <trkpt lat="44.16118" lon="0.73864">
        <ele>168</ele>
        <time>2024-04-11T13:08:18.000Z</time>
      </trkpt>
      <trkpt lat="44.16118" lon="0.73864">
        <ele>168</ele>
        <time>2024-04-11T13:08:19.000Z</time>
      </trkpt>
      <trkpt lat="44.16118" lon="0.73863">
        <ele>169</ele>
        <time>2024-04-11T13:08:20.000Z</time>
      </trkpt>
      <trkpt lat="44.16118" lon="0.73863">
        <ele>169</ele>
        <time>2024-04-11T13:08:21.000Z</time>
      </trkpt>
      <trkpt lat="44.16118" lon="0.73863">
        <ele>169</ele>
        <time>2024-04-11T13:08:22.000Z</time>
      </trkpt>
      <trkpt lat="44.16118" lon="0.73863">
        <ele>169</ele>
        <time>2024-04-11T13:08:23.000Z</time>
      </trkpt>
      <trkpt lat="44.16119" lon="0.73863">
        <ele>169</ele>
        <time>2024-04-11T13:08:24.000Z</time>
      </trkpt>
      <trkpt lat="44.16119" lon="0.73862">
        <ele>169</ele>
        <time>2024-04-11T13:08:25.000Z</time>
      </trkpt>
      <trkpt lat="44.16119" lon="0.73862">
        <ele>169</ele>
        <time>2024-04-11T13:08:26.000Z</time>
      </trkpt>
      <trkpt lat="44.16119" lon="0.73862">
        <ele>169</ele>
        <time>2024-04-11T13:08:27.000Z</time>
      </trkpt>
      <trkpt lat="44.16119" lon="0.73862">
        <ele>169</ele>
        <time>2024-04-11T13:08:28.000Z</time>
      </trkpt>
      <trkpt lat="44.16119" lon="0.73862">
        <ele>169</ele>
        <time>2024-04-11T13:08:29.000Z</time>
      </trkpt>
      <trkpt lat="44.16119" lon="0.73862">
        <ele>169</ele>
        <time>2024-04-11T13:08:30.000Z</time>
      </trkpt>
      <trkpt lat="44.1612" lon="0.73862">
        <ele>169</ele>
        <time>2024-04-11T13:08:31.000Z</time>
      </trkpt>
      <trkpt lat="44.1612" lon="0.73862">
        <ele>169</ele>
        <time>2024-04-11T13:08:32.000Z</time>
      </trkpt>
      <trkpt lat="44.1612" lon="0.73862">
        <ele>170</ele>
        <time>2024-04-11T13:08:33.000Z</time>
      </trkpt>
      <trkpt lat="44.1612" lon="0.73862">
        <ele>170</ele>
        <time>2024-04-11T13:08:34.000Z</time>
      </trkpt>
      <trkpt lat="44.1612" lon="0.73862">
        <ele>170</ele>
        <time>2024-04-11T13:08:35.000Z</time>
      </trkpt>
      <trkpt lat="44.1612" lon="0.73862">
        <ele>171</ele>
        <time>2024-04-11T13:08:36.000Z</time>
      </trkpt>
      <trkpt lat="44.1612" lon="0.73861">
        <ele>171</ele>
        <time>2024-04-11T13:08:37.000Z</time>
      </trkpt>
      <trkpt lat="44.1612" lon="0.73861">
        <ele>171</ele>
        <time>2024-04-11T13:08:38.000Z</time>
      </trkpt>
      <trkpt lat="44.1612" lon="0.73861">
        <ele>171</ele>
        <time>2024-04-11T13:08:39.000Z</time>
      </trkpt>
      <trkpt lat="44.1612" lon="0.73861">
        <ele>171</ele>
        <time>2024-04-11T13:08:40.000Z</time>
      </trkpt>
      <trkpt lat="44.1612" lon="0.73861">
        <ele>171</ele>
        <time>2024-04-11T13:08:41.000Z</time>
      </trkpt>
      <trkpt lat="44.1612" lon="0.73861">
        <ele>171</ele>
        <time>2024-04-11T13:08:42.000Z</time>
      </trkpt>
      <trkpt lat="44.1612" lon="0.73861">
        <ele>171</ele>
        <time>2024-04-11T13:08:43.000Z</time>
      </trkpt>
      <trkpt lat="44.1612" lon="0.73861">
        <ele>171</ele>
        <time>2024-04-11T13:08:44.000Z</time>
      </trkpt>
      <trkpt lat="44.1612" lon="0.73861">
        <ele>170</ele>
        <time>2024-04-11T13:08:45.000Z</time>
      </trkpt>
      <trkpt lat="44.1612" lon="0.73861">
        <ele>170</ele>
        <time>2024-04-11T13:08:46.000Z</time>
      </trkpt>
      <trkpt lat="44.16121" lon="0.73861">
        <ele>171</ele>
        <time>2024-04-11T13:08:47.000Z</time>
      </trkpt>
      <trkpt lat="44.16121" lon="0.73861">
        <ele>170</ele>
        <time>2024-04-11T13:08:48.000Z</time>
      </trkpt>
      <trkpt lat="44.16121" lon="0.73861">
        <ele>170</ele>
        <time>2024-04-11T13:08:49.000Z</time>
      </trkpt>
      <trkpt lat="44.16121" lon="0.73861">
        <ele>170</ele>
        <time>2024-04-11T13:08:50.000Z</time>
      </trkpt>
      <trkpt lat="44.16121" lon="0.73861">
        <ele>171</ele>
        <time>2024-04-11T13:08:51.000Z</time>
      </trkpt>
      <trkpt lat="44.16121" lon="0.73861">
        <ele>171</ele>
        <time>2024-04-11T13:08:52.000Z</time>
      </trkpt>
      <trkpt lat="44.16122" lon="0.73861">
        <ele>171</ele>
        <time>2024-04-11T13:08:53.000Z</time>
      </trkpt>
      <trkpt lat="44.16123" lon="0.7386">
        <ele>171</ele>
        <time>2024-04-11T13:08:54.000Z</time>
      </trkpt>
      <trkpt lat="44.16124" lon="0.7386">
        <ele>171</ele>
        <time>2024-04-11T13:08:55.000Z</time>
      </trkpt>
      <trkpt lat="44.16125" lon="0.73859">
        <ele>170</ele>
        <time>2024-04-11T13:08:56.000Z</time>
      </trkpt>
      <trkpt lat="44.16126" lon="0.73859">
        <ele>171</ele>
        <time>2024-04-11T13:08:57.000Z</time>
      </trkpt>
      <trkpt lat="44.16126" lon="0.73858">
        <ele>171</ele>
        <time>2024-04-11T13:08:58.000Z</time>
      </trkpt>
      <trkpt lat="44.16127" lon="0.73857">
        <ele>171</ele>
        <time>2024-04-11T13:08:59.000Z</time>
      </trkpt>
      <trkpt lat="44.16128" lon="0.73856">
        <ele>171</ele>
        <time>2024-04-11T13:09:00.000Z</time>
      </trkpt>
      <trkpt lat="44.16129" lon="0.73856">
        <ele>171</ele>
        <time>2024-04-11T13:09:01.000Z</time>
      </trkpt>
      <trkpt lat="44.1613" lon="0.73855">
        <ele>171</ele>
        <time>2024-04-11T13:09:02.000Z</time>
      </trkpt>
      <trkpt lat="44.16131" lon="0.73854">
        <ele>171</ele>
        <time>2024-04-11T13:09:03.000Z</time>
      </trkpt>
      <trkpt lat="44.16132" lon="0.73853">
        <ele>171</ele>
        <time>2024-04-11T13:09:04.000Z</time>
      </trkpt>
      <trkpt lat="44.16133" lon="0.73852">
        <ele>171</ele>
        <time>2024-04-11T13:09:05.000Z</time>
      </trkpt>
      <trkpt lat="44.16134" lon="0.73851">
        <ele>171</ele>
        <time>2024-04-11T13:09:06.000Z</time>
      </trkpt>
      <trkpt lat="44.16135" lon="0.7385">
        <ele>171</ele>
        <time>2024-04-11T13:09:07.000Z</time>
      </trkpt>
      <trkpt lat="44.16135" lon="0.73848">
        <ele>171</ele>
        <time>2024-04-11T13:09:08.000Z</time>
      </trkpt>
      <trkpt lat="44.16136" lon="0.73847">
        <ele>171</ele>
        <time>2024-04-11T13:09:09.000Z</time>
      </trkpt>
      <trkpt lat="44.16137" lon="0.73846">
        <ele>171</ele>
        <time>2024-04-11T13:09:10.000Z</time>
      </trkpt>
      <trkpt lat="44.16138" lon="0.73845">
        <ele>171</ele>
        <time>2024-04-11T13:09:11.000Z</time>
      </trkpt>
      <trkpt lat="44.16138" lon="0.73844">
        <ele>171</ele>
        <time>2024-04-11T13:09:12.000Z</time>
      </trkpt>
      <trkpt lat="44.16139" lon="0.73843">
        <ele>171</ele>
        <time>2024-04-11T13:09:13.000Z</time>
      </trkpt>
      <trkpt lat="44.1614" lon="0.73841">
        <ele>171</ele>
        <time>2024-04-11T13:09:14.000Z</time>
      </trkpt>
      <trkpt lat="44.16141" lon="0.7384">
        <ele>171</ele>
        <time>2024-04-11T13:09:15.000Z</time>
      </trkpt>
      <trkpt lat="44.16142" lon="0.73839">
        <ele>171</ele>
        <time>2024-04-11T13:09:16.000Z</time>
      </trkpt>
      <trkpt lat="44.16142" lon="0.73837">
        <ele>171</ele>
        <time>2024-04-11T13:09:17.000Z</time>
      </trkpt>
      <trkpt lat="44.16143" lon="0.73836">
        <ele>172</ele>
        <time>2024-04-11T13:09:18.000Z</time>
      </trkpt>
      <trkpt lat="44.16143" lon="0.73834">
        <ele>172</ele>
        <time>2024-04-11T13:09:19.000Z</time>
      </trkpt>
      <trkpt lat="44.16144" lon="0.73833">
        <ele>172</ele>
        <time>2024-04-11T13:09:20.000Z</time>
      </trkpt>
      <trkpt lat="44.16144" lon="0.73832">
        <ele>172</ele>
        <time>2024-04-11T13:09:21.000Z</time>
      </trkpt>
      <trkpt lat="44.16145" lon="0.7383">
        <ele>171</ele>
        <time>2024-04-11T13:09:22.000Z</time>
      </trkpt>
      <trkpt lat="44.16145" lon="0.73829">
        <ele>171</ele>
        <time>2024-04-11T13:09:23.000Z</time>
      </trkpt>
      <trkpt lat="44.16146" lon="0.73828">
        <ele>171</ele>
        <time>2024-04-11T13:09:24.000Z</time>
      </trkpt>
      <trkpt lat="44.16146" lon="0.73826">
        <ele>171</ele>
        <time>2024-04-11T13:09:25.000Z</time>
      </trkpt>
      <trkpt lat="44.16147" lon="0.73824">
        <ele>171</ele>
        <time>2024-04-11T13:09:26.000Z</time>
      </trkpt>
      <trkpt lat="44.16147" lon="0.73823">
        <ele>172</ele>
        <time>2024-04-11T13:09:27.000Z</time>
      </trkpt>
      <trkpt lat="44.16147" lon="0.73822">
        <ele>172</ele>
        <time>2024-04-11T13:09:28.000Z</time>
      </trkpt>
      <trkpt lat="44.16148" lon="0.7382">
        <ele>172</ele>
        <time>2024-04-11T13:09:29.000Z</time>
      </trkpt>
      <trkpt lat="44.16148" lon="0.73819">
        <ele>172</ele>
        <time>2024-04-11T13:09:30.000Z</time>
      </trkpt>
      <trkpt lat="44.16148" lon="0.73818">
        <ele>172</ele>
        <time>2024-04-11T13:09:31.000Z</time>
      </trkpt>
      <trkpt lat="44.16149" lon="0.73816">
        <ele>171</ele>
        <time>2024-04-11T13:09:32.000Z</time>
      </trkpt>
      <trkpt lat="44.16149" lon="0.73815">
        <ele>171</ele>
        <time>2024-04-11T13:09:33.000Z</time>
      </trkpt>
      <trkpt lat="44.16149" lon="0.73813">
        <ele>171</ele>
        <time>2024-04-11T13:09:34.000Z</time>
      </trkpt>
      <trkpt lat="44.16149" lon="0.73811">
        <ele>170</ele>
        <time>2024-04-11T13:09:35.000Z</time>
      </trkpt>
      <trkpt lat="44.16149" lon="0.7381">
        <ele>171</ele>
        <time>2024-04-11T13:09:36.000Z</time>
      </trkpt>
      <trkpt lat="44.1615" lon="0.73808">
        <ele>171</ele>
        <time>2024-04-11T13:09:37.000Z</time>
      </trkpt>
      <trkpt lat="44.1615" lon="0.73807">
        <ele>170</ele>
        <time>2024-04-11T13:09:38.000Z</time>
      </trkpt>
      <trkpt lat="44.1615" lon="0.73805">
        <ele>170</ele>
        <time>2024-04-11T13:09:39.000Z</time>
      </trkpt>
      <trkpt lat="44.16151" lon="0.73804">
        <ele>171</ele>
        <time>2024-04-11T13:09:40.000Z</time>
      </trkpt>
      <trkpt lat="44.16151" lon="0.73802">
        <ele>171</ele>
        <time>2024-04-11T13:09:41.000Z</time>
      </trkpt>
      <trkpt lat="44.16151" lon="0.73801">
        <ele>171</ele>
        <time>2024-04-11T13:09:42.000Z</time>
      </trkpt>
      <trkpt lat="44.16151" lon="0.73799">
        <ele>171</ele>
        <time>2024-04-11T13:09:43.000Z</time>
      </trkpt>
      <trkpt lat="44.16151" lon="0.73798">
        <ele>172</ele>
        <time>2024-04-11T13:09:44.000Z</time>
      </trkpt>
      <trkpt lat="44.16152" lon="0.73797">
        <ele>172</ele>
        <time>2024-04-11T13:09:45.000Z</time>
      </trkpt>
      <trkpt lat="44.16152" lon="0.73795">
        <ele>172</ele>
        <time>2024-04-11T13:09:46.000Z</time>
      </trkpt>
      <trkpt lat="44.16152" lon="0.73794">
        <ele>173</ele>
        <time>2024-04-11T13:09:47.000Z</time>
      </trkpt>
      <trkpt lat="44.16153" lon="0.73792">
        <ele>173</ele>
        <time>2024-04-11T13:09:48.000Z</time>
      </trkpt>
      <trkpt lat="44.16153" lon="0.7379">
        <ele>173</ele>
        <time>2024-04-11T13:09:49.000Z</time>
      </trkpt>
      <trkpt lat="44.16153" lon="0.73789">
        <ele>173</ele>
        <time>2024-04-11T13:09:50.000Z</time>
      </trkpt>
      <trkpt lat="44.16154" lon="0.73788">
        <ele>173</ele>
        <time>2024-04-11T13:09:51.000Z</time>
      </trkpt>
      <trkpt lat="44.16154" lon="0.73786">
        <ele>174</ele>
        <time>2024-04-11T13:09:52.000Z</time>
      </trkpt>
      <trkpt lat="44.16154" lon="0.73785">
        <ele>173</ele>
        <time>2024-04-11T13:09:53.000Z</time>
      </trkpt>
      <trkpt lat="44.16154" lon="0.73783">
        <ele>173</ele>
        <time>2024-04-11T13:09:54.000Z</time>
      </trkpt>
      <trkpt lat="44.16154" lon="0.73782">
        <ele>174</ele>
        <time>2024-04-11T13:09:55.000Z</time>
      </trkpt>
      <trkpt lat="44.16154" lon="0.7378">
        <ele>174</ele>
        <time>2024-04-11T13:09:56.000Z</time>
      </trkpt>
      <trkpt lat="44.16154" lon="0.73779">
        <ele>174</ele>
        <time>2024-04-11T13:09:57.000Z</time>
      </trkpt>
      <trkpt lat="44.16155" lon="0.73777">
        <ele>174</ele>
        <time>2024-04-11T13:09:58.000Z</time>
      </trkpt>
      <trkpt lat="44.16155" lon="0.73776">
        <ele>174</ele>
        <time>2024-04-11T13:09:59.000Z</time>
      </trkpt>
      <trkpt lat="44.16155" lon="0.73774">
        <ele>174</ele>
        <time>2024-04-11T13:10:00.000Z</time>
      </trkpt>
      <trkpt lat="44.16155" lon="0.73772">
        <ele>174</ele>
        <time>2024-04-11T13:10:01.000Z</time>
      </trkpt>
      <trkpt lat="44.16156" lon="0.73771">
        <ele>173</ele>
        <time>2024-04-11T13:10:02.000Z</time>
      </trkpt>
      <trkpt lat="44.16156" lon="0.73769">
        <ele>174</ele>
        <time>2024-04-11T13:10:03.000Z</time>
      </trkpt>
      <trkpt lat="44.16156" lon="0.73768">
        <ele>174</ele>
        <time>2024-04-11T13:10:04.000Z</time>
      </trkpt>
      <trkpt lat="44.16157" lon="0.73766">
        <ele>174</ele>
        <time>2024-04-11T13:10:05.000Z</time>
      </trkpt>
      <trkpt lat="44.16157" lon="0.73765">
        <ele>175</ele>
        <time>2024-04-11T13:10:06.000Z</time>
      </trkpt>
      <trkpt lat="44.16158" lon="0.73763">
        <ele>175</ele>
        <time>2024-04-11T13:10:07.000Z</time>
      </trkpt>
      <trkpt lat="44.16159" lon="0.73762">
        <ele>175</ele>
        <time>2024-04-11T13:10:08.000Z</time>
      </trkpt>
      <trkpt lat="44.16159" lon="0.7376">
        <ele>175</ele>
        <time>2024-04-11T13:10:09.000Z</time>
      </trkpt>
      <trkpt lat="44.16159" lon="0.73759">
        <ele>175</ele>
        <time>2024-04-11T13:10:10.000Z</time>
      </trkpt>
      <trkpt lat="44.16159" lon="0.73757">
        <ele>175</ele>
        <time>2024-04-11T13:10:11.000Z</time>
      </trkpt>
      <trkpt lat="44.1616" lon="0.73756">
        <ele>176</ele>
        <time>2024-04-11T13:10:12.000Z</time>
      </trkpt>
      <trkpt lat="44.1616" lon="0.73754">
        <ele>176</ele>
        <time>2024-04-11T13:10:13.000Z</time>
      </trkpt>
      <trkpt lat="44.16161" lon="0.73753">
        <ele>177</ele>
        <time>2024-04-11T13:10:14.000Z</time>
      </trkpt>
      <trkpt lat="44.16161" lon="0.73751">
        <ele>177</ele>
        <time>2024-04-11T13:10:15.000Z</time>
      </trkpt>
      <trkpt lat="44.16161" lon="0.7375">
        <ele>178</ele>
        <time>2024-04-11T13:10:16.000Z</time>
      </trkpt>
      <trkpt lat="44.16162" lon="0.73749">
        <ele>178</ele>
        <time>2024-04-11T13:10:17.000Z</time>
      </trkpt>
      <trkpt lat="44.16162" lon="0.73747">
        <ele>178</ele>
        <time>2024-04-11T13:10:18.000Z</time>
      </trkpt>
      <trkpt lat="44.16163" lon="0.73746">
        <ele>178</ele>
        <time>2024-04-11T13:10:19.000Z</time>
      </trkpt>
      <trkpt lat="44.16163" lon="0.73744">
        <ele>178</ele>
        <time>2024-04-11T13:10:20.000Z</time>
      </trkpt>
      <trkpt lat="44.16164" lon="0.73743">
        <ele>178</ele>
        <time>2024-04-11T13:10:21.000Z</time>
      </trkpt>
      <trkpt lat="44.16164" lon="0.73741">
        <ele>178</ele>
        <time>2024-04-11T13:10:22.000Z</time>
      </trkpt>
      <trkpt lat="44.16164" lon="0.7374">
        <ele>178</ele>
        <time>2024-04-11T13:10:23.000Z</time>
      </trkpt>
      <trkpt lat="44.16165" lon="0.73739">
        <ele>178</ele>
        <time>2024-04-11T13:10:24.000Z</time>
      </trkpt>
      <trkpt lat="44.16165" lon="0.73737">
        <ele>178</ele>
        <time>2024-04-11T13:10:25.000Z</time>
      </trkpt>
      <trkpt lat="44.16166" lon="0.73735">
        <ele>178</ele>
        <time>2024-04-11T13:10:26.000Z</time>
      </trkpt>
      <trkpt lat="44.16166" lon="0.73734">
        <ele>177</ele>
        <time>2024-04-11T13:10:27.000Z</time>
      </trkpt>
      <trkpt lat="44.16167" lon="0.73732">
        <ele>177</ele>
        <time>2024-04-11T13:10:28.000Z</time>
      </trkpt>
      <trkpt lat="44.16167" lon="0.73731">
        <ele>177</ele>
        <time>2024-04-11T13:10:29.000Z</time>
      </trkpt>
      <trkpt lat="44.16168" lon="0.73729">
        <ele>177</ele>
        <time>2024-04-11T13:10:30.000Z</time>
      </trkpt>
      <trkpt lat="44.16169" lon="0.73728">
        <ele>177</ele>
        <time>2024-04-11T13:10:31.000Z</time>
      </trkpt>
      <trkpt lat="44.16169" lon="0.73726">
        <ele>177</ele>
        <time>2024-04-11T13:10:32.000Z</time>
      </trkpt>
      <trkpt lat="44.1617" lon="0.73725">
        <ele>177</ele>
        <time>2024-04-11T13:10:33.000Z</time>
      </trkpt>
      <trkpt lat="44.1617" lon="0.73723">
        <ele>177</ele>
        <time>2024-04-11T13:10:34.000Z</time>
      </trkpt>
      <trkpt lat="44.16171" lon="0.73722">
        <ele>177</ele>
        <time>2024-04-11T13:10:35.000Z</time>
      </trkpt>
      <trkpt lat="44.16171" lon="0.7372">
        <ele>177</ele>
        <time>2024-04-11T13:10:36.000Z</time>
      </trkpt>
      <trkpt lat="44.16171" lon="0.73719">
        <ele>177</ele>
        <time>2024-04-11T13:10:37.000Z</time>
      </trkpt>
      <trkpt lat="44.16172" lon="0.73717">
        <ele>177</ele>
        <time>2024-04-11T13:10:38.000Z</time>
      </trkpt>
      <trkpt lat="44.16172" lon="0.73715">
        <ele>176</ele>
        <time>2024-04-11T13:10:39.000Z</time>
      </trkpt>
      <trkpt lat="44.16172" lon="0.73714">
        <ele>176</ele>
        <time>2024-04-11T13:10:40.000Z</time>
      </trkpt>
      <trkpt lat="44.16173" lon="0.73712">
        <ele>176</ele>
        <time>2024-04-11T13:10:41.000Z</time>
      </trkpt>
      <trkpt lat="44.16173" lon="0.73711">
        <ele>176</ele>
        <time>2024-04-11T13:10:42.000Z</time>
      </trkpt>
      <trkpt lat="44.16173" lon="0.73709">
        <ele>176</ele>
        <time>2024-04-11T13:10:43.000Z</time>
      </trkpt>
      <trkpt lat="44.16174" lon="0.73707">
        <ele>176</ele>
        <time>2024-04-11T13:10:44.000Z</time>
      </trkpt>
      <trkpt lat="44.16174" lon="0.73706">
        <ele>176</ele>
        <time>2024-04-11T13:10:45.000Z</time>
      </trkpt>
      <trkpt lat="44.16174" lon="0.73704">
        <ele>176</ele>
        <time>2024-04-11T13:10:46.000Z</time>
      </trkpt>
      <trkpt lat="44.16174" lon="0.73702">
        <ele>176</ele>
        <time>2024-04-11T13:10:47.000Z</time>
      </trkpt>
      <trkpt lat="44.16175" lon="0.73701">
        <ele>176</ele>
        <time>2024-04-11T13:10:48.000Z</time>
      </trkpt>
      <trkpt lat="44.16175" lon="0.73699">
        <ele>176</ele>
        <time>2024-04-11T13:10:49.000Z</time>
      </trkpt>
      <trkpt lat="44.16175" lon="0.73697">
        <ele>176</ele>
        <time>2024-04-11T13:10:50.000Z</time>
      </trkpt>
      <trkpt lat="44.16176" lon="0.73696">
        <ele>176</ele>
        <time>2024-04-11T13:10:51.000Z</time>
      </trkpt>
      <trkpt lat="44.16176" lon="0.73694">
        <ele>176</ele>
        <time>2024-04-11T13:10:52.000Z</time>
      </trkpt>
      <trkpt lat="44.16176" lon="0.73693">
        <ele>175</ele>
        <time>2024-04-11T13:10:53.000Z</time>
      </trkpt>
      <trkpt lat="44.16176" lon="0.73691">
        <ele>175</ele>
        <time>2024-04-11T13:10:54.000Z</time>
      </trkpt>
      <trkpt lat="44.16177" lon="0.73689">
        <ele>175</ele>
        <time>2024-04-11T13:10:55.000Z</time>
      </trkpt>
      <trkpt lat="44.16177" lon="0.73688">
        <ele>175</ele>
        <time>2024-04-11T13:10:56.000Z</time>
      </trkpt>
      <trkpt lat="44.16177" lon="0.73686">
        <ele>175</ele>
        <time>2024-04-11T13:10:57.000Z</time>
      </trkpt>
      <trkpt lat="44.16177" lon="0.73685">
        <ele>175</ele>
        <time>2024-04-11T13:10:58.000Z</time>
      </trkpt>
      <trkpt lat="44.16177" lon="0.73683">
        <ele>175</ele>
        <time>2024-04-11T13:10:59.000Z</time>
      </trkpt>
      <trkpt lat="44.16178" lon="0.73681">
        <ele>175</ele>
        <time>2024-04-11T13:11:00.000Z</time>
      </trkpt>
      <trkpt lat="44.16178" lon="0.73679">
        <ele>175</ele>
        <time>2024-04-11T13:11:01.000Z</time>
      </trkpt>
      <trkpt lat="44.16178" lon="0.73678">
        <ele>175</ele>
        <time>2024-04-11T13:11:02.000Z</time>
      </trkpt>
      <trkpt lat="44.16179" lon="0.73676">
        <ele>175</ele>
        <time>2024-04-11T13:11:03.000Z</time>
      </trkpt>
      <trkpt lat="44.16179" lon="0.73674">
        <ele>175</ele>
        <time>2024-04-11T13:11:04.000Z</time>
      </trkpt>
      <trkpt lat="44.16179" lon="0.73673">
        <ele>175</ele>
        <time>2024-04-11T13:11:05.000Z</time>
      </trkpt>
      <trkpt lat="44.16179" lon="0.73671">
        <ele>174</ele>
        <time>2024-04-11T13:11:06.000Z</time>
      </trkpt>
      <trkpt lat="44.1618" lon="0.7367">
        <ele>174</ele>
        <time>2024-04-11T13:11:07.000Z</time>
      </trkpt>
      <trkpt lat="44.1618" lon="0.73669">
        <ele>174</ele>
        <time>2024-04-11T13:11:08.000Z</time>
      </trkpt>
      <trkpt lat="44.16181" lon="0.73667">
        <ele>174</ele>
        <time>2024-04-11T13:11:09.000Z</time>
      </trkpt>
      <trkpt lat="44.16181" lon="0.73666">
        <ele>174</ele>
        <time>2024-04-11T13:11:10.000Z</time>
      </trkpt>
      <trkpt lat="44.16182" lon="0.73665">
        <ele>174</ele>
        <time>2024-04-11T13:11:11.000Z</time>
      </trkpt>
      <trkpt lat="44.16183" lon="0.73664">
        <ele>174</ele>
        <time>2024-04-11T13:11:12.000Z</time>
      </trkpt>
      <trkpt lat="44.16183" lon="0.73663">
        <ele>174</ele>
        <time>2024-04-11T13:11:13.000Z</time>
      </trkpt>
      <trkpt lat="44.16184" lon="0.73662">
        <ele>174</ele>
        <time>2024-04-11T13:11:14.000Z</time>
      </trkpt>
      <trkpt lat="44.16185" lon="0.73662">
        <ele>173</ele>
        <time>2024-04-11T13:11:15.000Z</time>
      </trkpt>
      <trkpt lat="44.16185" lon="0.73661">
        <ele>173</ele>
        <time>2024-04-11T13:11:16.000Z</time>
      </trkpt>
      <trkpt lat="44.16186" lon="0.73661">
        <ele>173</ele>
        <time>2024-04-11T13:11:17.000Z</time>
      </trkpt>
      <trkpt lat="44.16187" lon="0.73661">
        <ele>173</ele>
        <time>2024-04-11T13:11:18.000Z</time>
      </trkpt>
      <trkpt lat="44.16188" lon="0.7366">
        <ele>173</ele>
        <time>2024-04-11T13:11:19.000Z</time>
      </trkpt>
      <trkpt lat="44.16189" lon="0.7366">
        <ele>173</ele>
        <time>2024-04-11T13:11:20.000Z</time>
      </trkpt>
      <trkpt lat="44.16189" lon="0.73661">
        <ele>173</ele>
        <time>2024-04-11T13:11:21.000Z</time>
      </trkpt>
      <trkpt lat="44.1619" lon="0.73661">
        <ele>172</ele>
        <time>2024-04-11T13:11:22.000Z</time>
      </trkpt>
      <trkpt lat="44.16191" lon="0.73661">
        <ele>172</ele>
        <time>2024-04-11T13:11:23.000Z</time>
      </trkpt>
      <trkpt lat="44.16192" lon="0.73662">
        <ele>172</ele>
        <time>2024-04-11T13:11:24.000Z</time>
      </trkpt>
      <trkpt lat="44.16192" lon="0.73662">
        <ele>172</ele>
        <time>2024-04-11T13:11:25.000Z</time>
      </trkpt>
      <trkpt lat="44.16193" lon="0.73663">
        <ele>172</ele>
        <time>2024-04-11T13:11:26.000Z</time>
      </trkpt>
      <trkpt lat="44.16194" lon="0.73664">
        <ele>172</ele>
        <time>2024-04-11T13:11:27.000Z</time>
      </trkpt>
      <trkpt lat="44.16195" lon="0.73665">
        <ele>172</ele>
        <time>2024-04-11T13:11:28.000Z</time>
      </trkpt>
      <trkpt lat="44.16195" lon="0.73665">
        <ele>171</ele>
        <time>2024-04-11T13:11:29.000Z</time>
      </trkpt>
      <trkpt lat="44.16196" lon="0.73666">
        <ele>171</ele>
        <time>2024-04-11T13:11:30.000Z</time>
      </trkpt>
      <trkpt lat="44.16197" lon="0.73668">
        <ele>171</ele>
        <time>2024-04-11T13:11:31.000Z</time>
      </trkpt>
      <trkpt lat="44.16198" lon="0.73669">
        <ele>171</ele>
        <time>2024-04-11T13:11:32.000Z</time>
      </trkpt>
      <trkpt lat="44.16199" lon="0.7367">
        <ele>171</ele>
        <time>2024-04-11T13:11:33.000Z</time>
      </trkpt>
      <trkpt lat="44.16199" lon="0.73671">
        <ele>172</ele>
        <time>2024-04-11T13:11:34.000Z</time>
      </trkpt>
      <trkpt lat="44.162" lon="0.73672">
        <ele>172</ele>
        <time>2024-04-11T13:11:35.000Z</time>
      </trkpt>
      <trkpt lat="44.16201" lon="0.73673">
        <ele>172</ele>
        <time>2024-04-11T13:11:36.000Z</time>
      </trkpt>
      <trkpt lat="44.16202" lon="0.73674">
        <ele>172</ele>
        <time>2024-04-11T13:11:37.000Z</time>
      </trkpt>
      <trkpt lat="44.16203" lon="0.73675">
        <ele>173</ele>
        <time>2024-04-11T13:11:38.000Z</time>
      </trkpt>
      <trkpt lat="44.16204" lon="0.73676">
        <ele>172</ele>
        <time>2024-04-11T13:11:39.000Z</time>
      </trkpt>
      <trkpt lat="44.16204" lon="0.73677">
        <ele>172</ele>
        <time>2024-04-11T13:11:40.000Z</time>
      </trkpt>
      <trkpt lat="44.16205" lon="0.73677">
        <ele>172</ele>
        <time>2024-04-11T13:11:41.000Z</time>
      </trkpt>
      <trkpt lat="44.16206" lon="0.73678">
        <ele>172</ele>
        <time>2024-04-11T13:11:42.000Z</time>
      </trkpt>
      <trkpt lat="44.16207" lon="0.73679">
        <ele>172</ele>
        <time>2024-04-11T13:11:43.000Z</time>
      </trkpt>
      <trkpt lat="44.16208" lon="0.7368">
        <ele>172</ele>
        <time>2024-04-11T13:11:44.000Z</time>
      </trkpt>
      <trkpt lat="44.16209" lon="0.73681">
        <ele>172</ele>
        <time>2024-04-11T13:11:45.000Z</time>
      </trkpt>
      <trkpt lat="44.1621" lon="0.73682">
        <ele>172</ele>
        <time>2024-04-11T13:11:46.000Z</time>
      </trkpt>
      <trkpt lat="44.16211" lon="0.73683">
        <ele>173</ele>
        <time>2024-04-11T13:11:47.000Z</time>
      </trkpt>
      <trkpt lat="44.16212" lon="0.73684">
        <ele>173</ele>
        <time>2024-04-11T13:11:48.000Z</time>
      </trkpt>
      <trkpt lat="44.16212" lon="0.73685">
        <ele>173</ele>
        <time>2024-04-11T13:11:49.000Z</time>
      </trkpt>
      <trkpt lat="44.16213" lon="0.73685">
        <ele>172</ele>
        <time>2024-04-11T13:11:50.000Z</time>
      </trkpt>
      <trkpt lat="44.16214" lon="0.73686">
        <ele>173</ele>
        <time>2024-04-11T13:11:51.000Z</time>
      </trkpt>
      <trkpt lat="44.16215" lon="0.73687">
        <ele>172</ele>
        <time>2024-04-11T13:11:52.000Z</time>
      </trkpt>
      <trkpt lat="44.16216" lon="0.73688">
        <ele>172</ele>
        <time>2024-04-11T13:11:53.000Z</time>
      </trkpt>
      <trkpt lat="44.16217" lon="0.73689">
        <ele>172</ele>
        <time>2024-04-11T13:11:54.000Z</time>
      </trkpt>
      <trkpt lat="44.16218" lon="0.73689">
        <ele>172</ele>
        <time>2024-04-11T13:11:55.000Z</time>
      </trkpt>
      <trkpt lat="44.16219" lon="0.7369">
        <ele>172</ele>
        <time>2024-04-11T13:11:56.000Z</time>
      </trkpt>
      <trkpt lat="44.1622" lon="0.73691">
        <ele>172</ele>
        <time>2024-04-11T13:11:57.000Z</time>
      </trkpt>
      <trkpt lat="44.16221" lon="0.73692">
        <ele>173</ele>
        <time>2024-04-11T13:11:58.000Z</time>
      </trkpt>
      <trkpt lat="44.16222" lon="0.73692">
        <ele>172</ele>
        <time>2024-04-11T13:11:59.000Z</time>
      </trkpt>
      <trkpt lat="44.16223" lon="0.73693">
        <ele>172</ele>
        <time>2024-04-11T13:12:00.000Z</time>
      </trkpt>
      <trkpt lat="44.16224" lon="0.73694">
        <ele>172</ele>
        <time>2024-04-11T13:12:01.000Z</time>
      </trkpt>
      <trkpt lat="44.16225" lon="0.73695">
        <ele>172</ele>
        <time>2024-04-11T13:12:02.000Z</time>
      </trkpt>
      <trkpt lat="44.16226" lon="0.73696">
        <ele>172</ele>
        <time>2024-04-11T13:12:03.000Z</time>
      </trkpt>
      <trkpt lat="44.16227" lon="0.73696">
        <ele>172</ele>
        <time>2024-04-11T13:12:04.000Z</time>
      </trkpt>
      <trkpt lat="44.16228" lon="0.73697">
        <ele>172</ele>
        <time>2024-04-11T13:12:05.000Z</time>
      </trkpt>
      <trkpt lat="44.16229" lon="0.73697">
        <ele>171</ele>
        <time>2024-04-11T13:12:06.000Z</time>
      </trkpt>
      <trkpt lat="44.1623" lon="0.73698">
        <ele>171</ele>
        <time>2024-04-11T13:12:07.000Z</time>
      </trkpt>
      <trkpt lat="44.16231" lon="0.73699">
        <ele>171</ele>
        <time>2024-04-11T13:12:08.000Z</time>
      </trkpt>
      <trkpt lat="44.16232" lon="0.73699">
        <ele>171</ele>
        <time>2024-04-11T13:12:09.000Z</time>
      </trkpt>
      <trkpt lat="44.16233" lon="0.737">
        <ele>171</ele>
        <time>2024-04-11T13:12:10.000Z</time>
      </trkpt>
      <trkpt lat="44.16234" lon="0.737">
        <ele>170</ele>
        <time>2024-04-11T13:12:11.000Z</time>
      </trkpt>
      <trkpt lat="44.16235" lon="0.73701">
        <ele>170</ele>
        <time>2024-04-11T13:12:12.000Z</time>
      </trkpt>
      <trkpt lat="44.16236" lon="0.73702">
        <ele>170</ele>
        <time>2024-04-11T13:12:13.000Z</time>
      </trkpt>
      <trkpt lat="44.16237" lon="0.73702">
        <ele>170</ele>
        <time>2024-04-11T13:12:14.000Z</time>
      </trkpt>
      <trkpt lat="44.16238" lon="0.73703">
        <ele>170</ele>
        <time>2024-04-11T13:12:15.000Z</time>
      </trkpt>
      <trkpt lat="44.16239" lon="0.73703">
        <ele>169</ele>
        <time>2024-04-11T13:12:16.000Z</time>
      </trkpt>
      <trkpt lat="44.1624" lon="0.73704">
        <ele>169</ele>
        <time>2024-04-11T13:12:17.000Z</time>
      </trkpt>
      <trkpt lat="44.16241" lon="0.73705">
        <ele>170</ele>
        <time>2024-04-11T13:12:18.000Z</time>
      </trkpt>
      <trkpt lat="44.16242" lon="0.73705">
        <ele>169</ele>
        <time>2024-04-11T13:12:19.000Z</time>
      </trkpt>
      <trkpt lat="44.16243" lon="0.73706">
        <ele>169</ele>
        <time>2024-04-11T13:12:20.000Z</time>
      </trkpt>
      <trkpt lat="44.16244" lon="0.73706">
        <ele>169</ele>
        <time>2024-04-11T13:12:21.000Z</time>
      </trkpt>
      <trkpt lat="44.16245" lon="0.73707">
        <ele>169</ele>
        <time>2024-04-11T13:12:22.000Z</time>
      </trkpt>
      <trkpt lat="44.16246" lon="0.73707">
        <ele>169</ele>
        <time>2024-04-11T13:12:23.000Z</time>
      </trkpt>
      <trkpt lat="44.16247" lon="0.73708">
        <ele>169</ele>
        <time>2024-04-11T13:12:24.000Z</time>
      </trkpt>
      <trkpt lat="44.16248" lon="0.73709">
        <ele>169</ele>
        <time>2024-04-11T13:12:25.000Z</time>
      </trkpt>
      <trkpt lat="44.16249" lon="0.73709">
        <ele>169</ele>
        <time>2024-04-11T13:12:26.000Z</time>
      </trkpt>
      <trkpt lat="44.1625" lon="0.7371">
        <ele>169</ele>
        <time>2024-04-11T13:12:27.000Z</time>
      </trkpt>
      <trkpt lat="44.16251" lon="0.7371">
        <ele>169</ele>
        <time>2024-04-11T13:12:28.000Z</time>
      </trkpt>
      <trkpt lat="44.16252" lon="0.73711">
        <ele>169</ele>
        <time>2024-04-11T13:12:29.000Z</time>
      </trkpt>
      <trkpt lat="44.16253" lon="0.73711">
        <ele>169</ele>
        <time>2024-04-11T13:12:30.000Z</time>
      </trkpt>
      <trkpt lat="44.16254" lon="0.73712">
        <ele>169</ele>
        <time>2024-04-11T13:12:31.000Z</time>
      </trkpt>
      <trkpt lat="44.16255" lon="0.73712">
        <ele>168</ele>
        <time>2024-04-11T13:12:32.000Z</time>
      </trkpt>
      <trkpt lat="44.16256" lon="0.73713">
        <ele>168</ele>
        <time>2024-04-11T13:12:33.000Z</time>
      </trkpt>
      <trkpt lat="44.16257" lon="0.73713">
        <ele>168</ele>
        <time>2024-04-11T13:12:34.000Z</time>
      </trkpt>
      <trkpt lat="44.16258" lon="0.73714">
        <ele>168</ele>
        <time>2024-04-11T13:12:35.000Z</time>
      </trkpt>
      <trkpt lat="44.16259" lon="0.73714">
        <ele>168</ele>
        <time>2024-04-11T13:12:36.000Z</time>
      </trkpt>
      <trkpt lat="44.1626" lon="0.73715">
        <ele>168</ele>
        <time>2024-04-11T13:12:37.000Z</time>
      </trkpt>
      <trkpt lat="44.16261" lon="0.73715">
        <ele>168</ele>
        <time>2024-04-11T13:12:38.000Z</time>
      </trkpt>
      <trkpt lat="44.16262" lon="0.73716">
        <ele>168</ele>
        <time>2024-04-11T13:12:39.000Z</time>
      </trkpt>
      <trkpt lat="44.16263" lon="0.73717">
        <ele>168</ele>
        <time>2024-04-11T13:12:40.000Z</time>
      </trkpt>
      <trkpt lat="44.16264" lon="0.73717">
        <ele>168</ele>
        <time>2024-04-11T13:12:41.000Z</time>
      </trkpt>
      <trkpt lat="44.16265" lon="0.73718">
        <ele>168</ele>
        <time>2024-04-11T13:12:42.000Z</time>
      </trkpt>
      <trkpt lat="44.16266" lon="0.73719">
        <ele>168</ele>
        <time>2024-04-11T13:12:43.000Z</time>
      </trkpt>
      <trkpt lat="44.16267" lon="0.73719">
        <ele>169</ele>
        <time>2024-04-11T13:12:44.000Z</time>
      </trkpt>
      <trkpt lat="44.16268" lon="0.7372">
        <ele>169</ele>
        <time>2024-04-11T13:12:45.000Z</time>
      </trkpt>
      <trkpt lat="44.16269" lon="0.73721">
        <ele>169</ele>
        <time>2024-04-11T13:12:46.000Z</time>
      </trkpt>
      <trkpt lat="44.1627" lon="0.73721">
        <ele>169</ele>
        <time>2024-04-11T13:12:47.000Z</time>
      </trkpt>
      <trkpt lat="44.16271" lon="0.73722">
        <ele>169</ele>
        <time>2024-04-11T13:12:48.000Z</time>
      </trkpt>
      <trkpt lat="44.16272" lon="0.73723">
        <ele>169</ele>
        <time>2024-04-11T13:12:49.000Z</time>
      </trkpt>
      <trkpt lat="44.16273" lon="0.73723">
        <ele>169</ele>
        <time>2024-04-11T13:12:50.000Z</time>
      </trkpt>
      <trkpt lat="44.16274" lon="0.73724">
        <ele>169</ele>
        <time>2024-04-11T13:12:51.000Z</time>
      </trkpt>
      <trkpt lat="44.16275" lon="0.73724">
        <ele>169</ele>
        <time>2024-04-11T13:12:52.000Z</time>
      </trkpt>
      <trkpt lat="44.16277" lon="0.73725">
        <ele>169</ele>
        <time>2024-04-11T13:12:53.000Z</time>
      </trkpt>
      <trkpt lat="44.16278" lon="0.73725">
        <ele>168</ele>
        <time>2024-04-11T13:12:54.000Z</time>
      </trkpt>
      <trkpt lat="44.16279" lon="0.73726">
        <ele>168</ele>
        <time>2024-04-11T13:12:55.000Z</time>
      </trkpt>
      <trkpt lat="44.1628" lon="0.73726">
        <ele>169</ele>
        <time>2024-04-11T13:12:56.000Z</time>
      </trkpt>
      <trkpt lat="44.16281" lon="0.73727">
        <ele>169</ele>
        <time>2024-04-11T13:12:57.000Z</time>
      </trkpt>
      <trkpt lat="44.16282" lon="0.73727">
        <ele>169</ele>
        <time>2024-04-11T13:12:58.000Z</time>
      </trkpt>
      <trkpt lat="44.16283" lon="0.73728">
        <ele>169</ele>
        <time>2024-04-11T13:12:59.000Z</time>
      </trkpt>
      <trkpt lat="44.16284" lon="0.73728">
        <ele>169</ele>
        <time>2024-04-11T13:13:00.000Z</time>
      </trkpt>
      <trkpt lat="44.16285" lon="0.73729">
        <ele>169</ele>
        <time>2024-04-11T13:13:01.000Z</time>
      </trkpt>
      <trkpt lat="44.16286" lon="0.73729">
        <ele>169</ele>
        <time>2024-04-11T13:13:02.000Z</time>
      </trkpt>
      <trkpt lat="44.16287" lon="0.73729">
        <ele>169</ele>
        <time>2024-04-11T13:13:03.000Z</time>
      </trkpt>
      <trkpt lat="44.16288" lon="0.7373">
        <ele>169</ele>
        <time>2024-04-11T13:13:04.000Z</time>
      </trkpt>
      <trkpt lat="44.16289" lon="0.7373">
        <ele>169</ele>
        <time>2024-04-11T13:13:05.000Z</time>
      </trkpt>
      <trkpt lat="44.1629" lon="0.7373">
        <ele>169</ele>
        <time>2024-04-11T13:13:06.000Z</time>
      </trkpt>
      <trkpt lat="44.16291" lon="0.7373">
        <ele>169</ele>
        <time>2024-04-11T13:13:07.000Z</time>
      </trkpt>
      <trkpt lat="44.16292" lon="0.7373">
        <ele>169</ele>
        <time>2024-04-11T13:13:08.000Z</time>
      </trkpt>
      <trkpt lat="44.16294" lon="0.7373">
        <ele>169</ele>
        <time>2024-04-11T13:13:09.000Z</time>
      </trkpt>
      <trkpt lat="44.16295" lon="0.7373">
        <ele>169</ele>
        <time>2024-04-11T13:13:10.000Z</time>
      </trkpt>
      <trkpt lat="44.16296" lon="0.7373">
        <ele>169</ele>
        <time>2024-04-11T13:13:11.000Z</time>
      </trkpt>
      <trkpt lat="44.16297" lon="0.7373">
        <ele>169</ele>
        <time>2024-04-11T13:13:12.000Z</time>
      </trkpt>
      <trkpt lat="44.16298" lon="0.7373">
        <ele>169</ele>
        <time>2024-04-11T13:13:13.000Z</time>
      </trkpt>
      <trkpt lat="44.16299" lon="0.7373">
        <ele>168</ele>
        <time>2024-04-11T13:13:14.000Z</time>
      </trkpt>
      <trkpt lat="44.163" lon="0.73729">
        <ele>168</ele>
        <time>2024-04-11T13:13:15.000Z</time>
      </trkpt>
      <trkpt lat="44.16301" lon="0.73729">
        <ele>167</ele>
        <time>2024-04-11T13:13:16.000Z</time>
      </trkpt>
      <trkpt lat="44.16301" lon="0.73729">
        <ele>167</ele>
        <time>2024-04-11T13:13:17.000Z</time>
      </trkpt>
      <trkpt lat="44.16302" lon="0.73728">
        <ele>167</ele>
        <time>2024-04-11T13:13:18.000Z</time>
      </trkpt>
      <trkpt lat="44.16302" lon="0.73728">
        <ele>166</ele>
        <time>2024-04-11T13:13:19.000Z</time>
      </trkpt>
      <trkpt lat="44.16303" lon="0.73728">
        <ele>166</ele>
        <time>2024-04-11T13:13:20.000Z</time>
      </trkpt>
      <trkpt lat="44.16304" lon="0.73727">
        <ele>166</ele>
        <time>2024-04-11T13:13:21.000Z</time>
      </trkpt>
      <trkpt lat="44.16305" lon="0.73727">
        <ele>165</ele>
        <time>2024-04-11T13:13:22.000Z</time>
      </trkpt>
      <trkpt lat="44.16306" lon="0.73727">
        <ele>165</ele>
        <time>2024-04-11T13:13:23.000Z</time>
      </trkpt>
      <trkpt lat="44.16307" lon="0.73727">
        <ele>165</ele>
        <time>2024-04-11T13:13:24.000Z</time>
      </trkpt>
      <trkpt lat="44.16307" lon="0.73727">
        <ele>166</ele>
        <time>2024-04-11T13:13:25.000Z</time>
      </trkpt>
      <trkpt lat="44.16308" lon="0.73727">
        <ele>164</ele>
        <time>2024-04-11T13:13:26.000Z</time>
      </trkpt>
      <trkpt lat="44.16309" lon="0.73727">
        <ele>164</ele>
        <time>2024-04-11T13:13:27.000Z</time>
      </trkpt>
      <trkpt lat="44.1631" lon="0.73726">
        <ele>164</ele>
        <time>2024-04-11T13:13:28.000Z</time>
      </trkpt>
      <trkpt lat="44.16311" lon="0.73726">
        <ele>164</ele>
        <time>2024-04-11T13:13:29.000Z</time>
      </trkpt>
      <trkpt lat="44.16312" lon="0.73726">
        <ele>164</ele>
        <time>2024-04-11T13:13:30.000Z</time>
      </trkpt>
      <trkpt lat="44.16313" lon="0.73726">
        <ele>164</ele>
        <time>2024-04-11T13:13:31.000Z</time>
      </trkpt>
      <trkpt lat="44.16314" lon="0.73726">
        <ele>164</ele>
        <time>2024-04-11T13:13:32.000Z</time>
      </trkpt>
      <trkpt lat="44.16315" lon="0.73726">
        <ele>164</ele>
        <time>2024-04-11T13:13:33.000Z</time>
      </trkpt>
      <trkpt lat="44.16315" lon="0.73726">
        <ele>164</ele>
        <time>2024-04-11T13:13:34.000Z</time>
      </trkpt>
      <trkpt lat="44.16316" lon="0.73726">
        <ele>164</ele>
        <time>2024-04-11T13:13:35.000Z</time>
      </trkpt>
      <trkpt lat="44.16317" lon="0.73725">
        <ele>164</ele>
        <time>2024-04-11T13:13:36.000Z</time>
      </trkpt>
      <trkpt lat="44.16318" lon="0.73725">
        <ele>164</ele>
        <time>2024-04-11T13:13:37.000Z</time>
      </trkpt>
      <trkpt lat="44.16319" lon="0.73725">
        <ele>164</ele>
        <time>2024-04-11T13:13:38.000Z</time>
      </trkpt>
      <trkpt lat="44.1632" lon="0.73725">
        <ele>165</ele>
        <time>2024-04-11T13:13:39.000Z</time>
      </trkpt>
      <trkpt lat="44.16321" lon="0.73725">
        <ele>165</ele>
        <time>2024-04-11T13:13:40.000Z</time>
      </trkpt>
      <trkpt lat="44.16322" lon="0.73725">
        <ele>164</ele>
        <time>2024-04-11T13:13:41.000Z</time>
      </trkpt>
      <trkpt lat="44.16323" lon="0.73725">
        <ele>165</ele>
        <time>2024-04-11T13:13:42.000Z</time>
      </trkpt>
      <trkpt lat="44.16324" lon="0.73725">
        <ele>164</ele>
        <time>2024-04-11T13:13:43.000Z</time>
      </trkpt>
      <trkpt lat="44.16325" lon="0.73725">
        <ele>165</ele>
        <time>2024-04-11T13:13:44.000Z</time>
      </trkpt>
      <trkpt lat="44.16326" lon="0.73725">
        <ele>165</ele>
        <time>2024-04-11T13:13:45.000Z</time>
      </trkpt>
      <trkpt lat="44.16326" lon="0.73725">
        <ele>164</ele>
        <time>2024-04-11T13:13:46.000Z</time>
      </trkpt>
      <trkpt lat="44.16327" lon="0.73726">
        <ele>164</ele>
        <time>2024-04-11T13:13:47.000Z</time>
      </trkpt>
      <trkpt lat="44.16328" lon="0.73726">
        <ele>164</ele>
        <time>2024-04-11T13:13:48.000Z</time>
      </trkpt>
      <trkpt lat="44.16329" lon="0.73727">
        <ele>164</ele>
        <time>2024-04-11T13:13:49.000Z</time>
      </trkpt>
      <trkpt lat="44.16329" lon="0.73728">
        <ele>164</ele>
        <time>2024-04-11T13:13:50.000Z</time>
      </trkpt>
      <trkpt lat="44.1633" lon="0.73728">
        <ele>164</ele>
        <time>2024-04-11T13:13:51.000Z</time>
      </trkpt>
      <trkpt lat="44.1633" lon="0.73729">
        <ele>164</ele>
        <time>2024-04-11T13:13:52.000Z</time>
      </trkpt>
      <trkpt lat="44.16331" lon="0.7373">
        <ele>163</ele>
        <time>2024-04-11T13:13:53.000Z</time>
      </trkpt>
      <trkpt lat="44.16331" lon="0.73731">
        <ele>163</ele>
        <time>2024-04-11T13:13:54.000Z</time>
      </trkpt>
      <trkpt lat="44.16332" lon="0.73732">
        <ele>163</ele>
        <time>2024-04-11T13:13:55.000Z</time>
      </trkpt>
      <trkpt lat="44.16332" lon="0.73733">
        <ele>163</ele>
        <time>2024-04-11T13:13:56.000Z</time>
      </trkpt>
      <trkpt lat="44.16333" lon="0.73734">
        <ele>163</ele>
        <time>2024-04-11T13:13:57.000Z</time>
      </trkpt>
      <trkpt lat="44.16334" lon="0.73735">
        <ele>163</ele>
        <time>2024-04-11T13:13:58.000Z</time>
      </trkpt>
      <trkpt lat="44.16334" lon="0.73736">
        <ele>163</ele>
        <time>2024-04-11T13:13:59.000Z</time>
      </trkpt>
      <trkpt lat="44.16335" lon="0.73737">
        <ele>163</ele>
        <time>2024-04-11T13:14:00.000Z</time>
      </trkpt>
      <trkpt lat="44.16335" lon="0.73738">
        <ele>163</ele>
        <time>2024-04-11T13:14:01.000Z</time>
      </trkpt>
      <trkpt lat="44.16336" lon="0.73739">
        <ele>163</ele>
        <time>2024-04-11T13:14:02.000Z</time>
      </trkpt>
      <trkpt lat="44.16336" lon="0.7374">
        <ele>163</ele>
        <time>2024-04-11T13:14:03.000Z</time>
      </trkpt>
      <trkpt lat="44.16337" lon="0.73741">
        <ele>162</ele>
        <time>2024-04-11T13:14:04.000Z</time>
      </trkpt>
      <trkpt lat="44.16338" lon="0.73742">
        <ele>162</ele>
        <time>2024-04-11T13:14:05.000Z</time>
      </trkpt>
      <trkpt lat="44.16338" lon="0.73743">
        <ele>162</ele>
        <time>2024-04-11T13:14:06.000Z</time>
      </trkpt>
      <trkpt lat="44.16339" lon="0.73743">
        <ele>162</ele>
        <time>2024-04-11T13:14:07.000Z</time>
      </trkpt>
      <trkpt lat="44.16339" lon="0.73744">
        <ele>162</ele>
        <time>2024-04-11T13:14:08.000Z</time>
      </trkpt>
      <trkpt lat="44.1634" lon="0.73745">
        <ele>162</ele>
        <time>2024-04-11T13:14:09.000Z</time>
      </trkpt>
      <trkpt lat="44.16341" lon="0.73746">
        <ele>162</ele>
        <time>2024-04-11T13:14:10.000Z</time>
      </trkpt>
      <trkpt lat="44.16341" lon="0.73747">
        <ele>162</ele>
        <time>2024-04-11T13:14:11.000Z</time>
      </trkpt>
      <trkpt lat="44.16342" lon="0.73747">
        <ele>162</ele>
        <time>2024-04-11T13:14:12.000Z</time>
      </trkpt>
      <trkpt lat="44.16342" lon="0.73748">
        <ele>162</ele>
        <time>2024-04-11T13:14:13.000Z</time>
      </trkpt>
      <trkpt lat="44.16343" lon="0.73749">
        <ele>162</ele>
        <time>2024-04-11T13:14:14.000Z</time>
      </trkpt>
      <trkpt lat="44.16343" lon="0.7375">
        <ele>162</ele>
        <time>2024-04-11T13:14:15.000Z</time>
      </trkpt>
      <trkpt lat="44.16344" lon="0.73751">
        <ele>161</ele>
        <time>2024-04-11T13:14:16.000Z</time>
      </trkpt>
      <trkpt lat="44.16345" lon="0.73752">
        <ele>161</ele>
        <time>2024-04-11T13:14:17.000Z</time>
      </trkpt>
      <trkpt lat="44.16345" lon="0.73753">
        <ele>161</ele>
        <time>2024-04-11T13:14:18.000Z</time>
      </trkpt>
      <trkpt lat="44.16346" lon="0.73754">
        <ele>161</ele>
        <time>2024-04-11T13:14:19.000Z</time>
      </trkpt>
      <trkpt lat="44.16346" lon="0.73755">
        <ele>161</ele>
        <time>2024-04-11T13:14:20.000Z</time>
      </trkpt>
      <trkpt lat="44.16347" lon="0.73756">
        <ele>160</ele>
        <time>2024-04-11T13:14:21.000Z</time>
      </trkpt>
      <trkpt lat="44.16347" lon="0.73756">
        <ele>160</ele>
        <time>2024-04-11T13:14:22.000Z</time>
      </trkpt>
      <trkpt lat="44.16348" lon="0.73757">
        <ele>160</ele>
        <time>2024-04-11T13:14:23.000Z</time>
      </trkpt>
      <trkpt lat="44.16349" lon="0.73758">
        <ele>160</ele>
        <time>2024-04-11T13:14:24.000Z</time>
      </trkpt>
      <trkpt lat="44.16349" lon="0.73759">
        <ele>160</ele>
        <time>2024-04-11T13:14:25.000Z</time>
      </trkpt>
      <trkpt lat="44.1635" lon="0.7376">
        <ele>160</ele>
        <time>2024-04-11T13:14:26.000Z</time>
      </trkpt>
      <trkpt lat="44.1635" lon="0.73761">
        <ele>159</ele>
        <time>2024-04-11T13:14:27.000Z</time>
      </trkpt>
      <trkpt lat="44.16351" lon="0.73762">
        <ele>159</ele>
        <time>2024-04-11T13:14:28.000Z</time>
      </trkpt>
      <trkpt lat="44.16352" lon="0.73763">
        <ele>159</ele>
        <time>2024-04-11T13:14:29.000Z</time>
      </trkpt>
      <trkpt lat="44.16352" lon="0.73764">
        <ele>159</ele>
        <time>2024-04-11T13:14:30.000Z</time>
      </trkpt>
      <trkpt lat="44.16353" lon="0.73765">
        <ele>159</ele>
        <time>2024-04-11T13:14:31.000Z</time>
      </trkpt>
      <trkpt lat="44.16354" lon="0.73766">
        <ele>159</ele>
        <time>2024-04-11T13:14:32.000Z</time>
      </trkpt>
      <trkpt lat="44.16354" lon="0.73767">
        <ele>158</ele>
        <time>2024-04-11T13:14:33.000Z</time>
      </trkpt>
      <trkpt lat="44.16355" lon="0.73768">
        <ele>158</ele>
        <time>2024-04-11T13:14:34.000Z</time>
      </trkpt>
      <trkpt lat="44.16355" lon="0.73769">
        <ele>158</ele>
        <time>2024-04-11T13:14:35.000Z</time>
      </trkpt>
      <trkpt lat="44.16356" lon="0.73769">
        <ele>158</ele>
        <time>2024-04-11T13:14:36.000Z</time>
      </trkpt>
      <trkpt lat="44.16356" lon="0.7377">
        <ele>157</ele>
        <time>2024-04-11T13:14:37.000Z</time>
      </trkpt>
      <trkpt lat="44.16357" lon="0.73771">
        <ele>157</ele>
        <time>2024-04-11T13:14:38.000Z</time>
      </trkpt>
      <trkpt lat="44.16358" lon="0.73772">
        <ele>156</ele>
        <time>2024-04-11T13:14:39.000Z</time>
      </trkpt>
      <trkpt lat="44.16358" lon="0.73772">
        <ele>156</ele>
        <time>2024-04-11T13:14:40.000Z</time>
      </trkpt>
      <trkpt lat="44.16359" lon="0.73773">
        <ele>156</ele>
        <time>2024-04-11T13:14:41.000Z</time>
      </trkpt>
      <trkpt lat="44.1636" lon="0.73774">
        <ele>156</ele>
        <time>2024-04-11T13:14:42.000Z</time>
      </trkpt>
      <trkpt lat="44.1636" lon="0.73775">
        <ele>156</ele>
        <time>2024-04-11T13:14:43.000Z</time>
      </trkpt>
      <trkpt lat="44.16361" lon="0.73776">
        <ele>155</ele>
        <time>2024-04-11T13:14:44.000Z</time>
      </trkpt>
      <trkpt lat="44.16362" lon="0.73776">
        <ele>155</ele>
        <time>2024-04-11T13:14:45.000Z</time>
      </trkpt>
      <trkpt lat="44.16362" lon="0.73777">
        <ele>155</ele>
        <time>2024-04-11T13:14:46.000Z</time>
      </trkpt>
      <trkpt lat="44.16363" lon="0.73778">
        <ele>155</ele>
        <time>2024-04-11T13:14:47.000Z</time>
      </trkpt>
      <trkpt lat="44.16364" lon="0.73779">
        <ele>155</ele>
        <time>2024-04-11T13:14:48.000Z</time>
      </trkpt>
      <trkpt lat="44.16364" lon="0.73779">
        <ele>154</ele>
        <time>2024-04-11T13:14:49.000Z</time>
      </trkpt>
      <trkpt lat="44.16365" lon="0.7378">
        <ele>154</ele>
        <time>2024-04-11T13:14:50.000Z</time>
      </trkpt>
      <trkpt lat="44.16366" lon="0.73781">
        <ele>154</ele>
        <time>2024-04-11T13:14:51.000Z</time>
      </trkpt>
      <trkpt lat="44.16366" lon="0.73781">
        <ele>153</ele>
        <time>2024-04-11T13:14:52.000Z</time>
      </trkpt>
      <trkpt lat="44.16367" lon="0.73782">
        <ele>153</ele>
        <time>2024-04-11T13:14:53.000Z</time>
      </trkpt>
      <trkpt lat="44.16368" lon="0.73783">
        <ele>152</ele>
        <time>2024-04-11T13:14:54.000Z</time>
      </trkpt>
      <trkpt lat="44.16369" lon="0.73783">
        <ele>152</ele>
        <time>2024-04-11T13:14:55.000Z</time>
      </trkpt>
      <trkpt lat="44.16369" lon="0.73784">
        <ele>152</ele>
        <time>2024-04-11T13:14:56.000Z</time>
      </trkpt>
      <trkpt lat="44.1637" lon="0.73784">
        <ele>152</ele>
        <time>2024-04-11T13:14:57.000Z</time>
      </trkpt>
      <trkpt lat="44.16371" lon="0.73785">
        <ele>152</ele>
        <time>2024-04-11T13:14:58.000Z</time>
      </trkpt>
      <trkpt lat="44.16371" lon="0.73785">
        <ele>152</ele>
        <time>2024-04-11T13:14:59.000Z</time>
      </trkpt>
      <trkpt lat="44.16372" lon="0.73786">
        <ele>153</ele>
        <time>2024-04-11T13:15:00.000Z</time>
      </trkpt>
      <trkpt lat="44.16372" lon="0.73787">
        <ele>153</ele>
        <time>2024-04-11T13:15:01.000Z</time>
      </trkpt>
      <trkpt lat="44.16373" lon="0.73788">
        <ele>153</ele>
        <time>2024-04-11T13:15:02.000Z</time>
      </trkpt>
      <trkpt lat="44.16374" lon="0.73788">
        <ele>152</ele>
        <time>2024-04-11T13:15:03.000Z</time>
      </trkpt>
      <trkpt lat="44.16374" lon="0.73789">
        <ele>152</ele>
        <time>2024-04-11T13:15:04.000Z</time>
      </trkpt>
      <trkpt lat="44.16375" lon="0.7379">
        <ele>152</ele>
        <time>2024-04-11T13:15:05.000Z</time>
      </trkpt>
      <trkpt lat="44.16376" lon="0.7379">
        <ele>151</ele>
        <time>2024-04-11T13:15:06.000Z</time>
      </trkpt>
      <trkpt lat="44.16377" lon="0.73791">
        <ele>151</ele>
        <time>2024-04-11T13:15:07.000Z</time>
      </trkpt>
      <trkpt lat="44.16377" lon="0.73791">
        <ele>151</ele>
        <time>2024-04-11T13:15:08.000Z</time>
      </trkpt>
      <trkpt lat="44.16378" lon="0.73792">
        <ele>151</ele>
        <time>2024-04-11T13:15:09.000Z</time>
      </trkpt>
      <trkpt lat="44.16378" lon="0.73792">
        <ele>151</ele>
        <time>2024-04-11T13:15:10.000Z</time>
      </trkpt>
      <trkpt lat="44.16378" lon="0.73793">
        <ele>151</ele>
        <time>2024-04-11T13:15:11.000Z</time>
      </trkpt>
      <trkpt lat="44.16378" lon="0.73793">
        <ele>151</ele>
        <time>2024-04-11T13:15:12.000Z</time>
      </trkpt>
      <trkpt lat="44.16379" lon="0.73793">
        <ele>151</ele>
        <time>2024-04-11T13:15:13.000Z</time>
      </trkpt>
      <trkpt lat="44.16379" lon="0.73793">
        <ele>151</ele>
        <time>2024-04-11T13:15:14.000Z</time>
      </trkpt>
      <trkpt lat="44.16379" lon="0.73794">
        <ele>151</ele>
        <time>2024-04-11T13:15:15.000Z</time>
      </trkpt>
      <trkpt lat="44.16379" lon="0.73794">
        <ele>151</ele>
        <time>2024-04-11T13:15:16.000Z</time>
      </trkpt>
      <trkpt lat="44.1638" lon="0.73794">
        <ele>151</ele>
        <time>2024-04-11T13:15:17.000Z</time>
      </trkpt>
      <trkpt lat="44.1638" lon="0.73795">
        <ele>151</ele>
        <time>2024-04-11T13:15:18.000Z</time>
      </trkpt>
      <trkpt lat="44.1638" lon="0.73795">
        <ele>151</ele>
        <time>2024-04-11T13:15:19.000Z</time>
      </trkpt>
      <trkpt lat="44.16381" lon="0.73795">
        <ele>151</ele>
        <time>2024-04-11T13:15:20.000Z</time>
      </trkpt>
      <trkpt lat="44.16381" lon="0.73796">
        <ele>151</ele>
        <time>2024-04-11T13:15:21.000Z</time>
      </trkpt>
      <trkpt lat="44.16381" lon="0.73797">
        <ele>151</ele>
        <time>2024-04-11T13:15:22.000Z</time>
      </trkpt>
      <trkpt lat="44.16382" lon="0.73797">
        <ele>150</ele>
        <time>2024-04-11T13:15:23.000Z</time>
      </trkpt>
      <trkpt lat="44.16382" lon="0.73798">
        <ele>150</ele>
        <time>2024-04-11T13:15:24.000Z</time>
      </trkpt>
      <trkpt lat="44.16382" lon="0.73799">
        <ele>150</ele>
        <time>2024-04-11T13:15:25.000Z</time>
      </trkpt>
      <trkpt lat="44.16383" lon="0.738">
        <ele>150</ele>
        <time>2024-04-11T13:15:26.000Z</time>
      </trkpt>
      <trkpt lat="44.16384" lon="0.73801">
        <ele>149</ele>
        <time>2024-04-11T13:15:27.000Z</time>
      </trkpt>
      <trkpt lat="44.16384" lon="0.73802">
        <ele>149</ele>
        <time>2024-04-11T13:15:28.000Z</time>
      </trkpt>
      <trkpt lat="44.16385" lon="0.73803">
        <ele>149</ele>
        <time>2024-04-11T13:15:29.000Z</time>
      </trkpt>
      <trkpt lat="44.16385" lon="0.73804">
        <ele>148</ele>
        <time>2024-04-11T13:15:30.000Z</time>
      </trkpt>
      <trkpt lat="44.16386" lon="0.73805">
        <ele>148</ele>
        <time>2024-04-11T13:15:31.000Z</time>
      </trkpt>
      <trkpt lat="44.16386" lon="0.73806">
        <ele>148</ele>
        <time>2024-04-11T13:15:32.000Z</time>
      </trkpt>
      <trkpt lat="44.16387" lon="0.73807">
        <ele>148</ele>
        <time>2024-04-11T13:15:33.000Z</time>
      </trkpt>
      <trkpt lat="44.16388" lon="0.73807">
        <ele>148</ele>
        <time>2024-04-11T13:15:34.000Z</time>
      </trkpt>
      <trkpt lat="44.16388" lon="0.73808">
        <ele>148</ele>
        <time>2024-04-11T13:15:35.000Z</time>
      </trkpt>
      <trkpt lat="44.16389" lon="0.73809">
        <ele>148</ele>
        <time>2024-04-11T13:15:36.000Z</time>
      </trkpt>
      <trkpt lat="44.1639" lon="0.73809">
        <ele>148</ele>
        <time>2024-04-11T13:15:37.000Z</time>
      </trkpt>
      <trkpt lat="44.1639" lon="0.73809">
        <ele>148</ele>
        <time>2024-04-11T13:15:38.000Z</time>
      </trkpt>
      <trkpt lat="44.16391" lon="0.7381">
        <ele>148</ele>
        <time>2024-04-11T13:15:39.000Z</time>
      </trkpt>
      <trkpt lat="44.16392" lon="0.7381">
        <ele>149</ele>
        <time>2024-04-11T13:15:40.000Z</time>
      </trkpt>
      <trkpt lat="44.16392" lon="0.7381">
        <ele>149</ele>
        <time>2024-04-11T13:15:41.000Z</time>
      </trkpt>
      <trkpt lat="44.16393" lon="0.73811">
        <ele>149</ele>
        <time>2024-04-11T13:15:42.000Z</time>
      </trkpt>
      <trkpt lat="44.16394" lon="0.73811">
        <ele>149</ele>
        <time>2024-04-11T13:15:43.000Z</time>
      </trkpt>
      <trkpt lat="44.16394" lon="0.73811">
        <ele>149</ele>
        <time>2024-04-11T13:15:44.000Z</time>
      </trkpt>
      <trkpt lat="44.16395" lon="0.73812">
        <ele>150</ele>
        <time>2024-04-11T13:15:45.000Z</time>
      </trkpt>
      <trkpt lat="44.16396" lon="0.73812">
        <ele>150</ele>
        <time>2024-04-11T13:15:46.000Z</time>
      </trkpt>
      <trkpt lat="44.16396" lon="0.73812">
        <ele>150</ele>
        <time>2024-04-11T13:15:47.000Z</time>
      </trkpt>
      <trkpt lat="44.16397" lon="0.73812">
        <ele>150</ele>
        <time>2024-04-11T13:15:48.000Z</time>
      </trkpt>
      <trkpt lat="44.16398" lon="0.73813">
        <ele>151</ele>
        <time>2024-04-11T13:15:49.000Z</time>
      </trkpt>
      <trkpt lat="44.16399" lon="0.73813">
        <ele>150</ele>
        <time>2024-04-11T13:15:50.000Z</time>
      </trkpt>
      <trkpt lat="44.16399" lon="0.73814">
        <ele>150</ele>
        <time>2024-04-11T13:15:51.000Z</time>
      </trkpt>
      <trkpt lat="44.164" lon="0.73814">
        <ele>151</ele>
        <time>2024-04-11T13:15:52.000Z</time>
      </trkpt>
      <trkpt lat="44.16401" lon="0.73814">
        <ele>151</ele>
        <time>2024-04-11T13:15:53.000Z</time>
      </trkpt>
      <trkpt lat="44.16402" lon="0.73815">
        <ele>152</ele>
        <time>2024-04-11T13:15:54.000Z</time>
      </trkpt>
      <trkpt lat="44.16402" lon="0.73815">
        <ele>153</ele>
        <time>2024-04-11T13:15:55.000Z</time>
      </trkpt>
      <trkpt lat="44.16403" lon="0.73816">
        <ele>153</ele>
        <time>2024-04-11T13:15:56.000Z</time>
      </trkpt>
      <trkpt lat="44.16404" lon="0.73816">
        <ele>153</ele>
        <time>2024-04-11T13:15:57.000Z</time>
      </trkpt>
      <trkpt lat="44.16405" lon="0.73816">
        <ele>153</ele>
        <time>2024-04-11T13:15:58.000Z</time>
      </trkpt>
      <trkpt lat="44.16406" lon="0.73817">
        <ele>153</ele>
        <time>2024-04-11T13:15:59.000Z</time>
      </trkpt>
      <trkpt lat="44.16406" lon="0.73817">
        <ele>154</ele>
        <time>2024-04-11T13:16:00.000Z</time>
      </trkpt>
      <trkpt lat="44.16407" lon="0.73817">
        <ele>154</ele>
        <time>2024-04-11T13:16:01.000Z</time>
      </trkpt>
      <trkpt lat="44.16408" lon="0.73817">
        <ele>154</ele>
        <time>2024-04-11T13:16:02.000Z</time>
      </trkpt>
      <trkpt lat="44.16409" lon="0.73818">
        <ele>154</ele>
        <time>2024-04-11T13:16:03.000Z</time>
      </trkpt>
      <trkpt lat="44.1641" lon="0.73818">
        <ele>154</ele>
        <time>2024-04-11T13:16:04.000Z</time>
      </trkpt>
      <trkpt lat="44.16411" lon="0.73818">
        <ele>154</ele>
        <time>2024-04-11T13:16:05.000Z</time>
      </trkpt>
      <trkpt lat="44.16412" lon="0.73818">
        <ele>154</ele>
        <time>2024-04-11T13:16:06.000Z</time>
      </trkpt>
      <trkpt lat="44.16413" lon="0.73818">
        <ele>154</ele>
        <time>2024-04-11T13:16:07.000Z</time>
      </trkpt>
      <trkpt lat="44.16414" lon="0.73819">
        <ele>154</ele>
        <time>2024-04-11T13:16:08.000Z</time>
      </trkpt>
      <trkpt lat="44.16414" lon="0.73819">
        <ele>154</ele>
        <time>2024-04-11T13:16:09.000Z</time>
      </trkpt>
      <trkpt lat="44.16415" lon="0.73819">
        <ele>154</ele>
        <time>2024-04-11T13:16:10.000Z</time>
      </trkpt>
      <trkpt lat="44.16416" lon="0.73819">
        <ele>153</ele>
        <time>2024-04-11T13:16:11.000Z</time>
      </trkpt>
      <trkpt lat="44.16417" lon="0.73819">
        <ele>152</ele>
        <time>2024-04-11T13:16:12.000Z</time>
      </trkpt>
      <trkpt lat="44.16418" lon="0.73819">
        <ele>152</ele>
        <time>2024-04-11T13:16:13.000Z</time>
      </trkpt>
      <trkpt lat="44.16419" lon="0.73819">
        <ele>152</ele>
        <time>2024-04-11T13:16:14.000Z</time>
      </trkpt>
      <trkpt lat="44.1642" lon="0.7382">
        <ele>152</ele>
        <time>2024-04-11T13:16:15.000Z</time>
      </trkpt>
      <trkpt lat="44.16421" lon="0.7382">
        <ele>151</ele>
        <time>2024-04-11T13:16:16.000Z</time>
      </trkpt>
      <trkpt lat="44.16422" lon="0.7382">
        <ele>151</ele>
        <time>2024-04-11T13:16:17.000Z</time>
      </trkpt>
      <trkpt lat="44.16423" lon="0.7382">
        <ele>150</ele>
        <time>2024-04-11T13:16:18.000Z</time>
      </trkpt>
      <trkpt lat="44.16424" lon="0.7382">
        <ele>150</ele>
        <time>2024-04-11T13:16:19.000Z</time>
      </trkpt>
      <trkpt lat="44.16425" lon="0.7382">
        <ele>150</ele>
        <time>2024-04-11T13:16:20.000Z</time>
      </trkpt>
      <trkpt lat="44.16426" lon="0.7382">
        <ele>151</ele>
        <time>2024-04-11T13:16:21.000Z</time>
      </trkpt>
      <trkpt lat="44.16427" lon="0.7382">
        <ele>152</ele>
        <time>2024-04-11T13:16:22.000Z</time>
      </trkpt>
      <trkpt lat="44.16427" lon="0.73821">
        <ele>153</ele>
        <time>2024-04-11T13:16:23.000Z</time>
      </trkpt>
      <trkpt lat="44.16428" lon="0.73821">
        <ele>153</ele>
        <time>2024-04-11T13:16:24.000Z</time>
      </trkpt>
      <trkpt lat="44.16429" lon="0.73822">
        <ele>153</ele>
        <time>2024-04-11T13:16:25.000Z</time>
      </trkpt>
      <trkpt lat="44.1643" lon="0.73822">
        <ele>154</ele>
        <time>2024-04-11T13:16:26.000Z</time>
      </trkpt>
      <trkpt lat="44.16431" lon="0.73822">
        <ele>154</ele>
        <time>2024-04-11T13:16:27.000Z</time>
      </trkpt>
      <trkpt lat="44.16432" lon="0.73823">
        <ele>155</ele>
        <time>2024-04-11T13:16:28.000Z</time>
      </trkpt>
      <trkpt lat="44.16432" lon="0.73823">
        <ele>154</ele>
        <time>2024-04-11T13:16:29.000Z</time>
      </trkpt>
      <trkpt lat="44.16433" lon="0.73823">
        <ele>153</ele>
        <time>2024-04-11T13:16:30.000Z</time>
      </trkpt>
      <trkpt lat="44.16434" lon="0.73823">
        <ele>152</ele>
        <time>2024-04-11T13:16:31.000Z</time>
      </trkpt>
      <trkpt lat="44.16435" lon="0.73823">
        <ele>151</ele>
        <time>2024-04-11T13:16:32.000Z</time>
      </trkpt>
      <trkpt lat="44.16436" lon="0.73823">
        <ele>151</ele>
        <time>2024-04-11T13:16:33.000Z</time>
      </trkpt>
      <trkpt lat="44.16437" lon="0.73823">
        <ele>151</ele>
        <time>2024-04-11T13:16:34.000Z</time>
      </trkpt>
      <trkpt lat="44.16438" lon="0.73823">
        <ele>150</ele>
        <time>2024-04-11T13:16:35.000Z</time>
      </trkpt>
      <trkpt lat="44.16439" lon="0.73823">
        <ele>150</ele>
        <time>2024-04-11T13:16:36.000Z</time>
      </trkpt>
      <trkpt lat="44.1644" lon="0.73823">
        <ele>149</ele>
        <time>2024-04-11T13:16:37.000Z</time>
      </trkpt>
      <trkpt lat="44.16441" lon="0.73823">
        <ele>149</ele>
        <time>2024-04-11T13:16:38.000Z</time>
      </trkpt>
      <trkpt lat="44.16442" lon="0.73824">
        <ele>149</ele>
        <time>2024-04-11T13:16:39.000Z</time>
      </trkpt>
      <trkpt lat="44.16443" lon="0.73824">
        <ele>149</ele>
        <time>2024-04-11T13:16:40.000Z</time>
      </trkpt>
      <trkpt lat="44.16443" lon="0.73824">
        <ele>149</ele>
        <time>2024-04-11T13:16:41.000Z</time>
      </trkpt>
      <trkpt lat="44.16444" lon="0.73824">
        <ele>149</ele>
        <time>2024-04-11T13:16:42.000Z</time>
      </trkpt>
      <trkpt lat="44.16445" lon="0.73825">
        <ele>149</ele>
        <time>2024-04-11T13:16:43.000Z</time>
      </trkpt>
      <trkpt lat="44.16445" lon="0.73825">
        <ele>148</ele>
        <time>2024-04-11T13:16:44.000Z</time>
      </trkpt>
      <trkpt lat="44.16446" lon="0.73825">
        <ele>148</ele>
        <time>2024-04-11T13:16:45.000Z</time>
      </trkpt>
      <trkpt lat="44.16446" lon="0.73825">
        <ele>147</ele>
        <time>2024-04-11T13:16:46.000Z</time>
      </trkpt>
      <trkpt lat="44.16447" lon="0.73826">
        <ele>146</ele>
        <time>2024-04-11T13:16:47.000Z</time>
      </trkpt>
      <trkpt lat="44.16448" lon="0.73826">
        <ele>146</ele>
        <time>2024-04-11T13:16:48.000Z</time>
      </trkpt>
      <trkpt lat="44.16448" lon="0.73825">
        <ele>146</ele>
        <time>2024-04-11T13:16:49.000Z</time>
      </trkpt>
      <trkpt lat="44.16449" lon="0.73825">
        <ele>146</ele>
        <time>2024-04-11T13:16:50.000Z</time>
      </trkpt>
      <trkpt lat="44.1645" lon="0.73825">
        <ele>146</ele>
        <time>2024-04-11T13:16:51.000Z</time>
      </trkpt>
      <trkpt lat="44.16451" lon="0.73825">
        <ele>145</ele>
        <time>2024-04-11T13:16:52.000Z</time>
      </trkpt>
      <trkpt lat="44.16451" lon="0.73825">
        <ele>145</ele>
        <time>2024-04-11T13:16:53.000Z</time>
      </trkpt>
      <trkpt lat="44.16452" lon="0.73825">
        <ele>145</ele>
        <time>2024-04-11T13:16:54.000Z</time>
      </trkpt>
      <trkpt lat="44.16453" lon="0.73825">
        <ele>144</ele>
        <time>2024-04-11T13:16:55.000Z</time>
      </trkpt>
      <trkpt lat="44.16454" lon="0.73824">
        <ele>145</ele>
        <time>2024-04-11T13:16:56.000Z</time>
      </trkpt>
      <trkpt lat="44.16454" lon="0.73824">
        <ele>145</ele>
        <time>2024-04-11T13:16:57.000Z</time>
      </trkpt>
      <trkpt lat="44.16455" lon="0.73824">
        <ele>145</ele>
        <time>2024-04-11T13:16:58.000Z</time>
      </trkpt>
      <trkpt lat="44.16456" lon="0.73824">
        <ele>144</ele>
        <time>2024-04-11T13:16:59.000Z</time>
      </trkpt>
      <trkpt lat="44.16456" lon="0.73823">
        <ele>144</ele>
        <time>2024-04-11T13:17:00.000Z</time>
      </trkpt>
      <trkpt lat="44.16457" lon="0.73822">
        <ele>144</ele>
        <time>2024-04-11T13:17:01.000Z</time>
      </trkpt>
      <trkpt lat="44.16458" lon="0.73821">
        <ele>143</ele>
        <time>2024-04-11T13:17:02.000Z</time>
      </trkpt>
      <trkpt lat="44.16458" lon="0.7382">
        <ele>142</ele>
        <time>2024-04-11T13:17:03.000Z</time>
      </trkpt>
      <trkpt lat="44.16459" lon="0.73819">
        <ele>142</ele>
        <time>2024-04-11T13:17:04.000Z</time>
      </trkpt>
      <trkpt lat="44.1646" lon="0.73818">
        <ele>142</ele>
        <time>2024-04-11T13:17:05.000Z</time>
      </trkpt>
      <trkpt lat="44.1646" lon="0.73817">
        <ele>142</ele>
        <time>2024-04-11T13:17:06.000Z</time>
      </trkpt>
      <trkpt lat="44.16461" lon="0.73816">
        <ele>142</ele>
        <time>2024-04-11T13:17:07.000Z</time>
      </trkpt>
      <trkpt lat="44.16461" lon="0.73815">
        <ele>142</ele>
        <time>2024-04-11T13:17:08.000Z</time>
      </trkpt>
      <trkpt lat="44.16462" lon="0.73814">
        <ele>142</ele>
        <time>2024-04-11T13:17:09.000Z</time>
      </trkpt>
      <trkpt lat="44.16462" lon="0.73813">
        <ele>141</ele>
        <time>2024-04-11T13:17:10.000Z</time>
      </trkpt>
      <trkpt lat="44.16463" lon="0.73812">
        <ele>142</ele>
        <time>2024-04-11T13:17:11.000Z</time>
      </trkpt>
      <trkpt lat="44.16463" lon="0.73811">
        <ele>142</ele>
        <time>2024-04-11T13:17:12.000Z</time>
      </trkpt>
      <trkpt lat="44.16464" lon="0.7381">
        <ele>142</ele>
        <time>2024-04-11T13:17:13.000Z</time>
      </trkpt>
      <trkpt lat="44.16464" lon="0.7381">
        <ele>142</ele>
        <time>2024-04-11T13:17:14.000Z</time>
      </trkpt>
      <trkpt lat="44.16464" lon="0.73809">
        <ele>142</ele>
        <time>2024-04-11T13:17:15.000Z</time>
      </trkpt>
      <trkpt lat="44.16465" lon="0.73808">
        <ele>142</ele>
        <time>2024-04-11T13:17:16.000Z</time>
      </trkpt>
      <trkpt lat="44.16466" lon="0.73807">
        <ele>141</ele>
        <time>2024-04-11T13:17:17.000Z</time>
      </trkpt>
      <trkpt lat="44.16466" lon="0.73805">
        <ele>141</ele>
        <time>2024-04-11T13:17:18.000Z</time>
      </trkpt>
      <trkpt lat="44.16467" lon="0.73804">
        <ele>142</ele>
        <time>2024-04-11T13:17:19.000Z</time>
      </trkpt>
      <trkpt lat="44.16468" lon="0.73803">
        <ele>142</ele>
        <time>2024-04-11T13:17:20.000Z</time>
      </trkpt>
      <trkpt lat="44.16468" lon="0.73802">
        <ele>142</ele>
        <time>2024-04-11T13:17:21.000Z</time>
      </trkpt>
      <trkpt lat="44.16469" lon="0.73802">
        <ele>142</ele>
        <time>2024-04-11T13:17:22.000Z</time>
      </trkpt>
      <trkpt lat="44.16469" lon="0.73801">
        <ele>142</ele>
        <time>2024-04-11T13:17:23.000Z</time>
      </trkpt>
      <trkpt lat="44.1647" lon="0.738">
        <ele>141</ele>
        <time>2024-04-11T13:17:24.000Z</time>
      </trkpt>
      <trkpt lat="44.1647" lon="0.73799">
        <ele>140</ele>
        <time>2024-04-11T13:17:25.000Z</time>
      </trkpt>
      <trkpt lat="44.16471" lon="0.73798">
        <ele>141</ele>
        <time>2024-04-11T13:17:26.000Z</time>
      </trkpt>
      <trkpt lat="44.16471" lon="0.73797">
        <ele>140</ele>
        <time>2024-04-11T13:17:27.000Z</time>
      </trkpt>
      <trkpt lat="44.16472" lon="0.73796">
        <ele>140</ele>
        <time>2024-04-11T13:17:28.000Z</time>
      </trkpt>
      <trkpt lat="44.16472" lon="0.73794">
        <ele>140</ele>
        <time>2024-04-11T13:17:29.000Z</time>
      </trkpt>
      <trkpt lat="44.16473" lon="0.73793">
        <ele>140</ele>
        <time>2024-04-11T13:17:30.000Z</time>
      </trkpt>
      <trkpt lat="44.16474" lon="0.73792">
        <ele>139</ele>
        <time>2024-04-11T13:17:31.000Z</time>
      </trkpt>
      <trkpt lat="44.16475" lon="0.73791">
        <ele>140</ele>
        <time>2024-04-11T13:17:32.000Z</time>
      </trkpt>
      <trkpt lat="44.16475" lon="0.7379">
        <ele>140</ele>
        <time>2024-04-11T13:17:33.000Z</time>
      </trkpt>
      <trkpt lat="44.16476" lon="0.73789">
        <ele>140</ele>
        <time>2024-04-11T13:17:34.000Z</time>
      </trkpt>
      <trkpt lat="44.16476" lon="0.73789">
        <ele>141</ele>
        <time>2024-04-11T13:17:35.000Z</time>
      </trkpt>
      <trkpt lat="44.16477" lon="0.73788">
        <ele>143</ele>
        <time>2024-04-11T13:17:36.000Z</time>
      </trkpt>
      <trkpt lat="44.16478" lon="0.73787">
        <ele>142</ele>
        <time>2024-04-11T13:17:37.000Z</time>
      </trkpt>
      <trkpt lat="44.16478" lon="0.73786">
        <ele>142</ele>
        <time>2024-04-11T13:17:38.000Z</time>
      </trkpt>
      <trkpt lat="44.16479" lon="0.73785">
        <ele>142</ele>
        <time>2024-04-11T13:17:39.000Z</time>
      </trkpt>
      <trkpt lat="44.1648" lon="0.73784">
        <ele>143</ele>
        <time>2024-04-11T13:17:40.000Z</time>
      </trkpt>
      <trkpt lat="44.1648" lon="0.73783">
        <ele>143</ele>
        <time>2024-04-11T13:17:41.000Z</time>
      </trkpt>
      <trkpt lat="44.16481" lon="0.73782">
        <ele>143</ele>
        <time>2024-04-11T13:17:42.000Z</time>
      </trkpt>
      <trkpt lat="44.16482" lon="0.7378">
        <ele>142</ele>
        <time>2024-04-11T13:17:43.000Z</time>
      </trkpt>
      <trkpt lat="44.16482" lon="0.73779">
        <ele>141</ele>
        <time>2024-04-11T13:17:44.000Z</time>
      </trkpt>
      <trkpt lat="44.16483" lon="0.73778">
        <ele>140</ele>
        <time>2024-04-11T13:17:45.000Z</time>
      </trkpt>
      <trkpt lat="44.16483" lon="0.73777">
        <ele>140</ele>
        <time>2024-04-11T13:17:46.000Z</time>
      </trkpt>
      <trkpt lat="44.16484" lon="0.73776">
        <ele>141</ele>
        <time>2024-04-11T13:17:47.000Z</time>
      </trkpt>
      <trkpt lat="44.16485" lon="0.73775">
        <ele>141</ele>
        <time>2024-04-11T13:17:48.000Z</time>
      </trkpt>
      <trkpt lat="44.16486" lon="0.73774">
        <ele>141</ele>
        <time>2024-04-11T13:17:49.000Z</time>
      </trkpt>
      <trkpt lat="44.16487" lon="0.73773">
        <ele>141</ele>
        <time>2024-04-11T13:17:50.000Z</time>
      </trkpt>
      <trkpt lat="44.16488" lon="0.73772">
        <ele>142</ele>
        <time>2024-04-11T13:17:51.000Z</time>
      </trkpt>
      <trkpt lat="44.16489" lon="0.7377">
        <ele>142</ele>
        <time>2024-04-11T13:17:52.000Z</time>
      </trkpt>
      <trkpt lat="44.1649" lon="0.73769">
        <ele>143</ele>
        <time>2024-04-11T13:17:53.000Z</time>
      </trkpt>
      <trkpt lat="44.16491" lon="0.73768">
        <ele>143</ele>
        <time>2024-04-11T13:17:54.000Z</time>
      </trkpt>
      <trkpt lat="44.16491" lon="0.73767">
        <ele>144</ele>
        <time>2024-04-11T13:17:55.000Z</time>
      </trkpt>
      <trkpt lat="44.16492" lon="0.73766">
        <ele>144</ele>
        <time>2024-04-11T13:17:56.000Z</time>
      </trkpt>
      <trkpt lat="44.16492" lon="0.73765">
        <ele>144</ele>
        <time>2024-04-11T13:17:57.000Z</time>
      </trkpt>
      <trkpt lat="44.16493" lon="0.73764">
        <ele>144</ele>
        <time>2024-04-11T13:17:58.000Z</time>
      </trkpt>
      <trkpt lat="44.16494" lon="0.73763">
        <ele>144</ele>
        <time>2024-04-11T13:17:59.000Z</time>
      </trkpt>
      <trkpt lat="44.16494" lon="0.73762">
        <ele>143</ele>
        <time>2024-04-11T13:18:00.000Z</time>
      </trkpt>
      <trkpt lat="44.16495" lon="0.73761">
        <ele>144</ele>
        <time>2024-04-11T13:18:01.000Z</time>
      </trkpt>
      <trkpt lat="44.16496" lon="0.7376">
        <ele>143</ele>
        <time>2024-04-11T13:18:02.000Z</time>
      </trkpt>
      <trkpt lat="44.16496" lon="0.7376">
        <ele>143</ele>
        <time>2024-04-11T13:18:03.000Z</time>
      </trkpt>
      <trkpt lat="44.16497" lon="0.7376">
        <ele>143</ele>
        <time>2024-04-11T13:18:04.000Z</time>
      </trkpt>
      <trkpt lat="44.16498" lon="0.73759">
        <ele>143</ele>
        <time>2024-04-11T13:18:05.000Z</time>
      </trkpt>
      <trkpt lat="44.16499" lon="0.73758">
        <ele>142</ele>
        <time>2024-04-11T13:18:06.000Z</time>
      </trkpt>
      <trkpt lat="44.165" lon="0.73758">
        <ele>142</ele>
        <time>2024-04-11T13:18:07.000Z</time>
      </trkpt>
      <trkpt lat="44.165" lon="0.73757">
        <ele>142</ele>
        <time>2024-04-11T13:18:08.000Z</time>
      </trkpt>
      <trkpt lat="44.16501" lon="0.73756">
        <ele>142</ele>
        <time>2024-04-11T13:18:09.000Z</time>
      </trkpt>
      <trkpt lat="44.16502" lon="0.73755">
        <ele>143</ele>
        <time>2024-04-11T13:18:10.000Z</time>
      </trkpt>
      <trkpt lat="44.16503" lon="0.73754">
        <ele>143</ele>
        <time>2024-04-11T13:18:11.000Z</time>
      </trkpt>
      <trkpt lat="44.16503" lon="0.73754">
        <ele>143</ele>
        <time>2024-04-11T13:18:12.000Z</time>
      </trkpt>
      <trkpt lat="44.16504" lon="0.73754">
        <ele>143</ele>
        <time>2024-04-11T13:18:13.000Z</time>
      </trkpt>
      <trkpt lat="44.16505" lon="0.73754">
        <ele>143</ele>
        <time>2024-04-11T13:18:14.000Z</time>
      </trkpt>
      <trkpt lat="44.16506" lon="0.73754">
        <ele>143</ele>
        <time>2024-04-11T13:18:15.000Z</time>
      </trkpt>
      <trkpt lat="44.16507" lon="0.73754">
        <ele>143</ele>
        <time>2024-04-11T13:18:16.000Z</time>
      </trkpt>
      <trkpt lat="44.16508" lon="0.73753">
        <ele>144</ele>
        <time>2024-04-11T13:18:17.000Z</time>
      </trkpt>
      <trkpt lat="44.16509" lon="0.73753">
        <ele>144</ele>
        <time>2024-04-11T13:18:18.000Z</time>
      </trkpt>
      <trkpt lat="44.1651" lon="0.73752">
        <ele>143</ele>
        <time>2024-04-11T13:18:19.000Z</time>
      </trkpt>
      <trkpt lat="44.16511" lon="0.73751">
        <ele>144</ele>
        <time>2024-04-11T13:18:20.000Z</time>
      </trkpt>
      <trkpt lat="44.16511" lon="0.7375">
        <ele>143</ele>
        <time>2024-04-11T13:18:21.000Z</time>
      </trkpt>
      <trkpt lat="44.16512" lon="0.73749">
        <ele>143</ele>
        <time>2024-04-11T13:18:22.000Z</time>
      </trkpt>
      <trkpt lat="44.16513" lon="0.73749">
        <ele>144</ele>
        <time>2024-04-11T13:18:23.000Z</time>
      </trkpt>
      <trkpt lat="44.16513" lon="0.73748">
        <ele>144</ele>
        <time>2024-04-11T13:18:24.000Z</time>
      </trkpt>
      <trkpt lat="44.16514" lon="0.73747">
        <ele>144</ele>
        <time>2024-04-11T13:18:25.000Z</time>
      </trkpt>
      <trkpt lat="44.16515" lon="0.73746">
        <ele>143</ele>
        <time>2024-04-11T13:18:26.000Z</time>
      </trkpt>
      <trkpt lat="44.16516" lon="0.73745">
        <ele>143</ele>
        <time>2024-04-11T13:18:27.000Z</time>
      </trkpt>
      <trkpt lat="44.16517" lon="0.73744">
        <ele>143</ele>
        <time>2024-04-11T13:18:28.000Z</time>
      </trkpt>
      <trkpt lat="44.16518" lon="0.73743">
        <ele>142</ele>
        <time>2024-04-11T13:18:29.000Z</time>
      </trkpt>
      <trkpt lat="44.16518" lon="0.73743">
        <ele>142</ele>
        <time>2024-04-11T13:18:30.000Z</time>
      </trkpt>
      <trkpt lat="44.16519" lon="0.73742">
        <ele>142</ele>
        <time>2024-04-11T13:18:31.000Z</time>
      </trkpt>
      <trkpt lat="44.1652" lon="0.73742">
        <ele>142</ele>
        <time>2024-04-11T13:18:32.000Z</time>
      </trkpt>
      <trkpt lat="44.16521" lon="0.73742">
        <ele>142</ele>
        <time>2024-04-11T13:18:33.000Z</time>
      </trkpt>
      <trkpt lat="44.16522" lon="0.73742">
        <ele>142</ele>
        <time>2024-04-11T13:18:34.000Z</time>
      </trkpt>
      <trkpt lat="44.16523" lon="0.73742">
        <ele>141</ele>
        <time>2024-04-11T13:18:35.000Z</time>
      </trkpt>
      <trkpt lat="44.16524" lon="0.73741">
        <ele>141</ele>
        <time>2024-04-11T13:18:36.000Z</time>
      </trkpt>
      <trkpt lat="44.16525" lon="0.73741">
        <ele>142</ele>
        <time>2024-04-11T13:18:37.000Z</time>
      </trkpt>
      <trkpt lat="44.16526" lon="0.7374">
        <ele>142</ele>
        <time>2024-04-11T13:18:38.000Z</time>
      </trkpt>
      <trkpt lat="44.16527" lon="0.7374">
        <ele>142</ele>
        <time>2024-04-11T13:18:39.000Z</time>
      </trkpt>
      <trkpt lat="44.16527" lon="0.73739">
        <ele>141</ele>
        <time>2024-04-11T13:18:40.000Z</time>
      </trkpt>
      <trkpt lat="44.16528" lon="0.73738">
        <ele>141</ele>
        <time>2024-04-11T13:18:41.000Z</time>
      </trkpt>
      <trkpt lat="44.16529" lon="0.73737">
        <ele>141</ele>
        <time>2024-04-11T13:18:42.000Z</time>
      </trkpt>
      <trkpt lat="44.1653" lon="0.73737">
        <ele>141</ele>
        <time>2024-04-11T13:18:43.000Z</time>
      </trkpt>
      <trkpt lat="44.1653" lon="0.73736">
        <ele>141</ele>
        <time>2024-04-11T13:18:44.000Z</time>
      </trkpt>
      <trkpt lat="44.16531" lon="0.73735">
        <ele>142</ele>
        <time>2024-04-11T13:18:45.000Z</time>
      </trkpt>
      <trkpt lat="44.16532" lon="0.73735">
        <ele>142</ele>
        <time>2024-04-11T13:18:46.000Z</time>
      </trkpt>
      <trkpt lat="44.16533" lon="0.73734">
        <ele>142</ele>
        <time>2024-04-11T13:18:47.000Z</time>
      </trkpt>
      <trkpt lat="44.16534" lon="0.73734">
        <ele>142</ele>
        <time>2024-04-11T13:18:48.000Z</time>
      </trkpt>
      <trkpt lat="44.16534" lon="0.73733">
        <ele>143</ele>
        <time>2024-04-11T13:18:49.000Z</time>
      </trkpt>
      <trkpt lat="44.16535" lon="0.73732">
        <ele>143</ele>
        <time>2024-04-11T13:18:50.000Z</time>
      </trkpt>
      <trkpt lat="44.16536" lon="0.73732">
        <ele>143</ele>
        <time>2024-04-11T13:18:51.000Z</time>
      </trkpt>
      <trkpt lat="44.16536" lon="0.73731">
        <ele>143</ele>
        <time>2024-04-11T13:18:52.000Z</time>
      </trkpt>
      <trkpt lat="44.16537" lon="0.7373">
        <ele>143</ele>
        <time>2024-04-11T13:18:53.000Z</time>
      </trkpt>
      <trkpt lat="44.16538" lon="0.73728">
        <ele>143</ele>
        <time>2024-04-11T13:18:54.000Z</time>
      </trkpt>
      <trkpt lat="44.16539" lon="0.73728">
        <ele>143</ele>
        <time>2024-04-11T13:18:55.000Z</time>
      </trkpt>
      <trkpt lat="44.1654" lon="0.73727">
        <ele>143</ele>
        <time>2024-04-11T13:18:56.000Z</time>
      </trkpt>
      <trkpt lat="44.1654" lon="0.73725">
        <ele>140</ele>
        <time>2024-04-11T13:18:57.000Z</time>
      </trkpt>
      <trkpt lat="44.16541" lon="0.73724">
        <ele>140</ele>
        <time>2024-04-11T13:18:58.000Z</time>
      </trkpt>
      <trkpt lat="44.16542" lon="0.73723">
        <ele>140</ele>
        <time>2024-04-11T13:18:59.000Z</time>
      </trkpt>
      <trkpt lat="44.16543" lon="0.73722">
        <ele>140</ele>
        <time>2024-04-11T13:19:00.000Z</time>
      </trkpt>
      <trkpt lat="44.16543" lon="0.73721">
        <ele>141</ele>
        <time>2024-04-11T13:19:01.000Z</time>
      </trkpt>
      <trkpt lat="44.16544" lon="0.7372">
        <ele>142</ele>
        <time>2024-04-11T13:19:02.000Z</time>
      </trkpt>
      <trkpt lat="44.16545" lon="0.73719">
        <ele>142</ele>
        <time>2024-04-11T13:19:03.000Z</time>
      </trkpt>
      <trkpt lat="44.16546" lon="0.73718">
        <ele>142</ele>
        <time>2024-04-11T13:19:04.000Z</time>
      </trkpt>
      <trkpt lat="44.16546" lon="0.73718">
        <ele>142</ele>
        <time>2024-04-11T13:19:05.000Z</time>
      </trkpt>
      <trkpt lat="44.16547" lon="0.73717">
        <ele>142</ele>
        <time>2024-04-11T13:19:06.000Z</time>
      </trkpt>
      <trkpt lat="44.16547" lon="0.73716">
        <ele>142</ele>
        <time>2024-04-11T13:19:07.000Z</time>
      </trkpt>
      <trkpt lat="44.16548" lon="0.73715">
        <ele>142</ele>
        <time>2024-04-11T13:19:08.000Z</time>
      </trkpt>
      <trkpt lat="44.16549" lon="0.73714">
        <ele>142</ele>
        <time>2024-04-11T13:19:09.000Z</time>
      </trkpt>
      <trkpt lat="44.16549" lon="0.73713">
        <ele>143</ele>
        <time>2024-04-11T13:19:10.000Z</time>
      </trkpt>
      <trkpt lat="44.1655" lon="0.73712">
        <ele>143</ele>
        <time>2024-04-11T13:19:11.000Z</time>
      </trkpt>
      <trkpt lat="44.16551" lon="0.73711">
        <ele>144</ele>
        <time>2024-04-11T13:19:12.000Z</time>
      </trkpt>
      <trkpt lat="44.16551" lon="0.7371">
        <ele>144</ele>
        <time>2024-04-11T13:19:13.000Z</time>
      </trkpt>
      <trkpt lat="44.16552" lon="0.7371">
        <ele>144</ele>
        <time>2024-04-11T13:19:14.000Z</time>
      </trkpt>
      <trkpt lat="44.16553" lon="0.73709">
        <ele>144</ele>
        <time>2024-04-11T13:19:15.000Z</time>
      </trkpt>
      <trkpt lat="44.16553" lon="0.73708">
        <ele>144</ele>
        <time>2024-04-11T13:19:16.000Z</time>
      </trkpt>
      <trkpt lat="44.16554" lon="0.73707">
        <ele>144</ele>
        <time>2024-04-11T13:19:17.000Z</time>
      </trkpt>
      <trkpt lat="44.16555" lon="0.73706">
        <ele>145</ele>
        <time>2024-04-11T13:19:18.000Z</time>
      </trkpt>
      <trkpt lat="44.16556" lon="0.73705">
        <ele>145</ele>
        <time>2024-04-11T13:19:19.000Z</time>
      </trkpt>
      <trkpt lat="44.16557" lon="0.73704">
        <ele>145</ele>
        <time>2024-04-11T13:19:20.000Z</time>
      </trkpt>
      <trkpt lat="44.16558" lon="0.73704">
        <ele>145</ele>
        <time>2024-04-11T13:19:21.000Z</time>
      </trkpt>
      <trkpt lat="44.16559" lon="0.73703">
        <ele>143</ele>
        <time>2024-04-11T13:19:22.000Z</time>
      </trkpt>
      <trkpt lat="44.16559" lon="0.73701">
        <ele>142</ele>
        <time>2024-04-11T13:19:23.000Z</time>
      </trkpt>
      <trkpt lat="44.16559" lon="0.737">
        <ele>142</ele>
        <time>2024-04-11T13:19:24.000Z</time>
      </trkpt>
      <trkpt lat="44.1656" lon="0.73698">
        <ele>142</ele>
        <time>2024-04-11T13:19:25.000Z</time>
      </trkpt>
      <trkpt lat="44.1656" lon="0.73697">
        <ele>142</ele>
        <time>2024-04-11T13:19:26.000Z</time>
      </trkpt>
      <trkpt lat="44.16561" lon="0.73696">
        <ele>140</ele>
        <time>2024-04-11T13:19:27.000Z</time>
      </trkpt>
      <trkpt lat="44.16561" lon="0.73695">
        <ele>139</ele>
        <time>2024-04-11T13:19:28.000Z</time>
      </trkpt>
      <trkpt lat="44.16562" lon="0.73694">
        <ele>139</ele>
        <time>2024-04-11T13:19:29.000Z</time>
      </trkpt>
      <trkpt lat="44.16562" lon="0.73692">
        <ele>139</ele>
        <time>2024-04-11T13:19:30.000Z</time>
      </trkpt>
      <trkpt lat="44.16563" lon="0.73691">
        <ele>139</ele>
        <time>2024-04-11T13:19:31.000Z</time>
      </trkpt>
      <trkpt lat="44.16564" lon="0.73691">
        <ele>140</ele>
        <time>2024-04-11T13:19:32.000Z</time>
      </trkpt>
      <trkpt lat="44.16565" lon="0.7369">
        <ele>141</ele>
        <time>2024-04-11T13:19:33.000Z</time>
      </trkpt>
      <trkpt lat="44.16565" lon="0.73689">
        <ele>140</ele>
        <time>2024-04-11T13:19:34.000Z</time>
      </trkpt>
      <trkpt lat="44.16566" lon="0.73688">
        <ele>140</ele>
        <time>2024-04-11T13:19:35.000Z</time>
      </trkpt>
      <trkpt lat="44.16566" lon="0.73687">
        <ele>140</ele>
        <time>2024-04-11T13:19:36.000Z</time>
      </trkpt>
      <trkpt lat="44.16567" lon="0.73686">
        <ele>140</ele>
        <time>2024-04-11T13:19:37.000Z</time>
      </trkpt>
      <trkpt lat="44.16567" lon="0.73685">
        <ele>139</ele>
        <time>2024-04-11T13:19:38.000Z</time>
      </trkpt>
      <trkpt lat="44.16568" lon="0.73684">
        <ele>138</ele>
        <time>2024-04-11T13:19:39.000Z</time>
      </trkpt>
      <trkpt lat="44.16568" lon="0.73683">
        <ele>137</ele>
        <time>2024-04-11T13:19:40.000Z</time>
      </trkpt>
      <trkpt lat="44.16569" lon="0.73682">
        <ele>137</ele>
        <time>2024-04-11T13:19:41.000Z</time>
      </trkpt>
      <trkpt lat="44.1657" lon="0.73681">
        <ele>136</ele>
        <time>2024-04-11T13:19:42.000Z</time>
      </trkpt>
      <trkpt lat="44.1657" lon="0.7368">
        <ele>135</ele>
        <time>2024-04-11T13:19:43.000Z</time>
      </trkpt>
      <trkpt lat="44.16571" lon="0.73679">
        <ele>134</ele>
        <time>2024-04-11T13:19:44.000Z</time>
      </trkpt>
      <trkpt lat="44.16571" lon="0.73678">
        <ele>134</ele>
        <time>2024-04-11T13:19:45.000Z</time>
      </trkpt>
      <trkpt lat="44.16571" lon="0.73677">
        <ele>134</ele>
        <time>2024-04-11T13:19:46.000Z</time>
      </trkpt>
      <trkpt lat="44.16572" lon="0.73676">
        <ele>134</ele>
        <time>2024-04-11T13:19:47.000Z</time>
      </trkpt>
      <trkpt lat="44.16573" lon="0.73675">
        <ele>134</ele>
        <time>2024-04-11T13:19:48.000Z</time>
      </trkpt>
      <trkpt lat="44.16573" lon="0.73674">
        <ele>134</ele>
        <time>2024-04-11T13:19:49.000Z</time>
      </trkpt>
      <trkpt lat="44.16574" lon="0.73673">
        <ele>133</ele>
        <time>2024-04-11T13:19:50.000Z</time>
      </trkpt>
      <trkpt lat="44.16575" lon="0.73672">
        <ele>134</ele>
        <time>2024-04-11T13:19:51.000Z</time>
      </trkpt>
      <trkpt lat="44.16576" lon="0.73672">
        <ele>134</ele>
        <time>2024-04-11T13:19:52.000Z</time>
      </trkpt>
      <trkpt lat="44.16577" lon="0.73671">
        <ele>134</ele>
        <time>2024-04-11T13:19:53.000Z</time>
      </trkpt>
      <trkpt lat="44.16578" lon="0.7367">
        <ele>134</ele>
        <time>2024-04-11T13:19:54.000Z</time>
      </trkpt>
      <trkpt lat="44.16579" lon="0.7367">
        <ele>135</ele>
        <time>2024-04-11T13:19:55.000Z</time>
      </trkpt>
      <trkpt lat="44.1658" lon="0.73669">
        <ele>136</ele>
        <time>2024-04-11T13:19:56.000Z</time>
      </trkpt>
      <trkpt lat="44.16581" lon="0.73668">
        <ele>135</ele>
        <time>2024-04-11T13:19:57.000Z</time>
      </trkpt>
      <trkpt lat="44.16582" lon="0.73668">
        <ele>135</ele>
        <time>2024-04-11T13:19:58.000Z</time>
      </trkpt>
      <trkpt lat="44.16583" lon="0.73667">
        <ele>135</ele>
        <time>2024-04-11T13:19:59.000Z</time>
      </trkpt>
      <trkpt lat="44.16584" lon="0.73666">
        <ele>135</ele>
        <time>2024-04-11T13:20:00.000Z</time>
      </trkpt>
      <trkpt lat="44.16585" lon="0.73665">
        <ele>135</ele>
        <time>2024-04-11T13:20:01.000Z</time>
      </trkpt>
      <trkpt lat="44.16586" lon="0.73665">
        <ele>135</ele>
        <time>2024-04-11T13:20:02.000Z</time>
      </trkpt>
      <trkpt lat="44.16587" lon="0.73664">
        <ele>135</ele>
        <time>2024-04-11T13:20:03.000Z</time>
      </trkpt>
      <trkpt lat="44.16587" lon="0.73663">
        <ele>135</ele>
        <time>2024-04-11T13:20:04.000Z</time>
      </trkpt>
      <trkpt lat="44.16588" lon="0.73662">
        <ele>134</ele>
        <time>2024-04-11T13:20:05.000Z</time>
      </trkpt>
      <trkpt lat="44.16589" lon="0.73661">
        <ele>134</ele>
        <time>2024-04-11T13:20:06.000Z</time>
      </trkpt>
      <trkpt lat="44.1659" lon="0.73661">
        <ele>134</ele>
        <time>2024-04-11T13:20:07.000Z</time>
      </trkpt>
      <trkpt lat="44.1659" lon="0.7366">
        <ele>133</ele>
        <time>2024-04-11T13:20:08.000Z</time>
      </trkpt>
      <trkpt lat="44.16591" lon="0.73659">
        <ele>133</ele>
        <time>2024-04-11T13:20:09.000Z</time>
      </trkpt>
      <trkpt lat="44.16592" lon="0.73658">
        <ele>133</ele>
        <time>2024-04-11T13:20:10.000Z</time>
      </trkpt>
      <trkpt lat="44.16592" lon="0.73657">
        <ele>133</ele>
        <time>2024-04-11T13:20:11.000Z</time>
      </trkpt>
      <trkpt lat="44.16593" lon="0.73657">
        <ele>132</ele>
        <time>2024-04-11T13:20:12.000Z</time>
      </trkpt>
      <trkpt lat="44.16594" lon="0.73656">
        <ele>132</ele>
        <time>2024-04-11T13:20:13.000Z</time>
      </trkpt>
      <trkpt lat="44.16594" lon="0.73655">
        <ele>132</ele>
        <time>2024-04-11T13:20:14.000Z</time>
      </trkpt>
      <trkpt lat="44.16595" lon="0.73654">
        <ele>133</ele>
        <time>2024-04-11T13:20:15.000Z</time>
      </trkpt>
      <trkpt lat="44.16596" lon="0.73653">
        <ele>132</ele>
        <time>2024-04-11T13:20:16.000Z</time>
      </trkpt>
      <trkpt lat="44.16597" lon="0.73652">
        <ele>132</ele>
        <time>2024-04-11T13:20:17.000Z</time>
      </trkpt>
      <trkpt lat="44.16598" lon="0.73651">
        <ele>131</ele>
        <time>2024-04-11T13:20:18.000Z</time>
      </trkpt>
      <trkpt lat="44.16599" lon="0.7365">
        <ele>130</ele>
        <time>2024-04-11T13:20:19.000Z</time>
      </trkpt>
      <trkpt lat="44.166" lon="0.73649">
        <ele>130</ele>
        <time>2024-04-11T13:20:20.000Z</time>
      </trkpt>
      <trkpt lat="44.16601" lon="0.73649">
        <ele>130</ele>
        <time>2024-04-11T13:20:21.000Z</time>
      </trkpt>
      <trkpt lat="44.16601" lon="0.73648">
        <ele>130</ele>
        <time>2024-04-11T13:20:22.000Z</time>
      </trkpt>
      <trkpt lat="44.16602" lon="0.73647">
        <ele>130</ele>
        <time>2024-04-11T13:20:23.000Z</time>
      </trkpt>
      <trkpt lat="44.16603" lon="0.73646">
        <ele>129</ele>
        <time>2024-04-11T13:20:24.000Z</time>
      </trkpt>
      <trkpt lat="44.16604" lon="0.73646">
        <ele>128</ele>
        <time>2024-04-11T13:20:25.000Z</time>
      </trkpt>
      <trkpt lat="44.16605" lon="0.73645">
        <ele>128</ele>
        <time>2024-04-11T13:20:26.000Z</time>
      </trkpt>
      <trkpt lat="44.16606" lon="0.73644">
        <ele>128</ele>
        <time>2024-04-11T13:20:27.000Z</time>
      </trkpt>
      <trkpt lat="44.16607" lon="0.73644">
        <ele>127</ele>
        <time>2024-04-11T13:20:28.000Z</time>
      </trkpt>
      <trkpt lat="44.16607" lon="0.73643">
        <ele>127</ele>
        <time>2024-04-11T13:20:29.000Z</time>
      </trkpt>
      <trkpt lat="44.16608" lon="0.73643">
        <ele>127</ele>
        <time>2024-04-11T13:20:30.000Z</time>
      </trkpt>
      <trkpt lat="44.16609" lon="0.73642">
        <ele>127</ele>
        <time>2024-04-11T13:20:31.000Z</time>
      </trkpt>
      <trkpt lat="44.1661" lon="0.73642">
        <ele>126</ele>
        <time>2024-04-11T13:20:32.000Z</time>
      </trkpt>
      <trkpt lat="44.16611" lon="0.73641">
        <ele>126</ele>
        <time>2024-04-11T13:20:33.000Z</time>
      </trkpt>
      <trkpt lat="44.16611" lon="0.7364">
        <ele>125</ele>
        <time>2024-04-11T13:20:34.000Z</time>
      </trkpt>
      <trkpt lat="44.16612" lon="0.7364">
        <ele>124</ele>
        <time>2024-04-11T13:20:35.000Z</time>
      </trkpt>
      <trkpt lat="44.16613" lon="0.73639">
        <ele>124</ele>
        <time>2024-04-11T13:20:36.000Z</time>
      </trkpt>
      <trkpt lat="44.16614" lon="0.73639">
        <ele>124</ele>
        <time>2024-04-11T13:20:37.000Z</time>
      </trkpt>
      <trkpt lat="44.16615" lon="0.73639">
        <ele>124</ele>
        <time>2024-04-11T13:20:38.000Z</time>
      </trkpt>
      <trkpt lat="44.16616" lon="0.7364">
        <ele>125</ele>
        <time>2024-04-11T13:20:39.000Z</time>
      </trkpt>
      <trkpt lat="44.16617" lon="0.7364">
        <ele>125</ele>
        <time>2024-04-11T13:20:40.000Z</time>
      </trkpt>
      <trkpt lat="44.16617" lon="0.7364">
        <ele>125</ele>
        <time>2024-04-11T13:20:41.000Z</time>
      </trkpt>
      <trkpt lat="44.16618" lon="0.7364">
        <ele>125</ele>
        <time>2024-04-11T13:20:42.000Z</time>
      </trkpt>
      <trkpt lat="44.16619" lon="0.73641">
        <ele>126</ele>
        <time>2024-04-11T13:20:43.000Z</time>
      </trkpt>
      <trkpt lat="44.16619" lon="0.73641">
        <ele>125</ele>
        <time>2024-04-11T13:20:44.000Z</time>
      </trkpt>
      <trkpt lat="44.1662" lon="0.73641">
        <ele>125</ele>
        <time>2024-04-11T13:20:45.000Z</time>
      </trkpt>
      <trkpt lat="44.1662" lon="0.73641">
        <ele>125</ele>
        <time>2024-04-11T13:20:46.000Z</time>
      </trkpt>
      <trkpt lat="44.16621" lon="0.73642">
        <ele>125</ele>
        <time>2024-04-11T13:20:47.000Z</time>
      </trkpt>
      <trkpt lat="44.16621" lon="0.73642">
        <ele>126</ele>
        <time>2024-04-11T13:20:48.000Z</time>
      </trkpt>
      <trkpt lat="44.16622" lon="0.73642">
        <ele>126</ele>
        <time>2024-04-11T13:20:49.000Z</time>
      </trkpt>
      <trkpt lat="44.16622" lon="0.73642">
        <ele>125</ele>
        <time>2024-04-11T13:20:50.000Z</time>
      </trkpt>
      <trkpt lat="44.16623" lon="0.73643">
        <ele>125</ele>
        <time>2024-04-11T13:20:51.000Z</time>
      </trkpt>
      <trkpt lat="44.16624" lon="0.73643">
        <ele>125</ele>
        <time>2024-04-11T13:20:52.000Z</time>
      </trkpt>
      <trkpt lat="44.16624" lon="0.73643">
        <ele>124</ele>
        <time>2024-04-11T13:20:53.000Z</time>
      </trkpt>
      <trkpt lat="44.16625" lon="0.73644">
        <ele>124</ele>
        <time>2024-04-11T13:20:54.000Z</time>
      </trkpt>
      <trkpt lat="44.16626" lon="0.73644">
        <ele>125</ele>
        <time>2024-04-11T13:20:55.000Z</time>
      </trkpt>
      <trkpt lat="44.16627" lon="0.73645">
        <ele>124</ele>
        <time>2024-04-11T13:20:56.000Z</time>
      </trkpt>
      <trkpt lat="44.16628" lon="0.73645">
        <ele>124</ele>
        <time>2024-04-11T13:20:57.000Z</time>
      </trkpt>
      <trkpt lat="44.16628" lon="0.73646">
        <ele>124</ele>
        <time>2024-04-11T13:20:58.000Z</time>
      </trkpt>
      <trkpt lat="44.16629" lon="0.73646">
        <ele>124</ele>
        <time>2024-04-11T13:20:59.000Z</time>
      </trkpt>
      <trkpt lat="44.1663" lon="0.73647">
        <ele>123</ele>
        <time>2024-04-11T13:21:00.000Z</time>
      </trkpt>
      <trkpt lat="44.16631" lon="0.73647">
        <ele>123</ele>
        <time>2024-04-11T13:21:01.000Z</time>
      </trkpt>
      <trkpt lat="44.16631" lon="0.73648">
        <ele>123</ele>
        <time>2024-04-11T13:21:02.000Z</time>
      </trkpt>
      <trkpt lat="44.16632" lon="0.73648">
        <ele>123</ele>
        <time>2024-04-11T13:21:03.000Z</time>
      </trkpt>
      <trkpt lat="44.16633" lon="0.73649">
        <ele>123</ele>
        <time>2024-04-11T13:21:04.000Z</time>
      </trkpt>
      <trkpt lat="44.16633" lon="0.73649">
        <ele>123</ele>
        <time>2024-04-11T13:21:05.000Z</time>
      </trkpt>
      <trkpt lat="44.16634" lon="0.7365">
        <ele>122</ele>
        <time>2024-04-11T13:21:06.000Z</time>
      </trkpt>
      <trkpt lat="44.16635" lon="0.7365">
        <ele>122</ele>
        <time>2024-04-11T13:21:07.000Z</time>
      </trkpt>
      <trkpt lat="44.16636" lon="0.73651">
        <ele>122</ele>
        <time>2024-04-11T13:21:08.000Z</time>
      </trkpt>
      <trkpt lat="44.16637" lon="0.73651">
        <ele>122</ele>
        <time>2024-04-11T13:21:09.000Z</time>
      </trkpt>
      <trkpt lat="44.16638" lon="0.73652">
        <ele>122</ele>
        <time>2024-04-11T13:21:10.000Z</time>
      </trkpt>
      <trkpt lat="44.16638" lon="0.73652">
        <ele>122</ele>
        <time>2024-04-11T13:21:11.000Z</time>
      </trkpt>
      <trkpt lat="44.16639" lon="0.73653">
        <ele>121</ele>
        <time>2024-04-11T13:21:12.000Z</time>
      </trkpt>
      <trkpt lat="44.16639" lon="0.73653">
        <ele>121</ele>
        <time>2024-04-11T13:21:13.000Z</time>
      </trkpt>
      <trkpt lat="44.1664" lon="0.73653">
        <ele>120</ele>
        <time>2024-04-11T13:21:14.000Z</time>
      </trkpt>
      <trkpt lat="44.16641" lon="0.73653">
        <ele>120</ele>
        <time>2024-04-11T13:21:15.000Z</time>
      </trkpt>
      <trkpt lat="44.16642" lon="0.73654">
        <ele>120</ele>
        <time>2024-04-11T13:21:16.000Z</time>
      </trkpt>
      <trkpt lat="44.16643" lon="0.73654">
        <ele>119</ele>
        <time>2024-04-11T13:21:17.000Z</time>
      </trkpt>
      <trkpt lat="44.16643" lon="0.73655">
        <ele>119</ele>
        <time>2024-04-11T13:21:18.000Z</time>
      </trkpt>
      <trkpt lat="44.16644" lon="0.73655">
        <ele>118</ele>
        <time>2024-04-11T13:21:19.000Z</time>
      </trkpt>
      <trkpt lat="44.16645" lon="0.73655">
        <ele>118</ele>
        <time>2024-04-11T13:21:20.000Z</time>
      </trkpt>
      <trkpt lat="44.16645" lon="0.73655">
        <ele>117</ele>
        <time>2024-04-11T13:21:21.000Z</time>
      </trkpt>
      <trkpt lat="44.16646" lon="0.73656">
        <ele>117</ele>
        <time>2024-04-11T13:21:22.000Z</time>
      </trkpt>
      <trkpt lat="44.16646" lon="0.73656">
        <ele>117</ele>
        <time>2024-04-11T13:21:23.000Z</time>
      </trkpt>
      <trkpt lat="44.16647" lon="0.73657">
        <ele>116</ele>
        <time>2024-04-11T13:21:24.000Z</time>
      </trkpt>
      <trkpt lat="44.16648" lon="0.73657">
        <ele>116</ele>
        <time>2024-04-11T13:21:25.000Z</time>
      </trkpt>
      <trkpt lat="44.16649" lon="0.73657">
        <ele>116</ele>
        <time>2024-04-11T13:21:26.000Z</time>
      </trkpt>
      <trkpt lat="44.1665" lon="0.73658">
        <ele>116</ele>
        <time>2024-04-11T13:21:27.000Z</time>
      </trkpt>
      <trkpt lat="44.16651" lon="0.73659">
        <ele>115</ele>
        <time>2024-04-11T13:21:28.000Z</time>
      </trkpt>
      <trkpt lat="44.16652" lon="0.73659">
        <ele>116</ele>
        <time>2024-04-11T13:21:29.000Z</time>
      </trkpt>
      <trkpt lat="44.16653" lon="0.7366">
        <ele>116</ele>
        <time>2024-04-11T13:21:30.000Z</time>
      </trkpt>
      <trkpt lat="44.16653" lon="0.7366">
        <ele>116</ele>
        <time>2024-04-11T13:21:31.000Z</time>
      </trkpt>
      <trkpt lat="44.16654" lon="0.73661">
        <ele>116</ele>
        <time>2024-04-11T13:21:32.000Z</time>
      </trkpt>
      <trkpt lat="44.16655" lon="0.73661">
        <ele>116</ele>
        <time>2024-04-11T13:21:33.000Z</time>
      </trkpt>
      <trkpt lat="44.16656" lon="0.73662">
        <ele>116</ele>
        <time>2024-04-11T13:21:34.000Z</time>
      </trkpt>
      <trkpt lat="44.16657" lon="0.73662">
        <ele>116</ele>
        <time>2024-04-11T13:21:35.000Z</time>
      </trkpt>
      <trkpt lat="44.16658" lon="0.73662">
        <ele>115</ele>
        <time>2024-04-11T13:21:36.000Z</time>
      </trkpt>
      <trkpt lat="44.16659" lon="0.73662">
        <ele>116</ele>
        <time>2024-04-11T13:21:37.000Z</time>
      </trkpt>
      <trkpt lat="44.16659" lon="0.73663">
        <ele>115</ele>
        <time>2024-04-11T13:21:38.000Z</time>
      </trkpt>
      <trkpt lat="44.1666" lon="0.73663">
        <ele>115</ele>
        <time>2024-04-11T13:21:39.000Z</time>
      </trkpt>
      <trkpt lat="44.16661" lon="0.73663">
        <ele>115</ele>
        <time>2024-04-11T13:21:40.000Z</time>
      </trkpt>
      <trkpt lat="44.16662" lon="0.73663">
        <ele>115</ele>
        <time>2024-04-11T13:21:41.000Z</time>
      </trkpt>
      <trkpt lat="44.16662" lon="0.73664">
        <ele>114</ele>
        <time>2024-04-11T13:21:42.000Z</time>
      </trkpt>
      <trkpt lat="44.16663" lon="0.73664">
        <ele>114</ele>
        <time>2024-04-11T13:21:43.000Z</time>
      </trkpt>
      <trkpt lat="44.16664" lon="0.73664">
        <ele>114</ele>
        <time>2024-04-11T13:21:44.000Z</time>
      </trkpt>
      <trkpt lat="44.16665" lon="0.73665">
        <ele>114</ele>
        <time>2024-04-11T13:21:45.000Z</time>
      </trkpt>
      <trkpt lat="44.16666" lon="0.73665">
        <ele>114</ele>
        <time>2024-04-11T13:21:46.000Z</time>
      </trkpt>
      <trkpt lat="44.16667" lon="0.73665">
        <ele>114</ele>
        <time>2024-04-11T13:21:47.000Z</time>
      </trkpt>
      <trkpt lat="44.16667" lon="0.73666">
        <ele>113</ele>
        <time>2024-04-11T13:21:48.000Z</time>
      </trkpt>
      <trkpt lat="44.16668" lon="0.73666">
        <ele>113</ele>
        <time>2024-04-11T13:21:49.000Z</time>
      </trkpt>
      <trkpt lat="44.16669" lon="0.73666">
        <ele>112</ele>
        <time>2024-04-11T13:21:50.000Z</time>
      </trkpt>
      <trkpt lat="44.1667" lon="0.73667">
        <ele>112</ele>
        <time>2024-04-11T13:21:51.000Z</time>
      </trkpt>
      <trkpt lat="44.16671" lon="0.73667">
        <ele>112</ele>
        <time>2024-04-11T13:21:52.000Z</time>
      </trkpt>
      <trkpt lat="44.16671" lon="0.73667">
        <ele>112</ele>
        <time>2024-04-11T13:21:53.000Z</time>
      </trkpt>
      <trkpt lat="44.16672" lon="0.73668">
        <ele>112</ele>
        <time>2024-04-11T13:21:54.000Z</time>
      </trkpt>
      <trkpt lat="44.16673" lon="0.73668">
        <ele>112</ele>
        <time>2024-04-11T13:21:55.000Z</time>
      </trkpt>
      <trkpt lat="44.16674" lon="0.73668">
        <ele>111</ele>
        <time>2024-04-11T13:21:56.000Z</time>
      </trkpt>
      <trkpt lat="44.16675" lon="0.73669">
        <ele>111</ele>
        <time>2024-04-11T13:21:57.000Z</time>
      </trkpt>
      <trkpt lat="44.16675" lon="0.73669">
        <ele>111</ele>
        <time>2024-04-11T13:21:58.000Z</time>
      </trkpt>
      <trkpt lat="44.16676" lon="0.7367">
        <ele>110</ele>
        <time>2024-04-11T13:21:59.000Z</time>
      </trkpt>
      <trkpt lat="44.16677" lon="0.7367">
        <ele>110</ele>
        <time>2024-04-11T13:22:00.000Z</time>
      </trkpt>
      <trkpt lat="44.16678" lon="0.73671">
        <ele>110</ele>
        <time>2024-04-11T13:22:01.000Z</time>
      </trkpt>
      <trkpt lat="44.16679" lon="0.73671">
        <ele>109</ele>
        <time>2024-04-11T13:22:02.000Z</time>
      </trkpt>
      <trkpt lat="44.1668" lon="0.73671">
        <ele>109</ele>
        <time>2024-04-11T13:22:03.000Z</time>
      </trkpt>
      <trkpt lat="44.1668" lon="0.73672">
        <ele>108</ele>
        <time>2024-04-11T13:22:04.000Z</time>
      </trkpt>
      <trkpt lat="44.16681" lon="0.73673">
        <ele>108</ele>
        <time>2024-04-11T13:22:05.000Z</time>
      </trkpt>
      <trkpt lat="44.16682" lon="0.73673">
        <ele>108</ele>
        <time>2024-04-11T13:22:06.000Z</time>
      </trkpt>
      <trkpt lat="44.16683" lon="0.73674">
        <ele>108</ele>
        <time>2024-04-11T13:22:07.000Z</time>
      </trkpt>
      <trkpt lat="44.16684" lon="0.73674">
        <ele>108</ele>
        <time>2024-04-11T13:22:08.000Z</time>
      </trkpt>
      <trkpt lat="44.16684" lon="0.73675">
        <ele>107</ele>
        <time>2024-04-11T13:22:09.000Z</time>
      </trkpt>
      <trkpt lat="44.16685" lon="0.73675">
        <ele>107</ele>
        <time>2024-04-11T13:22:10.000Z</time>
      </trkpt>
      <trkpt lat="44.16685" lon="0.73675">
        <ele>107</ele>
        <time>2024-04-11T13:22:11.000Z</time>
      </trkpt>
      <trkpt lat="44.16686" lon="0.73676">
        <ele>107</ele>
        <time>2024-04-11T13:22:12.000Z</time>
      </trkpt>
      <trkpt lat="44.16687" lon="0.73676">
        <ele>107</ele>
        <time>2024-04-11T13:22:13.000Z</time>
      </trkpt>
      <trkpt lat="44.16687" lon="0.73677">
        <ele>107</ele>
        <time>2024-04-11T13:22:14.000Z</time>
      </trkpt>
      <trkpt lat="44.16688" lon="0.73677">
        <ele>106</ele>
        <time>2024-04-11T13:22:15.000Z</time>
      </trkpt>
      <trkpt lat="44.16689" lon="0.73678">
        <ele>106</ele>
        <time>2024-04-11T13:22:16.000Z</time>
      </trkpt>
      <trkpt lat="44.16689" lon="0.73678">
        <ele>106</ele>
        <time>2024-04-11T13:22:17.000Z</time>
      </trkpt>
      <trkpt lat="44.1669" lon="0.73679">
        <ele>106</ele>
        <time>2024-04-11T13:22:18.000Z</time>
      </trkpt>
      <trkpt lat="44.16691" lon="0.73679">
        <ele>105</ele>
        <time>2024-04-11T13:22:19.000Z</time>
      </trkpt>
      <trkpt lat="44.16692" lon="0.73679">
        <ele>105</ele>
        <time>2024-04-11T13:22:20.000Z</time>
      </trkpt>
      <trkpt lat="44.16692" lon="0.73679">
        <ele>105</ele>
        <time>2024-04-11T13:22:21.000Z</time>
      </trkpt>
      <trkpt lat="44.16693" lon="0.73679">
        <ele>105</ele>
        <time>2024-04-11T13:22:22.000Z</time>
      </trkpt>
      <trkpt lat="44.16694" lon="0.7368">
        <ele>105</ele>
        <time>2024-04-11T13:22:23.000Z</time>
      </trkpt>
      <trkpt lat="44.16695" lon="0.7368">
        <ele>104</ele>
        <time>2024-04-11T13:22:24.000Z</time>
      </trkpt>
      <trkpt lat="44.16695" lon="0.7368">
        <ele>103</ele>
        <time>2024-04-11T13:22:25.000Z</time>
      </trkpt>
      <trkpt lat="44.16696" lon="0.73681">
        <ele>104</ele>
        <time>2024-04-11T13:22:26.000Z</time>
      </trkpt>
      <trkpt lat="44.16697" lon="0.73681">
        <ele>103</ele>
        <time>2024-04-11T13:22:27.000Z</time>
      </trkpt>
      <trkpt lat="44.16697" lon="0.73681">
        <ele>103</ele>
        <time>2024-04-11T13:22:28.000Z</time>
      </trkpt>
      <trkpt lat="44.16698" lon="0.73681">
        <ele>102</ele>
        <time>2024-04-11T13:22:29.000Z</time>
      </trkpt>
      <trkpt lat="44.16699" lon="0.73681">
        <ele>102</ele>
        <time>2024-04-11T13:22:30.000Z</time>
      </trkpt>
      <trkpt lat="44.167" lon="0.73681">
        <ele>102</ele>
        <time>2024-04-11T13:22:31.000Z</time>
      </trkpt>
      <trkpt lat="44.16701" lon="0.73681">
        <ele>101</ele>
        <time>2024-04-11T13:22:32.000Z</time>
      </trkpt>
      <trkpt lat="44.16701" lon="0.73682">
        <ele>101</ele>
        <time>2024-04-11T13:22:33.000Z</time>
      </trkpt>
      <trkpt lat="44.16702" lon="0.73682">
        <ele>101</ele>
        <time>2024-04-11T13:22:34.000Z</time>
      </trkpt>
      <trkpt lat="44.16703" lon="0.73682">
        <ele>101</ele>
        <time>2024-04-11T13:22:35.000Z</time>
      </trkpt>
      <trkpt lat="44.16704" lon="0.73682">
        <ele>101</ele>
        <time>2024-04-11T13:22:36.000Z</time>
      </trkpt>
      <trkpt lat="44.16704" lon="0.73683">
        <ele>101</ele>
        <time>2024-04-11T13:22:37.000Z</time>
      </trkpt>
      <trkpt lat="44.16705" lon="0.73683">
        <ele>101</ele>
        <time>2024-04-11T13:22:38.000Z</time>
      </trkpt>
      <trkpt lat="44.16706" lon="0.73684">
        <ele>101</ele>
        <time>2024-04-11T13:22:39.000Z</time>
      </trkpt>
      <trkpt lat="44.16707" lon="0.73684">
        <ele>101</ele>
        <time>2024-04-11T13:22:40.000Z</time>
      </trkpt>
      <trkpt lat="44.16708" lon="0.73685">
        <ele>101</ele>
        <time>2024-04-11T13:22:41.000Z</time>
      </trkpt>
      <trkpt lat="44.16708" lon="0.73686">
        <ele>101</ele>
        <time>2024-04-11T13:22:42.000Z</time>
      </trkpt>
      <trkpt lat="44.16709" lon="0.73686">
        <ele>101</ele>
        <time>2024-04-11T13:22:43.000Z</time>
      </trkpt>
      <trkpt lat="44.1671" lon="0.73687">
        <ele>101</ele>
        <time>2024-04-11T13:22:44.000Z</time>
      </trkpt>
      <trkpt lat="44.1671" lon="0.73687">
        <ele>100</ele>
        <time>2024-04-11T13:22:45.000Z</time>
      </trkpt>
      <trkpt lat="44.16711" lon="0.73688">
        <ele>101</ele>
        <time>2024-04-11T13:22:46.000Z</time>
      </trkpt>
      <trkpt lat="44.16712" lon="0.73689">
        <ele>101</ele>
        <time>2024-04-11T13:22:47.000Z</time>
      </trkpt>
      <trkpt lat="44.16712" lon="0.7369">
        <ele>100</ele>
        <time>2024-04-11T13:22:48.000Z</time>
      </trkpt>
      <trkpt lat="44.16713" lon="0.73691">
        <ele>100</ele>
        <time>2024-04-11T13:22:49.000Z</time>
      </trkpt>
      <trkpt lat="44.16713" lon="0.73692">
        <ele>100</ele>
        <time>2024-04-11T13:22:50.000Z</time>
      </trkpt>
      <trkpt lat="44.16714" lon="0.73692">
        <ele>101</ele>
        <time>2024-04-11T13:22:51.000Z</time>
      </trkpt>
      <trkpt lat="44.16715" lon="0.73693">
        <ele>101</ele>
        <time>2024-04-11T13:22:52.000Z</time>
      </trkpt>
      <trkpt lat="44.16715" lon="0.73694">
        <ele>100</ele>
        <time>2024-04-11T13:22:53.000Z</time>
      </trkpt>
      <trkpt lat="44.16716" lon="0.73694">
        <ele>100</ele>
        <time>2024-04-11T13:22:54.000Z</time>
      </trkpt>
      <trkpt lat="44.16716" lon="0.73695">
        <ele>101</ele>
        <time>2024-04-11T13:22:55.000Z</time>
      </trkpt>
      <trkpt lat="44.16717" lon="0.73696">
        <ele>101</ele>
        <time>2024-04-11T13:22:56.000Z</time>
      </trkpt>
      <trkpt lat="44.16717" lon="0.73696">
        <ele>101</ele>
        <time>2024-04-11T13:22:57.000Z</time>
      </trkpt>
      <trkpt lat="44.16718" lon="0.73697">
        <ele>100</ele>
        <time>2024-04-11T13:22:58.000Z</time>
      </trkpt>
      <trkpt lat="44.16718" lon="0.73697">
        <ele>100</ele>
        <time>2024-04-11T13:22:59.000Z</time>
      </trkpt>
      <trkpt lat="44.16719" lon="0.73697">
        <ele>100</ele>
        <time>2024-04-11T13:23:00.000Z</time>
      </trkpt>
      <trkpt lat="44.16719" lon="0.73698">
        <ele>100</ele>
        <time>2024-04-11T13:23:01.000Z</time>
      </trkpt>
      <trkpt lat="44.1672" lon="0.73698">
        <ele>99</ele>
        <time>2024-04-11T13:23:02.000Z</time>
      </trkpt>
      <trkpt lat="44.1672" lon="0.73698">
        <ele>99</ele>
        <time>2024-04-11T13:23:03.000Z</time>
      </trkpt>
      <trkpt lat="44.16721" lon="0.73699">
        <ele>99</ele>
        <time>2024-04-11T13:23:04.000Z</time>
      </trkpt>
      <trkpt lat="44.16721" lon="0.73699">
        <ele>98</ele>
        <time>2024-04-11T13:23:05.000Z</time>
      </trkpt>
      <trkpt lat="44.16722" lon="0.737">
        <ele>98</ele>
        <time>2024-04-11T13:23:06.000Z</time>
      </trkpt>
      <trkpt lat="44.16722" lon="0.737">
        <ele>98</ele>
        <time>2024-04-11T13:23:07.000Z</time>
      </trkpt>
      <trkpt lat="44.16723" lon="0.737">
        <ele>98</ele>
        <time>2024-04-11T13:23:08.000Z</time>
      </trkpt>
      <trkpt lat="44.16723" lon="0.73701">
        <ele>98</ele>
        <time>2024-04-11T13:23:09.000Z</time>
      </trkpt>
      <trkpt lat="44.16724" lon="0.73701">
        <ele>97</ele>
        <time>2024-04-11T13:23:10.000Z</time>
      </trkpt>
      <trkpt lat="44.16724" lon="0.73701">
        <ele>97</ele>
        <time>2024-04-11T13:23:11.000Z</time>
      </trkpt>
      <trkpt lat="44.16725" lon="0.73702">
        <ele>97</ele>
        <time>2024-04-11T13:23:12.000Z</time>
      </trkpt>
      <trkpt lat="44.16725" lon="0.73702">
        <ele>97</ele>
        <time>2024-04-11T13:23:13.000Z</time>
      </trkpt>
      <trkpt lat="44.16726" lon="0.73703">
        <ele>96</ele>
        <time>2024-04-11T13:23:14.000Z</time>
      </trkpt>
      <trkpt lat="44.16726" lon="0.73704">
        <ele>96</ele>
        <time>2024-04-11T13:23:15.000Z</time>
      </trkpt>
      <trkpt lat="44.16727" lon="0.73704">
        <ele>96</ele>
        <time>2024-04-11T13:23:16.000Z</time>
      </trkpt>
      <trkpt lat="44.16728" lon="0.73705">
        <ele>96</ele>
        <time>2024-04-11T13:23:17.000Z</time>
      </trkpt>
      <trkpt lat="44.16728" lon="0.73706">
        <ele>96</ele>
        <time>2024-04-11T13:23:18.000Z</time>
      </trkpt>
      <trkpt lat="44.16728" lon="0.73706">
        <ele>95</ele>
        <time>2024-04-11T13:23:19.000Z</time>
      </trkpt>
      <trkpt lat="44.16729" lon="0.73707">
        <ele>95</ele>
        <time>2024-04-11T13:23:20.000Z</time>
      </trkpt>
      <trkpt lat="44.1673" lon="0.73707">
        <ele>95</ele>
        <time>2024-04-11T13:23:21.000Z</time>
      </trkpt>
      <trkpt lat="44.16731" lon="0.73708">
        <ele>95</ele>
        <time>2024-04-11T13:23:22.000Z</time>
      </trkpt>
      <trkpt lat="44.16731" lon="0.73708">
        <ele>95</ele>
        <time>2024-04-11T13:23:23.000Z</time>
      </trkpt>
      <trkpt lat="44.16732" lon="0.73709">
        <ele>95</ele>
        <time>2024-04-11T13:23:24.000Z</time>
      </trkpt>
      <trkpt lat="44.16733" lon="0.73709">
        <ele>95</ele>
        <time>2024-04-11T13:23:25.000Z</time>
      </trkpt>
      <trkpt lat="44.16733" lon="0.7371">
        <ele>95</ele>
        <time>2024-04-11T13:23:26.000Z</time>
      </trkpt>
      <trkpt lat="44.16734" lon="0.7371">
        <ele>94</ele>
        <time>2024-04-11T13:23:27.000Z</time>
      </trkpt>
      <trkpt lat="44.16735" lon="0.73711">
        <ele>94</ele>
        <time>2024-04-11T13:23:28.000Z</time>
      </trkpt>
      <trkpt lat="44.16735" lon="0.73711">
        <ele>93</ele>
        <time>2024-04-11T13:23:29.000Z</time>
      </trkpt>
      <trkpt lat="44.16736" lon="0.73712">
        <ele>93</ele>
        <time>2024-04-11T13:23:30.000Z</time>
      </trkpt>
      <trkpt lat="44.16737" lon="0.73712">
        <ele>94</ele>
        <time>2024-04-11T13:23:31.000Z</time>
      </trkpt>
      <trkpt lat="44.16738" lon="0.73713">
        <ele>93</ele>
        <time>2024-04-11T13:23:32.000Z</time>
      </trkpt>
      <trkpt lat="44.16739" lon="0.73714">
        <ele>93</ele>
        <time>2024-04-11T13:23:33.000Z</time>
      </trkpt>
      <trkpt lat="44.1674" lon="0.73714">
        <ele>93</ele>
        <time>2024-04-11T13:23:34.000Z</time>
      </trkpt>
      <trkpt lat="44.1674" lon="0.73715">
        <ele>93</ele>
        <time>2024-04-11T13:23:35.000Z</time>
      </trkpt>
      <trkpt lat="44.16741" lon="0.73716">
        <ele>93</ele>
        <time>2024-04-11T13:23:36.000Z</time>
      </trkpt>
      <trkpt lat="44.16741" lon="0.73717">
        <ele>93</ele>
        <time>2024-04-11T13:23:37.000Z</time>
      </trkpt>
      <trkpt lat="44.16742" lon="0.73717">
        <ele>93</ele>
        <time>2024-04-11T13:23:38.000Z</time>
      </trkpt>
      <trkpt lat="44.16742" lon="0.73718">
        <ele>92</ele>
        <time>2024-04-11T13:23:39.000Z</time>
      </trkpt>
      <trkpt lat="44.16743" lon="0.73718">
        <ele>92</ele>
        <time>2024-04-11T13:23:40.000Z</time>
      </trkpt>
      <trkpt lat="44.16744" lon="0.73718">
        <ele>91</ele>
        <time>2024-04-11T13:23:41.000Z</time>
      </trkpt>
      <trkpt lat="44.16745" lon="0.73717">
        <ele>90</ele>
        <time>2024-04-11T13:23:42.000Z</time>
      </trkpt>
      <trkpt lat="44.16746" lon="0.73717">
        <ele>90</ele>
        <time>2024-04-11T13:23:43.000Z</time>
      </trkpt>
      <trkpt lat="44.16747" lon="0.73717">
        <ele>89</ele>
        <time>2024-04-11T13:23:44.000Z</time>
      </trkpt>
      <trkpt lat="44.16748" lon="0.73716">
        <ele>89</ele>
        <time>2024-04-11T13:23:45.000Z</time>
      </trkpt>
      <trkpt lat="44.16749" lon="0.73716">
        <ele>89</ele>
        <time>2024-04-11T13:23:46.000Z</time>
      </trkpt>
      <trkpt lat="44.1675" lon="0.73716">
        <ele>89</ele>
        <time>2024-04-11T13:23:47.000Z</time>
      </trkpt>
      <trkpt lat="44.16751" lon="0.73716">
        <ele>88</ele>
        <time>2024-04-11T13:23:48.000Z</time>
      </trkpt>
      <trkpt lat="44.16752" lon="0.73716">
        <ele>88</ele>
        <time>2024-04-11T13:23:49.000Z</time>
      </trkpt>
      <trkpt lat="44.16753" lon="0.73716">
        <ele>88</ele>
        <time>2024-04-11T13:23:50.000Z</time>
      </trkpt>
      <trkpt lat="44.16754" lon="0.73716">
        <ele>88</ele>
        <time>2024-04-11T13:23:51.000Z</time>
      </trkpt>
      <trkpt lat="44.16755" lon="0.73716">
        <ele>88</ele>
        <time>2024-04-11T13:23:52.000Z</time>
      </trkpt>
      <trkpt lat="44.16756" lon="0.73716">
        <ele>88</ele>
        <time>2024-04-11T13:23:53.000Z</time>
      </trkpt>
      <trkpt lat="44.16757" lon="0.73716">
        <ele>88</ele>
        <time>2024-04-11T13:23:54.000Z</time>
      </trkpt>
      <trkpt lat="44.16758" lon="0.73717">
        <ele>88</ele>
        <time>2024-04-11T13:23:55.000Z</time>
      </trkpt>
      <trkpt lat="44.16759" lon="0.73717">
        <ele>87</ele>
        <time>2024-04-11T13:23:56.000Z</time>
      </trkpt>
      <trkpt lat="44.1676" lon="0.73718">
        <ele>87</ele>
        <time>2024-04-11T13:23:57.000Z</time>
      </trkpt>
      <trkpt lat="44.16761" lon="0.73719">
        <ele>87</ele>
        <time>2024-04-11T13:23:58.000Z</time>
      </trkpt>
      <trkpt lat="44.16762" lon="0.7372">
        <ele>88</ele>
        <time>2024-04-11T13:23:59.000Z</time>
      </trkpt>
      <trkpt lat="44.16763" lon="0.7372">
        <ele>88</ele>
        <time>2024-04-11T13:24:00.000Z</time>
      </trkpt>
      <trkpt lat="44.16763" lon="0.73721">
        <ele>87</ele>
        <time>2024-04-11T13:24:01.000Z</time>
      </trkpt>
      <trkpt lat="44.16764" lon="0.73722">
        <ele>87</ele>
        <time>2024-04-11T13:24:02.000Z</time>
      </trkpt>
      <trkpt lat="44.16765" lon="0.73723">
        <ele>87</ele>
        <time>2024-04-11T13:24:03.000Z</time>
      </trkpt>
      <trkpt lat="44.16766" lon="0.73724">
        <ele>87</ele>
        <time>2024-04-11T13:24:04.000Z</time>
      </trkpt>
      <trkpt lat="44.16767" lon="0.73725">
        <ele>87</ele>
        <time>2024-04-11T13:24:05.000Z</time>
      </trkpt>
      <trkpt lat="44.16768" lon="0.73726">
        <ele>87</ele>
        <time>2024-04-11T13:24:06.000Z</time>
      </trkpt>
      <trkpt lat="44.16769" lon="0.73727">
        <ele>87</ele>
        <time>2024-04-11T13:24:07.000Z</time>
      </trkpt>
      <trkpt lat="44.1677" lon="0.73728">
        <ele>87</ele>
        <time>2024-04-11T13:24:08.000Z</time>
      </trkpt>
      <trkpt lat="44.16771" lon="0.73729">
        <ele>87</ele>
        <time>2024-04-11T13:24:09.000Z</time>
      </trkpt>
      <trkpt lat="44.16772" lon="0.73729">
        <ele>87</ele>
        <time>2024-04-11T13:24:10.000Z</time>
      </trkpt>
      <trkpt lat="44.16773" lon="0.7373">
        <ele>87</ele>
        <time>2024-04-11T13:24:11.000Z</time>
      </trkpt>
      <trkpt lat="44.16774" lon="0.73731">
        <ele>87</ele>
        <time>2024-04-11T13:24:12.000Z</time>
      </trkpt>
      <trkpt lat="44.16775" lon="0.73732">
        <ele>87</ele>
        <time>2024-04-11T13:24:13.000Z</time>
      </trkpt>
      <trkpt lat="44.16776" lon="0.73733">
        <ele>86</ele>
        <time>2024-04-11T13:24:14.000Z</time>
      </trkpt>
      <trkpt lat="44.16777" lon="0.73733">
        <ele>86</ele>
        <time>2024-04-11T13:24:15.000Z</time>
      </trkpt>
      <trkpt lat="44.16778" lon="0.73734">
        <ele>86</ele>
        <time>2024-04-11T13:24:16.000Z</time>
      </trkpt>
      <trkpt lat="44.16779" lon="0.73734">
        <ele>86</ele>
        <time>2024-04-11T13:24:17.000Z</time>
      </trkpt>
      <trkpt lat="44.1678" lon="0.73735">
        <ele>85</ele>
        <time>2024-04-11T13:24:18.000Z</time>
      </trkpt>
      <trkpt lat="44.16781" lon="0.73735">
        <ele>85</ele>
        <time>2024-04-11T13:24:19.000Z</time>
      </trkpt>
      <trkpt lat="44.16782" lon="0.73736">
        <ele>85</ele>
        <time>2024-04-11T13:24:20.000Z</time>
      </trkpt>
      <trkpt lat="44.16783" lon="0.73736">
        <ele>85</ele>
        <time>2024-04-11T13:24:21.000Z</time>
      </trkpt>
      <trkpt lat="44.16784" lon="0.73737">
        <ele>85</ele>
        <time>2024-04-11T13:24:22.000Z</time>
      </trkpt>
      <trkpt lat="44.16785" lon="0.73737">
        <ele>84</ele>
        <time>2024-04-11T13:24:23.000Z</time>
      </trkpt>
      <trkpt lat="44.16786" lon="0.73738">
        <ele>84</ele>
        <time>2024-04-11T13:24:24.000Z</time>
      </trkpt>
      <trkpt lat="44.16787" lon="0.73738">
        <ele>84</ele>
        <time>2024-04-11T13:24:25.000Z</time>
      </trkpt>
      <trkpt lat="44.16788" lon="0.73738">
        <ele>85</ele>
        <time>2024-04-11T13:24:26.000Z</time>
      </trkpt>
      <trkpt lat="44.16789" lon="0.73739">
        <ele>84</ele>
        <time>2024-04-11T13:24:27.000Z</time>
      </trkpt>
      <trkpt lat="44.1679" lon="0.73739">
        <ele>84</ele>
        <time>2024-04-11T13:24:28.000Z</time>
      </trkpt>
      <trkpt lat="44.16792" lon="0.73739">
        <ele>84</ele>
        <time>2024-04-11T13:24:29.000Z</time>
      </trkpt>
      <trkpt lat="44.16793" lon="0.7374">
        <ele>84</ele>
        <time>2024-04-11T13:24:30.000Z</time>
      </trkpt>
      <trkpt lat="44.16794" lon="0.7374">
        <ele>84</ele>
        <time>2024-04-11T13:24:31.000Z</time>
      </trkpt>
      <trkpt lat="44.16795" lon="0.7374">
        <ele>84</ele>
        <time>2024-04-11T13:24:32.000Z</time>
      </trkpt>
      <trkpt lat="44.16796" lon="0.7374">
        <ele>84</ele>
        <time>2024-04-11T13:24:33.000Z</time>
      </trkpt>
      <trkpt lat="44.16797" lon="0.7374">
        <ele>84</ele>
        <time>2024-04-11T13:24:34.000Z</time>
      </trkpt>
      <trkpt lat="44.16798" lon="0.73741">
        <ele>84</ele>
        <time>2024-04-11T13:24:35.000Z</time>
      </trkpt>
      <trkpt lat="44.16799" lon="0.73741">
        <ele>83</ele>
        <time>2024-04-11T13:24:36.000Z</time>
      </trkpt>
      <trkpt lat="44.16801" lon="0.73741">
        <ele>83</ele>
        <time>2024-04-11T13:24:37.000Z</time>
      </trkpt>
      <trkpt lat="44.16802" lon="0.73742">
        <ele>83</ele>
        <time>2024-04-11T13:24:38.000Z</time>
      </trkpt>
      <trkpt lat="44.16803" lon="0.73742">
        <ele>83</ele>
        <time>2024-04-11T13:24:39.000Z</time>
      </trkpt>
      <trkpt lat="44.16804" lon="0.73742">
        <ele>83</ele>
        <time>2024-04-11T13:24:40.000Z</time>
      </trkpt>
      <trkpt lat="44.16805" lon="0.73743">
        <ele>83</ele>
        <time>2024-04-11T13:24:41.000Z</time>
      </trkpt>
      <trkpt lat="44.16806" lon="0.73743">
        <ele>83</ele>
        <time>2024-04-11T13:24:42.000Z</time>
      </trkpt>
      <trkpt lat="44.16807" lon="0.73744">
        <ele>83</ele>
        <time>2024-04-11T13:24:43.000Z</time>
      </trkpt>
      <trkpt lat="44.16808" lon="0.73744">
        <ele>83</ele>
        <time>2024-04-11T13:24:44.000Z</time>
      </trkpt>
      <trkpt lat="44.16809" lon="0.73745">
        <ele>82</ele>
        <time>2024-04-11T13:24:45.000Z</time>
      </trkpt>
      <trkpt lat="44.1681" lon="0.73745">
        <ele>82</ele>
        <time>2024-04-11T13:24:46.000Z</time>
      </trkpt>
      <trkpt lat="44.16811" lon="0.73746">
        <ele>82</ele>
        <time>2024-04-11T13:24:47.000Z</time>
      </trkpt>
      <trkpt lat="44.16812" lon="0.73747">
        <ele>81</ele>
        <time>2024-04-11T13:24:48.000Z</time>
      </trkpt>
      <trkpt lat="44.16813" lon="0.73747">
        <ele>81</ele>
        <time>2024-04-11T13:24:49.000Z</time>
      </trkpt>
      <trkpt lat="44.16814" lon="0.73747">
        <ele>81</ele>
        <time>2024-04-11T13:24:50.000Z</time>
      </trkpt>
      <trkpt lat="44.16815" lon="0.73748">
        <ele>81</ele>
        <time>2024-04-11T13:24:51.000Z</time>
      </trkpt>
      <trkpt lat="44.16816" lon="0.73748">
        <ele>81</ele>
        <time>2024-04-11T13:24:52.000Z</time>
      </trkpt>
      <trkpt lat="44.16817" lon="0.73749">
        <ele>81</ele>
        <time>2024-04-11T13:24:53.000Z</time>
      </trkpt>
      <trkpt lat="44.16818" lon="0.73749">
        <ele>81</ele>
        <time>2024-04-11T13:24:54.000Z</time>
      </trkpt>
      <trkpt lat="44.16819" lon="0.7375">
        <ele>81</ele>
        <time>2024-04-11T13:24:55.000Z</time>
      </trkpt>
      <trkpt lat="44.1682" lon="0.7375">
        <ele>81</ele>
        <time>2024-04-11T13:24:56.000Z</time>
      </trkpt>
      <trkpt lat="44.16821" lon="0.7375">
        <ele>81</ele>
        <time>2024-04-11T13:24:57.000Z</time>
      </trkpt>
      <trkpt lat="44.16822" lon="0.73751">
        <ele>81</ele>
        <time>2024-04-11T13:24:58.000Z</time>
      </trkpt>
      <trkpt lat="44.16823" lon="0.73751">
        <ele>80</ele>
        <time>2024-04-11T13:24:59.000Z</time>
      </trkpt>
      <trkpt lat="44.16824" lon="0.73751">
        <ele>80</ele>
        <time>2024-04-11T13:25:00.000Z</time>
      </trkpt>
      <trkpt lat="44.16825" lon="0.73751">
        <ele>79</ele>
        <time>2024-04-11T13:25:01.000Z</time>
      </trkpt>
      <trkpt lat="44.16826" lon="0.73751">
        <ele>80</ele>
        <time>2024-04-11T13:25:02.000Z</time>
      </trkpt>
      <trkpt lat="44.16827" lon="0.73751">
        <ele>79</ele>
        <time>2024-04-11T13:25:03.000Z</time>
      </trkpt>
      <trkpt lat="44.16828" lon="0.73751">
        <ele>79</ele>
        <time>2024-04-11T13:25:04.000Z</time>
      </trkpt>
      <trkpt lat="44.16829" lon="0.73751">
        <ele>79</ele>
        <time>2024-04-11T13:25:05.000Z</time>
      </trkpt>
      <trkpt lat="44.1683" lon="0.73751">
        <ele>78</ele>
        <time>2024-04-11T13:25:06.000Z</time>
      </trkpt>
      <trkpt lat="44.16831" lon="0.73751">
        <ele>78</ele>
        <time>2024-04-11T13:25:07.000Z</time>
      </trkpt>
      <trkpt lat="44.16832" lon="0.73751">
        <ele>78</ele>
        <time>2024-04-11T13:25:08.000Z</time>
      </trkpt>
      <trkpt lat="44.16833" lon="0.7375">
        <ele>78</ele>
        <time>2024-04-11T13:25:09.000Z</time>
      </trkpt>
      <trkpt lat="44.16833" lon="0.7375">
        <ele>78</ele>
        <time>2024-04-11T13:25:10.000Z</time>
      </trkpt>
      <trkpt lat="44.16834" lon="0.7375">
        <ele>77</ele>
        <time>2024-04-11T13:25:11.000Z</time>
      </trkpt>
      <trkpt lat="44.16834" lon="0.7375">
        <ele>77</ele>
        <time>2024-04-11T13:25:12.000Z</time>
      </trkpt>
      <trkpt lat="44.16835" lon="0.7375">
        <ele>77</ele>
        <time>2024-04-11T13:25:13.000Z</time>
      </trkpt>
      <trkpt lat="44.16835" lon="0.7375">
        <ele>77</ele>
        <time>2024-04-11T13:25:14.000Z</time>
      </trkpt>
      <trkpt lat="44.16836" lon="0.7375">
        <ele>77</ele>
        <time>2024-04-11T13:25:15.000Z</time>
      </trkpt>
      <trkpt lat="44.16836" lon="0.73749">
        <ele>77</ele>
        <time>2024-04-11T13:25:16.000Z</time>
      </trkpt>
      <trkpt lat="44.16837" lon="0.73749">
        <ele>77</ele>
        <time>2024-04-11T13:25:17.000Z</time>
      </trkpt>
      <trkpt lat="44.16837" lon="0.73749">
        <ele>76</ele>
        <time>2024-04-11T13:25:18.000Z</time>
      </trkpt>
      <trkpt lat="44.16838" lon="0.73749">
        <ele>77</ele>
        <time>2024-04-11T13:25:19.000Z</time>
      </trkpt>
      <trkpt lat="44.16839" lon="0.7375">
        <ele>77</ele>
        <time>2024-04-11T13:25:20.000Z</time>
      </trkpt>
      <trkpt lat="44.1684" lon="0.7375">
        <ele>77</ele>
        <time>2024-04-11T13:25:21.000Z</time>
      </trkpt>
      <trkpt lat="44.16841" lon="0.7375">
        <ele>76</ele>
        <time>2024-04-11T13:25:22.000Z</time>
      </trkpt>
      <trkpt lat="44.16843" lon="0.73749">
        <ele>76</ele>
        <time>2024-04-11T13:25:23.000Z</time>
      </trkpt>
      <trkpt lat="44.16844" lon="0.73749">
        <ele>76</ele>
        <time>2024-04-11T13:25:24.000Z</time>
      </trkpt>
      <trkpt lat="44.16845" lon="0.73748">
        <ele>75</ele>
        <time>2024-04-11T13:25:25.000Z</time>
      </trkpt>
      <trkpt lat="44.16846" lon="0.73748">
        <ele>75</ele>
        <time>2024-04-11T13:25:26.000Z</time>
      </trkpt>
      <trkpt lat="44.16848" lon="0.73748">
        <ele>75</ele>
        <time>2024-04-11T13:25:27.000Z</time>
      </trkpt>
      <trkpt lat="44.16849" lon="0.73747">
        <ele>75</ele>
        <time>2024-04-11T13:25:28.000Z</time>
      </trkpt>
      <trkpt lat="44.1685" lon="0.73747">
        <ele>75</ele>
        <time>2024-04-11T13:25:29.000Z</time>
      </trkpt>
      <trkpt lat="44.16851" lon="0.73747">
        <ele>75</ele>
        <time>2024-04-11T13:25:30.000Z</time>
      </trkpt>
      <trkpt lat="44.16852" lon="0.73747">
        <ele>76</ele>
        <time>2024-04-11T13:25:31.000Z</time>
      </trkpt>
      <trkpt lat="44.16853" lon="0.73747">
        <ele>76</ele>
        <time>2024-04-11T13:25:32.000Z</time>
      </trkpt>
      <trkpt lat="44.16854" lon="0.73747">
        <ele>75</ele>
        <time>2024-04-11T13:25:33.000Z</time>
      </trkpt>
      <trkpt lat="44.16855" lon="0.73747">
        <ele>75</ele>
        <time>2024-04-11T13:25:34.000Z</time>
      </trkpt>
      <trkpt lat="44.16856" lon="0.73748">
        <ele>75</ele>
        <time>2024-04-11T13:25:35.000Z</time>
      </trkpt>
      <trkpt lat="44.16857" lon="0.73748">
        <ele>75</ele>
        <time>2024-04-11T13:25:36.000Z</time>
      </trkpt>
      <trkpt lat="44.16858" lon="0.73748">
        <ele>75</ele>
        <time>2024-04-11T13:25:37.000Z</time>
      </trkpt>
      <trkpt lat="44.16859" lon="0.73749">
        <ele>75</ele>
        <time>2024-04-11T13:25:38.000Z</time>
      </trkpt>
      <trkpt lat="44.1686" lon="0.73749">
        <ele>75</ele>
        <time>2024-04-11T13:25:39.000Z</time>
      </trkpt>
      <trkpt lat="44.16861" lon="0.73749">
        <ele>75</ele>
        <time>2024-04-11T13:25:40.000Z</time>
      </trkpt>
      <trkpt lat="44.16862" lon="0.7375">
        <ele>75</ele>
        <time>2024-04-11T13:25:41.000Z</time>
      </trkpt>
      <trkpt lat="44.16863" lon="0.7375">
        <ele>75</ele>
        <time>2024-04-11T13:25:42.000Z</time>
      </trkpt>
      <trkpt lat="44.16863" lon="0.7375">
        <ele>75</ele>
        <time>2024-04-11T13:25:43.000Z</time>
      </trkpt>
      <trkpt lat="44.16864" lon="0.73751">
        <ele>75</ele>
        <time>2024-04-11T13:25:44.000Z</time>
      </trkpt>
      <trkpt lat="44.16865" lon="0.73751">
        <ele>75</ele>
        <time>2024-04-11T13:25:45.000Z</time>
      </trkpt>
      <trkpt lat="44.16866" lon="0.73752">
        <ele>75</ele>
        <time>2024-04-11T13:25:46.000Z</time>
      </trkpt>
      <trkpt lat="44.16867" lon="0.73752">
        <ele>75</ele>
        <time>2024-04-11T13:25:47.000Z</time>
      </trkpt>
      <trkpt lat="44.16868" lon="0.73753">
        <ele>75</ele>
        <time>2024-04-11T13:25:48.000Z</time>
      </trkpt>
      <trkpt lat="44.16869" lon="0.73753">
        <ele>74</ele>
        <time>2024-04-11T13:25:49.000Z</time>
      </trkpt>
      <trkpt lat="44.1687" lon="0.73753">
        <ele>74</ele>
        <time>2024-04-11T13:25:50.000Z</time>
      </trkpt>
      <trkpt lat="44.16871" lon="0.73754">
        <ele>74</ele>
        <time>2024-04-11T13:25:51.000Z</time>
      </trkpt>
      <trkpt lat="44.16872" lon="0.73755">
        <ele>74</ele>
        <time>2024-04-11T13:25:52.000Z</time>
      </trkpt>
      <trkpt lat="44.16873" lon="0.73755">
        <ele>74</ele>
        <time>2024-04-11T13:25:53.000Z</time>
      </trkpt>
      <trkpt lat="44.16874" lon="0.73756">
        <ele>75</ele>
        <time>2024-04-11T13:25:54.000Z</time>
      </trkpt>
      <trkpt lat="44.16874" lon="0.73756">
        <ele>75</ele>
        <time>2024-04-11T13:25:55.000Z</time>
      </trkpt>
      <trkpt lat="44.16875" lon="0.73757">
        <ele>75</ele>
        <time>2024-04-11T13:25:56.000Z</time>
      </trkpt>
      <trkpt lat="44.16876" lon="0.73757">
        <ele>75</ele>
        <time>2024-04-11T13:25:57.000Z</time>
      </trkpt>
      <trkpt lat="44.16876" lon="0.73758">
        <ele>75</ele>
        <time>2024-04-11T13:25:58.000Z</time>
      </trkpt>
      <trkpt lat="44.16877" lon="0.73758">
        <ele>75</ele>
        <time>2024-04-11T13:25:59.000Z</time>
      </trkpt>
      <trkpt lat="44.16878" lon="0.73759">
        <ele>75</ele>
        <time>2024-04-11T13:26:00.000Z</time>
      </trkpt>
      <trkpt lat="44.16878" lon="0.73759">
        <ele>75</ele>
        <time>2024-04-11T13:26:01.000Z</time>
      </trkpt>
      <trkpt lat="44.16879" lon="0.7376">
        <ele>74</ele>
        <time>2024-04-11T13:26:02.000Z</time>
      </trkpt>
      <trkpt lat="44.1688" lon="0.7376">
        <ele>74</ele>
        <time>2024-04-11T13:26:03.000Z</time>
      </trkpt>
      <trkpt lat="44.16881" lon="0.73761">
        <ele>74</ele>
        <time>2024-04-11T13:26:04.000Z</time>
      </trkpt>
      <trkpt lat="44.16882" lon="0.73761">
        <ele>74</ele>
        <time>2024-04-11T13:26:05.000Z</time>
      </trkpt>
      <trkpt lat="44.16882" lon="0.73762">
        <ele>74</ele>
        <time>2024-04-11T13:26:06.000Z</time>
      </trkpt>
      <trkpt lat="44.16884" lon="0.73763">
        <ele>73</ele>
        <time>2024-04-11T13:26:07.000Z</time>
      </trkpt>
      <trkpt lat="44.16885" lon="0.73765">
        <ele>74</ele>
        <time>2024-04-11T13:26:08.000Z</time>
      </trkpt>
      <trkpt lat="44.16886" lon="0.73766">
        <ele>74</ele>
        <time>2024-04-11T13:26:09.000Z</time>
      </trkpt>
      <trkpt lat="44.16887" lon="0.73767">
        <ele>74</ele>
        <time>2024-04-11T13:26:10.000Z</time>
      </trkpt>
      <trkpt lat="44.16887" lon="0.73768">
        <ele>74</ele>
        <time>2024-04-11T13:26:11.000Z</time>
      </trkpt>
      <trkpt lat="44.16888" lon="0.73769">
        <ele>73</ele>
        <time>2024-04-11T13:26:12.000Z</time>
      </trkpt>
      <trkpt lat="44.16889" lon="0.7377">
        <ele>73</ele>
        <time>2024-04-11T13:26:13.000Z</time>
      </trkpt>
      <trkpt lat="44.1689" lon="0.73771">
        <ele>73</ele>
        <time>2024-04-11T13:26:14.000Z</time>
      </trkpt>
      <trkpt lat="44.16891" lon="0.73772">
        <ele>73</ele>
        <time>2024-04-11T13:26:15.000Z</time>
      </trkpt>
      <trkpt lat="44.16892" lon="0.73774">
        <ele>73</ele>
        <time>2024-04-11T13:26:16.000Z</time>
      </trkpt>
      <trkpt lat="44.16893" lon="0.73775">
        <ele>73</ele>
        <time>2024-04-11T13:26:17.000Z</time>
      </trkpt>
      <trkpt lat="44.16894" lon="0.73776">
        <ele>73</ele>
        <time>2024-04-11T13:26:18.000Z</time>
      </trkpt>
      <trkpt lat="44.16895" lon="0.73777">
        <ele>72</ele>
        <time>2024-04-11T13:26:19.000Z</time>
      </trkpt>
      <trkpt lat="44.16895" lon="0.73778">
        <ele>72</ele>
        <time>2024-04-11T13:26:20.000Z</time>
      </trkpt>
      <trkpt lat="44.16896" lon="0.73779">
        <ele>72</ele>
        <time>2024-04-11T13:26:21.000Z</time>
      </trkpt>
      <trkpt lat="44.16897" lon="0.7378">
        <ele>72</ele>
        <time>2024-04-11T13:26:22.000Z</time>
      </trkpt>
      <trkpt lat="44.16898" lon="0.73781">
        <ele>72</ele>
        <time>2024-04-11T13:26:23.000Z</time>
      </trkpt>
      <trkpt lat="44.16899" lon="0.73782">
        <ele>72</ele>
        <time>2024-04-11T13:26:24.000Z</time>
      </trkpt>
      <trkpt lat="44.169" lon="0.73783">
        <ele>72</ele>
        <time>2024-04-11T13:26:25.000Z</time>
      </trkpt>
      <trkpt lat="44.16901" lon="0.73784">
        <ele>72</ele>
        <time>2024-04-11T13:26:26.000Z</time>
      </trkpt>
      <trkpt lat="44.16901" lon="0.73785">
        <ele>72</ele>
        <time>2024-04-11T13:26:27.000Z</time>
      </trkpt>
      <trkpt lat="44.16902" lon="0.73786">
        <ele>72</ele>
        <time>2024-04-11T13:26:28.000Z</time>
      </trkpt>
      <trkpt lat="44.16903" lon="0.73787">
        <ele>72</ele>
        <time>2024-04-11T13:26:29.000Z</time>
      </trkpt>
      <trkpt lat="44.16904" lon="0.73788">
        <ele>72</ele>
        <time>2024-04-11T13:26:30.000Z</time>
      </trkpt>
      <trkpt lat="44.16904" lon="0.73788">
        <ele>72</ele>
        <time>2024-04-11T13:26:31.000Z</time>
      </trkpt>
      <trkpt lat="44.16905" lon="0.73789">
        <ele>73</ele>
        <time>2024-04-11T13:26:32.000Z</time>
      </trkpt>
      <trkpt lat="44.16906" lon="0.7379">
        <ele>72</ele>
        <time>2024-04-11T13:26:33.000Z</time>
      </trkpt>
      <trkpt lat="44.16906" lon="0.7379">
        <ele>72</ele>
        <time>2024-04-11T13:26:34.000Z</time>
      </trkpt>
      <trkpt lat="44.16907" lon="0.73791">
        <ele>72</ele>
        <time>2024-04-11T13:26:35.000Z</time>
      </trkpt>
      <trkpt lat="44.16907" lon="0.73792">
        <ele>72</ele>
        <time>2024-04-11T13:26:36.000Z</time>
      </trkpt>
      <trkpt lat="44.16908" lon="0.73792">
        <ele>72</ele>
        <time>2024-04-11T13:26:37.000Z</time>
      </trkpt>
      <trkpt lat="44.16908" lon="0.73793">
        <ele>72</ele>
        <time>2024-04-11T13:26:38.000Z</time>
      </trkpt>
      <trkpt lat="44.16908" lon="0.73793">
        <ele>71</ele>
        <time>2024-04-11T13:26:39.000Z</time>
      </trkpt>
      <trkpt lat="44.16908" lon="0.73794">
        <ele>71</ele>
        <time>2024-04-11T13:26:40.000Z</time>
      </trkpt>
      <trkpt lat="44.16909" lon="0.73795">
        <ele>71</ele>
        <time>2024-04-11T13:26:41.000Z</time>
      </trkpt>
      <trkpt lat="44.16909" lon="0.73795">
        <ele>71</ele>
        <time>2024-04-11T13:26:42.000Z</time>
      </trkpt>
      <trkpt lat="44.16909" lon="0.73795">
        <ele>71</ele>
        <time>2024-04-11T13:26:43.000Z</time>
      </trkpt>
      <trkpt lat="44.16909" lon="0.73795">
        <ele>70</ele>
        <time>2024-04-11T13:26:44.000Z</time>
      </trkpt>
      <trkpt lat="44.16909" lon="0.73795">
        <ele>69</ele>
        <time>2024-04-11T13:26:45.000Z</time>
      </trkpt>
      <trkpt lat="44.16909" lon="0.73795">
        <ele>69</ele>
        <time>2024-04-11T13:26:46.000Z</time>
      </trkpt>
      <trkpt lat="44.16909" lon="0.73795">
        <ele>69</ele>
        <time>2024-04-11T13:26:47.000Z</time>
      </trkpt>
      <trkpt lat="44.16909" lon="0.73795">
        <ele>69</ele>
        <time>2024-04-11T13:26:48.000Z</time>
      </trkpt>
      <trkpt lat="44.16909" lon="0.73795">
        <ele>69</ele>
        <time>2024-04-11T13:26:49.000Z</time>
      </trkpt>
      <trkpt lat="44.16909" lon="0.73795">
        <ele>69</ele>
        <time>2024-04-11T13:26:50.000Z</time>
      </trkpt>
      <trkpt lat="44.16909" lon="0.73795">
        <ele>69</ele>
        <time>2024-04-11T13:26:51.000Z</time>
      </trkpt>
      <trkpt lat="44.16909" lon="0.73795">
        <ele>69</ele>
        <time>2024-04-11T13:26:52.000Z</time>
      </trkpt>
      <trkpt lat="44.16909" lon="0.73795">
        <ele>69</ele>
        <time>2024-04-11T13:26:53.000Z</time>
      </trkpt>
      <trkpt lat="44.16909" lon="0.73795">
        <ele>69</ele>
        <time>2024-04-11T13:26:54.000Z</time>
      </trkpt>
      <trkpt lat="44.16909" lon="0.73795">
        <ele>69</ele>
        <time>2024-04-11T13:26:55.000Z</time>
      </trkpt>
      <trkpt lat="44.16909" lon="0.73795">
        <ele>68</ele>
        <time>2024-04-11T13:26:56.000Z</time>
      </trkpt>
      <trkpt lat="44.16909" lon="0.73795">
        <ele>68</ele>
        <time>2024-04-11T13:26:57.000Z</time>
      </trkpt>
      <trkpt lat="44.16909" lon="0.73794">
        <ele>68</ele>
        <time>2024-04-11T13:26:58.000Z</time>
      </trkpt>
      <trkpt lat="44.16909" lon="0.73794">
        <ele>68</ele>
        <time>2024-04-11T13:26:59.000Z</time>
      </trkpt>
      <trkpt lat="44.16909" lon="0.73794">
        <ele>68</ele>
        <time>2024-04-11T13:27:00.000Z</time>
      </trkpt>
      <trkpt lat="44.16909" lon="0.73794">
        <ele>68</ele>
        <time>2024-04-11T13:27:01.000Z</time>
      </trkpt>
      <trkpt lat="44.16909" lon="0.73794">
        <ele>68</ele>
        <time>2024-04-11T13:27:02.000Z</time>
      </trkpt>
      <trkpt lat="44.16909" lon="0.73794">
        <ele>68</ele>
        <time>2024-04-11T13:27:03.000Z</time>
      </trkpt>
      <trkpt lat="44.16909" lon="0.73794">
        <ele>69</ele>
        <time>2024-04-11T13:27:04.000Z</time>
      </trkpt>
      <trkpt lat="44.16909" lon="0.73795">
        <ele>69</ele>
        <time>2024-04-11T13:27:05.000Z</time>
      </trkpt>
      <trkpt lat="44.16909" lon="0.73795">
        <ele>69</ele>
        <time>2024-04-11T13:27:06.000Z</time>
      </trkpt>
      <trkpt lat="44.16909" lon="0.73795">
        <ele>69</ele>
        <time>2024-04-11T13:27:07.000Z</time>
      </trkpt>
      <trkpt lat="44.16909" lon="0.73795">
        <ele>69</ele>
        <time>2024-04-11T13:27:08.000Z</time>
      </trkpt>
      <trkpt lat="44.16909" lon="0.73795">
        <ele>70</ele>
        <time>2024-04-11T13:27:09.000Z</time>
      </trkpt>
      <trkpt lat="44.16909" lon="0.73795">
        <ele>70</ele>
        <time>2024-04-11T13:27:10.000Z</time>
      </trkpt>
      <trkpt lat="44.16909" lon="0.73795">
        <ele>70</ele>
        <time>2024-04-11T13:27:11.000Z</time>
      </trkpt>
      <trkpt lat="44.16909" lon="0.73795">
        <ele>71</ele>
        <time>2024-04-11T13:27:12.000Z</time>
      </trkpt>
      <trkpt lat="44.16909" lon="0.73795">
        <ele>71</ele>
        <time>2024-04-11T13:27:13.000Z</time>
      </trkpt>
      <trkpt lat="44.16909" lon="0.73796">
        <ele>71</ele>
        <time>2024-04-11T13:27:14.000Z</time>
      </trkpt>
      <trkpt lat="44.16909" lon="0.73796">
        <ele>71</ele>
        <time>2024-04-11T13:27:15.000Z</time>
      </trkpt>
      <trkpt lat="44.1691" lon="0.73796">
        <ele>71</ele>
        <time>2024-04-11T13:27:16.000Z</time>
      </trkpt>
      <trkpt lat="44.1691" lon="0.73796">
        <ele>71</ele>
        <time>2024-04-11T13:27:17.000Z</time>
      </trkpt>
      <trkpt lat="44.1691" lon="0.73796">
        <ele>71</ele>
        <time>2024-04-11T13:27:18.000Z</time>
      </trkpt>
      <trkpt lat="44.1691" lon="0.73796">
        <ele>71</ele>
        <time>2024-04-11T13:27:19.000Z</time>
      </trkpt>
      <trkpt lat="44.1691" lon="0.73796">
        <ele>71</ele>
        <time>2024-04-11T13:27:20.000Z</time>
      </trkpt>
      <trkpt lat="44.1691" lon="0.73796">
        <ele>71</ele>
        <time>2024-04-11T13:27:21.000Z</time>
      </trkpt>
      <trkpt lat="44.1691" lon="0.73796">
        <ele>71</ele>
        <time>2024-04-11T13:27:22.000Z</time>
      </trkpt>
      <trkpt lat="44.1691" lon="0.73796">
        <ele>71</ele>
        <time>2024-04-11T13:27:23.000Z</time>
      </trkpt>
      <trkpt lat="44.1691" lon="0.73796">
        <ele>71</ele>
        <time>2024-04-11T13:27:24.000Z</time>
      </trkpt>
      <trkpt lat="44.1691" lon="0.73796">
        <ele>71</ele>
        <time>2024-04-11T13:27:25.000Z</time>
      </trkpt>
      <trkpt lat="44.1691" lon="0.73796">
        <ele>71</ele>
        <time>2024-04-11T13:27:26.000Z</time>
      </trkpt>
      <trkpt lat="44.1691" lon="0.73796">
        <ele>70</ele>
        <time>2024-04-11T13:27:27.000Z</time>
      </trkpt>
      <trkpt lat="44.1691" lon="0.73795">
        <ele>70</ele>
        <time>2024-04-11T13:27:28.000Z</time>
      </trkpt>
      <trkpt lat="44.1691" lon="0.73795">
        <ele>70</ele>
        <time>2024-04-11T13:27:29.000Z</time>
      </trkpt>
      <trkpt lat="44.1691" lon="0.73795">
        <ele>70</ele>
        <time>2024-04-11T13:27:30.000Z</time>
      </trkpt>
      <trkpt lat="44.16909" lon="0.73795">
        <ele>69</ele>
        <time>2024-04-11T13:27:31.000Z</time>
      </trkpt>
      <trkpt lat="44.16909" lon="0.73795">
        <ele>68</ele>
        <time>2024-04-11T13:27:32.000Z</time>
      </trkpt>
      <trkpt lat="44.16909" lon="0.73795">
        <ele>68</ele>
        <time>2024-04-11T13:27:33.000Z</time>
      </trkpt>
      <trkpt lat="44.16909" lon="0.73795">
        <ele>68</ele>
        <time>2024-04-11T13:27:34.000Z</time>
      </trkpt>
      <trkpt lat="44.16909" lon="0.73795">
        <ele>67</ele>
        <time>2024-04-11T13:27:35.000Z</time>
      </trkpt>
      <trkpt lat="44.16909" lon="0.73795">
        <ele>67</ele>
        <time>2024-04-11T13:27:36.000Z</time>
      </trkpt>
      <trkpt lat="44.16909" lon="0.73795">
        <ele>67</ele>
        <time>2024-04-11T13:27:37.000Z</time>
      </trkpt>
      <trkpt lat="44.16909" lon="0.73795">
        <ele>67</ele>
        <time>2024-04-11T13:27:38.000Z</time>
      </trkpt>
      <trkpt lat="44.16909" lon="0.73795">
        <ele>67</ele>
        <time>2024-04-11T13:27:39.000Z</time>
      </trkpt>
      <trkpt lat="44.16909" lon="0.73796">
        <ele>67</ele>
        <time>2024-04-11T13:27:40.000Z</time>
      </trkpt>
      <trkpt lat="44.16909" lon="0.73796">
        <ele>67</ele>
        <time>2024-04-11T13:27:41.000Z</time>
      </trkpt>
      <trkpt lat="44.16909" lon="0.73796">
        <ele>67</ele>
        <time>2024-04-11T13:27:42.000Z</time>
      </trkpt>
      <trkpt lat="44.16909" lon="0.73796">
        <ele>67</ele>
        <time>2024-04-11T13:27:43.000Z</time>
      </trkpt>
      <trkpt lat="44.16909" lon="0.73796">
        <ele>67</ele>
        <time>2024-04-11T13:27:44.000Z</time>
      </trkpt>
      <trkpt lat="44.16909" lon="0.73796">
        <ele>67</ele>
        <time>2024-04-11T13:27:45.000Z</time>
      </trkpt>
      <trkpt lat="44.16909" lon="0.73796">
        <ele>67</ele>
        <time>2024-04-11T13:27:46.000Z</time>
      </trkpt>
      <trkpt lat="44.16909" lon="0.73796">
        <ele>67</ele>
        <time>2024-04-11T13:27:47.000Z</time>
      </trkpt>
      <trkpt lat="44.16909" lon="0.73796">
        <ele>67</ele>
        <time>2024-04-11T13:27:48.000Z</time>
      </trkpt>
      <trkpt lat="44.16909" lon="0.73797">
        <ele>67</ele>
        <time>2024-04-11T13:27:49.000Z</time>
      </trkpt>
      <trkpt lat="44.16909" lon="0.73797">
        <ele>67</ele>
        <time>2024-04-11T13:27:50.000Z</time>
      </trkpt>
      <trkpt lat="44.16909" lon="0.73797">
        <ele>67</ele>
        <time>2024-04-11T13:27:51.000Z</time>
      </trkpt>
      <trkpt lat="44.16909" lon="0.73797">
        <ele>66</ele>
        <time>2024-04-11T13:27:52.000Z</time>
      </trkpt>
      <trkpt lat="44.16909" lon="0.73797">
        <ele>66</ele>
        <time>2024-04-11T13:27:53.000Z</time>
      </trkpt>
      <trkpt lat="44.16909" lon="0.73797">
        <ele>66</ele>
        <time>2024-04-11T13:27:54.000Z</time>
      </trkpt>
      <trkpt lat="44.16909" lon="0.73797">
        <ele>66</ele>
        <time>2024-04-11T13:27:55.000Z</time>
      </trkpt>
      <trkpt lat="44.16909" lon="0.73797">
        <ele>66</ele>
        <time>2024-04-11T13:27:56.000Z</time>
      </trkpt>
      <trkpt lat="44.16909" lon="0.73797">
        <ele>66</ele>
        <time>2024-04-11T13:27:57.000Z</time>
      </trkpt>
      <trkpt lat="44.16909" lon="0.73797">
        <ele>66</ele>
        <time>2024-04-11T13:27:58.000Z</time>
      </trkpt>
      <trkpt lat="44.1691" lon="0.73797">
        <ele>66</ele>
        <time>2024-04-11T13:27:59.000Z</time>
      </trkpt>
      <trkpt lat="44.16909" lon="0.73797">
        <ele>66</ele>
        <time>2024-04-11T13:28:00.000Z</time>
      </trkpt>
      <trkpt lat="44.16909" lon="0.73797">
        <ele>66</ele>
        <time>2024-04-11T13:28:01.000Z</time>
      </trkpt>
      <trkpt lat="44.16909" lon="0.73797">
        <ele>66</ele>
        <time>2024-04-11T13:28:02.000Z</time>
      </trkpt>
      <trkpt lat="44.16909" lon="0.73797">
        <ele>67</ele>
        <time>2024-04-11T13:28:03.000Z</time>
      </trkpt>
      <trkpt lat="44.16909" lon="0.73797">
        <ele>67</ele>
        <time>2024-04-11T13:28:04.000Z</time>
      </trkpt>
      <trkpt lat="44.16909" lon="0.73797">
        <ele>67</ele>
        <time>2024-04-11T13:28:05.000Z</time>
      </trkpt>
      <trkpt lat="44.16909" lon="0.73797">
        <ele>67</ele>
        <time>2024-04-11T13:28:06.000Z</time>
      </trkpt>
      <trkpt lat="44.16909" lon="0.73798">
        <ele>68</ele>
        <time>2024-04-11T13:28:07.000Z</time>
      </trkpt>
      <trkpt lat="44.16909" lon="0.73798">
        <ele>68</ele>
        <time>2024-04-11T13:28:08.000Z</time>
      </trkpt>
      <trkpt lat="44.16909" lon="0.73799">
        <ele>68</ele>
        <time>2024-04-11T13:28:09.000Z</time>
      </trkpt>
      <trkpt lat="44.16909" lon="0.73799">
        <ele>68</ele>
        <time>2024-04-11T13:28:10.000Z</time>
      </trkpt>
      <trkpt lat="44.16909" lon="0.738">
        <ele>68</ele>
        <time>2024-04-11T13:28:11.000Z</time>
      </trkpt>
      <trkpt lat="44.16909" lon="0.73801">
        <ele>68</ele>
        <time>2024-04-11T13:28:12.000Z</time>
      </trkpt>
      <trkpt lat="44.16909" lon="0.73802">
        <ele>68</ele>
        <time>2024-04-11T13:28:13.000Z</time>
      </trkpt>
      <trkpt lat="44.16909" lon="0.73802">
        <ele>68</ele>
        <time>2024-04-11T13:28:14.000Z</time>
      </trkpt>
      <trkpt lat="44.16909" lon="0.73803">
        <ele>68</ele>
        <time>2024-04-11T13:28:15.000Z</time>
      </trkpt>
      <trkpt lat="44.16909" lon="0.73804">
        <ele>68</ele>
        <time>2024-04-11T13:28:16.000Z</time>
      </trkpt>
      <trkpt lat="44.16909" lon="0.73805">
        <ele>68</ele>
        <time>2024-04-11T13:28:17.000Z</time>
      </trkpt>
      <trkpt lat="44.16908" lon="0.73805">
        <ele>68</ele>
        <time>2024-04-11T13:28:18.000Z</time>
      </trkpt>
      <trkpt lat="44.16908" lon="0.73805">
        <ele>68</ele>
        <time>2024-04-11T13:28:19.000Z</time>
      </trkpt>
      <trkpt lat="44.16907" lon="0.73806">
        <ele>68</ele>
        <time>2024-04-11T13:28:20.000Z</time>
      </trkpt>
      <trkpt lat="44.16906" lon="0.73806">
        <ele>68</ele>
        <time>2024-04-11T13:28:21.000Z</time>
      </trkpt>
      <trkpt lat="44.16906" lon="0.73806">
        <ele>68</ele>
        <time>2024-04-11T13:28:22.000Z</time>
      </trkpt>
      <trkpt lat="44.16905" lon="0.73806">
        <ele>68</ele>
        <time>2024-04-11T13:28:23.000Z</time>
      </trkpt>
      <trkpt lat="44.16904" lon="0.73807">
        <ele>68</ele>
        <time>2024-04-11T13:28:24.000Z</time>
      </trkpt>
      <trkpt lat="44.16903" lon="0.73807">
        <ele>67</ele>
        <time>2024-04-11T13:28:25.000Z</time>
      </trkpt>
      <trkpt lat="44.16902" lon="0.73807">
        <ele>67</ele>
        <time>2024-04-11T13:28:26.000Z</time>
      </trkpt>
      <trkpt lat="44.16901" lon="0.73808">
        <ele>67</ele>
        <time>2024-04-11T13:28:27.000Z</time>
      </trkpt>
      <trkpt lat="44.16901" lon="0.73808">
        <ele>67</ele>
        <time>2024-04-11T13:28:28.000Z</time>
      </trkpt>
      <trkpt lat="44.169" lon="0.73809">
        <ele>67</ele>
        <time>2024-04-11T13:28:29.000Z</time>
      </trkpt>
      <trkpt lat="44.16899" lon="0.73809">
        <ele>67</ele>
        <time>2024-04-11T13:28:30.000Z</time>
      </trkpt>
      <trkpt lat="44.16898" lon="0.7381">
        <ele>67</ele>
        <time>2024-04-11T13:28:31.000Z</time>
      </trkpt>
      <trkpt lat="44.16897" lon="0.7381">
        <ele>67</ele>
        <time>2024-04-11T13:28:32.000Z</time>
      </trkpt>
      <trkpt lat="44.16896" lon="0.7381">
        <ele>67</ele>
        <time>2024-04-11T13:28:33.000Z</time>
      </trkpt>
      <trkpt lat="44.16895" lon="0.73811">
        <ele>67</ele>
        <time>2024-04-11T13:28:34.000Z</time>
      </trkpt>
      <trkpt lat="44.16894" lon="0.73811">
        <ele>66</ele>
        <time>2024-04-11T13:28:35.000Z</time>
      </trkpt>
      <trkpt lat="44.16893" lon="0.73812">
        <ele>66</ele>
        <time>2024-04-11T13:28:36.000Z</time>
      </trkpt>
      <trkpt lat="44.16892" lon="0.73813">
        <ele>67</ele>
        <time>2024-04-11T13:28:37.000Z</time>
      </trkpt>
      <trkpt lat="44.16891" lon="0.73813">
        <ele>66</ele>
        <time>2024-04-11T13:28:38.000Z</time>
      </trkpt>
      <trkpt lat="44.1689" lon="0.73814">
        <ele>66</ele>
        <time>2024-04-11T13:28:39.000Z</time>
      </trkpt>
      <trkpt lat="44.1689" lon="0.73814">
        <ele>67</ele>
        <time>2024-04-11T13:28:40.000Z</time>
      </trkpt>
      <trkpt lat="44.16889" lon="0.73815">
        <ele>67</ele>
        <time>2024-04-11T13:28:41.000Z</time>
      </trkpt>
      <trkpt lat="44.16888" lon="0.73815">
        <ele>67</ele>
        <time>2024-04-11T13:28:42.000Z</time>
      </trkpt>
      <trkpt lat="44.16887" lon="0.73816">
        <ele>67</ele>
        <time>2024-04-11T13:28:43.000Z</time>
      </trkpt>
      <trkpt lat="44.16887" lon="0.73816">
        <ele>66</ele>
        <time>2024-04-11T13:28:44.000Z</time>
      </trkpt>
      <trkpt lat="44.16886" lon="0.73816">
        <ele>66</ele>
        <time>2024-04-11T13:28:45.000Z</time>
      </trkpt>
      <trkpt lat="44.16885" lon="0.73817">
        <ele>66</ele>
        <time>2024-04-11T13:28:46.000Z</time>
      </trkpt>
      <trkpt lat="44.16884" lon="0.73817">
        <ele>66</ele>
        <time>2024-04-11T13:28:47.000Z</time>
      </trkpt>
      <trkpt lat="44.16883" lon="0.73818">
        <ele>66</ele>
        <time>2024-04-11T13:28:48.000Z</time>
      </trkpt>
      <trkpt lat="44.16882" lon="0.73818">
        <ele>66</ele>
        <time>2024-04-11T13:28:49.000Z</time>
      </trkpt>
      <trkpt lat="44.16881" lon="0.73819">
        <ele>66</ele>
        <time>2024-04-11T13:28:50.000Z</time>
      </trkpt>
      <trkpt lat="44.1688" lon="0.7382">
        <ele>66</ele>
        <time>2024-04-11T13:28:51.000Z</time>
      </trkpt>
      <trkpt lat="44.16879" lon="0.7382">
        <ele>66</ele>
        <time>2024-04-11T13:28:52.000Z</time>
      </trkpt>
      <trkpt lat="44.16879" lon="0.73821">
        <ele>67</ele>
        <time>2024-04-11T13:28:53.000Z</time>
      </trkpt>
      <trkpt lat="44.16878" lon="0.73821">
        <ele>67</ele>
        <time>2024-04-11T13:28:54.000Z</time>
      </trkpt>
      <trkpt lat="44.16876" lon="0.73821">
        <ele>67</ele>
        <time>2024-04-11T13:28:55.000Z</time>
      </trkpt>
      <trkpt lat="44.16875" lon="0.73821">
        <ele>66</ele>
        <time>2024-04-11T13:28:56.000Z</time>
      </trkpt>
      <trkpt lat="44.16874" lon="0.73822">
        <ele>67</ele>
        <time>2024-04-11T13:28:57.000Z</time>
      </trkpt>
      <trkpt lat="44.16873" lon="0.73823">
        <ele>67</ele>
        <time>2024-04-11T13:28:58.000Z</time>
      </trkpt>
      <trkpt lat="44.16873" lon="0.73823">
        <ele>67</ele>
        <time>2024-04-11T13:28:59.000Z</time>
      </trkpt>
      <trkpt lat="44.16872" lon="0.73825">
        <ele>67</ele>
        <time>2024-04-11T13:29:00.000Z</time>
      </trkpt>
      <trkpt lat="44.16871" lon="0.73825">
        <ele>68</ele>
        <time>2024-04-11T13:29:01.000Z</time>
      </trkpt>
      <trkpt lat="44.1687" lon="0.73826">
        <ele>68</ele>
        <time>2024-04-11T13:29:02.000Z</time>
      </trkpt>
      <trkpt lat="44.16869" lon="0.73827">
        <ele>67</ele>
        <time>2024-04-11T13:29:03.000Z</time>
      </trkpt>
      <trkpt lat="44.16869" lon="0.73829">
        <ele>67</ele>
        <time>2024-04-11T13:29:04.000Z</time>
      </trkpt>
      <trkpt lat="44.16868" lon="0.7383">
        <ele>68</ele>
        <time>2024-04-11T13:29:05.000Z</time>
      </trkpt>
      <trkpt lat="44.16867" lon="0.73831">
        <ele>67</ele>
        <time>2024-04-11T13:29:06.000Z</time>
      </trkpt>
      <trkpt lat="44.16867" lon="0.73832">
        <ele>67</ele>
        <time>2024-04-11T13:29:07.000Z</time>
      </trkpt>
      <trkpt lat="44.16866" lon="0.73833">
        <ele>68</ele>
        <time>2024-04-11T13:29:08.000Z</time>
      </trkpt>
      <trkpt lat="44.16865" lon="0.73834">
        <ele>67</ele>
        <time>2024-04-11T13:29:09.000Z</time>
      </trkpt>
      <trkpt lat="44.16865" lon="0.73835">
        <ele>67</ele>
        <time>2024-04-11T13:29:10.000Z</time>
      </trkpt>
      <trkpt lat="44.16864" lon="0.73836">
        <ele>67</ele>
        <time>2024-04-11T13:29:11.000Z</time>
      </trkpt>
      <trkpt lat="44.16863" lon="0.73837">
        <ele>67</ele>
        <time>2024-04-11T13:29:12.000Z</time>
      </trkpt>
      <trkpt lat="44.16862" lon="0.73837">
        <ele>67</ele>
        <time>2024-04-11T13:29:13.000Z</time>
      </trkpt>
      <trkpt lat="44.16862" lon="0.73838">
        <ele>67</ele>
        <time>2024-04-11T13:29:14.000Z</time>
      </trkpt>
      <trkpt lat="44.16861" lon="0.73839">
        <ele>67</ele>
        <time>2024-04-11T13:29:15.000Z</time>
      </trkpt>
      <trkpt lat="44.1686" lon="0.7384">
        <ele>67</ele>
        <time>2024-04-11T13:29:16.000Z</time>
      </trkpt>
      <trkpt lat="44.16859" lon="0.73841">
        <ele>67</ele>
        <time>2024-04-11T13:29:17.000Z</time>
      </trkpt>
      <trkpt lat="44.16859" lon="0.73842">
        <ele>67</ele>
        <time>2024-04-11T13:29:18.000Z</time>
      </trkpt>
      <trkpt lat="44.16858" lon="0.73843">
        <ele>68</ele>
        <time>2024-04-11T13:29:19.000Z</time>
      </trkpt>
      <trkpt lat="44.16857" lon="0.73843">
        <ele>68</ele>
        <time>2024-04-11T13:29:20.000Z</time>
      </trkpt>
      <trkpt lat="44.16857" lon="0.73844">
        <ele>67</ele>
        <time>2024-04-11T13:29:21.000Z</time>
      </trkpt>
      <trkpt lat="44.16856" lon="0.73845">
        <ele>68</ele>
        <time>2024-04-11T13:29:22.000Z</time>
      </trkpt>
      <trkpt lat="44.16855" lon="0.73846">
        <ele>68</ele>
        <time>2024-04-11T13:29:23.000Z</time>
      </trkpt>
      <trkpt lat="44.16854" lon="0.73847">
        <ele>69</ele>
        <time>2024-04-11T13:29:24.000Z</time>
      </trkpt>
      <trkpt lat="44.16854" lon="0.73848">
        <ele>70</ele>
        <time>2024-04-11T13:29:25.000Z</time>
      </trkpt>
      <trkpt lat="44.16853" lon="0.73849">
        <ele>70</ele>
        <time>2024-04-11T13:29:26.000Z</time>
      </trkpt>
      <trkpt lat="44.16852" lon="0.7385">
        <ele>70</ele>
        <time>2024-04-11T13:29:27.000Z</time>
      </trkpt>
      <trkpt lat="44.16851" lon="0.7385">
        <ele>70</ele>
        <time>2024-04-11T13:29:28.000Z</time>
      </trkpt>
      <trkpt lat="44.1685" lon="0.73851">
        <ele>71</ele>
        <time>2024-04-11T13:29:29.000Z</time>
      </trkpt>
      <trkpt lat="44.1685" lon="0.73852">
        <ele>71</ele>
        <time>2024-04-11T13:29:30.000Z</time>
      </trkpt>
      <trkpt lat="44.16849" lon="0.73853">
        <ele>71</ele>
        <time>2024-04-11T13:29:31.000Z</time>
      </trkpt>
      <trkpt lat="44.16848" lon="0.73853">
        <ele>72</ele>
        <time>2024-04-11T13:29:32.000Z</time>
      </trkpt>
      <trkpt lat="44.16848" lon="0.73854">
        <ele>72</ele>
        <time>2024-04-11T13:29:33.000Z</time>
      </trkpt>
      <trkpt lat="44.16847" lon="0.73855">
        <ele>73</ele>
        <time>2024-04-11T13:29:34.000Z</time>
      </trkpt>
      <trkpt lat="44.16846" lon="0.73856">
        <ele>73</ele>
        <time>2024-04-11T13:29:35.000Z</time>
      </trkpt>
      <trkpt lat="44.16845" lon="0.73857">
        <ele>73</ele>
        <time>2024-04-11T13:29:36.000Z</time>
      </trkpt>
      <trkpt lat="44.16844" lon="0.73857">
        <ele>73</ele>
        <time>2024-04-11T13:29:37.000Z</time>
      </trkpt>
      <trkpt lat="44.16844" lon="0.73858">
        <ele>73</ele>
        <time>2024-04-11T13:29:38.000Z</time>
      </trkpt>
      <trkpt lat="44.16843" lon="0.73859">
        <ele>74</ele>
        <time>2024-04-11T13:29:39.000Z</time>
      </trkpt>
      <trkpt lat="44.16842" lon="0.7386">
        <ele>74</ele>
        <time>2024-04-11T13:29:40.000Z</time>
      </trkpt>
      <trkpt lat="44.16841" lon="0.73861">
        <ele>74</ele>
        <time>2024-04-11T13:29:41.000Z</time>
      </trkpt>
      <trkpt lat="44.1684" lon="0.73862">
        <ele>74</ele>
        <time>2024-04-11T13:29:42.000Z</time>
      </trkpt>
      <trkpt lat="44.16839" lon="0.73863">
        <ele>74</ele>
        <time>2024-04-11T13:29:43.000Z</time>
      </trkpt>
      <trkpt lat="44.16839" lon="0.73864">
        <ele>74</ele>
        <time>2024-04-11T13:29:44.000Z</time>
      </trkpt>
      <trkpt lat="44.16838" lon="0.73865">
        <ele>73</ele>
        <time>2024-04-11T13:29:45.000Z</time>
      </trkpt>
      <trkpt lat="44.16837" lon="0.73866">
        <ele>73</ele>
        <time>2024-04-11T13:29:46.000Z</time>
      </trkpt>
      <trkpt lat="44.16837" lon="0.73867">
        <ele>72</ele>
        <time>2024-04-11T13:29:47.000Z</time>
      </trkpt>
      <trkpt lat="44.16836" lon="0.73868">
        <ele>73</ele>
        <time>2024-04-11T13:29:48.000Z</time>
      </trkpt>
      <trkpt lat="44.16835" lon="0.73869">
        <ele>73</ele>
        <time>2024-04-11T13:29:49.000Z</time>
      </trkpt>
      <trkpt lat="44.16835" lon="0.7387">
        <ele>73</ele>
        <time>2024-04-11T13:29:50.000Z</time>
      </trkpt>
      <trkpt lat="44.16834" lon="0.73871">
        <ele>73</ele>
        <time>2024-04-11T13:29:51.000Z</time>
      </trkpt>
      <trkpt lat="44.16833" lon="0.73872">
        <ele>73</ele>
        <time>2024-04-11T13:29:52.000Z</time>
      </trkpt>
      <trkpt lat="44.16833" lon="0.73873">
        <ele>73</ele>
        <time>2024-04-11T13:29:53.000Z</time>
      </trkpt>
      <trkpt lat="44.16832" lon="0.73874">
        <ele>73</ele>
        <time>2024-04-11T13:29:54.000Z</time>
      </trkpt>
      <trkpt lat="44.16831" lon="0.73875">
        <ele>73</ele>
        <time>2024-04-11T13:29:55.000Z</time>
      </trkpt>
      <trkpt lat="44.16831" lon="0.73876">
        <ele>73</ele>
        <time>2024-04-11T13:29:56.000Z</time>
      </trkpt>
      <trkpt lat="44.1683" lon="0.73876">
        <ele>72</ele>
        <time>2024-04-11T13:29:57.000Z</time>
      </trkpt>
      <trkpt lat="44.1683" lon="0.73877">
        <ele>72</ele>
        <time>2024-04-11T13:29:58.000Z</time>
      </trkpt>
      <trkpt lat="44.16829" lon="0.73877">
        <ele>72</ele>
        <time>2024-04-11T13:29:59.000Z</time>
      </trkpt>
      <trkpt lat="44.16828" lon="0.73878">
        <ele>71</ele>
        <time>2024-04-11T13:30:00.000Z</time>
      </trkpt>
      <trkpt lat="44.16828" lon="0.73878">
        <ele>71</ele>
        <time>2024-04-11T13:30:01.000Z</time>
      </trkpt>
      <trkpt lat="44.16827" lon="0.73879">
        <ele>70</ele>
        <time>2024-04-11T13:30:02.000Z</time>
      </trkpt>
      <trkpt lat="44.16827" lon="0.7388">
        <ele>70</ele>
        <time>2024-04-11T13:30:03.000Z</time>
      </trkpt>
      <trkpt lat="44.16826" lon="0.73881">
        <ele>70</ele>
        <time>2024-04-11T13:30:04.000Z</time>
      </trkpt>
      <trkpt lat="44.16826" lon="0.73882">
        <ele>69</ele>
        <time>2024-04-11T13:30:05.000Z</time>
      </trkpt>
      <trkpt lat="44.16825" lon="0.73882">
        <ele>69</ele>
        <time>2024-04-11T13:30:06.000Z</time>
      </trkpt>
      <trkpt lat="44.16824" lon="0.73883">
        <ele>69</ele>
        <time>2024-04-11T13:30:07.000Z</time>
      </trkpt>
      <trkpt lat="44.16824" lon="0.73883">
        <ele>69</ele>
        <time>2024-04-11T13:30:08.000Z</time>
      </trkpt>
      <trkpt lat="44.16823" lon="0.73884">
        <ele>69</ele>
        <time>2024-04-11T13:30:09.000Z</time>
      </trkpt>
      <trkpt lat="44.16822" lon="0.73885">
        <ele>69</ele>
        <time>2024-04-11T13:30:10.000Z</time>
      </trkpt>
      <trkpt lat="44.16822" lon="0.73886">
        <ele>69</ele>
        <time>2024-04-11T13:30:11.000Z</time>
      </trkpt>
      <trkpt lat="44.16822" lon="0.73886">
        <ele>69</ele>
        <time>2024-04-11T13:30:12.000Z</time>
      </trkpt>
      <trkpt lat="44.16822" lon="0.73887">
        <ele>70</ele>
        <time>2024-04-11T13:30:13.000Z</time>
      </trkpt>
      <trkpt lat="44.16822" lon="0.73888">
        <ele>69</ele>
        <time>2024-04-11T13:30:14.000Z</time>
      </trkpt>
      <trkpt lat="44.16821" lon="0.73889">
        <ele>69</ele>
        <time>2024-04-11T13:30:15.000Z</time>
      </trkpt>
      <trkpt lat="44.16821" lon="0.7389">
        <ele>70</ele>
        <time>2024-04-11T13:30:16.000Z</time>
      </trkpt>
      <trkpt lat="44.16821" lon="0.73891">
        <ele>70</ele>
        <time>2024-04-11T13:30:17.000Z</time>
      </trkpt>
      <trkpt lat="44.1682" lon="0.73893">
        <ele>70</ele>
        <time>2024-04-11T13:30:18.000Z</time>
      </trkpt>
      <trkpt lat="44.16819" lon="0.73894">
        <ele>70</ele>
        <time>2024-04-11T13:30:19.000Z</time>
      </trkpt>
      <trkpt lat="44.16819" lon="0.73895">
        <ele>70</ele>
        <time>2024-04-11T13:30:20.000Z</time>
      </trkpt>
      <trkpt lat="44.16818" lon="0.73895">
        <ele>70</ele>
        <time>2024-04-11T13:30:21.000Z</time>
      </trkpt>
      <trkpt lat="44.16817" lon="0.73896">
        <ele>70</ele>
        <time>2024-04-11T13:30:22.000Z</time>
      </trkpt>
      <trkpt lat="44.16817" lon="0.73897">
        <ele>70</ele>
        <time>2024-04-11T13:30:23.000Z</time>
      </trkpt>
      <trkpt lat="44.16816" lon="0.73898">
        <ele>70</ele>
        <time>2024-04-11T13:30:24.000Z</time>
      </trkpt>
      <trkpt lat="44.16815" lon="0.73898">
        <ele>70</ele>
        <time>2024-04-11T13:30:25.000Z</time>
      </trkpt>
      <trkpt lat="44.16815" lon="0.73899">
        <ele>71</ele>
        <time>2024-04-11T13:30:26.000Z</time>
      </trkpt>
      <trkpt lat="44.16814" lon="0.739">
        <ele>71</ele>
        <time>2024-04-11T13:30:27.000Z</time>
      </trkpt>
      <trkpt lat="44.16813" lon="0.739">
        <ele>71</ele>
        <time>2024-04-11T13:30:28.000Z</time>
      </trkpt>
      <trkpt lat="44.16812" lon="0.73901">
        <ele>71</ele>
        <time>2024-04-11T13:30:29.000Z</time>
      </trkpt>
      <trkpt lat="44.16812" lon="0.73901">
        <ele>72</ele>
        <time>2024-04-11T13:30:30.000Z</time>
      </trkpt>
      <trkpt lat="44.16811" lon="0.73902">
        <ele>72</ele>
        <time>2024-04-11T13:30:31.000Z</time>
      </trkpt>
      <trkpt lat="44.1681" lon="0.73902">
        <ele>71</ele>
        <time>2024-04-11T13:30:32.000Z</time>
      </trkpt>
      <trkpt lat="44.16809" lon="0.73903">
        <ele>72</ele>
        <time>2024-04-11T13:30:33.000Z</time>
      </trkpt>
      <trkpt lat="44.16808" lon="0.73903">
        <ele>72</ele>
        <time>2024-04-11T13:30:34.000Z</time>
      </trkpt>
      <trkpt lat="44.16808" lon="0.73904">
        <ele>72</ele>
        <time>2024-04-11T13:30:35.000Z</time>
      </trkpt>
      <trkpt lat="44.16807" lon="0.73905">
        <ele>72</ele>
        <time>2024-04-11T13:30:36.000Z</time>
      </trkpt>
      <trkpt lat="44.16806" lon="0.73906">
        <ele>73</ele>
        <time>2024-04-11T13:30:37.000Z</time>
      </trkpt>
      <trkpt lat="44.16806" lon="0.73907">
        <ele>73</ele>
        <time>2024-04-11T13:30:38.000Z</time>
      </trkpt>
      <trkpt lat="44.16805" lon="0.73908">
        <ele>73</ele>
        <time>2024-04-11T13:30:39.000Z</time>
      </trkpt>
      <trkpt lat="44.16805" lon="0.73909">
        <ele>73</ele>
        <time>2024-04-11T13:30:40.000Z</time>
      </trkpt>
      <trkpt lat="44.16805" lon="0.7391">
        <ele>73</ele>
        <time>2024-04-11T13:30:41.000Z</time>
      </trkpt>
      <trkpt lat="44.16804" lon="0.73911">
        <ele>73</ele>
        <time>2024-04-11T13:30:42.000Z</time>
      </trkpt>
      <trkpt lat="44.16804" lon="0.73912">
        <ele>73</ele>
        <time>2024-04-11T13:30:43.000Z</time>
      </trkpt>
      <trkpt lat="44.16803" lon="0.73913">
        <ele>72</ele>
        <time>2024-04-11T13:30:44.000Z</time>
      </trkpt>
      <trkpt lat="44.16802" lon="0.73913">
        <ele>72</ele>
        <time>2024-04-11T13:30:45.000Z</time>
      </trkpt>
      <trkpt lat="44.16801" lon="0.73914">
        <ele>72</ele>
        <time>2024-04-11T13:30:46.000Z</time>
      </trkpt>
      <trkpt lat="44.16801" lon="0.73915">
        <ele>72</ele>
        <time>2024-04-11T13:30:47.000Z</time>
      </trkpt>
      <trkpt lat="44.168" lon="0.73916">
        <ele>71</ele>
        <time>2024-04-11T13:30:48.000Z</time>
      </trkpt>
      <trkpt lat="44.16799" lon="0.73917">
        <ele>71</ele>
        <time>2024-04-11T13:30:49.000Z</time>
      </trkpt>
      <trkpt lat="44.16799" lon="0.73918">
        <ele>71</ele>
        <time>2024-04-11T13:30:50.000Z</time>
      </trkpt>
      <trkpt lat="44.16798" lon="0.73919">
        <ele>71</ele>
        <time>2024-04-11T13:30:51.000Z</time>
      </trkpt>
      <trkpt lat="44.16797" lon="0.73921">
        <ele>70</ele>
        <time>2024-04-11T13:30:52.000Z</time>
      </trkpt>
      <trkpt lat="44.16797" lon="0.73922">
        <ele>70</ele>
        <time>2024-04-11T13:30:53.000Z</time>
      </trkpt>
      <trkpt lat="44.16796" lon="0.73923">
        <ele>72</ele>
        <time>2024-04-11T13:30:54.000Z</time>
      </trkpt>
      <trkpt lat="44.16795" lon="0.73924">
        <ele>72</ele>
        <time>2024-04-11T13:30:55.000Z</time>
      </trkpt>
      <trkpt lat="44.16794" lon="0.73926">
        <ele>72</ele>
        <time>2024-04-11T13:30:56.000Z</time>
      </trkpt>
      <trkpt lat="44.16793" lon="0.73926">
        <ele>72</ele>
        <time>2024-04-11T13:30:57.000Z</time>
      </trkpt>
      <trkpt lat="44.16793" lon="0.73927">
        <ele>73</ele>
        <time>2024-04-11T13:30:58.000Z</time>
      </trkpt>
      <trkpt lat="44.16792" lon="0.73928">
        <ele>73</ele>
        <time>2024-04-11T13:30:59.000Z</time>
      </trkpt>
      <trkpt lat="44.16791" lon="0.73929">
        <ele>72</ele>
        <time>2024-04-11T13:31:00.000Z</time>
      </trkpt>
      <trkpt lat="44.1679" lon="0.7393">
        <ele>72</ele>
        <time>2024-04-11T13:31:01.000Z</time>
      </trkpt>
      <trkpt lat="44.1679" lon="0.73931">
        <ele>72</ele>
        <time>2024-04-11T13:31:02.000Z</time>
      </trkpt>
      <trkpt lat="44.16789" lon="0.73932">
        <ele>72</ele>
        <time>2024-04-11T13:31:03.000Z</time>
      </trkpt>
      <trkpt lat="44.16788" lon="0.73933">
        <ele>73</ele>
        <time>2024-04-11T13:31:04.000Z</time>
      </trkpt>
      <trkpt lat="44.16788" lon="0.73934">
        <ele>72</ele>
        <time>2024-04-11T13:31:05.000Z</time>
      </trkpt>
      <trkpt lat="44.16787" lon="0.73935">
        <ele>72</ele>
        <time>2024-04-11T13:31:06.000Z</time>
      </trkpt>
      <trkpt lat="44.16786" lon="0.73936">
        <ele>72</ele>
        <time>2024-04-11T13:31:07.000Z</time>
      </trkpt>
      <trkpt lat="44.16785" lon="0.73937">
        <ele>72</ele>
        <time>2024-04-11T13:31:08.000Z</time>
      </trkpt>
      <trkpt lat="44.16784" lon="0.73938">
        <ele>73</ele>
        <time>2024-04-11T13:31:09.000Z</time>
      </trkpt>
      <trkpt lat="44.16783" lon="0.73939">
        <ele>73</ele>
        <time>2024-04-11T13:31:10.000Z</time>
      </trkpt>
      <trkpt lat="44.16782" lon="0.7394">
        <ele>73</ele>
        <time>2024-04-11T13:31:11.000Z</time>
      </trkpt>
      <trkpt lat="44.16782" lon="0.73941">
        <ele>73</ele>
        <time>2024-04-11T13:31:12.000Z</time>
      </trkpt>
      <trkpt lat="44.16781" lon="0.73942">
        <ele>73</ele>
        <time>2024-04-11T13:31:13.000Z</time>
      </trkpt>
      <trkpt lat="44.16781" lon="0.73943">
        <ele>73</ele>
        <time>2024-04-11T13:31:14.000Z</time>
      </trkpt>
      <trkpt lat="44.1678" lon="0.73944">
        <ele>74</ele>
        <time>2024-04-11T13:31:15.000Z</time>
      </trkpt>
      <trkpt lat="44.16779" lon="0.73945">
        <ele>74</ele>
        <time>2024-04-11T13:31:16.000Z</time>
      </trkpt>
      <trkpt lat="44.16779" lon="0.73946">
        <ele>75</ele>
        <time>2024-04-11T13:31:17.000Z</time>
      </trkpt>
      <trkpt lat="44.16778" lon="0.73946">
        <ele>75</ele>
        <time>2024-04-11T13:31:18.000Z</time>
      </trkpt>
      <trkpt lat="44.16778" lon="0.73947">
        <ele>75</ele>
        <time>2024-04-11T13:31:19.000Z</time>
      </trkpt>
      <trkpt lat="44.16777" lon="0.73948">
        <ele>75</ele>
        <time>2024-04-11T13:31:20.000Z</time>
      </trkpt>
      <trkpt lat="44.16777" lon="0.73948">
        <ele>75</ele>
        <time>2024-04-11T13:31:21.000Z</time>
      </trkpt>
      <trkpt lat="44.16776" lon="0.73949">
        <ele>75</ele>
        <time>2024-04-11T13:31:22.000Z</time>
      </trkpt>
      <trkpt lat="44.16775" lon="0.7395">
        <ele>75</ele>
        <time>2024-04-11T13:31:23.000Z</time>
      </trkpt>
      <trkpt lat="44.16774" lon="0.73951">
        <ele>75</ele>
        <time>2024-04-11T13:31:24.000Z</time>
      </trkpt>
      <trkpt lat="44.16774" lon="0.73952">
        <ele>75</ele>
        <time>2024-04-11T13:31:25.000Z</time>
      </trkpt>
      <trkpt lat="44.16773" lon="0.73953">
        <ele>75</ele>
        <time>2024-04-11T13:31:26.000Z</time>
      </trkpt>
      <trkpt lat="44.16772" lon="0.73954">
        <ele>75</ele>
        <time>2024-04-11T13:31:27.000Z</time>
      </trkpt>
      <trkpt lat="44.16772" lon="0.73955">
        <ele>75</ele>
        <time>2024-04-11T13:31:28.000Z</time>
      </trkpt>
      <trkpt lat="44.16771" lon="0.73956">
        <ele>76</ele>
        <time>2024-04-11T13:31:29.000Z</time>
      </trkpt>
      <trkpt lat="44.1677" lon="0.73957">
        <ele>76</ele>
        <time>2024-04-11T13:31:30.000Z</time>
      </trkpt>
      <trkpt lat="44.1677" lon="0.73958">
        <ele>76</ele>
        <time>2024-04-11T13:31:31.000Z</time>
      </trkpt>
      <trkpt lat="44.16769" lon="0.73958">
        <ele>76</ele>
        <time>2024-04-11T13:31:32.000Z</time>
      </trkpt>
      <trkpt lat="44.16768" lon="0.73959">
        <ele>76</ele>
        <time>2024-04-11T13:31:33.000Z</time>
      </trkpt>
      <trkpt lat="44.16768" lon="0.7396">
        <ele>76</ele>
        <time>2024-04-11T13:31:34.000Z</time>
      </trkpt>
      <trkpt lat="44.16767" lon="0.73961">
        <ele>76</ele>
        <time>2024-04-11T13:31:35.000Z</time>
      </trkpt>
      <trkpt lat="44.16766" lon="0.73962">
        <ele>76</ele>
        <time>2024-04-11T13:31:36.000Z</time>
      </trkpt>
      <trkpt lat="44.16765" lon="0.73962">
        <ele>76</ele>
        <time>2024-04-11T13:31:37.000Z</time>
      </trkpt>
      <trkpt lat="44.16764" lon="0.73963">
        <ele>75</ele>
        <time>2024-04-11T13:31:38.000Z</time>
      </trkpt>
      <trkpt lat="44.16763" lon="0.73964">
        <ele>75</ele>
        <time>2024-04-11T13:31:39.000Z</time>
      </trkpt>
      <trkpt lat="44.16762" lon="0.73965">
        <ele>75</ele>
        <time>2024-04-11T13:31:40.000Z</time>
      </trkpt>
      <trkpt lat="44.16761" lon="0.73965">
        <ele>75</ele>
        <time>2024-04-11T13:31:41.000Z</time>
      </trkpt>
      <trkpt lat="44.16761" lon="0.73966">
        <ele>74</ele>
        <time>2024-04-11T13:31:42.000Z</time>
      </trkpt>
      <trkpt lat="44.1676" lon="0.73967">
        <ele>75</ele>
        <time>2024-04-11T13:31:43.000Z</time>
      </trkpt>
      <trkpt lat="44.16759" lon="0.73968">
        <ele>75</ele>
        <time>2024-04-11T13:31:44.000Z</time>
      </trkpt>
      <trkpt lat="44.16758" lon="0.73969">
        <ele>75</ele>
        <time>2024-04-11T13:31:45.000Z</time>
      </trkpt>
      <trkpt lat="44.16757" lon="0.73969">
        <ele>75</ele>
        <time>2024-04-11T13:31:46.000Z</time>
      </trkpt>
      <trkpt lat="44.16755" lon="0.7397">
        <ele>75</ele>
        <time>2024-04-11T13:31:47.000Z</time>
      </trkpt>
      <trkpt lat="44.16754" lon="0.73971">
        <ele>75</ele>
        <time>2024-04-11T13:31:48.000Z</time>
      </trkpt>
      <trkpt lat="44.16753" lon="0.73972">
        <ele>74</ele>
        <time>2024-04-11T13:31:49.000Z</time>
      </trkpt>
      <trkpt lat="44.16752" lon="0.73972">
        <ele>74</ele>
        <time>2024-04-11T13:31:50.000Z</time>
      </trkpt>
      <trkpt lat="44.16752" lon="0.73973">
        <ele>74</ele>
        <time>2024-04-11T13:31:51.000Z</time>
      </trkpt>
      <trkpt lat="44.16751" lon="0.73974">
        <ele>74</ele>
        <time>2024-04-11T13:31:52.000Z</time>
      </trkpt>
      <trkpt lat="44.1675" lon="0.73974">
        <ele>74</ele>
        <time>2024-04-11T13:31:53.000Z</time>
      </trkpt>
      <trkpt lat="44.16749" lon="0.73974">
        <ele>75</ele>
        <time>2024-04-11T13:31:54.000Z</time>
      </trkpt>
      <trkpt lat="44.16748" lon="0.73975">
        <ele>75</ele>
        <time>2024-04-11T13:31:55.000Z</time>
      </trkpt>
      <trkpt lat="44.16747" lon="0.73975">
        <ele>74</ele>
        <time>2024-04-11T13:31:56.000Z</time>
      </trkpt>
      <trkpt lat="44.16747" lon="0.73976">
        <ele>75</ele>
        <time>2024-04-11T13:31:57.000Z</time>
      </trkpt>
      <trkpt lat="44.16746" lon="0.73977">
        <ele>75</ele>
        <time>2024-04-11T13:31:58.000Z</time>
      </trkpt>
      <trkpt lat="44.16745" lon="0.73977">
        <ele>75</ele>
        <time>2024-04-11T13:31:59.000Z</time>
      </trkpt>
      <trkpt lat="44.16744" lon="0.73978">
        <ele>75</ele>
        <time>2024-04-11T13:32:00.000Z</time>
      </trkpt>
      <trkpt lat="44.16743" lon="0.73979">
        <ele>75</ele>
        <time>2024-04-11T13:32:01.000Z</time>
      </trkpt>
      <trkpt lat="44.16742" lon="0.73979">
        <ele>75</ele>
        <time>2024-04-11T13:32:02.000Z</time>
      </trkpt>
      <trkpt lat="44.16741" lon="0.7398">
        <ele>76</ele>
        <time>2024-04-11T13:32:03.000Z</time>
      </trkpt>
      <trkpt lat="44.1674" lon="0.7398">
        <ele>76</ele>
        <time>2024-04-11T13:32:04.000Z</time>
      </trkpt>
      <trkpt lat="44.16739" lon="0.73981">
        <ele>76</ele>
        <time>2024-04-11T13:32:05.000Z</time>
      </trkpt>
      <trkpt lat="44.16738" lon="0.73982">
        <ele>76</ele>
        <time>2024-04-11T13:32:06.000Z</time>
      </trkpt>
      <trkpt lat="44.16737" lon="0.73983">
        <ele>76</ele>
        <time>2024-04-11T13:32:07.000Z</time>
      </trkpt>
      <trkpt lat="44.16736" lon="0.73983">
        <ele>75</ele>
        <time>2024-04-11T13:32:08.000Z</time>
      </trkpt>
      <trkpt lat="44.16735" lon="0.73984">
        <ele>76</ele>
        <time>2024-04-11T13:32:09.000Z</time>
      </trkpt>
      <trkpt lat="44.16734" lon="0.73985">
        <ele>77</ele>
        <time>2024-04-11T13:32:10.000Z</time>
      </trkpt>
      <trkpt lat="44.16733" lon="0.73986">
        <ele>77</ele>
        <time>2024-04-11T13:32:11.000Z</time>
      </trkpt>
      <trkpt lat="44.16732" lon="0.73987">
        <ele>76</ele>
        <time>2024-04-11T13:32:12.000Z</time>
      </trkpt>
      <trkpt lat="44.16731" lon="0.73989">
        <ele>76</ele>
        <time>2024-04-11T13:32:13.000Z</time>
      </trkpt>
      <trkpt lat="44.1673" lon="0.7399">
        <ele>76</ele>
        <time>2024-04-11T13:32:14.000Z</time>
      </trkpt>
      <trkpt lat="44.16729" lon="0.7399">
        <ele>77</ele>
        <time>2024-04-11T13:32:15.000Z</time>
      </trkpt>
      <trkpt lat="44.16728" lon="0.73991">
        <ele>77</ele>
        <time>2024-04-11T13:32:16.000Z</time>
      </trkpt>
      <trkpt lat="44.16727" lon="0.73992">
        <ele>77</ele>
        <time>2024-04-11T13:32:17.000Z</time>
      </trkpt>
      <trkpt lat="44.16725" lon="0.73993">
        <ele>77</ele>
        <time>2024-04-11T13:32:18.000Z</time>
      </trkpt>
      <trkpt lat="44.16724" lon="0.73993">
        <ele>77</ele>
        <time>2024-04-11T13:32:19.000Z</time>
      </trkpt>
      <trkpt lat="44.16723" lon="0.73994">
        <ele>77</ele>
        <time>2024-04-11T13:32:20.000Z</time>
      </trkpt>
      <trkpt lat="44.16722" lon="0.73995">
        <ele>77</ele>
        <time>2024-04-11T13:32:21.000Z</time>
      </trkpt>
      <trkpt lat="44.16721" lon="0.73996">
        <ele>76</ele>
        <time>2024-04-11T13:32:22.000Z</time>
      </trkpt>
      <trkpt lat="44.16721" lon="0.73997">
        <ele>77</ele>
        <time>2024-04-11T13:32:23.000Z</time>
      </trkpt>
      <trkpt lat="44.1672" lon="0.73998">
        <ele>77</ele>
        <time>2024-04-11T13:32:24.000Z</time>
      </trkpt>
      <trkpt lat="44.16719" lon="0.73999">
        <ele>77</ele>
        <time>2024-04-11T13:32:25.000Z</time>
      </trkpt>
      <trkpt lat="44.16718" lon="0.74">
        <ele>77</ele>
        <time>2024-04-11T13:32:26.000Z</time>
      </trkpt>
      <trkpt lat="44.16717" lon="0.74001">
        <ele>77</ele>
        <time>2024-04-11T13:32:27.000Z</time>
      </trkpt>
      <trkpt lat="44.16717" lon="0.74002">
        <ele>77</ele>
        <time>2024-04-11T13:32:28.000Z</time>
      </trkpt>
      <trkpt lat="44.16716" lon="0.74003">
        <ele>77</ele>
        <time>2024-04-11T13:32:29.000Z</time>
      </trkpt>
      <trkpt lat="44.16715" lon="0.74004">
        <ele>77</ele>
        <time>2024-04-11T13:32:30.000Z</time>
      </trkpt>
      <trkpt lat="44.16714" lon="0.74005">
        <ele>78</ele>
        <time>2024-04-11T13:32:31.000Z</time>
      </trkpt>
      <trkpt lat="44.16713" lon="0.74006">
        <ele>78</ele>
        <time>2024-04-11T13:32:32.000Z</time>
      </trkpt>
      <trkpt lat="44.16712" lon="0.74007">
        <ele>78</ele>
        <time>2024-04-11T13:32:33.000Z</time>
      </trkpt>
      <trkpt lat="44.16711" lon="0.74008">
        <ele>78</ele>
        <time>2024-04-11T13:32:34.000Z</time>
      </trkpt>
      <trkpt lat="44.1671" lon="0.74009">
        <ele>78</ele>
        <time>2024-04-11T13:32:35.000Z</time>
      </trkpt>
      <trkpt lat="44.16709" lon="0.7401">
        <ele>78</ele>
        <time>2024-04-11T13:32:36.000Z</time>
      </trkpt>
      <trkpt lat="44.16708" lon="0.7401">
        <ele>79</ele>
        <time>2024-04-11T13:32:37.000Z</time>
      </trkpt>
      <trkpt lat="44.16707" lon="0.74011">
        <ele>78</ele>
        <time>2024-04-11T13:32:38.000Z</time>
      </trkpt>
      <trkpt lat="44.16706" lon="0.74012">
        <ele>78</ele>
        <time>2024-04-11T13:32:39.000Z</time>
      </trkpt>
      <trkpt lat="44.16705" lon="0.74013">
        <ele>78</ele>
        <time>2024-04-11T13:32:40.000Z</time>
      </trkpt>
      <trkpt lat="44.16704" lon="0.74014">
        <ele>78</ele>
        <time>2024-04-11T13:32:41.000Z</time>
      </trkpt>
      <trkpt lat="44.16703" lon="0.74015">
        <ele>78</ele>
        <time>2024-04-11T13:32:42.000Z</time>
      </trkpt>
      <trkpt lat="44.16702" lon="0.74016">
        <ele>78</ele>
        <time>2024-04-11T13:32:43.000Z</time>
      </trkpt>
      <trkpt lat="44.16701" lon="0.74017">
        <ele>78</ele>
        <time>2024-04-11T13:32:44.000Z</time>
      </trkpt>
      <trkpt lat="44.167" lon="0.74018">
        <ele>78</ele>
        <time>2024-04-11T13:32:45.000Z</time>
      </trkpt>
      <trkpt lat="44.16699" lon="0.74019">
        <ele>78</ele>
        <time>2024-04-11T13:32:46.000Z</time>
      </trkpt>
      <trkpt lat="44.16698" lon="0.74019">
        <ele>78</ele>
        <time>2024-04-11T13:32:47.000Z</time>
      </trkpt>
      <trkpt lat="44.16697" lon="0.7402">
        <ele>79</ele>
        <time>2024-04-11T13:32:48.000Z</time>
      </trkpt>
      <trkpt lat="44.16696" lon="0.74021">
        <ele>79</ele>
        <time>2024-04-11T13:32:49.000Z</time>
      </trkpt>
      <trkpt lat="44.16696" lon="0.74022">
        <ele>79</ele>
        <time>2024-04-11T13:32:50.000Z</time>
      </trkpt>
      <trkpt lat="44.16695" lon="0.74023">
        <ele>79</ele>
        <time>2024-04-11T13:32:51.000Z</time>
      </trkpt>
      <trkpt lat="44.16694" lon="0.74023">
        <ele>79</ele>
        <time>2024-04-11T13:32:52.000Z</time>
      </trkpt>
      <trkpt lat="44.16693" lon="0.74024">
        <ele>79</ele>
        <time>2024-04-11T13:32:53.000Z</time>
      </trkpt>
      <trkpt lat="44.16692" lon="0.74025">
        <ele>79</ele>
        <time>2024-04-11T13:32:54.000Z</time>
      </trkpt>
      <trkpt lat="44.16691" lon="0.74026">
        <ele>79</ele>
        <time>2024-04-11T13:32:55.000Z</time>
      </trkpt>
      <trkpt lat="44.1669" lon="0.74026">
        <ele>78</ele>
        <time>2024-04-11T13:32:56.000Z</time>
      </trkpt>
      <trkpt lat="44.16689" lon="0.74027">
        <ele>78</ele>
        <time>2024-04-11T13:32:57.000Z</time>
      </trkpt>
      <trkpt lat="44.16688" lon="0.74028">
        <ele>79</ele>
        <time>2024-04-11T13:32:58.000Z</time>
      </trkpt>
      <trkpt lat="44.16687" lon="0.74029">
        <ele>78</ele>
        <time>2024-04-11T13:32:59.000Z</time>
      </trkpt>
      <trkpt lat="44.16686" lon="0.7403">
        <ele>78</ele>
        <time>2024-04-11T13:33:00.000Z</time>
      </trkpt>
      <trkpt lat="44.16685" lon="0.7403">
        <ele>78</ele>
        <time>2024-04-11T13:33:01.000Z</time>
      </trkpt>
      <trkpt lat="44.16684" lon="0.74031">
        <ele>77</ele>
        <time>2024-04-11T13:33:02.000Z</time>
      </trkpt>
      <trkpt lat="44.16683" lon="0.74032">
        <ele>77</ele>
        <time>2024-04-11T13:33:03.000Z</time>
      </trkpt>
      <trkpt lat="44.16682" lon="0.74033">
        <ele>77</ele>
        <time>2024-04-11T13:33:04.000Z</time>
      </trkpt>
      <trkpt lat="44.16681" lon="0.74034">
        <ele>77</ele>
        <time>2024-04-11T13:33:05.000Z</time>
      </trkpt>
      <trkpt lat="44.1668" lon="0.74035">
        <ele>77</ele>
        <time>2024-04-11T13:33:06.000Z</time>
      </trkpt>
      <trkpt lat="44.1668" lon="0.74035">
        <ele>77</ele>
        <time>2024-04-11T13:33:07.000Z</time>
      </trkpt>
      <trkpt lat="44.16679" lon="0.74036">
        <ele>78</ele>
        <time>2024-04-11T13:33:08.000Z</time>
      </trkpt>
      <trkpt lat="44.16678" lon="0.74037">
        <ele>78</ele>
        <time>2024-04-11T13:33:09.000Z</time>
      </trkpt>
      <trkpt lat="44.16677" lon="0.74038">
        <ele>78</ele>
        <time>2024-04-11T13:33:10.000Z</time>
      </trkpt>
      <trkpt lat="44.16676" lon="0.74039">
        <ele>78</ele>
        <time>2024-04-11T13:33:11.000Z</time>
      </trkpt>
      <trkpt lat="44.16675" lon="0.7404">
        <ele>78</ele>
        <time>2024-04-11T13:33:12.000Z</time>
      </trkpt>
      <trkpt lat="44.16674" lon="0.7404">
        <ele>78</ele>
        <time>2024-04-11T13:33:13.000Z</time>
      </trkpt>
      <trkpt lat="44.16673" lon="0.74041">
        <ele>78</ele>
        <time>2024-04-11T13:33:14.000Z</time>
      </trkpt>
      <trkpt lat="44.16672" lon="0.74042">
        <ele>79</ele>
        <time>2024-04-11T13:33:15.000Z</time>
      </trkpt>
      <trkpt lat="44.16671" lon="0.74043">
        <ele>79</ele>
        <time>2024-04-11T13:33:16.000Z</time>
      </trkpt>
      <trkpt lat="44.1667" lon="0.74044">
        <ele>78</ele>
        <time>2024-04-11T13:33:17.000Z</time>
      </trkpt>
      <trkpt lat="44.1667" lon="0.74045">
        <ele>79</ele>
        <time>2024-04-11T13:33:18.000Z</time>
      </trkpt>
      <trkpt lat="44.16669" lon="0.74046">
        <ele>78</ele>
        <time>2024-04-11T13:33:19.000Z</time>
      </trkpt>
      <trkpt lat="44.16668" lon="0.74047">
        <ele>79</ele>
        <time>2024-04-11T13:33:20.000Z</time>
      </trkpt>
      <trkpt lat="44.16667" lon="0.74048">
        <ele>79</ele>
        <time>2024-04-11T13:33:21.000Z</time>
      </trkpt>
      <trkpt lat="44.16666" lon="0.74049">
        <ele>79</ele>
        <time>2024-04-11T13:33:22.000Z</time>
      </trkpt>
      <trkpt lat="44.16665" lon="0.7405">
        <ele>80</ele>
        <time>2024-04-11T13:33:23.000Z</time>
      </trkpt>
      <trkpt lat="44.16664" lon="0.74051">
        <ele>80</ele>
        <time>2024-04-11T13:33:24.000Z</time>
      </trkpt>
      <trkpt lat="44.16664" lon="0.74051">
        <ele>80</ele>
        <time>2024-04-11T13:33:25.000Z</time>
      </trkpt>
      <trkpt lat="44.16663" lon="0.74052">
        <ele>80</ele>
        <time>2024-04-11T13:33:26.000Z</time>
      </trkpt>
      <trkpt lat="44.16662" lon="0.74053">
        <ele>80</ele>
        <time>2024-04-11T13:33:27.000Z</time>
      </trkpt>
      <trkpt lat="44.16661" lon="0.74054">
        <ele>81</ele>
        <time>2024-04-11T13:33:28.000Z</time>
      </trkpt>
      <trkpt lat="44.1666" lon="0.74055">
        <ele>80</ele>
        <time>2024-04-11T13:33:29.000Z</time>
      </trkpt>
      <trkpt lat="44.16659" lon="0.74055">
        <ele>81</ele>
        <time>2024-04-11T13:33:30.000Z</time>
      </trkpt>
      <trkpt lat="44.16658" lon="0.74056">
        <ele>81</ele>
        <time>2024-04-11T13:33:31.000Z</time>
      </trkpt>
      <trkpt lat="44.16658" lon="0.74056">
        <ele>81</ele>
        <time>2024-04-11T13:33:32.000Z</time>
      </trkpt>
      <trkpt lat="44.16657" lon="0.74057">
        <ele>81</ele>
        <time>2024-04-11T13:33:33.000Z</time>
      </trkpt>
      <trkpt lat="44.16656" lon="0.74058">
        <ele>81</ele>
        <time>2024-04-11T13:33:34.000Z</time>
      </trkpt>
      <trkpt lat="44.16655" lon="0.74058">
        <ele>82</ele>
        <time>2024-04-11T13:33:35.000Z</time>
      </trkpt>
      <trkpt lat="44.16654" lon="0.74059">
        <ele>81</ele>
        <time>2024-04-11T13:33:36.000Z</time>
      </trkpt>
      <trkpt lat="44.16653" lon="0.74059">
        <ele>81</ele>
        <time>2024-04-11T13:33:37.000Z</time>
      </trkpt>
      <trkpt lat="44.16653" lon="0.74058">
        <ele>82</ele>
        <time>2024-04-11T13:33:38.000Z</time>
      </trkpt>
      <trkpt lat="44.16652" lon="0.74058">
        <ele>82</ele>
        <time>2024-04-11T13:33:39.000Z</time>
      </trkpt>
      <trkpt lat="44.16651" lon="0.74058">
        <ele>82</ele>
        <time>2024-04-11T13:33:40.000Z</time>
      </trkpt>
      <trkpt lat="44.1665" lon="0.74057">
        <ele>82</ele>
        <time>2024-04-11T13:33:41.000Z</time>
      </trkpt>
      <trkpt lat="44.1665" lon="0.74057">
        <ele>82</ele>
        <time>2024-04-11T13:33:42.000Z</time>
      </trkpt>
      <trkpt lat="44.16649" lon="0.74056">
        <ele>82</ele>
        <time>2024-04-11T13:33:43.000Z</time>
      </trkpt>
      <trkpt lat="44.16648" lon="0.74056">
        <ele>81</ele>
        <time>2024-04-11T13:33:44.000Z</time>
      </trkpt>
      <trkpt lat="44.16648" lon="0.74055">
        <ele>81</ele>
        <time>2024-04-11T13:33:45.000Z</time>
      </trkpt>
      <trkpt lat="44.16647" lon="0.74054">
        <ele>81</ele>
        <time>2024-04-11T13:33:46.000Z</time>
      </trkpt>
      <trkpt lat="44.16647" lon="0.74054">
        <ele>81</ele>
        <time>2024-04-11T13:33:47.000Z</time>
      </trkpt>
      <trkpt lat="44.16646" lon="0.74053">
        <ele>81</ele>
        <time>2024-04-11T13:33:48.000Z</time>
      </trkpt>
      <trkpt lat="44.16646" lon="0.74052">
        <ele>81</ele>
        <time>2024-04-11T13:33:49.000Z</time>
      </trkpt>
      <trkpt lat="44.16645" lon="0.74051">
        <ele>81</ele>
        <time>2024-04-11T13:33:50.000Z</time>
      </trkpt>
      <trkpt lat="44.16645" lon="0.7405">
        <ele>81</ele>
        <time>2024-04-11T13:33:51.000Z</time>
      </trkpt>
      <trkpt lat="44.16644" lon="0.7405">
        <ele>81</ele>
        <time>2024-04-11T13:33:52.000Z</time>
      </trkpt>
      <trkpt lat="44.16644" lon="0.74049">
        <ele>81</ele>
        <time>2024-04-11T13:33:53.000Z</time>
      </trkpt>
      <trkpt lat="44.16644" lon="0.74049">
        <ele>81</ele>
        <time>2024-04-11T13:33:54.000Z</time>
      </trkpt>
      <trkpt lat="44.16644" lon="0.74048">
        <ele>81</ele>
        <time>2024-04-11T13:33:55.000Z</time>
      </trkpt>
      <trkpt lat="44.16643" lon="0.74048">
        <ele>82</ele>
        <time>2024-04-11T13:33:56.000Z</time>
      </trkpt>
      <trkpt lat="44.16643" lon="0.74048">
        <ele>82</ele>
        <time>2024-04-11T13:33:57.000Z</time>
      </trkpt>
      <trkpt lat="44.16643" lon="0.74047">
        <ele>82</ele>
        <time>2024-04-11T13:33:58.000Z</time>
      </trkpt>
      <trkpt lat="44.16642" lon="0.74046">
        <ele>82</ele>
        <time>2024-04-11T13:33:59.000Z</time>
      </trkpt>
      <trkpt lat="44.16642" lon="0.74046">
        <ele>83</ele>
        <time>2024-04-11T13:34:00.000Z</time>
      </trkpt>
      <trkpt lat="44.16641" lon="0.74045">
        <ele>83</ele>
        <time>2024-04-11T13:34:01.000Z</time>
      </trkpt>
      <trkpt lat="44.16641" lon="0.74045">
        <ele>83</ele>
        <time>2024-04-11T13:34:02.000Z</time>
      </trkpt>
      <trkpt lat="44.1664" lon="0.74044">
        <ele>83</ele>
        <time>2024-04-11T13:34:03.000Z</time>
      </trkpt>
      <trkpt lat="44.1664" lon="0.74044">
        <ele>83</ele>
        <time>2024-04-11T13:34:04.000Z</time>
      </trkpt>
      <trkpt lat="44.16639" lon="0.74044">
        <ele>83</ele>
        <time>2024-04-11T13:34:05.000Z</time>
      </trkpt>
      <trkpt lat="44.16638" lon="0.74045">
        <ele>82</ele>
        <time>2024-04-11T13:34:06.000Z</time>
      </trkpt>
      <trkpt lat="44.16637" lon="0.74045">
        <ele>82</ele>
        <time>2024-04-11T13:34:07.000Z</time>
      </trkpt>
      <trkpt lat="44.16636" lon="0.74045">
        <ele>82</ele>
        <time>2024-04-11T13:34:08.000Z</time>
      </trkpt>
      <trkpt lat="44.16635" lon="0.74045">
        <ele>82</ele>
        <time>2024-04-11T13:34:09.000Z</time>
      </trkpt>
      <trkpt lat="44.16634" lon="0.74045">
        <ele>82</ele>
        <time>2024-04-11T13:34:10.000Z</time>
      </trkpt>
      <trkpt lat="44.16633" lon="0.74046">
        <ele>82</ele>
        <time>2024-04-11T13:34:11.000Z</time>
      </trkpt>
      <trkpt lat="44.16632" lon="0.74046">
        <ele>81</ele>
        <time>2024-04-11T13:34:12.000Z</time>
      </trkpt>
      <trkpt lat="44.16631" lon="0.74046">
        <ele>81</ele>
        <time>2024-04-11T13:34:13.000Z</time>
      </trkpt>
      <trkpt lat="44.16631" lon="0.74047">
        <ele>81</ele>
        <time>2024-04-11T13:34:14.000Z</time>
      </trkpt>
      <trkpt lat="44.1663" lon="0.74047">
        <ele>81</ele>
        <time>2024-04-11T13:34:15.000Z</time>
      </trkpt>
      <trkpt lat="44.16629" lon="0.74048">
        <ele>81</ele>
        <time>2024-04-11T13:34:16.000Z</time>
      </trkpt>
      <trkpt lat="44.16628" lon="0.74048">
        <ele>81</ele>
        <time>2024-04-11T13:34:17.000Z</time>
      </trkpt>
      <trkpt lat="44.16627" lon="0.74049">
        <ele>81</ele>
        <time>2024-04-11T13:34:18.000Z</time>
      </trkpt>
      <trkpt lat="44.16626" lon="0.7405">
        <ele>81</ele>
        <time>2024-04-11T13:34:19.000Z</time>
      </trkpt>
      <trkpt lat="44.16625" lon="0.7405">
        <ele>81</ele>
        <time>2024-04-11T13:34:20.000Z</time>
      </trkpt>
      <trkpt lat="44.16624" lon="0.74051">
        <ele>81</ele>
        <time>2024-04-11T13:34:21.000Z</time>
      </trkpt>
      <trkpt lat="44.16623" lon="0.74052">
        <ele>81</ele>
        <time>2024-04-11T13:34:22.000Z</time>
      </trkpt>
      <trkpt lat="44.16623" lon="0.74053">
        <ele>82</ele>
        <time>2024-04-11T13:34:23.000Z</time>
      </trkpt>
      <trkpt lat="44.16622" lon="0.74054">
        <ele>82</ele>
        <time>2024-04-11T13:34:24.000Z</time>
      </trkpt>
      <trkpt lat="44.16621" lon="0.74054">
        <ele>82</ele>
        <time>2024-04-11T13:34:25.000Z</time>
      </trkpt>
      <trkpt lat="44.1662" lon="0.74056">
        <ele>82</ele>
        <time>2024-04-11T13:34:26.000Z</time>
      </trkpt>
      <trkpt lat="44.16619" lon="0.74057">
        <ele>82</ele>
        <time>2024-04-11T13:34:27.000Z</time>
      </trkpt>
      <trkpt lat="44.16618" lon="0.74058">
        <ele>82</ele>
        <time>2024-04-11T13:34:28.000Z</time>
      </trkpt>
      <trkpt lat="44.16618" lon="0.74059">
        <ele>82</ele>
        <time>2024-04-11T13:34:29.000Z</time>
      </trkpt>
      <trkpt lat="44.16617" lon="0.7406">
        <ele>82</ele>
        <time>2024-04-11T13:34:30.000Z</time>
      </trkpt>
      <trkpt lat="44.16616" lon="0.74061">
        <ele>81</ele>
        <time>2024-04-11T13:34:31.000Z</time>
      </trkpt>
      <trkpt lat="44.16615" lon="0.74062">
        <ele>81</ele>
        <time>2024-04-11T13:34:32.000Z</time>
      </trkpt>
      <trkpt lat="44.16614" lon="0.74063">
        <ele>82</ele>
        <time>2024-04-11T13:34:33.000Z</time>
      </trkpt>
      <trkpt lat="44.16613" lon="0.74064">
        <ele>82</ele>
        <time>2024-04-11T13:34:34.000Z</time>
      </trkpt>
      <trkpt lat="44.16612" lon="0.74065">
        <ele>82</ele>
        <time>2024-04-11T13:34:35.000Z</time>
      </trkpt>
      <trkpt lat="44.16612" lon="0.74066">
        <ele>82</ele>
        <time>2024-04-11T13:34:36.000Z</time>
      </trkpt>
      <trkpt lat="44.16611" lon="0.74067">
        <ele>82</ele>
        <time>2024-04-11T13:34:37.000Z</time>
      </trkpt>
      <trkpt lat="44.1661" lon="0.74068">
        <ele>82</ele>
        <time>2024-04-11T13:34:38.000Z</time>
      </trkpt>
      <trkpt lat="44.16609" lon="0.74069">
        <ele>82</ele>
        <time>2024-04-11T13:34:39.000Z</time>
      </trkpt>
      <trkpt lat="44.16608" lon="0.7407">
        <ele>82</ele>
        <time>2024-04-11T13:34:40.000Z</time>
      </trkpt>
      <trkpt lat="44.16607" lon="0.74071">
        <ele>82</ele>
        <time>2024-04-11T13:34:41.000Z</time>
      </trkpt>
      <trkpt lat="44.16607" lon="0.74072">
        <ele>83</ele>
        <time>2024-04-11T13:34:42.000Z</time>
      </trkpt>
      <trkpt lat="44.16606" lon="0.74073">
        <ele>83</ele>
        <time>2024-04-11T13:34:43.000Z</time>
      </trkpt>
      <trkpt lat="44.16605" lon="0.74074">
        <ele>83</ele>
        <time>2024-04-11T13:34:44.000Z</time>
      </trkpt>
      <trkpt lat="44.16604" lon="0.74075">
        <ele>83</ele>
        <time>2024-04-11T13:34:45.000Z</time>
      </trkpt>
      <trkpt lat="44.16603" lon="0.74076">
        <ele>82</ele>
        <time>2024-04-11T13:34:46.000Z</time>
      </trkpt>
      <trkpt lat="44.16602" lon="0.74077">
        <ele>82</ele>
        <time>2024-04-11T13:34:47.000Z</time>
      </trkpt>
      <trkpt lat="44.16601" lon="0.74078">
        <ele>83</ele>
        <time>2024-04-11T13:34:48.000Z</time>
      </trkpt>
      <trkpt lat="44.166" lon="0.74079">
        <ele>83</ele>
        <time>2024-04-11T13:34:49.000Z</time>
      </trkpt>
      <trkpt lat="44.16599" lon="0.7408">
        <ele>83</ele>
        <time>2024-04-11T13:34:50.000Z</time>
      </trkpt>
      <trkpt lat="44.16598" lon="0.74081">
        <ele>83</ele>
        <time>2024-04-11T13:34:51.000Z</time>
      </trkpt>
      <trkpt lat="44.16597" lon="0.74082">
        <ele>83</ele>
        <time>2024-04-11T13:34:52.000Z</time>
      </trkpt>
      <trkpt lat="44.16596" lon="0.74082">
        <ele>82</ele>
        <time>2024-04-11T13:34:53.000Z</time>
      </trkpt>
      <trkpt lat="44.16595" lon="0.74083">
        <ele>81</ele>
        <time>2024-04-11T13:34:54.000Z</time>
      </trkpt>
      <trkpt lat="44.16594" lon="0.74085">
        <ele>81</ele>
        <time>2024-04-11T13:34:55.000Z</time>
      </trkpt>
      <trkpt lat="44.16594" lon="0.74086">
        <ele>81</ele>
        <time>2024-04-11T13:34:56.000Z</time>
      </trkpt>
      <trkpt lat="44.16593" lon="0.74086">
        <ele>81</ele>
        <time>2024-04-11T13:34:57.000Z</time>
      </trkpt>
      <trkpt lat="44.16592" lon="0.74087">
        <ele>81</ele>
        <time>2024-04-11T13:34:58.000Z</time>
      </trkpt>
      <trkpt lat="44.16591" lon="0.74088">
        <ele>81</ele>
        <time>2024-04-11T13:34:59.000Z</time>
      </trkpt>
      <trkpt lat="44.16591" lon="0.74089">
        <ele>81</ele>
        <time>2024-04-11T13:35:00.000Z</time>
      </trkpt>
      <trkpt lat="44.1659" lon="0.7409">
        <ele>81</ele>
        <time>2024-04-11T13:35:01.000Z</time>
      </trkpt>
      <trkpt lat="44.16589" lon="0.74091">
        <ele>81</ele>
        <time>2024-04-11T13:35:02.000Z</time>
      </trkpt>
      <trkpt lat="44.16588" lon="0.74091">
        <ele>82</ele>
        <time>2024-04-11T13:35:03.000Z</time>
      </trkpt>
      <trkpt lat="44.16588" lon="0.74092">
        <ele>83</ele>
        <time>2024-04-11T13:35:04.000Z</time>
      </trkpt>
      <trkpt lat="44.16587" lon="0.74092">
        <ele>83</ele>
        <time>2024-04-11T13:35:05.000Z</time>
      </trkpt>
      <trkpt lat="44.16586" lon="0.74093">
        <ele>83</ele>
        <time>2024-04-11T13:35:06.000Z</time>
      </trkpt>
      <trkpt lat="44.16585" lon="0.74094">
        <ele>83</ele>
        <time>2024-04-11T13:35:07.000Z</time>
      </trkpt>
      <trkpt lat="44.16584" lon="0.74094">
        <ele>83</ele>
        <time>2024-04-11T13:35:08.000Z</time>
      </trkpt>
      <trkpt lat="44.16582" lon="0.74095">
        <ele>82</ele>
        <time>2024-04-11T13:35:09.000Z</time>
      </trkpt>
      <trkpt lat="44.16581" lon="0.74095">
        <ele>82</ele>
        <time>2024-04-11T13:35:10.000Z</time>
      </trkpt>
      <trkpt lat="44.1658" lon="0.74096">
        <ele>82</ele>
        <time>2024-04-11T13:35:11.000Z</time>
      </trkpt>
      <trkpt lat="44.16579" lon="0.74096">
        <ele>82</ele>
        <time>2024-04-11T13:35:12.000Z</time>
      </trkpt>
      <trkpt lat="44.16578" lon="0.74097">
        <ele>83</ele>
        <time>2024-04-11T13:35:13.000Z</time>
      </trkpt>
      <trkpt lat="44.16577" lon="0.74098">
        <ele>83</ele>
        <time>2024-04-11T13:35:14.000Z</time>
      </trkpt>
      <trkpt lat="44.16576" lon="0.74099">
        <ele>83</ele>
        <time>2024-04-11T13:35:15.000Z</time>
      </trkpt>
      <trkpt lat="44.16575" lon="0.741">
        <ele>83</ele>
        <time>2024-04-11T13:35:16.000Z</time>
      </trkpt>
      <trkpt lat="44.16574" lon="0.74101">
        <ele>83</ele>
        <time>2024-04-11T13:35:17.000Z</time>
      </trkpt>
      <trkpt lat="44.16573" lon="0.74102">
        <ele>82</ele>
        <time>2024-04-11T13:35:18.000Z</time>
      </trkpt>
      <trkpt lat="44.16572" lon="0.74103">
        <ele>83</ele>
        <time>2024-04-11T13:35:19.000Z</time>
      </trkpt>
      <trkpt lat="44.16571" lon="0.74104">
        <ele>83</ele>
        <time>2024-04-11T13:35:20.000Z</time>
      </trkpt>
      <trkpt lat="44.1657" lon="0.74105">
        <ele>83</ele>
        <time>2024-04-11T13:35:21.000Z</time>
      </trkpt>
      <trkpt lat="44.16569" lon="0.74106">
        <ele>83</ele>
        <time>2024-04-11T13:35:22.000Z</time>
      </trkpt>
      <trkpt lat="44.16568" lon="0.74106">
        <ele>83</ele>
        <time>2024-04-11T13:35:23.000Z</time>
      </trkpt>
      <trkpt lat="44.16567" lon="0.74107">
        <ele>83</ele>
        <time>2024-04-11T13:35:24.000Z</time>
      </trkpt>
      <trkpt lat="44.16566" lon="0.74108">
        <ele>83</ele>
        <time>2024-04-11T13:35:25.000Z</time>
      </trkpt>
      <trkpt lat="44.16564" lon="0.74108">
        <ele>84</ele>
        <time>2024-04-11T13:35:26.000Z</time>
      </trkpt>
      <trkpt lat="44.16563" lon="0.74109">
        <ele>84</ele>
        <time>2024-04-11T13:35:27.000Z</time>
      </trkpt>
      <trkpt lat="44.16563" lon="0.7411">
        <ele>84</ele>
        <time>2024-04-11T13:35:28.000Z</time>
      </trkpt>
      <trkpt lat="44.16562" lon="0.74111">
        <ele>83</ele>
        <time>2024-04-11T13:35:29.000Z</time>
      </trkpt>
      <trkpt lat="44.16561" lon="0.74113">
        <ele>84</ele>
        <time>2024-04-11T13:35:30.000Z</time>
      </trkpt>
      <trkpt lat="44.1656" lon="0.74114">
        <ele>84</ele>
        <time>2024-04-11T13:35:31.000Z</time>
      </trkpt>
      <trkpt lat="44.16559" lon="0.74115">
        <ele>84</ele>
        <time>2024-04-11T13:35:32.000Z</time>
      </trkpt>
      <trkpt lat="44.16558" lon="0.74116">
        <ele>84</ele>
        <time>2024-04-11T13:35:33.000Z</time>
      </trkpt>
      <trkpt lat="44.16557" lon="0.74117">
        <ele>84</ele>
        <time>2024-04-11T13:35:34.000Z</time>
      </trkpt>
      <trkpt lat="44.16556" lon="0.74117">
        <ele>84</ele>
        <time>2024-04-11T13:35:35.000Z</time>
      </trkpt>
      <trkpt lat="44.16556" lon="0.74118">
        <ele>85</ele>
        <time>2024-04-11T13:35:36.000Z</time>
      </trkpt>
      <trkpt lat="44.16555" lon="0.74119">
        <ele>85</ele>
        <time>2024-04-11T13:35:37.000Z</time>
      </trkpt>
      <trkpt lat="44.16554" lon="0.74119">
        <ele>85</ele>
        <time>2024-04-11T13:35:38.000Z</time>
      </trkpt>
      <trkpt lat="44.16553" lon="0.7412">
        <ele>85</ele>
        <time>2024-04-11T13:35:39.000Z</time>
      </trkpt>
      <trkpt lat="44.16552" lon="0.74121">
        <ele>85</ele>
        <time>2024-04-11T13:35:40.000Z</time>
      </trkpt>
      <trkpt lat="44.16551" lon="0.74121">
        <ele>86</ele>
        <time>2024-04-11T13:35:41.000Z</time>
      </trkpt>
      <trkpt lat="44.1655" lon="0.74123">
        <ele>86</ele>
        <time>2024-04-11T13:35:42.000Z</time>
      </trkpt>
      <trkpt lat="44.16549" lon="0.74124">
        <ele>86</ele>
        <time>2024-04-11T13:35:43.000Z</time>
      </trkpt>
      <trkpt lat="44.16548" lon="0.74125">
        <ele>86</ele>
        <time>2024-04-11T13:35:44.000Z</time>
      </trkpt>
      <trkpt lat="44.16548" lon="0.74126">
        <ele>87</ele>
        <time>2024-04-11T13:35:45.000Z</time>
      </trkpt>
      <trkpt lat="44.16547" lon="0.74127">
        <ele>87</ele>
        <time>2024-04-11T13:35:46.000Z</time>
      </trkpt>
      <trkpt lat="44.16546" lon="0.74128">
        <ele>87</ele>
        <time>2024-04-11T13:35:47.000Z</time>
      </trkpt>
      <trkpt lat="44.16545" lon="0.74128">
        <ele>87</ele>
        <time>2024-04-11T13:35:48.000Z</time>
      </trkpt>
      <trkpt lat="44.16544" lon="0.74129">
        <ele>87</ele>
        <time>2024-04-11T13:35:49.000Z</time>
      </trkpt>
      <trkpt lat="44.16544" lon="0.7413">
        <ele>87</ele>
        <time>2024-04-11T13:35:50.000Z</time>
      </trkpt>
      <trkpt lat="44.16543" lon="0.74131">
        <ele>87</ele>
        <time>2024-04-11T13:35:51.000Z</time>
      </trkpt>
      <trkpt lat="44.16542" lon="0.74131">
        <ele>87</ele>
        <time>2024-04-11T13:35:52.000Z</time>
      </trkpt>
      <trkpt lat="44.16541" lon="0.74132">
        <ele>87</ele>
        <time>2024-04-11T13:35:53.000Z</time>
      </trkpt>
      <trkpt lat="44.1654" lon="0.74133">
        <ele>87</ele>
        <time>2024-04-11T13:35:54.000Z</time>
      </trkpt>
      <trkpt lat="44.16539" lon="0.74134">
        <ele>88</ele>
        <time>2024-04-11T13:35:55.000Z</time>
      </trkpt>
      <trkpt lat="44.16538" lon="0.74135">
        <ele>88</ele>
        <time>2024-04-11T13:35:56.000Z</time>
      </trkpt>
      <trkpt lat="44.16538" lon="0.74136">
        <ele>88</ele>
        <time>2024-04-11T13:35:57.000Z</time>
      </trkpt>
      <trkpt lat="44.16537" lon="0.74136">
        <ele>88</ele>
        <time>2024-04-11T13:35:58.000Z</time>
      </trkpt>
      <trkpt lat="44.16536" lon="0.74137">
        <ele>88</ele>
        <time>2024-04-11T13:35:59.000Z</time>
      </trkpt>
      <trkpt lat="44.16535" lon="0.74138">
        <ele>89</ele>
        <time>2024-04-11T13:36:00.000Z</time>
      </trkpt>
      <trkpt lat="44.16535" lon="0.74139">
        <ele>89</ele>
        <time>2024-04-11T13:36:01.000Z</time>
      </trkpt>
      <trkpt lat="44.16534" lon="0.7414">
        <ele>89</ele>
        <time>2024-04-11T13:36:02.000Z</time>
      </trkpt>
      <trkpt lat="44.16533" lon="0.74141">
        <ele>89</ele>
        <time>2024-04-11T13:36:03.000Z</time>
      </trkpt>
      <trkpt lat="44.16532" lon="0.74142">
        <ele>89</ele>
        <time>2024-04-11T13:36:04.000Z</time>
      </trkpt>
      <trkpt lat="44.16532" lon="0.74143">
        <ele>90</ele>
        <time>2024-04-11T13:36:05.000Z</time>
      </trkpt>
      <trkpt lat="44.16531" lon="0.74143">
        <ele>90</ele>
        <time>2024-04-11T13:36:06.000Z</time>
      </trkpt>
      <trkpt lat="44.1653" lon="0.74144">
        <ele>90</ele>
        <time>2024-04-11T13:36:07.000Z</time>
      </trkpt>
      <trkpt lat="44.1653" lon="0.74144">
        <ele>91</ele>
        <time>2024-04-11T13:36:08.000Z</time>
      </trkpt>
      <trkpt lat="44.16529" lon="0.74145">
        <ele>91</ele>
        <time>2024-04-11T13:36:09.000Z</time>
      </trkpt>
      <trkpt lat="44.16528" lon="0.74145">
        <ele>91</ele>
        <time>2024-04-11T13:36:10.000Z</time>
      </trkpt>
      <trkpt lat="44.16527" lon="0.74145">
        <ele>92</ele>
        <time>2024-04-11T13:36:11.000Z</time>
      </trkpt>
      <trkpt lat="44.16527" lon="0.74146">
        <ele>92</ele>
        <time>2024-04-11T13:36:12.000Z</time>
      </trkpt>
      <trkpt lat="44.16526" lon="0.74146">
        <ele>92</ele>
        <time>2024-04-11T13:36:13.000Z</time>
      </trkpt>
      <trkpt lat="44.16525" lon="0.74147">
        <ele>92</ele>
        <time>2024-04-11T13:36:14.000Z</time>
      </trkpt>
      <trkpt lat="44.16524" lon="0.74147">
        <ele>92</ele>
        <time>2024-04-11T13:36:15.000Z</time>
      </trkpt>
      <trkpt lat="44.16524" lon="0.74148">
        <ele>93</ele>
        <time>2024-04-11T13:36:16.000Z</time>
      </trkpt>
      <trkpt lat="44.16523" lon="0.74148">
        <ele>94</ele>
        <time>2024-04-11T13:36:17.000Z</time>
      </trkpt>
      <trkpt lat="44.16522" lon="0.74148">
        <ele>94</ele>
        <time>2024-04-11T13:36:18.000Z</time>
      </trkpt>
      <trkpt lat="44.16521" lon="0.74148">
        <ele>94</ele>
        <time>2024-04-11T13:36:19.000Z</time>
      </trkpt>
      <trkpt lat="44.16519" lon="0.74148">
        <ele>94</ele>
        <time>2024-04-11T13:36:20.000Z</time>
      </trkpt>
      <trkpt lat="44.16518" lon="0.74149">
        <ele>94</ele>
        <time>2024-04-11T13:36:21.000Z</time>
      </trkpt>
      <trkpt lat="44.16517" lon="0.74149">
        <ele>94</ele>
        <time>2024-04-11T13:36:22.000Z</time>
      </trkpt>
      <trkpt lat="44.16516" lon="0.74149">
        <ele>94</ele>
        <time>2024-04-11T13:36:23.000Z</time>
      </trkpt>
      <trkpt lat="44.16515" lon="0.7415">
        <ele>94</ele>
        <time>2024-04-11T13:36:24.000Z</time>
      </trkpt>
      <trkpt lat="44.16513" lon="0.7415">
        <ele>94</ele>
        <time>2024-04-11T13:36:25.000Z</time>
      </trkpt>
      <trkpt lat="44.16512" lon="0.7415">
        <ele>94</ele>
        <time>2024-04-11T13:36:26.000Z</time>
      </trkpt>
      <trkpt lat="44.16511" lon="0.74151">
        <ele>94</ele>
        <time>2024-04-11T13:36:27.000Z</time>
      </trkpt>
      <trkpt lat="44.1651" lon="0.74151">
        <ele>93</ele>
        <time>2024-04-11T13:36:28.000Z</time>
      </trkpt>
      <trkpt lat="44.16509" lon="0.74151">
        <ele>94</ele>
        <time>2024-04-11T13:36:29.000Z</time>
      </trkpt>
      <trkpt lat="44.16508" lon="0.74152">
        <ele>93</ele>
        <time>2024-04-11T13:36:30.000Z</time>
      </trkpt>
      <trkpt lat="44.16507" lon="0.74152">
        <ele>94</ele>
        <time>2024-04-11T13:36:31.000Z</time>
      </trkpt>
      <trkpt lat="44.16505" lon="0.74153">
        <ele>93</ele>
        <time>2024-04-11T13:36:32.000Z</time>
      </trkpt>
      <trkpt lat="44.16504" lon="0.74153">
        <ele>93</ele>
        <time>2024-04-11T13:36:33.000Z</time>
      </trkpt>
      <trkpt lat="44.16503" lon="0.74154">
        <ele>93</ele>
        <time>2024-04-11T13:36:34.000Z</time>
      </trkpt>
      <trkpt lat="44.16503" lon="0.74155">
        <ele>93</ele>
        <time>2024-04-11T13:36:35.000Z</time>
      </trkpt>
      <trkpt lat="44.16502" lon="0.74157">
        <ele>92</ele>
        <time>2024-04-11T13:36:36.000Z</time>
      </trkpt>
      <trkpt lat="44.16501" lon="0.74158">
        <ele>92</ele>
        <time>2024-04-11T13:36:37.000Z</time>
      </trkpt>
      <trkpt lat="44.16501" lon="0.74158">
        <ele>92</ele>
        <time>2024-04-11T13:36:38.000Z</time>
      </trkpt>
      <trkpt lat="44.165" lon="0.74159">
        <ele>92</ele>
        <time>2024-04-11T13:36:39.000Z</time>
      </trkpt>
      <trkpt lat="44.165" lon="0.7416">
        <ele>91</ele>
        <time>2024-04-11T13:36:40.000Z</time>
      </trkpt>
      <trkpt lat="44.16499" lon="0.74161">
        <ele>92</ele>
        <time>2024-04-11T13:36:41.000Z</time>
      </trkpt>
      <trkpt lat="44.16499" lon="0.74162">
        <ele>92</ele>
        <time>2024-04-11T13:36:42.000Z</time>
      </trkpt>
      <trkpt lat="44.16499" lon="0.74164">
        <ele>91</ele>
        <time>2024-04-11T13:36:43.000Z</time>
      </trkpt>
      <trkpt lat="44.16499" lon="0.74166">
        <ele>91</ele>
        <time>2024-04-11T13:36:44.000Z</time>
      </trkpt>
      <trkpt lat="44.16499" lon="0.74168">
        <ele>91</ele>
        <time>2024-04-11T13:36:45.000Z</time>
      </trkpt>
      <trkpt lat="44.16499" lon="0.74169">
        <ele>91</ele>
        <time>2024-04-11T13:36:46.000Z</time>
      </trkpt>
      <trkpt lat="44.16499" lon="0.74171">
        <ele>90</ele>
        <time>2024-04-11T13:36:47.000Z</time>
      </trkpt>
      <trkpt lat="44.16499" lon="0.74173">
        <ele>90</ele>
        <time>2024-04-11T13:36:48.000Z</time>
      </trkpt>
      <trkpt lat="44.16499" lon="0.74174">
        <ele>90</ele>
        <time>2024-04-11T13:36:49.000Z</time>
      </trkpt>
      <trkpt lat="44.16499" lon="0.74176">
        <ele>90</ele>
        <time>2024-04-11T13:36:50.000Z</time>
      </trkpt>
      <trkpt lat="44.16499" lon="0.74177">
        <ele>90</ele>
        <time>2024-04-11T13:36:51.000Z</time>
      </trkpt>
      <trkpt lat="44.16499" lon="0.74179">
        <ele>90</ele>
        <time>2024-04-11T13:36:52.000Z</time>
      </trkpt>
      <trkpt lat="44.16498" lon="0.7418">
        <ele>90</ele>
        <time>2024-04-11T13:36:53.000Z</time>
      </trkpt>
      <trkpt lat="44.16498" lon="0.74182">
        <ele>89</ele>
        <time>2024-04-11T13:36:54.000Z</time>
      </trkpt>
      <trkpt lat="44.16498" lon="0.74183">
        <ele>89</ele>
        <time>2024-04-11T13:36:55.000Z</time>
      </trkpt>
      <trkpt lat="44.16497" lon="0.74185">
        <ele>89</ele>
        <time>2024-04-11T13:36:56.000Z</time>
      </trkpt>
      <trkpt lat="44.16497" lon="0.74186">
        <ele>89</ele>
        <time>2024-04-11T13:36:57.000Z</time>
      </trkpt>
      <trkpt lat="44.16497" lon="0.74188">
        <ele>89</ele>
        <time>2024-04-11T13:36:58.000Z</time>
      </trkpt>
      <trkpt lat="44.16497" lon="0.74189">
        <ele>89</ele>
        <time>2024-04-11T13:36:59.000Z</time>
      </trkpt>
      <trkpt lat="44.16497" lon="0.74191">
        <ele>89</ele>
        <time>2024-04-11T13:37:00.000Z</time>
      </trkpt>
      <trkpt lat="44.16497" lon="0.74192">
        <ele>89</ele>
        <time>2024-04-11T13:37:01.000Z</time>
      </trkpt>
      <trkpt lat="44.16497" lon="0.74193">
        <ele>89</ele>
        <time>2024-04-11T13:37:02.000Z</time>
      </trkpt>
      <trkpt lat="44.16497" lon="0.74195">
        <ele>89</ele>
        <time>2024-04-11T13:37:03.000Z</time>
      </trkpt>
      <trkpt lat="44.16497" lon="0.74196">
        <ele>89</ele>
        <time>2024-04-11T13:37:04.000Z</time>
      </trkpt>
      <trkpt lat="44.16496" lon="0.74198">
        <ele>90</ele>
        <time>2024-04-11T13:37:05.000Z</time>
      </trkpt>
      <trkpt lat="44.16496" lon="0.742">
        <ele>90</ele>
        <time>2024-04-11T13:37:06.000Z</time>
      </trkpt>
      <trkpt lat="44.16496" lon="0.74201">
        <ele>91</ele>
        <time>2024-04-11T13:37:07.000Z</time>
      </trkpt>
      <trkpt lat="44.16496" lon="0.74203">
        <ele>92</ele>
        <time>2024-04-11T13:37:08.000Z</time>
      </trkpt>
      <trkpt lat="44.16496" lon="0.74204">
        <ele>92</ele>
        <time>2024-04-11T13:37:09.000Z</time>
      </trkpt>
      <trkpt lat="44.16495" lon="0.74206">
        <ele>92</ele>
        <time>2024-04-11T13:37:10.000Z</time>
      </trkpt>
      <trkpt lat="44.16495" lon="0.74207">
        <ele>93</ele>
        <time>2024-04-11T13:37:11.000Z</time>
      </trkpt>
      <trkpt lat="44.16495" lon="0.74209">
        <ele>93</ele>
        <time>2024-04-11T13:37:12.000Z</time>
      </trkpt>
      <trkpt lat="44.16495" lon="0.7421">
        <ele>94</ele>
        <time>2024-04-11T13:37:13.000Z</time>
      </trkpt>
      <trkpt lat="44.16495" lon="0.74211">
        <ele>94</ele>
        <time>2024-04-11T13:37:14.000Z</time>
      </trkpt>
      <trkpt lat="44.16496" lon="0.74213">
        <ele>95</ele>
        <time>2024-04-11T13:37:15.000Z</time>
      </trkpt>
      <trkpt lat="44.16496" lon="0.74214">
        <ele>95</ele>
        <time>2024-04-11T13:37:16.000Z</time>
      </trkpt>
      <trkpt lat="44.16496" lon="0.74215">
        <ele>95</ele>
        <time>2024-04-11T13:37:17.000Z</time>
      </trkpt>
      <trkpt lat="44.16496" lon="0.74215">
        <ele>95</ele>
        <time>2024-04-11T13:37:18.000Z</time>
      </trkpt>
      <trkpt lat="44.16496" lon="0.74216">
        <ele>95</ele>
        <time>2024-04-11T13:37:19.000Z</time>
      </trkpt>
      <trkpt lat="44.16496" lon="0.74215">
        <ele>95</ele>
        <time>2024-04-11T13:37:20.000Z</time>
      </trkpt>
      <trkpt lat="44.16496" lon="0.74215">
        <ele>95</ele>
        <time>2024-04-11T13:37:21.000Z</time>
      </trkpt>
      <trkpt lat="44.16496" lon="0.74215">
        <ele>95</ele>
        <time>2024-04-11T13:37:22.000Z</time>
      </trkpt>
      <trkpt lat="44.16496" lon="0.74215">
        <ele>96</ele>
        <time>2024-04-11T13:37:23.000Z</time>
      </trkpt>
      <trkpt lat="44.16496" lon="0.74215">
        <ele>96</ele>
        <time>2024-04-11T13:37:24.000Z</time>
      </trkpt>
      <trkpt lat="44.16496" lon="0.74215">
        <ele>95</ele>
        <time>2024-04-11T13:37:25.000Z</time>
      </trkpt>
      <trkpt lat="44.16496" lon="0.74216">
        <ele>95</ele>
        <time>2024-04-11T13:37:26.000Z</time>
      </trkpt>
      <trkpt lat="44.16496" lon="0.74217">
        <ele>95</ele>
        <time>2024-04-11T13:37:27.000Z</time>
      </trkpt>
      <trkpt lat="44.16496" lon="0.74218">
        <ele>95</ele>
        <time>2024-04-11T13:37:28.000Z</time>
      </trkpt>
      <trkpt lat="44.16497" lon="0.74219">
        <ele>95</ele>
        <time>2024-04-11T13:37:29.000Z</time>
      </trkpt>
      <trkpt lat="44.16497" lon="0.74219">
        <ele>95</ele>
        <time>2024-04-11T13:37:30.000Z</time>
      </trkpt>
      <trkpt lat="44.16497" lon="0.7422">
        <ele>95</ele>
        <time>2024-04-11T13:37:31.000Z</time>
      </trkpt>
      <trkpt lat="44.16497" lon="0.7422">
        <ele>95</ele>
        <time>2024-04-11T13:37:32.000Z</time>
      </trkpt>
      <trkpt lat="44.16497" lon="0.7422">
        <ele>95</ele>
        <time>2024-04-11T13:37:33.000Z</time>
      </trkpt>
      <trkpt lat="44.16498" lon="0.74221">
        <ele>95</ele>
        <time>2024-04-11T13:37:34.000Z</time>
      </trkpt>
      <trkpt lat="44.16498" lon="0.74221">
        <ele>95</ele>
        <time>2024-04-11T13:37:35.000Z</time>
      </trkpt>
      <trkpt lat="44.16498" lon="0.74222">
        <ele>95</ele>
        <time>2024-04-11T13:37:36.000Z</time>
      </trkpt>
      <trkpt lat="44.16498" lon="0.74222">
        <ele>96</ele>
        <time>2024-04-11T13:37:37.000Z</time>
      </trkpt>
      <trkpt lat="44.16498" lon="0.74222">
        <ele>95</ele>
        <time>2024-04-11T13:37:38.000Z</time>
      </trkpt>
      <trkpt lat="44.16498" lon="0.74222">
        <ele>95</ele>
        <time>2024-04-11T13:37:39.000Z</time>
      </trkpt>
      <trkpt lat="44.16498" lon="0.74222">
        <ele>95</ele>
        <time>2024-04-11T13:37:40.000Z</time>
      </trkpt>
      <trkpt lat="44.16498" lon="0.74223">
        <ele>95</ele>
        <time>2024-04-11T13:37:41.000Z</time>
      </trkpt>
      <trkpt lat="44.16498" lon="0.74223">
        <ele>94</ele>
        <time>2024-04-11T13:37:42.000Z</time>
      </trkpt>
      <trkpt lat="44.16498" lon="0.74223">
        <ele>94</ele>
        <time>2024-04-11T13:37:43.000Z</time>
      </trkpt>
      <trkpt lat="44.16498" lon="0.74223">
        <ele>94</ele>
        <time>2024-04-11T13:37:44.000Z</time>
      </trkpt>
      <trkpt lat="44.16498" lon="0.74223">
        <ele>94</ele>
        <time>2024-04-11T13:37:45.000Z</time>
      </trkpt>
      <trkpt lat="44.16498" lon="0.74223">
        <ele>94</ele>
        <time>2024-04-11T13:37:46.000Z</time>
      </trkpt>
      <trkpt lat="44.16498" lon="0.74223">
        <ele>94</ele>
        <time>2024-04-11T13:37:47.000Z</time>
      </trkpt>
      <trkpt lat="44.16498" lon="0.74223">
        <ele>93</ele>
        <time>2024-04-11T13:37:48.000Z</time>
      </trkpt>
      <trkpt lat="44.16498" lon="0.74223">
        <ele>93</ele>
        <time>2024-04-11T13:37:49.000Z</time>
      </trkpt>
      <trkpt lat="44.16498" lon="0.74223">
        <ele>93</ele>
        <time>2024-04-11T13:37:50.000Z</time>
      </trkpt>
      <trkpt lat="44.16498" lon="0.74223">
        <ele>93</ele>
        <time>2024-04-11T13:37:51.000Z</time>
      </trkpt>
      <trkpt lat="44.16498" lon="0.74224">
        <ele>93</ele>
        <time>2024-04-11T13:37:52.000Z</time>
      </trkpt>
      <trkpt lat="44.16499" lon="0.74224">
        <ele>94</ele>
        <time>2024-04-11T13:37:53.000Z</time>
      </trkpt>
      <trkpt lat="44.16499" lon="0.74224">
        <ele>94</ele>
        <time>2024-04-11T13:37:54.000Z</time>
      </trkpt>
      <trkpt lat="44.16499" lon="0.74224">
        <ele>94</ele>
        <time>2024-04-11T13:37:55.000Z</time>
      </trkpt>
      <trkpt lat="44.16499" lon="0.74225">
        <ele>94</ele>
        <time>2024-04-11T13:37:56.000Z</time>
      </trkpt>
      <trkpt lat="44.16499" lon="0.74225">
        <ele>95</ele>
        <time>2024-04-11T13:37:57.000Z</time>
      </trkpt>
      <trkpt lat="44.16499" lon="0.74225">
        <ele>94</ele>
        <time>2024-04-11T13:37:58.000Z</time>
      </trkpt>
      <trkpt lat="44.16499" lon="0.74225">
        <ele>94</ele>
        <time>2024-04-11T13:37:59.000Z</time>
      </trkpt>
      <trkpt lat="44.16499" lon="0.74225">
        <ele>94</ele>
        <time>2024-04-11T13:38:00.000Z</time>
      </trkpt>
      <trkpt lat="44.16499" lon="0.74225">
        <ele>94</ele>
        <time>2024-04-11T13:38:01.000Z</time>
      </trkpt>
      <trkpt lat="44.16499" lon="0.74225">
        <ele>94</ele>
        <time>2024-04-11T13:38:02.000Z</time>
      </trkpt>
      <trkpt lat="44.16499" lon="0.74225">
        <ele>94</ele>
        <time>2024-04-11T13:38:03.000Z</time>
      </trkpt>
      <trkpt lat="44.16499" lon="0.74225">
        <ele>93</ele>
        <time>2024-04-11T13:38:04.000Z</time>
      </trkpt>
      <trkpt lat="44.16499" lon="0.74225">
        <ele>93</ele>
        <time>2024-04-11T13:38:05.000Z</time>
      </trkpt>
      <trkpt lat="44.16499" lon="0.74225">
        <ele>92</ele>
        <time>2024-04-11T13:38:06.000Z</time>
      </trkpt>
      <trkpt lat="44.16499" lon="0.74224">
        <ele>92</ele>
        <time>2024-04-11T13:38:07.000Z</time>
      </trkpt>
      <trkpt lat="44.16499" lon="0.74224">
        <ele>93</ele>
        <time>2024-04-11T13:38:08.000Z</time>
      </trkpt>
      <trkpt lat="44.16499" lon="0.74224">
        <ele>93</ele>
        <time>2024-04-11T13:38:09.000Z</time>
      </trkpt>
      <trkpt lat="44.16499" lon="0.74224">
        <ele>93</ele>
        <time>2024-04-11T13:38:10.000Z</time>
      </trkpt>
      <trkpt lat="44.16499" lon="0.74224">
        <ele>93</ele>
        <time>2024-04-11T13:38:11.000Z</time>
      </trkpt>
      <trkpt lat="44.16499" lon="0.74225">
        <ele>93</ele>
        <time>2024-04-11T13:38:12.000Z</time>
      </trkpt>
      <trkpt lat="44.16499" lon="0.74225">
        <ele>94</ele>
        <time>2024-04-11T13:38:13.000Z</time>
      </trkpt>
      <trkpt lat="44.16499" lon="0.74225">
        <ele>94</ele>
        <time>2024-04-11T13:38:14.000Z</time>
      </trkpt>
      <trkpt lat="44.16499" lon="0.74225">
        <ele>94</ele>
        <time>2024-04-11T13:38:15.000Z</time>
      </trkpt>
      <trkpt lat="44.16499" lon="0.74225">
        <ele>94</ele>
        <time>2024-04-11T13:38:16.000Z</time>
      </trkpt>
      <trkpt lat="44.16499" lon="0.74226">
        <ele>95</ele>
        <time>2024-04-11T13:38:17.000Z</time>
      </trkpt>
      <trkpt lat="44.16499" lon="0.74226">
        <ele>95</ele>
        <time>2024-04-11T13:38:18.000Z</time>
      </trkpt>
      <trkpt lat="44.16499" lon="0.74226">
        <ele>95</ele>
        <time>2024-04-11T13:38:19.000Z</time>
      </trkpt>
      <trkpt lat="44.16499" lon="0.74226">
        <ele>95</ele>
        <time>2024-04-11T13:38:20.000Z</time>
      </trkpt>
      <trkpt lat="44.16499" lon="0.74226">
        <ele>95</ele>
        <time>2024-04-11T13:38:21.000Z</time>
      </trkpt>
      <trkpt lat="44.16499" lon="0.74226">
        <ele>95</ele>
        <time>2024-04-11T13:38:22.000Z</time>
      </trkpt>
      <trkpt lat="44.16499" lon="0.74226">
        <ele>95</ele>
        <time>2024-04-11T13:38:23.000Z</time>
      </trkpt>
      <trkpt lat="44.16499" lon="0.74226">
        <ele>95</ele>
        <time>2024-04-11T13:38:24.000Z</time>
      </trkpt>
      <trkpt lat="44.16499" lon="0.74226">
        <ele>95</ele>
        <time>2024-04-11T13:38:25.000Z</time>
      </trkpt>
      <trkpt lat="44.16499" lon="0.74226">
        <ele>95</ele>
        <time>2024-04-11T13:38:26.000Z</time>
      </trkpt>
      <trkpt lat="44.16499" lon="0.74226">
        <ele>95</ele>
        <time>2024-04-11T13:38:27.000Z</time>
      </trkpt>
      <trkpt lat="44.16499" lon="0.74226">
        <ele>95</ele>
        <time>2024-04-11T13:38:28.000Z</time>
      </trkpt>
      <trkpt lat="44.16499" lon="0.74226">
        <ele>95</ele>
        <time>2024-04-11T13:38:29.000Z</time>
      </trkpt>
      <trkpt lat="44.16499" lon="0.74226">
        <ele>96</ele>
        <time>2024-04-11T13:38:30.000Z</time>
      </trkpt>
      <trkpt lat="44.16499" lon="0.74226">
        <ele>96</ele>
        <time>2024-04-11T13:38:31.000Z</time>
      </trkpt>
      <trkpt lat="44.16499" lon="0.74226">
        <ele>97</ele>
        <time>2024-04-11T13:38:32.000Z</time>
      </trkpt>
      <trkpt lat="44.165" lon="0.74226">
        <ele>97</ele>
        <time>2024-04-11T13:38:33.000Z</time>
      </trkpt>
      <trkpt lat="44.165" lon="0.74226">
        <ele>97</ele>
        <time>2024-04-11T13:38:34.000Z</time>
      </trkpt>
      <trkpt lat="44.165" lon="0.74226">
        <ele>97</ele>
        <time>2024-04-11T13:38:35.000Z</time>
      </trkpt>
      <trkpt lat="44.165" lon="0.74226">
        <ele>98</ele>
        <time>2024-04-11T13:38:36.000Z</time>
      </trkpt>
      <trkpt lat="44.165" lon="0.74226">
        <ele>98</ele>
        <time>2024-04-11T13:38:37.000Z</time>
      </trkpt>
      <trkpt lat="44.165" lon="0.74226">
        <ele>98</ele>
        <time>2024-04-11T13:38:38.000Z</time>
      </trkpt>
      <trkpt lat="44.165" lon="0.74226">
        <ele>98</ele>
        <time>2024-04-11T13:38:39.000Z</time>
      </trkpt>
      <trkpt lat="44.16501" lon="0.74226">
        <ele>99</ele>
        <time>2024-04-11T13:38:40.000Z</time>
      </trkpt>
      <trkpt lat="44.16501" lon="0.74226">
        <ele>99</ele>
        <time>2024-04-11T13:38:41.000Z</time>
      </trkpt>
      <trkpt lat="44.16501" lon="0.74226">
        <ele>99</ele>
        <time>2024-04-11T13:38:42.000Z</time>
      </trkpt>
      <trkpt lat="44.16501" lon="0.74226">
        <ele>99</ele>
        <time>2024-04-11T13:38:43.000Z</time>
      </trkpt>
      <trkpt lat="44.16501" lon="0.74226">
        <ele>99</ele>
        <time>2024-04-11T13:38:44.000Z</time>
      </trkpt>
      <trkpt lat="44.16501" lon="0.74226">
        <ele>99</ele>
        <time>2024-04-11T13:38:45.000Z</time>
      </trkpt>
      <trkpt lat="44.16501" lon="0.74226">
        <ele>99</ele>
        <time>2024-04-11T13:38:46.000Z</time>
      </trkpt>
      <trkpt lat="44.16501" lon="0.74226">
        <ele>99</ele>
        <time>2024-04-11T13:38:47.000Z</time>
      </trkpt>
      <trkpt lat="44.16501" lon="0.74226">
        <ele>99</ele>
        <time>2024-04-11T13:38:48.000Z</time>
      </trkpt>
      <trkpt lat="44.16501" lon="0.74226">
        <ele>99</ele>
        <time>2024-04-11T13:38:49.000Z</time>
      </trkpt>
      <trkpt lat="44.16501" lon="0.74226">
        <ele>99</ele>
        <time>2024-04-11T13:38:50.000Z</time>
      </trkpt>
      <trkpt lat="44.16501" lon="0.74226">
        <ele>99</ele>
        <time>2024-04-11T13:38:51.000Z</time>
      </trkpt>
      <trkpt lat="44.16501" lon="0.74227">
        <ele>100</ele>
        <time>2024-04-11T13:38:52.000Z</time>
      </trkpt>
      <trkpt lat="44.16501" lon="0.74227">
        <ele>100</ele>
        <time>2024-04-11T13:38:53.000Z</time>
      </trkpt>
      <trkpt lat="44.16501" lon="0.74227">
        <ele>101</ele>
        <time>2024-04-11T13:38:54.000Z</time>
      </trkpt>
      <trkpt lat="44.16501" lon="0.74227">
        <ele>101</ele>
        <time>2024-04-11T13:38:55.000Z</time>
      </trkpt>
      <trkpt lat="44.16501" lon="0.74228">
        <ele>102</ele>
        <time>2024-04-11T13:38:56.000Z</time>
      </trkpt>
      <trkpt lat="44.16501" lon="0.74228">
        <ele>103</ele>
        <time>2024-04-11T13:38:57.000Z</time>
      </trkpt>
      <trkpt lat="44.16502" lon="0.74229">
        <ele>103</ele>
        <time>2024-04-11T13:38:58.000Z</time>
      </trkpt>
      <trkpt lat="44.16502" lon="0.74229">
        <ele>104</ele>
        <time>2024-04-11T13:38:59.000Z</time>
      </trkpt>
      <trkpt lat="44.16502" lon="0.74229">
        <ele>105</ele>
        <time>2024-04-11T13:39:00.000Z</time>
      </trkpt>
      <trkpt lat="44.16502" lon="0.74229">
        <ele>105</ele>
        <time>2024-04-11T13:39:01.000Z</time>
      </trkpt>
      <trkpt lat="44.16502" lon="0.7423">
        <ele>106</ele>
        <time>2024-04-11T13:39:02.000Z</time>
      </trkpt>
      <trkpt lat="44.16502" lon="0.7423">
        <ele>107</ele>
        <time>2024-04-11T13:39:03.000Z</time>
      </trkpt>
      <trkpt lat="44.16502" lon="0.74231">
        <ele>107</ele>
        <time>2024-04-11T13:39:04.000Z</time>
      </trkpt>
      <trkpt lat="44.16502" lon="0.74231">
        <ele>107</ele>
        <time>2024-04-11T13:39:05.000Z</time>
      </trkpt>
      <trkpt lat="44.16503" lon="0.74231">
        <ele>108</ele>
        <time>2024-04-11T13:39:06.000Z</time>
      </trkpt>
      <trkpt lat="44.16503" lon="0.7423">
        <ele>108</ele>
        <time>2024-04-11T13:39:07.000Z</time>
      </trkpt>
      <trkpt lat="44.16503" lon="0.7423">
        <ele>109</ele>
        <time>2024-04-11T13:39:08.000Z</time>
      </trkpt>
      <trkpt lat="44.16503" lon="0.74231">
        <ele>109</ele>
        <time>2024-04-11T13:39:09.000Z</time>
      </trkpt>
      <trkpt lat="44.16503" lon="0.74231">
        <ele>109</ele>
        <time>2024-04-11T13:39:10.000Z</time>
      </trkpt>
      <trkpt lat="44.16503" lon="0.74231">
        <ele>110</ele>
        <time>2024-04-11T13:39:11.000Z</time>
      </trkpt>
      <trkpt lat="44.16503" lon="0.74231">
        <ele>110</ele>
        <time>2024-04-11T13:39:12.000Z</time>
      </trkpt>
      <trkpt lat="44.16503" lon="0.74231">
        <ele>110</ele>
        <time>2024-04-11T13:39:13.000Z</time>
      </trkpt>
      <trkpt lat="44.16503" lon="0.74231">
        <ele>110</ele>
        <time>2024-04-11T13:39:14.000Z</time>
      </trkpt>
      <trkpt lat="44.16503" lon="0.74231">
        <ele>111</ele>
        <time>2024-04-11T13:39:15.000Z</time>
      </trkpt>
      <trkpt lat="44.16503" lon="0.74231">
        <ele>111</ele>
        <time>2024-04-11T13:39:16.000Z</time>
      </trkpt>
      <trkpt lat="44.16503" lon="0.74231">
        <ele>111</ele>
        <time>2024-04-11T13:39:17.000Z</time>
      </trkpt>
      <trkpt lat="44.16503" lon="0.74232">
        <ele>110</ele>
        <time>2024-04-11T13:39:18.000Z</time>
      </trkpt>
      <trkpt lat="44.16503" lon="0.74232">
        <ele>110</ele>
        <time>2024-04-11T13:39:19.000Z</time>
      </trkpt>
      <trkpt lat="44.16503" lon="0.74231">
        <ele>110</ele>
        <time>2024-04-11T13:39:20.000Z</time>
      </trkpt>
      <trkpt lat="44.16503" lon="0.74231">
        <ele>110</ele>
        <time>2024-04-11T13:39:21.000Z</time>
      </trkpt>
      <trkpt lat="44.16503" lon="0.74231">
        <ele>109</ele>
        <time>2024-04-11T13:39:22.000Z</time>
      </trkpt>
      <trkpt lat="44.16503" lon="0.74231">
        <ele>109</ele>
        <time>2024-04-11T13:39:23.000Z</time>
      </trkpt>
      <trkpt lat="44.16503" lon="0.74231">
        <ele>109</ele>
        <time>2024-04-11T13:39:24.000Z</time>
      </trkpt>
      <trkpt lat="44.16503" lon="0.74231">
        <ele>108</ele>
        <time>2024-04-11T13:39:25.000Z</time>
      </trkpt>
      <trkpt lat="44.16503" lon="0.74231">
        <ele>108</ele>
        <time>2024-04-11T13:39:26.000Z</time>
      </trkpt>
      <trkpt lat="44.16503" lon="0.7423">
        <ele>108</ele>
        <time>2024-04-11T13:39:27.000Z</time>
      </trkpt>
      <trkpt lat="44.16503" lon="0.7423">
        <ele>108</ele>
        <time>2024-04-11T13:39:28.000Z</time>
      </trkpt>
      <trkpt lat="44.16503" lon="0.7423">
        <ele>107</ele>
        <time>2024-04-11T13:39:29.000Z</time>
      </trkpt>
      <trkpt lat="44.16504" lon="0.7423">
        <ele>107</ele>
        <time>2024-04-11T13:39:30.000Z</time>
      </trkpt>
      <trkpt lat="44.16504" lon="0.7423">
        <ele>107</ele>
        <time>2024-04-11T13:39:31.000Z</time>
      </trkpt>
      <trkpt lat="44.16504" lon="0.7423">
        <ele>107</ele>
        <time>2024-04-11T13:39:32.000Z</time>
      </trkpt>
      <trkpt lat="44.16504" lon="0.7423">
        <ele>107</ele>
        <time>2024-04-11T13:39:33.000Z</time>
      </trkpt>
      <trkpt lat="44.16504" lon="0.7423">
        <ele>107</ele>
        <time>2024-04-11T13:39:34.000Z</time>
      </trkpt>
      <trkpt lat="44.16504" lon="0.74229">
        <ele>106</ele>
        <time>2024-04-11T13:39:35.000Z</time>
      </trkpt>
      <trkpt lat="44.16504" lon="0.74229">
        <ele>106</ele>
        <time>2024-04-11T13:39:36.000Z</time>
      </trkpt>
      <trkpt lat="44.16503" lon="0.74229">
        <ele>106</ele>
        <time>2024-04-11T13:39:37.000Z</time>
      </trkpt>
      <trkpt lat="44.16503" lon="0.74229">
        <ele>106</ele>
        <time>2024-04-11T13:39:38.000Z</time>
      </trkpt>
      <trkpt lat="44.16503" lon="0.74229">
        <ele>106</ele>
        <time>2024-04-11T13:39:39.000Z</time>
      </trkpt>
      <trkpt lat="44.16503" lon="0.74229">
        <ele>106</ele>
        <time>2024-04-11T13:39:40.000Z</time>
      </trkpt>
      <trkpt lat="44.16503" lon="0.74229">
        <ele>105</ele>
        <time>2024-04-11T13:39:41.000Z</time>
      </trkpt>
      <trkpt lat="44.16503" lon="0.74229">
        <ele>105</ele>
        <time>2024-04-11T13:39:42.000Z</time>
      </trkpt>
      <trkpt lat="44.16503" lon="0.74229">
        <ele>105</ele>
        <time>2024-04-11T13:39:43.000Z</time>
      </trkpt>
      <trkpt lat="44.16503" lon="0.74229">
        <ele>105</ele>
        <time>2024-04-11T13:39:44.000Z</time>
      </trkpt>
      <trkpt lat="44.16503" lon="0.74229">
        <ele>105</ele>
        <time>2024-04-11T13:39:45.000Z</time>
      </trkpt>
      <trkpt lat="44.16503" lon="0.74229">
        <ele>105</ele>
        <time>2024-04-11T13:39:46.000Z</time>
      </trkpt>
      <trkpt lat="44.16503" lon="0.74229">
        <ele>106</ele>
        <time>2024-04-11T13:39:47.000Z</time>
      </trkpt>
      <trkpt lat="44.16503" lon="0.74229">
        <ele>105</ele>
        <time>2024-04-11T13:39:48.000Z</time>
      </trkpt>
      <trkpt lat="44.16503" lon="0.74229">
        <ele>105</ele>
        <time>2024-04-11T13:39:49.000Z</time>
      </trkpt>
      <trkpt lat="44.16503" lon="0.74229">
        <ele>105</ele>
        <time>2024-04-11T13:39:50.000Z</time>
      </trkpt>
      <trkpt lat="44.16503" lon="0.74229">
        <ele>105</ele>
        <time>2024-04-11T13:39:51.000Z</time>
      </trkpt>
      <trkpt lat="44.16503" lon="0.74229">
        <ele>105</ele>
        <time>2024-04-11T13:39:52.000Z</time>
      </trkpt>
      <trkpt lat="44.16503" lon="0.74229">
        <ele>105</ele>
        <time>2024-04-11T13:39:53.000Z</time>
      </trkpt>
      <trkpt lat="44.16504" lon="0.74229">
        <ele>106</ele>
        <time>2024-04-11T13:39:54.000Z</time>
      </trkpt>
      <trkpt lat="44.16504" lon="0.74229">
        <ele>106</ele>
        <time>2024-04-11T13:39:55.000Z</time>
      </trkpt>
      <trkpt lat="44.16504" lon="0.74229">
        <ele>106</ele>
        <time>2024-04-11T13:39:56.000Z</time>
      </trkpt>
      <trkpt lat="44.16504" lon="0.74229">
        <ele>106</ele>
        <time>2024-04-11T13:39:57.000Z</time>
      </trkpt>
      <trkpt lat="44.16504" lon="0.74229">
        <ele>105</ele>
        <time>2024-04-11T13:39:58.000Z</time>
      </trkpt>
      <trkpt lat="44.16504" lon="0.74229">
        <ele>105</ele>
        <time>2024-04-11T13:39:59.000Z</time>
      </trkpt>
      <trkpt lat="44.16504" lon="0.74229">
        <ele>105</ele>
        <time>2024-04-11T13:40:00.000Z</time>
      </trkpt>
      <trkpt lat="44.16504" lon="0.74229">
        <ele>105</ele>
        <time>2024-04-11T13:40:01.000Z</time>
      </trkpt>
      <trkpt lat="44.16504" lon="0.74229">
        <ele>105</ele>
        <time>2024-04-11T13:40:02.000Z</time>
      </trkpt>
      <trkpt lat="44.16504" lon="0.74229">
        <ele>105</ele>
        <time>2024-04-11T13:40:03.000Z</time>
      </trkpt>
      <trkpt lat="44.16504" lon="0.74229">
        <ele>105</ele>
        <time>2024-04-11T13:40:04.000Z</time>
      </trkpt>
      <trkpt lat="44.16504" lon="0.74229">
        <ele>104</ele>
        <time>2024-04-11T13:40:05.000Z</time>
      </trkpt>
      <trkpt lat="44.16504" lon="0.74229">
        <ele>104</ele>
        <time>2024-04-11T13:40:06.000Z</time>
      </trkpt>
      <trkpt lat="44.16504" lon="0.74229">
        <ele>104</ele>
        <time>2024-04-11T13:40:07.000Z</time>
      </trkpt>
      <trkpt lat="44.16504" lon="0.74229">
        <ele>104</ele>
        <time>2024-04-11T13:40:08.000Z</time>
      </trkpt>
      <trkpt lat="44.16504" lon="0.74229">
        <ele>104</ele>
        <time>2024-04-11T13:40:09.000Z</time>
      </trkpt>
      <trkpt lat="44.16504" lon="0.74229">
        <ele>104</ele>
        <time>2024-04-11T13:40:10.000Z</time>
      </trkpt>
      <trkpt lat="44.16504" lon="0.74229">
        <ele>105</ele>
        <time>2024-04-11T13:40:11.000Z</time>
      </trkpt>
      <trkpt lat="44.16504" lon="0.74229">
        <ele>105</ele>
        <time>2024-04-11T13:40:12.000Z</time>
      </trkpt>
      <trkpt lat="44.16504" lon="0.74229">
        <ele>105</ele>
        <time>2024-04-11T13:40:13.000Z</time>
      </trkpt>
      <trkpt lat="44.16505" lon="0.74229">
        <ele>106</ele>
        <time>2024-04-11T13:40:14.000Z</time>
      </trkpt>
      <trkpt lat="44.16505" lon="0.74229">
        <ele>107</ele>
        <time>2024-04-11T13:40:15.000Z</time>
      </trkpt>
      <trkpt lat="44.16505" lon="0.74229">
        <ele>107</ele>
        <time>2024-04-11T13:40:16.000Z</time>
      </trkpt>
      <trkpt lat="44.16506" lon="0.7423">
        <ele>108</ele>
        <time>2024-04-11T13:40:17.000Z</time>
      </trkpt>
      <trkpt lat="44.16506" lon="0.7423">
        <ele>108</ele>
        <time>2024-04-11T13:40:18.000Z</time>
      </trkpt>
      <trkpt lat="44.16506" lon="0.7423">
        <ele>109</ele>
        <time>2024-04-11T13:40:19.000Z</time>
      </trkpt>
      <trkpt lat="44.16506" lon="0.7423">
        <ele>109</ele>
        <time>2024-04-11T13:40:20.000Z</time>
      </trkpt>
      <trkpt lat="44.16507" lon="0.74231">
        <ele>110</ele>
        <time>2024-04-11T13:40:21.000Z</time>
      </trkpt>
      <trkpt lat="44.16507" lon="0.74231">
        <ele>110</ele>
        <time>2024-04-11T13:40:22.000Z</time>
      </trkpt>
      <trkpt lat="44.16507" lon="0.74231">
        <ele>110</ele>
        <time>2024-04-11T13:40:23.000Z</time>
      </trkpt>
      <trkpt lat="44.16507" lon="0.74231">
        <ele>110</ele>
        <time>2024-04-11T13:40:24.000Z</time>
      </trkpt>
      <trkpt lat="44.16507" lon="0.7423">
        <ele>109</ele>
        <time>2024-04-11T13:40:25.000Z</time>
      </trkpt>
      <trkpt lat="44.16507" lon="0.7423">
        <ele>109</ele>
        <time>2024-04-11T13:40:26.000Z</time>
      </trkpt>
      <trkpt lat="44.16507" lon="0.7423">
        <ele>109</ele>
        <time>2024-04-11T13:40:27.000Z</time>
      </trkpt>
      <trkpt lat="44.16507" lon="0.7423">
        <ele>109</ele>
        <time>2024-04-11T13:40:28.000Z</time>
      </trkpt>
      <trkpt lat="44.16506" lon="0.7423">
        <ele>109</ele>
        <time>2024-04-11T13:40:29.000Z</time>
      </trkpt>
      <trkpt lat="44.16506" lon="0.74231">
        <ele>109</ele>
        <time>2024-04-11T13:40:30.000Z</time>
      </trkpt>
      <trkpt lat="44.16506" lon="0.74231">
        <ele>108</ele>
        <time>2024-04-11T13:40:31.000Z</time>
      </trkpt>
      <trkpt lat="44.16506" lon="0.74231">
        <ele>108</ele>
        <time>2024-04-11T13:40:32.000Z</time>
      </trkpt>
      <trkpt lat="44.16506" lon="0.74231">
        <ele>108</ele>
        <time>2024-04-11T13:40:33.000Z</time>
      </trkpt>
      <trkpt lat="44.16506" lon="0.74231">
        <ele>108</ele>
        <time>2024-04-11T13:40:34.000Z</time>
      </trkpt>
      <trkpt lat="44.16506" lon="0.74231">
        <ele>108</ele>
        <time>2024-04-11T13:40:35.000Z</time>
      </trkpt>
      <trkpt lat="44.16505" lon="0.74231">
        <ele>107</ele>
        <time>2024-04-11T13:40:36.000Z</time>
      </trkpt>
      <trkpt lat="44.16505" lon="0.74231">
        <ele>107</ele>
        <time>2024-04-11T13:40:37.000Z</time>
      </trkpt>
      <trkpt lat="44.16505" lon="0.74231">
        <ele>107</ele>
        <time>2024-04-11T13:40:38.000Z</time>
      </trkpt>
      <trkpt lat="44.16505" lon="0.74231">
        <ele>107</ele>
        <time>2024-04-11T13:40:39.000Z</time>
      </trkpt>
      <trkpt lat="44.16505" lon="0.74232">
        <ele>107</ele>
        <time>2024-04-11T13:40:40.000Z</time>
      </trkpt>
      <trkpt lat="44.16505" lon="0.74232">
        <ele>107</ele>
        <time>2024-04-11T13:40:41.000Z</time>
      </trkpt>
      <trkpt lat="44.16505" lon="0.74232">
        <ele>106</ele>
        <time>2024-04-11T13:40:42.000Z</time>
      </trkpt>
      <trkpt lat="44.16505" lon="0.74232">
        <ele>107</ele>
        <time>2024-04-11T13:40:43.000Z</time>
      </trkpt>
      <trkpt lat="44.16505" lon="0.74232">
        <ele>107</ele>
        <time>2024-04-11T13:40:44.000Z</time>
      </trkpt>
      <trkpt lat="44.16505" lon="0.74232">
        <ele>108</ele>
        <time>2024-04-11T13:40:45.000Z</time>
      </trkpt>
      <trkpt lat="44.16505" lon="0.74232">
        <ele>108</ele>
        <time>2024-04-11T13:40:46.000Z</time>
      </trkpt>
      <trkpt lat="44.16505" lon="0.74232">
        <ele>108</ele>
        <time>2024-04-11T13:40:47.000Z</time>
      </trkpt>
      <trkpt lat="44.16505" lon="0.74232">
        <ele>107</ele>
        <time>2024-04-11T13:40:48.000Z</time>
      </trkpt>
      <trkpt lat="44.16505" lon="0.74231">
        <ele>107</ele>
        <time>2024-04-11T13:40:49.000Z</time>
      </trkpt>
      <trkpt lat="44.16504" lon="0.74231">
        <ele>107</ele>
        <time>2024-04-11T13:40:50.000Z</time>
      </trkpt>
      <trkpt lat="44.16504" lon="0.74231">
        <ele>107</ele>
        <time>2024-04-11T13:40:51.000Z</time>
      </trkpt>
      <trkpt lat="44.16504" lon="0.74231">
        <ele>106</ele>
        <time>2024-04-11T13:40:52.000Z</time>
      </trkpt>
      <trkpt lat="44.16504" lon="0.74231">
        <ele>105</ele>
        <time>2024-04-11T13:40:53.000Z</time>
      </trkpt>
      <trkpt lat="44.16503" lon="0.7423">
        <ele>103</ele>
        <time>2024-04-11T13:40:54.000Z</time>
      </trkpt>
      <trkpt lat="44.16503" lon="0.7423">
        <ele>103</ele>
        <time>2024-04-11T13:40:55.000Z</time>
      </trkpt>
      <trkpt lat="44.16503" lon="0.7423">
        <ele>103</ele>
        <time>2024-04-11T13:40:56.000Z</time>
      </trkpt>
      <trkpt lat="44.16503" lon="0.74229">
        <ele>103</ele>
        <time>2024-04-11T13:40:57.000Z</time>
      </trkpt>
      <trkpt lat="44.16502" lon="0.74229">
        <ele>102</ele>
        <time>2024-04-11T13:40:58.000Z</time>
      </trkpt>
      <trkpt lat="44.16502" lon="0.74228">
        <ele>102</ele>
        <time>2024-04-11T13:40:59.000Z</time>
      </trkpt>
      <trkpt lat="44.16502" lon="0.74228">
        <ele>102</ele>
        <time>2024-04-11T13:41:00.000Z</time>
      </trkpt>
      <trkpt lat="44.16502" lon="0.74228">
        <ele>102</ele>
        <time>2024-04-11T13:41:01.000Z</time>
      </trkpt>
      <trkpt lat="44.16501" lon="0.74228">
        <ele>102</ele>
        <time>2024-04-11T13:41:02.000Z</time>
      </trkpt>
      <trkpt lat="44.16501" lon="0.74228">
        <ele>102</ele>
        <time>2024-04-11T13:41:03.000Z</time>
      </trkpt>
      <trkpt lat="44.16501" lon="0.74228">
        <ele>102</ele>
        <time>2024-04-11T13:41:04.000Z</time>
      </trkpt>
      <trkpt lat="44.16501" lon="0.74228">
        <ele>102</ele>
        <time>2024-04-11T13:41:05.000Z</time>
      </trkpt>
      <trkpt lat="44.16501" lon="0.74228">
        <ele>102</ele>
        <time>2024-04-11T13:41:06.000Z</time>
      </trkpt>
      <trkpt lat="44.16501" lon="0.74228">
        <ele>102</ele>
        <time>2024-04-11T13:41:07.000Z</time>
      </trkpt>
      <trkpt lat="44.16501" lon="0.74228">
        <ele>101</ele>
        <time>2024-04-11T13:41:08.000Z</time>
      </trkpt>
      <trkpt lat="44.16501" lon="0.74229">
        <ele>102</ele>
        <time>2024-04-11T13:41:09.000Z</time>
      </trkpt>
      <trkpt lat="44.16501" lon="0.74229">
        <ele>101</ele>
        <time>2024-04-11T13:41:10.000Z</time>
      </trkpt>
      <trkpt lat="44.16501" lon="0.7423">
        <ele>101</ele>
        <time>2024-04-11T13:41:11.000Z</time>
      </trkpt>
      <trkpt lat="44.16501" lon="0.7423">
        <ele>101</ele>
        <time>2024-04-11T13:41:12.000Z</time>
      </trkpt>
      <trkpt lat="44.16501" lon="0.74231">
        <ele>101</ele>
        <time>2024-04-11T13:41:13.000Z</time>
      </trkpt>
      <trkpt lat="44.16501" lon="0.74232">
        <ele>100</ele>
        <time>2024-04-11T13:41:14.000Z</time>
      </trkpt>
      <trkpt lat="44.16501" lon="0.74232">
        <ele>99</ele>
        <time>2024-04-11T13:41:15.000Z</time>
      </trkpt>
      <trkpt lat="44.16501" lon="0.74233">
        <ele>99</ele>
        <time>2024-04-11T13:41:16.000Z</time>
      </trkpt>
      <trkpt lat="44.16501" lon="0.74234">
        <ele>99</ele>
        <time>2024-04-11T13:41:17.000Z</time>
      </trkpt>
      <trkpt lat="44.165" lon="0.74234">
        <ele>98</ele>
        <time>2024-04-11T13:41:18.000Z</time>
      </trkpt>
      <trkpt lat="44.165" lon="0.74235">
        <ele>98</ele>
        <time>2024-04-11T13:41:19.000Z</time>
      </trkpt>
      <trkpt lat="44.165" lon="0.74236">
        <ele>97</ele>
        <time>2024-04-11T13:41:20.000Z</time>
      </trkpt>
      <trkpt lat="44.165" lon="0.74236">
        <ele>97</ele>
        <time>2024-04-11T13:41:21.000Z</time>
      </trkpt>
      <trkpt lat="44.165" lon="0.74237">
        <ele>96</ele>
        <time>2024-04-11T13:41:22.000Z</time>
      </trkpt>
      <trkpt lat="44.165" lon="0.74238">
        <ele>96</ele>
        <time>2024-04-11T13:41:23.000Z</time>
      </trkpt>
      <trkpt lat="44.165" lon="0.74239">
        <ele>96</ele>
        <time>2024-04-11T13:41:24.000Z</time>
      </trkpt>
      <trkpt lat="44.165" lon="0.74239">
        <ele>96</ele>
        <time>2024-04-11T13:41:25.000Z</time>
      </trkpt>
      <trkpt lat="44.165" lon="0.7424">
        <ele>96</ele>
        <time>2024-04-11T13:41:26.000Z</time>
      </trkpt>
      <trkpt lat="44.165" lon="0.74241">
        <ele>95</ele>
        <time>2024-04-11T13:41:27.000Z</time>
      </trkpt>
      <trkpt lat="44.16499" lon="0.74242">
        <ele>95</ele>
        <time>2024-04-11T13:41:28.000Z</time>
      </trkpt>
      <trkpt lat="44.16499" lon="0.74243">
        <ele>95</ele>
        <time>2024-04-11T13:41:29.000Z</time>
      </trkpt>
      <trkpt lat="44.16499" lon="0.74243">
        <ele>95</ele>
        <time>2024-04-11T13:41:30.000Z</time>
      </trkpt>
      <trkpt lat="44.16499" lon="0.74244">
        <ele>95</ele>
        <time>2024-04-11T13:41:31.000Z</time>
      </trkpt>
      <trkpt lat="44.16499" lon="0.74244">
        <ele>95</ele>
        <time>2024-04-11T13:41:32.000Z</time>
      </trkpt>
      <trkpt lat="44.16499" lon="0.74245">
        <ele>96</ele>
        <time>2024-04-11T13:41:33.000Z</time>
      </trkpt>
      <trkpt lat="44.16499" lon="0.74246">
        <ele>96</ele>
        <time>2024-04-11T13:41:34.000Z</time>
      </trkpt>
      <trkpt lat="44.16499" lon="0.74247">
        <ele>95</ele>
        <time>2024-04-11T13:41:35.000Z</time>
      </trkpt>
      <trkpt lat="44.16499" lon="0.74248">
        <ele>95</ele>
        <time>2024-04-11T13:41:36.000Z</time>
      </trkpt>
      <trkpt lat="44.16498" lon="0.7425">
        <ele>96</ele>
        <time>2024-04-11T13:41:37.000Z</time>
      </trkpt>
      <trkpt lat="44.16498" lon="0.74251">
        <ele>96</ele>
        <time>2024-04-11T13:41:38.000Z</time>
      </trkpt>
      <trkpt lat="44.16498" lon="0.74253">
        <ele>97</ele>
        <time>2024-04-11T13:41:39.000Z</time>
      </trkpt>
      <trkpt lat="44.16497" lon="0.74254">
        <ele>97</ele>
        <time>2024-04-11T13:41:40.000Z</time>
      </trkpt>
      <trkpt lat="44.16497" lon="0.74255">
        <ele>97</ele>
        <time>2024-04-11T13:41:41.000Z</time>
      </trkpt>
      <trkpt lat="44.16497" lon="0.74256">
        <ele>97</ele>
        <time>2024-04-11T13:41:42.000Z</time>
      </trkpt>
      <trkpt lat="44.16496" lon="0.74257">
        <ele>97</ele>
        <time>2024-04-11T13:41:43.000Z</time>
      </trkpt>
      <trkpt lat="44.16496" lon="0.74258">
        <ele>97</ele>
        <time>2024-04-11T13:41:44.000Z</time>
      </trkpt>
      <trkpt lat="44.16496" lon="0.7426">
        <ele>98</ele>
        <time>2024-04-11T13:41:45.000Z</time>
      </trkpt>
      <trkpt lat="44.16495" lon="0.74261">
        <ele>98</ele>
        <time>2024-04-11T13:41:46.000Z</time>
      </trkpt>
      <trkpt lat="44.16495" lon="0.74262">
        <ele>99</ele>
        <time>2024-04-11T13:41:47.000Z</time>
      </trkpt>
      <trkpt lat="44.16495" lon="0.74263">
        <ele>99</ele>
        <time>2024-04-11T13:41:48.000Z</time>
      </trkpt>
      <trkpt lat="44.16495" lon="0.74264">
        <ele>98</ele>
        <time>2024-04-11T13:41:49.000Z</time>
      </trkpt>
      <trkpt lat="44.16494" lon="0.74265">
        <ele>99</ele>
        <time>2024-04-11T13:41:50.000Z</time>
      </trkpt>
      <trkpt lat="44.16494" lon="0.74266">
        <ele>99</ele>
        <time>2024-04-11T13:41:51.000Z</time>
      </trkpt>
      <trkpt lat="44.16494" lon="0.74268">
        <ele>98</ele>
        <time>2024-04-11T13:41:52.000Z</time>
      </trkpt>
      <trkpt lat="44.16493" lon="0.74269">
        <ele>98</ele>
        <time>2024-04-11T13:41:53.000Z</time>
      </trkpt>
      <trkpt lat="44.16493" lon="0.7427">
        <ele>99</ele>
        <time>2024-04-11T13:41:54.000Z</time>
      </trkpt>
      <trkpt lat="44.16493" lon="0.74271">
        <ele>99</ele>
        <time>2024-04-11T13:41:55.000Z</time>
      </trkpt>
      <trkpt lat="44.16493" lon="0.74272">
        <ele>100</ele>
        <time>2024-04-11T13:41:56.000Z</time>
      </trkpt>
      <trkpt lat="44.16492" lon="0.74273">
        <ele>100</ele>
        <time>2024-04-11T13:41:57.000Z</time>
      </trkpt>
      <trkpt lat="44.16492" lon="0.74274">
        <ele>99</ele>
        <time>2024-04-11T13:41:58.000Z</time>
      </trkpt>
      <trkpt lat="44.16492" lon="0.74275">
        <ele>100</ele>
        <time>2024-04-11T13:41:59.000Z</time>
      </trkpt>
      <trkpt lat="44.16491" lon="0.74276">
        <ele>100</ele>
        <time>2024-04-11T13:42:00.000Z</time>
      </trkpt>
      <trkpt lat="44.16491" lon="0.74277">
        <ele>100</ele>
        <time>2024-04-11T13:42:01.000Z</time>
      </trkpt>
      <trkpt lat="44.16491" lon="0.74278">
        <ele>100</ele>
        <time>2024-04-11T13:42:02.000Z</time>
      </trkpt>
      <trkpt lat="44.1649" lon="0.74279">
        <ele>100</ele>
        <time>2024-04-11T13:42:03.000Z</time>
      </trkpt>
      <trkpt lat="44.1649" lon="0.7428">
        <ele>100</ele>
        <time>2024-04-11T13:42:04.000Z</time>
      </trkpt>
      <trkpt lat="44.1649" lon="0.74282">
        <ele>100</ele>
        <time>2024-04-11T13:42:05.000Z</time>
      </trkpt>
      <trkpt lat="44.16489" lon="0.74283">
        <ele>100</ele>
        <time>2024-04-11T13:42:06.000Z</time>
      </trkpt>
      <trkpt lat="44.16489" lon="0.74284">
        <ele>100</ele>
        <time>2024-04-11T13:42:07.000Z</time>
      </trkpt>
      <trkpt lat="44.16488" lon="0.74284">
        <ele>100</ele>
        <time>2024-04-11T13:42:08.000Z</time>
      </trkpt>
      <trkpt lat="44.16488" lon="0.74285">
        <ele>100</ele>
        <time>2024-04-11T13:42:09.000Z</time>
      </trkpt>
      <trkpt lat="44.16488" lon="0.74287">
        <ele>100</ele>
        <time>2024-04-11T13:42:10.000Z</time>
      </trkpt>
      <trkpt lat="44.16488" lon="0.74288">
        <ele>100</ele>
        <time>2024-04-11T13:42:11.000Z</time>
      </trkpt>
      <trkpt lat="44.16488" lon="0.74289">
        <ele>100</ele>
        <time>2024-04-11T13:42:12.000Z</time>
      </trkpt>
      <trkpt lat="44.16488" lon="0.7429">
        <ele>100</ele>
        <time>2024-04-11T13:42:13.000Z</time>
      </trkpt>
      <trkpt lat="44.16488" lon="0.74291">
        <ele>100</ele>
        <time>2024-04-11T13:42:14.000Z</time>
      </trkpt>
      <trkpt lat="44.16488" lon="0.74292">
        <ele>101</ele>
        <time>2024-04-11T13:42:15.000Z</time>
      </trkpt>
      <trkpt lat="44.16487" lon="0.74293">
        <ele>101</ele>
        <time>2024-04-11T13:42:16.000Z</time>
      </trkpt>
      <trkpt lat="44.16487" lon="0.74295">
        <ele>102</ele>
        <time>2024-04-11T13:42:17.000Z</time>
      </trkpt>
      <trkpt lat="44.16487" lon="0.74296">
        <ele>102</ele>
        <time>2024-04-11T13:42:18.000Z</time>
      </trkpt>
      <trkpt lat="44.16486" lon="0.74297">
        <ele>102</ele>
        <time>2024-04-11T13:42:19.000Z</time>
      </trkpt>
      <trkpt lat="44.16486" lon="0.74298">
        <ele>101</ele>
        <time>2024-04-11T13:42:20.000Z</time>
      </trkpt>
      <trkpt lat="44.16486" lon="0.743">
        <ele>101</ele>
        <time>2024-04-11T13:42:21.000Z</time>
      </trkpt>
      <trkpt lat="44.16485" lon="0.74301">
        <ele>101</ele>
        <time>2024-04-11T13:42:22.000Z</time>
      </trkpt>
      <trkpt lat="44.16485" lon="0.74302">
        <ele>101</ele>
        <time>2024-04-11T13:42:23.000Z</time>
      </trkpt>
      <trkpt lat="44.16485" lon="0.74303">
        <ele>101</ele>
        <time>2024-04-11T13:42:24.000Z</time>
      </trkpt>
      <trkpt lat="44.16485" lon="0.74304">
        <ele>101</ele>
        <time>2024-04-11T13:42:25.000Z</time>
      </trkpt>
      <trkpt lat="44.16485" lon="0.74306">
        <ele>101</ele>
        <time>2024-04-11T13:42:26.000Z</time>
      </trkpt>
      <trkpt lat="44.16484" lon="0.74307">
        <ele>101</ele>
        <time>2024-04-11T13:42:27.000Z</time>
      </trkpt>
      <trkpt lat="44.16484" lon="0.74308">
        <ele>101</ele>
        <time>2024-04-11T13:42:28.000Z</time>
      </trkpt>
      <trkpt lat="44.16484" lon="0.74309">
        <ele>101</ele>
        <time>2024-04-11T13:42:29.000Z</time>
      </trkpt>
      <trkpt lat="44.16483" lon="0.7431">
        <ele>101</ele>
        <time>2024-04-11T13:42:30.000Z</time>
      </trkpt>
      <trkpt lat="44.16483" lon="0.74311">
        <ele>101</ele>
        <time>2024-04-11T13:42:31.000Z</time>
      </trkpt>
      <trkpt lat="44.16483" lon="0.74313">
        <ele>101</ele>
        <time>2024-04-11T13:42:32.000Z</time>
      </trkpt>
      <trkpt lat="44.16483" lon="0.74314">
        <ele>101</ele>
        <time>2024-04-11T13:42:33.000Z</time>
      </trkpt>
      <trkpt lat="44.16482" lon="0.74315">
        <ele>102</ele>
        <time>2024-04-11T13:42:34.000Z</time>
      </trkpt>
      <trkpt lat="44.16482" lon="0.74316">
        <ele>102</ele>
        <time>2024-04-11T13:42:35.000Z</time>
      </trkpt>
      <trkpt lat="44.16482" lon="0.74317">
        <ele>102</ele>
        <time>2024-04-11T13:42:36.000Z</time>
      </trkpt>
      <trkpt lat="44.16482" lon="0.74318">
        <ele>103</ele>
        <time>2024-04-11T13:42:37.000Z</time>
      </trkpt>
      <trkpt lat="44.16482" lon="0.7432">
        <ele>103</ele>
        <time>2024-04-11T13:42:38.000Z</time>
      </trkpt>
      <trkpt lat="44.16482" lon="0.74321">
        <ele>103</ele>
        <time>2024-04-11T13:42:39.000Z</time>
      </trkpt>
      <trkpt lat="44.16482" lon="0.74322">
        <ele>103</ele>
        <time>2024-04-11T13:42:40.000Z</time>
      </trkpt>
      <trkpt lat="44.16482" lon="0.74323">
        <ele>103</ele>
        <time>2024-04-11T13:42:41.000Z</time>
      </trkpt>
      <trkpt lat="44.16482" lon="0.74325">
        <ele>103</ele>
        <time>2024-04-11T13:42:42.000Z</time>
      </trkpt>
      <trkpt lat="44.16482" lon="0.74326">
        <ele>103</ele>
        <time>2024-04-11T13:42:43.000Z</time>
      </trkpt>
      <trkpt lat="44.16482" lon="0.74327">
        <ele>104</ele>
        <time>2024-04-11T13:42:44.000Z</time>
      </trkpt>
      <trkpt lat="44.16481" lon="0.74328">
        <ele>104</ele>
        <time>2024-04-11T13:42:45.000Z</time>
      </trkpt>
      <trkpt lat="44.16481" lon="0.74329">
        <ele>104</ele>
        <time>2024-04-11T13:42:46.000Z</time>
      </trkpt>
      <trkpt lat="44.16481" lon="0.7433">
        <ele>104</ele>
        <time>2024-04-11T13:42:47.000Z</time>
      </trkpt>
      <trkpt lat="44.16481" lon="0.74332">
        <ele>104</ele>
        <time>2024-04-11T13:42:48.000Z</time>
      </trkpt>
      <trkpt lat="44.16481" lon="0.74333">
        <ele>104</ele>
        <time>2024-04-11T13:42:49.000Z</time>
      </trkpt>
      <trkpt lat="44.1648" lon="0.74335">
        <ele>104</ele>
        <time>2024-04-11T13:42:50.000Z</time>
      </trkpt>
      <trkpt lat="44.1648" lon="0.74336">
        <ele>105</ele>
        <time>2024-04-11T13:42:51.000Z</time>
      </trkpt>
      <trkpt lat="44.1648" lon="0.74338">
        <ele>105</ele>
        <time>2024-04-11T13:42:52.000Z</time>
      </trkpt>
      <trkpt lat="44.1648" lon="0.74339">
        <ele>105</ele>
        <time>2024-04-11T13:42:53.000Z</time>
      </trkpt>
      <trkpt lat="44.1648" lon="0.7434">
        <ele>105</ele>
        <time>2024-04-11T13:42:54.000Z</time>
      </trkpt>
      <trkpt lat="44.16479" lon="0.74341">
        <ele>105</ele>
        <time>2024-04-11T13:42:55.000Z</time>
      </trkpt>
      <trkpt lat="44.16479" lon="0.74343">
        <ele>105</ele>
        <time>2024-04-11T13:42:56.000Z</time>
      </trkpt>
      <trkpt lat="44.16479" lon="0.74344">
        <ele>105</ele>
        <time>2024-04-11T13:42:57.000Z</time>
      </trkpt>
      <trkpt lat="44.16479" lon="0.74345">
        <ele>105</ele>
        <time>2024-04-11T13:42:58.000Z</time>
      </trkpt>
      <trkpt lat="44.16478" lon="0.74346">
        <ele>105</ele>
        <time>2024-04-11T13:42:59.000Z</time>
      </trkpt>
      <trkpt lat="44.16478" lon="0.74348">
        <ele>105</ele>
        <time>2024-04-11T13:43:00.000Z</time>
      </trkpt>
      <trkpt lat="44.16478" lon="0.74349">
        <ele>105</ele>
        <time>2024-04-11T13:43:01.000Z</time>
      </trkpt>
      <trkpt lat="44.16478" lon="0.7435">
        <ele>104</ele>
        <time>2024-04-11T13:43:02.000Z</time>
      </trkpt>
      <trkpt lat="44.16478" lon="0.74351">
        <ele>104</ele>
        <time>2024-04-11T13:43:03.000Z</time>
      </trkpt>
      <trkpt lat="44.16478" lon="0.74353">
        <ele>104</ele>
        <time>2024-04-11T13:43:04.000Z</time>
      </trkpt>
      <trkpt lat="44.16477" lon="0.74354">
        <ele>104</ele>
        <time>2024-04-11T13:43:05.000Z</time>
      </trkpt>
      <trkpt lat="44.16477" lon="0.74355">
        <ele>103</ele>
        <time>2024-04-11T13:43:06.000Z</time>
      </trkpt>
      <trkpt lat="44.16477" lon="0.74356">
        <ele>103</ele>
        <time>2024-04-11T13:43:07.000Z</time>
      </trkpt>
      <trkpt lat="44.16476" lon="0.74357">
        <ele>103</ele>
        <time>2024-04-11T13:43:08.000Z</time>
      </trkpt>
      <trkpt lat="44.16476" lon="0.74359">
        <ele>103</ele>
        <time>2024-04-11T13:43:09.000Z</time>
      </trkpt>
      <trkpt lat="44.16476" lon="0.7436">
        <ele>103</ele>
        <time>2024-04-11T13:43:10.000Z</time>
      </trkpt>
      <trkpt lat="44.16476" lon="0.74361">
        <ele>104</ele>
        <time>2024-04-11T13:43:11.000Z</time>
      </trkpt>
      <trkpt lat="44.16476" lon="0.74363">
        <ele>104</ele>
        <time>2024-04-11T13:43:12.000Z</time>
      </trkpt>
      <trkpt lat="44.16476" lon="0.74364">
        <ele>104</ele>
        <time>2024-04-11T13:43:13.000Z</time>
      </trkpt>
      <trkpt lat="44.16475" lon="0.74365">
        <ele>104</ele>
        <time>2024-04-11T13:43:14.000Z</time>
      </trkpt>
      <trkpt lat="44.16475" lon="0.74366">
        <ele>104</ele>
        <time>2024-04-11T13:43:15.000Z</time>
      </trkpt>
      <trkpt lat="44.16475" lon="0.74367">
        <ele>104</ele>
        <time>2024-04-11T13:43:16.000Z</time>
      </trkpt>
      <trkpt lat="44.16475" lon="0.74368">
        <ele>104</ele>
        <time>2024-04-11T13:43:17.000Z</time>
      </trkpt>
      <trkpt lat="44.16474" lon="0.74369">
        <ele>104</ele>
        <time>2024-04-11T13:43:18.000Z</time>
      </trkpt>
      <trkpt lat="44.16474" lon="0.7437">
        <ele>104</ele>
        <time>2024-04-11T13:43:19.000Z</time>
      </trkpt>
      <trkpt lat="44.16474" lon="0.74372">
        <ele>104</ele>
        <time>2024-04-11T13:43:20.000Z</time>
      </trkpt>
      <trkpt lat="44.16474" lon="0.74373">
        <ele>104</ele>
        <time>2024-04-11T13:43:21.000Z</time>
      </trkpt>
      <trkpt lat="44.16474" lon="0.74374">
        <ele>104</ele>
        <time>2024-04-11T13:43:22.000Z</time>
      </trkpt>
      <trkpt lat="44.16473" lon="0.74375">
        <ele>104</ele>
        <time>2024-04-11T13:43:23.000Z</time>
      </trkpt>
      <trkpt lat="44.16473" lon="0.74377">
        <ele>105</ele>
        <time>2024-04-11T13:43:24.000Z</time>
      </trkpt>
      <trkpt lat="44.16473" lon="0.74378">
        <ele>105</ele>
        <time>2024-04-11T13:43:25.000Z</time>
      </trkpt>
      <trkpt lat="44.16473" lon="0.74379">
        <ele>105</ele>
        <time>2024-04-11T13:43:26.000Z</time>
      </trkpt>
      <trkpt lat="44.16472" lon="0.7438">
        <ele>105</ele>
        <time>2024-04-11T13:43:27.000Z</time>
      </trkpt>
      <trkpt lat="44.16472" lon="0.74382">
        <ele>105</ele>
        <time>2024-04-11T13:43:28.000Z</time>
      </trkpt>
      <trkpt lat="44.16472" lon="0.74383">
        <ele>105</ele>
        <time>2024-04-11T13:43:29.000Z</time>
      </trkpt>
      <trkpt lat="44.16472" lon="0.74384">
        <ele>106</ele>
        <time>2024-04-11T13:43:30.000Z</time>
      </trkpt>
      <trkpt lat="44.16471" lon="0.74385">
        <ele>106</ele>
        <time>2024-04-11T13:43:31.000Z</time>
      </trkpt>
      <trkpt lat="44.16471" lon="0.74386">
        <ele>107</ele>
        <time>2024-04-11T13:43:32.000Z</time>
      </trkpt>
      <trkpt lat="44.16471" lon="0.74387">
        <ele>107</ele>
        <time>2024-04-11T13:43:33.000Z</time>
      </trkpt>
      <trkpt lat="44.16471" lon="0.74389">
        <ele>107</ele>
        <time>2024-04-11T13:43:34.000Z</time>
      </trkpt>
      <trkpt lat="44.16471" lon="0.7439">
        <ele>107</ele>
        <time>2024-04-11T13:43:35.000Z</time>
      </trkpt>
      <trkpt lat="44.16471" lon="0.74391">
        <ele>107</ele>
        <time>2024-04-11T13:43:36.000Z</time>
      </trkpt>
      <trkpt lat="44.1647" lon="0.74392">
        <ele>107</ele>
        <time>2024-04-11T13:43:37.000Z</time>
      </trkpt>
      <trkpt lat="44.1647" lon="0.74393">
        <ele>107</ele>
        <time>2024-04-11T13:43:38.000Z</time>
      </trkpt>
      <trkpt lat="44.1647" lon="0.74395">
        <ele>107</ele>
        <time>2024-04-11T13:43:39.000Z</time>
      </trkpt>
      <trkpt lat="44.1647" lon="0.74396">
        <ele>107</ele>
        <time>2024-04-11T13:43:40.000Z</time>
      </trkpt>
      <trkpt lat="44.1647" lon="0.74397">
        <ele>107</ele>
        <time>2024-04-11T13:43:41.000Z</time>
      </trkpt>
      <trkpt lat="44.16469" lon="0.74398">
        <ele>107</ele>
        <time>2024-04-11T13:43:42.000Z</time>
      </trkpt>
      <trkpt lat="44.16469" lon="0.74399">
        <ele>107</ele>
        <time>2024-04-11T13:43:43.000Z</time>
      </trkpt>
      <trkpt lat="44.16469" lon="0.744">
        <ele>107</ele>
        <time>2024-04-11T13:43:44.000Z</time>
      </trkpt>
      <trkpt lat="44.16469" lon="0.74402">
        <ele>108</ele>
        <time>2024-04-11T13:43:45.000Z</time>
      </trkpt>
      <trkpt lat="44.16468" lon="0.74403">
        <ele>107</ele>
        <time>2024-04-11T13:43:46.000Z</time>
      </trkpt>
      <trkpt lat="44.16468" lon="0.74404">
        <ele>107</ele>
        <time>2024-04-11T13:43:47.000Z</time>
      </trkpt>
      <trkpt lat="44.16468" lon="0.74405">
        <ele>107</ele>
        <time>2024-04-11T13:43:48.000Z</time>
      </trkpt>
      <trkpt lat="44.16468" lon="0.74407">
        <ele>107</ele>
        <time>2024-04-11T13:43:49.000Z</time>
      </trkpt>
      <trkpt lat="44.16467" lon="0.74408">
        <ele>107</ele>
        <time>2024-04-11T13:43:50.000Z</time>
      </trkpt>
      <trkpt lat="44.16467" lon="0.74409">
        <ele>107</ele>
        <time>2024-04-11T13:43:51.000Z</time>
      </trkpt>
      <trkpt lat="44.16467" lon="0.7441">
        <ele>107</ele>
        <time>2024-04-11T13:43:52.000Z</time>
      </trkpt>
      <trkpt lat="44.16467" lon="0.74411">
        <ele>108</ele>
        <time>2024-04-11T13:43:53.000Z</time>
      </trkpt>
      <trkpt lat="44.16466" lon="0.74413">
        <ele>108</ele>
        <time>2024-04-11T13:43:54.000Z</time>
      </trkpt>
      <trkpt lat="44.16466" lon="0.74414">
        <ele>108</ele>
        <time>2024-04-11T13:43:55.000Z</time>
      </trkpt>
      <trkpt lat="44.16466" lon="0.74415">
        <ele>108</ele>
        <time>2024-04-11T13:43:56.000Z</time>
      </trkpt>
      <trkpt lat="44.16466" lon="0.74416">
        <ele>108</ele>
        <time>2024-04-11T13:43:57.000Z</time>
      </trkpt>
      <trkpt lat="44.16466" lon="0.74417">
        <ele>109</ele>
        <time>2024-04-11T13:43:58.000Z</time>
      </trkpt>
      <trkpt lat="44.16466" lon="0.74418">
        <ele>110</ele>
        <time>2024-04-11T13:43:59.000Z</time>
      </trkpt>
      <trkpt lat="44.16465" lon="0.7442">
        <ele>109</ele>
        <time>2024-04-11T13:44:00.000Z</time>
      </trkpt>
      <trkpt lat="44.16465" lon="0.74421">
        <ele>109</ele>
        <time>2024-04-11T13:44:01.000Z</time>
      </trkpt>
      <trkpt lat="44.16465" lon="0.74422">
        <ele>109</ele>
        <time>2024-04-11T13:44:02.000Z</time>
      </trkpt>
      <trkpt lat="44.16465" lon="0.74423">
        <ele>109</ele>
        <time>2024-04-11T13:44:03.000Z</time>
      </trkpt>
      <trkpt lat="44.16465" lon="0.74424">
        <ele>109</ele>
        <time>2024-04-11T13:44:04.000Z</time>
      </trkpt>
      <trkpt lat="44.16464" lon="0.74425">
        <ele>109</ele>
        <time>2024-04-11T13:44:05.000Z</time>
      </trkpt>
      <trkpt lat="44.16464" lon="0.74426">
        <ele>109</ele>
        <time>2024-04-11T13:44:06.000Z</time>
      </trkpt>
      <trkpt lat="44.16464" lon="0.74427">
        <ele>109</ele>
        <time>2024-04-11T13:44:07.000Z</time>
      </trkpt>
      <trkpt lat="44.16464" lon="0.74428">
        <ele>109</ele>
        <time>2024-04-11T13:44:08.000Z</time>
      </trkpt>
      <trkpt lat="44.16463" lon="0.74429">
        <ele>109</ele>
        <time>2024-04-11T13:44:09.000Z</time>
      </trkpt>
      <trkpt lat="44.16463" lon="0.74431">
        <ele>110</ele>
        <time>2024-04-11T13:44:10.000Z</time>
      </trkpt>
      <trkpt lat="44.16463" lon="0.74432">
        <ele>110</ele>
        <time>2024-04-11T13:44:11.000Z</time>
      </trkpt>
      <trkpt lat="44.16463" lon="0.74433">
        <ele>110</ele>
        <time>2024-04-11T13:44:12.000Z</time>
      </trkpt>
      <trkpt lat="44.16462" lon="0.74434">
        <ele>110</ele>
        <time>2024-04-11T13:44:13.000Z</time>
      </trkpt>
      <trkpt lat="44.16462" lon="0.74436">
        <ele>111</ele>
        <time>2024-04-11T13:44:14.000Z</time>
      </trkpt>
      <trkpt lat="44.16462" lon="0.74437">
        <ele>111</ele>
        <time>2024-04-11T13:44:15.000Z</time>
      </trkpt>
      <trkpt lat="44.16462" lon="0.74438">
        <ele>111</ele>
        <time>2024-04-11T13:44:16.000Z</time>
      </trkpt>
      <trkpt lat="44.16462" lon="0.74439">
        <ele>112</ele>
        <time>2024-04-11T13:44:17.000Z</time>
      </trkpt>
      <trkpt lat="44.16461" lon="0.7444">
        <ele>112</ele>
        <time>2024-04-11T13:44:18.000Z</time>
      </trkpt>
      <trkpt lat="44.16461" lon="0.74442">
        <ele>113</ele>
        <time>2024-04-11T13:44:19.000Z</time>
      </trkpt>
      <trkpt lat="44.16461" lon="0.74443">
        <ele>112</ele>
        <time>2024-04-11T13:44:20.000Z</time>
      </trkpt>
      <trkpt lat="44.16461" lon="0.74444">
        <ele>113</ele>
        <time>2024-04-11T13:44:21.000Z</time>
      </trkpt>
      <trkpt lat="44.16461" lon="0.74445">
        <ele>113</ele>
        <time>2024-04-11T13:44:22.000Z</time>
      </trkpt>
      <trkpt lat="44.1646" lon="0.74446">
        <ele>113</ele>
        <time>2024-04-11T13:44:23.000Z</time>
      </trkpt>
      <trkpt lat="44.1646" lon="0.74447">
        <ele>113</ele>
        <time>2024-04-11T13:44:24.000Z</time>
      </trkpt>
      <trkpt lat="44.1646" lon="0.74448">
        <ele>113</ele>
        <time>2024-04-11T13:44:25.000Z</time>
      </trkpt>
      <trkpt lat="44.1646" lon="0.74449">
        <ele>113</ele>
        <time>2024-04-11T13:44:26.000Z</time>
      </trkpt>
      <trkpt lat="44.1646" lon="0.7445">
        <ele>113</ele>
        <time>2024-04-11T13:44:27.000Z</time>
      </trkpt>
      <trkpt lat="44.16459" lon="0.74451">
        <ele>113</ele>
        <time>2024-04-11T13:44:28.000Z</time>
      </trkpt>
      <trkpt lat="44.16459" lon="0.74452">
        <ele>113</ele>
        <time>2024-04-11T13:44:29.000Z</time>
      </trkpt>
      <trkpt lat="44.16459" lon="0.74453">
        <ele>113</ele>
        <time>2024-04-11T13:44:30.000Z</time>
      </trkpt>
      <trkpt lat="44.16459" lon="0.74454">
        <ele>114</ele>
        <time>2024-04-11T13:44:31.000Z</time>
      </trkpt>
      <trkpt lat="44.16459" lon="0.74455">
        <ele>114</ele>
        <time>2024-04-11T13:44:32.000Z</time>
      </trkpt>
      <trkpt lat="44.16458" lon="0.74457">
        <ele>114</ele>
        <time>2024-04-11T13:44:33.000Z</time>
      </trkpt>
      <trkpt lat="44.16458" lon="0.74458">
        <ele>113</ele>
        <time>2024-04-11T13:44:34.000Z</time>
      </trkpt>
      <trkpt lat="44.16458" lon="0.74459">
        <ele>113</ele>
        <time>2024-04-11T13:44:35.000Z</time>
      </trkpt>
      <trkpt lat="44.16458" lon="0.7446">
        <ele>113</ele>
        <time>2024-04-11T13:44:36.000Z</time>
      </trkpt>
      <trkpt lat="44.16458" lon="0.74461">
        <ele>113</ele>
        <time>2024-04-11T13:44:37.000Z</time>
      </trkpt>
      <trkpt lat="44.16458" lon="0.74462">
        <ele>114</ele>
        <time>2024-04-11T13:44:38.000Z</time>
      </trkpt>
      <trkpt lat="44.16458" lon="0.74463">
        <ele>114</ele>
        <time>2024-04-11T13:44:39.000Z</time>
      </trkpt>
      <trkpt lat="44.16458" lon="0.74464">
        <ele>114</ele>
        <time>2024-04-11T13:44:40.000Z</time>
      </trkpt>
      <trkpt lat="44.16457" lon="0.74465">
        <ele>115</ele>
        <time>2024-04-11T13:44:41.000Z</time>
      </trkpt>
      <trkpt lat="44.16457" lon="0.74466">
        <ele>115</ele>
        <time>2024-04-11T13:44:42.000Z</time>
      </trkpt>
      <trkpt lat="44.16457" lon="0.74466">
        <ele>115</ele>
        <time>2024-04-11T13:44:43.000Z</time>
      </trkpt>
      <trkpt lat="44.16456" lon="0.74467">
        <ele>115</ele>
        <time>2024-04-11T13:44:44.000Z</time>
      </trkpt>
      <trkpt lat="44.16456" lon="0.74468">
        <ele>114</ele>
        <time>2024-04-11T13:44:45.000Z</time>
      </trkpt>
      <trkpt lat="44.16456" lon="0.74469">
        <ele>115</ele>
        <time>2024-04-11T13:44:46.000Z</time>
      </trkpt>
      <trkpt lat="44.16456" lon="0.74471">
        <ele>115</ele>
        <time>2024-04-11T13:44:47.000Z</time>
      </trkpt>
      <trkpt lat="44.16456" lon="0.74472">
        <ele>115</ele>
        <time>2024-04-11T13:44:48.000Z</time>
      </trkpt>
      <trkpt lat="44.16456" lon="0.74473">
        <ele>116</ele>
        <time>2024-04-11T13:44:49.000Z</time>
      </trkpt>
      <trkpt lat="44.16456" lon="0.74474">
        <ele>116</ele>
        <time>2024-04-11T13:44:50.000Z</time>
      </trkpt>
      <trkpt lat="44.16456" lon="0.74475">
        <ele>115</ele>
        <time>2024-04-11T13:44:51.000Z</time>
      </trkpt>
      <trkpt lat="44.16456" lon="0.74476">
        <ele>116</ele>
        <time>2024-04-11T13:44:52.000Z</time>
      </trkpt>
      <trkpt lat="44.16456" lon="0.74477">
        <ele>115</ele>
        <time>2024-04-11T13:44:53.000Z</time>
      </trkpt>
      <trkpt lat="44.16456" lon="0.74478">
        <ele>115</ele>
        <time>2024-04-11T13:44:54.000Z</time>
      </trkpt>
      <trkpt lat="44.16455" lon="0.74479">
        <ele>115</ele>
        <time>2024-04-11T13:44:55.000Z</time>
      </trkpt>
      <trkpt lat="44.16455" lon="0.7448">
        <ele>115</ele>
        <time>2024-04-11T13:44:56.000Z</time>
      </trkpt>
      <trkpt lat="44.16455" lon="0.74481">
        <ele>115</ele>
        <time>2024-04-11T13:44:57.000Z</time>
      </trkpt>
      <trkpt lat="44.16455" lon="0.74482">
        <ele>114</ele>
        <time>2024-04-11T13:44:58.000Z</time>
      </trkpt>
      <trkpt lat="44.16455" lon="0.74483">
        <ele>115</ele>
        <time>2024-04-11T13:44:59.000Z</time>
      </trkpt>
      <trkpt lat="44.16455" lon="0.74484">
        <ele>115</ele>
        <time>2024-04-11T13:45:00.000Z</time>
      </trkpt>
      <trkpt lat="44.16455" lon="0.74485">
        <ele>115</ele>
        <time>2024-04-11T13:45:01.000Z</time>
      </trkpt>
      <trkpt lat="44.16455" lon="0.74486">
        <ele>115</ele>
        <time>2024-04-11T13:45:02.000Z</time>
      </trkpt>
      <trkpt lat="44.16455" lon="0.74486">
        <ele>116</ele>
        <time>2024-04-11T13:45:03.000Z</time>
      </trkpt>
      <trkpt lat="44.16455" lon="0.74487">
        <ele>115</ele>
        <time>2024-04-11T13:45:04.000Z</time>
      </trkpt>
      <trkpt lat="44.16455" lon="0.74488">
        <ele>116</ele>
        <time>2024-04-11T13:45:05.000Z</time>
      </trkpt>
      <trkpt lat="44.16455" lon="0.74489">
        <ele>116</ele>
        <time>2024-04-11T13:45:06.000Z</time>
      </trkpt>
      <trkpt lat="44.16455" lon="0.74489">
        <ele>116</ele>
        <time>2024-04-11T13:45:07.000Z</time>
      </trkpt>
      <trkpt lat="44.16455" lon="0.7449">
        <ele>116</ele>
        <time>2024-04-11T13:45:08.000Z</time>
      </trkpt>
      <trkpt lat="44.16455" lon="0.74491">
        <ele>115</ele>
        <time>2024-04-11T13:45:09.000Z</time>
      </trkpt>
      <trkpt lat="44.16455" lon="0.74492">
        <ele>116</ele>
        <time>2024-04-11T13:45:10.000Z</time>
      </trkpt>
      <trkpt lat="44.16455" lon="0.74493">
        <ele>116</ele>
        <time>2024-04-11T13:45:11.000Z</time>
      </trkpt>
      <trkpt lat="44.16455" lon="0.74493">
        <ele>116</ele>
        <time>2024-04-11T13:45:12.000Z</time>
      </trkpt>
      <trkpt lat="44.16455" lon="0.74494">
        <ele>116</ele>
        <time>2024-04-11T13:45:13.000Z</time>
      </trkpt>
      <trkpt lat="44.16455" lon="0.74495">
        <ele>116</ele>
        <time>2024-04-11T13:45:14.000Z</time>
      </trkpt>
      <trkpt lat="44.16455" lon="0.74496">
        <ele>116</ele>
        <time>2024-04-11T13:45:15.000Z</time>
      </trkpt>
      <trkpt lat="44.16456" lon="0.74496">
        <ele>116</ele>
        <time>2024-04-11T13:45:16.000Z</time>
      </trkpt>
      <trkpt lat="44.16456" lon="0.74497">
        <ele>117</ele>
        <time>2024-04-11T13:45:17.000Z</time>
      </trkpt>
      <trkpt lat="44.16457" lon="0.74498">
        <ele>117</ele>
        <time>2024-04-11T13:45:18.000Z</time>
      </trkpt>
      <trkpt lat="44.16457" lon="0.74499">
        <ele>117</ele>
        <time>2024-04-11T13:45:19.000Z</time>
      </trkpt>
      <trkpt lat="44.16457" lon="0.745">
        <ele>118</ele>
        <time>2024-04-11T13:45:20.000Z</time>
      </trkpt>
      <trkpt lat="44.16458" lon="0.745">
        <ele>118</ele>
        <time>2024-04-11T13:45:21.000Z</time>
      </trkpt>
      <trkpt lat="44.16458" lon="0.74501">
        <ele>118</ele>
        <time>2024-04-11T13:45:22.000Z</time>
      </trkpt>
      <trkpt lat="44.16458" lon="0.74501">
        <ele>118</ele>
        <time>2024-04-11T13:45:23.000Z</time>
      </trkpt>
      <trkpt lat="44.16459" lon="0.74502">
        <ele>119</ele>
        <time>2024-04-11T13:45:24.000Z</time>
      </trkpt>
      <trkpt lat="44.16459" lon="0.74502">
        <ele>119</ele>
        <time>2024-04-11T13:45:25.000Z</time>
      </trkpt>
      <trkpt lat="44.16459" lon="0.74503">
        <ele>119</ele>
        <time>2024-04-11T13:45:26.000Z</time>
      </trkpt>
      <trkpt lat="44.1646" lon="0.74504">
        <ele>120</ele>
        <time>2024-04-11T13:45:27.000Z</time>
      </trkpt>
      <trkpt lat="44.1646" lon="0.74504">
        <ele>119</ele>
        <time>2024-04-11T13:45:28.000Z</time>
      </trkpt>
      <trkpt lat="44.1646" lon="0.74505">
        <ele>120</ele>
        <time>2024-04-11T13:45:29.000Z</time>
      </trkpt>
      <trkpt lat="44.16461" lon="0.74506">
        <ele>120</ele>
        <time>2024-04-11T13:45:30.000Z</time>
      </trkpt>
      <trkpt lat="44.16461" lon="0.74506">
        <ele>120</ele>
        <time>2024-04-11T13:45:31.000Z</time>
      </trkpt>
      <trkpt lat="44.16461" lon="0.74507">
        <ele>121</ele>
        <time>2024-04-11T13:45:32.000Z</time>
      </trkpt>
      <trkpt lat="44.16462" lon="0.74508">
        <ele>121</ele>
        <time>2024-04-11T13:45:33.000Z</time>
      </trkpt>
      <trkpt lat="44.16462" lon="0.74509">
        <ele>121</ele>
        <time>2024-04-11T13:45:34.000Z</time>
      </trkpt>
      <trkpt lat="44.16463" lon="0.74509">
        <ele>122</ele>
        <time>2024-04-11T13:45:35.000Z</time>
      </trkpt>
      <trkpt lat="44.16463" lon="0.7451">
        <ele>122</ele>
        <time>2024-04-11T13:45:36.000Z</time>
      </trkpt>
      <trkpt lat="44.16463" lon="0.74511">
        <ele>123</ele>
        <time>2024-04-11T13:45:37.000Z</time>
      </trkpt>
      <trkpt lat="44.16463" lon="0.74511">
        <ele>123</ele>
        <time>2024-04-11T13:45:38.000Z</time>
      </trkpt>
      <trkpt lat="44.16464" lon="0.74512">
        <ele>123</ele>
        <time>2024-04-11T13:45:39.000Z</time>
      </trkpt>
      <trkpt lat="44.16464" lon="0.74513">
        <ele>124</ele>
        <time>2024-04-11T13:45:40.000Z</time>
      </trkpt>
      <trkpt lat="44.16464" lon="0.74514">
        <ele>124</ele>
        <time>2024-04-11T13:45:41.000Z</time>
      </trkpt>
      <trkpt lat="44.16465" lon="0.74514">
        <ele>124</ele>
        <time>2024-04-11T13:45:42.000Z</time>
      </trkpt>
      <trkpt lat="44.16465" lon="0.74515">
        <ele>124</ele>
        <time>2024-04-11T13:45:43.000Z</time>
      </trkpt>
      <trkpt lat="44.16466" lon="0.74516">
        <ele>125</ele>
        <time>2024-04-11T13:45:44.000Z</time>
      </trkpt>
      <trkpt lat="44.16466" lon="0.74517">
        <ele>125</ele>
        <time>2024-04-11T13:45:45.000Z</time>
      </trkpt>
      <trkpt lat="44.16467" lon="0.74518">
        <ele>125</ele>
        <time>2024-04-11T13:45:46.000Z</time>
      </trkpt>
      <trkpt lat="44.16467" lon="0.74519">
        <ele>126</ele>
        <time>2024-04-11T13:45:47.000Z</time>
      </trkpt>
      <trkpt lat="44.16467" lon="0.74519">
        <ele>126</ele>
        <time>2024-04-11T13:45:48.000Z</time>
      </trkpt>
      <trkpt lat="44.16468" lon="0.7452">
        <ele>126</ele>
        <time>2024-04-11T13:45:49.000Z</time>
      </trkpt>
      <trkpt lat="44.16468" lon="0.74521">
        <ele>126</ele>
        <time>2024-04-11T13:45:50.000Z</time>
      </trkpt>
      <trkpt lat="44.16468" lon="0.74521">
        <ele>126</ele>
        <time>2024-04-11T13:45:51.000Z</time>
      </trkpt>
      <trkpt lat="44.16469" lon="0.74522">
        <ele>127</ele>
        <time>2024-04-11T13:45:52.000Z</time>
      </trkpt>
      <trkpt lat="44.16469" lon="0.74523">
        <ele>128</ele>
        <time>2024-04-11T13:45:53.000Z</time>
      </trkpt>
      <trkpt lat="44.1647" lon="0.74523">
        <ele>128</ele>
        <time>2024-04-11T13:45:54.000Z</time>
      </trkpt>
      <trkpt lat="44.1647" lon="0.74524">
        <ele>128</ele>
        <time>2024-04-11T13:45:55.000Z</time>
      </trkpt>
      <trkpt lat="44.1647" lon="0.74524">
        <ele>129</ele>
        <time>2024-04-11T13:45:56.000Z</time>
      </trkpt>
      <trkpt lat="44.16471" lon="0.74525">
        <ele>130</ele>
        <time>2024-04-11T13:45:57.000Z</time>
      </trkpt>
      <trkpt lat="44.16471" lon="0.74525">
        <ele>130</ele>
        <time>2024-04-11T13:45:58.000Z</time>
      </trkpt>
      <trkpt lat="44.16471" lon="0.74526">
        <ele>130</ele>
        <time>2024-04-11T13:45:59.000Z</time>
      </trkpt>
      <trkpt lat="44.16472" lon="0.74526">
        <ele>130</ele>
        <time>2024-04-11T13:46:00.000Z</time>
      </trkpt>
      <trkpt lat="44.16472" lon="0.74527">
        <ele>131</ele>
        <time>2024-04-11T13:46:01.000Z</time>
      </trkpt>
      <trkpt lat="44.16473" lon="0.74527">
        <ele>131</ele>
        <time>2024-04-11T13:46:02.000Z</time>
      </trkpt>
      <trkpt lat="44.16473" lon="0.74528">
        <ele>132</ele>
        <time>2024-04-11T13:46:03.000Z</time>
      </trkpt>
      <trkpt lat="44.16474" lon="0.74529">
        <ele>133</ele>
        <time>2024-04-11T13:46:04.000Z</time>
      </trkpt>
      <trkpt lat="44.16474" lon="0.7453">
        <ele>133</ele>
        <time>2024-04-11T13:46:05.000Z</time>
      </trkpt>
      <trkpt lat="44.16474" lon="0.74531">
        <ele>134</ele>
        <time>2024-04-11T13:46:06.000Z</time>
      </trkpt>
      <trkpt lat="44.16475" lon="0.74531">
        <ele>135</ele>
        <time>2024-04-11T13:46:07.000Z</time>
      </trkpt>
      <trkpt lat="44.16475" lon="0.74532">
        <ele>135</ele>
        <time>2024-04-11T13:46:08.000Z</time>
      </trkpt>
      <trkpt lat="44.16476" lon="0.74532">
        <ele>136</ele>
        <time>2024-04-11T13:46:09.000Z</time>
      </trkpt>
      <trkpt lat="44.16476" lon="0.74533">
        <ele>136</ele>
        <time>2024-04-11T13:46:10.000Z</time>
      </trkpt>
      <trkpt lat="44.16477" lon="0.74533">
        <ele>136</ele>
        <time>2024-04-11T13:46:11.000Z</time>
      </trkpt>
      <trkpt lat="44.16477" lon="0.74534">
        <ele>135</ele>
        <time>2024-04-11T13:46:12.000Z</time>
      </trkpt>
      <trkpt lat="44.16478" lon="0.74534">
        <ele>135</ele>
        <time>2024-04-11T13:46:13.000Z</time>
      </trkpt>
      <trkpt lat="44.16478" lon="0.74535">
        <ele>135</ele>
        <time>2024-04-11T13:46:14.000Z</time>
      </trkpt>
      <trkpt lat="44.16479" lon="0.74535">
        <ele>135</ele>
        <time>2024-04-11T13:46:15.000Z</time>
      </trkpt>
      <trkpt lat="44.16479" lon="0.74535">
        <ele>135</ele>
        <time>2024-04-11T13:46:16.000Z</time>
      </trkpt>
      <trkpt lat="44.1648" lon="0.74536">
        <ele>134</ele>
        <time>2024-04-11T13:46:17.000Z</time>
      </trkpt>
      <trkpt lat="44.16481" lon="0.74537">
        <ele>134</ele>
        <time>2024-04-11T13:46:18.000Z</time>
      </trkpt>
      <trkpt lat="44.16482" lon="0.74537">
        <ele>134</ele>
        <time>2024-04-11T13:46:19.000Z</time>
      </trkpt>
      <trkpt lat="44.16483" lon="0.74538">
        <ele>133</ele>
        <time>2024-04-11T13:46:20.000Z</time>
      </trkpt>
      <trkpt lat="44.16483" lon="0.74538">
        <ele>133</ele>
        <time>2024-04-11T13:46:21.000Z</time>
      </trkpt>
      <trkpt lat="44.16484" lon="0.74539">
        <ele>133</ele>
        <time>2024-04-11T13:46:22.000Z</time>
      </trkpt>
      <trkpt lat="44.16485" lon="0.74539">
        <ele>133</ele>
        <time>2024-04-11T13:46:23.000Z</time>
      </trkpt>
      <trkpt lat="44.16485" lon="0.7454">
        <ele>133</ele>
        <time>2024-04-11T13:46:24.000Z</time>
      </trkpt>
      <trkpt lat="44.16486" lon="0.74541">
        <ele>133</ele>
        <time>2024-04-11T13:46:25.000Z</time>
      </trkpt>
      <trkpt lat="44.16486" lon="0.74541">
        <ele>133</ele>
        <time>2024-04-11T13:46:26.000Z</time>
      </trkpt>
      <trkpt lat="44.16487" lon="0.74542">
        <ele>133</ele>
        <time>2024-04-11T13:46:27.000Z</time>
      </trkpt>
      <trkpt lat="44.16487" lon="0.74542">
        <ele>133</ele>
        <time>2024-04-11T13:46:28.000Z</time>
      </trkpt>
      <trkpt lat="44.16488" lon="0.74543">
        <ele>132</ele>
        <time>2024-04-11T13:46:29.000Z</time>
      </trkpt>
      <trkpt lat="44.16488" lon="0.74543">
        <ele>132</ele>
        <time>2024-04-11T13:46:30.000Z</time>
      </trkpt>
      <trkpt lat="44.16488" lon="0.74543">
        <ele>131</ele>
        <time>2024-04-11T13:46:31.000Z</time>
      </trkpt>
      <trkpt lat="44.16488" lon="0.74543">
        <ele>131</ele>
        <time>2024-04-11T13:46:32.000Z</time>
      </trkpt>
      <trkpt lat="44.16488" lon="0.74543">
        <ele>131</ele>
        <time>2024-04-11T13:46:33.000Z</time>
      </trkpt>
      <trkpt lat="44.16488" lon="0.74542">
        <ele>131</ele>
        <time>2024-04-11T13:46:34.000Z</time>
      </trkpt>
      <trkpt lat="44.16489" lon="0.74542">
        <ele>131</ele>
        <time>2024-04-11T13:46:35.000Z</time>
      </trkpt>
      <trkpt lat="44.16489" lon="0.74542">
        <ele>131</ele>
        <time>2024-04-11T13:46:36.000Z</time>
      </trkpt>
      <trkpt lat="44.16489" lon="0.74542">
        <ele>131</ele>
        <time>2024-04-11T13:46:37.000Z</time>
      </trkpt>
      <trkpt lat="44.16489" lon="0.74542">
        <ele>130</ele>
        <time>2024-04-11T13:46:38.000Z</time>
      </trkpt>
      <trkpt lat="44.16489" lon="0.74542">
        <ele>130</ele>
        <time>2024-04-11T13:46:39.000Z</time>
      </trkpt>
      <trkpt lat="44.16489" lon="0.74543">
        <ele>130</ele>
        <time>2024-04-11T13:46:40.000Z</time>
      </trkpt>
      <trkpt lat="44.16489" lon="0.74543">
        <ele>130</ele>
        <time>2024-04-11T13:46:41.000Z</time>
      </trkpt>
      <trkpt lat="44.16489" lon="0.74543">
        <ele>130</ele>
        <time>2024-04-11T13:46:42.000Z</time>
      </trkpt>
      <trkpt lat="44.16489" lon="0.74543">
        <ele>130</ele>
        <time>2024-04-11T13:46:43.000Z</time>
      </trkpt>
      <trkpt lat="44.16489" lon="0.74543">
        <ele>129</ele>
        <time>2024-04-11T13:46:44.000Z</time>
      </trkpt>
      <trkpt lat="44.16489" lon="0.74543">
        <ele>129</ele>
        <time>2024-04-11T13:46:45.000Z</time>
      </trkpt>
      <trkpt lat="44.16489" lon="0.74543">
        <ele>129</ele>
        <time>2024-04-11T13:46:46.000Z</time>
      </trkpt>
      <trkpt lat="44.16489" lon="0.74543">
        <ele>129</ele>
        <time>2024-04-11T13:46:47.000Z</time>
      </trkpt>
      <trkpt lat="44.16489" lon="0.74543">
        <ele>129</ele>
        <time>2024-04-11T13:46:48.000Z</time>
      </trkpt>
      <trkpt lat="44.16488" lon="0.74543">
        <ele>128</ele>
        <time>2024-04-11T13:46:49.000Z</time>
      </trkpt>
      <trkpt lat="44.16488" lon="0.74543">
        <ele>128</ele>
        <time>2024-04-11T13:46:50.000Z</time>
      </trkpt>
      <trkpt lat="44.16488" lon="0.74543">
        <ele>128</ele>
        <time>2024-04-11T13:46:51.000Z</time>
      </trkpt>
      <trkpt lat="44.16488" lon="0.74543">
        <ele>128</ele>
        <time>2024-04-11T13:46:52.000Z</time>
      </trkpt>
      <trkpt lat="44.16488" lon="0.74543">
        <ele>128</ele>
        <time>2024-04-11T13:46:53.000Z</time>
      </trkpt>
      <trkpt lat="44.16488" lon="0.74543">
        <ele>128</ele>
        <time>2024-04-11T13:46:54.000Z</time>
      </trkpt>
      <trkpt lat="44.16488" lon="0.74543">
        <ele>128</ele>
        <time>2024-04-11T13:46:55.000Z</time>
      </trkpt>
      <trkpt lat="44.16488" lon="0.74543">
        <ele>128</ele>
        <time>2024-04-11T13:46:56.000Z</time>
      </trkpt>
      <trkpt lat="44.16488" lon="0.74544">
        <ele>128</ele>
        <time>2024-04-11T13:46:57.000Z</time>
      </trkpt>
      <trkpt lat="44.16488" lon="0.74544">
        <ele>128</ele>
        <time>2024-04-11T13:46:58.000Z</time>
      </trkpt>
      <trkpt lat="44.16488" lon="0.74544">
        <ele>128</ele>
        <time>2024-04-11T13:46:59.000Z</time>
      </trkpt>
      <trkpt lat="44.16488" lon="0.74544">
        <ele>128</ele>
        <time>2024-04-11T13:47:00.000Z</time>
      </trkpt>
      <trkpt lat="44.16488" lon="0.74544">
        <ele>128</ele>
        <time>2024-04-11T13:47:01.000Z</time>
      </trkpt>
      <trkpt lat="44.16488" lon="0.74544">
        <ele>128</ele>
        <time>2024-04-11T13:47:02.000Z</time>
      </trkpt>
      <trkpt lat="44.16488" lon="0.74544">
        <ele>128</ele>
        <time>2024-04-11T13:47:03.000Z</time>
      </trkpt>
      <trkpt lat="44.16488" lon="0.74544">
        <ele>128</ele>
        <time>2024-04-11T13:47:04.000Z</time>
      </trkpt>
      <trkpt lat="44.16489" lon="0.74543">
        <ele>128</ele>
        <time>2024-04-11T13:47:05.000Z</time>
      </trkpt>
      <trkpt lat="44.16489" lon="0.74543">
        <ele>128</ele>
        <time>2024-04-11T13:47:06.000Z</time>
      </trkpt>
      <trkpt lat="44.16489" lon="0.74543">
        <ele>128</ele>
        <time>2024-04-11T13:47:07.000Z</time>
      </trkpt>
      <trkpt lat="44.16489" lon="0.74543">
        <ele>128</ele>
        <time>2024-04-11T13:47:08.000Z</time>
      </trkpt>
      <trkpt lat="44.16489" lon="0.74543">
        <ele>128</ele>
        <time>2024-04-11T13:47:09.000Z</time>
      </trkpt>
      <trkpt lat="44.16489" lon="0.74543">
        <ele>129</ele>
        <time>2024-04-11T13:47:10.000Z</time>
      </trkpt>
      <trkpt lat="44.16489" lon="0.74543">
        <ele>129</ele>
        <time>2024-04-11T13:47:11.000Z</time>
      </trkpt>
      <trkpt lat="44.16489" lon="0.74543">
        <ele>129</ele>
        <time>2024-04-11T13:47:12.000Z</time>
      </trkpt>
      <trkpt lat="44.16488" lon="0.74543">
        <ele>129</ele>
        <time>2024-04-11T13:47:13.000Z</time>
      </trkpt>
      <trkpt lat="44.16488" lon="0.74543">
        <ele>129</ele>
        <time>2024-04-11T13:47:14.000Z</time>
      </trkpt>
      <trkpt lat="44.16488" lon="0.74543">
        <ele>129</ele>
        <time>2024-04-11T13:47:15.000Z</time>
      </trkpt>
      <trkpt lat="44.16488" lon="0.74543">
        <ele>129</ele>
        <time>2024-04-11T13:47:16.000Z</time>
      </trkpt>
      <trkpt lat="44.16488" lon="0.74543">
        <ele>129</ele>
        <time>2024-04-11T13:47:17.000Z</time>
      </trkpt>
      <trkpt lat="44.16488" lon="0.74543">
        <ele>128</ele>
        <time>2024-04-11T13:47:18.000Z</time>
      </trkpt>
      <trkpt lat="44.16488" lon="0.74543">
        <ele>128</ele>
        <time>2024-04-11T13:47:19.000Z</time>
      </trkpt>
      <trkpt lat="44.16488" lon="0.74543">
        <ele>128</ele>
        <time>2024-04-11T13:47:20.000Z</time>
      </trkpt>
      <trkpt lat="44.16488" lon="0.74543">
        <ele>128</ele>
        <time>2024-04-11T13:47:21.000Z</time>
      </trkpt>
      <trkpt lat="44.16488" lon="0.74543">
        <ele>128</ele>
        <time>2024-04-11T13:47:22.000Z</time>
      </trkpt>
      <trkpt lat="44.16488" lon="0.74543">
        <ele>128</ele>
        <time>2024-04-11T13:47:23.000Z</time>
      </trkpt>
      <trkpt lat="44.16488" lon="0.74543">
        <ele>128</ele>
        <time>2024-04-11T13:47:24.000Z</time>
      </trkpt>
      <trkpt lat="44.16488" lon="0.74543">
        <ele>128</ele>
        <time>2024-04-11T13:47:25.000Z</time>
      </trkpt>
      <trkpt lat="44.16488" lon="0.74543">
        <ele>128</ele>
        <time>2024-04-11T13:47:26.000Z</time>
      </trkpt>
      <trkpt lat="44.16488" lon="0.74543">
        <ele>128</ele>
        <time>2024-04-11T13:47:27.000Z</time>
      </trkpt>
      <trkpt lat="44.16488" lon="0.74543">
        <ele>128</ele>
        <time>2024-04-11T13:47:28.000Z</time>
      </trkpt>
      <trkpt lat="44.16488" lon="0.74543">
        <ele>128</ele>
        <time>2024-04-11T13:47:29.000Z</time>
      </trkpt>
      <trkpt lat="44.16488" lon="0.74543">
        <ele>128</ele>
        <time>2024-04-11T13:47:30.000Z</time>
      </trkpt>
      <trkpt lat="44.16488" lon="0.74543">
        <ele>129</ele>
        <time>2024-04-11T13:47:31.000Z</time>
      </trkpt>
      <trkpt lat="44.16488" lon="0.74543">
        <ele>129</ele>
        <time>2024-04-11T13:47:32.000Z</time>
      </trkpt>
      <trkpt lat="44.16488" lon="0.74543">
        <ele>129</ele>
        <time>2024-04-11T13:47:33.000Z</time>
      </trkpt>
      <trkpt lat="44.16488" lon="0.74543">
        <ele>129</ele>
        <time>2024-04-11T13:47:34.000Z</time>
      </trkpt>
      <trkpt lat="44.16488" lon="0.74543">
        <ele>129</ele>
        <time>2024-04-11T13:47:35.000Z</time>
      </trkpt>
      <trkpt lat="44.16488" lon="0.74543">
        <ele>129</ele>
        <time>2024-04-11T13:47:36.000Z</time>
      </trkpt>
      <trkpt lat="44.16488" lon="0.74543">
        <ele>129</ele>
        <time>2024-04-11T13:47:37.000Z</time>
      </trkpt>
      <trkpt lat="44.16488" lon="0.74543">
        <ele>129</ele>
        <time>2024-04-11T13:47:38.000Z</time>
      </trkpt>
      <trkpt lat="44.16488" lon="0.74543">
        <ele>129</ele>
        <time>2024-04-11T13:47:39.000Z</time>
      </trkpt>
      <trkpt lat="44.16488" lon="0.74543">
        <ele>129</ele>
        <time>2024-04-11T13:47:40.000Z</time>
      </trkpt>
      <trkpt lat="44.16488" lon="0.74544">
        <ele>129</ele>
        <time>2024-04-11T13:47:41.000Z</time>
      </trkpt>
      <trkpt lat="44.16488" lon="0.74544">
        <ele>129</ele>
        <time>2024-04-11T13:47:42.000Z</time>
      </trkpt>
      <trkpt lat="44.16488" lon="0.74544">
        <ele>129</ele>
        <time>2024-04-11T13:47:43.000Z</time>
      </trkpt>
      <trkpt lat="44.16488" lon="0.74544">
        <ele>128</ele>
        <time>2024-04-11T13:47:44.000Z</time>
      </trkpt>
      <trkpt lat="44.16488" lon="0.74544">
        <ele>128</ele>
        <time>2024-04-11T13:47:45.000Z</time>
      </trkpt>
      <trkpt lat="44.16488" lon="0.74544">
        <ele>128</ele>
        <time>2024-04-11T13:47:46.000Z</time>
      </trkpt>
      <trkpt lat="44.16488" lon="0.74544">
        <ele>128</ele>
        <time>2024-04-11T13:47:47.000Z</time>
      </trkpt>
      <trkpt lat="44.16488" lon="0.74544">
        <ele>128</ele>
        <time>2024-04-11T13:47:48.000Z</time>
      </trkpt>
      <trkpt lat="44.16488" lon="0.74544">
        <ele>128</ele>
        <time>2024-04-11T13:47:49.000Z</time>
      </trkpt>
      <trkpt lat="44.16488" lon="0.74544">
        <ele>128</ele>
        <time>2024-04-11T13:47:50.000Z</time>
      </trkpt>
      <trkpt lat="44.16488" lon="0.74544">
        <ele>127</ele>
        <time>2024-04-11T13:47:51.000Z</time>
      </trkpt>
      <trkpt lat="44.16488" lon="0.74544">
        <ele>127</ele>
        <time>2024-04-11T13:47:52.000Z</time>
      </trkpt>
      <trkpt lat="44.16488" lon="0.74544">
        <ele>127</ele>
        <time>2024-04-11T13:47:53.000Z</time>
      </trkpt>
      <trkpt lat="44.16488" lon="0.74544">
        <ele>127</ele>
        <time>2024-04-11T13:47:54.000Z</time>
      </trkpt>
      <trkpt lat="44.16488" lon="0.74544">
        <ele>127</ele>
        <time>2024-04-11T13:47:55.000Z</time>
      </trkpt>
      <trkpt lat="44.16488" lon="0.74544">
        <ele>127</ele>
        <time>2024-04-11T13:47:56.000Z</time>
      </trkpt>
      <trkpt lat="44.16488" lon="0.74544">
        <ele>127</ele>
        <time>2024-04-11T13:47:57.000Z</time>
      </trkpt>
      <trkpt lat="44.16488" lon="0.74544">
        <ele>127</ele>
        <time>2024-04-11T13:47:58.000Z</time>
      </trkpt>
      <trkpt lat="44.16489" lon="0.74544">
        <ele>127</ele>
        <time>2024-04-11T13:47:59.000Z</time>
      </trkpt>
      <trkpt lat="44.16489" lon="0.74544">
        <ele>127</ele>
        <time>2024-04-11T13:48:00.000Z</time>
      </trkpt>
      <trkpt lat="44.16489" lon="0.74544">
        <ele>127</ele>
        <time>2024-04-11T13:48:01.000Z</time>
      </trkpt>
      <trkpt lat="44.16489" lon="0.74544">
        <ele>127</ele>
        <time>2024-04-11T13:48:02.000Z</time>
      </trkpt>
      <trkpt lat="44.16489" lon="0.74544">
        <ele>127</ele>
        <time>2024-04-11T13:48:03.000Z</time>
      </trkpt>
      <trkpt lat="44.16489" lon="0.74544">
        <ele>128</ele>
        <time>2024-04-11T13:48:04.000Z</time>
      </trkpt>
      <trkpt lat="44.16489" lon="0.74544">
        <ele>128</ele>
        <time>2024-04-11T13:48:05.000Z</time>
      </trkpt>
      <trkpt lat="44.16489" lon="0.74544">
        <ele>128</ele>
        <time>2024-04-11T13:48:06.000Z</time>
      </trkpt>
      <trkpt lat="44.16489" lon="0.74544">
        <ele>128</ele>
        <time>2024-04-11T13:48:07.000Z</time>
      </trkpt>
      <trkpt lat="44.16489" lon="0.74544">
        <ele>128</ele>
        <time>2024-04-11T13:48:08.000Z</time>
      </trkpt>
      <trkpt lat="44.16489" lon="0.74544">
        <ele>128</ele>
        <time>2024-04-11T13:48:09.000Z</time>
      </trkpt>
      <trkpt lat="44.16489" lon="0.74544">
        <ele>127</ele>
        <time>2024-04-11T13:48:10.000Z</time>
      </trkpt>
      <trkpt lat="44.16489" lon="0.74544">
        <ele>128</ele>
        <time>2024-04-11T13:48:11.000Z</time>
      </trkpt>
      <trkpt lat="44.16489" lon="0.74544">
        <ele>128</ele>
        <time>2024-04-11T13:48:12.000Z</time>
      </trkpt>
      <trkpt lat="44.16489" lon="0.74544">
        <ele>128</ele>
        <time>2024-04-11T13:48:13.000Z</time>
      </trkpt>
      <trkpt lat="44.16489" lon="0.74544">
        <ele>128</ele>
        <time>2024-04-11T13:48:14.000Z</time>
      </trkpt>
      <trkpt lat="44.16489" lon="0.74544">
        <ele>128</ele>
        <time>2024-04-11T13:48:15.000Z</time>
      </trkpt>
      <trkpt lat="44.16489" lon="0.74544">
        <ele>128</ele>
        <time>2024-04-11T13:48:16.000Z</time>
      </trkpt>
      <trkpt lat="44.16489" lon="0.74544">
        <ele>128</ele>
        <time>2024-04-11T13:48:17.000Z</time>
      </trkpt>
      <trkpt lat="44.16489" lon="0.74544">
        <ele>128</ele>
        <time>2024-04-11T13:48:18.000Z</time>
      </trkpt>
      <trkpt lat="44.1649" lon="0.74544">
        <ele>128</ele>
        <time>2024-04-11T13:48:19.000Z</time>
      </trkpt>
      <trkpt lat="44.1649" lon="0.74544">
        <ele>128</ele>
        <time>2024-04-11T13:48:20.000Z</time>
      </trkpt>
      <trkpt lat="44.1649" lon="0.74544">
        <ele>128</ele>
        <time>2024-04-11T13:48:21.000Z</time>
      </trkpt>
      <trkpt lat="44.1649" lon="0.74544">
        <ele>128</ele>
        <time>2024-04-11T13:48:22.000Z</time>
      </trkpt>
      <trkpt lat="44.1649" lon="0.74544">
        <ele>128</ele>
        <time>2024-04-11T13:48:23.000Z</time>
      </trkpt>
      <trkpt lat="44.16489" lon="0.74544">
        <ele>128</ele>
        <time>2024-04-11T13:48:24.000Z</time>
      </trkpt>
      <trkpt lat="44.16489" lon="0.74544">
        <ele>129</ele>
        <time>2024-04-11T13:48:25.000Z</time>
      </trkpt>
      <trkpt lat="44.16489" lon="0.74544">
        <ele>129</ele>
        <time>2024-04-11T13:48:26.000Z</time>
      </trkpt>
      <trkpt lat="44.16489" lon="0.74544">
        <ele>129</ele>
        <time>2024-04-11T13:48:27.000Z</time>
      </trkpt>
      <trkpt lat="44.16489" lon="0.74544">
        <ele>129</ele>
        <time>2024-04-11T13:48:28.000Z</time>
      </trkpt>
      <trkpt lat="44.16489" lon="0.74544">
        <ele>129</ele>
        <time>2024-04-11T13:48:29.000Z</time>
      </trkpt>
      <trkpt lat="44.16489" lon="0.74544">
        <ele>130</ele>
        <time>2024-04-11T13:48:30.000Z</time>
      </trkpt>
      <trkpt lat="44.1649" lon="0.74544">
        <ele>130</ele>
        <time>2024-04-11T13:48:31.000Z</time>
      </trkpt>
      <trkpt lat="44.1649" lon="0.74544">
        <ele>130</ele>
        <time>2024-04-11T13:48:32.000Z</time>
      </trkpt>
      <trkpt lat="44.1649" lon="0.74544">
        <ele>130</ele>
        <time>2024-04-11T13:48:33.000Z</time>
      </trkpt>
      <trkpt lat="44.1649" lon="0.74544">
        <ele>130</ele>
        <time>2024-04-11T13:48:34.000Z</time>
      </trkpt>
      <trkpt lat="44.1649" lon="0.74544">
        <ele>130</ele>
        <time>2024-04-11T13:48:35.000Z</time>
      </trkpt>
      <trkpt lat="44.1649" lon="0.74544">
        <ele>130</ele>
        <time>2024-04-11T13:48:36.000Z</time>
      </trkpt>
      <trkpt lat="44.1649" lon="0.74544">
        <ele>130</ele>
        <time>2024-04-11T13:48:37.000Z</time>
      </trkpt>
      <trkpt lat="44.1649" lon="0.74544">
        <ele>130</ele>
        <time>2024-04-11T13:48:38.000Z</time>
      </trkpt>
      <trkpt lat="44.1649" lon="0.74544">
        <ele>130</ele>
        <time>2024-04-11T13:48:39.000Z</time>
      </trkpt>
      <trkpt lat="44.1649" lon="0.74544">
        <ele>130</ele>
        <time>2024-04-11T13:48:40.000Z</time>
      </trkpt>
      <trkpt lat="44.1649" lon="0.74544">
        <ele>131</ele>
        <time>2024-04-11T13:48:41.000Z</time>
      </trkpt>
      <trkpt lat="44.1649" lon="0.74544">
        <ele>131</ele>
        <time>2024-04-11T13:48:42.000Z</time>
      </trkpt>
      <trkpt lat="44.16489" lon="0.74544">
        <ele>131</ele>
        <time>2024-04-11T13:48:43.000Z</time>
      </trkpt>
      <trkpt lat="44.16489" lon="0.74544">
        <ele>131</ele>
        <time>2024-04-11T13:48:44.000Z</time>
      </trkpt>
      <trkpt lat="44.16489" lon="0.74544">
        <ele>131</ele>
        <time>2024-04-11T13:48:45.000Z</time>
      </trkpt>
      <trkpt lat="44.16489" lon="0.74544">
        <ele>131</ele>
        <time>2024-04-11T13:48:46.000Z</time>
      </trkpt>
      <trkpt lat="44.1649" lon="0.74544">
        <ele>131</ele>
        <time>2024-04-11T13:48:47.000Z</time>
      </trkpt>
      <trkpt lat="44.1649" lon="0.74544">
        <ele>131</ele>
        <time>2024-04-11T13:48:48.000Z</time>
      </trkpt>
      <trkpt lat="44.1649" lon="0.74544">
        <ele>131</ele>
        <time>2024-04-11T13:48:49.000Z</time>
      </trkpt>
      <trkpt lat="44.1649" lon="0.74544">
        <ele>131</ele>
        <time>2024-04-11T13:48:50.000Z</time>
      </trkpt>
      <trkpt lat="44.1649" lon="0.74544">
        <ele>131</ele>
        <time>2024-04-11T13:48:51.000Z</time>
      </trkpt>
      <trkpt lat="44.1649" lon="0.74544">
        <ele>131</ele>
        <time>2024-04-11T13:48:52.000Z</time>
      </trkpt>
      <trkpt lat="44.1649" lon="0.74544">
        <ele>131</ele>
        <time>2024-04-11T13:48:53.000Z</time>
      </trkpt>
      <trkpt lat="44.1649" lon="0.74544">
        <ele>130</ele>
        <time>2024-04-11T13:48:54.000Z</time>
      </trkpt>
      <trkpt lat="44.1649" lon="0.74544">
        <ele>130</ele>
        <time>2024-04-11T13:48:55.000Z</time>
      </trkpt>
      <trkpt lat="44.16489" lon="0.74544">
        <ele>130</ele>
        <time>2024-04-11T13:48:56.000Z</time>
      </trkpt>
      <trkpt lat="44.1649" lon="0.74544">
        <ele>130</ele>
        <time>2024-04-11T13:48:57.000Z</time>
      </trkpt>
      <trkpt lat="44.1649" lon="0.74544">
        <ele>130</ele>
        <time>2024-04-11T13:48:58.000Z</time>
      </trkpt>
      <trkpt lat="44.1649" lon="0.74544">
        <ele>130</ele>
        <time>2024-04-11T13:48:59.000Z</time>
      </trkpt>
      <trkpt lat="44.1649" lon="0.74544">
        <ele>130</ele>
        <time>2024-04-11T13:49:00.000Z</time>
      </trkpt>
      <trkpt lat="44.1649" lon="0.74544">
        <ele>130</ele>
        <time>2024-04-11T13:49:01.000Z</time>
      </trkpt>
      <trkpt lat="44.1649" lon="0.74544">
        <ele>130</ele>
        <time>2024-04-11T13:49:02.000Z</time>
      </trkpt>
      <trkpt lat="44.16489" lon="0.74545">
        <ele>130</ele>
        <time>2024-04-11T13:49:03.000Z</time>
      </trkpt>
      <trkpt lat="44.16489" lon="0.74546">
        <ele>130</ele>
        <time>2024-04-11T13:49:04.000Z</time>
      </trkpt>
      <trkpt lat="44.16489" lon="0.74546">
        <ele>130</ele>
        <time>2024-04-11T13:49:05.000Z</time>
      </trkpt>
      <trkpt lat="44.16488" lon="0.74547">
        <ele>130</ele>
        <time>2024-04-11T13:49:06.000Z</time>
      </trkpt>
      <trkpt lat="44.16488" lon="0.74548">
        <ele>131</ele>
        <time>2024-04-11T13:49:07.000Z</time>
      </trkpt>
      <trkpt lat="44.16488" lon="0.74548">
        <ele>130</ele>
        <time>2024-04-11T13:49:08.000Z</time>
      </trkpt>
      <trkpt lat="44.16487" lon="0.74549">
        <ele>131</ele>
        <time>2024-04-11T13:49:09.000Z</time>
      </trkpt>
      <trkpt lat="44.16487" lon="0.7455">
        <ele>131</ele>
        <time>2024-04-11T13:49:10.000Z</time>
      </trkpt>
      <trkpt lat="44.16486" lon="0.74551">
        <ele>131</ele>
        <time>2024-04-11T13:49:11.000Z</time>
      </trkpt>
      <trkpt lat="44.16486" lon="0.74552">
        <ele>131</ele>
        <time>2024-04-11T13:49:12.000Z</time>
      </trkpt>
      <trkpt lat="44.16485" lon="0.74553">
        <ele>131</ele>
        <time>2024-04-11T13:49:13.000Z</time>
      </trkpt>
      <trkpt lat="44.16485" lon="0.74554">
        <ele>131</ele>
        <time>2024-04-11T13:49:14.000Z</time>
      </trkpt>
      <trkpt lat="44.16485" lon="0.74554">
        <ele>131</ele>
        <time>2024-04-11T13:49:15.000Z</time>
      </trkpt>
      <trkpt lat="44.16484" lon="0.74555">
        <ele>131</ele>
        <time>2024-04-11T13:49:16.000Z</time>
      </trkpt>
      <trkpt lat="44.16484" lon="0.74556">
        <ele>131</ele>
        <time>2024-04-11T13:49:17.000Z</time>
      </trkpt>
      <trkpt lat="44.16483" lon="0.74556">
        <ele>131</ele>
        <time>2024-04-11T13:49:18.000Z</time>
      </trkpt>
      <trkpt lat="44.16483" lon="0.74557">
        <ele>131</ele>
        <time>2024-04-11T13:49:19.000Z</time>
      </trkpt>
      <trkpt lat="44.16483" lon="0.74557">
        <ele>131</ele>
        <time>2024-04-11T13:49:20.000Z</time>
      </trkpt>
      <trkpt lat="44.16483" lon="0.74557">
        <ele>131</ele>
        <time>2024-04-11T13:49:21.000Z</time>
      </trkpt>
      <trkpt lat="44.16483" lon="0.74557">
        <ele>131</ele>
        <time>2024-04-11T13:49:22.000Z</time>
      </trkpt>
      <trkpt lat="44.16483" lon="0.74557">
        <ele>131</ele>
        <time>2024-04-11T13:49:23.000Z</time>
      </trkpt>
      <trkpt lat="44.16483" lon="0.74557">
        <ele>131</ele>
        <time>2024-04-11T13:49:24.000Z</time>
      </trkpt>
      <trkpt lat="44.16483" lon="0.74557">
        <ele>131</ele>
        <time>2024-04-11T13:49:25.000Z</time>
      </trkpt>
      <trkpt lat="44.16483" lon="0.74557">
        <ele>131</ele>
        <time>2024-04-11T13:49:26.000Z</time>
      </trkpt>
      <trkpt lat="44.16483" lon="0.74557">
        <ele>131</ele>
        <time>2024-04-11T13:49:27.000Z</time>
      </trkpt>
      <trkpt lat="44.16483" lon="0.74557">
        <ele>131</ele>
        <time>2024-04-11T13:49:28.000Z</time>
      </trkpt>
      <trkpt lat="44.16483" lon="0.74557">
        <ele>131</ele>
        <time>2024-04-11T13:49:29.000Z</time>
      </trkpt>
      <trkpt lat="44.16483" lon="0.74557">
        <ele>131</ele>
        <time>2024-04-11T13:49:30.000Z</time>
      </trkpt>
      <trkpt lat="44.16483" lon="0.74557">
        <ele>131</ele>
        <time>2024-04-11T13:49:31.000Z</time>
      </trkpt>
      <trkpt lat="44.16483" lon="0.74557">
        <ele>131</ele>
        <time>2024-04-11T13:49:32.000Z</time>
      </trkpt>
      <trkpt lat="44.16483" lon="0.74557">
        <ele>131</ele>
        <time>2024-04-11T13:49:33.000Z</time>
      </trkpt>
      <trkpt lat="44.16483" lon="0.74557">
        <ele>131</ele>
        <time>2024-04-11T13:49:34.000Z</time>
      </trkpt>
      <trkpt lat="44.16483" lon="0.74557">
        <ele>131</ele>
        <time>2024-04-11T13:49:35.000Z</time>
      </trkpt>
      <trkpt lat="44.16483" lon="0.74557">
        <ele>131</ele>
        <time>2024-04-11T13:49:36.000Z</time>
      </trkpt>
      <trkpt lat="44.16483" lon="0.74557">
        <ele>131</ele>
        <time>2024-04-11T13:49:37.000Z</time>
      </trkpt>
      <trkpt lat="44.16483" lon="0.74557">
        <ele>131</ele>
        <time>2024-04-11T13:49:38.000Z</time>
      </trkpt>
      <trkpt lat="44.16482" lon="0.74557">
        <ele>131</ele>
        <time>2024-04-11T13:49:39.000Z</time>
      </trkpt>
      <trkpt lat="44.16482" lon="0.74557">
        <ele>131</ele>
        <time>2024-04-11T13:49:40.000Z</time>
      </trkpt>
      <trkpt lat="44.16482" lon="0.74557">
        <ele>131</ele>
        <time>2024-04-11T13:49:41.000Z</time>
      </trkpt>
      <trkpt lat="44.16482" lon="0.74557">
        <ele>131</ele>
        <time>2024-04-11T13:49:42.000Z</time>
      </trkpt>
      <trkpt lat="44.16482" lon="0.74557">
        <ele>131</ele>
        <time>2024-04-11T13:49:43.000Z</time>
      </trkpt>
      <trkpt lat="44.16482" lon="0.74557">
        <ele>131</ele>
        <time>2024-04-11T13:49:44.000Z</time>
      </trkpt>
      <trkpt lat="44.16482" lon="0.74558">
        <ele>131</ele>
        <time>2024-04-11T13:49:45.000Z</time>
      </trkpt>
      <trkpt lat="44.16481" lon="0.74558">
        <ele>131</ele>
        <time>2024-04-11T13:49:46.000Z</time>
      </trkpt>
      <trkpt lat="44.16481" lon="0.74559">
        <ele>131</ele>
        <time>2024-04-11T13:49:47.000Z</time>
      </trkpt>
      <trkpt lat="44.16481" lon="0.7456">
        <ele>131</ele>
        <time>2024-04-11T13:49:48.000Z</time>
      </trkpt>
      <trkpt lat="44.1648" lon="0.74561">
        <ele>132</ele>
        <time>2024-04-11T13:49:49.000Z</time>
      </trkpt>
      <trkpt lat="44.16479" lon="0.74562">
        <ele>132</ele>
        <time>2024-04-11T13:49:50.000Z</time>
      </trkpt>
      <trkpt lat="44.16479" lon="0.74563">
        <ele>132</ele>
        <time>2024-04-11T13:49:51.000Z</time>
      </trkpt>
      <trkpt lat="44.16478" lon="0.74564">
        <ele>132</ele>
        <time>2024-04-11T13:49:52.000Z</time>
      </trkpt>
      <trkpt lat="44.16478" lon="0.74564">
        <ele>132</ele>
        <time>2024-04-11T13:49:53.000Z</time>
      </trkpt>
      <trkpt lat="44.16477" lon="0.74566">
        <ele>133</ele>
        <time>2024-04-11T13:49:54.000Z</time>
      </trkpt>
      <trkpt lat="44.16477" lon="0.74567">
        <ele>133</ele>
        <time>2024-04-11T13:49:55.000Z</time>
      </trkpt>
      <trkpt lat="44.16476" lon="0.74568">
        <ele>133</ele>
        <time>2024-04-11T13:49:56.000Z</time>
      </trkpt>
      <trkpt lat="44.16476" lon="0.74569">
        <ele>133</ele>
        <time>2024-04-11T13:49:57.000Z</time>
      </trkpt>
      <trkpt lat="44.16475" lon="0.7457">
        <ele>134</ele>
        <time>2024-04-11T13:49:58.000Z</time>
      </trkpt>
      <trkpt lat="44.16475" lon="0.74571">
        <ele>133</ele>
        <time>2024-04-11T13:49:59.000Z</time>
      </trkpt>
      <trkpt lat="44.16474" lon="0.74572">
        <ele>134</ele>
        <time>2024-04-11T13:50:00.000Z</time>
      </trkpt>
      <trkpt lat="44.16474" lon="0.74574">
        <ele>134</ele>
        <time>2024-04-11T13:50:01.000Z</time>
      </trkpt>
      <trkpt lat="44.16474" lon="0.74575">
        <ele>134</ele>
        <time>2024-04-11T13:50:02.000Z</time>
      </trkpt>
      <trkpt lat="44.16473" lon="0.74576">
        <ele>134</ele>
        <time>2024-04-11T13:50:03.000Z</time>
      </trkpt>
      <trkpt lat="44.16473" lon="0.74577">
        <ele>134</ele>
        <time>2024-04-11T13:50:04.000Z</time>
      </trkpt>
      <trkpt lat="44.16472" lon="0.74578">
        <ele>134</ele>
        <time>2024-04-11T13:50:05.000Z</time>
      </trkpt>
      <trkpt lat="44.16472" lon="0.74579">
        <ele>134</ele>
        <time>2024-04-11T13:50:06.000Z</time>
      </trkpt>
      <trkpt lat="44.16472" lon="0.74581">
        <ele>134</ele>
        <time>2024-04-11T13:50:07.000Z</time>
      </trkpt>
      <trkpt lat="44.16471" lon="0.74582">
        <ele>134</ele>
        <time>2024-04-11T13:50:08.000Z</time>
      </trkpt>
      <trkpt lat="44.16471" lon="0.74583">
        <ele>134</ele>
        <time>2024-04-11T13:50:09.000Z</time>
      </trkpt>
      <trkpt lat="44.1647" lon="0.74584">
        <ele>134</ele>
        <time>2024-04-11T13:50:10.000Z</time>
      </trkpt>
      <trkpt lat="44.1647" lon="0.74585">
        <ele>134</ele>
        <time>2024-04-11T13:50:11.000Z</time>
      </trkpt>
      <trkpt lat="44.16469" lon="0.74586">
        <ele>134</ele>
        <time>2024-04-11T13:50:12.000Z</time>
      </trkpt>
      <trkpt lat="44.16469" lon="0.74587">
        <ele>134</ele>
        <time>2024-04-11T13:50:13.000Z</time>
      </trkpt>
      <trkpt lat="44.16469" lon="0.74588">
        <ele>135</ele>
        <time>2024-04-11T13:50:14.000Z</time>
      </trkpt>
      <trkpt lat="44.16468" lon="0.74589">
        <ele>135</ele>
        <time>2024-04-11T13:50:15.000Z</time>
      </trkpt>
      <trkpt lat="44.16468" lon="0.74591">
        <ele>135</ele>
        <time>2024-04-11T13:50:16.000Z</time>
      </trkpt>
      <trkpt lat="44.16467" lon="0.74592">
        <ele>135</ele>
        <time>2024-04-11T13:50:17.000Z</time>
      </trkpt>
      <trkpt lat="44.16467" lon="0.74593">
        <ele>136</ele>
        <time>2024-04-11T13:50:18.000Z</time>
      </trkpt>
      <trkpt lat="44.16466" lon="0.74594">
        <ele>136</ele>
        <time>2024-04-11T13:50:19.000Z</time>
      </trkpt>
      <trkpt lat="44.16466" lon="0.74595">
        <ele>136</ele>
        <time>2024-04-11T13:50:20.000Z</time>
      </trkpt>
      <trkpt lat="44.16466" lon="0.74596">
        <ele>136</ele>
        <time>2024-04-11T13:50:21.000Z</time>
      </trkpt>
      <trkpt lat="44.16466" lon="0.74597">
        <ele>137</ele>
        <time>2024-04-11T13:50:22.000Z</time>
      </trkpt>
      <trkpt lat="44.16465" lon="0.74598">
        <ele>136</ele>
        <time>2024-04-11T13:50:23.000Z</time>
      </trkpt>
      <trkpt lat="44.16465" lon="0.74599">
        <ele>136</ele>
        <time>2024-04-11T13:50:24.000Z</time>
      </trkpt>
      <trkpt lat="44.16464" lon="0.74601">
        <ele>136</ele>
        <time>2024-04-11T13:50:25.000Z</time>
      </trkpt>
      <trkpt lat="44.16464" lon="0.74602">
        <ele>136</ele>
        <time>2024-04-11T13:50:26.000Z</time>
      </trkpt>
      <trkpt lat="44.16463" lon="0.74603">
        <ele>136</ele>
        <time>2024-04-11T13:50:27.000Z</time>
      </trkpt>
      <trkpt lat="44.16463" lon="0.74604">
        <ele>135</ele>
        <time>2024-04-11T13:50:28.000Z</time>
      </trkpt>
      <trkpt lat="44.16462" lon="0.74605">
        <ele>136</ele>
        <time>2024-04-11T13:50:29.000Z</time>
      </trkpt>
      <trkpt lat="44.16462" lon="0.74606">
        <ele>136</ele>
        <time>2024-04-11T13:50:30.000Z</time>
      </trkpt>
      <trkpt lat="44.16461" lon="0.74608">
        <ele>136</ele>
        <time>2024-04-11T13:50:31.000Z</time>
      </trkpt>
      <trkpt lat="44.16461" lon="0.74609">
        <ele>136</ele>
        <time>2024-04-11T13:50:32.000Z</time>
      </trkpt>
      <trkpt lat="44.1646" lon="0.7461">
        <ele>136</ele>
        <time>2024-04-11T13:50:33.000Z</time>
      </trkpt>
      <trkpt lat="44.1646" lon="0.74611">
        <ele>136</ele>
        <time>2024-04-11T13:50:34.000Z</time>
      </trkpt>
      <trkpt lat="44.16459" lon="0.74613">
        <ele>136</ele>
        <time>2024-04-11T13:50:35.000Z</time>
      </trkpt>
      <trkpt lat="44.16459" lon="0.74614">
        <ele>136</ele>
        <time>2024-04-11T13:50:36.000Z</time>
      </trkpt>
      <trkpt lat="44.16458" lon="0.74615">
        <ele>136</ele>
        <time>2024-04-11T13:50:37.000Z</time>
      </trkpt>
      <trkpt lat="44.16458" lon="0.74616">
        <ele>136</ele>
        <time>2024-04-11T13:50:38.000Z</time>
      </trkpt>
      <trkpt lat="44.16457" lon="0.74617">
        <ele>136</ele>
        <time>2024-04-11T13:50:39.000Z</time>
      </trkpt>
      <trkpt lat="44.16457" lon="0.74619">
        <ele>136</ele>
        <time>2024-04-11T13:50:40.000Z</time>
      </trkpt>
      <trkpt lat="44.16456" lon="0.7462">
        <ele>137</ele>
        <time>2024-04-11T13:50:41.000Z</time>
      </trkpt>
      <trkpt lat="44.16456" lon="0.74621">
        <ele>137</ele>
        <time>2024-04-11T13:50:42.000Z</time>
      </trkpt>
      <trkpt lat="44.16455" lon="0.74622">
        <ele>136</ele>
        <time>2024-04-11T13:50:43.000Z</time>
      </trkpt>
      <trkpt lat="44.16455" lon="0.74623">
        <ele>137</ele>
        <time>2024-04-11T13:50:44.000Z</time>
      </trkpt>
      <trkpt lat="44.16454" lon="0.74625">
        <ele>137</ele>
        <time>2024-04-11T13:50:45.000Z</time>
      </trkpt>
      <trkpt lat="44.16454" lon="0.74626">
        <ele>137</ele>
        <time>2024-04-11T13:50:46.000Z</time>
      </trkpt>
      <trkpt lat="44.16453" lon="0.74627">
        <ele>137</ele>
        <time>2024-04-11T13:50:47.000Z</time>
      </trkpt>
      <trkpt lat="44.16453" lon="0.74629">
        <ele>138</ele>
        <time>2024-04-11T13:50:48.000Z</time>
      </trkpt>
      <trkpt lat="44.16452" lon="0.7463">
        <ele>137</ele>
        <time>2024-04-11T13:50:49.000Z</time>
      </trkpt>
      <trkpt lat="44.16452" lon="0.74631">
        <ele>138</ele>
        <time>2024-04-11T13:50:50.000Z</time>
      </trkpt>
      <trkpt lat="44.16451" lon="0.74632">
        <ele>138</ele>
        <time>2024-04-11T13:50:51.000Z</time>
      </trkpt>
      <trkpt lat="44.16451" lon="0.74634">
        <ele>138</ele>
        <time>2024-04-11T13:50:52.000Z</time>
      </trkpt>
      <trkpt lat="44.16451" lon="0.74635">
        <ele>138</ele>
        <time>2024-04-11T13:50:53.000Z</time>
      </trkpt>
      <trkpt lat="44.1645" lon="0.74636">
        <ele>139</ele>
        <time>2024-04-11T13:50:54.000Z</time>
      </trkpt>
      <trkpt lat="44.1645" lon="0.74637">
        <ele>139</ele>
        <time>2024-04-11T13:50:55.000Z</time>
      </trkpt>
      <trkpt lat="44.16449" lon="0.74639">
        <ele>139</ele>
        <time>2024-04-11T13:50:56.000Z</time>
      </trkpt>
      <trkpt lat="44.16449" lon="0.7464">
        <ele>139</ele>
        <time>2024-04-11T13:50:57.000Z</time>
      </trkpt>
      <trkpt lat="44.16449" lon="0.74641">
        <ele>139</ele>
        <time>2024-04-11T13:50:58.000Z</time>
      </trkpt>
      <trkpt lat="44.16448" lon="0.74643">
        <ele>139</ele>
        <time>2024-04-11T13:50:59.000Z</time>
      </trkpt>
      <trkpt lat="44.16448" lon="0.74644">
        <ele>139</ele>
        <time>2024-04-11T13:51:00.000Z</time>
      </trkpt>
      <trkpt lat="44.16448" lon="0.74645">
        <ele>138</ele>
        <time>2024-04-11T13:51:01.000Z</time>
      </trkpt>
      <trkpt lat="44.16448" lon="0.74647">
        <ele>138</ele>
        <time>2024-04-11T13:51:02.000Z</time>
      </trkpt>
      <trkpt lat="44.16447" lon="0.74648">
        <ele>139</ele>
        <time>2024-04-11T13:51:03.000Z</time>
      </trkpt>
      <trkpt lat="44.16447" lon="0.74649">
        <ele>138</ele>
        <time>2024-04-11T13:51:04.000Z</time>
      </trkpt>
      <trkpt lat="44.16447" lon="0.74651">
        <ele>139</ele>
        <time>2024-04-11T13:51:05.000Z</time>
      </trkpt>
      <trkpt lat="44.16447" lon="0.74652">
        <ele>139</ele>
        <time>2024-04-11T13:51:06.000Z</time>
      </trkpt>
      <trkpt lat="44.16447" lon="0.74653">
        <ele>139</ele>
        <time>2024-04-11T13:51:07.000Z</time>
      </trkpt>
      <trkpt lat="44.16447" lon="0.74655">
        <ele>139</ele>
        <time>2024-04-11T13:51:08.000Z</time>
      </trkpt>
      <trkpt lat="44.16447" lon="0.74656">
        <ele>139</ele>
        <time>2024-04-11T13:51:09.000Z</time>
      </trkpt>
      <trkpt lat="44.16448" lon="0.74657">
        <ele>140</ele>
        <time>2024-04-11T13:51:10.000Z</time>
      </trkpt>
      <trkpt lat="44.16448" lon="0.74659">
        <ele>140</ele>
        <time>2024-04-11T13:51:11.000Z</time>
      </trkpt>
      <trkpt lat="44.16448" lon="0.7466">
        <ele>140</ele>
        <time>2024-04-11T13:51:12.000Z</time>
      </trkpt>
      <trkpt lat="44.16448" lon="0.74661">
        <ele>140</ele>
        <time>2024-04-11T13:51:13.000Z</time>
      </trkpt>
      <trkpt lat="44.16448" lon="0.74663">
        <ele>140</ele>
        <time>2024-04-11T13:51:14.000Z</time>
      </trkpt>
      <trkpt lat="44.16449" lon="0.74664">
        <ele>140</ele>
        <time>2024-04-11T13:51:15.000Z</time>
      </trkpt>
      <trkpt lat="44.16449" lon="0.74665">
        <ele>140</ele>
        <time>2024-04-11T13:51:16.000Z</time>
      </trkpt>
      <trkpt lat="44.1645" lon="0.74666">
        <ele>140</ele>
        <time>2024-04-11T13:51:17.000Z</time>
      </trkpt>
      <trkpt lat="44.1645" lon="0.74667">
        <ele>140</ele>
        <time>2024-04-11T13:51:18.000Z</time>
      </trkpt>
      <trkpt lat="44.16451" lon="0.74668">
        <ele>140</ele>
        <time>2024-04-11T13:51:19.000Z</time>
      </trkpt>
      <trkpt lat="44.16451" lon="0.74669">
        <ele>140</ele>
        <time>2024-04-11T13:51:20.000Z</time>
      </trkpt>
      <trkpt lat="44.16451" lon="0.74669">
        <ele>141</ele>
        <time>2024-04-11T13:51:21.000Z</time>
      </trkpt>
      <trkpt lat="44.16452" lon="0.7467">
        <ele>141</ele>
        <time>2024-04-11T13:51:22.000Z</time>
      </trkpt>
      <trkpt lat="44.16452" lon="0.74671">
        <ele>140</ele>
        <time>2024-04-11T13:51:23.000Z</time>
      </trkpt>
      <trkpt lat="44.16453" lon="0.74671">
        <ele>140</ele>
        <time>2024-04-11T13:51:24.000Z</time>
      </trkpt>
      <trkpt lat="44.16454" lon="0.74672">
        <ele>140</ele>
        <time>2024-04-11T13:51:25.000Z</time>
      </trkpt>
      <trkpt lat="44.16454" lon="0.74673">
        <ele>140</ele>
        <time>2024-04-11T13:51:26.000Z</time>
      </trkpt>
      <trkpt lat="44.16455" lon="0.74674">
        <ele>140</ele>
        <time>2024-04-11T13:51:27.000Z</time>
      </trkpt>
      <trkpt lat="44.16455" lon="0.74675">
        <ele>140</ele>
        <time>2024-04-11T13:51:28.000Z</time>
      </trkpt>
      <trkpt lat="44.16456" lon="0.74675">
        <ele>140</ele>
        <time>2024-04-11T13:51:29.000Z</time>
      </trkpt>
      <trkpt lat="44.16457" lon="0.74676">
        <ele>140</ele>
        <time>2024-04-11T13:51:30.000Z</time>
      </trkpt>
      <trkpt lat="44.16457" lon="0.74677">
        <ele>140</ele>
        <time>2024-04-11T13:51:31.000Z</time>
      </trkpt>
      <trkpt lat="44.16458" lon="0.74678">
        <ele>140</ele>
        <time>2024-04-11T13:51:32.000Z</time>
      </trkpt>
      <trkpt lat="44.16459" lon="0.74679">
        <ele>140</ele>
        <time>2024-04-11T13:51:33.000Z</time>
      </trkpt>
      <trkpt lat="44.1646" lon="0.7468">
        <ele>140</ele>
        <time>2024-04-11T13:51:34.000Z</time>
      </trkpt>
      <trkpt lat="44.16461" lon="0.74681">
        <ele>140</ele>
        <time>2024-04-11T13:51:35.000Z</time>
      </trkpt>
      <trkpt lat="44.16461" lon="0.74682">
        <ele>140</ele>
        <time>2024-04-11T13:51:36.000Z</time>
      </trkpt>
      <trkpt lat="44.16462" lon="0.74683">
        <ele>140</ele>
        <time>2024-04-11T13:51:37.000Z</time>
      </trkpt>
      <trkpt lat="44.16463" lon="0.74684">
        <ele>140</ele>
        <time>2024-04-11T13:51:38.000Z</time>
      </trkpt>
      <trkpt lat="44.16463" lon="0.74685">
        <ele>140</ele>
        <time>2024-04-11T13:51:39.000Z</time>
      </trkpt>
      <trkpt lat="44.16464" lon="0.74686">
        <ele>140</ele>
        <time>2024-04-11T13:51:40.000Z</time>
      </trkpt>
      <trkpt lat="44.16465" lon="0.74687">
        <ele>140</ele>
        <time>2024-04-11T13:51:41.000Z</time>
      </trkpt>
      <trkpt lat="44.16466" lon="0.74689">
        <ele>141</ele>
        <time>2024-04-11T13:51:42.000Z</time>
      </trkpt>
      <trkpt lat="44.16466" lon="0.7469">
        <ele>141</ele>
        <time>2024-04-11T13:51:43.000Z</time>
      </trkpt>
      <trkpt lat="44.16467" lon="0.7469">
        <ele>141</ele>
        <time>2024-04-11T13:51:44.000Z</time>
      </trkpt>
      <trkpt lat="44.16468" lon="0.74691">
        <ele>141</ele>
        <time>2024-04-11T13:51:45.000Z</time>
      </trkpt>
      <trkpt lat="44.16469" lon="0.74692">
        <ele>141</ele>
        <time>2024-04-11T13:51:46.000Z</time>
      </trkpt>
      <trkpt lat="44.16469" lon="0.74694">
        <ele>142</ele>
        <time>2024-04-11T13:51:47.000Z</time>
      </trkpt>
      <trkpt lat="44.1647" lon="0.74695">
        <ele>142</ele>
        <time>2024-04-11T13:51:48.000Z</time>
      </trkpt>
      <trkpt lat="44.16471" lon="0.74696">
        <ele>142</ele>
        <time>2024-04-11T13:51:49.000Z</time>
      </trkpt>
      <trkpt lat="44.16472" lon="0.74697">
        <ele>142</ele>
        <time>2024-04-11T13:51:50.000Z</time>
      </trkpt>
      <trkpt lat="44.16472" lon="0.74698">
        <ele>142</ele>
        <time>2024-04-11T13:51:51.000Z</time>
      </trkpt>
      <trkpt lat="44.16473" lon="0.74699">
        <ele>142</ele>
        <time>2024-04-11T13:51:52.000Z</time>
      </trkpt>
      <trkpt lat="44.16474" lon="0.747">
        <ele>142</ele>
        <time>2024-04-11T13:51:53.000Z</time>
      </trkpt>
      <trkpt lat="44.16475" lon="0.74701">
        <ele>143</ele>
        <time>2024-04-11T13:51:54.000Z</time>
      </trkpt>
      <trkpt lat="44.16476" lon="0.74701">
        <ele>143</ele>
        <time>2024-04-11T13:51:55.000Z</time>
      </trkpt>
      <trkpt lat="44.16476" lon="0.74702">
        <ele>143</ele>
        <time>2024-04-11T13:51:56.000Z</time>
      </trkpt>
      <trkpt lat="44.16477" lon="0.74703">
        <ele>143</ele>
        <time>2024-04-11T13:51:57.000Z</time>
      </trkpt>
      <trkpt lat="44.16478" lon="0.74704">
        <ele>143</ele>
        <time>2024-04-11T13:51:58.000Z</time>
      </trkpt>
      <trkpt lat="44.16479" lon="0.74705">
        <ele>143</ele>
        <time>2024-04-11T13:51:59.000Z</time>
      </trkpt>
      <trkpt lat="44.1648" lon="0.74706">
        <ele>143</ele>
        <time>2024-04-11T13:52:00.000Z</time>
      </trkpt>
      <trkpt lat="44.1648" lon="0.74706">
        <ele>143</ele>
        <time>2024-04-11T13:52:01.000Z</time>
      </trkpt>
      <trkpt lat="44.16481" lon="0.74707">
        <ele>143</ele>
        <time>2024-04-11T13:52:02.000Z</time>
      </trkpt>
      <trkpt lat="44.16482" lon="0.74708">
        <ele>143</ele>
        <time>2024-04-11T13:52:03.000Z</time>
      </trkpt>
      <trkpt lat="44.16483" lon="0.74709">
        <ele>143</ele>
        <time>2024-04-11T13:52:04.000Z</time>
      </trkpt>
      <trkpt lat="44.16483" lon="0.7471">
        <ele>143</ele>
        <time>2024-04-11T13:52:05.000Z</time>
      </trkpt>
      <trkpt lat="44.16484" lon="0.74711">
        <ele>144</ele>
        <time>2024-04-11T13:52:06.000Z</time>
      </trkpt>
      <trkpt lat="44.16485" lon="0.74712">
        <ele>144</ele>
        <time>2024-04-11T13:52:07.000Z</time>
      </trkpt>
      <trkpt lat="44.16485" lon="0.74713">
        <ele>144</ele>
        <time>2024-04-11T13:52:08.000Z</time>
      </trkpt>
      <trkpt lat="44.16486" lon="0.74714">
        <ele>144</ele>
        <time>2024-04-11T13:52:09.000Z</time>
      </trkpt>
      <trkpt lat="44.16487" lon="0.74715">
        <ele>144</ele>
        <time>2024-04-11T13:52:10.000Z</time>
      </trkpt>
      <trkpt lat="44.16487" lon="0.74716">
        <ele>144</ele>
        <time>2024-04-11T13:52:11.000Z</time>
      </trkpt>
      <trkpt lat="44.16488" lon="0.74716">
        <ele>144</ele>
        <time>2024-04-11T13:52:12.000Z</time>
      </trkpt>
      <trkpt lat="44.16489" lon="0.74717">
        <ele>145</ele>
        <time>2024-04-11T13:52:13.000Z</time>
      </trkpt>
      <trkpt lat="44.16489" lon="0.74718">
        <ele>145</ele>
        <time>2024-04-11T13:52:14.000Z</time>
      </trkpt>
      <trkpt lat="44.1649" lon="0.74719">
        <ele>145</ele>
        <time>2024-04-11T13:52:15.000Z</time>
      </trkpt>
      <trkpt lat="44.16491" lon="0.74719">
        <ele>145</ele>
        <time>2024-04-11T13:52:16.000Z</time>
      </trkpt>
      <trkpt lat="44.16491" lon="0.7472">
        <ele>145</ele>
        <time>2024-04-11T13:52:17.000Z</time>
      </trkpt>
      <trkpt lat="44.16492" lon="0.74721">
        <ele>146</ele>
        <time>2024-04-11T13:52:18.000Z</time>
      </trkpt>
      <trkpt lat="44.16493" lon="0.74722">
        <ele>147</ele>
        <time>2024-04-11T13:52:19.000Z</time>
      </trkpt>
      <trkpt lat="44.16493" lon="0.74723">
        <ele>147</ele>
        <time>2024-04-11T13:52:20.000Z</time>
      </trkpt>
      <trkpt lat="44.16494" lon="0.74724">
        <ele>147</ele>
        <time>2024-04-11T13:52:21.000Z</time>
      </trkpt>
      <trkpt lat="44.16494" lon="0.74725">
        <ele>147</ele>
        <time>2024-04-11T13:52:22.000Z</time>
      </trkpt>
      <trkpt lat="44.16495" lon="0.74726">
        <ele>148</ele>
        <time>2024-04-11T13:52:23.000Z</time>
      </trkpt>
      <trkpt lat="44.16495" lon="0.74727">
        <ele>148</ele>
        <time>2024-04-11T13:52:24.000Z</time>
      </trkpt>
      <trkpt lat="44.16495" lon="0.74728">
        <ele>148</ele>
        <time>2024-04-11T13:52:25.000Z</time>
      </trkpt>
      <trkpt lat="44.16496" lon="0.7473">
        <ele>148</ele>
        <time>2024-04-11T13:52:26.000Z</time>
      </trkpt>
      <trkpt lat="44.16496" lon="0.74731">
        <ele>148</ele>
        <time>2024-04-11T13:52:27.000Z</time>
      </trkpt>
      <trkpt lat="44.16496" lon="0.74732">
        <ele>148</ele>
        <time>2024-04-11T13:52:28.000Z</time>
      </trkpt>
      <trkpt lat="44.16496" lon="0.74734">
        <ele>148</ele>
        <time>2024-04-11T13:52:29.000Z</time>
      </trkpt>
      <trkpt lat="44.16496" lon="0.74735">
        <ele>149</ele>
        <time>2024-04-11T13:52:30.000Z</time>
      </trkpt>
      <trkpt lat="44.16496" lon="0.74737">
        <ele>149</ele>
        <time>2024-04-11T13:52:31.000Z</time>
      </trkpt>
      <trkpt lat="44.16496" lon="0.74738">
        <ele>149</ele>
        <time>2024-04-11T13:52:32.000Z</time>
      </trkpt>
      <trkpt lat="44.16496" lon="0.74739">
        <ele>149</ele>
        <time>2024-04-11T13:52:33.000Z</time>
      </trkpt>
      <trkpt lat="44.16495" lon="0.74741">
        <ele>149</ele>
        <time>2024-04-11T13:52:34.000Z</time>
      </trkpt>
      <trkpt lat="44.16495" lon="0.74742">
        <ele>149</ele>
        <time>2024-04-11T13:52:35.000Z</time>
      </trkpt>
      <trkpt lat="44.16495" lon="0.74743">
        <ele>149</ele>
        <time>2024-04-11T13:52:36.000Z</time>
      </trkpt>
      <trkpt lat="44.16495" lon="0.74745">
        <ele>150</ele>
        <time>2024-04-11T13:52:37.000Z</time>
      </trkpt>
      <trkpt lat="44.16495" lon="0.74746">
        <ele>149</ele>
        <time>2024-04-11T13:52:38.000Z</time>
      </trkpt>
      <trkpt lat="44.16495" lon="0.74747">
        <ele>150</ele>
        <time>2024-04-11T13:52:39.000Z</time>
      </trkpt>
      <trkpt lat="44.16495" lon="0.74748">
        <ele>150</ele>
        <time>2024-04-11T13:52:40.000Z</time>
      </trkpt>
      <trkpt lat="44.16495" lon="0.7475">
        <ele>150</ele>
        <time>2024-04-11T13:52:41.000Z</time>
      </trkpt>
      <trkpt lat="44.16494" lon="0.74751">
        <ele>150</ele>
        <time>2024-04-11T13:52:42.000Z</time>
      </trkpt>
      <trkpt lat="44.16494" lon="0.74752">
        <ele>150</ele>
        <time>2024-04-11T13:52:43.000Z</time>
      </trkpt>
      <trkpt lat="44.16494" lon="0.74754">
        <ele>150</ele>
        <time>2024-04-11T13:52:44.000Z</time>
      </trkpt>
      <trkpt lat="44.16494" lon="0.74755">
        <ele>150</ele>
        <time>2024-04-11T13:52:45.000Z</time>
      </trkpt>
      <trkpt lat="44.16494" lon="0.74756">
        <ele>151</ele>
        <time>2024-04-11T13:52:46.000Z</time>
      </trkpt>
      <trkpt lat="44.16494" lon="0.74757">
        <ele>151</ele>
        <time>2024-04-11T13:52:47.000Z</time>
      </trkpt>
      <trkpt lat="44.16494" lon="0.74759">
        <ele>151</ele>
        <time>2024-04-11T13:52:48.000Z</time>
      </trkpt>
      <trkpt lat="44.16494" lon="0.7476">
        <ele>151</ele>
        <time>2024-04-11T13:52:49.000Z</time>
      </trkpt>
      <trkpt lat="44.16494" lon="0.74761">
        <ele>151</ele>
        <time>2024-04-11T13:52:50.000Z</time>
      </trkpt>
      <trkpt lat="44.16494" lon="0.74763">
        <ele>151</ele>
        <time>2024-04-11T13:52:51.000Z</time>
      </trkpt>
      <trkpt lat="44.16494" lon="0.74764">
        <ele>151</ele>
        <time>2024-04-11T13:52:52.000Z</time>
      </trkpt>
      <trkpt lat="44.16493" lon="0.74766">
        <ele>151</ele>
        <time>2024-04-11T13:52:53.000Z</time>
      </trkpt>
      <trkpt lat="44.16493" lon="0.74767">
        <ele>152</ele>
        <time>2024-04-11T13:52:54.000Z</time>
      </trkpt>
      <trkpt lat="44.16493" lon="0.74769">
        <ele>152</ele>
        <time>2024-04-11T13:52:55.000Z</time>
      </trkpt>
      <trkpt lat="44.16492" lon="0.7477">
        <ele>152</ele>
        <time>2024-04-11T13:52:56.000Z</time>
      </trkpt>
      <trkpt lat="44.16492" lon="0.74771">
        <ele>152</ele>
        <time>2024-04-11T13:52:57.000Z</time>
      </trkpt>
      <trkpt lat="44.16492" lon="0.74773">
        <ele>152</ele>
        <time>2024-04-11T13:52:58.000Z</time>
      </trkpt>
      <trkpt lat="44.16491" lon="0.74774">
        <ele>153</ele>
        <time>2024-04-11T13:52:59.000Z</time>
      </trkpt>
      <trkpt lat="44.16491" lon="0.74776">
        <ele>153</ele>
        <time>2024-04-11T13:53:00.000Z</time>
      </trkpt>
      <trkpt lat="44.16491" lon="0.74777">
        <ele>152</ele>
        <time>2024-04-11T13:53:01.000Z</time>
      </trkpt>
      <trkpt lat="44.16491" lon="0.74779">
        <ele>152</ele>
        <time>2024-04-11T13:53:02.000Z</time>
      </trkpt>
      <trkpt lat="44.16491" lon="0.7478">
        <ele>153</ele>
        <time>2024-04-11T13:53:03.000Z</time>
      </trkpt>
      <trkpt lat="44.16491" lon="0.74781">
        <ele>152</ele>
        <time>2024-04-11T13:53:04.000Z</time>
      </trkpt>
      <trkpt lat="44.16491" lon="0.74783">
        <ele>153</ele>
        <time>2024-04-11T13:53:05.000Z</time>
      </trkpt>
      <trkpt lat="44.16491" lon="0.74784">
        <ele>153</ele>
        <time>2024-04-11T13:53:06.000Z</time>
      </trkpt>
      <trkpt lat="44.1649" lon="0.74786">
        <ele>153</ele>
        <time>2024-04-11T13:53:07.000Z</time>
      </trkpt>
      <trkpt lat="44.1649" lon="0.74787">
        <ele>153</ele>
        <time>2024-04-11T13:53:08.000Z</time>
      </trkpt>
      <trkpt lat="44.1649" lon="0.74789">
        <ele>153</ele>
        <time>2024-04-11T13:53:09.000Z</time>
      </trkpt>
      <trkpt lat="44.1649" lon="0.7479">
        <ele>153</ele>
        <time>2024-04-11T13:53:10.000Z</time>
      </trkpt>
      <trkpt lat="44.1649" lon="0.74791">
        <ele>154</ele>
        <time>2024-04-11T13:53:11.000Z</time>
      </trkpt>
      <trkpt lat="44.1649" lon="0.74793">
        <ele>154</ele>
        <time>2024-04-11T13:53:12.000Z</time>
      </trkpt>
      <trkpt lat="44.1649" lon="0.74794">
        <ele>153</ele>
        <time>2024-04-11T13:53:13.000Z</time>
      </trkpt>
      <trkpt lat="44.1649" lon="0.74796">
        <ele>153</ele>
        <time>2024-04-11T13:53:14.000Z</time>
      </trkpt>
      <trkpt lat="44.1649" lon="0.74797">
        <ele>154</ele>
        <time>2024-04-11T13:53:15.000Z</time>
      </trkpt>
      <trkpt lat="44.1649" lon="0.74799">
        <ele>154</ele>
        <time>2024-04-11T13:53:16.000Z</time>
      </trkpt>
      <trkpt lat="44.1649" lon="0.748">
        <ele>154</ele>
        <time>2024-04-11T13:53:17.000Z</time>
      </trkpt>
      <trkpt lat="44.1649" lon="0.74802">
        <ele>154</ele>
        <time>2024-04-11T13:53:18.000Z</time>
      </trkpt>
      <trkpt lat="44.1649" lon="0.74803">
        <ele>154</ele>
        <time>2024-04-11T13:53:19.000Z</time>
      </trkpt>
      <trkpt lat="44.1649" lon="0.74805">
        <ele>155</ele>
        <time>2024-04-11T13:53:20.000Z</time>
      </trkpt>
      <trkpt lat="44.1649" lon="0.74806">
        <ele>155</ele>
        <time>2024-04-11T13:53:21.000Z</time>
      </trkpt>
      <trkpt lat="44.1649" lon="0.74807">
        <ele>155</ele>
        <time>2024-04-11T13:53:22.000Z</time>
      </trkpt>
      <trkpt lat="44.1649" lon="0.74809">
        <ele>154</ele>
        <time>2024-04-11T13:53:23.000Z</time>
      </trkpt>
      <trkpt lat="44.1649" lon="0.7481">
        <ele>154</ele>
        <time>2024-04-11T13:53:24.000Z</time>
      </trkpt>
      <trkpt lat="44.1649" lon="0.74812">
        <ele>154</ele>
        <time>2024-04-11T13:53:25.000Z</time>
      </trkpt>
      <trkpt lat="44.1649" lon="0.74814">
        <ele>155</ele>
        <time>2024-04-11T13:53:26.000Z</time>
      </trkpt>
      <trkpt lat="44.1649" lon="0.74815">
        <ele>154</ele>
        <time>2024-04-11T13:53:27.000Z</time>
      </trkpt>
      <trkpt lat="44.16491" lon="0.74817">
        <ele>154</ele>
        <time>2024-04-11T13:53:28.000Z</time>
      </trkpt>
      <trkpt lat="44.16491" lon="0.74818">
        <ele>154</ele>
        <time>2024-04-11T13:53:29.000Z</time>
      </trkpt>
      <trkpt lat="44.16491" lon="0.74819">
        <ele>155</ele>
        <time>2024-04-11T13:53:30.000Z</time>
      </trkpt>
      <trkpt lat="44.16491" lon="0.74821">
        <ele>155</ele>
        <time>2024-04-11T13:53:31.000Z</time>
      </trkpt>
      <trkpt lat="44.16492" lon="0.74822">
        <ele>155</ele>
        <time>2024-04-11T13:53:32.000Z</time>
      </trkpt>
      <trkpt lat="44.16492" lon="0.74824">
        <ele>154</ele>
        <time>2024-04-11T13:53:33.000Z</time>
      </trkpt>
      <trkpt lat="44.16492" lon="0.74825">
        <ele>154</ele>
        <time>2024-04-11T13:53:34.000Z</time>
      </trkpt>
      <trkpt lat="44.16493" lon="0.74827">
        <ele>154</ele>
        <time>2024-04-11T13:53:35.000Z</time>
      </trkpt>
      <trkpt lat="44.16493" lon="0.74828">
        <ele>154</ele>
        <time>2024-04-11T13:53:36.000Z</time>
      </trkpt>
      <trkpt lat="44.16493" lon="0.7483">
        <ele>154</ele>
        <time>2024-04-11T13:53:37.000Z</time>
      </trkpt>
      <trkpt lat="44.16494" lon="0.74831">
        <ele>154</ele>
        <time>2024-04-11T13:53:38.000Z</time>
      </trkpt>
      <trkpt lat="44.16494" lon="0.74833">
        <ele>154</ele>
        <time>2024-04-11T13:53:39.000Z</time>
      </trkpt>
      <trkpt lat="44.16494" lon="0.74834">
        <ele>154</ele>
        <time>2024-04-11T13:53:40.000Z</time>
      </trkpt>
      <trkpt lat="44.16495" lon="0.74836">
        <ele>154</ele>
        <time>2024-04-11T13:53:41.000Z</time>
      </trkpt>
      <trkpt lat="44.16495" lon="0.74837">
        <ele>154</ele>
        <time>2024-04-11T13:53:42.000Z</time>
      </trkpt>
      <trkpt lat="44.16496" lon="0.74838">
        <ele>154</ele>
        <time>2024-04-11T13:53:43.000Z</time>
      </trkpt>
      <trkpt lat="44.16496" lon="0.7484">
        <ele>155</ele>
        <time>2024-04-11T13:53:44.000Z</time>
      </trkpt>
      <trkpt lat="44.16496" lon="0.74841">
        <ele>155</ele>
        <time>2024-04-11T13:53:45.000Z</time>
      </trkpt>
      <trkpt lat="44.16497" lon="0.74842">
        <ele>155</ele>
        <time>2024-04-11T13:53:46.000Z</time>
      </trkpt>
      <trkpt lat="44.16497" lon="0.74843">
        <ele>155</ele>
        <time>2024-04-11T13:53:47.000Z</time>
      </trkpt>
      <trkpt lat="44.16498" lon="0.74844">
        <ele>155</ele>
        <time>2024-04-11T13:53:48.000Z</time>
      </trkpt>
      <trkpt lat="44.16498" lon="0.74845">
        <ele>155</ele>
        <time>2024-04-11T13:53:49.000Z</time>
      </trkpt>
      <trkpt lat="44.16498" lon="0.74845">
        <ele>155</ele>
        <time>2024-04-11T13:53:50.000Z</time>
      </trkpt>
      <trkpt lat="44.16499" lon="0.74846">
        <ele>154</ele>
        <time>2024-04-11T13:53:51.000Z</time>
      </trkpt>
      <trkpt lat="44.16499" lon="0.74847">
        <ele>155</ele>
        <time>2024-04-11T13:53:52.000Z</time>
      </trkpt>
      <trkpt lat="44.16499" lon="0.74848">
        <ele>155</ele>
        <time>2024-04-11T13:53:53.000Z</time>
      </trkpt>
      <trkpt lat="44.16499" lon="0.74849">
        <ele>155</ele>
        <time>2024-04-11T13:53:54.000Z</time>
      </trkpt>
      <trkpt lat="44.16499" lon="0.74851">
        <ele>155</ele>
        <time>2024-04-11T13:53:55.000Z</time>
      </trkpt>
      <trkpt lat="44.16499" lon="0.74852">
        <ele>155</ele>
        <time>2024-04-11T13:53:56.000Z</time>
      </trkpt>
      <trkpt lat="44.16499" lon="0.74854">
        <ele>155</ele>
        <time>2024-04-11T13:53:57.000Z</time>
      </trkpt>
      <trkpt lat="44.16498" lon="0.74855">
        <ele>155</ele>
        <time>2024-04-11T13:53:58.000Z</time>
      </trkpt>
      <trkpt lat="44.16498" lon="0.74857">
        <ele>156</ele>
        <time>2024-04-11T13:53:59.000Z</time>
      </trkpt>
      <trkpt lat="44.16498" lon="0.74858">
        <ele>156</ele>
        <time>2024-04-11T13:54:00.000Z</time>
      </trkpt>
      <trkpt lat="44.16498" lon="0.7486">
        <ele>156</ele>
        <time>2024-04-11T13:54:01.000Z</time>
      </trkpt>
      <trkpt lat="44.16498" lon="0.74862">
        <ele>156</ele>
        <time>2024-04-11T13:54:02.000Z</time>
      </trkpt>
      <trkpt lat="44.16497" lon="0.74863">
        <ele>156</ele>
        <time>2024-04-11T13:54:03.000Z</time>
      </trkpt>
      <trkpt lat="44.16497" lon="0.74864">
        <ele>155</ele>
        <time>2024-04-11T13:54:04.000Z</time>
      </trkpt>
      <trkpt lat="44.16497" lon="0.74866">
        <ele>156</ele>
        <time>2024-04-11T13:54:05.000Z</time>
      </trkpt>
      <trkpt lat="44.16496" lon="0.74867">
        <ele>156</ele>
        <time>2024-04-11T13:54:06.000Z</time>
      </trkpt>
      <trkpt lat="44.16496" lon="0.74868">
        <ele>156</ele>
        <time>2024-04-11T13:54:07.000Z</time>
      </trkpt>
      <trkpt lat="44.16495" lon="0.7487">
        <ele>156</ele>
        <time>2024-04-11T13:54:08.000Z</time>
      </trkpt>
      <trkpt lat="44.16495" lon="0.74871">
        <ele>156</ele>
        <time>2024-04-11T13:54:09.000Z</time>
      </trkpt>
      <trkpt lat="44.16494" lon="0.74873">
        <ele>156</ele>
        <time>2024-04-11T13:54:10.000Z</time>
      </trkpt>
      <trkpt lat="44.16494" lon="0.74874">
        <ele>156</ele>
        <time>2024-04-11T13:54:11.000Z</time>
      </trkpt>
      <trkpt lat="44.16493" lon="0.74875">
        <ele>157</ele>
        <time>2024-04-11T13:54:12.000Z</time>
      </trkpt>
      <trkpt lat="44.16493" lon="0.74876">
        <ele>157</ele>
        <time>2024-04-11T13:54:13.000Z</time>
      </trkpt>
      <trkpt lat="44.16492" lon="0.74877">
        <ele>157</ele>
        <time>2024-04-11T13:54:14.000Z</time>
      </trkpt>
      <trkpt lat="44.16492" lon="0.74878">
        <ele>157</ele>
        <time>2024-04-11T13:54:15.000Z</time>
      </trkpt>
      <trkpt lat="44.16491" lon="0.7488">
        <ele>157</ele>
        <time>2024-04-11T13:54:16.000Z</time>
      </trkpt>
      <trkpt lat="44.1649" lon="0.74881">
        <ele>157</ele>
        <time>2024-04-11T13:54:17.000Z</time>
      </trkpt>
      <trkpt lat="44.1649" lon="0.74882">
        <ele>157</ele>
        <time>2024-04-11T13:54:18.000Z</time>
      </trkpt>
      <trkpt lat="44.16489" lon="0.74883">
        <ele>157</ele>
        <time>2024-04-11T13:54:19.000Z</time>
      </trkpt>
      <trkpt lat="44.16489" lon="0.74884">
        <ele>157</ele>
        <time>2024-04-11T13:54:20.000Z</time>
      </trkpt>
      <trkpt lat="44.16488" lon="0.74886">
        <ele>158</ele>
        <time>2024-04-11T13:54:21.000Z</time>
      </trkpt>
      <trkpt lat="44.16487" lon="0.74887">
        <ele>157</ele>
        <time>2024-04-11T13:54:22.000Z</time>
      </trkpt>
      <trkpt lat="44.16486" lon="0.74888">
        <ele>157</ele>
        <time>2024-04-11T13:54:23.000Z</time>
      </trkpt>
      <trkpt lat="44.16486" lon="0.74889">
        <ele>157</ele>
        <time>2024-04-11T13:54:24.000Z</time>
      </trkpt>
      <trkpt lat="44.16485" lon="0.7489">
        <ele>157</ele>
        <time>2024-04-11T13:54:25.000Z</time>
      </trkpt>
      <trkpt lat="44.16484" lon="0.74892">
        <ele>157</ele>
        <time>2024-04-11T13:54:26.000Z</time>
      </trkpt>
      <trkpt lat="44.16483" lon="0.74893">
        <ele>157</ele>
        <time>2024-04-11T13:54:27.000Z</time>
      </trkpt>
      <trkpt lat="44.16483" lon="0.74894">
        <ele>158</ele>
        <time>2024-04-11T13:54:28.000Z</time>
      </trkpt>
      <trkpt lat="44.16482" lon="0.74895">
        <ele>157</ele>
        <time>2024-04-11T13:54:29.000Z</time>
      </trkpt>
      <trkpt lat="44.16481" lon="0.74896">
        <ele>157</ele>
        <time>2024-04-11T13:54:30.000Z</time>
      </trkpt>
      <trkpt lat="44.16481" lon="0.74897">
        <ele>157</ele>
        <time>2024-04-11T13:54:31.000Z</time>
      </trkpt>
      <trkpt lat="44.1648" lon="0.74898">
        <ele>157</ele>
        <time>2024-04-11T13:54:32.000Z</time>
      </trkpt>
      <trkpt lat="44.1648" lon="0.749">
        <ele>157</ele>
        <time>2024-04-11T13:54:33.000Z</time>
      </trkpt>
      <trkpt lat="44.16479" lon="0.74901">
        <ele>158</ele>
        <time>2024-04-11T13:54:34.000Z</time>
      </trkpt>
      <trkpt lat="44.16478" lon="0.74902">
        <ele>158</ele>
        <time>2024-04-11T13:54:35.000Z</time>
      </trkpt>
      <trkpt lat="44.16478" lon="0.74903">
        <ele>158</ele>
        <time>2024-04-11T13:54:36.000Z</time>
      </trkpt>
      <trkpt lat="44.16477" lon="0.74905">
        <ele>158</ele>
        <time>2024-04-11T13:54:37.000Z</time>
      </trkpt>
      <trkpt lat="44.16476" lon="0.74906">
        <ele>158</ele>
        <time>2024-04-11T13:54:38.000Z</time>
      </trkpt>
      <trkpt lat="44.16475" lon="0.74907">
        <ele>159</ele>
        <time>2024-04-11T13:54:39.000Z</time>
      </trkpt>
      <trkpt lat="44.16475" lon="0.74908">
        <ele>159</ele>
        <time>2024-04-11T13:54:40.000Z</time>
      </trkpt>
      <trkpt lat="44.16474" lon="0.7491">
        <ele>158</ele>
        <time>2024-04-11T13:54:41.000Z</time>
      </trkpt>
      <trkpt lat="44.16473" lon="0.74911">
        <ele>158</ele>
        <time>2024-04-11T13:54:42.000Z</time>
      </trkpt>
      <trkpt lat="44.16473" lon="0.74912">
        <ele>158</ele>
        <time>2024-04-11T13:54:43.000Z</time>
      </trkpt>
      <trkpt lat="44.16472" lon="0.74913">
        <ele>159</ele>
        <time>2024-04-11T13:54:44.000Z</time>
      </trkpt>
      <trkpt lat="44.16471" lon="0.74914">
        <ele>158</ele>
        <time>2024-04-11T13:54:45.000Z</time>
      </trkpt>
      <trkpt lat="44.16471" lon="0.74915">
        <ele>158</ele>
        <time>2024-04-11T13:54:46.000Z</time>
      </trkpt>
      <trkpt lat="44.1647" lon="0.74917">
        <ele>158</ele>
        <time>2024-04-11T13:54:47.000Z</time>
      </trkpt>
      <trkpt lat="44.16469" lon="0.74918">
        <ele>158</ele>
        <time>2024-04-11T13:54:48.000Z</time>
      </trkpt>
      <trkpt lat="44.16469" lon="0.74919">
        <ele>159</ele>
        <time>2024-04-11T13:54:49.000Z</time>
      </trkpt>
      <trkpt lat="44.16468" lon="0.7492">
        <ele>158</ele>
        <time>2024-04-11T13:54:50.000Z</time>
      </trkpt>
      <trkpt lat="44.16467" lon="0.74921">
        <ele>158</ele>
        <time>2024-04-11T13:54:51.000Z</time>
      </trkpt>
      <trkpt lat="44.16467" lon="0.74923">
        <ele>158</ele>
        <time>2024-04-11T13:54:52.000Z</time>
      </trkpt>
      <trkpt lat="44.16466" lon="0.74924">
        <ele>158</ele>
        <time>2024-04-11T13:54:53.000Z</time>
      </trkpt>
      <trkpt lat="44.16466" lon="0.74925">
        <ele>158</ele>
        <time>2024-04-11T13:54:54.000Z</time>
      </trkpt>
      <trkpt lat="44.16465" lon="0.74927">
        <ele>159</ele>
        <time>2024-04-11T13:54:55.000Z</time>
      </trkpt>
      <trkpt lat="44.16464" lon="0.74928">
        <ele>159</ele>
        <time>2024-04-11T13:54:56.000Z</time>
      </trkpt>
      <trkpt lat="44.16464" lon="0.74929">
        <ele>159</ele>
        <time>2024-04-11T13:54:57.000Z</time>
      </trkpt>
      <trkpt lat="44.16463" lon="0.7493">
        <ele>159</ele>
        <time>2024-04-11T13:54:58.000Z</time>
      </trkpt>
      <trkpt lat="44.16463" lon="0.74931">
        <ele>159</ele>
        <time>2024-04-11T13:54:59.000Z</time>
      </trkpt>
      <trkpt lat="44.16462" lon="0.74932">
        <ele>159</ele>
        <time>2024-04-11T13:55:00.000Z</time>
      </trkpt>
      <trkpt lat="44.16461" lon="0.74934">
        <ele>159</ele>
        <time>2024-04-11T13:55:01.000Z</time>
      </trkpt>
      <trkpt lat="44.16461" lon="0.74935">
        <ele>159</ele>
        <time>2024-04-11T13:55:02.000Z</time>
      </trkpt>
      <trkpt lat="44.1646" lon="0.74936">
        <ele>159</ele>
        <time>2024-04-11T13:55:03.000Z</time>
      </trkpt>
      <trkpt lat="44.1646" lon="0.74937">
        <ele>159</ele>
        <time>2024-04-11T13:55:04.000Z</time>
      </trkpt>
      <trkpt lat="44.16459" lon="0.74939">
        <ele>159</ele>
        <time>2024-04-11T13:55:05.000Z</time>
      </trkpt>
      <trkpt lat="44.16459" lon="0.7494">
        <ele>159</ele>
        <time>2024-04-11T13:55:06.000Z</time>
      </trkpt>
      <trkpt lat="44.16458" lon="0.74941">
        <ele>159</ele>
        <time>2024-04-11T13:55:07.000Z</time>
      </trkpt>
      <trkpt lat="44.16458" lon="0.74943">
        <ele>159</ele>
        <time>2024-04-11T13:55:08.000Z</time>
      </trkpt>
      <trkpt lat="44.16457" lon="0.74944">
        <ele>159</ele>
        <time>2024-04-11T13:55:09.000Z</time>
      </trkpt>
      <trkpt lat="44.16456" lon="0.74945">
        <ele>159</ele>
        <time>2024-04-11T13:55:10.000Z</time>
      </trkpt>
      <trkpt lat="44.16456" lon="0.74947">
        <ele>159</ele>
        <time>2024-04-11T13:55:11.000Z</time>
      </trkpt>
      <trkpt lat="44.16455" lon="0.74948">
        <ele>159</ele>
        <time>2024-04-11T13:55:12.000Z</time>
      </trkpt>
      <trkpt lat="44.16454" lon="0.74949">
        <ele>159</ele>
        <time>2024-04-11T13:55:13.000Z</time>
      </trkpt>
      <trkpt lat="44.16454" lon="0.7495">
        <ele>159</ele>
        <time>2024-04-11T13:55:14.000Z</time>
      </trkpt>
      <trkpt lat="44.16453" lon="0.74952">
        <ele>159</ele>
        <time>2024-04-11T13:55:15.000Z</time>
      </trkpt>
      <trkpt lat="44.16453" lon="0.74953">
        <ele>159</ele>
        <time>2024-04-11T13:55:16.000Z</time>
      </trkpt>
      <trkpt lat="44.16452" lon="0.74954">
        <ele>159</ele>
        <time>2024-04-11T13:55:17.000Z</time>
      </trkpt>
      <trkpt lat="44.16451" lon="0.74955">
        <ele>159</ele>
        <time>2024-04-11T13:55:18.000Z</time>
      </trkpt>
      <trkpt lat="44.16451" lon="0.74957">
        <ele>159</ele>
        <time>2024-04-11T13:55:19.000Z</time>
      </trkpt>
      <trkpt lat="44.1645" lon="0.74958">
        <ele>159</ele>
        <time>2024-04-11T13:55:20.000Z</time>
      </trkpt>
      <trkpt lat="44.16449" lon="0.74959">
        <ele>159</ele>
        <time>2024-04-11T13:55:21.000Z</time>
      </trkpt>
      <trkpt lat="44.16449" lon="0.7496">
        <ele>159</ele>
        <time>2024-04-11T13:55:22.000Z</time>
      </trkpt>
      <trkpt lat="44.16448" lon="0.74962">
        <ele>159</ele>
        <time>2024-04-11T13:55:23.000Z</time>
      </trkpt>
      <trkpt lat="44.16448" lon="0.74963">
        <ele>159</ele>
        <time>2024-04-11T13:55:24.000Z</time>
      </trkpt>
      <trkpt lat="44.16447" lon="0.74964">
        <ele>159</ele>
        <time>2024-04-11T13:55:25.000Z</time>
      </trkpt>
      <trkpt lat="44.16446" lon="0.74966">
        <ele>159</ele>
        <time>2024-04-11T13:55:26.000Z</time>
      </trkpt>
      <trkpt lat="44.16446" lon="0.74967">
        <ele>159</ele>
        <time>2024-04-11T13:55:27.000Z</time>
      </trkpt>
      <trkpt lat="44.16445" lon="0.74968">
        <ele>159</ele>
        <time>2024-04-11T13:55:28.000Z</time>
      </trkpt>
      <trkpt lat="44.16444" lon="0.7497">
        <ele>159</ele>
        <time>2024-04-11T13:55:29.000Z</time>
      </trkpt>
      <trkpt lat="44.16444" lon="0.74971">
        <ele>159</ele>
        <time>2024-04-11T13:55:30.000Z</time>
      </trkpt>
      <trkpt lat="44.16443" lon="0.74972">
        <ele>159</ele>
        <time>2024-04-11T13:55:31.000Z</time>
      </trkpt>
      <trkpt lat="44.16442" lon="0.74973">
        <ele>159</ele>
        <time>2024-04-11T13:55:32.000Z</time>
      </trkpt>
      <trkpt lat="44.16442" lon="0.74974">
        <ele>159</ele>
        <time>2024-04-11T13:55:33.000Z</time>
      </trkpt>
      <trkpt lat="44.16441" lon="0.74975">
        <ele>159</ele>
        <time>2024-04-11T13:55:34.000Z</time>
      </trkpt>
      <trkpt lat="44.1644" lon="0.74977">
        <ele>159</ele>
        <time>2024-04-11T13:55:35.000Z</time>
      </trkpt>
      <trkpt lat="44.1644" lon="0.74978">
        <ele>159</ele>
        <time>2024-04-11T13:55:36.000Z</time>
      </trkpt>
      <trkpt lat="44.16439" lon="0.74979">
        <ele>159</ele>
        <time>2024-04-11T13:55:37.000Z</time>
      </trkpt>
      <trkpt lat="44.16438" lon="0.7498">
        <ele>159</ele>
        <time>2024-04-11T13:55:38.000Z</time>
      </trkpt>
      <trkpt lat="44.16438" lon="0.74981">
        <ele>159</ele>
        <time>2024-04-11T13:55:39.000Z</time>
      </trkpt>
      <trkpt lat="44.16437" lon="0.74982">
        <ele>159</ele>
        <time>2024-04-11T13:55:40.000Z</time>
      </trkpt>
      <trkpt lat="44.16437" lon="0.74983">
        <ele>159</ele>
        <time>2024-04-11T13:55:41.000Z</time>
      </trkpt>
      <trkpt lat="44.16436" lon="0.74985">
        <ele>159</ele>
        <time>2024-04-11T13:55:42.000Z</time>
      </trkpt>
      <trkpt lat="44.16435" lon="0.74986">
        <ele>160</ele>
        <time>2024-04-11T13:55:43.000Z</time>
      </trkpt>
      <trkpt lat="44.16435" lon="0.74987">
        <ele>160</ele>
        <time>2024-04-11T13:55:44.000Z</time>
      </trkpt>
      <trkpt lat="44.16434" lon="0.74989">
        <ele>160</ele>
        <time>2024-04-11T13:55:45.000Z</time>
      </trkpt>
      <trkpt lat="44.16433" lon="0.7499">
        <ele>159</ele>
        <time>2024-04-11T13:55:46.000Z</time>
      </trkpt>
      <trkpt lat="44.16433" lon="0.74991">
        <ele>159</ele>
        <time>2024-04-11T13:55:47.000Z</time>
      </trkpt>
      <trkpt lat="44.16432" lon="0.74992">
        <ele>160</ele>
        <time>2024-04-11T13:55:48.000Z</time>
      </trkpt>
      <trkpt lat="44.16432" lon="0.74994">
        <ele>160</ele>
        <time>2024-04-11T13:55:49.000Z</time>
      </trkpt>
      <trkpt lat="44.16431" lon="0.74995">
        <ele>160</ele>
        <time>2024-04-11T13:55:50.000Z</time>
      </trkpt>
      <trkpt lat="44.1643" lon="0.74996">
        <ele>160</ele>
        <time>2024-04-11T13:55:51.000Z</time>
      </trkpt>
      <trkpt lat="44.1643" lon="0.74997">
        <ele>160</ele>
        <time>2024-04-11T13:55:52.000Z</time>
      </trkpt>
      <trkpt lat="44.16429" lon="0.74998">
        <ele>160</ele>
        <time>2024-04-11T13:55:53.000Z</time>
      </trkpt>
      <trkpt lat="44.16429" lon="0.75">
        <ele>160</ele>
        <time>2024-04-11T13:55:54.000Z</time>
      </trkpt>
      <trkpt lat="44.16428" lon="0.75001">
        <ele>160</ele>
        <time>2024-04-11T13:55:55.000Z</time>
      </trkpt>
      <trkpt lat="44.16427" lon="0.75002">
        <ele>160</ele>
        <time>2024-04-11T13:55:56.000Z</time>
      </trkpt>
      <trkpt lat="44.16427" lon="0.75003">
        <ele>160</ele>
        <time>2024-04-11T13:55:57.000Z</time>
      </trkpt>
      <trkpt lat="44.16426" lon="0.75004">
        <ele>160</ele>
        <time>2024-04-11T13:55:58.000Z</time>
      </trkpt>
      <trkpt lat="44.16426" lon="0.75005">
        <ele>160</ele>
        <time>2024-04-11T13:55:59.000Z</time>
      </trkpt>
      <trkpt lat="44.16425" lon="0.75006">
        <ele>160</ele>
        <time>2024-04-11T13:56:00.000Z</time>
      </trkpt>
      <trkpt lat="44.16425" lon="0.75008">
        <ele>160</ele>
        <time>2024-04-11T13:56:01.000Z</time>
      </trkpt>
      <trkpt lat="44.16424" lon="0.75009">
        <ele>160</ele>
        <time>2024-04-11T13:56:02.000Z</time>
      </trkpt>
      <trkpt lat="44.16423" lon="0.7501">
        <ele>160</ele>
        <time>2024-04-11T13:56:03.000Z</time>
      </trkpt>
      <trkpt lat="44.16423" lon="0.75011">
        <ele>160</ele>
        <time>2024-04-11T13:56:04.000Z</time>
      </trkpt>
      <trkpt lat="44.16422" lon="0.75012">
        <ele>160</ele>
        <time>2024-04-11T13:56:05.000Z</time>
      </trkpt>
      <trkpt lat="44.16421" lon="0.75013">
        <ele>160</ele>
        <time>2024-04-11T13:56:06.000Z</time>
      </trkpt>
      <trkpt lat="44.16421" lon="0.75014">
        <ele>160</ele>
        <time>2024-04-11T13:56:07.000Z</time>
      </trkpt>
      <trkpt lat="44.1642" lon="0.75016">
        <ele>160</ele>
        <time>2024-04-11T13:56:08.000Z</time>
      </trkpt>
      <trkpt lat="44.16419" lon="0.75017">
        <ele>160</ele>
        <time>2024-04-11T13:56:09.000Z</time>
      </trkpt>
      <trkpt lat="44.16418" lon="0.75018">
        <ele>160</ele>
        <time>2024-04-11T13:56:10.000Z</time>
      </trkpt>
      <trkpt lat="44.16418" lon="0.75019">
        <ele>160</ele>
        <time>2024-04-11T13:56:11.000Z</time>
      </trkpt>
      <trkpt lat="44.16417" lon="0.7502">
        <ele>160</ele>
        <time>2024-04-11T13:56:12.000Z</time>
      </trkpt>
      <trkpt lat="44.16416" lon="0.75021">
        <ele>160</ele>
        <time>2024-04-11T13:56:13.000Z</time>
      </trkpt>
      <trkpt lat="44.16415" lon="0.75021">
        <ele>160</ele>
        <time>2024-04-11T13:56:14.000Z</time>
      </trkpt>
      <trkpt lat="44.16414" lon="0.75022">
        <ele>160</ele>
        <time>2024-04-11T13:56:15.000Z</time>
      </trkpt>
      <trkpt lat="44.16413" lon="0.75022">
        <ele>160</ele>
        <time>2024-04-11T13:56:16.000Z</time>
      </trkpt>
      <trkpt lat="44.16412" lon="0.75023">
        <ele>160</ele>
        <time>2024-04-11T13:56:17.000Z</time>
      </trkpt>
      <trkpt lat="44.16411" lon="0.75023">
        <ele>160</ele>
        <time>2024-04-11T13:56:18.000Z</time>
      </trkpt>
      <trkpt lat="44.1641" lon="0.75023">
        <ele>160</ele>
        <time>2024-04-11T13:56:19.000Z</time>
      </trkpt>
      <trkpt lat="44.16409" lon="0.75023">
        <ele>160</ele>
        <time>2024-04-11T13:56:20.000Z</time>
      </trkpt>
      <trkpt lat="44.16408" lon="0.75022">
        <ele>160</ele>
        <time>2024-04-11T13:56:21.000Z</time>
      </trkpt>
      <trkpt lat="44.16407" lon="0.75022">
        <ele>160</ele>
        <time>2024-04-11T13:56:22.000Z</time>
      </trkpt>
      <trkpt lat="44.16406" lon="0.75022">
        <ele>161</ele>
        <time>2024-04-11T13:56:23.000Z</time>
      </trkpt>
      <trkpt lat="44.16405" lon="0.75021">
        <ele>161</ele>
        <time>2024-04-11T13:56:24.000Z</time>
      </trkpt>
      <trkpt lat="44.16404" lon="0.7502">
        <ele>161</ele>
        <time>2024-04-11T13:56:25.000Z</time>
      </trkpt>
      <trkpt lat="44.16403" lon="0.7502">
        <ele>161</ele>
        <time>2024-04-11T13:56:26.000Z</time>
      </trkpt>
      <trkpt lat="44.16402" lon="0.75019">
        <ele>162</ele>
        <time>2024-04-11T13:56:27.000Z</time>
      </trkpt>
      <trkpt lat="44.16402" lon="0.75018">
        <ele>162</ele>
        <time>2024-04-11T13:56:28.000Z</time>
      </trkpt>
      <trkpt lat="44.16401" lon="0.75017">
        <ele>162</ele>
        <time>2024-04-11T13:56:29.000Z</time>
      </trkpt>
      <trkpt lat="44.164" lon="0.75017">
        <ele>162</ele>
        <time>2024-04-11T13:56:30.000Z</time>
      </trkpt>
      <trkpt lat="44.16399" lon="0.75016">
        <ele>162</ele>
        <time>2024-04-11T13:56:31.000Z</time>
      </trkpt>
      <trkpt lat="44.16398" lon="0.75015">
        <ele>162</ele>
        <time>2024-04-11T13:56:32.000Z</time>
      </trkpt>
      <trkpt lat="44.16398" lon="0.75014">
        <ele>162</ele>
        <time>2024-04-11T13:56:33.000Z</time>
      </trkpt>
      <trkpt lat="44.16397" lon="0.75014">
        <ele>162</ele>
        <time>2024-04-11T13:56:34.000Z</time>
      </trkpt>
      <trkpt lat="44.16396" lon="0.75013">
        <ele>162</ele>
        <time>2024-04-11T13:56:35.000Z</time>
      </trkpt>
      <trkpt lat="44.16396" lon="0.75012">
        <ele>162</ele>
        <time>2024-04-11T13:56:36.000Z</time>
      </trkpt>
      <trkpt lat="44.16395" lon="0.75011">
        <ele>162</ele>
        <time>2024-04-11T13:56:37.000Z</time>
      </trkpt>
      <trkpt lat="44.16394" lon="0.75011">
        <ele>162</ele>
        <time>2024-04-11T13:56:38.000Z</time>
      </trkpt>
      <trkpt lat="44.16394" lon="0.75011">
        <ele>162</ele>
        <time>2024-04-11T13:56:39.000Z</time>
      </trkpt>
      <trkpt lat="44.16393" lon="0.7501">
        <ele>163</ele>
        <time>2024-04-11T13:56:40.000Z</time>
      </trkpt>
      <trkpt lat="44.16392" lon="0.7501">
        <ele>163</ele>
        <time>2024-04-11T13:56:41.000Z</time>
      </trkpt>
      <trkpt lat="44.16392" lon="0.7501">
        <ele>162</ele>
        <time>2024-04-11T13:56:42.000Z</time>
      </trkpt>
      <trkpt lat="44.16391" lon="0.7501">
        <ele>162</ele>
        <time>2024-04-11T13:56:43.000Z</time>
      </trkpt>
      <trkpt lat="44.16391" lon="0.75009">
        <ele>163</ele>
        <time>2024-04-11T13:56:44.000Z</time>
      </trkpt>
      <trkpt lat="44.1639" lon="0.75009">
        <ele>162</ele>
        <time>2024-04-11T13:56:45.000Z</time>
      </trkpt>
      <trkpt lat="44.1639" lon="0.75008">
        <ele>162</ele>
        <time>2024-04-11T13:56:46.000Z</time>
      </trkpt>
      <trkpt lat="44.1639" lon="0.75008">
        <ele>162</ele>
        <time>2024-04-11T13:56:47.000Z</time>
      </trkpt>
      <trkpt lat="44.16389" lon="0.75007">
        <ele>163</ele>
        <time>2024-04-11T13:56:48.000Z</time>
      </trkpt>
      <trkpt lat="44.16389" lon="0.75007">
        <ele>163</ele>
        <time>2024-04-11T13:56:49.000Z</time>
      </trkpt>
      <trkpt lat="44.16388" lon="0.75007">
        <ele>163</ele>
        <time>2024-04-11T13:56:50.000Z</time>
      </trkpt>
      <trkpt lat="44.16388" lon="0.75007">
        <ele>163</ele>
        <time>2024-04-11T13:56:51.000Z</time>
      </trkpt>
      <trkpt lat="44.16388" lon="0.75006">
        <ele>163</ele>
        <time>2024-04-11T13:56:52.000Z</time>
      </trkpt>
      <trkpt lat="44.16388" lon="0.75006">
        <ele>163</ele>
        <time>2024-04-11T13:56:53.000Z</time>
      </trkpt>
      <trkpt lat="44.16388" lon="0.75006">
        <ele>163</ele>
        <time>2024-04-11T13:56:54.000Z</time>
      </trkpt>
      <trkpt lat="44.16387" lon="0.75006">
        <ele>163</ele>
        <time>2024-04-11T13:56:55.000Z</time>
      </trkpt>
      <trkpt lat="44.16387" lon="0.75006">
        <ele>163</ele>
        <time>2024-04-11T13:56:56.000Z</time>
      </trkpt>
      <trkpt lat="44.16387" lon="0.75006">
        <ele>163</ele>
        <time>2024-04-11T13:56:57.000Z</time>
      </trkpt>
      <trkpt lat="44.16387" lon="0.75006">
        <ele>163</ele>
        <time>2024-04-11T13:56:58.000Z</time>
      </trkpt>
      <trkpt lat="44.16386" lon="0.75006">
        <ele>163</ele>
        <time>2024-04-11T13:56:59.000Z</time>
      </trkpt>
      <trkpt lat="44.16386" lon="0.75006">
        <ele>163</ele>
        <time>2024-04-11T13:57:00.000Z</time>
      </trkpt>
      <trkpt lat="44.16386" lon="0.75006">
        <ele>163</ele>
        <time>2024-04-11T13:57:01.000Z</time>
      </trkpt>
      <trkpt lat="44.16386" lon="0.75006">
        <ele>163</ele>
        <time>2024-04-11T13:57:02.000Z</time>
      </trkpt>
      <trkpt lat="44.16386" lon="0.75006">
        <ele>163</ele>
        <time>2024-04-11T13:57:03.000Z</time>
      </trkpt>
      <trkpt lat="44.16386" lon="0.75006">
        <ele>163</ele>
        <time>2024-04-11T13:57:04.000Z</time>
      </trkpt>
      <trkpt lat="44.16386" lon="0.75006">
        <ele>163</ele>
        <time>2024-04-11T13:57:05.000Z</time>
      </trkpt>
      <trkpt lat="44.16386" lon="0.75006">
        <ele>163</ele>
        <time>2024-04-11T13:57:06.000Z</time>
      </trkpt>
      <trkpt lat="44.16386" lon="0.75006">
        <ele>163</ele>
        <time>2024-04-11T13:57:07.000Z</time>
      </trkpt>
      <trkpt lat="44.16386" lon="0.75005">
        <ele>163</ele>
        <time>2024-04-11T13:57:08.000Z</time>
      </trkpt>
      <trkpt lat="44.16386" lon="0.75005">
        <ele>163</ele>
        <time>2024-04-11T13:57:09.000Z</time>
      </trkpt>
      <trkpt lat="44.16386" lon="0.75005">
        <ele>163</ele>
        <time>2024-04-11T13:57:10.000Z</time>
      </trkpt>
      <trkpt lat="44.16386" lon="0.75006">
        <ele>163</ele>
        <time>2024-04-11T13:57:11.000Z</time>
      </trkpt>
      <trkpt lat="44.16386" lon="0.75006">
        <ele>163</ele>
        <time>2024-04-11T13:57:12.000Z</time>
      </trkpt>
      <trkpt lat="44.16386" lon="0.75006">
        <ele>163</ele>
        <time>2024-04-11T13:57:13.000Z</time>
      </trkpt>
      <trkpt lat="44.16386" lon="0.75006">
        <ele>163</ele>
        <time>2024-04-11T13:57:14.000Z</time>
      </trkpt>
      <trkpt lat="44.16386" lon="0.75006">
        <ele>163</ele>
        <time>2024-04-11T13:57:15.000Z</time>
      </trkpt>
      <trkpt lat="44.16386" lon="0.75006">
        <ele>163</ele>
        <time>2024-04-11T13:57:16.000Z</time>
      </trkpt>
      <trkpt lat="44.16386" lon="0.75005">
        <ele>164</ele>
        <time>2024-04-11T13:57:17.000Z</time>
      </trkpt>
      <trkpt lat="44.16386" lon="0.75005">
        <ele>164</ele>
        <time>2024-04-11T13:57:18.000Z</time>
      </trkpt>
      <trkpt lat="44.16386" lon="0.75005">
        <ele>164</ele>
        <time>2024-04-11T13:57:19.000Z</time>
      </trkpt>
      <trkpt lat="44.16385" lon="0.75005">
        <ele>164</ele>
        <time>2024-04-11T13:57:20.000Z</time>
      </trkpt>
      <trkpt lat="44.16385" lon="0.75005">
        <ele>164</ele>
        <time>2024-04-11T13:57:21.000Z</time>
      </trkpt>
      <trkpt lat="44.16385" lon="0.75005">
        <ele>164</ele>
        <time>2024-04-11T13:57:22.000Z</time>
      </trkpt>
      <trkpt lat="44.16385" lon="0.75005">
        <ele>164</ele>
        <time>2024-04-11T13:57:23.000Z</time>
      </trkpt>
      <trkpt lat="44.16385" lon="0.75005">
        <ele>164</ele>
        <time>2024-04-11T13:57:24.000Z</time>
      </trkpt>
      <trkpt lat="44.16385" lon="0.75006">
        <ele>164</ele>
        <time>2024-04-11T13:57:25.000Z</time>
      </trkpt>
      <trkpt lat="44.16385" lon="0.75006">
        <ele>164</ele>
        <time>2024-04-11T13:57:26.000Z</time>
      </trkpt>
      <trkpt lat="44.16385" lon="0.75006">
        <ele>164</ele>
        <time>2024-04-11T13:57:27.000Z</time>
      </trkpt>
      <trkpt lat="44.16385" lon="0.75006">
        <ele>164</ele>
        <time>2024-04-11T13:57:28.000Z</time>
      </trkpt>
      <trkpt lat="44.16385" lon="0.75006">
        <ele>164</ele>
        <time>2024-04-11T13:57:29.000Z</time>
      </trkpt>
      <trkpt lat="44.16385" lon="0.75006">
        <ele>165</ele>
        <time>2024-04-11T13:57:30.000Z</time>
      </trkpt>
      <trkpt lat="44.16385" lon="0.75006">
        <ele>165</ele>
        <time>2024-04-11T13:57:31.000Z</time>
      </trkpt>
      <trkpt lat="44.16385" lon="0.75005">
        <ele>165</ele>
        <time>2024-04-11T13:57:32.000Z</time>
      </trkpt>
      <trkpt lat="44.16385" lon="0.75005">
        <ele>165</ele>
        <time>2024-04-11T13:57:33.000Z</time>
      </trkpt>
      <trkpt lat="44.16385" lon="0.75006">
        <ele>165</ele>
        <time>2024-04-11T13:57:34.000Z</time>
      </trkpt>
      <trkpt lat="44.16385" lon="0.75006">
        <ele>165</ele>
        <time>2024-04-11T13:57:35.000Z</time>
      </trkpt>
      <trkpt lat="44.16385" lon="0.75006">
        <ele>165</ele>
        <time>2024-04-11T13:57:36.000Z</time>
      </trkpt>
      <trkpt lat="44.16385" lon="0.75006">
        <ele>165</ele>
        <time>2024-04-11T13:57:37.000Z</time>
      </trkpt>
      <trkpt lat="44.16385" lon="0.75006">
        <ele>165</ele>
        <time>2024-04-11T13:57:38.000Z</time>
      </trkpt>
      <trkpt lat="44.16385" lon="0.75006">
        <ele>165</ele>
        <time>2024-04-11T13:57:39.000Z</time>
      </trkpt>
      <trkpt lat="44.16385" lon="0.75006">
        <ele>165</ele>
        <time>2024-04-11T13:57:40.000Z</time>
      </trkpt>
      <trkpt lat="44.16385" lon="0.75006">
        <ele>165</ele>
        <time>2024-04-11T13:57:41.000Z</time>
      </trkpt>
      <trkpt lat="44.16385" lon="0.75006">
        <ele>165</ele>
        <time>2024-04-11T13:57:42.000Z</time>
      </trkpt>
      <trkpt lat="44.16385" lon="0.75006">
        <ele>165</ele>
        <time>2024-04-11T13:57:43.000Z</time>
      </trkpt>
      <trkpt lat="44.16385" lon="0.75006">
        <ele>165</ele>
        <time>2024-04-11T13:57:44.000Z</time>
      </trkpt>
      <trkpt lat="44.16385" lon="0.75005">
        <ele>165</ele>
        <time>2024-04-11T13:57:45.000Z</time>
      </trkpt>
      <trkpt lat="44.16384" lon="0.75006">
        <ele>165</ele>
        <time>2024-04-11T13:57:46.000Z</time>
      </trkpt>
      <trkpt lat="44.16384" lon="0.75006">
        <ele>165</ele>
        <time>2024-04-11T13:57:47.000Z</time>
      </trkpt>
      <trkpt lat="44.16384" lon="0.75006">
        <ele>165</ele>
        <time>2024-04-11T13:57:48.000Z</time>
      </trkpt>
      <trkpt lat="44.16384" lon="0.75006">
        <ele>165</ele>
        <time>2024-04-11T13:57:49.000Z</time>
      </trkpt>
      <trkpt lat="44.16384" lon="0.75005">
        <ele>165</ele>
        <time>2024-04-11T13:57:50.000Z</time>
      </trkpt>
      <trkpt lat="44.16384" lon="0.75005">
        <ele>165</ele>
        <time>2024-04-11T13:57:51.000Z</time>
      </trkpt>
      <trkpt lat="44.16384" lon="0.75005">
        <ele>165</ele>
        <time>2024-04-11T13:57:52.000Z</time>
      </trkpt>
      <trkpt lat="44.16384" lon="0.75005">
        <ele>165</ele>
        <time>2024-04-11T13:57:53.000Z</time>
      </trkpt>
      <trkpt lat="44.16384" lon="0.75005">
        <ele>165</ele>
        <time>2024-04-11T13:57:54.000Z</time>
      </trkpt>
      <trkpt lat="44.16384" lon="0.75005">
        <ele>165</ele>
        <time>2024-04-11T13:57:55.000Z</time>
      </trkpt>
      <trkpt lat="44.16384" lon="0.75006">
        <ele>165</ele>
        <time>2024-04-11T13:57:56.000Z</time>
      </trkpt>
      <trkpt lat="44.16384" lon="0.75006">
        <ele>165</ele>
        <time>2024-04-11T13:57:57.000Z</time>
      </trkpt>
      <trkpt lat="44.16384" lon="0.75006">
        <ele>165</ele>
        <time>2024-04-11T13:57:58.000Z</time>
      </trkpt>
      <trkpt lat="44.16383" lon="0.75007">
        <ele>165</ele>
        <time>2024-04-11T13:57:59.000Z</time>
      </trkpt>
      <trkpt lat="44.16383" lon="0.75007">
        <ele>165</ele>
        <time>2024-04-11T13:58:00.000Z</time>
      </trkpt>
      <trkpt lat="44.16383" lon="0.75008">
        <ele>165</ele>
        <time>2024-04-11T13:58:01.000Z</time>
      </trkpt>
      <trkpt lat="44.16383" lon="0.75008">
        <ele>165</ele>
        <time>2024-04-11T13:58:02.000Z</time>
      </trkpt>
      <trkpt lat="44.16383" lon="0.75009">
        <ele>165</ele>
        <time>2024-04-11T13:58:03.000Z</time>
      </trkpt>
      <trkpt lat="44.16382" lon="0.75009">
        <ele>165</ele>
        <time>2024-04-11T13:58:04.000Z</time>
      </trkpt>
      <trkpt lat="44.16382" lon="0.7501">
        <ele>165</ele>
        <time>2024-04-11T13:58:05.000Z</time>
      </trkpt>
      <trkpt lat="44.16381" lon="0.7501">
        <ele>165</ele>
        <time>2024-04-11T13:58:06.000Z</time>
      </trkpt>
      <trkpt lat="44.16381" lon="0.75011">
        <ele>165</ele>
        <time>2024-04-11T13:58:07.000Z</time>
      </trkpt>
      <trkpt lat="44.1638" lon="0.75012">
        <ele>165</ele>
        <time>2024-04-11T13:58:08.000Z</time>
      </trkpt>
      <trkpt lat="44.1638" lon="0.75013">
        <ele>165</ele>
        <time>2024-04-11T13:58:09.000Z</time>
      </trkpt>
      <trkpt lat="44.1638" lon="0.75013">
        <ele>165</ele>
        <time>2024-04-11T13:58:10.000Z</time>
      </trkpt>
      <trkpt lat="44.16379" lon="0.75014">
        <ele>165</ele>
        <time>2024-04-11T13:58:11.000Z</time>
      </trkpt>
      <trkpt lat="44.16379" lon="0.75015">
        <ele>165</ele>
        <time>2024-04-11T13:58:12.000Z</time>
      </trkpt>
      <trkpt lat="44.16379" lon="0.75017">
        <ele>165</ele>
        <time>2024-04-11T13:58:13.000Z</time>
      </trkpt>
      <trkpt lat="44.16379" lon="0.75018">
        <ele>165</ele>
        <time>2024-04-11T13:58:14.000Z</time>
      </trkpt>
      <trkpt lat="44.16378" lon="0.75019">
        <ele>165</ele>
        <time>2024-04-11T13:58:15.000Z</time>
      </trkpt>
      <trkpt lat="44.16378" lon="0.75021">
        <ele>165</ele>
        <time>2024-04-11T13:58:16.000Z</time>
      </trkpt>
      <trkpt lat="44.16378" lon="0.75022">
        <ele>165</ele>
        <time>2024-04-11T13:58:17.000Z</time>
      </trkpt>
      <trkpt lat="44.16378" lon="0.75023">
        <ele>165</ele>
        <time>2024-04-11T13:58:18.000Z</time>
      </trkpt>
      <trkpt lat="44.16377" lon="0.75024">
        <ele>165</ele>
        <time>2024-04-11T13:58:19.000Z</time>
      </trkpt>
      <trkpt lat="44.16377" lon="0.75026">
        <ele>164</ele>
        <time>2024-04-11T13:58:20.000Z</time>
      </trkpt>
      <trkpt lat="44.16377" lon="0.75027">
        <ele>165</ele>
        <time>2024-04-11T13:58:21.000Z</time>
      </trkpt>
      <trkpt lat="44.16377" lon="0.75028">
        <ele>164</ele>
        <time>2024-04-11T13:58:22.000Z</time>
      </trkpt>
      <trkpt lat="44.16377" lon="0.75029">
        <ele>165</ele>
        <time>2024-04-11T13:58:23.000Z</time>
      </trkpt>
      <trkpt lat="44.16376" lon="0.75031">
        <ele>165</ele>
        <time>2024-04-11T13:58:24.000Z</time>
      </trkpt>
      <trkpt lat="44.16376" lon="0.75032">
        <ele>165</ele>
        <time>2024-04-11T13:58:25.000Z</time>
      </trkpt>
      <trkpt lat="44.16376" lon="0.75033">
        <ele>164</ele>
        <time>2024-04-11T13:58:26.000Z</time>
      </trkpt>
      <trkpt lat="44.16376" lon="0.75035">
        <ele>164</ele>
        <time>2024-04-11T13:58:27.000Z</time>
      </trkpt>
      <trkpt lat="44.16375" lon="0.75036">
        <ele>164</ele>
        <time>2024-04-11T13:58:28.000Z</time>
      </trkpt>
      <trkpt lat="44.16375" lon="0.75037">
        <ele>164</ele>
        <time>2024-04-11T13:58:29.000Z</time>
      </trkpt>
      <trkpt lat="44.16375" lon="0.75039">
        <ele>164</ele>
        <time>2024-04-11T13:58:30.000Z</time>
      </trkpt>
      <trkpt lat="44.16374" lon="0.7504">
        <ele>164</ele>
        <time>2024-04-11T13:58:31.000Z</time>
      </trkpt>
      <trkpt lat="44.16374" lon="0.75041">
        <ele>164</ele>
        <time>2024-04-11T13:58:32.000Z</time>
      </trkpt>
      <trkpt lat="44.16374" lon="0.75042">
        <ele>164</ele>
        <time>2024-04-11T13:58:33.000Z</time>
      </trkpt>
      <trkpt lat="44.16374" lon="0.75044">
        <ele>164</ele>
        <time>2024-04-11T13:58:34.000Z</time>
      </trkpt>
      <trkpt lat="44.16373" lon="0.75045">
        <ele>164</ele>
        <time>2024-04-11T13:58:35.000Z</time>
      </trkpt>
      <trkpt lat="44.16373" lon="0.75046">
        <ele>164</ele>
        <time>2024-04-11T13:58:36.000Z</time>
      </trkpt>
      <trkpt lat="44.16373" lon="0.75048">
        <ele>164</ele>
        <time>2024-04-11T13:58:37.000Z</time>
      </trkpt>
      <trkpt lat="44.16373" lon="0.75049">
        <ele>164</ele>
        <time>2024-04-11T13:58:38.000Z</time>
      </trkpt>
      <trkpt lat="44.16372" lon="0.75051">
        <ele>164</ele>
        <time>2024-04-11T13:58:39.000Z</time>
      </trkpt>
      <trkpt lat="44.16372" lon="0.75052">
        <ele>163</ele>
        <time>2024-04-11T13:58:40.000Z</time>
      </trkpt>
      <trkpt lat="44.16371" lon="0.75053">
        <ele>163</ele>
        <time>2024-04-11T13:58:41.000Z</time>
      </trkpt>
      <trkpt lat="44.16371" lon="0.75054">
        <ele>163</ele>
        <time>2024-04-11T13:58:42.000Z</time>
      </trkpt>
      <trkpt lat="44.16371" lon="0.75056">
        <ele>163</ele>
        <time>2024-04-11T13:58:43.000Z</time>
      </trkpt>
      <trkpt lat="44.1637" lon="0.75057">
        <ele>163</ele>
        <time>2024-04-11T13:58:44.000Z</time>
      </trkpt>
      <trkpt lat="44.1637" lon="0.75058">
        <ele>163</ele>
        <time>2024-04-11T13:58:45.000Z</time>
      </trkpt>
      <trkpt lat="44.1637" lon="0.7506">
        <ele>163</ele>
        <time>2024-04-11T13:58:46.000Z</time>
      </trkpt>
      <trkpt lat="44.16369" lon="0.75061">
        <ele>164</ele>
        <time>2024-04-11T13:58:47.000Z</time>
      </trkpt>
      <trkpt lat="44.16369" lon="0.75062">
        <ele>164</ele>
        <time>2024-04-11T13:58:48.000Z</time>
      </trkpt>
      <trkpt lat="44.16368" lon="0.75064">
        <ele>164</ele>
        <time>2024-04-11T13:58:49.000Z</time>
      </trkpt>
      <trkpt lat="44.16368" lon="0.75065">
        <ele>164</ele>
        <time>2024-04-11T13:58:50.000Z</time>
      </trkpt>
      <trkpt lat="44.16368" lon="0.75066">
        <ele>164</ele>
        <time>2024-04-11T13:58:51.000Z</time>
      </trkpt>
      <trkpt lat="44.16368" lon="0.75068">
        <ele>164</ele>
        <time>2024-04-11T13:58:52.000Z</time>
      </trkpt>
      <trkpt lat="44.16367" lon="0.75069">
        <ele>164</ele>
        <time>2024-04-11T13:58:53.000Z</time>
      </trkpt>
      <trkpt lat="44.16367" lon="0.75071">
        <ele>164</ele>
        <time>2024-04-11T13:58:54.000Z</time>
      </trkpt>
      <trkpt lat="44.16367" lon="0.75072">
        <ele>164</ele>
        <time>2024-04-11T13:58:55.000Z</time>
      </trkpt>
      <trkpt lat="44.16367" lon="0.75074">
        <ele>164</ele>
        <time>2024-04-11T13:58:56.000Z</time>
      </trkpt>
      <trkpt lat="44.16367" lon="0.75075">
        <ele>164</ele>
        <time>2024-04-11T13:58:57.000Z</time>
      </trkpt>
      <trkpt lat="44.16366" lon="0.75076">
        <ele>164</ele>
        <time>2024-04-11T13:58:58.000Z</time>
      </trkpt>
      <trkpt lat="44.16366" lon="0.75078">
        <ele>164</ele>
        <time>2024-04-11T13:58:59.000Z</time>
      </trkpt>
      <trkpt lat="44.16366" lon="0.75079">
        <ele>164</ele>
        <time>2024-04-11T13:59:00.000Z</time>
      </trkpt>
      <trkpt lat="44.16365" lon="0.75081">
        <ele>164</ele>
        <time>2024-04-11T13:59:01.000Z</time>
      </trkpt>
      <trkpt lat="44.16365" lon="0.75082">
        <ele>164</ele>
        <time>2024-04-11T13:59:02.000Z</time>
      </trkpt>
      <trkpt lat="44.16365" lon="0.75084">
        <ele>164</ele>
        <time>2024-04-11T13:59:03.000Z</time>
      </trkpt>
      <trkpt lat="44.16364" lon="0.75085">
        <ele>165</ele>
        <time>2024-04-11T13:59:04.000Z</time>
      </trkpt>
      <trkpt lat="44.16364" lon="0.75086">
        <ele>165</ele>
        <time>2024-04-11T13:59:05.000Z</time>
      </trkpt>
      <trkpt lat="44.16364" lon="0.75088">
        <ele>165</ele>
        <time>2024-04-11T13:59:06.000Z</time>
      </trkpt>
      <trkpt lat="44.16363" lon="0.75089">
        <ele>165</ele>
        <time>2024-04-11T13:59:07.000Z</time>
      </trkpt>
      <trkpt lat="44.16363" lon="0.75091">
        <ele>165</ele>
        <time>2024-04-11T13:59:08.000Z</time>
      </trkpt>
      <trkpt lat="44.16362" lon="0.75092">
        <ele>165</ele>
        <time>2024-04-11T13:59:09.000Z</time>
      </trkpt>
      <trkpt lat="44.16362" lon="0.75094">
        <ele>165</ele>
        <time>2024-04-11T13:59:10.000Z</time>
      </trkpt>
      <trkpt lat="44.16362" lon="0.75095">
        <ele>165</ele>
        <time>2024-04-11T13:59:11.000Z</time>
      </trkpt>
      <trkpt lat="44.16361" lon="0.75097">
        <ele>166</ele>
        <time>2024-04-11T13:59:12.000Z</time>
      </trkpt>
      <trkpt lat="44.16361" lon="0.75098">
        <ele>166</ele>
        <time>2024-04-11T13:59:13.000Z</time>
      </trkpt>
      <trkpt lat="44.16361" lon="0.751">
        <ele>165</ele>
        <time>2024-04-11T13:59:14.000Z</time>
      </trkpt>
      <trkpt lat="44.1636" lon="0.75101">
        <ele>165</ele>
        <time>2024-04-11T13:59:15.000Z</time>
      </trkpt>
      <trkpt lat="44.1636" lon="0.75102">
        <ele>165</ele>
        <time>2024-04-11T13:59:16.000Z</time>
      </trkpt>
      <trkpt lat="44.1636" lon="0.75104">
        <ele>166</ele>
        <time>2024-04-11T13:59:17.000Z</time>
      </trkpt>
      <trkpt lat="44.16359" lon="0.75105">
        <ele>166</ele>
        <time>2024-04-11T13:59:18.000Z</time>
      </trkpt>
      <trkpt lat="44.16359" lon="0.75107">
        <ele>166</ele>
        <time>2024-04-11T13:59:19.000Z</time>
      </trkpt>
      <trkpt lat="44.16359" lon="0.75109">
        <ele>166</ele>
        <time>2024-04-11T13:59:20.000Z</time>
      </trkpt>
      <trkpt lat="44.16358" lon="0.7511">
        <ele>165</ele>
        <time>2024-04-11T13:59:21.000Z</time>
      </trkpt>
      <trkpt lat="44.16358" lon="0.75112">
        <ele>165</ele>
        <time>2024-04-11T13:59:22.000Z</time>
      </trkpt>
      <trkpt lat="44.16358" lon="0.75113">
        <ele>165</ele>
        <time>2024-04-11T13:59:23.000Z</time>
      </trkpt>
      <trkpt lat="44.16357" lon="0.75115">
        <ele>165</ele>
        <time>2024-04-11T13:59:24.000Z</time>
      </trkpt>
      <trkpt lat="44.16357" lon="0.75116">
        <ele>165</ele>
        <time>2024-04-11T13:59:25.000Z</time>
      </trkpt>
      <trkpt lat="44.16356" lon="0.75118">
        <ele>165</ele>
        <time>2024-04-11T13:59:26.000Z</time>
      </trkpt>
      <trkpt lat="44.16356" lon="0.7512">
        <ele>164</ele>
        <time>2024-04-11T13:59:27.000Z</time>
      </trkpt>
      <trkpt lat="44.16355" lon="0.75121">
        <ele>164</ele>
        <time>2024-04-11T13:59:28.000Z</time>
      </trkpt>
      <trkpt lat="44.16355" lon="0.75123">
        <ele>164</ele>
        <time>2024-04-11T13:59:29.000Z</time>
      </trkpt>
      <trkpt lat="44.16355" lon="0.75124">
        <ele>164</ele>
        <time>2024-04-11T13:59:30.000Z</time>
      </trkpt>
      <trkpt lat="44.16354" lon="0.75126">
        <ele>164</ele>
        <time>2024-04-11T13:59:31.000Z</time>
      </trkpt>
      <trkpt lat="44.16354" lon="0.75127">
        <ele>164</ele>
        <time>2024-04-11T13:59:32.000Z</time>
      </trkpt>
      <trkpt lat="44.16354" lon="0.75128">
        <ele>164</ele>
        <time>2024-04-11T13:59:33.000Z</time>
      </trkpt>
      <trkpt lat="44.16353" lon="0.7513">
        <ele>164</ele>
        <time>2024-04-11T13:59:34.000Z</time>
      </trkpt>
      <trkpt lat="44.16353" lon="0.75131">
        <ele>164</ele>
        <time>2024-04-11T13:59:35.000Z</time>
      </trkpt>
      <trkpt lat="44.16353" lon="0.75133">
        <ele>164</ele>
        <time>2024-04-11T13:59:36.000Z</time>
      </trkpt>
      <trkpt lat="44.16352" lon="0.75134">
        <ele>164</ele>
        <time>2024-04-11T13:59:37.000Z</time>
      </trkpt>
      <trkpt lat="44.16352" lon="0.75136">
        <ele>164</ele>
        <time>2024-04-11T13:59:38.000Z</time>
      </trkpt>
      <trkpt lat="44.16352" lon="0.75137">
        <ele>164</ele>
        <time>2024-04-11T13:59:39.000Z</time>
      </trkpt>
      <trkpt lat="44.16351" lon="0.75139">
        <ele>163</ele>
        <time>2024-04-11T13:59:40.000Z</time>
      </trkpt>
      <trkpt lat="44.16351" lon="0.7514">
        <ele>163</ele>
        <time>2024-04-11T13:59:41.000Z</time>
      </trkpt>
      <trkpt lat="44.16351" lon="0.75142">
        <ele>163</ele>
        <time>2024-04-11T13:59:42.000Z</time>
      </trkpt>
      <trkpt lat="44.16351" lon="0.75143">
        <ele>163</ele>
        <time>2024-04-11T13:59:43.000Z</time>
      </trkpt>
      <trkpt lat="44.1635" lon="0.75145">
        <ele>162</ele>
        <time>2024-04-11T13:59:44.000Z</time>
      </trkpt>
      <trkpt lat="44.1635" lon="0.75146">
        <ele>162</ele>
        <time>2024-04-11T13:59:45.000Z</time>
      </trkpt>
      <trkpt lat="44.1635" lon="0.75148">
        <ele>162</ele>
        <time>2024-04-11T13:59:46.000Z</time>
      </trkpt>
      <trkpt lat="44.1635" lon="0.75149">
        <ele>162</ele>
        <time>2024-04-11T13:59:47.000Z</time>
      </trkpt>
      <trkpt lat="44.16349" lon="0.75151">
        <ele>162</ele>
        <time>2024-04-11T13:59:48.000Z</time>
      </trkpt>
      <trkpt lat="44.16349" lon="0.75152">
        <ele>162</ele>
        <time>2024-04-11T13:59:49.000Z</time>
      </trkpt>
      <trkpt lat="44.16349" lon="0.75154">
        <ele>162</ele>
        <time>2024-04-11T13:59:50.000Z</time>
      </trkpt>
      <trkpt lat="44.16348" lon="0.75156">
        <ele>162</ele>
        <time>2024-04-11T13:59:51.000Z</time>
      </trkpt>
      <trkpt lat="44.16348" lon="0.75157">
        <ele>162</ele>
        <time>2024-04-11T13:59:52.000Z</time>
      </trkpt>
      <trkpt lat="44.16348" lon="0.75159">
        <ele>162</ele>
        <time>2024-04-11T13:59:53.000Z</time>
      </trkpt>
      <trkpt lat="44.16347" lon="0.7516">
        <ele>162</ele>
        <time>2024-04-11T13:59:54.000Z</time>
      </trkpt>
      <trkpt lat="44.16347" lon="0.75162">
        <ele>162</ele>
        <time>2024-04-11T13:59:55.000Z</time>
      </trkpt>
      <trkpt lat="44.16347" lon="0.75164">
        <ele>162</ele>
        <time>2024-04-11T13:59:56.000Z</time>
      </trkpt>
      <trkpt lat="44.16347" lon="0.75165">
        <ele>162</ele>
        <time>2024-04-11T13:59:57.000Z</time>
      </trkpt>
      <trkpt lat="44.16346" lon="0.75167">
        <ele>162</ele>
        <time>2024-04-11T13:59:58.000Z</time>
      </trkpt>
      <trkpt lat="44.16346" lon="0.75168">
        <ele>162</ele>
        <time>2024-04-11T13:59:59.000Z</time>
      </trkpt>
      <trkpt lat="44.16346" lon="0.7517">
        <ele>162</ele>
        <time>2024-04-11T14:00:00.000Z</time>
      </trkpt>
      <trkpt lat="44.16346" lon="0.75172">
        <ele>162</ele>
        <time>2024-04-11T14:00:01.000Z</time>
      </trkpt>
      <trkpt lat="44.16346" lon="0.75173">
        <ele>162</ele>
        <time>2024-04-11T14:00:02.000Z</time>
      </trkpt>
      <trkpt lat="44.16345" lon="0.75175">
        <ele>162</ele>
        <time>2024-04-11T14:00:03.000Z</time>
      </trkpt>
      <trkpt lat="44.16345" lon="0.75176">
        <ele>162</ele>
        <time>2024-04-11T14:00:04.000Z</time>
      </trkpt>
      <trkpt lat="44.16345" lon="0.75178">
        <ele>162</ele>
        <time>2024-04-11T14:00:05.000Z</time>
      </trkpt>
      <trkpt lat="44.16345" lon="0.75179">
        <ele>162</ele>
        <time>2024-04-11T14:00:06.000Z</time>
      </trkpt>
      <trkpt lat="44.16345" lon="0.75181">
        <ele>162</ele>
        <time>2024-04-11T14:00:07.000Z</time>
      </trkpt>
      <trkpt lat="44.16345" lon="0.75182">
        <ele>162</ele>
        <time>2024-04-11T14:00:08.000Z</time>
      </trkpt>
      <trkpt lat="44.16344" lon="0.75184">
        <ele>162</ele>
        <time>2024-04-11T14:00:09.000Z</time>
      </trkpt>
      <trkpt lat="44.16344" lon="0.75186">
        <ele>162</ele>
        <time>2024-04-11T14:00:10.000Z</time>
      </trkpt>
      <trkpt lat="44.16344" lon="0.75187">
        <ele>162</ele>
        <time>2024-04-11T14:00:11.000Z</time>
      </trkpt>
      <trkpt lat="44.16344" lon="0.75189">
        <ele>162</ele>
        <time>2024-04-11T14:00:12.000Z</time>
      </trkpt>
      <trkpt lat="44.16344" lon="0.7519">
        <ele>162</ele>
        <time>2024-04-11T14:00:13.000Z</time>
      </trkpt>
      <trkpt lat="44.16344" lon="0.75192">
        <ele>162</ele>
        <time>2024-04-11T14:00:14.000Z</time>
      </trkpt>
      <trkpt lat="44.16344" lon="0.75194">
        <ele>163</ele>
        <time>2024-04-11T14:00:15.000Z</time>
      </trkpt>
      <trkpt lat="44.16344" lon="0.75195">
        <ele>163</ele>
        <time>2024-04-11T14:00:16.000Z</time>
      </trkpt>
      <trkpt lat="44.16343" lon="0.75197">
        <ele>163</ele>
        <time>2024-04-11T14:00:17.000Z</time>
      </trkpt>
      <trkpt lat="44.16343" lon="0.75198">
        <ele>162</ele>
        <time>2024-04-11T14:00:18.000Z</time>
      </trkpt>
      <trkpt lat="44.16343" lon="0.752">
        <ele>162</ele>
        <time>2024-04-11T14:00:19.000Z</time>
      </trkpt>
      <trkpt lat="44.16343" lon="0.75201">
        <ele>162</ele>
        <time>2024-04-11T14:00:20.000Z</time>
      </trkpt>
      <trkpt lat="44.16343" lon="0.75203">
        <ele>162</ele>
        <time>2024-04-11T14:00:21.000Z</time>
      </trkpt>
      <trkpt lat="44.16343" lon="0.75205">
        <ele>161</ele>
        <time>2024-04-11T14:00:22.000Z</time>
      </trkpt>
      <trkpt lat="44.16343" lon="0.75206">
        <ele>162</ele>
        <time>2024-04-11T14:00:23.000Z</time>
      </trkpt>
      <trkpt lat="44.16343" lon="0.75208">
        <ele>162</ele>
        <time>2024-04-11T14:00:24.000Z</time>
      </trkpt>
      <trkpt lat="44.16343" lon="0.75209">
        <ele>162</ele>
        <time>2024-04-11T14:00:25.000Z</time>
      </trkpt>
      <trkpt lat="44.16343" lon="0.75211">
        <ele>162</ele>
        <time>2024-04-11T14:00:26.000Z</time>
      </trkpt>
      <trkpt lat="44.16343" lon="0.75213">
        <ele>162</ele>
        <time>2024-04-11T14:00:27.000Z</time>
      </trkpt>
      <trkpt lat="44.16343" lon="0.75214">
        <ele>162</ele>
        <time>2024-04-11T14:00:28.000Z</time>
      </trkpt>
      <trkpt lat="44.16343" lon="0.75216">
        <ele>162</ele>
        <time>2024-04-11T14:00:29.000Z</time>
      </trkpt>
      <trkpt lat="44.16343" lon="0.75217">
        <ele>161</ele>
        <time>2024-04-11T14:00:30.000Z</time>
      </trkpt>
      <trkpt lat="44.16343" lon="0.75219">
        <ele>161</ele>
        <time>2024-04-11T14:00:31.000Z</time>
      </trkpt>
      <trkpt lat="44.16343" lon="0.75221">
        <ele>161</ele>
        <time>2024-04-11T14:00:32.000Z</time>
      </trkpt>
      <trkpt lat="44.16343" lon="0.75222">
        <ele>161</ele>
        <time>2024-04-11T14:00:33.000Z</time>
      </trkpt>
      <trkpt lat="44.16343" lon="0.75224">
        <ele>161</ele>
        <time>2024-04-11T14:00:34.000Z</time>
      </trkpt>
      <trkpt lat="44.16343" lon="0.75226">
        <ele>161</ele>
        <time>2024-04-11T14:00:35.000Z</time>
      </trkpt>
      <trkpt lat="44.16343" lon="0.75227">
        <ele>161</ele>
        <time>2024-04-11T14:00:36.000Z</time>
      </trkpt>
      <trkpt lat="44.16343" lon="0.75229">
        <ele>161</ele>
        <time>2024-04-11T14:00:37.000Z</time>
      </trkpt>
      <trkpt lat="44.16343" lon="0.7523">
        <ele>161</ele>
        <time>2024-04-11T14:00:38.000Z</time>
      </trkpt>
      <trkpt lat="44.16343" lon="0.75232">
        <ele>161</ele>
        <time>2024-04-11T14:00:39.000Z</time>
      </trkpt>
      <trkpt lat="44.16343" lon="0.75234">
        <ele>161</ele>
        <time>2024-04-11T14:00:40.000Z</time>
      </trkpt>
      <trkpt lat="44.16343" lon="0.75235">
        <ele>161</ele>
        <time>2024-04-11T14:00:41.000Z</time>
      </trkpt>
      <trkpt lat="44.16343" lon="0.75237">
        <ele>161</ele>
        <time>2024-04-11T14:00:42.000Z</time>
      </trkpt>
      <trkpt lat="44.16343" lon="0.75238">
        <ele>161</ele>
        <time>2024-04-11T14:00:43.000Z</time>
      </trkpt>
      <trkpt lat="44.16343" lon="0.7524">
        <ele>161</ele>
        <time>2024-04-11T14:00:44.000Z</time>
      </trkpt>
      <trkpt lat="44.16342" lon="0.75241">
        <ele>161</ele>
        <time>2024-04-11T14:00:45.000Z</time>
      </trkpt>
      <trkpt lat="44.16342" lon="0.75243">
        <ele>161</ele>
        <time>2024-04-11T14:00:46.000Z</time>
      </trkpt>
      <trkpt lat="44.16342" lon="0.75245">
        <ele>161</ele>
        <time>2024-04-11T14:00:47.000Z</time>
      </trkpt>
      <trkpt lat="44.16343" lon="0.75246">
        <ele>161</ele>
        <time>2024-04-11T14:00:48.000Z</time>
      </trkpt>
      <trkpt lat="44.16343" lon="0.75248">
        <ele>161</ele>
        <time>2024-04-11T14:00:49.000Z</time>
      </trkpt>
      <trkpt lat="44.16343" lon="0.75249">
        <ele>162</ele>
        <time>2024-04-11T14:00:50.000Z</time>
      </trkpt>
      <trkpt lat="44.16343" lon="0.75251">
        <ele>162</ele>
        <time>2024-04-11T14:00:51.000Z</time>
      </trkpt>
      <trkpt lat="44.16343" lon="0.75252">
        <ele>162</ele>
        <time>2024-04-11T14:00:52.000Z</time>
      </trkpt>
      <trkpt lat="44.16343" lon="0.75254">
        <ele>162</ele>
        <time>2024-04-11T14:00:53.000Z</time>
      </trkpt>
      <trkpt lat="44.16343" lon="0.75255">
        <ele>161</ele>
        <time>2024-04-11T14:00:54.000Z</time>
      </trkpt>
      <trkpt lat="44.16343" lon="0.75257">
        <ele>162</ele>
        <time>2024-04-11T14:00:55.000Z</time>
      </trkpt>
      <trkpt lat="44.16343" lon="0.75258">
        <ele>162</ele>
        <time>2024-04-11T14:00:56.000Z</time>
      </trkpt>
      <trkpt lat="44.16343" lon="0.7526">
        <ele>162</ele>
        <time>2024-04-11T14:00:57.000Z</time>
      </trkpt>
      <trkpt lat="44.16343" lon="0.75261">
        <ele>162</ele>
        <time>2024-04-11T14:00:58.000Z</time>
      </trkpt>
      <trkpt lat="44.16343" lon="0.75263">
        <ele>162</ele>
        <time>2024-04-11T14:00:59.000Z</time>
      </trkpt>
      <trkpt lat="44.16343" lon="0.75265">
        <ele>162</ele>
        <time>2024-04-11T14:01:00.000Z</time>
      </trkpt>
      <trkpt lat="44.16343" lon="0.75266">
        <ele>162</ele>
        <time>2024-04-11T14:01:01.000Z</time>
      </trkpt>
      <trkpt lat="44.16343" lon="0.75268">
        <ele>162</ele>
        <time>2024-04-11T14:01:02.000Z</time>
      </trkpt>
      <trkpt lat="44.16343" lon="0.7527">
        <ele>162</ele>
        <time>2024-04-11T14:01:03.000Z</time>
      </trkpt>
      <trkpt lat="44.16343" lon="0.75271">
        <ele>162</ele>
        <time>2024-04-11T14:01:04.000Z</time>
      </trkpt>
      <trkpt lat="44.16343" lon="0.75273">
        <ele>162</ele>
        <time>2024-04-11T14:01:05.000Z</time>
      </trkpt>
      <trkpt lat="44.16343" lon="0.75275">
        <ele>162</ele>
        <time>2024-04-11T14:01:06.000Z</time>
      </trkpt>
      <trkpt lat="44.16343" lon="0.75276">
        <ele>162</ele>
        <time>2024-04-11T14:01:07.000Z</time>
      </trkpt>
      <trkpt lat="44.16343" lon="0.75278">
        <ele>162</ele>
        <time>2024-04-11T14:01:08.000Z</time>
      </trkpt>
      <trkpt lat="44.16343" lon="0.7528">
        <ele>162</ele>
        <time>2024-04-11T14:01:09.000Z</time>
      </trkpt>
      <trkpt lat="44.16344" lon="0.75282">
        <ele>162</ele>
        <time>2024-04-11T14:01:10.000Z</time>
      </trkpt>
      <trkpt lat="44.16344" lon="0.75283">
        <ele>162</ele>
        <time>2024-04-11T14:01:11.000Z</time>
      </trkpt>
      <trkpt lat="44.16344" lon="0.75285">
        <ele>162</ele>
        <time>2024-04-11T14:01:12.000Z</time>
      </trkpt>
      <trkpt lat="44.16344" lon="0.75286">
        <ele>162</ele>
        <time>2024-04-11T14:01:13.000Z</time>
      </trkpt>
      <trkpt lat="44.16344" lon="0.75288">
        <ele>162</ele>
        <time>2024-04-11T14:01:14.000Z</time>
      </trkpt>
      <trkpt lat="44.16343" lon="0.75289">
        <ele>162</ele>
        <time>2024-04-11T14:01:15.000Z</time>
      </trkpt>
      <trkpt lat="44.16343" lon="0.75291">
        <ele>162</ele>
        <time>2024-04-11T14:01:16.000Z</time>
      </trkpt>
      <trkpt lat="44.16343" lon="0.75292">
        <ele>162</ele>
        <time>2024-04-11T14:01:17.000Z</time>
      </trkpt>
      <trkpt lat="44.16343" lon="0.75294">
        <ele>162</ele>
        <time>2024-04-11T14:01:18.000Z</time>
      </trkpt>
      <trkpt lat="44.16343" lon="0.75295">
        <ele>162</ele>
        <time>2024-04-11T14:01:19.000Z</time>
      </trkpt>
      <trkpt lat="44.16344" lon="0.75297">
        <ele>162</ele>
        <time>2024-04-11T14:01:20.000Z</time>
      </trkpt>
      <trkpt lat="44.16344" lon="0.75299">
        <ele>162</ele>
        <time>2024-04-11T14:01:21.000Z</time>
      </trkpt>
      <trkpt lat="44.16344" lon="0.753">
        <ele>162</ele>
        <time>2024-04-11T14:01:22.000Z</time>
      </trkpt>
      <trkpt lat="44.16343" lon="0.75302">
        <ele>161</ele>
        <time>2024-04-11T14:01:23.000Z</time>
      </trkpt>
      <trkpt lat="44.16343" lon="0.75303">
        <ele>161</ele>
        <time>2024-04-11T14:01:24.000Z</time>
      </trkpt>
      <trkpt lat="44.16343" lon="0.75305">
        <ele>161</ele>
        <time>2024-04-11T14:01:25.000Z</time>
      </trkpt>
      <trkpt lat="44.16343" lon="0.75307">
        <ele>161</ele>
        <time>2024-04-11T14:01:26.000Z</time>
      </trkpt>
      <trkpt lat="44.16343" lon="0.75308">
        <ele>161</ele>
        <time>2024-04-11T14:01:27.000Z</time>
      </trkpt>
      <trkpt lat="44.16343" lon="0.7531">
        <ele>161</ele>
        <time>2024-04-11T14:01:28.000Z</time>
      </trkpt>
      <trkpt lat="44.16343" lon="0.75311">
        <ele>161</ele>
        <time>2024-04-11T14:01:29.000Z</time>
      </trkpt>
      <trkpt lat="44.16343" lon="0.75313">
        <ele>161</ele>
        <time>2024-04-11T14:01:30.000Z</time>
      </trkpt>
      <trkpt lat="44.16343" lon="0.75315">
        <ele>160</ele>
        <time>2024-04-11T14:01:31.000Z</time>
      </trkpt>
      <trkpt lat="44.16343" lon="0.75317">
        <ele>160</ele>
        <time>2024-04-11T14:01:32.000Z</time>
      </trkpt>
      <trkpt lat="44.16343" lon="0.75318">
        <ele>160</ele>
        <time>2024-04-11T14:01:33.000Z</time>
      </trkpt>
      <trkpt lat="44.16343" lon="0.7532">
        <ele>160</ele>
        <time>2024-04-11T14:01:34.000Z</time>
      </trkpt>
      <trkpt lat="44.16343" lon="0.75322">
        <ele>160</ele>
        <time>2024-04-11T14:01:35.000Z</time>
      </trkpt>
      <trkpt lat="44.16343" lon="0.75323">
        <ele>160</ele>
        <time>2024-04-11T14:01:36.000Z</time>
      </trkpt>
      <trkpt lat="44.16343" lon="0.75325">
        <ele>160</ele>
        <time>2024-04-11T14:01:37.000Z</time>
      </trkpt>
      <trkpt lat="44.16343" lon="0.75327">
        <ele>160</ele>
        <time>2024-04-11T14:01:38.000Z</time>
      </trkpt>
      <trkpt lat="44.16343" lon="0.75328">
        <ele>160</ele>
        <time>2024-04-11T14:01:39.000Z</time>
      </trkpt>
      <trkpt lat="44.16343" lon="0.7533">
        <ele>161</ele>
        <time>2024-04-11T14:01:40.000Z</time>
      </trkpt>
      <trkpt lat="44.16343" lon="0.75332">
        <ele>161</ele>
        <time>2024-04-11T14:01:41.000Z</time>
      </trkpt>
      <trkpt lat="44.16343" lon="0.75333">
        <ele>161</ele>
        <time>2024-04-11T14:01:42.000Z</time>
      </trkpt>
      <trkpt lat="44.16342" lon="0.75335">
        <ele>161</ele>
        <time>2024-04-11T14:01:43.000Z</time>
      </trkpt>
      <trkpt lat="44.16342" lon="0.75336">
        <ele>162</ele>
        <time>2024-04-11T14:01:44.000Z</time>
      </trkpt>
      <trkpt lat="44.16342" lon="0.75338">
        <ele>162</ele>
        <time>2024-04-11T14:01:45.000Z</time>
      </trkpt>
      <trkpt lat="44.16342" lon="0.7534">
        <ele>161</ele>
        <time>2024-04-11T14:01:46.000Z</time>
      </trkpt>
      <trkpt lat="44.16342" lon="0.75341">
        <ele>161</ele>
        <time>2024-04-11T14:01:47.000Z</time>
      </trkpt>
      <trkpt lat="44.16342" lon="0.75343">
        <ele>161</ele>
        <time>2024-04-11T14:01:48.000Z</time>
      </trkpt>
      <trkpt lat="44.16342" lon="0.75344">
        <ele>161</ele>
        <time>2024-04-11T14:01:49.000Z</time>
      </trkpt>
      <trkpt lat="44.16342" lon="0.75346">
        <ele>161</ele>
        <time>2024-04-11T14:01:50.000Z</time>
      </trkpt>
      <trkpt lat="44.16342" lon="0.75348">
        <ele>161</ele>
        <time>2024-04-11T14:01:51.000Z</time>
      </trkpt>
      <trkpt lat="44.16342" lon="0.75349">
        <ele>160</ele>
        <time>2024-04-11T14:01:52.000Z</time>
      </trkpt>
      <trkpt lat="44.16342" lon="0.7535">
        <ele>161</ele>
        <time>2024-04-11T14:01:53.000Z</time>
      </trkpt>
      <trkpt lat="44.16341" lon="0.75352">
        <ele>161</ele>
        <time>2024-04-11T14:01:54.000Z</time>
      </trkpt>
      <trkpt lat="44.16341" lon="0.75353">
        <ele>160</ele>
        <time>2024-04-11T14:01:55.000Z</time>
      </trkpt>
      <trkpt lat="44.16341" lon="0.75355">
        <ele>161</ele>
        <time>2024-04-11T14:01:56.000Z</time>
      </trkpt>
      <trkpt lat="44.16341" lon="0.75357">
        <ele>160</ele>
        <time>2024-04-11T14:01:57.000Z</time>
      </trkpt>
      <trkpt lat="44.16341" lon="0.75358">
        <ele>160</ele>
        <time>2024-04-11T14:01:58.000Z</time>
      </trkpt>
      <trkpt lat="44.1634" lon="0.75359">
        <ele>161</ele>
        <time>2024-04-11T14:01:59.000Z</time>
      </trkpt>
      <trkpt lat="44.1634" lon="0.75361">
        <ele>161</ele>
        <time>2024-04-11T14:02:00.000Z</time>
      </trkpt>
      <trkpt lat="44.1634" lon="0.75362">
        <ele>160</ele>
        <time>2024-04-11T14:02:01.000Z</time>
      </trkpt>
      <trkpt lat="44.1634" lon="0.75364">
        <ele>160</ele>
        <time>2024-04-11T14:02:02.000Z</time>
      </trkpt>
      <trkpt lat="44.1634" lon="0.75366">
        <ele>161</ele>
        <time>2024-04-11T14:02:03.000Z</time>
      </trkpt>
      <trkpt lat="44.16339" lon="0.75367">
        <ele>160</ele>
        <time>2024-04-11T14:02:04.000Z</time>
      </trkpt>
      <trkpt lat="44.16339" lon="0.75369">
        <ele>160</ele>
        <time>2024-04-11T14:02:05.000Z</time>
      </trkpt>
      <trkpt lat="44.16339" lon="0.75371">
        <ele>161</ele>
        <time>2024-04-11T14:02:06.000Z</time>
      </trkpt>
      <trkpt lat="44.16339" lon="0.75372">
        <ele>161</ele>
        <time>2024-04-11T14:02:07.000Z</time>
      </trkpt>
      <trkpt lat="44.16339" lon="0.75374">
        <ele>161</ele>
        <time>2024-04-11T14:02:08.000Z</time>
      </trkpt>
      <trkpt lat="44.16339" lon="0.75375">
        <ele>161</ele>
        <time>2024-04-11T14:02:09.000Z</time>
      </trkpt>
      <trkpt lat="44.16339" lon="0.75377">
        <ele>161</ele>
        <time>2024-04-11T14:02:10.000Z</time>
      </trkpt>
      <trkpt lat="44.16339" lon="0.75378">
        <ele>161</ele>
        <time>2024-04-11T14:02:11.000Z</time>
      </trkpt>
      <trkpt lat="44.16338" lon="0.7538">
        <ele>161</ele>
        <time>2024-04-11T14:02:12.000Z</time>
      </trkpt>
      <trkpt lat="44.16338" lon="0.75382">
        <ele>160</ele>
        <time>2024-04-11T14:02:13.000Z</time>
      </trkpt>
      <trkpt lat="44.16338" lon="0.75383">
        <ele>160</ele>
        <time>2024-04-11T14:02:14.000Z</time>
      </trkpt>
      <trkpt lat="44.16338" lon="0.75385">
        <ele>160</ele>
        <time>2024-04-11T14:02:15.000Z</time>
      </trkpt>
      <trkpt lat="44.16338" lon="0.75387">
        <ele>160</ele>
        <time>2024-04-11T14:02:16.000Z</time>
      </trkpt>
      <trkpt lat="44.16338" lon="0.75388">
        <ele>161</ele>
        <time>2024-04-11T14:02:17.000Z</time>
      </trkpt>
      <trkpt lat="44.16338" lon="0.7539">
        <ele>160</ele>
        <time>2024-04-11T14:02:18.000Z</time>
      </trkpt>
      <trkpt lat="44.16337" lon="0.75391">
        <ele>161</ele>
        <time>2024-04-11T14:02:19.000Z</time>
      </trkpt>
      <trkpt lat="44.16337" lon="0.75393">
        <ele>161</ele>
        <time>2024-04-11T14:02:20.000Z</time>
      </trkpt>
      <trkpt lat="44.16337" lon="0.75394">
        <ele>160</ele>
        <time>2024-04-11T14:02:21.000Z</time>
      </trkpt>
      <trkpt lat="44.16337" lon="0.75396">
        <ele>160</ele>
        <time>2024-04-11T14:02:22.000Z</time>
      </trkpt>
      <trkpt lat="44.16337" lon="0.75397">
        <ele>160</ele>
        <time>2024-04-11T14:02:23.000Z</time>
      </trkpt>
      <trkpt lat="44.16337" lon="0.75399">
        <ele>160</ele>
        <time>2024-04-11T14:02:24.000Z</time>
      </trkpt>
      <trkpt lat="44.16336" lon="0.754">
        <ele>160</ele>
        <time>2024-04-11T14:02:25.000Z</time>
      </trkpt>
      <trkpt lat="44.16336" lon="0.75402">
        <ele>160</ele>
        <time>2024-04-11T14:02:26.000Z</time>
      </trkpt>
      <trkpt lat="44.16336" lon="0.75403">
        <ele>160</ele>
        <time>2024-04-11T14:02:27.000Z</time>
      </trkpt>
      <trkpt lat="44.16336" lon="0.75405">
        <ele>160</ele>
        <time>2024-04-11T14:02:28.000Z</time>
      </trkpt>
      <trkpt lat="44.16336" lon="0.75406">
        <ele>160</ele>
        <time>2024-04-11T14:02:29.000Z</time>
      </trkpt>
      <trkpt lat="44.16336" lon="0.75408">
        <ele>160</ele>
        <time>2024-04-11T14:02:30.000Z</time>
      </trkpt>
      <trkpt lat="44.16335" lon="0.75409">
        <ele>160</ele>
        <time>2024-04-11T14:02:31.000Z</time>
      </trkpt>
      <trkpt lat="44.16335" lon="0.75411">
        <ele>160</ele>
        <time>2024-04-11T14:02:32.000Z</time>
      </trkpt>
      <trkpt lat="44.16335" lon="0.75413">
        <ele>160</ele>
        <time>2024-04-11T14:02:33.000Z</time>
      </trkpt>
      <trkpt lat="44.16335" lon="0.75414">
        <ele>160</ele>
        <time>2024-04-11T14:02:34.000Z</time>
      </trkpt>
      <trkpt lat="44.16335" lon="0.75416">
        <ele>160</ele>
        <time>2024-04-11T14:02:35.000Z</time>
      </trkpt>
      <trkpt lat="44.16335" lon="0.75417">
        <ele>160</ele>
        <time>2024-04-11T14:02:36.000Z</time>
      </trkpt>
      <trkpt lat="44.16335" lon="0.75419">
        <ele>161</ele>
        <time>2024-04-11T14:02:37.000Z</time>
      </trkpt>
      <trkpt lat="44.16335" lon="0.75421">
        <ele>161</ele>
        <time>2024-04-11T14:02:38.000Z</time>
      </trkpt>
      <trkpt lat="44.16334" lon="0.75422">
        <ele>161</ele>
        <time>2024-04-11T14:02:39.000Z</time>
      </trkpt>
      <trkpt lat="44.16334" lon="0.75424">
        <ele>161</ele>
        <time>2024-04-11T14:02:40.000Z</time>
      </trkpt>
      <trkpt lat="44.16334" lon="0.75425">
        <ele>161</ele>
        <time>2024-04-11T14:02:41.000Z</time>
      </trkpt>
      <trkpt lat="44.16334" lon="0.75427">
        <ele>161</ele>
        <time>2024-04-11T14:02:42.000Z</time>
      </trkpt>
      <trkpt lat="44.16334" lon="0.75429">
        <ele>161</ele>
        <time>2024-04-11T14:02:43.000Z</time>
      </trkpt>
      <trkpt lat="44.16334" lon="0.7543">
        <ele>161</ele>
        <time>2024-04-11T14:02:44.000Z</time>
      </trkpt>
      <trkpt lat="44.16334" lon="0.75432">
        <ele>161</ele>
        <time>2024-04-11T14:02:45.000Z</time>
      </trkpt>
      <trkpt lat="44.16334" lon="0.75434">
        <ele>161</ele>
        <time>2024-04-11T14:02:46.000Z</time>
      </trkpt>
      <trkpt lat="44.16333" lon="0.75435">
        <ele>161</ele>
        <time>2024-04-11T14:02:47.000Z</time>
      </trkpt>
      <trkpt lat="44.16333" lon="0.75437">
        <ele>161</ele>
        <time>2024-04-11T14:02:48.000Z</time>
      </trkpt>
      <trkpt lat="44.16333" lon="0.75438">
        <ele>161</ele>
        <time>2024-04-11T14:02:49.000Z</time>
      </trkpt>
      <trkpt lat="44.16333" lon="0.7544">
        <ele>161</ele>
        <time>2024-04-11T14:02:50.000Z</time>
      </trkpt>
      <trkpt lat="44.16333" lon="0.75441">
        <ele>160</ele>
        <time>2024-04-11T14:02:51.000Z</time>
      </trkpt>
      <trkpt lat="44.16333" lon="0.75443">
        <ele>161</ele>
        <time>2024-04-11T14:02:52.000Z</time>
      </trkpt>
      <trkpt lat="44.16333" lon="0.75445">
        <ele>161</ele>
        <time>2024-04-11T14:02:53.000Z</time>
      </trkpt>
      <trkpt lat="44.16333" lon="0.75447">
        <ele>161</ele>
        <time>2024-04-11T14:02:54.000Z</time>
      </trkpt>
      <trkpt lat="44.16332" lon="0.75448">
        <ele>161</ele>
        <time>2024-04-11T14:02:55.000Z</time>
      </trkpt>
      <trkpt lat="44.16332" lon="0.7545">
        <ele>161</ele>
        <time>2024-04-11T14:02:56.000Z</time>
      </trkpt>
      <trkpt lat="44.16332" lon="0.75452">
        <ele>161</ele>
        <time>2024-04-11T14:02:57.000Z</time>
      </trkpt>
      <trkpt lat="44.16332" lon="0.75454">
        <ele>161</ele>
        <time>2024-04-11T14:02:58.000Z</time>
      </trkpt>
      <trkpt lat="44.16332" lon="0.75455">
        <ele>161</ele>
        <time>2024-04-11T14:02:59.000Z</time>
      </trkpt>
      <trkpt lat="44.16332" lon="0.75457">
        <ele>161</ele>
        <time>2024-04-11T14:03:00.000Z</time>
      </trkpt>
      <trkpt lat="44.16332" lon="0.75458">
        <ele>161</ele>
        <time>2024-04-11T14:03:01.000Z</time>
      </trkpt>
      <trkpt lat="44.16331" lon="0.7546">
        <ele>161</ele>
        <time>2024-04-11T14:03:02.000Z</time>
      </trkpt>
      <trkpt lat="44.16331" lon="0.75461">
        <ele>162</ele>
        <time>2024-04-11T14:03:03.000Z</time>
      </trkpt>
      <trkpt lat="44.16331" lon="0.75463">
        <ele>161</ele>
        <time>2024-04-11T14:03:04.000Z</time>
      </trkpt>
      <trkpt lat="44.16331" lon="0.75464">
        <ele>161</ele>
        <time>2024-04-11T14:03:05.000Z</time>
      </trkpt>
      <trkpt lat="44.16331" lon="0.75466">
        <ele>161</ele>
        <time>2024-04-11T14:03:06.000Z</time>
      </trkpt>
      <trkpt lat="44.16331" lon="0.75468">
        <ele>161</ele>
        <time>2024-04-11T14:03:07.000Z</time>
      </trkpt>
      <trkpt lat="44.16331" lon="0.75469">
        <ele>161</ele>
        <time>2024-04-11T14:03:08.000Z</time>
      </trkpt>
      <trkpt lat="44.16331" lon="0.75471">
        <ele>161</ele>
        <time>2024-04-11T14:03:09.000Z</time>
      </trkpt>
      <trkpt lat="44.1633" lon="0.75473">
        <ele>161</ele>
        <time>2024-04-11T14:03:10.000Z</time>
      </trkpt>
      <trkpt lat="44.1633" lon="0.75474">
        <ele>161</ele>
        <time>2024-04-11T14:03:11.000Z</time>
      </trkpt>
      <trkpt lat="44.1633" lon="0.75476">
        <ele>161</ele>
        <time>2024-04-11T14:03:12.000Z</time>
      </trkpt>
      <trkpt lat="44.1633" lon="0.75477">
        <ele>162</ele>
        <time>2024-04-11T14:03:13.000Z</time>
      </trkpt>
      <trkpt lat="44.1633" lon="0.75479">
        <ele>162</ele>
        <time>2024-04-11T14:03:14.000Z</time>
      </trkpt>
      <trkpt lat="44.1633" lon="0.7548">
        <ele>161</ele>
        <time>2024-04-11T14:03:15.000Z</time>
      </trkpt>
      <trkpt lat="44.16329" lon="0.75482">
        <ele>162</ele>
        <time>2024-04-11T14:03:16.000Z</time>
      </trkpt>
      <trkpt lat="44.16329" lon="0.75483">
        <ele>161</ele>
        <time>2024-04-11T14:03:17.000Z</time>
      </trkpt>
      <trkpt lat="44.16329" lon="0.75485">
        <ele>161</ele>
        <time>2024-04-11T14:03:18.000Z</time>
      </trkpt>
      <trkpt lat="44.16329" lon="0.75487">
        <ele>161</ele>
        <time>2024-04-11T14:03:19.000Z</time>
      </trkpt>
      <trkpt lat="44.16329" lon="0.75488">
        <ele>161</ele>
        <time>2024-04-11T14:03:20.000Z</time>
      </trkpt>
      <trkpt lat="44.16329" lon="0.7549">
        <ele>162</ele>
        <time>2024-04-11T14:03:21.000Z</time>
      </trkpt>
      <trkpt lat="44.16328" lon="0.75491">
        <ele>162</ele>
        <time>2024-04-11T14:03:22.000Z</time>
      </trkpt>
      <trkpt lat="44.16328" lon="0.75493">
        <ele>161</ele>
        <time>2024-04-11T14:03:23.000Z</time>
      </trkpt>
      <trkpt lat="44.16328" lon="0.75495">
        <ele>161</ele>
        <time>2024-04-11T14:03:24.000Z</time>
      </trkpt>
      <trkpt lat="44.16328" lon="0.75496">
        <ele>161</ele>
        <time>2024-04-11T14:03:25.000Z</time>
      </trkpt>
      <trkpt lat="44.16327" lon="0.75498">
        <ele>161</ele>
        <time>2024-04-11T14:03:26.000Z</time>
      </trkpt>
      <trkpt lat="44.16327" lon="0.755">
        <ele>161</ele>
        <time>2024-04-11T14:03:27.000Z</time>
      </trkpt>
      <trkpt lat="44.16327" lon="0.75501">
        <ele>161</ele>
        <time>2024-04-11T14:03:28.000Z</time>
      </trkpt>
      <trkpt lat="44.16326" lon="0.75503">
        <ele>161</ele>
        <time>2024-04-11T14:03:29.000Z</time>
      </trkpt>
      <trkpt lat="44.16326" lon="0.75504">
        <ele>161</ele>
        <time>2024-04-11T14:03:30.000Z</time>
      </trkpt>
      <trkpt lat="44.16326" lon="0.75506">
        <ele>161</ele>
        <time>2024-04-11T14:03:31.000Z</time>
      </trkpt>
      <trkpt lat="44.16325" lon="0.75508">
        <ele>161</ele>
        <time>2024-04-11T14:03:32.000Z</time>
      </trkpt>
      <trkpt lat="44.16325" lon="0.75509">
        <ele>161</ele>
        <time>2024-04-11T14:03:33.000Z</time>
      </trkpt>
      <trkpt lat="44.16325" lon="0.75511">
        <ele>161</ele>
        <time>2024-04-11T14:03:34.000Z</time>
      </trkpt>
      <trkpt lat="44.16324" lon="0.75513">
        <ele>161</ele>
        <time>2024-04-11T14:03:35.000Z</time>
      </trkpt>
      <trkpt lat="44.16324" lon="0.75514">
        <ele>161</ele>
        <time>2024-04-11T14:03:36.000Z</time>
      </trkpt>
      <trkpt lat="44.16324" lon="0.75516">
        <ele>161</ele>
        <time>2024-04-11T14:03:37.000Z</time>
      </trkpt>
      <trkpt lat="44.16323" lon="0.75518">
        <ele>161</ele>
        <time>2024-04-11T14:03:38.000Z</time>
      </trkpt>
      <trkpt lat="44.16323" lon="0.75519">
        <ele>161</ele>
        <time>2024-04-11T14:03:39.000Z</time>
      </trkpt>
      <trkpt lat="44.16323" lon="0.75521">
        <ele>161</ele>
        <time>2024-04-11T14:03:40.000Z</time>
      </trkpt>
      <trkpt lat="44.16323" lon="0.75522">
        <ele>161</ele>
        <time>2024-04-11T14:03:41.000Z</time>
      </trkpt>
      <trkpt lat="44.16322" lon="0.75524">
        <ele>160</ele>
        <time>2024-04-11T14:03:42.000Z</time>
      </trkpt>
      <trkpt lat="44.16322" lon="0.75526">
        <ele>160</ele>
        <time>2024-04-11T14:03:43.000Z</time>
      </trkpt>
      <trkpt lat="44.16322" lon="0.75527">
        <ele>160</ele>
        <time>2024-04-11T14:03:44.000Z</time>
      </trkpt>
      <trkpt lat="44.16322" lon="0.75529">
        <ele>160</ele>
        <time>2024-04-11T14:03:45.000Z</time>
      </trkpt>
      <trkpt lat="44.16322" lon="0.7553">
        <ele>160</ele>
        <time>2024-04-11T14:03:46.000Z</time>
      </trkpt>
      <trkpt lat="44.16321" lon="0.75532">
        <ele>160</ele>
        <time>2024-04-11T14:03:47.000Z</time>
      </trkpt>
      <trkpt lat="44.16321" lon="0.75534">
        <ele>160</ele>
        <time>2024-04-11T14:03:48.000Z</time>
      </trkpt>
      <trkpt lat="44.16321" lon="0.75535">
        <ele>160</ele>
        <time>2024-04-11T14:03:49.000Z</time>
      </trkpt>
      <trkpt lat="44.16321" lon="0.75537">
        <ele>160</ele>
        <time>2024-04-11T14:03:50.000Z</time>
      </trkpt>
      <trkpt lat="44.16321" lon="0.75538">
        <ele>160</ele>
        <time>2024-04-11T14:03:51.000Z</time>
      </trkpt>
      <trkpt lat="44.1632" lon="0.75539">
        <ele>160</ele>
        <time>2024-04-11T14:03:52.000Z</time>
      </trkpt>
      <trkpt lat="44.1632" lon="0.75541">
        <ele>160</ele>
        <time>2024-04-11T14:03:53.000Z</time>
      </trkpt>
      <trkpt lat="44.1632" lon="0.75542">
        <ele>160</ele>
        <time>2024-04-11T14:03:54.000Z</time>
      </trkpt>
      <trkpt lat="44.1632" lon="0.75544">
        <ele>160</ele>
        <time>2024-04-11T14:03:55.000Z</time>
      </trkpt>
      <trkpt lat="44.16319" lon="0.75545">
        <ele>160</ele>
        <time>2024-04-11T14:03:56.000Z</time>
      </trkpt>
      <trkpt lat="44.16319" lon="0.75547">
        <ele>160</ele>
        <time>2024-04-11T14:03:57.000Z</time>
      </trkpt>
      <trkpt lat="44.16319" lon="0.75549">
        <ele>160</ele>
        <time>2024-04-11T14:03:58.000Z</time>
      </trkpt>
      <trkpt lat="44.16319" lon="0.7555">
        <ele>160</ele>
        <time>2024-04-11T14:03:59.000Z</time>
      </trkpt>
      <trkpt lat="44.16319" lon="0.75552">
        <ele>160</ele>
        <time>2024-04-11T14:04:00.000Z</time>
      </trkpt>
      <trkpt lat="44.16319" lon="0.75553">
        <ele>160</ele>
        <time>2024-04-11T14:04:01.000Z</time>
      </trkpt>
      <trkpt lat="44.16318" lon="0.75555">
        <ele>160</ele>
        <time>2024-04-11T14:04:02.000Z</time>
      </trkpt>
      <trkpt lat="44.16318" lon="0.75556">
        <ele>160</ele>
        <time>2024-04-11T14:04:03.000Z</time>
      </trkpt>
      <trkpt lat="44.16318" lon="0.75558">
        <ele>160</ele>
        <time>2024-04-11T14:04:04.000Z</time>
      </trkpt>
      <trkpt lat="44.16317" lon="0.75559">
        <ele>160</ele>
        <time>2024-04-11T14:04:05.000Z</time>
      </trkpt>
      <trkpt lat="44.16317" lon="0.75561">
        <ele>160</ele>
        <time>2024-04-11T14:04:06.000Z</time>
      </trkpt>
      <trkpt lat="44.16317" lon="0.75562">
        <ele>160</ele>
        <time>2024-04-11T14:04:07.000Z</time>
      </trkpt>
      <trkpt lat="44.16317" lon="0.75564">
        <ele>160</ele>
        <time>2024-04-11T14:04:08.000Z</time>
      </trkpt>
      <trkpt lat="44.16317" lon="0.75566">
        <ele>160</ele>
        <time>2024-04-11T14:04:09.000Z</time>
      </trkpt>
      <trkpt lat="44.16317" lon="0.75567">
        <ele>160</ele>
        <time>2024-04-11T14:04:10.000Z</time>
      </trkpt>
      <trkpt lat="44.16316" lon="0.75569">
        <ele>160</ele>
        <time>2024-04-11T14:04:11.000Z</time>
      </trkpt>
      <trkpt lat="44.16316" lon="0.7557">
        <ele>159</ele>
        <time>2024-04-11T14:04:12.000Z</time>
      </trkpt>
      <trkpt lat="44.16316" lon="0.75572">
        <ele>159</ele>
        <time>2024-04-11T14:04:13.000Z</time>
      </trkpt>
      <trkpt lat="44.16316" lon="0.75574">
        <ele>159</ele>
        <time>2024-04-11T14:04:14.000Z</time>
      </trkpt>
      <trkpt lat="44.16316" lon="0.75575">
        <ele>159</ele>
        <time>2024-04-11T14:04:15.000Z</time>
      </trkpt>
      <trkpt lat="44.16315" lon="0.75577">
        <ele>159</ele>
        <time>2024-04-11T14:04:16.000Z</time>
      </trkpt>
      <trkpt lat="44.16315" lon="0.75579">
        <ele>159</ele>
        <time>2024-04-11T14:04:17.000Z</time>
      </trkpt>
      <trkpt lat="44.16315" lon="0.75581">
        <ele>158</ele>
        <time>2024-04-11T14:04:18.000Z</time>
      </trkpt>
      <trkpt lat="44.16315" lon="0.75582">
        <ele>158</ele>
        <time>2024-04-11T14:04:19.000Z</time>
      </trkpt>
      <trkpt lat="44.16314" lon="0.75584">
        <ele>158</ele>
        <time>2024-04-11T14:04:20.000Z</time>
      </trkpt>
      <trkpt lat="44.16314" lon="0.75586">
        <ele>158</ele>
        <time>2024-04-11T14:04:21.000Z</time>
      </trkpt>
      <trkpt lat="44.16314" lon="0.75588">
        <ele>158</ele>
        <time>2024-04-11T14:04:22.000Z</time>
      </trkpt>
      <trkpt lat="44.16314" lon="0.75589">
        <ele>158</ele>
        <time>2024-04-11T14:04:23.000Z</time>
      </trkpt>
      <trkpt lat="44.16313" lon="0.7559">
        <ele>158</ele>
        <time>2024-04-11T14:04:24.000Z</time>
      </trkpt>
      <trkpt lat="44.16313" lon="0.75592">
        <ele>158</ele>
        <time>2024-04-11T14:04:25.000Z</time>
      </trkpt>
      <trkpt lat="44.16313" lon="0.75593">
        <ele>157</ele>
        <time>2024-04-11T14:04:26.000Z</time>
      </trkpt>
      <trkpt lat="44.16313" lon="0.75595">
        <ele>157</ele>
        <time>2024-04-11T14:04:27.000Z</time>
      </trkpt>
      <trkpt lat="44.16312" lon="0.75596">
        <ele>157</ele>
        <time>2024-04-11T14:04:28.000Z</time>
      </trkpt>
      <trkpt lat="44.16312" lon="0.75598">
        <ele>157</ele>
        <time>2024-04-11T14:04:29.000Z</time>
      </trkpt>
      <trkpt lat="44.16312" lon="0.75599">
        <ele>157</ele>
        <time>2024-04-11T14:04:30.000Z</time>
      </trkpt>
      <trkpt lat="44.16311" lon="0.75601">
        <ele>157</ele>
        <time>2024-04-11T14:04:31.000Z</time>
      </trkpt>
      <trkpt lat="44.16311" lon="0.75602">
        <ele>157</ele>
        <time>2024-04-11T14:04:32.000Z</time>
      </trkpt>
      <trkpt lat="44.16311" lon="0.75604">
        <ele>157</ele>
        <time>2024-04-11T14:04:33.000Z</time>
      </trkpt>
      <trkpt lat="44.16311" lon="0.75606">
        <ele>157</ele>
        <time>2024-04-11T14:04:34.000Z</time>
      </trkpt>
      <trkpt lat="44.16311" lon="0.75607">
        <ele>157</ele>
        <time>2024-04-11T14:04:35.000Z</time>
      </trkpt>
      <trkpt lat="44.1631" lon="0.75609">
        <ele>157</ele>
        <time>2024-04-11T14:04:36.000Z</time>
      </trkpt>
      <trkpt lat="44.1631" lon="0.7561">
        <ele>157</ele>
        <time>2024-04-11T14:04:37.000Z</time>
      </trkpt>
      <trkpt lat="44.1631" lon="0.75612">
        <ele>157</ele>
        <time>2024-04-11T14:04:38.000Z</time>
      </trkpt>
      <trkpt lat="44.16309" lon="0.75614">
        <ele>157</ele>
        <time>2024-04-11T14:04:39.000Z</time>
      </trkpt>
      <trkpt lat="44.16309" lon="0.75615">
        <ele>158</ele>
        <time>2024-04-11T14:04:40.000Z</time>
      </trkpt>
      <trkpt lat="44.16309" lon="0.75617">
        <ele>158</ele>
        <time>2024-04-11T14:04:41.000Z</time>
      </trkpt>
      <trkpt lat="44.16309" lon="0.75619">
        <ele>158</ele>
        <time>2024-04-11T14:04:42.000Z</time>
      </trkpt>
      <trkpt lat="44.16308" lon="0.7562">
        <ele>158</ele>
        <time>2024-04-11T14:04:43.000Z</time>
      </trkpt>
      <trkpt lat="44.16308" lon="0.75622">
        <ele>158</ele>
        <time>2024-04-11T14:04:44.000Z</time>
      </trkpt>
      <trkpt lat="44.16308" lon="0.75623">
        <ele>158</ele>
        <time>2024-04-11T14:04:45.000Z</time>
      </trkpt>
      <trkpt lat="44.16307" lon="0.75624">
        <ele>158</ele>
        <time>2024-04-11T14:04:46.000Z</time>
      </trkpt>
      <trkpt lat="44.16307" lon="0.75626">
        <ele>158</ele>
        <time>2024-04-11T14:04:47.000Z</time>
      </trkpt>
      <trkpt lat="44.16307" lon="0.75627">
        <ele>158</ele>
        <time>2024-04-11T14:04:48.000Z</time>
      </trkpt>
      <trkpt lat="44.16307" lon="0.75629">
        <ele>158</ele>
        <time>2024-04-11T14:04:49.000Z</time>
      </trkpt>
      <trkpt lat="44.16306" lon="0.75631">
        <ele>159</ele>
        <time>2024-04-11T14:04:50.000Z</time>
      </trkpt>
      <trkpt lat="44.16306" lon="0.75632">
        <ele>159</ele>
        <time>2024-04-11T14:04:51.000Z</time>
      </trkpt>
      <trkpt lat="44.16306" lon="0.75634">
        <ele>159</ele>
        <time>2024-04-11T14:04:52.000Z</time>
      </trkpt>
      <trkpt lat="44.16305" lon="0.75635">
        <ele>159</ele>
        <time>2024-04-11T14:04:53.000Z</time>
      </trkpt>
      <trkpt lat="44.16305" lon="0.75637">
        <ele>159</ele>
        <time>2024-04-11T14:04:54.000Z</time>
      </trkpt>
      <trkpt lat="44.16305" lon="0.75638">
        <ele>159</ele>
        <time>2024-04-11T14:04:55.000Z</time>
      </trkpt>
      <trkpt lat="44.16304" lon="0.7564">
        <ele>159</ele>
        <time>2024-04-11T14:04:56.000Z</time>
      </trkpt>
      <trkpt lat="44.16304" lon="0.75642">
        <ele>159</ele>
        <time>2024-04-11T14:04:57.000Z</time>
      </trkpt>
      <trkpt lat="44.16304" lon="0.75643">
        <ele>159</ele>
        <time>2024-04-11T14:04:58.000Z</time>
      </trkpt>
      <trkpt lat="44.16303" lon="0.75644">
        <ele>159</ele>
        <time>2024-04-11T14:04:59.000Z</time>
      </trkpt>
      <trkpt lat="44.16303" lon="0.75646">
        <ele>159</ele>
        <time>2024-04-11T14:05:00.000Z</time>
      </trkpt>
      <trkpt lat="44.16302" lon="0.75647">
        <ele>159</ele>
        <time>2024-04-11T14:05:01.000Z</time>
      </trkpt>
      <trkpt lat="44.16302" lon="0.75649">
        <ele>159</ele>
        <time>2024-04-11T14:05:02.000Z</time>
      </trkpt>
      <trkpt lat="44.16302" lon="0.7565">
        <ele>160</ele>
        <time>2024-04-11T14:05:03.000Z</time>
      </trkpt>
      <trkpt lat="44.16301" lon="0.75651">
        <ele>160</ele>
        <time>2024-04-11T14:05:04.000Z</time>
      </trkpt>
      <trkpt lat="44.16301" lon="0.75653">
        <ele>160</ele>
        <time>2024-04-11T14:05:05.000Z</time>
      </trkpt>
      <trkpt lat="44.163" lon="0.75654">
        <ele>160</ele>
        <time>2024-04-11T14:05:06.000Z</time>
      </trkpt>
      <trkpt lat="44.163" lon="0.75656">
        <ele>160</ele>
        <time>2024-04-11T14:05:07.000Z</time>
      </trkpt>
      <trkpt lat="44.163" lon="0.75657">
        <ele>159</ele>
        <time>2024-04-11T14:05:08.000Z</time>
      </trkpt>
      <trkpt lat="44.16299" lon="0.75659">
        <ele>160</ele>
        <time>2024-04-11T14:05:09.000Z</time>
      </trkpt>
      <trkpt lat="44.16299" lon="0.7566">
        <ele>159</ele>
        <time>2024-04-11T14:05:10.000Z</time>
      </trkpt>
      <trkpt lat="44.16299" lon="0.75661">
        <ele>160</ele>
        <time>2024-04-11T14:05:11.000Z</time>
      </trkpt>
      <trkpt lat="44.16298" lon="0.75663">
        <ele>160</ele>
        <time>2024-04-11T14:05:12.000Z</time>
      </trkpt>
      <trkpt lat="44.16298" lon="0.75664">
        <ele>160</ele>
        <time>2024-04-11T14:05:13.000Z</time>
      </trkpt>
      <trkpt lat="44.16298" lon="0.75666">
        <ele>160</ele>
        <time>2024-04-11T14:05:14.000Z</time>
      </trkpt>
      <trkpt lat="44.16297" lon="0.75667">
        <ele>160</ele>
        <time>2024-04-11T14:05:15.000Z</time>
      </trkpt>
      <trkpt lat="44.16297" lon="0.75668">
        <ele>160</ele>
        <time>2024-04-11T14:05:16.000Z</time>
      </trkpt>
      <trkpt lat="44.16297" lon="0.7567">
        <ele>160</ele>
        <time>2024-04-11T14:05:17.000Z</time>
      </trkpt>
      <trkpt lat="44.16296" lon="0.75671">
        <ele>160</ele>
        <time>2024-04-11T14:05:18.000Z</time>
      </trkpt>
      <trkpt lat="44.16296" lon="0.75673">
        <ele>160</ele>
        <time>2024-04-11T14:05:19.000Z</time>
      </trkpt>
      <trkpt lat="44.16296" lon="0.75674">
        <ele>160</ele>
        <time>2024-04-11T14:05:20.000Z</time>
      </trkpt>
      <trkpt lat="44.16295" lon="0.75675">
        <ele>160</ele>
        <time>2024-04-11T14:05:21.000Z</time>
      </trkpt>
      <trkpt lat="44.16295" lon="0.75677">
        <ele>160</ele>
        <time>2024-04-11T14:05:22.000Z</time>
      </trkpt>
      <trkpt lat="44.16294" lon="0.75678">
        <ele>160</ele>
        <time>2024-04-11T14:05:23.000Z</time>
      </trkpt>
      <trkpt lat="44.16294" lon="0.75679">
        <ele>160</ele>
        <time>2024-04-11T14:05:24.000Z</time>
      </trkpt>
      <trkpt lat="44.16293" lon="0.75681">
        <ele>160</ele>
        <time>2024-04-11T14:05:25.000Z</time>
      </trkpt>
      <trkpt lat="44.16293" lon="0.75682">
        <ele>160</ele>
        <time>2024-04-11T14:05:26.000Z</time>
      </trkpt>
      <trkpt lat="44.16293" lon="0.75683">
        <ele>161</ele>
        <time>2024-04-11T14:05:27.000Z</time>
      </trkpt>
      <trkpt lat="44.16292" lon="0.75685">
        <ele>161</ele>
        <time>2024-04-11T14:05:28.000Z</time>
      </trkpt>
      <trkpt lat="44.16292" lon="0.75686">
        <ele>161</ele>
        <time>2024-04-11T14:05:29.000Z</time>
      </trkpt>
      <trkpt lat="44.16291" lon="0.75688">
        <ele>161</ele>
        <time>2024-04-11T14:05:30.000Z</time>
      </trkpt>
      <trkpt lat="44.16291" lon="0.75689">
        <ele>161</ele>
        <time>2024-04-11T14:05:31.000Z</time>
      </trkpt>
      <trkpt lat="44.1629" lon="0.75691">
        <ele>161</ele>
        <time>2024-04-11T14:05:32.000Z</time>
      </trkpt>
      <trkpt lat="44.1629" lon="0.75692">
        <ele>161</ele>
        <time>2024-04-11T14:05:33.000Z</time>
      </trkpt>
      <trkpt lat="44.1629" lon="0.75693">
        <ele>161</ele>
        <time>2024-04-11T14:05:34.000Z</time>
      </trkpt>
      <trkpt lat="44.16289" lon="0.75695">
        <ele>161</ele>
        <time>2024-04-11T14:05:35.000Z</time>
      </trkpt>
      <trkpt lat="44.16289" lon="0.75696">
        <ele>161</ele>
        <time>2024-04-11T14:05:36.000Z</time>
      </trkpt>
      <trkpt lat="44.16288" lon="0.75698">
        <ele>161</ele>
        <time>2024-04-11T14:05:37.000Z</time>
      </trkpt>
      <trkpt lat="44.16288" lon="0.75699">
        <ele>161</ele>
        <time>2024-04-11T14:05:38.000Z</time>
      </trkpt>
      <trkpt lat="44.16287" lon="0.75701">
        <ele>161</ele>
        <time>2024-04-11T14:05:39.000Z</time>
      </trkpt>
      <trkpt lat="44.16287" lon="0.75702">
        <ele>161</ele>
        <time>2024-04-11T14:05:40.000Z</time>
      </trkpt>
      <trkpt lat="44.16286" lon="0.75704">
        <ele>161</ele>
        <time>2024-04-11T14:05:41.000Z</time>
      </trkpt>
      <trkpt lat="44.16286" lon="0.75706">
        <ele>161</ele>
        <time>2024-04-11T14:05:42.000Z</time>
      </trkpt>
      <trkpt lat="44.16285" lon="0.75707">
        <ele>161</ele>
        <time>2024-04-11T14:05:43.000Z</time>
      </trkpt>
      <trkpt lat="44.16285" lon="0.75708">
        <ele>161</ele>
        <time>2024-04-11T14:05:44.000Z</time>
      </trkpt>
      <trkpt lat="44.16284" lon="0.7571">
        <ele>161</ele>
        <time>2024-04-11T14:05:45.000Z</time>
      </trkpt>
      <trkpt lat="44.16284" lon="0.75711">
        <ele>161</ele>
        <time>2024-04-11T14:05:46.000Z</time>
      </trkpt>
      <trkpt lat="44.16283" lon="0.75713">
        <ele>162</ele>
        <time>2024-04-11T14:05:47.000Z</time>
      </trkpt>
      <trkpt lat="44.16283" lon="0.75714">
        <ele>161</ele>
        <time>2024-04-11T14:05:48.000Z</time>
      </trkpt>
      <trkpt lat="44.16282" lon="0.75715">
        <ele>162</ele>
        <time>2024-04-11T14:05:49.000Z</time>
      </trkpt>
      <trkpt lat="44.16281" lon="0.75717">
        <ele>162</ele>
        <time>2024-04-11T14:05:50.000Z</time>
      </trkpt>
      <trkpt lat="44.16281" lon="0.75718">
        <ele>162</ele>
        <time>2024-04-11T14:05:51.000Z</time>
      </trkpt>
      <trkpt lat="44.1628" lon="0.75719">
        <ele>162</ele>
        <time>2024-04-11T14:05:52.000Z</time>
      </trkpt>
      <trkpt lat="44.1628" lon="0.7572">
        <ele>162</ele>
        <time>2024-04-11T14:05:53.000Z</time>
      </trkpt>
      <trkpt lat="44.16279" lon="0.75722">
        <ele>162</ele>
        <time>2024-04-11T14:05:54.000Z</time>
      </trkpt>
      <trkpt lat="44.16278" lon="0.75723">
        <ele>162</ele>
        <time>2024-04-11T14:05:55.000Z</time>
      </trkpt>
      <trkpt lat="44.16278" lon="0.75724">
        <ele>162</ele>
        <time>2024-04-11T14:05:56.000Z</time>
      </trkpt>
      <trkpt lat="44.16277" lon="0.75726">
        <ele>162</ele>
        <time>2024-04-11T14:05:57.000Z</time>
      </trkpt>
      <trkpt lat="44.16276" lon="0.75727">
        <ele>162</ele>
        <time>2024-04-11T14:05:58.000Z</time>
      </trkpt>
      <trkpt lat="44.16276" lon="0.75728">
        <ele>162</ele>
        <time>2024-04-11T14:05:59.000Z</time>
      </trkpt>
      <trkpt lat="44.16275" lon="0.7573">
        <ele>163</ele>
        <time>2024-04-11T14:06:00.000Z</time>
      </trkpt>
      <trkpt lat="44.16274" lon="0.75731">
        <ele>163</ele>
        <time>2024-04-11T14:06:01.000Z</time>
      </trkpt>
      <trkpt lat="44.16274" lon="0.75732">
        <ele>163</ele>
        <time>2024-04-11T14:06:02.000Z</time>
      </trkpt>
      <trkpt lat="44.16273" lon="0.75733">
        <ele>163</ele>
        <time>2024-04-11T14:06:03.000Z</time>
      </trkpt>
      <trkpt lat="44.16272" lon="0.75734">
        <ele>163</ele>
        <time>2024-04-11T14:06:04.000Z</time>
      </trkpt>
      <trkpt lat="44.16271" lon="0.75735">
        <ele>163</ele>
        <time>2024-04-11T14:06:05.000Z</time>
      </trkpt>
      <trkpt lat="44.16271" lon="0.75736">
        <ele>163</ele>
        <time>2024-04-11T14:06:06.000Z</time>
      </trkpt>
      <trkpt lat="44.1627" lon="0.75737">
        <ele>163</ele>
        <time>2024-04-11T14:06:07.000Z</time>
      </trkpt>
      <trkpt lat="44.16269" lon="0.75739">
        <ele>163</ele>
        <time>2024-04-11T14:06:08.000Z</time>
      </trkpt>
      <trkpt lat="44.16269" lon="0.7574">
        <ele>163</ele>
        <time>2024-04-11T14:06:09.000Z</time>
      </trkpt>
      <trkpt lat="44.16268" lon="0.75741">
        <ele>163</ele>
        <time>2024-04-11T14:06:10.000Z</time>
      </trkpt>
      <trkpt lat="44.16267" lon="0.75742">
        <ele>163</ele>
        <time>2024-04-11T14:06:11.000Z</time>
      </trkpt>
      <trkpt lat="44.16267" lon="0.75744">
        <ele>163</ele>
        <time>2024-04-11T14:06:12.000Z</time>
      </trkpt>
      <trkpt lat="44.16266" lon="0.75745">
        <ele>163</ele>
        <time>2024-04-11T14:06:13.000Z</time>
      </trkpt>
      <trkpt lat="44.16265" lon="0.75746">
        <ele>163</ele>
        <time>2024-04-11T14:06:14.000Z</time>
      </trkpt>
      <trkpt lat="44.16265" lon="0.75747">
        <ele>163</ele>
        <time>2024-04-11T14:06:15.000Z</time>
      </trkpt>
      <trkpt lat="44.16264" lon="0.75748">
        <ele>164</ele>
        <time>2024-04-11T14:06:16.000Z</time>
      </trkpt>
      <trkpt lat="44.16263" lon="0.7575">
        <ele>164</ele>
        <time>2024-04-11T14:06:17.000Z</time>
      </trkpt>
      <trkpt lat="44.16263" lon="0.75751">
        <ele>164</ele>
        <time>2024-04-11T14:06:18.000Z</time>
      </trkpt>
      <trkpt lat="44.16262" lon="0.75752">
        <ele>164</ele>
        <time>2024-04-11T14:06:19.000Z</time>
      </trkpt>
      <trkpt lat="44.16262" lon="0.75753">
        <ele>164</ele>
        <time>2024-04-11T14:06:20.000Z</time>
      </trkpt>
      <trkpt lat="44.16261" lon="0.75755">
        <ele>164</ele>
        <time>2024-04-11T14:06:21.000Z</time>
      </trkpt>
      <trkpt lat="44.16261" lon="0.75756">
        <ele>164</ele>
        <time>2024-04-11T14:06:22.000Z</time>
      </trkpt>
      <trkpt lat="44.1626" lon="0.75758">
        <ele>164</ele>
        <time>2024-04-11T14:06:23.000Z</time>
      </trkpt>
      <trkpt lat="44.1626" lon="0.75759">
        <ele>164</ele>
        <time>2024-04-11T14:06:24.000Z</time>
      </trkpt>
      <trkpt lat="44.1626" lon="0.75761">
        <ele>164</ele>
        <time>2024-04-11T14:06:25.000Z</time>
      </trkpt>
      <trkpt lat="44.16259" lon="0.75762">
        <ele>164</ele>
        <time>2024-04-11T14:06:26.000Z</time>
      </trkpt>
      <trkpt lat="44.16259" lon="0.75764">
        <ele>164</ele>
        <time>2024-04-11T14:06:27.000Z</time>
      </trkpt>
      <trkpt lat="44.16259" lon="0.75765">
        <ele>164</ele>
        <time>2024-04-11T14:06:28.000Z</time>
      </trkpt>
      <trkpt lat="44.16258" lon="0.75767">
        <ele>164</ele>
        <time>2024-04-11T14:06:29.000Z</time>
      </trkpt>
      <trkpt lat="44.16258" lon="0.75768">
        <ele>164</ele>
        <time>2024-04-11T14:06:30.000Z</time>
      </trkpt>
      <trkpt lat="44.16257" lon="0.7577">
        <ele>164</ele>
        <time>2024-04-11T14:06:31.000Z</time>
      </trkpt>
      <trkpt lat="44.16257" lon="0.75771">
        <ele>164</ele>
        <time>2024-04-11T14:06:32.000Z</time>
      </trkpt>
      <trkpt lat="44.16256" lon="0.75772">
        <ele>164</ele>
        <time>2024-04-11T14:06:33.000Z</time>
      </trkpt>
      <trkpt lat="44.16256" lon="0.75774">
        <ele>164</ele>
        <time>2024-04-11T14:06:34.000Z</time>
      </trkpt>
      <trkpt lat="44.16255" lon="0.75775">
        <ele>164</ele>
        <time>2024-04-11T14:06:35.000Z</time>
      </trkpt>
      <trkpt lat="44.16255" lon="0.75777">
        <ele>164</ele>
        <time>2024-04-11T14:06:36.000Z</time>
      </trkpt>
      <trkpt lat="44.16255" lon="0.75778">
        <ele>165</ele>
        <time>2024-04-11T14:06:37.000Z</time>
      </trkpt>
      <trkpt lat="44.16254" lon="0.75779">
        <ele>165</ele>
        <time>2024-04-11T14:06:38.000Z</time>
      </trkpt>
      <trkpt lat="44.16254" lon="0.75781">
        <ele>165</ele>
        <time>2024-04-11T14:06:39.000Z</time>
      </trkpt>
      <trkpt lat="44.16254" lon="0.75783">
        <ele>165</ele>
        <time>2024-04-11T14:06:40.000Z</time>
      </trkpt>
      <trkpt lat="44.16253" lon="0.75784">
        <ele>165</ele>
        <time>2024-04-11T14:06:41.000Z</time>
      </trkpt>
      <trkpt lat="44.16253" lon="0.75786">
        <ele>165</ele>
        <time>2024-04-11T14:06:42.000Z</time>
      </trkpt>
      <trkpt lat="44.16253" lon="0.75787">
        <ele>165</ele>
        <time>2024-04-11T14:06:43.000Z</time>
      </trkpt>
      <trkpt lat="44.16252" lon="0.75789">
        <ele>165</ele>
        <time>2024-04-11T14:06:44.000Z</time>
      </trkpt>
      <trkpt lat="44.16252" lon="0.7579">
        <ele>165</ele>
        <time>2024-04-11T14:06:45.000Z</time>
      </trkpt>
      <trkpt lat="44.16252" lon="0.75792">
        <ele>165</ele>
        <time>2024-04-11T14:06:46.000Z</time>
      </trkpt>
      <trkpt lat="44.16252" lon="0.75793">
        <ele>165</ele>
        <time>2024-04-11T14:06:47.000Z</time>
      </trkpt>
      <trkpt lat="44.16251" lon="0.75795">
        <ele>165</ele>
        <time>2024-04-11T14:06:48.000Z</time>
      </trkpt>
      <trkpt lat="44.16251" lon="0.75797">
        <ele>165</ele>
        <time>2024-04-11T14:06:49.000Z</time>
      </trkpt>
      <trkpt lat="44.16251" lon="0.75798">
        <ele>165</ele>
        <time>2024-04-11T14:06:50.000Z</time>
      </trkpt>
      <trkpt lat="44.16251" lon="0.758">
        <ele>165</ele>
        <time>2024-04-11T14:06:51.000Z</time>
      </trkpt>
      <trkpt lat="44.1625" lon="0.75801">
        <ele>165</ele>
        <time>2024-04-11T14:06:52.000Z</time>
      </trkpt>
      <trkpt lat="44.1625" lon="0.75803">
        <ele>166</ele>
        <time>2024-04-11T14:06:53.000Z</time>
      </trkpt>
      <trkpt lat="44.1625" lon="0.75805">
        <ele>165</ele>
        <time>2024-04-11T14:06:54.000Z</time>
      </trkpt>
      <trkpt lat="44.1625" lon="0.75806">
        <ele>166</ele>
        <time>2024-04-11T14:06:55.000Z</time>
      </trkpt>
      <trkpt lat="44.16249" lon="0.75807">
        <ele>166</ele>
        <time>2024-04-11T14:06:56.000Z</time>
      </trkpt>
      <trkpt lat="44.16249" lon="0.75809">
        <ele>166</ele>
        <time>2024-04-11T14:06:57.000Z</time>
      </trkpt>
      <trkpt lat="44.16249" lon="0.7581">
        <ele>166</ele>
        <time>2024-04-11T14:06:58.000Z</time>
      </trkpt>
      <trkpt lat="44.16249" lon="0.75812">
        <ele>166</ele>
        <time>2024-04-11T14:06:59.000Z</time>
      </trkpt>
      <trkpt lat="44.16249" lon="0.75813">
        <ele>166</ele>
        <time>2024-04-11T14:07:00.000Z</time>
      </trkpt>
      <trkpt lat="44.16249" lon="0.75815">
        <ele>166</ele>
        <time>2024-04-11T14:07:01.000Z</time>
      </trkpt>
      <trkpt lat="44.16249" lon="0.75816">
        <ele>166</ele>
        <time>2024-04-11T14:07:02.000Z</time>
      </trkpt>
      <trkpt lat="44.16248" lon="0.75818">
        <ele>166</ele>
        <time>2024-04-11T14:07:03.000Z</time>
      </trkpt>
      <trkpt lat="44.16248" lon="0.75819">
        <ele>167</ele>
        <time>2024-04-11T14:07:04.000Z</time>
      </trkpt>
      <trkpt lat="44.16248" lon="0.75821">
        <ele>166</ele>
        <time>2024-04-11T14:07:05.000Z</time>
      </trkpt>
      <trkpt lat="44.16248" lon="0.75822">
        <ele>166</ele>
        <time>2024-04-11T14:07:06.000Z</time>
      </trkpt>
      <trkpt lat="44.16248" lon="0.75824">
        <ele>166</ele>
        <time>2024-04-11T14:07:07.000Z</time>
      </trkpt>
      <trkpt lat="44.16248" lon="0.75825">
        <ele>166</ele>
        <time>2024-04-11T14:07:08.000Z</time>
      </trkpt>
      <trkpt lat="44.16248" lon="0.75827">
        <ele>166</ele>
        <time>2024-04-11T14:07:09.000Z</time>
      </trkpt>
      <trkpt lat="44.16248" lon="0.75829">
        <ele>166</ele>
        <time>2024-04-11T14:07:10.000Z</time>
      </trkpt>
      <trkpt lat="44.16247" lon="0.7583">
        <ele>166</ele>
        <time>2024-04-11T14:07:11.000Z</time>
      </trkpt>
      <trkpt lat="44.16247" lon="0.75832">
        <ele>166</ele>
        <time>2024-04-11T14:07:12.000Z</time>
      </trkpt>
      <trkpt lat="44.16247" lon="0.75833">
        <ele>166</ele>
        <time>2024-04-11T14:07:13.000Z</time>
      </trkpt>
      <trkpt lat="44.16247" lon="0.75834">
        <ele>167</ele>
        <time>2024-04-11T14:07:14.000Z</time>
      </trkpt>
      <trkpt lat="44.16247" lon="0.75836">
        <ele>167</ele>
        <time>2024-04-11T14:07:15.000Z</time>
      </trkpt>
      <trkpt lat="44.16247" lon="0.75837">
        <ele>167</ele>
        <time>2024-04-11T14:07:16.000Z</time>
      </trkpt>
      <trkpt lat="44.16247" lon="0.75839">
        <ele>167</ele>
        <time>2024-04-11T14:07:17.000Z</time>
      </trkpt>
      <trkpt lat="44.16247" lon="0.7584">
        <ele>167</ele>
        <time>2024-04-11T14:07:18.000Z</time>
      </trkpt>
      <trkpt lat="44.16247" lon="0.75842">
        <ele>167</ele>
        <time>2024-04-11T14:07:19.000Z</time>
      </trkpt>
      <trkpt lat="44.16247" lon="0.75843">
        <ele>167</ele>
        <time>2024-04-11T14:07:20.000Z</time>
      </trkpt>
      <trkpt lat="44.16247" lon="0.75845">
        <ele>167</ele>
        <time>2024-04-11T14:07:21.000Z</time>
      </trkpt>
      <trkpt lat="44.16247" lon="0.75846">
        <ele>167</ele>
        <time>2024-04-11T14:07:22.000Z</time>
      </trkpt>
      <trkpt lat="44.16247" lon="0.75848">
        <ele>167</ele>
        <time>2024-04-11T14:07:23.000Z</time>
      </trkpt>
      <trkpt lat="44.16247" lon="0.75849">
        <ele>167</ele>
        <time>2024-04-11T14:07:24.000Z</time>
      </trkpt>
      <trkpt lat="44.16247" lon="0.75851">
        <ele>167</ele>
        <time>2024-04-11T14:07:25.000Z</time>
      </trkpt>
      <trkpt lat="44.16247" lon="0.75852">
        <ele>167</ele>
        <time>2024-04-11T14:07:26.000Z</time>
      </trkpt>
      <trkpt lat="44.16247" lon="0.75854">
        <ele>167</ele>
        <time>2024-04-11T14:07:27.000Z</time>
      </trkpt>
      <trkpt lat="44.16247" lon="0.75855">
        <ele>167</ele>
        <time>2024-04-11T14:07:28.000Z</time>
      </trkpt>
      <trkpt lat="44.16247" lon="0.75857">
        <ele>167</ele>
        <time>2024-04-11T14:07:29.000Z</time>
      </trkpt>
      <trkpt lat="44.16247" lon="0.75858">
        <ele>167</ele>
        <time>2024-04-11T14:07:30.000Z</time>
      </trkpt>
      <trkpt lat="44.16248" lon="0.7586">
        <ele>167</ele>
        <time>2024-04-11T14:07:31.000Z</time>
      </trkpt>
      <trkpt lat="44.16248" lon="0.75861">
        <ele>167</ele>
        <time>2024-04-11T14:07:32.000Z</time>
      </trkpt>
      <trkpt lat="44.16248" lon="0.75863">
        <ele>167</ele>
        <time>2024-04-11T14:07:33.000Z</time>
      </trkpt>
      <trkpt lat="44.16248" lon="0.75865">
        <ele>167</ele>
        <time>2024-04-11T14:07:34.000Z</time>
      </trkpt>
      <trkpt lat="44.16248" lon="0.75866">
        <ele>167</ele>
        <time>2024-04-11T14:07:35.000Z</time>
      </trkpt>
      <trkpt lat="44.16248" lon="0.75868">
        <ele>167</ele>
        <time>2024-04-11T14:07:36.000Z</time>
      </trkpt>
      <trkpt lat="44.16248" lon="0.75869">
        <ele>167</ele>
        <time>2024-04-11T14:07:37.000Z</time>
      </trkpt>
      <trkpt lat="44.16248" lon="0.75871">
        <ele>168</ele>
        <time>2024-04-11T14:07:38.000Z</time>
      </trkpt>
      <trkpt lat="44.16248" lon="0.75872">
        <ele>168</ele>
        <time>2024-04-11T14:07:39.000Z</time>
      </trkpt>
      <trkpt lat="44.16248" lon="0.75873">
        <ele>168</ele>
        <time>2024-04-11T14:07:40.000Z</time>
      </trkpt>
      <trkpt lat="44.16248" lon="0.75875">
        <ele>168</ele>
        <time>2024-04-11T14:07:41.000Z</time>
      </trkpt>
      <trkpt lat="44.16248" lon="0.75876">
        <ele>168</ele>
        <time>2024-04-11T14:07:42.000Z</time>
      </trkpt>
      <trkpt lat="44.16248" lon="0.75878">
        <ele>168</ele>
        <time>2024-04-11T14:07:43.000Z</time>
      </trkpt>
      <trkpt lat="44.16248" lon="0.75879">
        <ele>168</ele>
        <time>2024-04-11T14:07:44.000Z</time>
      </trkpt>
      <trkpt lat="44.16248" lon="0.75881">
        <ele>168</ele>
        <time>2024-04-11T14:07:45.000Z</time>
      </trkpt>
      <trkpt lat="44.16248" lon="0.75882">
        <ele>168</ele>
        <time>2024-04-11T14:07:46.000Z</time>
      </trkpt>
      <trkpt lat="44.16249" lon="0.75884">
        <ele>168</ele>
        <time>2024-04-11T14:07:47.000Z</time>
      </trkpt>
      <trkpt lat="44.16249" lon="0.75885">
        <ele>168</ele>
        <time>2024-04-11T14:07:48.000Z</time>
      </trkpt>
      <trkpt lat="44.16249" lon="0.75887">
        <ele>168</ele>
        <time>2024-04-11T14:07:49.000Z</time>
      </trkpt>
      <trkpt lat="44.16249" lon="0.75889">
        <ele>169</ele>
        <time>2024-04-11T14:07:50.000Z</time>
      </trkpt>
      <trkpt lat="44.16249" lon="0.7589">
        <ele>168</ele>
        <time>2024-04-11T14:07:51.000Z</time>
      </trkpt>
      <trkpt lat="44.16249" lon="0.75892">
        <ele>168</ele>
        <time>2024-04-11T14:07:52.000Z</time>
      </trkpt>
      <trkpt lat="44.16249" lon="0.75893">
        <ele>169</ele>
        <time>2024-04-11T14:07:53.000Z</time>
      </trkpt>
      <trkpt lat="44.16249" lon="0.75895">
        <ele>169</ele>
        <time>2024-04-11T14:07:54.000Z</time>
      </trkpt>
      <trkpt lat="44.16249" lon="0.75896">
        <ele>169</ele>
        <time>2024-04-11T14:07:55.000Z</time>
      </trkpt>
      <trkpt lat="44.16249" lon="0.75898">
        <ele>169</ele>
        <time>2024-04-11T14:07:56.000Z</time>
      </trkpt>
      <trkpt lat="44.1625" lon="0.75899">
        <ele>169</ele>
        <time>2024-04-11T14:07:57.000Z</time>
      </trkpt>
      <trkpt lat="44.1625" lon="0.75901">
        <ele>169</ele>
        <time>2024-04-11T14:07:58.000Z</time>
      </trkpt>
      <trkpt lat="44.1625" lon="0.75902">
        <ele>169</ele>
        <time>2024-04-11T14:07:59.000Z</time>
      </trkpt>
      <trkpt lat="44.1625" lon="0.75904">
        <ele>168</ele>
        <time>2024-04-11T14:08:00.000Z</time>
      </trkpt>
      <trkpt lat="44.1625" lon="0.75906">
        <ele>168</ele>
        <time>2024-04-11T14:08:01.000Z</time>
      </trkpt>
      <trkpt lat="44.1625" lon="0.75907">
        <ele>168</ele>
        <time>2024-04-11T14:08:02.000Z</time>
      </trkpt>
      <trkpt lat="44.1625" lon="0.75909">
        <ele>168</ele>
        <time>2024-04-11T14:08:03.000Z</time>
      </trkpt>
      <trkpt lat="44.1625" lon="0.75911">
        <ele>169</ele>
        <time>2024-04-11T14:08:04.000Z</time>
      </trkpt>
      <trkpt lat="44.16251" lon="0.75912">
        <ele>169</ele>
        <time>2024-04-11T14:08:05.000Z</time>
      </trkpt>
      <trkpt lat="44.16251" lon="0.75914">
        <ele>169</ele>
        <time>2024-04-11T14:08:06.000Z</time>
      </trkpt>
      <trkpt lat="44.16251" lon="0.75915">
        <ele>169</ele>
        <time>2024-04-11T14:08:07.000Z</time>
      </trkpt>
      <trkpt lat="44.16251" lon="0.75917">
        <ele>169</ele>
        <time>2024-04-11T14:08:08.000Z</time>
      </trkpt>
      <trkpt lat="44.16251" lon="0.75918">
        <ele>169</ele>
        <time>2024-04-11T14:08:09.000Z</time>
      </trkpt>
      <trkpt lat="44.16251" lon="0.7592">
        <ele>169</ele>
        <time>2024-04-11T14:08:10.000Z</time>
      </trkpt>
      <trkpt lat="44.16252" lon="0.75922">
        <ele>169</ele>
        <time>2024-04-11T14:08:11.000Z</time>
      </trkpt>
      <trkpt lat="44.16252" lon="0.75923">
        <ele>169</ele>
        <time>2024-04-11T14:08:12.000Z</time>
      </trkpt>
      <trkpt lat="44.16252" lon="0.75925">
        <ele>169</ele>
        <time>2024-04-11T14:08:13.000Z</time>
      </trkpt>
      <trkpt lat="44.16252" lon="0.75926">
        <ele>169</ele>
        <time>2024-04-11T14:08:14.000Z</time>
      </trkpt>
      <trkpt lat="44.16252" lon="0.75928">
        <ele>169</ele>
        <time>2024-04-11T14:08:15.000Z</time>
      </trkpt>
      <trkpt lat="44.16252" lon="0.7593">
        <ele>169</ele>
        <time>2024-04-11T14:08:16.000Z</time>
      </trkpt>
      <trkpt lat="44.16252" lon="0.75931">
        <ele>169</ele>
        <time>2024-04-11T14:08:17.000Z</time>
      </trkpt>
      <trkpt lat="44.16253" lon="0.75933">
        <ele>169</ele>
        <time>2024-04-11T14:08:18.000Z</time>
      </trkpt>
      <trkpt lat="44.16253" lon="0.75935">
        <ele>169</ele>
        <time>2024-04-11T14:08:19.000Z</time>
      </trkpt>
      <trkpt lat="44.16253" lon="0.75936">
        <ele>169</ele>
        <time>2024-04-11T14:08:20.000Z</time>
      </trkpt>
      <trkpt lat="44.16253" lon="0.75938">
        <ele>169</ele>
        <time>2024-04-11T14:08:21.000Z</time>
      </trkpt>
      <trkpt lat="44.16253" lon="0.7594">
        <ele>169</ele>
        <time>2024-04-11T14:08:22.000Z</time>
      </trkpt>
      <trkpt lat="44.16253" lon="0.75941">
        <ele>168</ele>
        <time>2024-04-11T14:08:23.000Z</time>
      </trkpt>
      <trkpt lat="44.16253" lon="0.75943">
        <ele>169</ele>
        <time>2024-04-11T14:08:24.000Z</time>
      </trkpt>
      <trkpt lat="44.16253" lon="0.75945">
        <ele>168</ele>
        <time>2024-04-11T14:08:25.000Z</time>
      </trkpt>
      <trkpt lat="44.16253" lon="0.75947">
        <ele>168</ele>
        <time>2024-04-11T14:08:26.000Z</time>
      </trkpt>
      <trkpt lat="44.16253" lon="0.75948">
        <ele>168</ele>
        <time>2024-04-11T14:08:27.000Z</time>
      </trkpt>
      <trkpt lat="44.16253" lon="0.7595">
        <ele>168</ele>
        <time>2024-04-11T14:08:28.000Z</time>
      </trkpt>
      <trkpt lat="44.16253" lon="0.75952">
        <ele>168</ele>
        <time>2024-04-11T14:08:29.000Z</time>
      </trkpt>
      <trkpt lat="44.16253" lon="0.75953">
        <ele>168</ele>
        <time>2024-04-11T14:08:30.000Z</time>
      </trkpt>
      <trkpt lat="44.16253" lon="0.75955">
        <ele>168</ele>
        <time>2024-04-11T14:08:31.000Z</time>
      </trkpt>
      <trkpt lat="44.16253" lon="0.75957">
        <ele>168</ele>
        <time>2024-04-11T14:08:32.000Z</time>
      </trkpt>
      <trkpt lat="44.16253" lon="0.75959">
        <ele>169</ele>
        <time>2024-04-11T14:08:33.000Z</time>
      </trkpt>
      <trkpt lat="44.16253" lon="0.7596">
        <ele>169</ele>
        <time>2024-04-11T14:08:34.000Z</time>
      </trkpt>
      <trkpt lat="44.16253" lon="0.75962">
        <ele>169</ele>
        <time>2024-04-11T14:08:35.000Z</time>
      </trkpt>
      <trkpt lat="44.16254" lon="0.75963">
        <ele>169</ele>
        <time>2024-04-11T14:08:36.000Z</time>
      </trkpt>
      <trkpt lat="44.16254" lon="0.75965">
        <ele>169</ele>
        <time>2024-04-11T14:08:37.000Z</time>
      </trkpt>
      <trkpt lat="44.16254" lon="0.75967">
        <ele>169</ele>
        <time>2024-04-11T14:08:38.000Z</time>
      </trkpt>
      <trkpt lat="44.16254" lon="0.75969">
        <ele>169</ele>
        <time>2024-04-11T14:08:39.000Z</time>
      </trkpt>
      <trkpt lat="44.16254" lon="0.75971">
        <ele>169</ele>
        <time>2024-04-11T14:08:40.000Z</time>
      </trkpt>
      <trkpt lat="44.16254" lon="0.75972">
        <ele>169</ele>
        <time>2024-04-11T14:08:41.000Z</time>
      </trkpt>
      <trkpt lat="44.16254" lon="0.75974">
        <ele>169</ele>
        <time>2024-04-11T14:08:42.000Z</time>
      </trkpt>
      <trkpt lat="44.16254" lon="0.75976">
        <ele>169</ele>
        <time>2024-04-11T14:08:43.000Z</time>
      </trkpt>
      <trkpt lat="44.16254" lon="0.75978">
        <ele>169</ele>
        <time>2024-04-11T14:08:44.000Z</time>
      </trkpt>
      <trkpt lat="44.16254" lon="0.75979">
        <ele>169</ele>
        <time>2024-04-11T14:08:45.000Z</time>
      </trkpt>
      <trkpt lat="44.16254" lon="0.75981">
        <ele>169</ele>
        <time>2024-04-11T14:08:46.000Z</time>
      </trkpt>
      <trkpt lat="44.16255" lon="0.75983">
        <ele>169</ele>
        <time>2024-04-11T14:08:47.000Z</time>
      </trkpt>
      <trkpt lat="44.16255" lon="0.75984">
        <ele>169</ele>
        <time>2024-04-11T14:08:48.000Z</time>
      </trkpt>
      <trkpt lat="44.16255" lon="0.75986">
        <ele>169</ele>
        <time>2024-04-11T14:08:49.000Z</time>
      </trkpt>
      <trkpt lat="44.16255" lon="0.75988">
        <ele>169</ele>
        <time>2024-04-11T14:08:50.000Z</time>
      </trkpt>
      <trkpt lat="44.16255" lon="0.7599">
        <ele>169</ele>
        <time>2024-04-11T14:08:51.000Z</time>
      </trkpt>
      <trkpt lat="44.16255" lon="0.75991">
        <ele>169</ele>
        <time>2024-04-11T14:08:52.000Z</time>
      </trkpt>
      <trkpt lat="44.16255" lon="0.75993">
        <ele>169</ele>
        <time>2024-04-11T14:08:53.000Z</time>
      </trkpt>
      <trkpt lat="44.16255" lon="0.75994">
        <ele>169</ele>
        <time>2024-04-11T14:08:54.000Z</time>
      </trkpt>
      <trkpt lat="44.16255" lon="0.75996">
        <ele>169</ele>
        <time>2024-04-11T14:08:55.000Z</time>
      </trkpt>
      <trkpt lat="44.16255" lon="0.75997">
        <ele>169</ele>
        <time>2024-04-11T14:08:56.000Z</time>
      </trkpt>
      <trkpt lat="44.16254" lon="0.75999">
        <ele>169</ele>
        <time>2024-04-11T14:08:57.000Z</time>
      </trkpt>
      <trkpt lat="44.16254" lon="0.76001">
        <ele>169</ele>
        <time>2024-04-11T14:08:58.000Z</time>
      </trkpt>
      <trkpt lat="44.16254" lon="0.76002">
        <ele>169</ele>
        <time>2024-04-11T14:08:59.000Z</time>
      </trkpt>
      <trkpt lat="44.16255" lon="0.76004">
        <ele>169</ele>
        <time>2024-04-11T14:09:00.000Z</time>
      </trkpt>
      <trkpt lat="44.16255" lon="0.76005">
        <ele>168</ele>
        <time>2024-04-11T14:09:01.000Z</time>
      </trkpt>
      <trkpt lat="44.16255" lon="0.76007">
        <ele>169</ele>
        <time>2024-04-11T14:09:02.000Z</time>
      </trkpt>
      <trkpt lat="44.16256" lon="0.76009">
        <ele>169</ele>
        <time>2024-04-11T14:09:03.000Z</time>
      </trkpt>
      <trkpt lat="44.16256" lon="0.7601">
        <ele>168</ele>
        <time>2024-04-11T14:09:04.000Z</time>
      </trkpt>
      <trkpt lat="44.16256" lon="0.76012">
        <ele>168</ele>
        <time>2024-04-11T14:09:05.000Z</time>
      </trkpt>
      <trkpt lat="44.16256" lon="0.76013">
        <ele>168</ele>
        <time>2024-04-11T14:09:06.000Z</time>
      </trkpt>
      <trkpt lat="44.16257" lon="0.76015">
        <ele>168</ele>
        <time>2024-04-11T14:09:07.000Z</time>
      </trkpt>
      <trkpt lat="44.16257" lon="0.76016">
        <ele>169</ele>
        <time>2024-04-11T14:09:08.000Z</time>
      </trkpt>
      <trkpt lat="44.16257" lon="0.76018">
        <ele>169</ele>
        <time>2024-04-11T14:09:09.000Z</time>
      </trkpt>
      <trkpt lat="44.16257" lon="0.76019">
        <ele>169</ele>
        <time>2024-04-11T14:09:10.000Z</time>
      </trkpt>
      <trkpt lat="44.16257" lon="0.76021">
        <ele>169</ele>
        <time>2024-04-11T14:09:11.000Z</time>
      </trkpt>
      <trkpt lat="44.16257" lon="0.76022">
        <ele>169</ele>
        <time>2024-04-11T14:09:12.000Z</time>
      </trkpt>
      <trkpt lat="44.16258" lon="0.76024">
        <ele>169</ele>
        <time>2024-04-11T14:09:13.000Z</time>
      </trkpt>
      <trkpt lat="44.16258" lon="0.76025">
        <ele>169</ele>
        <time>2024-04-11T14:09:14.000Z</time>
      </trkpt>
      <trkpt lat="44.16258" lon="0.76027">
        <ele>169</ele>
        <time>2024-04-11T14:09:15.000Z</time>
      </trkpt>
      <trkpt lat="44.16258" lon="0.76028">
        <ele>169</ele>
        <time>2024-04-11T14:09:16.000Z</time>
      </trkpt>
      <trkpt lat="44.16258" lon="0.7603">
        <ele>169</ele>
        <time>2024-04-11T14:09:17.000Z</time>
      </trkpt>
      <trkpt lat="44.16258" lon="0.76032">
        <ele>169</ele>
        <time>2024-04-11T14:09:18.000Z</time>
      </trkpt>
      <trkpt lat="44.16258" lon="0.76034">
        <ele>169</ele>
        <time>2024-04-11T14:09:19.000Z</time>
      </trkpt>
      <trkpt lat="44.16259" lon="0.76035">
        <ele>170</ele>
        <time>2024-04-11T14:09:20.000Z</time>
      </trkpt>
      <trkpt lat="44.16259" lon="0.76037">
        <ele>170</ele>
        <time>2024-04-11T14:09:21.000Z</time>
      </trkpt>
      <trkpt lat="44.16259" lon="0.76038">
        <ele>170</ele>
        <time>2024-04-11T14:09:22.000Z</time>
      </trkpt>
      <trkpt lat="44.16259" lon="0.7604">
        <ele>171</ele>
        <time>2024-04-11T14:09:23.000Z</time>
      </trkpt>
      <trkpt lat="44.16259" lon="0.76042">
        <ele>171</ele>
        <time>2024-04-11T14:09:24.000Z</time>
      </trkpt>
      <trkpt lat="44.16259" lon="0.76043">
        <ele>172</ele>
        <time>2024-04-11T14:09:25.000Z</time>
      </trkpt>
      <trkpt lat="44.16259" lon="0.76044">
        <ele>172</ele>
        <time>2024-04-11T14:09:26.000Z</time>
      </trkpt>
      <trkpt lat="44.1626" lon="0.76046">
        <ele>172</ele>
        <time>2024-04-11T14:09:27.000Z</time>
      </trkpt>
      <trkpt lat="44.1626" lon="0.76048">
        <ele>172</ele>
        <time>2024-04-11T14:09:28.000Z</time>
      </trkpt>
      <trkpt lat="44.1626" lon="0.7605">
        <ele>172</ele>
        <time>2024-04-11T14:09:29.000Z</time>
      </trkpt>
      <trkpt lat="44.1626" lon="0.76051">
        <ele>173</ele>
        <time>2024-04-11T14:09:30.000Z</time>
      </trkpt>
      <trkpt lat="44.16261" lon="0.76053">
        <ele>173</ele>
        <time>2024-04-11T14:09:31.000Z</time>
      </trkpt>
      <trkpt lat="44.16261" lon="0.76054">
        <ele>173</ele>
        <time>2024-04-11T14:09:32.000Z</time>
      </trkpt>
      <trkpt lat="44.1626" lon="0.76056">
        <ele>173</ele>
        <time>2024-04-11T14:09:33.000Z</time>
      </trkpt>
      <trkpt lat="44.1626" lon="0.76058">
        <ele>173</ele>
        <time>2024-04-11T14:09:34.000Z</time>
      </trkpt>
      <trkpt lat="44.1626" lon="0.7606">
        <ele>172</ele>
        <time>2024-04-11T14:09:35.000Z</time>
      </trkpt>
      <trkpt lat="44.1626" lon="0.76061">
        <ele>172</ele>
        <time>2024-04-11T14:09:36.000Z</time>
      </trkpt>
      <trkpt lat="44.1626" lon="0.76063">
        <ele>172</ele>
        <time>2024-04-11T14:09:37.000Z</time>
      </trkpt>
      <trkpt lat="44.1626" lon="0.76064">
        <ele>172</ele>
        <time>2024-04-11T14:09:38.000Z</time>
      </trkpt>
      <trkpt lat="44.1626" lon="0.76066">
        <ele>172</ele>
        <time>2024-04-11T14:09:39.000Z</time>
      </trkpt>
      <trkpt lat="44.1626" lon="0.76068">
        <ele>172</ele>
        <time>2024-04-11T14:09:40.000Z</time>
      </trkpt>
      <trkpt lat="44.16261" lon="0.76069">
        <ele>172</ele>
        <time>2024-04-11T14:09:41.000Z</time>
      </trkpt>
      <trkpt lat="44.16261" lon="0.76071">
        <ele>172</ele>
        <time>2024-04-11T14:09:42.000Z</time>
      </trkpt>
      <trkpt lat="44.16261" lon="0.76072">
        <ele>173</ele>
        <time>2024-04-11T14:09:43.000Z</time>
      </trkpt>
      <trkpt lat="44.16261" lon="0.76074">
        <ele>173</ele>
        <time>2024-04-11T14:09:44.000Z</time>
      </trkpt>
      <trkpt lat="44.16261" lon="0.76076">
        <ele>174</ele>
        <time>2024-04-11T14:09:45.000Z</time>
      </trkpt>
      <trkpt lat="44.16261" lon="0.76077">
        <ele>173</ele>
        <time>2024-04-11T14:09:46.000Z</time>
      </trkpt>
      <trkpt lat="44.16261" lon="0.76079">
        <ele>173</ele>
        <time>2024-04-11T14:09:47.000Z</time>
      </trkpt>
      <trkpt lat="44.16261" lon="0.76081">
        <ele>173</ele>
        <time>2024-04-11T14:09:48.000Z</time>
      </trkpt>
      <trkpt lat="44.16261" lon="0.76082">
        <ele>172</ele>
        <time>2024-04-11T14:09:49.000Z</time>
      </trkpt>
      <trkpt lat="44.16261" lon="0.76084">
        <ele>172</ele>
        <time>2024-04-11T14:09:50.000Z</time>
      </trkpt>
      <trkpt lat="44.16261" lon="0.76086">
        <ele>172</ele>
        <time>2024-04-11T14:09:51.000Z</time>
      </trkpt>
      <trkpt lat="44.16261" lon="0.76087">
        <ele>172</ele>
        <time>2024-04-11T14:09:52.000Z</time>
      </trkpt>
      <trkpt lat="44.16262" lon="0.76089">
        <ele>171</ele>
        <time>2024-04-11T14:09:53.000Z</time>
      </trkpt>
      <trkpt lat="44.16262" lon="0.7609">
        <ele>171</ele>
        <time>2024-04-11T14:09:54.000Z</time>
      </trkpt>
      <trkpt lat="44.16262" lon="0.76092">
        <ele>171</ele>
        <time>2024-04-11T14:09:55.000Z</time>
      </trkpt>
      <trkpt lat="44.16262" lon="0.76093">
        <ele>171</ele>
        <time>2024-04-11T14:09:56.000Z</time>
      </trkpt>
      <trkpt lat="44.16262" lon="0.76095">
        <ele>171</ele>
        <time>2024-04-11T14:09:57.000Z</time>
      </trkpt>
      <trkpt lat="44.16262" lon="0.76097">
        <ele>171</ele>
        <time>2024-04-11T14:09:58.000Z</time>
      </trkpt>
      <trkpt lat="44.16262" lon="0.76098">
        <ele>171</ele>
        <time>2024-04-11T14:09:59.000Z</time>
      </trkpt>
      <trkpt lat="44.16262" lon="0.761">
        <ele>171</ele>
        <time>2024-04-11T14:10:00.000Z</time>
      </trkpt>
      <trkpt lat="44.16263" lon="0.76101">
        <ele>171</ele>
        <time>2024-04-11T14:10:01.000Z</time>
      </trkpt>
      <trkpt lat="44.16263" lon="0.76103">
        <ele>171</ele>
        <time>2024-04-11T14:10:02.000Z</time>
      </trkpt>
      <trkpt lat="44.16263" lon="0.76104">
        <ele>171</ele>
        <time>2024-04-11T14:10:03.000Z</time>
      </trkpt>
      <trkpt lat="44.16263" lon="0.76106">
        <ele>171</ele>
        <time>2024-04-11T14:10:04.000Z</time>
      </trkpt>
      <trkpt lat="44.16263" lon="0.76107">
        <ele>171</ele>
        <time>2024-04-11T14:10:05.000Z</time>
      </trkpt>
      <trkpt lat="44.16263" lon="0.76109">
        <ele>171</ele>
        <time>2024-04-11T14:10:06.000Z</time>
      </trkpt>
      <trkpt lat="44.16263" lon="0.7611">
        <ele>171</ele>
        <time>2024-04-11T14:10:07.000Z</time>
      </trkpt>
      <trkpt lat="44.16263" lon="0.76112">
        <ele>171</ele>
        <time>2024-04-11T14:10:08.000Z</time>
      </trkpt>
      <trkpt lat="44.16263" lon="0.76114">
        <ele>171</ele>
        <time>2024-04-11T14:10:09.000Z</time>
      </trkpt>
      <trkpt lat="44.16264" lon="0.76115">
        <ele>171</ele>
        <time>2024-04-11T14:10:10.000Z</time>
      </trkpt>
      <trkpt lat="44.16264" lon="0.76117">
        <ele>171</ele>
        <time>2024-04-11T14:10:11.000Z</time>
      </trkpt>
      <trkpt lat="44.16264" lon="0.76119">
        <ele>171</ele>
        <time>2024-04-11T14:10:12.000Z</time>
      </trkpt>
      <trkpt lat="44.16264" lon="0.7612">
        <ele>171</ele>
        <time>2024-04-11T14:10:13.000Z</time>
      </trkpt>
      <trkpt lat="44.16264" lon="0.76122">
        <ele>170</ele>
        <time>2024-04-11T14:10:14.000Z</time>
      </trkpt>
      <trkpt lat="44.16264" lon="0.76124">
        <ele>171</ele>
        <time>2024-04-11T14:10:15.000Z</time>
      </trkpt>
      <trkpt lat="44.16264" lon="0.76125">
        <ele>170</ele>
        <time>2024-04-11T14:10:16.000Z</time>
      </trkpt>
      <trkpt lat="44.16265" lon="0.76127">
        <ele>170</ele>
        <time>2024-04-11T14:10:17.000Z</time>
      </trkpt>
      <trkpt lat="44.16265" lon="0.76129">
        <ele>171</ele>
        <time>2024-04-11T14:10:18.000Z</time>
      </trkpt>
      <trkpt lat="44.16265" lon="0.7613">
        <ele>170</ele>
        <time>2024-04-11T14:10:19.000Z</time>
      </trkpt>
      <trkpt lat="44.16265" lon="0.76132">
        <ele>170</ele>
        <time>2024-04-11T14:10:20.000Z</time>
      </trkpt>
      <trkpt lat="44.16265" lon="0.76134">
        <ele>170</ele>
        <time>2024-04-11T14:10:21.000Z</time>
      </trkpt>
      <trkpt lat="44.16265" lon="0.76136">
        <ele>170</ele>
        <time>2024-04-11T14:10:22.000Z</time>
      </trkpt>
      <trkpt lat="44.16265" lon="0.76137">
        <ele>170</ele>
        <time>2024-04-11T14:10:23.000Z</time>
      </trkpt>
      <trkpt lat="44.16265" lon="0.76139">
        <ele>170</ele>
        <time>2024-04-11T14:10:24.000Z</time>
      </trkpt>
      <trkpt lat="44.16266" lon="0.7614">
        <ele>170</ele>
        <time>2024-04-11T14:10:25.000Z</time>
      </trkpt>
      <trkpt lat="44.16266" lon="0.76142">
        <ele>169</ele>
        <time>2024-04-11T14:10:26.000Z</time>
      </trkpt>
      <trkpt lat="44.16266" lon="0.76144">
        <ele>169</ele>
        <time>2024-04-11T14:10:27.000Z</time>
      </trkpt>
      <trkpt lat="44.16266" lon="0.76145">
        <ele>168</ele>
        <time>2024-04-11T14:10:28.000Z</time>
      </trkpt>
      <trkpt lat="44.16266" lon="0.76147">
        <ele>169</ele>
        <time>2024-04-11T14:10:29.000Z</time>
      </trkpt>
      <trkpt lat="44.16267" lon="0.76148">
        <ele>169</ele>
        <time>2024-04-11T14:10:30.000Z</time>
      </trkpt>
      <trkpt lat="44.16267" lon="0.76149">
        <ele>169</ele>
        <time>2024-04-11T14:10:31.000Z</time>
      </trkpt>
      <trkpt lat="44.16267" lon="0.76151">
        <ele>169</ele>
        <time>2024-04-11T14:10:32.000Z</time>
      </trkpt>
      <trkpt lat="44.16267" lon="0.76152">
        <ele>168</ele>
        <time>2024-04-11T14:10:33.000Z</time>
      </trkpt>
      <trkpt lat="44.16268" lon="0.76154">
        <ele>169</ele>
        <time>2024-04-11T14:10:34.000Z</time>
      </trkpt>
      <trkpt lat="44.16268" lon="0.76155">
        <ele>169</ele>
        <time>2024-04-11T14:10:35.000Z</time>
      </trkpt>
      <trkpt lat="44.16268" lon="0.76157">
        <ele>168</ele>
        <time>2024-04-11T14:10:36.000Z</time>
      </trkpt>
      <trkpt lat="44.16268" lon="0.76158">
        <ele>168</ele>
        <time>2024-04-11T14:10:37.000Z</time>
      </trkpt>
      <trkpt lat="44.16268" lon="0.7616">
        <ele>168</ele>
        <time>2024-04-11T14:10:38.000Z</time>
      </trkpt>
      <trkpt lat="44.16268" lon="0.76161">
        <ele>168</ele>
        <time>2024-04-11T14:10:39.000Z</time>
      </trkpt>
      <trkpt lat="44.16268" lon="0.76163">
        <ele>168</ele>
        <time>2024-04-11T14:10:40.000Z</time>
      </trkpt>
      <trkpt lat="44.16268" lon="0.76164">
        <ele>168</ele>
        <time>2024-04-11T14:10:41.000Z</time>
      </trkpt>
      <trkpt lat="44.16269" lon="0.76166">
        <ele>168</ele>
        <time>2024-04-11T14:10:42.000Z</time>
      </trkpt>
      <trkpt lat="44.16269" lon="0.76167">
        <ele>168</ele>
        <time>2024-04-11T14:10:43.000Z</time>
      </trkpt>
      <trkpt lat="44.16269" lon="0.76169">
        <ele>168</ele>
        <time>2024-04-11T14:10:44.000Z</time>
      </trkpt>
      <trkpt lat="44.16269" lon="0.7617">
        <ele>168</ele>
        <time>2024-04-11T14:10:45.000Z</time>
      </trkpt>
      <trkpt lat="44.16269" lon="0.76172">
        <ele>168</ele>
        <time>2024-04-11T14:10:46.000Z</time>
      </trkpt>
      <trkpt lat="44.1627" lon="0.76174">
        <ele>167</ele>
        <time>2024-04-11T14:10:47.000Z</time>
      </trkpt>
      <trkpt lat="44.1627" lon="0.76175">
        <ele>167</ele>
        <time>2024-04-11T14:10:48.000Z</time>
      </trkpt>
      <trkpt lat="44.1627" lon="0.76177">
        <ele>167</ele>
        <time>2024-04-11T14:10:49.000Z</time>
      </trkpt>
      <trkpt lat="44.1627" lon="0.76178">
        <ele>167</ele>
        <time>2024-04-11T14:10:50.000Z</time>
      </trkpt>
      <trkpt lat="44.1627" lon="0.7618">
        <ele>167</ele>
        <time>2024-04-11T14:10:51.000Z</time>
      </trkpt>
      <trkpt lat="44.1627" lon="0.76182">
        <ele>167</ele>
        <time>2024-04-11T14:10:52.000Z</time>
      </trkpt>
      <trkpt lat="44.1627" lon="0.76184">
        <ele>166</ele>
        <time>2024-04-11T14:10:53.000Z</time>
      </trkpt>
      <trkpt lat="44.16271" lon="0.76185">
        <ele>166</ele>
        <time>2024-04-11T14:10:54.000Z</time>
      </trkpt>
      <trkpt lat="44.16271" lon="0.76187">
        <ele>166</ele>
        <time>2024-04-11T14:10:55.000Z</time>
      </trkpt>
      <trkpt lat="44.16271" lon="0.76189">
        <ele>166</ele>
        <time>2024-04-11T14:10:56.000Z</time>
      </trkpt>
      <trkpt lat="44.16271" lon="0.7619">
        <ele>166</ele>
        <time>2024-04-11T14:10:57.000Z</time>
      </trkpt>
      <trkpt lat="44.16271" lon="0.76192">
        <ele>166</ele>
        <time>2024-04-11T14:10:58.000Z</time>
      </trkpt>
      <trkpt lat="44.16271" lon="0.76194">
        <ele>166</ele>
        <time>2024-04-11T14:10:59.000Z</time>
      </trkpt>
      <trkpt lat="44.16271" lon="0.76195">
        <ele>165</ele>
        <time>2024-04-11T14:11:00.000Z</time>
      </trkpt>
      <trkpt lat="44.16271" lon="0.76197">
        <ele>165</ele>
        <time>2024-04-11T14:11:01.000Z</time>
      </trkpt>
      <trkpt lat="44.16271" lon="0.76198">
        <ele>165</ele>
        <time>2024-04-11T14:11:02.000Z</time>
      </trkpt>
      <trkpt lat="44.16271" lon="0.762">
        <ele>165</ele>
        <time>2024-04-11T14:11:03.000Z</time>
      </trkpt>
      <trkpt lat="44.16272" lon="0.76201">
        <ele>165</ele>
        <time>2024-04-11T14:11:04.000Z</time>
      </trkpt>
      <trkpt lat="44.16272" lon="0.76203">
        <ele>165</ele>
        <time>2024-04-11T14:11:05.000Z</time>
      </trkpt>
      <trkpt lat="44.16272" lon="0.76204">
        <ele>164</ele>
        <time>2024-04-11T14:11:06.000Z</time>
      </trkpt>
      <trkpt lat="44.16272" lon="0.76206">
        <ele>164</ele>
        <time>2024-04-11T14:11:07.000Z</time>
      </trkpt>
      <trkpt lat="44.16272" lon="0.76207">
        <ele>164</ele>
        <time>2024-04-11T14:11:08.000Z</time>
      </trkpt>
      <trkpt lat="44.16272" lon="0.76209">
        <ele>164</ele>
        <time>2024-04-11T14:11:09.000Z</time>
      </trkpt>
      <trkpt lat="44.16272" lon="0.7621">
        <ele>164</ele>
        <time>2024-04-11T14:11:10.000Z</time>
      </trkpt>
      <trkpt lat="44.16272" lon="0.76212">
        <ele>163</ele>
        <time>2024-04-11T14:11:11.000Z</time>
      </trkpt>
      <trkpt lat="44.16273" lon="0.76214">
        <ele>164</ele>
        <time>2024-04-11T14:11:12.000Z</time>
      </trkpt>
      <trkpt lat="44.16273" lon="0.76215">
        <ele>163</ele>
        <time>2024-04-11T14:11:13.000Z</time>
      </trkpt>
      <trkpt lat="44.16273" lon="0.76217">
        <ele>164</ele>
        <time>2024-04-11T14:11:14.000Z</time>
      </trkpt>
      <trkpt lat="44.16273" lon="0.76219">
        <ele>163</ele>
        <time>2024-04-11T14:11:15.000Z</time>
      </trkpt>
      <trkpt lat="44.16273" lon="0.7622">
        <ele>164</ele>
        <time>2024-04-11T14:11:16.000Z</time>
      </trkpt>
      <trkpt lat="44.16273" lon="0.76222">
        <ele>164</ele>
        <time>2024-04-11T14:11:17.000Z</time>
      </trkpt>
      <trkpt lat="44.16273" lon="0.76224">
        <ele>163</ele>
        <time>2024-04-11T14:11:18.000Z</time>
      </trkpt>
      <trkpt lat="44.16273" lon="0.76226">
        <ele>163</ele>
        <time>2024-04-11T14:11:19.000Z</time>
      </trkpt>
      <trkpt lat="44.16273" lon="0.76227">
        <ele>163</ele>
        <time>2024-04-11T14:11:20.000Z</time>
      </trkpt>
      <trkpt lat="44.16273" lon="0.76229">
        <ele>163</ele>
        <time>2024-04-11T14:11:21.000Z</time>
      </trkpt>
      <trkpt lat="44.16273" lon="0.76231">
        <ele>163</ele>
        <time>2024-04-11T14:11:22.000Z</time>
      </trkpt>
      <trkpt lat="44.16273" lon="0.76232">
        <ele>164</ele>
        <time>2024-04-11T14:11:23.000Z</time>
      </trkpt>
      <trkpt lat="44.16273" lon="0.76234">
        <ele>165</ele>
        <time>2024-04-11T14:11:24.000Z</time>
      </trkpt>
      <trkpt lat="44.16273" lon="0.76236">
        <ele>165</ele>
        <time>2024-04-11T14:11:25.000Z</time>
      </trkpt>
      <trkpt lat="44.16273" lon="0.76237">
        <ele>165</ele>
        <time>2024-04-11T14:11:26.000Z</time>
      </trkpt>
      <trkpt lat="44.16273" lon="0.76239">
        <ele>165</ele>
        <time>2024-04-11T14:11:27.000Z</time>
      </trkpt>
      <trkpt lat="44.16274" lon="0.7624">
        <ele>166</ele>
        <time>2024-04-11T14:11:28.000Z</time>
      </trkpt>
      <trkpt lat="44.16274" lon="0.76242">
        <ele>165</ele>
        <time>2024-04-11T14:11:29.000Z</time>
      </trkpt>
      <trkpt lat="44.16274" lon="0.76244">
        <ele>165</ele>
        <time>2024-04-11T14:11:30.000Z</time>
      </trkpt>
      <trkpt lat="44.16274" lon="0.76245">
        <ele>165</ele>
        <time>2024-04-11T14:11:31.000Z</time>
      </trkpt>
      <trkpt lat="44.16274" lon="0.76247">
        <ele>165</ele>
        <time>2024-04-11T14:11:32.000Z</time>
      </trkpt>
      <trkpt lat="44.16274" lon="0.76248">
        <ele>166</ele>
        <time>2024-04-11T14:11:33.000Z</time>
      </trkpt>
      <trkpt lat="44.16274" lon="0.7625">
        <ele>165</ele>
        <time>2024-04-11T14:11:34.000Z</time>
      </trkpt>
      <trkpt lat="44.16274" lon="0.76252">
        <ele>166</ele>
        <time>2024-04-11T14:11:35.000Z</time>
      </trkpt>
      <trkpt lat="44.16274" lon="0.76254">
        <ele>166</ele>
        <time>2024-04-11T14:11:36.000Z</time>
      </trkpt>
      <trkpt lat="44.16275" lon="0.76255">
        <ele>166</ele>
        <time>2024-04-11T14:11:37.000Z</time>
      </trkpt>
      <trkpt lat="44.16275" lon="0.76257">
        <ele>166</ele>
        <time>2024-04-11T14:11:38.000Z</time>
      </trkpt>
      <trkpt lat="44.16275" lon="0.76259">
        <ele>166</ele>
        <time>2024-04-11T14:11:39.000Z</time>
      </trkpt>
      <trkpt lat="44.16275" lon="0.76261">
        <ele>166</ele>
        <time>2024-04-11T14:11:40.000Z</time>
      </trkpt>
      <trkpt lat="44.16275" lon="0.76262">
        <ele>166</ele>
        <time>2024-04-11T14:11:41.000Z</time>
      </trkpt>
      <trkpt lat="44.16275" lon="0.76264">
        <ele>166</ele>
        <time>2024-04-11T14:11:42.000Z</time>
      </trkpt>
      <trkpt lat="44.16275" lon="0.76266">
        <ele>167</ele>
        <time>2024-04-11T14:11:43.000Z</time>
      </trkpt>
      <trkpt lat="44.16275" lon="0.76267">
        <ele>167</ele>
        <time>2024-04-11T14:11:44.000Z</time>
      </trkpt>
      <trkpt lat="44.16275" lon="0.76268">
        <ele>167</ele>
        <time>2024-04-11T14:11:45.000Z</time>
      </trkpt>
      <trkpt lat="44.16275" lon="0.76269">
        <ele>167</ele>
        <time>2024-04-11T14:11:46.000Z</time>
      </trkpt>
      <trkpt lat="44.16275" lon="0.76271">
        <ele>167</ele>
        <time>2024-04-11T14:11:47.000Z</time>
      </trkpt>
      <trkpt lat="44.16276" lon="0.76272">
        <ele>167</ele>
        <time>2024-04-11T14:11:48.000Z</time>
      </trkpt>
      <trkpt lat="44.16276" lon="0.76273">
        <ele>166</ele>
        <time>2024-04-11T14:11:49.000Z</time>
      </trkpt>
      <trkpt lat="44.16276" lon="0.76273">
        <ele>167</ele>
        <time>2024-04-11T14:11:50.000Z</time>
      </trkpt>
      <trkpt lat="44.16276" lon="0.76274">
        <ele>166</ele>
        <time>2024-04-11T14:11:51.000Z</time>
      </trkpt>
      <trkpt lat="44.16276" lon="0.76274">
        <ele>167</ele>
        <time>2024-04-11T14:11:52.000Z</time>
      </trkpt>
      <trkpt lat="44.16276" lon="0.76274">
        <ele>166</ele>
        <time>2024-04-11T14:11:53.000Z</time>
      </trkpt>
      <trkpt lat="44.16276" lon="0.76275">
        <ele>166</ele>
        <time>2024-04-11T14:11:54.000Z</time>
      </trkpt>
      <trkpt lat="44.16276" lon="0.76275">
        <ele>166</ele>
        <time>2024-04-11T14:11:55.000Z</time>
      </trkpt>
      <trkpt lat="44.16276" lon="0.76276">
        <ele>166</ele>
        <time>2024-04-11T14:11:56.000Z</time>
      </trkpt>
      <trkpt lat="44.16277" lon="0.76277">
        <ele>166</ele>
        <time>2024-04-11T14:11:57.000Z</time>
      </trkpt>
      <trkpt lat="44.16277" lon="0.76278">
        <ele>167</ele>
        <time>2024-04-11T14:11:58.000Z</time>
      </trkpt>
      <trkpt lat="44.16277" lon="0.76279">
        <ele>167</ele>
        <time>2024-04-11T14:11:59.000Z</time>
      </trkpt>
      <trkpt lat="44.16277" lon="0.76281">
        <ele>166</ele>
        <time>2024-04-11T14:12:00.000Z</time>
      </trkpt>
      <trkpt lat="44.16277" lon="0.76282">
        <ele>166</ele>
        <time>2024-04-11T14:12:01.000Z</time>
      </trkpt>
      <trkpt lat="44.16277" lon="0.76283">
        <ele>166</ele>
        <time>2024-04-11T14:12:02.000Z</time>
      </trkpt>
      <trkpt lat="44.16278" lon="0.76284">
        <ele>166</ele>
        <time>2024-04-11T14:12:03.000Z</time>
      </trkpt>
      <trkpt lat="44.16278" lon="0.76285">
        <ele>165</ele>
        <time>2024-04-11T14:12:04.000Z</time>
      </trkpt>
      <trkpt lat="44.16278" lon="0.76286">
        <ele>166</ele>
        <time>2024-04-11T14:12:05.000Z</time>
      </trkpt>
      <trkpt lat="44.16278" lon="0.76288">
        <ele>165</ele>
        <time>2024-04-11T14:12:06.000Z</time>
      </trkpt>
      <trkpt lat="44.16278" lon="0.76289">
        <ele>165</ele>
        <time>2024-04-11T14:12:07.000Z</time>
      </trkpt>
      <trkpt lat="44.16278" lon="0.76291">
        <ele>165</ele>
        <time>2024-04-11T14:12:08.000Z</time>
      </trkpt>
      <trkpt lat="44.16279" lon="0.76292">
        <ele>165</ele>
        <time>2024-04-11T14:12:09.000Z</time>
      </trkpt>
      <trkpt lat="44.16279" lon="0.76294">
        <ele>166</ele>
        <time>2024-04-11T14:12:10.000Z</time>
      </trkpt>
      <trkpt lat="44.16279" lon="0.76295">
        <ele>166</ele>
        <time>2024-04-11T14:12:11.000Z</time>
      </trkpt>
      <trkpt lat="44.16279" lon="0.76297">
        <ele>166</ele>
        <time>2024-04-11T14:12:12.000Z</time>
      </trkpt>
      <trkpt lat="44.16279" lon="0.76298">
        <ele>166</ele>
        <time>2024-04-11T14:12:13.000Z</time>
      </trkpt>
      <trkpt lat="44.16279" lon="0.763">
        <ele>166</ele>
        <time>2024-04-11T14:12:14.000Z</time>
      </trkpt>
      <trkpt lat="44.1628" lon="0.76301">
        <ele>165</ele>
        <time>2024-04-11T14:12:15.000Z</time>
      </trkpt>
      <trkpt lat="44.1628" lon="0.76303">
        <ele>165</ele>
        <time>2024-04-11T14:12:16.000Z</time>
      </trkpt>
      <trkpt lat="44.1628" lon="0.76304">
        <ele>166</ele>
        <time>2024-04-11T14:12:17.000Z</time>
      </trkpt>
      <trkpt lat="44.1628" lon="0.76306">
        <ele>165</ele>
        <time>2024-04-11T14:12:18.000Z</time>
      </trkpt>
      <trkpt lat="44.16281" lon="0.76307">
        <ele>166</ele>
        <time>2024-04-11T14:12:19.000Z</time>
      </trkpt>
      <trkpt lat="44.16281" lon="0.76309">
        <ele>165</ele>
        <time>2024-04-11T14:12:20.000Z</time>
      </trkpt>
      <trkpt lat="44.16281" lon="0.7631">
        <ele>166</ele>
        <time>2024-04-11T14:12:21.000Z</time>
      </trkpt>
      <trkpt lat="44.16282" lon="0.76312">
        <ele>166</ele>
        <time>2024-04-11T14:12:22.000Z</time>
      </trkpt>
      <trkpt lat="44.16282" lon="0.76313">
        <ele>165</ele>
        <time>2024-04-11T14:12:23.000Z</time>
      </trkpt>
      <trkpt lat="44.16282" lon="0.76315">
        <ele>165</ele>
        <time>2024-04-11T14:12:24.000Z</time>
      </trkpt>
      <trkpt lat="44.16282" lon="0.76316">
        <ele>165</ele>
        <time>2024-04-11T14:12:25.000Z</time>
      </trkpt>
      <trkpt lat="44.16283" lon="0.76318">
        <ele>165</ele>
        <time>2024-04-11T14:12:26.000Z</time>
      </trkpt>
      <trkpt lat="44.16283" lon="0.76319">
        <ele>165</ele>
        <time>2024-04-11T14:12:27.000Z</time>
      </trkpt>
      <trkpt lat="44.16284" lon="0.76321">
        <ele>165</ele>
        <time>2024-04-11T14:12:28.000Z</time>
      </trkpt>
      <trkpt lat="44.16284" lon="0.76323">
        <ele>165</ele>
        <time>2024-04-11T14:12:29.000Z</time>
      </trkpt>
      <trkpt lat="44.16284" lon="0.76324">
        <ele>165</ele>
        <time>2024-04-11T14:12:30.000Z</time>
      </trkpt>
      <trkpt lat="44.16284" lon="0.76326">
        <ele>165</ele>
        <time>2024-04-11T14:12:31.000Z</time>
      </trkpt>
      <trkpt lat="44.16284" lon="0.76327">
        <ele>165</ele>
        <time>2024-04-11T14:12:32.000Z</time>
      </trkpt>
      <trkpt lat="44.16285" lon="0.76329">
        <ele>165</ele>
        <time>2024-04-11T14:12:33.000Z</time>
      </trkpt>
      <trkpt lat="44.16285" lon="0.7633">
        <ele>165</ele>
        <time>2024-04-11T14:12:34.000Z</time>
      </trkpt>
      <trkpt lat="44.16285" lon="0.76332">
        <ele>165</ele>
        <time>2024-04-11T14:12:35.000Z</time>
      </trkpt>
      <trkpt lat="44.16285" lon="0.76333">
        <ele>165</ele>
        <time>2024-04-11T14:12:36.000Z</time>
      </trkpt>
      <trkpt lat="44.16286" lon="0.76335">
        <ele>165</ele>
        <time>2024-04-11T14:12:37.000Z</time>
      </trkpt>
      <trkpt lat="44.16286" lon="0.76336">
        <ele>166</ele>
        <time>2024-04-11T14:12:38.000Z</time>
      </trkpt>
      <trkpt lat="44.16286" lon="0.76337">
        <ele>166</ele>
        <time>2024-04-11T14:12:39.000Z</time>
      </trkpt>
      <trkpt lat="44.16287" lon="0.76339">
        <ele>166</ele>
        <time>2024-04-11T14:12:40.000Z</time>
      </trkpt>
      <trkpt lat="44.16287" lon="0.76341">
        <ele>166</ele>
        <time>2024-04-11T14:12:41.000Z</time>
      </trkpt>
      <trkpt lat="44.16287" lon="0.76343">
        <ele>166</ele>
        <time>2024-04-11T14:12:42.000Z</time>
      </trkpt>
      <trkpt lat="44.16287" lon="0.76344">
        <ele>166</ele>
        <time>2024-04-11T14:12:43.000Z</time>
      </trkpt>
      <trkpt lat="44.16288" lon="0.76346">
        <ele>166</ele>
        <time>2024-04-11T14:12:44.000Z</time>
      </trkpt>
      <trkpt lat="44.16288" lon="0.76348">
        <ele>165</ele>
        <time>2024-04-11T14:12:45.000Z</time>
      </trkpt>
      <trkpt lat="44.16288" lon="0.7635">
        <ele>165</ele>
        <time>2024-04-11T14:12:46.000Z</time>
      </trkpt>
      <trkpt lat="44.16288" lon="0.76351">
        <ele>166</ele>
        <time>2024-04-11T14:12:47.000Z</time>
      </trkpt>
      <trkpt lat="44.16288" lon="0.76353">
        <ele>166</ele>
        <time>2024-04-11T14:12:48.000Z</time>
      </trkpt>
      <trkpt lat="44.16288" lon="0.76354">
        <ele>166</ele>
        <time>2024-04-11T14:12:49.000Z</time>
      </trkpt>
      <trkpt lat="44.16289" lon="0.76356">
        <ele>166</ele>
        <time>2024-04-11T14:12:50.000Z</time>
      </trkpt>
      <trkpt lat="44.16289" lon="0.76357">
        <ele>166</ele>
        <time>2024-04-11T14:12:51.000Z</time>
      </trkpt>
      <trkpt lat="44.16289" lon="0.76359">
        <ele>166</ele>
        <time>2024-04-11T14:12:52.000Z</time>
      </trkpt>
      <trkpt lat="44.16289" lon="0.7636">
        <ele>166</ele>
        <time>2024-04-11T14:12:53.000Z</time>
      </trkpt>
      <trkpt lat="44.16289" lon="0.76362">
        <ele>166</ele>
        <time>2024-04-11T14:12:54.000Z</time>
      </trkpt>
      <trkpt lat="44.1629" lon="0.76363">
        <ele>166</ele>
        <time>2024-04-11T14:12:55.000Z</time>
      </trkpt>
      <trkpt lat="44.1629" lon="0.76365">
        <ele>166</ele>
        <time>2024-04-11T14:12:56.000Z</time>
      </trkpt>
      <trkpt lat="44.1629" lon="0.76366">
        <ele>166</ele>
        <time>2024-04-11T14:12:57.000Z</time>
      </trkpt>
      <trkpt lat="44.1629" lon="0.76368">
        <ele>167</ele>
        <time>2024-04-11T14:12:58.000Z</time>
      </trkpt>
      <trkpt lat="44.1629" lon="0.7637">
        <ele>167</ele>
        <time>2024-04-11T14:12:59.000Z</time>
      </trkpt>
      <trkpt lat="44.16291" lon="0.76371">
        <ele>166</ele>
        <time>2024-04-11T14:13:00.000Z</time>
      </trkpt>
      <trkpt lat="44.16291" lon="0.76373">
        <ele>167</ele>
        <time>2024-04-11T14:13:01.000Z</time>
      </trkpt>
      <trkpt lat="44.16291" lon="0.76374">
        <ele>166</ele>
        <time>2024-04-11T14:13:02.000Z</time>
      </trkpt>
      <trkpt lat="44.16291" lon="0.76376">
        <ele>166</ele>
        <time>2024-04-11T14:13:03.000Z</time>
      </trkpt>
      <trkpt lat="44.16291" lon="0.76378">
        <ele>166</ele>
        <time>2024-04-11T14:13:04.000Z</time>
      </trkpt>
      <trkpt lat="44.16291" lon="0.76379">
        <ele>166</ele>
        <time>2024-04-11T14:13:05.000Z</time>
      </trkpt>
      <trkpt lat="44.16292" lon="0.76381">
        <ele>167</ele>
        <time>2024-04-11T14:13:06.000Z</time>
      </trkpt>
      <trkpt lat="44.16292" lon="0.76382">
        <ele>166</ele>
        <time>2024-04-11T14:13:07.000Z</time>
      </trkpt>
      <trkpt lat="44.16292" lon="0.76384">
        <ele>166</ele>
        <time>2024-04-11T14:13:08.000Z</time>
      </trkpt>
      <trkpt lat="44.16292" lon="0.76386">
        <ele>166</ele>
        <time>2024-04-11T14:13:09.000Z</time>
      </trkpt>
      <trkpt lat="44.16292" lon="0.76387">
        <ele>166</ele>
        <time>2024-04-11T14:13:10.000Z</time>
      </trkpt>
      <trkpt lat="44.16292" lon="0.76388">
        <ele>167</ele>
        <time>2024-04-11T14:13:11.000Z</time>
      </trkpt>
      <trkpt lat="44.16292" lon="0.76389">
        <ele>167</ele>
        <time>2024-04-11T14:13:12.000Z</time>
      </trkpt>
      <trkpt lat="44.16291" lon="0.7639">
        <ele>167</ele>
        <time>2024-04-11T14:13:13.000Z</time>
      </trkpt>
      <trkpt lat="44.16291" lon="0.76391">
        <ele>166</ele>
        <time>2024-04-11T14:13:14.000Z</time>
      </trkpt>
      <trkpt lat="44.16291" lon="0.76393">
        <ele>167</ele>
        <time>2024-04-11T14:13:15.000Z</time>
      </trkpt>
      <trkpt lat="44.16291" lon="0.76394">
        <ele>167</ele>
        <time>2024-04-11T14:13:16.000Z</time>
      </trkpt>
      <trkpt lat="44.1629" lon="0.76395">
        <ele>167</ele>
        <time>2024-04-11T14:13:17.000Z</time>
      </trkpt>
      <trkpt lat="44.1629" lon="0.76397">
        <ele>167</ele>
        <time>2024-04-11T14:13:18.000Z</time>
      </trkpt>
      <trkpt lat="44.16289" lon="0.76398">
        <ele>167</ele>
        <time>2024-04-11T14:13:19.000Z</time>
      </trkpt>
      <trkpt lat="44.16289" lon="0.76399">
        <ele>167</ele>
        <time>2024-04-11T14:13:20.000Z</time>
      </trkpt>
      <trkpt lat="44.16288" lon="0.764">
        <ele>168</ele>
        <time>2024-04-11T14:13:21.000Z</time>
      </trkpt>
      <trkpt lat="44.16288" lon="0.76401">
        <ele>168</ele>
        <time>2024-04-11T14:13:22.000Z</time>
      </trkpt>
      <trkpt lat="44.16287" lon="0.76402">
        <ele>168</ele>
        <time>2024-04-11T14:13:23.000Z</time>
      </trkpt>
      <trkpt lat="44.16286" lon="0.76403">
        <ele>168</ele>
        <time>2024-04-11T14:13:24.000Z</time>
      </trkpt>
      <trkpt lat="44.16286" lon="0.76404">
        <ele>168</ele>
        <time>2024-04-11T14:13:25.000Z</time>
      </trkpt>
      <trkpt lat="44.16285" lon="0.76405">
        <ele>168</ele>
        <time>2024-04-11T14:13:26.000Z</time>
      </trkpt>
      <trkpt lat="44.16284" lon="0.76405">
        <ele>168</ele>
        <time>2024-04-11T14:13:27.000Z</time>
      </trkpt>
      <trkpt lat="44.16283" lon="0.76406">
        <ele>168</ele>
        <time>2024-04-11T14:13:28.000Z</time>
      </trkpt>
      <trkpt lat="44.16282" lon="0.76406">
        <ele>168</ele>
        <time>2024-04-11T14:13:29.000Z</time>
      </trkpt>
      <trkpt lat="44.16281" lon="0.76407">
        <ele>168</ele>
        <time>2024-04-11T14:13:30.000Z</time>
      </trkpt>
      <trkpt lat="44.1628" lon="0.76407">
        <ele>168</ele>
        <time>2024-04-11T14:13:31.000Z</time>
      </trkpt>
      <trkpt lat="44.16279" lon="0.76408">
        <ele>168</ele>
        <time>2024-04-11T14:13:32.000Z</time>
      </trkpt>
      <trkpt lat="44.16278" lon="0.76408">
        <ele>168</ele>
        <time>2024-04-11T14:13:33.000Z</time>
      </trkpt>
      <trkpt lat="44.16276" lon="0.76409">
        <ele>168</ele>
        <time>2024-04-11T14:13:34.000Z</time>
      </trkpt>
      <trkpt lat="44.16275" lon="0.76409">
        <ele>169</ele>
        <time>2024-04-11T14:13:35.000Z</time>
      </trkpt>
      <trkpt lat="44.16274" lon="0.7641">
        <ele>168</ele>
        <time>2024-04-11T14:13:36.000Z</time>
      </trkpt>
      <trkpt lat="44.16273" lon="0.76411">
        <ele>168</ele>
        <time>2024-04-11T14:13:37.000Z</time>
      </trkpt>
      <trkpt lat="44.16272" lon="0.76411">
        <ele>168</ele>
        <time>2024-04-11T14:13:38.000Z</time>
      </trkpt>
      <trkpt lat="44.16271" lon="0.76412">
        <ele>168</ele>
        <time>2024-04-11T14:13:39.000Z</time>
      </trkpt>
      <trkpt lat="44.1627" lon="0.76413">
        <ele>168</ele>
        <time>2024-04-11T14:13:40.000Z</time>
      </trkpt>
      <trkpt lat="44.16269" lon="0.76413">
        <ele>169</ele>
        <time>2024-04-11T14:13:41.000Z</time>
      </trkpt>
      <trkpt lat="44.16268" lon="0.76414">
        <ele>169</ele>
        <time>2024-04-11T14:13:42.000Z</time>
      </trkpt>
      <trkpt lat="44.16267" lon="0.76414">
        <ele>169</ele>
        <time>2024-04-11T14:13:43.000Z</time>
      </trkpt>
      <trkpt lat="44.16266" lon="0.76415">
        <ele>169</ele>
        <time>2024-04-11T14:13:44.000Z</time>
      </trkpt>
      <trkpt lat="44.16265" lon="0.76416">
        <ele>168</ele>
        <time>2024-04-11T14:13:45.000Z</time>
      </trkpt>
      <trkpt lat="44.16264" lon="0.76417">
        <ele>168</ele>
        <time>2024-04-11T14:13:46.000Z</time>
      </trkpt>
      <trkpt lat="44.16263" lon="0.76417">
        <ele>169</ele>
        <time>2024-04-11T14:13:47.000Z</time>
      </trkpt>
      <trkpt lat="44.16262" lon="0.76418">
        <ele>168</ele>
        <time>2024-04-11T14:13:48.000Z</time>
      </trkpt>
      <trkpt lat="44.16261" lon="0.76419">
        <ele>168</ele>
        <time>2024-04-11T14:13:49.000Z</time>
      </trkpt>
      <trkpt lat="44.1626" lon="0.7642">
        <ele>168</ele>
        <time>2024-04-11T14:13:50.000Z</time>
      </trkpt>
      <trkpt lat="44.16259" lon="0.76421">
        <ele>168</ele>
        <time>2024-04-11T14:13:51.000Z</time>
      </trkpt>
      <trkpt lat="44.16258" lon="0.76422">
        <ele>168</ele>
        <time>2024-04-11T14:13:52.000Z</time>
      </trkpt>
      <trkpt lat="44.16257" lon="0.76423">
        <ele>168</ele>
        <time>2024-04-11T14:13:53.000Z</time>
      </trkpt>
      <trkpt lat="44.16257" lon="0.76424">
        <ele>168</ele>
        <time>2024-04-11T14:13:54.000Z</time>
      </trkpt>
      <trkpt lat="44.16256" lon="0.76425">
        <ele>168</ele>
        <time>2024-04-11T14:13:55.000Z</time>
      </trkpt>
      <trkpt lat="44.16255" lon="0.76427">
        <ele>168</ele>
        <time>2024-04-11T14:13:56.000Z</time>
      </trkpt>
      <trkpt lat="44.16254" lon="0.76428">
        <ele>168</ele>
        <time>2024-04-11T14:13:57.000Z</time>
      </trkpt>
      <trkpt lat="44.16253" lon="0.76429">
        <ele>168</ele>
        <time>2024-04-11T14:13:58.000Z</time>
      </trkpt>
      <trkpt lat="44.16253" lon="0.7643">
        <ele>168</ele>
        <time>2024-04-11T14:13:59.000Z</time>
      </trkpt>
      <trkpt lat="44.16252" lon="0.76431">
        <ele>168</ele>
        <time>2024-04-11T14:14:00.000Z</time>
      </trkpt>
      <trkpt lat="44.16251" lon="0.76433">
        <ele>167</ele>
        <time>2024-04-11T14:14:01.000Z</time>
      </trkpt>
      <trkpt lat="44.1625" lon="0.76434">
        <ele>167</ele>
        <time>2024-04-11T14:14:02.000Z</time>
      </trkpt>
      <trkpt lat="44.1625" lon="0.76435">
        <ele>167</ele>
        <time>2024-04-11T14:14:03.000Z</time>
      </trkpt>
      <trkpt lat="44.16249" lon="0.76437">
        <ele>167</ele>
        <time>2024-04-11T14:14:04.000Z</time>
      </trkpt>
      <trkpt lat="44.16248" lon="0.76438">
        <ele>167</ele>
        <time>2024-04-11T14:14:05.000Z</time>
      </trkpt>
      <trkpt lat="44.16248" lon="0.76439">
        <ele>167</ele>
        <time>2024-04-11T14:14:06.000Z</time>
      </trkpt>
      <trkpt lat="44.16247" lon="0.76441">
        <ele>167</ele>
        <time>2024-04-11T14:14:07.000Z</time>
      </trkpt>
      <trkpt lat="44.16246" lon="0.76442">
        <ele>167</ele>
        <time>2024-04-11T14:14:08.000Z</time>
      </trkpt>
      <trkpt lat="44.16245" lon="0.76443">
        <ele>167</ele>
        <time>2024-04-11T14:14:09.000Z</time>
      </trkpt>
      <trkpt lat="44.16244" lon="0.76444">
        <ele>168</ele>
        <time>2024-04-11T14:14:10.000Z</time>
      </trkpt>
      <trkpt lat="44.16244" lon="0.76446">
        <ele>168</ele>
        <time>2024-04-11T14:14:11.000Z</time>
      </trkpt>
      <trkpt lat="44.16243" lon="0.76447">
        <ele>168</ele>
        <time>2024-04-11T14:14:12.000Z</time>
      </trkpt>
      <trkpt lat="44.16242" lon="0.76448">
        <ele>168</ele>
        <time>2024-04-11T14:14:13.000Z</time>
      </trkpt>
      <trkpt lat="44.16242" lon="0.76449">
        <ele>168</ele>
        <time>2024-04-11T14:14:14.000Z</time>
      </trkpt>
      <trkpt lat="44.16241" lon="0.7645">
        <ele>168</ele>
        <time>2024-04-11T14:14:15.000Z</time>
      </trkpt>
      <trkpt lat="44.16241" lon="0.76452">
        <ele>168</ele>
        <time>2024-04-11T14:14:16.000Z</time>
      </trkpt>
      <trkpt lat="44.1624" lon="0.76453">
        <ele>168</ele>
        <time>2024-04-11T14:14:17.000Z</time>
      </trkpt>
      <trkpt lat="44.16239" lon="0.76454">
        <ele>168</ele>
        <time>2024-04-11T14:14:18.000Z</time>
      </trkpt>
      <trkpt lat="44.16238" lon="0.76456">
        <ele>168</ele>
        <time>2024-04-11T14:14:19.000Z</time>
      </trkpt>
      <trkpt lat="44.16238" lon="0.76457">
        <ele>168</ele>
        <time>2024-04-11T14:14:20.000Z</time>
      </trkpt>
      <trkpt lat="44.16237" lon="0.76458">
        <ele>168</ele>
        <time>2024-04-11T14:14:21.000Z</time>
      </trkpt>
      <trkpt lat="44.16236" lon="0.76459">
        <ele>168</ele>
        <time>2024-04-11T14:14:22.000Z</time>
      </trkpt>
      <trkpt lat="44.16235" lon="0.76461">
        <ele>168</ele>
        <time>2024-04-11T14:14:23.000Z</time>
      </trkpt>
      <trkpt lat="44.16235" lon="0.76462">
        <ele>168</ele>
        <time>2024-04-11T14:14:24.000Z</time>
      </trkpt>
      <trkpt lat="44.16234" lon="0.76464">
        <ele>168</ele>
        <time>2024-04-11T14:14:25.000Z</time>
      </trkpt>
      <trkpt lat="44.16233" lon="0.76465">
        <ele>169</ele>
        <time>2024-04-11T14:14:26.000Z</time>
      </trkpt>
      <trkpt lat="44.16233" lon="0.76466">
        <ele>169</ele>
        <time>2024-04-11T14:14:27.000Z</time>
      </trkpt>
      <trkpt lat="44.16232" lon="0.76468">
        <ele>169</ele>
        <time>2024-04-11T14:14:28.000Z</time>
      </trkpt>
      <trkpt lat="44.16231" lon="0.76469">
        <ele>169</ele>
        <time>2024-04-11T14:14:29.000Z</time>
      </trkpt>
      <trkpt lat="44.16231" lon="0.76471">
        <ele>169</ele>
        <time>2024-04-11T14:14:30.000Z</time>
      </trkpt>
      <trkpt lat="44.1623" lon="0.76472">
        <ele>169</ele>
        <time>2024-04-11T14:14:31.000Z</time>
      </trkpt>
      <trkpt lat="44.1623" lon="0.76474">
        <ele>169</ele>
        <time>2024-04-11T14:14:32.000Z</time>
      </trkpt>
      <trkpt lat="44.16229" lon="0.76475">
        <ele>169</ele>
        <time>2024-04-11T14:14:33.000Z</time>
      </trkpt>
      <trkpt lat="44.16229" lon="0.76477">
        <ele>169</ele>
        <time>2024-04-11T14:14:34.000Z</time>
      </trkpt>
      <trkpt lat="44.16228" lon="0.76478">
        <ele>169</ele>
        <time>2024-04-11T14:14:35.000Z</time>
      </trkpt>
      <trkpt lat="44.16228" lon="0.7648">
        <ele>169</ele>
        <time>2024-04-11T14:14:36.000Z</time>
      </trkpt>
      <trkpt lat="44.16228" lon="0.76481">
        <ele>169</ele>
        <time>2024-04-11T14:14:37.000Z</time>
      </trkpt>
      <trkpt lat="44.16227" lon="0.76483">
        <ele>168</ele>
        <time>2024-04-11T14:14:38.000Z</time>
      </trkpt>
      <trkpt lat="44.16227" lon="0.76484">
        <ele>168</ele>
        <time>2024-04-11T14:14:39.000Z</time>
      </trkpt>
      <trkpt lat="44.16227" lon="0.76486">
        <ele>168</ele>
        <time>2024-04-11T14:14:40.000Z</time>
      </trkpt>
      <trkpt lat="44.16226" lon="0.76487">
        <ele>168</ele>
        <time>2024-04-11T14:14:41.000Z</time>
      </trkpt>
      <trkpt lat="44.16226" lon="0.76489">
        <ele>168</ele>
        <time>2024-04-11T14:14:42.000Z</time>
      </trkpt>
      <trkpt lat="44.16225" lon="0.7649">
        <ele>168</ele>
        <time>2024-04-11T14:14:43.000Z</time>
      </trkpt>
      <trkpt lat="44.16225" lon="0.76492">
        <ele>168</ele>
        <time>2024-04-11T14:14:44.000Z</time>
      </trkpt>
      <trkpt lat="44.16225" lon="0.76493">
        <ele>168</ele>
        <time>2024-04-11T14:14:45.000Z</time>
      </trkpt>
      <trkpt lat="44.16224" lon="0.76495">
        <ele>168</ele>
        <time>2024-04-11T14:14:46.000Z</time>
      </trkpt>
      <trkpt lat="44.16224" lon="0.76496">
        <ele>168</ele>
        <time>2024-04-11T14:14:47.000Z</time>
      </trkpt>
      <trkpt lat="44.16224" lon="0.76497">
        <ele>168</ele>
        <time>2024-04-11T14:14:48.000Z</time>
      </trkpt>
      <trkpt lat="44.16223" lon="0.76499">
        <ele>168</ele>
        <time>2024-04-11T14:14:49.000Z</time>
      </trkpt>
      <trkpt lat="44.16223" lon="0.765">
        <ele>168</ele>
        <time>2024-04-11T14:14:50.000Z</time>
      </trkpt>
      <trkpt lat="44.16223" lon="0.76501">
        <ele>168</ele>
        <time>2024-04-11T14:14:51.000Z</time>
      </trkpt>
      <trkpt lat="44.16222" lon="0.76502">
        <ele>168</ele>
        <time>2024-04-11T14:14:52.000Z</time>
      </trkpt>
      <trkpt lat="44.16222" lon="0.76503">
        <ele>168</ele>
        <time>2024-04-11T14:14:53.000Z</time>
      </trkpt>
      <trkpt lat="44.16222" lon="0.76503">
        <ele>167</ele>
        <time>2024-04-11T14:14:54.000Z</time>
      </trkpt>
      <trkpt lat="44.16221" lon="0.76504">
        <ele>167</ele>
        <time>2024-04-11T14:14:55.000Z</time>
      </trkpt>
      <trkpt lat="44.16221" lon="0.76505">
        <ele>167</ele>
        <time>2024-04-11T14:14:56.000Z</time>
      </trkpt>
      <trkpt lat="44.16221" lon="0.76505">
        <ele>167</ele>
        <time>2024-04-11T14:14:57.000Z</time>
      </trkpt>
      <trkpt lat="44.16221" lon="0.76505">
        <ele>167</ele>
        <time>2024-04-11T14:14:58.000Z</time>
      </trkpt>
      <trkpt lat="44.16221" lon="0.76505">
        <ele>167</ele>
        <time>2024-04-11T14:14:59.000Z</time>
      </trkpt>
      <trkpt lat="44.16221" lon="0.76505">
        <ele>167</ele>
        <time>2024-04-11T14:15:00.000Z</time>
      </trkpt>
      <trkpt lat="44.1622" lon="0.76505">
        <ele>167</ele>
        <time>2024-04-11T14:15:01.000Z</time>
      </trkpt>
      <trkpt lat="44.1622" lon="0.76506">
        <ele>167</ele>
        <time>2024-04-11T14:15:02.000Z</time>
      </trkpt>
      <trkpt lat="44.1622" lon="0.76506">
        <ele>167</ele>
        <time>2024-04-11T14:15:03.000Z</time>
      </trkpt>
      <trkpt lat="44.1622" lon="0.76506">
        <ele>166</ele>
        <time>2024-04-11T14:15:04.000Z</time>
      </trkpt>
      <trkpt lat="44.1622" lon="0.76507">
        <ele>166</ele>
        <time>2024-04-11T14:15:05.000Z</time>
      </trkpt>
      <trkpt lat="44.1622" lon="0.76507">
        <ele>166</ele>
        <time>2024-04-11T14:15:06.000Z</time>
      </trkpt>
      <trkpt lat="44.1622" lon="0.76507">
        <ele>166</ele>
        <time>2024-04-11T14:15:07.000Z</time>
      </trkpt>
      <trkpt lat="44.1622" lon="0.76508">
        <ele>166</ele>
        <time>2024-04-11T14:15:08.000Z</time>
      </trkpt>
      <trkpt lat="44.16219" lon="0.76508">
        <ele>166</ele>
        <time>2024-04-11T14:15:09.000Z</time>
      </trkpt>
      <trkpt lat="44.16219" lon="0.76509">
        <ele>166</ele>
        <time>2024-04-11T14:15:10.000Z</time>
      </trkpt>
      <trkpt lat="44.16219" lon="0.76509">
        <ele>166</ele>
        <time>2024-04-11T14:15:11.000Z</time>
      </trkpt>
      <trkpt lat="44.16219" lon="0.76509">
        <ele>166</ele>
        <time>2024-04-11T14:15:12.000Z</time>
      </trkpt>
      <trkpt lat="44.16219" lon="0.76509">
        <ele>166</ele>
        <time>2024-04-11T14:15:13.000Z</time>
      </trkpt>
      <trkpt lat="44.16219" lon="0.76509">
        <ele>166</ele>
        <time>2024-04-11T14:15:14.000Z</time>
      </trkpt>
      <trkpt lat="44.16219" lon="0.76509">
        <ele>166</ele>
        <time>2024-04-11T14:15:15.000Z</time>
      </trkpt>
      <trkpt lat="44.16219" lon="0.76509">
        <ele>166</ele>
        <time>2024-04-11T14:15:16.000Z</time>
      </trkpt>
      <trkpt lat="44.16219" lon="0.76509">
        <ele>166</ele>
        <time>2024-04-11T14:15:17.000Z</time>
      </trkpt>
      <trkpt lat="44.16219" lon="0.76509">
        <ele>166</ele>
        <time>2024-04-11T14:15:18.000Z</time>
      </trkpt>
      <trkpt lat="44.16219" lon="0.76509">
        <ele>166</ele>
        <time>2024-04-11T14:15:19.000Z</time>
      </trkpt>
      <trkpt lat="44.16219" lon="0.76509">
        <ele>166</ele>
        <time>2024-04-11T14:15:20.000Z</time>
      </trkpt>
      <trkpt lat="44.16219" lon="0.7651">
        <ele>166</ele>
        <time>2024-04-11T14:15:21.000Z</time>
      </trkpt>
      <trkpt lat="44.16219" lon="0.76509">
        <ele>165</ele>
        <time>2024-04-11T14:15:22.000Z</time>
      </trkpt>
      <trkpt lat="44.16219" lon="0.76509">
        <ele>165</ele>
        <time>2024-04-11T14:15:23.000Z</time>
      </trkpt>
      <trkpt lat="44.16219" lon="0.76509">
        <ele>165</ele>
        <time>2024-04-11T14:15:24.000Z</time>
      </trkpt>
      <trkpt lat="44.16219" lon="0.76509">
        <ele>165</ele>
        <time>2024-04-11T14:15:25.000Z</time>
      </trkpt>
      <trkpt lat="44.16219" lon="0.76509">
        <ele>165</ele>
        <time>2024-04-11T14:15:26.000Z</time>
      </trkpt>
      <trkpt lat="44.16219" lon="0.7651">
        <ele>165</ele>
        <time>2024-04-11T14:15:27.000Z</time>
      </trkpt>
      <trkpt lat="44.16218" lon="0.7651">
        <ele>164</ele>
        <time>2024-04-11T14:15:28.000Z</time>
      </trkpt>
      <trkpt lat="44.16218" lon="0.7651">
        <ele>164</ele>
        <time>2024-04-11T14:15:29.000Z</time>
      </trkpt>
      <trkpt lat="44.16218" lon="0.76511">
        <ele>164</ele>
        <time>2024-04-11T14:15:30.000Z</time>
      </trkpt>
      <trkpt lat="44.16217" lon="0.76511">
        <ele>164</ele>
        <time>2024-04-11T14:15:31.000Z</time>
      </trkpt>
      <trkpt lat="44.16217" lon="0.76512">
        <ele>164</ele>
        <time>2024-04-11T14:15:32.000Z</time>
      </trkpt>
      <trkpt lat="44.16217" lon="0.76512">
        <ele>164</ele>
        <time>2024-04-11T14:15:33.000Z</time>
      </trkpt>
      <trkpt lat="44.16217" lon="0.76512">
        <ele>164</ele>
        <time>2024-04-11T14:15:34.000Z</time>
      </trkpt>
      <trkpt lat="44.16217" lon="0.76512">
        <ele>164</ele>
        <time>2024-04-11T14:15:35.000Z</time>
      </trkpt>
      <trkpt lat="44.16217" lon="0.76512">
        <ele>164</ele>
        <time>2024-04-11T14:15:36.000Z</time>
      </trkpt>
      <trkpt lat="44.16217" lon="0.76512">
        <ele>164</ele>
        <time>2024-04-11T14:15:37.000Z</time>
      </trkpt>
      <trkpt lat="44.16217" lon="0.76513">
        <ele>163</ele>
        <time>2024-04-11T14:15:38.000Z</time>
      </trkpt>
      <trkpt lat="44.16217" lon="0.76513">
        <ele>163</ele>
        <time>2024-04-11T14:15:39.000Z</time>
      </trkpt>
      <trkpt lat="44.16216" lon="0.76513">
        <ele>163</ele>
        <time>2024-04-11T14:15:40.000Z</time>
      </trkpt>
      <trkpt lat="44.16215" lon="0.76514">
        <ele>163</ele>
        <time>2024-04-11T14:15:41.000Z</time>
      </trkpt>
      <trkpt lat="44.16214" lon="0.76514">
        <ele>163</ele>
        <time>2024-04-11T14:15:42.000Z</time>
      </trkpt>
      <trkpt lat="44.16213" lon="0.76515">
        <ele>163</ele>
        <time>2024-04-11T14:15:43.000Z</time>
      </trkpt>
      <trkpt lat="44.16212" lon="0.76515">
        <ele>163</ele>
        <time>2024-04-11T14:15:44.000Z</time>
      </trkpt>
      <trkpt lat="44.16211" lon="0.76516">
        <ele>163</ele>
        <time>2024-04-11T14:15:45.000Z</time>
      </trkpt>
      <trkpt lat="44.1621" lon="0.76516">
        <ele>162</ele>
        <time>2024-04-11T14:15:46.000Z</time>
      </trkpt>
      <trkpt lat="44.16209" lon="0.76516">
        <ele>162</ele>
        <time>2024-04-11T14:15:47.000Z</time>
      </trkpt>
      <trkpt lat="44.16208" lon="0.76517">
        <ele>162</ele>
        <time>2024-04-11T14:15:48.000Z</time>
      </trkpt>
      <trkpt lat="44.16207" lon="0.76517">
        <ele>162</ele>
        <time>2024-04-11T14:15:49.000Z</time>
      </trkpt>
      <trkpt lat="44.16206" lon="0.76517">
        <ele>162</ele>
        <time>2024-04-11T14:15:50.000Z</time>
      </trkpt>
      <trkpt lat="44.16205" lon="0.76517">
        <ele>162</ele>
        <time>2024-04-11T14:15:51.000Z</time>
      </trkpt>
      <trkpt lat="44.16204" lon="0.76517">
        <ele>162</ele>
        <time>2024-04-11T14:15:52.000Z</time>
      </trkpt>
      <trkpt lat="44.16203" lon="0.76517">
        <ele>162</ele>
        <time>2024-04-11T14:15:53.000Z</time>
      </trkpt>
      <trkpt lat="44.16202" lon="0.76517">
        <ele>162</ele>
        <time>2024-04-11T14:15:54.000Z</time>
      </trkpt>
      <trkpt lat="44.16201" lon="0.76517">
        <ele>163</ele>
        <time>2024-04-11T14:15:55.000Z</time>
      </trkpt>
      <trkpt lat="44.162" lon="0.76517">
        <ele>163</ele>
        <time>2024-04-11T14:15:56.000Z</time>
      </trkpt>
      <trkpt lat="44.16199" lon="0.76517">
        <ele>162</ele>
        <time>2024-04-11T14:15:57.000Z</time>
      </trkpt>
      <trkpt lat="44.16198" lon="0.76518">
        <ele>162</ele>
        <time>2024-04-11T14:15:58.000Z</time>
      </trkpt>
      <trkpt lat="44.16197" lon="0.76518">
        <ele>162</ele>
        <time>2024-04-11T14:15:59.000Z</time>
      </trkpt>
      <trkpt lat="44.16196" lon="0.76518">
        <ele>162</ele>
        <time>2024-04-11T14:16:00.000Z</time>
      </trkpt>
      <trkpt lat="44.16195" lon="0.76518">
        <ele>161</ele>
        <time>2024-04-11T14:16:01.000Z</time>
      </trkpt>
      <trkpt lat="44.16194" lon="0.76517">
        <ele>161</ele>
        <time>2024-04-11T14:16:02.000Z</time>
      </trkpt>
      <trkpt lat="44.16193" lon="0.76517">
        <ele>161</ele>
        <time>2024-04-11T14:16:03.000Z</time>
      </trkpt>
      <trkpt lat="44.16192" lon="0.76517">
        <ele>161</ele>
        <time>2024-04-11T14:16:04.000Z</time>
      </trkpt>
      <trkpt lat="44.16191" lon="0.76517">
        <ele>161</ele>
        <time>2024-04-11T14:16:05.000Z</time>
      </trkpt>
      <trkpt lat="44.1619" lon="0.76517">
        <ele>161</ele>
        <time>2024-04-11T14:16:06.000Z</time>
      </trkpt>
      <trkpt lat="44.16189" lon="0.76517">
        <ele>162</ele>
        <time>2024-04-11T14:16:07.000Z</time>
      </trkpt>
      <trkpt lat="44.16188" lon="0.76517">
        <ele>162</ele>
        <time>2024-04-11T14:16:08.000Z</time>
      </trkpt>
      <trkpt lat="44.16188" lon="0.76517">
        <ele>162</ele>
        <time>2024-04-11T14:16:09.000Z</time>
      </trkpt>
      <trkpt lat="44.16187" lon="0.76517">
        <ele>162</ele>
        <time>2024-04-11T14:16:10.000Z</time>
      </trkpt>
      <trkpt lat="44.16187" lon="0.76517">
        <ele>161</ele>
        <time>2024-04-11T14:16:11.000Z</time>
      </trkpt>
      <trkpt lat="44.16186" lon="0.76517">
        <ele>161</ele>
        <time>2024-04-11T14:16:12.000Z</time>
      </trkpt>
      <trkpt lat="44.16186" lon="0.76517">
        <ele>161</ele>
        <time>2024-04-11T14:16:13.000Z</time>
      </trkpt>
      <trkpt lat="44.16186" lon="0.76517">
        <ele>161</ele>
        <time>2024-04-11T14:16:14.000Z</time>
      </trkpt>
      <trkpt lat="44.16186" lon="0.76517">
        <ele>161</ele>
        <time>2024-04-11T14:16:15.000Z</time>
      </trkpt>
      <trkpt lat="44.16185" lon="0.76517">
        <ele>161</ele>
        <time>2024-04-11T14:16:16.000Z</time>
      </trkpt>
      <trkpt lat="44.16185" lon="0.76516">
        <ele>161</ele>
        <time>2024-04-11T14:16:17.000Z</time>
      </trkpt>
      <trkpt lat="44.16184" lon="0.76516">
        <ele>161</ele>
        <time>2024-04-11T14:16:18.000Z</time>
      </trkpt>
      <trkpt lat="44.16184" lon="0.76515">
        <ele>161</ele>
        <time>2024-04-11T14:16:19.000Z</time>
      </trkpt>
      <trkpt lat="44.16184" lon="0.76514">
        <ele>161</ele>
        <time>2024-04-11T14:16:20.000Z</time>
      </trkpt>
      <trkpt lat="44.16183" lon="0.76513">
        <ele>161</ele>
        <time>2024-04-11T14:16:21.000Z</time>
      </trkpt>
      <trkpt lat="44.16183" lon="0.76512">
        <ele>161</ele>
        <time>2024-04-11T14:16:22.000Z</time>
      </trkpt>
      <trkpt lat="44.16182" lon="0.76511">
        <ele>161</ele>
        <time>2024-04-11T14:16:23.000Z</time>
      </trkpt>
      <trkpt lat="44.16182" lon="0.7651">
        <ele>161</ele>
        <time>2024-04-11T14:16:24.000Z</time>
      </trkpt>
      <trkpt lat="44.16182" lon="0.7651">
        <ele>161</ele>
        <time>2024-04-11T14:16:25.000Z</time>
      </trkpt>
      <trkpt lat="44.16182" lon="0.76509">
        <ele>161</ele>
        <time>2024-04-11T14:16:26.000Z</time>
      </trkpt>
      <trkpt lat="44.16181" lon="0.76509">
        <ele>161</ele>
        <time>2024-04-11T14:16:27.000Z</time>
      </trkpt>
      <trkpt lat="44.16181" lon="0.76508">
        <ele>161</ele>
        <time>2024-04-11T14:16:28.000Z</time>
      </trkpt>
      <trkpt lat="44.16181" lon="0.76508">
        <ele>161</ele>
        <time>2024-04-11T14:16:29.000Z</time>
      </trkpt>
      <trkpt lat="44.16181" lon="0.76508">
        <ele>161</ele>
        <time>2024-04-11T14:16:30.000Z</time>
      </trkpt>
      <trkpt lat="44.1618" lon="0.76507">
        <ele>161</ele>
        <time>2024-04-11T14:16:31.000Z</time>
      </trkpt>
      <trkpt lat="44.1618" lon="0.76506">
        <ele>161</ele>
        <time>2024-04-11T14:16:32.000Z</time>
      </trkpt>
      <trkpt lat="44.16179" lon="0.76506">
        <ele>160</ele>
        <time>2024-04-11T14:16:33.000Z</time>
      </trkpt>
      <trkpt lat="44.16179" lon="0.76505">
        <ele>161</ele>
        <time>2024-04-11T14:16:34.000Z</time>
      </trkpt>
      <trkpt lat="44.16178" lon="0.76504">
        <ele>161</ele>
        <time>2024-04-11T14:16:35.000Z</time>
      </trkpt>
      <trkpt lat="44.16178" lon="0.76503">
        <ele>161</ele>
        <time>2024-04-11T14:16:36.000Z</time>
      </trkpt>
      <trkpt lat="44.16177" lon="0.76502">
        <ele>161</ele>
        <time>2024-04-11T14:16:37.000Z</time>
      </trkpt>
      <trkpt lat="44.16177" lon="0.76502">
        <ele>160</ele>
        <time>2024-04-11T14:16:38.000Z</time>
      </trkpt>
      <trkpt lat="44.16176" lon="0.76501">
        <ele>160</ele>
        <time>2024-04-11T14:16:39.000Z</time>
      </trkpt>
      <trkpt lat="44.16175" lon="0.765">
        <ele>161</ele>
        <time>2024-04-11T14:16:40.000Z</time>
      </trkpt>
      <trkpt lat="44.16175" lon="0.76499">
        <ele>161</ele>
        <time>2024-04-11T14:16:41.000Z</time>
      </trkpt>
      <trkpt lat="44.16174" lon="0.76498">
        <ele>161</ele>
        <time>2024-04-11T14:16:42.000Z</time>
      </trkpt>
      <trkpt lat="44.16173" lon="0.76497">
        <ele>161</ele>
        <time>2024-04-11T14:16:43.000Z</time>
      </trkpt>
      <trkpt lat="44.16173" lon="0.76496">
        <ele>161</ele>
        <time>2024-04-11T14:16:44.000Z</time>
      </trkpt>
      <trkpt lat="44.16172" lon="0.76495">
        <ele>161</ele>
        <time>2024-04-11T14:16:45.000Z</time>
      </trkpt>
      <trkpt lat="44.16171" lon="0.76494">
        <ele>161</ele>
        <time>2024-04-11T14:16:46.000Z</time>
      </trkpt>
      <trkpt lat="44.1617" lon="0.76493">
        <ele>161</ele>
        <time>2024-04-11T14:16:47.000Z</time>
      </trkpt>
      <trkpt lat="44.16169" lon="0.76492">
        <ele>161</ele>
        <time>2024-04-11T14:16:48.000Z</time>
      </trkpt>
      <trkpt lat="44.16169" lon="0.76491">
        <ele>161</ele>
        <time>2024-04-11T14:16:49.000Z</time>
      </trkpt>
      <trkpt lat="44.16168" lon="0.7649">
        <ele>161</ele>
        <time>2024-04-11T14:16:50.000Z</time>
      </trkpt>
      <trkpt lat="44.16167" lon="0.76489">
        <ele>161</ele>
        <time>2024-04-11T14:16:51.000Z</time>
      </trkpt>
      <trkpt lat="44.16167" lon="0.76489">
        <ele>161</ele>
        <time>2024-04-11T14:16:52.000Z</time>
      </trkpt>
      <trkpt lat="44.16166" lon="0.76488">
        <ele>161</ele>
        <time>2024-04-11T14:16:53.000Z</time>
      </trkpt>
      <trkpt lat="44.16165" lon="0.76487">
        <ele>161</ele>
        <time>2024-04-11T14:16:54.000Z</time>
      </trkpt>
      <trkpt lat="44.16164" lon="0.76486">
        <ele>161</ele>
        <time>2024-04-11T14:16:55.000Z</time>
      </trkpt>
      <trkpt lat="44.16163" lon="0.76485">
        <ele>161</ele>
        <time>2024-04-11T14:16:56.000Z</time>
      </trkpt>
      <trkpt lat="44.16163" lon="0.76484">
        <ele>161</ele>
        <time>2024-04-11T14:16:57.000Z</time>
      </trkpt>
      <trkpt lat="44.16162" lon="0.76483">
        <ele>161</ele>
        <time>2024-04-11T14:16:58.000Z</time>
      </trkpt>
      <trkpt lat="44.16161" lon="0.76482">
        <ele>161</ele>
        <time>2024-04-11T14:16:59.000Z</time>
      </trkpt>
      <trkpt lat="44.1616" lon="0.76481">
        <ele>161</ele>
        <time>2024-04-11T14:17:00.000Z</time>
      </trkpt>
      <trkpt lat="44.1616" lon="0.7648">
        <ele>161</ele>
        <time>2024-04-11T14:17:01.000Z</time>
      </trkpt>
      <trkpt lat="44.16159" lon="0.76479">
        <ele>161</ele>
        <time>2024-04-11T14:17:02.000Z</time>
      </trkpt>
      <trkpt lat="44.16158" lon="0.76478">
        <ele>161</ele>
        <time>2024-04-11T14:17:03.000Z</time>
      </trkpt>
      <trkpt lat="44.16158" lon="0.76478">
        <ele>160</ele>
        <time>2024-04-11T14:17:04.000Z</time>
      </trkpt>
      <trkpt lat="44.16158" lon="0.76477">
        <ele>160</ele>
        <time>2024-04-11T14:17:05.000Z</time>
      </trkpt>
      <trkpt lat="44.16157" lon="0.76476">
        <ele>160</ele>
        <time>2024-04-11T14:17:06.000Z</time>
      </trkpt>
      <trkpt lat="44.16156" lon="0.76475">
        <ele>160</ele>
        <time>2024-04-11T14:17:07.000Z</time>
      </trkpt>
      <trkpt lat="44.16155" lon="0.76474">
        <ele>160</ele>
        <time>2024-04-11T14:17:08.000Z</time>
      </trkpt>
      <trkpt lat="44.16155" lon="0.76473">
        <ele>160</ele>
        <time>2024-04-11T14:17:09.000Z</time>
      </trkpt>
      <trkpt lat="44.16154" lon="0.76472">
        <ele>160</ele>
        <time>2024-04-11T14:17:10.000Z</time>
      </trkpt>
      <trkpt lat="44.16153" lon="0.76471">
        <ele>160</ele>
        <time>2024-04-11T14:17:11.000Z</time>
      </trkpt>
      <trkpt lat="44.16152" lon="0.7647">
        <ele>160</ele>
        <time>2024-04-11T14:17:12.000Z</time>
      </trkpt>
      <trkpt lat="44.16152" lon="0.76469">
        <ele>160</ele>
        <time>2024-04-11T14:17:13.000Z</time>
      </trkpt>
      <trkpt lat="44.16151" lon="0.76468">
        <ele>160</ele>
        <time>2024-04-11T14:17:14.000Z</time>
      </trkpt>
      <trkpt lat="44.1615" lon="0.76467">
        <ele>159</ele>
        <time>2024-04-11T14:17:15.000Z</time>
      </trkpt>
      <trkpt lat="44.1615" lon="0.76466">
        <ele>159</ele>
        <time>2024-04-11T14:17:16.000Z</time>
      </trkpt>
      <trkpt lat="44.16149" lon="0.76466">
        <ele>159</ele>
        <time>2024-04-11T14:17:17.000Z</time>
      </trkpt>
      <trkpt lat="44.16149" lon="0.76465">
        <ele>159</ele>
        <time>2024-04-11T14:17:18.000Z</time>
      </trkpt>
      <trkpt lat="44.16148" lon="0.76464">
        <ele>159</ele>
        <time>2024-04-11T14:17:19.000Z</time>
      </trkpt>
      <trkpt lat="44.16148" lon="0.76463">
        <ele>159</ele>
        <time>2024-04-11T14:17:20.000Z</time>
      </trkpt>
      <trkpt lat="44.16147" lon="0.76463">
        <ele>159</ele>
        <time>2024-04-11T14:17:21.000Z</time>
      </trkpt>
      <trkpt lat="44.16146" lon="0.76462">
        <ele>159</ele>
        <time>2024-04-11T14:17:22.000Z</time>
      </trkpt>
      <trkpt lat="44.16146" lon="0.76461">
        <ele>159</ele>
        <time>2024-04-11T14:17:23.000Z</time>
      </trkpt>
      <trkpt lat="44.16145" lon="0.7646">
        <ele>159</ele>
        <time>2024-04-11T14:17:24.000Z</time>
      </trkpt>
      <trkpt lat="44.16145" lon="0.76459">
        <ele>159</ele>
        <time>2024-04-11T14:17:25.000Z</time>
      </trkpt>
      <trkpt lat="44.16144" lon="0.76459">
        <ele>159</ele>
        <time>2024-04-11T14:17:26.000Z</time>
      </trkpt>
      <trkpt lat="44.16144" lon="0.76458">
        <ele>159</ele>
        <time>2024-04-11T14:17:27.000Z</time>
      </trkpt>
      <trkpt lat="44.16144" lon="0.76458">
        <ele>159</ele>
        <time>2024-04-11T14:17:28.000Z</time>
      </trkpt>
      <trkpt lat="44.16144" lon="0.76458">
        <ele>159</ele>
        <time>2024-04-11T14:17:29.000Z</time>
      </trkpt>
      <trkpt lat="44.16144" lon="0.76458">
        <ele>159</ele>
        <time>2024-04-11T14:17:30.000Z</time>
      </trkpt>
      <trkpt lat="44.16144" lon="0.76458">
        <ele>159</ele>
        <time>2024-04-11T14:17:31.000Z</time>
      </trkpt>
      <trkpt lat="44.16143" lon="0.76457">
        <ele>159</ele>
        <time>2024-04-11T14:17:32.000Z</time>
      </trkpt>
      <trkpt lat="44.16143" lon="0.76457">
        <ele>159</ele>
        <time>2024-04-11T14:17:33.000Z</time>
      </trkpt>
      <trkpt lat="44.16143" lon="0.76457">
        <ele>159</ele>
        <time>2024-04-11T14:17:34.000Z</time>
      </trkpt>
      <trkpt lat="44.16143" lon="0.76457">
        <ele>159</ele>
        <time>2024-04-11T14:17:35.000Z</time>
      </trkpt>
      <trkpt lat="44.16143" lon="0.76457">
        <ele>159</ele>
        <time>2024-04-11T14:17:36.000Z</time>
      </trkpt>
      <trkpt lat="44.16143" lon="0.76457">
        <ele>159</ele>
        <time>2024-04-11T14:17:37.000Z</time>
      </trkpt>
      <trkpt lat="44.16143" lon="0.76457">
        <ele>159</ele>
        <time>2024-04-11T14:17:38.000Z</time>
      </trkpt>
      <trkpt lat="44.16143" lon="0.76457">
        <ele>159</ele>
        <time>2024-04-11T14:17:39.000Z</time>
      </trkpt>
      <trkpt lat="44.16143" lon="0.76457">
        <ele>159</ele>
        <time>2024-04-11T14:17:40.000Z</time>
      </trkpt>
      <trkpt lat="44.16143" lon="0.76457">
        <ele>159</ele>
        <time>2024-04-11T14:17:41.000Z</time>
      </trkpt>
      <trkpt lat="44.16143" lon="0.76457">
        <ele>159</ele>
        <time>2024-04-11T14:17:42.000Z</time>
      </trkpt>
      <trkpt lat="44.16143" lon="0.76457">
        <ele>159</ele>
        <time>2024-04-11T14:17:43.000Z</time>
      </trkpt>
      <trkpt lat="44.16143" lon="0.76457">
        <ele>159</ele>
        <time>2024-04-11T14:17:44.000Z</time>
      </trkpt>
      <trkpt lat="44.16143" lon="0.76457">
        <ele>159</ele>
        <time>2024-04-11T14:17:45.000Z</time>
      </trkpt>
      <trkpt lat="44.16143" lon="0.76457">
        <ele>159</ele>
        <time>2024-04-11T14:17:46.000Z</time>
      </trkpt>
      <trkpt lat="44.16143" lon="0.76457">
        <ele>159</ele>
        <time>2024-04-11T14:17:47.000Z</time>
      </trkpt>
      <trkpt lat="44.16143" lon="0.76457">
        <ele>159</ele>
        <time>2024-04-11T14:17:48.000Z</time>
      </trkpt>
      <trkpt lat="44.16143" lon="0.76457">
        <ele>159</ele>
        <time>2024-04-11T14:17:49.000Z</time>
      </trkpt>
      <trkpt lat="44.16143" lon="0.76457">
        <ele>159</ele>
        <time>2024-04-11T14:17:50.000Z</time>
      </trkpt>
      <trkpt lat="44.16143" lon="0.76457">
        <ele>159</ele>
        <time>2024-04-11T14:17:51.000Z</time>
      </trkpt>
      <trkpt lat="44.16143" lon="0.76457">
        <ele>159</ele>
        <time>2024-04-11T14:17:52.000Z</time>
      </trkpt>
      <trkpt lat="44.16143" lon="0.76457">
        <ele>159</ele>
        <time>2024-04-11T14:17:53.000Z</time>
      </trkpt>
      <trkpt lat="44.16143" lon="0.76457">
        <ele>159</ele>
        <time>2024-04-11T14:17:54.000Z</time>
      </trkpt>
      <trkpt lat="44.16143" lon="0.76457">
        <ele>159</ele>
        <time>2024-04-11T14:17:55.000Z</time>
      </trkpt>
      <trkpt lat="44.16143" lon="0.76457">
        <ele>159</ele>
        <time>2024-04-11T14:17:56.000Z</time>
      </trkpt>
      <trkpt lat="44.16142" lon="0.76457">
        <ele>159</ele>
        <time>2024-04-11T14:17:57.000Z</time>
      </trkpt>
      <trkpt lat="44.16142" lon="0.76456">
        <ele>160</ele>
        <time>2024-04-11T14:17:58.000Z</time>
      </trkpt>
      <trkpt lat="44.16142" lon="0.76456">
        <ele>160</ele>
        <time>2024-04-11T14:17:59.000Z</time>
      </trkpt>
      <trkpt lat="44.16141" lon="0.76455">
        <ele>159</ele>
        <time>2024-04-11T14:18:00.000Z</time>
      </trkpt>
      <trkpt lat="44.16141" lon="0.76455">
        <ele>159</ele>
        <time>2024-04-11T14:18:01.000Z</time>
      </trkpt>
      <trkpt lat="44.16141" lon="0.76455">
        <ele>159</ele>
        <time>2024-04-11T14:18:02.000Z</time>
      </trkpt>
      <trkpt lat="44.1614" lon="0.76454">
        <ele>160</ele>
        <time>2024-04-11T14:18:03.000Z</time>
      </trkpt>
      <trkpt lat="44.16139" lon="0.76453">
        <ele>159</ele>
        <time>2024-04-11T14:18:04.000Z</time>
      </trkpt>
      <trkpt lat="44.16139" lon="0.76452">
        <ele>159</ele>
        <time>2024-04-11T14:18:05.000Z</time>
      </trkpt>
      <trkpt lat="44.16138" lon="0.76451">
        <ele>159</ele>
        <time>2024-04-11T14:18:06.000Z</time>
      </trkpt>
      <trkpt lat="44.16137" lon="0.76451">
        <ele>159</ele>
        <time>2024-04-11T14:18:07.000Z</time>
      </trkpt>
      <trkpt lat="44.16136" lon="0.7645">
        <ele>159</ele>
        <time>2024-04-11T14:18:08.000Z</time>
      </trkpt>
      <trkpt lat="44.16136" lon="0.76449">
        <ele>159</ele>
        <time>2024-04-11T14:18:09.000Z</time>
      </trkpt>
      <trkpt lat="44.16135" lon="0.76448">
        <ele>159</ele>
        <time>2024-04-11T14:18:10.000Z</time>
      </trkpt>
      <trkpt lat="44.16134" lon="0.76447">
        <ele>159</ele>
        <time>2024-04-11T14:18:11.000Z</time>
      </trkpt>
      <trkpt lat="44.16133" lon="0.76446">
        <ele>159</ele>
        <time>2024-04-11T14:18:12.000Z</time>
      </trkpt>
      <trkpt lat="44.16133" lon="0.76445">
        <ele>158</ele>
        <time>2024-04-11T14:18:13.000Z</time>
      </trkpt>
      <trkpt lat="44.16132" lon="0.76444">
        <ele>158</ele>
        <time>2024-04-11T14:18:14.000Z</time>
      </trkpt>
      <trkpt lat="44.16131" lon="0.76444">
        <ele>158</ele>
        <time>2024-04-11T14:18:15.000Z</time>
      </trkpt>
      <trkpt lat="44.16131" lon="0.76443">
        <ele>157</ele>
        <time>2024-04-11T14:18:16.000Z</time>
      </trkpt>
      <trkpt lat="44.1613" lon="0.76443">
        <ele>157</ele>
        <time>2024-04-11T14:18:17.000Z</time>
      </trkpt>
      <trkpt lat="44.16129" lon="0.76442">
        <ele>157</ele>
        <time>2024-04-11T14:18:18.000Z</time>
      </trkpt>
      <trkpt lat="44.16129" lon="0.76441">
        <ele>157</ele>
        <time>2024-04-11T14:18:19.000Z</time>
      </trkpt>
      <trkpt lat="44.16128" lon="0.7644">
        <ele>157</ele>
        <time>2024-04-11T14:18:20.000Z</time>
      </trkpt>
      <trkpt lat="44.16127" lon="0.76439">
        <ele>157</ele>
        <time>2024-04-11T14:18:21.000Z</time>
      </trkpt>
      <trkpt lat="44.16127" lon="0.76438">
        <ele>157</ele>
        <time>2024-04-11T14:18:22.000Z</time>
      </trkpt>
      <trkpt lat="44.16126" lon="0.76437">
        <ele>157</ele>
        <time>2024-04-11T14:18:23.000Z</time>
      </trkpt>
      <trkpt lat="44.16125" lon="0.76437">
        <ele>157</ele>
        <time>2024-04-11T14:18:24.000Z</time>
      </trkpt>
      <trkpt lat="44.16125" lon="0.76436">
        <ele>157</ele>
        <time>2024-04-11T14:18:25.000Z</time>
      </trkpt>
      <trkpt lat="44.16124" lon="0.76435">
        <ele>157</ele>
        <time>2024-04-11T14:18:26.000Z</time>
      </trkpt>
      <trkpt lat="44.16124" lon="0.76434">
        <ele>157</ele>
        <time>2024-04-11T14:18:27.000Z</time>
      </trkpt>
      <trkpt lat="44.16123" lon="0.76433">
        <ele>157</ele>
        <time>2024-04-11T14:18:28.000Z</time>
      </trkpt>
      <trkpt lat="44.16122" lon="0.76432">
        <ele>157</ele>
        <time>2024-04-11T14:18:29.000Z</time>
      </trkpt>
      <trkpt lat="44.16122" lon="0.76431">
        <ele>157</ele>
        <time>2024-04-11T14:18:30.000Z</time>
      </trkpt>
      <trkpt lat="44.16121" lon="0.76429">
        <ele>157</ele>
        <time>2024-04-11T14:18:31.000Z</time>
      </trkpt>
      <trkpt lat="44.1612" lon="0.76428">
        <ele>157</ele>
        <time>2024-04-11T14:18:32.000Z</time>
      </trkpt>
      <trkpt lat="44.1612" lon="0.76427">
        <ele>157</ele>
        <time>2024-04-11T14:18:33.000Z</time>
      </trkpt>
      <trkpt lat="44.16119" lon="0.76426">
        <ele>157</ele>
        <time>2024-04-11T14:18:34.000Z</time>
      </trkpt>
      <trkpt lat="44.16118" lon="0.76425">
        <ele>157</ele>
        <time>2024-04-11T14:18:35.000Z</time>
      </trkpt>
      <trkpt lat="44.16118" lon="0.76424">
        <ele>157</ele>
        <time>2024-04-11T14:18:36.000Z</time>
      </trkpt>
      <trkpt lat="44.16117" lon="0.76423">
        <ele>157</ele>
        <time>2024-04-11T14:18:37.000Z</time>
      </trkpt>
      <trkpt lat="44.16116" lon="0.76423">
        <ele>157</ele>
        <time>2024-04-11T14:18:38.000Z</time>
      </trkpt>
      <trkpt lat="44.16115" lon="0.76422">
        <ele>157</ele>
        <time>2024-04-11T14:18:39.000Z</time>
      </trkpt>
      <trkpt lat="44.16115" lon="0.76422">
        <ele>157</ele>
        <time>2024-04-11T14:18:40.000Z</time>
      </trkpt>
      <trkpt lat="44.16114" lon="0.76421">
        <ele>156</ele>
        <time>2024-04-11T14:18:41.000Z</time>
      </trkpt>
      <trkpt lat="44.16113" lon="0.7642">
        <ele>156</ele>
        <time>2024-04-11T14:18:42.000Z</time>
      </trkpt>
      <trkpt lat="44.16113" lon="0.76419">
        <ele>156</ele>
        <time>2024-04-11T14:18:43.000Z</time>
      </trkpt>
      <trkpt lat="44.16112" lon="0.76418">
        <ele>156</ele>
        <time>2024-04-11T14:18:44.000Z</time>
      </trkpt>
      <trkpt lat="44.16111" lon="0.76417">
        <ele>156</ele>
        <time>2024-04-11T14:18:45.000Z</time>
      </trkpt>
      <trkpt lat="44.16111" lon="0.76416">
        <ele>156</ele>
        <time>2024-04-11T14:18:46.000Z</time>
      </trkpt>
      <trkpt lat="44.1611" lon="0.76415">
        <ele>156</ele>
        <time>2024-04-11T14:18:47.000Z</time>
      </trkpt>
      <trkpt lat="44.16109" lon="0.76414">
        <ele>155</ele>
        <time>2024-04-11T14:18:48.000Z</time>
      </trkpt>
      <trkpt lat="44.16109" lon="0.76413">
        <ele>156</ele>
        <time>2024-04-11T14:18:49.000Z</time>
      </trkpt>
      <trkpt lat="44.16108" lon="0.76412">
        <ele>155</ele>
        <time>2024-04-11T14:18:50.000Z</time>
      </trkpt>
      <trkpt lat="44.16107" lon="0.76411">
        <ele>155</ele>
        <time>2024-04-11T14:18:51.000Z</time>
      </trkpt>
      <trkpt lat="44.16106" lon="0.7641">
        <ele>156</ele>
        <time>2024-04-11T14:18:52.000Z</time>
      </trkpt>
      <trkpt lat="44.16105" lon="0.76409">
        <ele>155</ele>
        <time>2024-04-11T14:18:53.000Z</time>
      </trkpt>
      <trkpt lat="44.16104" lon="0.76408">
        <ele>155</ele>
        <time>2024-04-11T14:18:54.000Z</time>
      </trkpt>
      <trkpt lat="44.16103" lon="0.76408">
        <ele>156</ele>
        <time>2024-04-11T14:18:55.000Z</time>
      </trkpt>
      <trkpt lat="44.16103" lon="0.76407">
        <ele>156</ele>
        <time>2024-04-11T14:18:56.000Z</time>
      </trkpt>
      <trkpt lat="44.16102" lon="0.76406">
        <ele>156</ele>
        <time>2024-04-11T14:18:57.000Z</time>
      </trkpt>
      <trkpt lat="44.16102" lon="0.76405">
        <ele>156</ele>
        <time>2024-04-11T14:18:58.000Z</time>
      </trkpt>
      <trkpt lat="44.16101" lon="0.76404">
        <ele>156</ele>
        <time>2024-04-11T14:18:59.000Z</time>
      </trkpt>
      <trkpt lat="44.161" lon="0.76402">
        <ele>156</ele>
        <time>2024-04-11T14:19:00.000Z</time>
      </trkpt>
      <trkpt lat="44.161" lon="0.76401">
        <ele>156</ele>
        <time>2024-04-11T14:19:01.000Z</time>
      </trkpt>
      <trkpt lat="44.16099" lon="0.764">
        <ele>155</ele>
        <time>2024-04-11T14:19:02.000Z</time>
      </trkpt>
      <trkpt lat="44.16098" lon="0.76399">
        <ele>155</ele>
        <time>2024-04-11T14:19:03.000Z</time>
      </trkpt>
      <trkpt lat="44.16097" lon="0.76399">
        <ele>155</ele>
        <time>2024-04-11T14:19:04.000Z</time>
      </trkpt>
      <trkpt lat="44.16097" lon="0.76398">
        <ele>154</ele>
        <time>2024-04-11T14:19:05.000Z</time>
      </trkpt>
      <trkpt lat="44.16096" lon="0.76396">
        <ele>154</ele>
        <time>2024-04-11T14:19:06.000Z</time>
      </trkpt>
      <trkpt lat="44.16095" lon="0.76395">
        <ele>154</ele>
        <time>2024-04-11T14:19:07.000Z</time>
      </trkpt>
      <trkpt lat="44.16094" lon="0.76395">
        <ele>154</ele>
        <time>2024-04-11T14:19:08.000Z</time>
      </trkpt>
      <trkpt lat="44.16094" lon="0.76394">
        <ele>154</ele>
        <time>2024-04-11T14:19:09.000Z</time>
      </trkpt>
      <trkpt lat="44.16093" lon="0.76393">
        <ele>154</ele>
        <time>2024-04-11T14:19:10.000Z</time>
      </trkpt>
      <trkpt lat="44.16092" lon="0.76392">
        <ele>154</ele>
        <time>2024-04-11T14:19:11.000Z</time>
      </trkpt>
      <trkpt lat="44.16091" lon="0.76392">
        <ele>153</ele>
        <time>2024-04-11T14:19:12.000Z</time>
      </trkpt>
      <trkpt lat="44.1609" lon="0.76391">
        <ele>153</ele>
        <time>2024-04-11T14:19:13.000Z</time>
      </trkpt>
      <trkpt lat="44.16089" lon="0.7639">
        <ele>153</ele>
        <time>2024-04-11T14:19:14.000Z</time>
      </trkpt>
      <trkpt lat="44.16088" lon="0.76389">
        <ele>152</ele>
        <time>2024-04-11T14:19:15.000Z</time>
      </trkpt>
      <trkpt lat="44.16088" lon="0.76389">
        <ele>152</ele>
        <time>2024-04-11T14:19:16.000Z</time>
      </trkpt>
      <trkpt lat="44.16087" lon="0.76388">
        <ele>151</ele>
        <time>2024-04-11T14:19:17.000Z</time>
      </trkpt>
      <trkpt lat="44.16086" lon="0.76387">
        <ele>151</ele>
        <time>2024-04-11T14:19:18.000Z</time>
      </trkpt>
      <trkpt lat="44.16086" lon="0.76386">
        <ele>151</ele>
        <time>2024-04-11T14:19:19.000Z</time>
      </trkpt>
      <trkpt lat="44.16085" lon="0.76385">
        <ele>151</ele>
        <time>2024-04-11T14:19:20.000Z</time>
      </trkpt>
      <trkpt lat="44.16084" lon="0.76384">
        <ele>151</ele>
        <time>2024-04-11T14:19:21.000Z</time>
      </trkpt>
      <trkpt lat="44.16083" lon="0.76383">
        <ele>150</ele>
        <time>2024-04-11T14:19:22.000Z</time>
      </trkpt>
      <trkpt lat="44.16082" lon="0.76383">
        <ele>150</ele>
        <time>2024-04-11T14:19:23.000Z</time>
      </trkpt>
      <trkpt lat="44.16082" lon="0.76382">
        <ele>150</ele>
        <time>2024-04-11T14:19:24.000Z</time>
      </trkpt>
      <trkpt lat="44.16081" lon="0.76381">
        <ele>150</ele>
        <time>2024-04-11T14:19:25.000Z</time>
      </trkpt>
      <trkpt lat="44.1608" lon="0.7638">
        <ele>150</ele>
        <time>2024-04-11T14:19:26.000Z</time>
      </trkpt>
      <trkpt lat="44.1608" lon="0.76379">
        <ele>149</ele>
        <time>2024-04-11T14:19:27.000Z</time>
      </trkpt>
      <trkpt lat="44.16079" lon="0.76378">
        <ele>149</ele>
        <time>2024-04-11T14:19:28.000Z</time>
      </trkpt>
      <trkpt lat="44.16078" lon="0.76377">
        <ele>149</ele>
        <time>2024-04-11T14:19:29.000Z</time>
      </trkpt>
      <trkpt lat="44.16077" lon="0.76376">
        <ele>149</ele>
        <time>2024-04-11T14:19:30.000Z</time>
      </trkpt>
      <trkpt lat="44.16077" lon="0.76375">
        <ele>149</ele>
        <time>2024-04-11T14:19:31.000Z</time>
      </trkpt>
      <trkpt lat="44.16076" lon="0.76374">
        <ele>149</ele>
        <time>2024-04-11T14:19:32.000Z</time>
      </trkpt>
      <trkpt lat="44.16075" lon="0.76373">
        <ele>149</ele>
        <time>2024-04-11T14:19:33.000Z</time>
      </trkpt>
      <trkpt lat="44.16075" lon="0.76372">
        <ele>149</ele>
        <time>2024-04-11T14:19:34.000Z</time>
      </trkpt>
      <trkpt lat="44.16074" lon="0.76372">
        <ele>149</ele>
        <time>2024-04-11T14:19:35.000Z</time>
      </trkpt>
      <trkpt lat="44.16073" lon="0.76371">
        <ele>149</ele>
        <time>2024-04-11T14:19:36.000Z</time>
      </trkpt>
      <trkpt lat="44.16072" lon="0.7637">
        <ele>149</ele>
        <time>2024-04-11T14:19:37.000Z</time>
      </trkpt>
      <trkpt lat="44.16071" lon="0.76369">
        <ele>149</ele>
        <time>2024-04-11T14:19:38.000Z</time>
      </trkpt>
      <trkpt lat="44.1607" lon="0.76368">
        <ele>148</ele>
        <time>2024-04-11T14:19:39.000Z</time>
      </trkpt>
      <trkpt lat="44.16069" lon="0.76367">
        <ele>148</ele>
        <time>2024-04-11T14:19:40.000Z</time>
      </trkpt>
      <trkpt lat="44.16069" lon="0.76366">
        <ele>148</ele>
        <time>2024-04-11T14:19:41.000Z</time>
      </trkpt>
      <trkpt lat="44.16068" lon="0.76366">
        <ele>148</ele>
        <time>2024-04-11T14:19:42.000Z</time>
      </trkpt>
      <trkpt lat="44.16067" lon="0.76365">
        <ele>148</ele>
        <time>2024-04-11T14:19:43.000Z</time>
      </trkpt>
      <trkpt lat="44.16066" lon="0.76364">
        <ele>147</ele>
        <time>2024-04-11T14:19:44.000Z</time>
      </trkpt>
      <trkpt lat="44.16065" lon="0.76363">
        <ele>148</ele>
        <time>2024-04-11T14:19:45.000Z</time>
      </trkpt>
      <trkpt lat="44.16064" lon="0.76362">
        <ele>147</ele>
        <time>2024-04-11T14:19:46.000Z</time>
      </trkpt>
      <trkpt lat="44.16063" lon="0.76361">
        <ele>147</ele>
        <time>2024-04-11T14:19:47.000Z</time>
      </trkpt>
      <trkpt lat="44.16062" lon="0.7636">
        <ele>147</ele>
        <time>2024-04-11T14:19:48.000Z</time>
      </trkpt>
      <trkpt lat="44.16062" lon="0.76359">
        <ele>147</ele>
        <time>2024-04-11T14:19:49.000Z</time>
      </trkpt>
      <trkpt lat="44.16061" lon="0.76358">
        <ele>147</ele>
        <time>2024-04-11T14:19:50.000Z</time>
      </trkpt>
      <trkpt lat="44.1606" lon="0.76358">
        <ele>147</ele>
        <time>2024-04-11T14:19:51.000Z</time>
      </trkpt>
      <trkpt lat="44.16059" lon="0.76357">
        <ele>146</ele>
        <time>2024-04-11T14:19:52.000Z</time>
      </trkpt>
      <trkpt lat="44.16058" lon="0.76356">
        <ele>147</ele>
        <time>2024-04-11T14:19:53.000Z</time>
      </trkpt>
      <trkpt lat="44.16058" lon="0.76355">
        <ele>147</ele>
        <time>2024-04-11T14:19:54.000Z</time>
      </trkpt>
      <trkpt lat="44.16057" lon="0.76353">
        <ele>147</ele>
        <time>2024-04-11T14:19:55.000Z</time>
      </trkpt>
      <trkpt lat="44.16056" lon="0.76352">
        <ele>148</ele>
        <time>2024-04-11T14:19:56.000Z</time>
      </trkpt>
      <trkpt lat="44.16056" lon="0.76351">
        <ele>148</ele>
        <time>2024-04-11T14:19:57.000Z</time>
      </trkpt>
      <trkpt lat="44.16055" lon="0.7635">
        <ele>148</ele>
        <time>2024-04-11T14:19:58.000Z</time>
      </trkpt>
      <trkpt lat="44.16054" lon="0.76349">
        <ele>148</ele>
        <time>2024-04-11T14:19:59.000Z</time>
      </trkpt>
      <trkpt lat="44.16054" lon="0.76348">
        <ele>148</ele>
        <time>2024-04-11T14:20:00.000Z</time>
      </trkpt>
      <trkpt lat="44.16053" lon="0.76348">
        <ele>148</ele>
        <time>2024-04-11T14:20:01.000Z</time>
      </trkpt>
      <trkpt lat="44.16052" lon="0.76347">
        <ele>147</ele>
        <time>2024-04-11T14:20:02.000Z</time>
      </trkpt>
      <trkpt lat="44.16051" lon="0.76346">
        <ele>147</ele>
        <time>2024-04-11T14:20:03.000Z</time>
      </trkpt>
      <trkpt lat="44.16051" lon="0.76345">
        <ele>147</ele>
        <time>2024-04-11T14:20:04.000Z</time>
      </trkpt>
      <trkpt lat="44.1605" lon="0.76344">
        <ele>147</ele>
        <time>2024-04-11T14:20:05.000Z</time>
      </trkpt>
      <trkpt lat="44.16049" lon="0.76343">
        <ele>147</ele>
        <time>2024-04-11T14:20:06.000Z</time>
      </trkpt>
      <trkpt lat="44.16048" lon="0.76342">
        <ele>147</ele>
        <time>2024-04-11T14:20:07.000Z</time>
      </trkpt>
      <trkpt lat="44.16047" lon="0.76341">
        <ele>147</ele>
        <time>2024-04-11T14:20:08.000Z</time>
      </trkpt>
      <trkpt lat="44.16046" lon="0.7634">
        <ele>147</ele>
        <time>2024-04-11T14:20:09.000Z</time>
      </trkpt>
      <trkpt lat="44.16045" lon="0.76339">
        <ele>147</ele>
        <time>2024-04-11T14:20:10.000Z</time>
      </trkpt>
      <trkpt lat="44.16045" lon="0.76338">
        <ele>147</ele>
        <time>2024-04-11T14:20:11.000Z</time>
      </trkpt>
      <trkpt lat="44.16044" lon="0.76337">
        <ele>147</ele>
        <time>2024-04-11T14:20:12.000Z</time>
      </trkpt>
      <trkpt lat="44.16043" lon="0.76336">
        <ele>148</ele>
        <time>2024-04-11T14:20:13.000Z</time>
      </trkpt>
      <trkpt lat="44.16042" lon="0.76335">
        <ele>148</ele>
        <time>2024-04-11T14:20:14.000Z</time>
      </trkpt>
      <trkpt lat="44.16042" lon="0.76334">
        <ele>148</ele>
        <time>2024-04-11T14:20:15.000Z</time>
      </trkpt>
      <trkpt lat="44.16041" lon="0.76333">
        <ele>148</ele>
        <time>2024-04-11T14:20:16.000Z</time>
      </trkpt>
      <trkpt lat="44.1604" lon="0.76332">
        <ele>147</ele>
        <time>2024-04-11T14:20:17.000Z</time>
      </trkpt>
      <trkpt lat="44.16039" lon="0.76331">
        <ele>147</ele>
        <time>2024-04-11T14:20:18.000Z</time>
      </trkpt>
      <trkpt lat="44.16038" lon="0.7633">
        <ele>147</ele>
        <time>2024-04-11T14:20:19.000Z</time>
      </trkpt>
      <trkpt lat="44.16038" lon="0.76329">
        <ele>147</ele>
        <time>2024-04-11T14:20:20.000Z</time>
      </trkpt>
      <trkpt lat="44.16037" lon="0.76328">
        <ele>148</ele>
        <time>2024-04-11T14:20:21.000Z</time>
      </trkpt>
      <trkpt lat="44.16036" lon="0.76326">
        <ele>147</ele>
        <time>2024-04-11T14:20:22.000Z</time>
      </trkpt>
      <trkpt lat="44.16035" lon="0.76325">
        <ele>148</ele>
        <time>2024-04-11T14:20:23.000Z</time>
      </trkpt>
      <trkpt lat="44.16034" lon="0.76324">
        <ele>148</ele>
        <time>2024-04-11T14:20:24.000Z</time>
      </trkpt>
      <trkpt lat="44.16033" lon="0.76323">
        <ele>148</ele>
        <time>2024-04-11T14:20:25.000Z</time>
      </trkpt>
      <trkpt lat="44.16032" lon="0.76322">
        <ele>148</ele>
        <time>2024-04-11T14:20:26.000Z</time>
      </trkpt>
      <trkpt lat="44.16031" lon="0.7632">
        <ele>148</ele>
        <time>2024-04-11T14:20:27.000Z</time>
      </trkpt>
      <trkpt lat="44.1603" lon="0.76319">
        <ele>148</ele>
        <time>2024-04-11T14:20:28.000Z</time>
      </trkpt>
      <trkpt lat="44.16029" lon="0.76318">
        <ele>148</ele>
        <time>2024-04-11T14:20:29.000Z</time>
      </trkpt>
      <trkpt lat="44.16028" lon="0.76317">
        <ele>148</ele>
        <time>2024-04-11T14:20:30.000Z</time>
      </trkpt>
      <trkpt lat="44.16027" lon="0.76316">
        <ele>148</ele>
        <time>2024-04-11T14:20:31.000Z</time>
      </trkpt>
      <trkpt lat="44.16027" lon="0.76315">
        <ele>148</ele>
        <time>2024-04-11T14:20:32.000Z</time>
      </trkpt>
      <trkpt lat="44.16026" lon="0.76314">
        <ele>147</ele>
        <time>2024-04-11T14:20:33.000Z</time>
      </trkpt>
      <trkpt lat="44.16025" lon="0.76313">
        <ele>147</ele>
        <time>2024-04-11T14:20:34.000Z</time>
      </trkpt>
      <trkpt lat="44.16024" lon="0.76312">
        <ele>147</ele>
        <time>2024-04-11T14:20:35.000Z</time>
      </trkpt>
      <trkpt lat="44.16023" lon="0.76311">
        <ele>147</ele>
        <time>2024-04-11T14:20:36.000Z</time>
      </trkpt>
      <trkpt lat="44.16022" lon="0.76311">
        <ele>147</ele>
        <time>2024-04-11T14:20:37.000Z</time>
      </trkpt>
      <trkpt lat="44.16022" lon="0.7631">
        <ele>147</ele>
        <time>2024-04-11T14:20:38.000Z</time>
      </trkpt>
      <trkpt lat="44.16021" lon="0.76309">
        <ele>147</ele>
        <time>2024-04-11T14:20:39.000Z</time>
      </trkpt>
      <trkpt lat="44.1602" lon="0.76308">
        <ele>147</ele>
        <time>2024-04-11T14:20:40.000Z</time>
      </trkpt>
      <trkpt lat="44.16019" lon="0.76307">
        <ele>146</ele>
        <time>2024-04-11T14:20:41.000Z</time>
      </trkpt>
      <trkpt lat="44.16018" lon="0.76306">
        <ele>146</ele>
        <time>2024-04-11T14:20:42.000Z</time>
      </trkpt>
      <trkpt lat="44.16017" lon="0.76305">
        <ele>145</ele>
        <time>2024-04-11T14:20:43.000Z</time>
      </trkpt>
      <trkpt lat="44.16017" lon="0.76304">
        <ele>146</ele>
        <time>2024-04-11T14:20:44.000Z</time>
      </trkpt>
      <trkpt lat="44.16016" lon="0.76303">
        <ele>145</ele>
        <time>2024-04-11T14:20:45.000Z</time>
      </trkpt>
      <trkpt lat="44.16015" lon="0.76302">
        <ele>145</ele>
        <time>2024-04-11T14:20:46.000Z</time>
      </trkpt>
      <trkpt lat="44.16014" lon="0.76301">
        <ele>145</ele>
        <time>2024-04-11T14:20:47.000Z</time>
      </trkpt>
      <trkpt lat="44.16013" lon="0.763">
        <ele>145</ele>
        <time>2024-04-11T14:20:48.000Z</time>
      </trkpt>
      <trkpt lat="44.16012" lon="0.763">
        <ele>145</ele>
        <time>2024-04-11T14:20:49.000Z</time>
      </trkpt>
      <trkpt lat="44.16011" lon="0.76299">
        <ele>144</ele>
        <time>2024-04-11T14:20:50.000Z</time>
      </trkpt>
      <trkpt lat="44.1601" lon="0.76298">
        <ele>144</ele>
        <time>2024-04-11T14:20:51.000Z</time>
      </trkpt>
      <trkpt lat="44.16009" lon="0.76297">
        <ele>144</ele>
        <time>2024-04-11T14:20:52.000Z</time>
      </trkpt>
      <trkpt lat="44.16008" lon="0.76296">
        <ele>144</ele>
        <time>2024-04-11T14:20:53.000Z</time>
      </trkpt>
      <trkpt lat="44.16007" lon="0.76296">
        <ele>143</ele>
        <time>2024-04-11T14:20:54.000Z</time>
      </trkpt>
      <trkpt lat="44.16006" lon="0.76295">
        <ele>143</ele>
        <time>2024-04-11T14:20:55.000Z</time>
      </trkpt>
      <trkpt lat="44.16005" lon="0.76294">
        <ele>143</ele>
        <time>2024-04-11T14:20:56.000Z</time>
      </trkpt>
      <trkpt lat="44.16004" lon="0.76293">
        <ele>143</ele>
        <time>2024-04-11T14:20:57.000Z</time>
      </trkpt>
      <trkpt lat="44.16003" lon="0.76292">
        <ele>143</ele>
        <time>2024-04-11T14:20:58.000Z</time>
      </trkpt>
      <trkpt lat="44.16002" lon="0.76291">
        <ele>143</ele>
        <time>2024-04-11T14:20:59.000Z</time>
      </trkpt>
      <trkpt lat="44.16001" lon="0.7629">
        <ele>143</ele>
        <time>2024-04-11T14:21:00.000Z</time>
      </trkpt>
      <trkpt lat="44.16" lon="0.76289">
        <ele>143</ele>
        <time>2024-04-11T14:21:01.000Z</time>
      </trkpt>
      <trkpt lat="44.15999" lon="0.76289">
        <ele>143</ele>
        <time>2024-04-11T14:21:02.000Z</time>
      </trkpt>
      <trkpt lat="44.15998" lon="0.76288">
        <ele>142</ele>
        <time>2024-04-11T14:21:03.000Z</time>
      </trkpt>
      <trkpt lat="44.15997" lon="0.76288">
        <ele>142</ele>
        <time>2024-04-11T14:21:04.000Z</time>
      </trkpt>
      <trkpt lat="44.15996" lon="0.76287">
        <ele>142</ele>
        <time>2024-04-11T14:21:05.000Z</time>
      </trkpt>
      <trkpt lat="44.15995" lon="0.76287">
        <ele>142</ele>
        <time>2024-04-11T14:21:06.000Z</time>
      </trkpt>
      <trkpt lat="44.15994" lon="0.76286">
        <ele>142</ele>
        <time>2024-04-11T14:21:07.000Z</time>
      </trkpt>
      <trkpt lat="44.15993" lon="0.76285">
        <ele>142</ele>
        <time>2024-04-11T14:21:08.000Z</time>
      </trkpt>
      <trkpt lat="44.15992" lon="0.76285">
        <ele>142</ele>
        <time>2024-04-11T14:21:09.000Z</time>
      </trkpt>
      <trkpt lat="44.15991" lon="0.76284">
        <ele>142</ele>
        <time>2024-04-11T14:21:10.000Z</time>
      </trkpt>
      <trkpt lat="44.1599" lon="0.76284">
        <ele>142</ele>
        <time>2024-04-11T14:21:11.000Z</time>
      </trkpt>
      <trkpt lat="44.15989" lon="0.76283">
        <ele>142</ele>
        <time>2024-04-11T14:21:12.000Z</time>
      </trkpt>
      <trkpt lat="44.15988" lon="0.76283">
        <ele>142</ele>
        <time>2024-04-11T14:21:13.000Z</time>
      </trkpt>
      <trkpt lat="44.15987" lon="0.76282">
        <ele>141</ele>
        <time>2024-04-11T14:21:14.000Z</time>
      </trkpt>
      <trkpt lat="44.15986" lon="0.76282">
        <ele>141</ele>
        <time>2024-04-11T14:21:15.000Z</time>
      </trkpt>
      <trkpt lat="44.15985" lon="0.76282">
        <ele>141</ele>
        <time>2024-04-11T14:21:16.000Z</time>
      </trkpt>
      <trkpt lat="44.15984" lon="0.76282">
        <ele>141</ele>
        <time>2024-04-11T14:21:17.000Z</time>
      </trkpt>
      <trkpt lat="44.15983" lon="0.76282">
        <ele>141</ele>
        <time>2024-04-11T14:21:18.000Z</time>
      </trkpt>
      <trkpt lat="44.15982" lon="0.76282">
        <ele>141</ele>
        <time>2024-04-11T14:21:19.000Z</time>
      </trkpt>
      <trkpt lat="44.15981" lon="0.76281">
        <ele>141</ele>
        <time>2024-04-11T14:21:20.000Z</time>
      </trkpt>
      <trkpt lat="44.1598" lon="0.76281">
        <ele>141</ele>
        <time>2024-04-11T14:21:21.000Z</time>
      </trkpt>
      <trkpt lat="44.15979" lon="0.76281">
        <ele>140</ele>
        <time>2024-04-11T14:21:22.000Z</time>
      </trkpt>
      <trkpt lat="44.15978" lon="0.76281">
        <ele>140</ele>
        <time>2024-04-11T14:21:23.000Z</time>
      </trkpt>
      <trkpt lat="44.15977" lon="0.76281">
        <ele>140</ele>
        <time>2024-04-11T14:21:24.000Z</time>
      </trkpt>
      <trkpt lat="44.15976" lon="0.76281">
        <ele>140</ele>
        <time>2024-04-11T14:21:25.000Z</time>
      </trkpt>
      <trkpt lat="44.15975" lon="0.76281">
        <ele>140</ele>
        <time>2024-04-11T14:21:26.000Z</time>
      </trkpt>
      <trkpt lat="44.15974" lon="0.7628">
        <ele>139</ele>
        <time>2024-04-11T14:21:27.000Z</time>
      </trkpt>
      <trkpt lat="44.15973" lon="0.7628">
        <ele>139</ele>
        <time>2024-04-11T14:21:28.000Z</time>
      </trkpt>
      <trkpt lat="44.15972" lon="0.7628">
        <ele>139</ele>
        <time>2024-04-11T14:21:29.000Z</time>
      </trkpt>
      <trkpt lat="44.15971" lon="0.7628">
        <ele>139</ele>
        <time>2024-04-11T14:21:30.000Z</time>
      </trkpt>
      <trkpt lat="44.1597" lon="0.7628">
        <ele>139</ele>
        <time>2024-04-11T14:21:31.000Z</time>
      </trkpt>
      <trkpt lat="44.15969" lon="0.7628">
        <ele>139</ele>
        <time>2024-04-11T14:21:32.000Z</time>
      </trkpt>
      <trkpt lat="44.15968" lon="0.76279">
        <ele>139</ele>
        <time>2024-04-11T14:21:33.000Z</time>
      </trkpt>
      <trkpt lat="44.15967" lon="0.76279">
        <ele>139</ele>
        <time>2024-04-11T14:21:34.000Z</time>
      </trkpt>
      <trkpt lat="44.15966" lon="0.76279">
        <ele>139</ele>
        <time>2024-04-11T14:21:35.000Z</time>
      </trkpt>
      <trkpt lat="44.15965" lon="0.76278">
        <ele>139</ele>
        <time>2024-04-11T14:21:36.000Z</time>
      </trkpt>
      <trkpt lat="44.15964" lon="0.76278">
        <ele>138</ele>
        <time>2024-04-11T14:21:37.000Z</time>
      </trkpt>
      <trkpt lat="44.15963" lon="0.76278">
        <ele>138</ele>
        <time>2024-04-11T14:21:38.000Z</time>
      </trkpt>
      <trkpt lat="44.15962" lon="0.76278">
        <ele>138</ele>
        <time>2024-04-11T14:21:39.000Z</time>
      </trkpt>
      <trkpt lat="44.15961" lon="0.76278">
        <ele>138</ele>
        <time>2024-04-11T14:21:40.000Z</time>
      </trkpt>
      <trkpt lat="44.1596" lon="0.76278">
        <ele>138</ele>
        <time>2024-04-11T14:21:41.000Z</time>
      </trkpt>
      <trkpt lat="44.15959" lon="0.76277">
        <ele>138</ele>
        <time>2024-04-11T14:21:42.000Z</time>
      </trkpt>
      <trkpt lat="44.15958" lon="0.76277">
        <ele>137</ele>
        <time>2024-04-11T14:21:43.000Z</time>
      </trkpt>
      <trkpt lat="44.15957" lon="0.76277">
        <ele>137</ele>
        <time>2024-04-11T14:21:44.000Z</time>
      </trkpt>
      <trkpt lat="44.15956" lon="0.76277">
        <ele>137</ele>
        <time>2024-04-11T14:21:45.000Z</time>
      </trkpt>
      <trkpt lat="44.15955" lon="0.76277">
        <ele>137</ele>
        <time>2024-04-11T14:21:46.000Z</time>
      </trkpt>
      <trkpt lat="44.15954" lon="0.76277">
        <ele>137</ele>
        <time>2024-04-11T14:21:47.000Z</time>
      </trkpt>
      <trkpt lat="44.15953" lon="0.76276">
        <ele>137</ele>
        <time>2024-04-11T14:21:48.000Z</time>
      </trkpt>
      <trkpt lat="44.15952" lon="0.76276">
        <ele>137</ele>
        <time>2024-04-11T14:21:49.000Z</time>
      </trkpt>
      <trkpt lat="44.15951" lon="0.76276">
        <ele>137</ele>
        <time>2024-04-11T14:21:50.000Z</time>
      </trkpt>
      <trkpt lat="44.1595" lon="0.76276">
        <ele>137</ele>
        <time>2024-04-11T14:21:51.000Z</time>
      </trkpt>
      <trkpt lat="44.15949" lon="0.76276">
        <ele>137</ele>
        <time>2024-04-11T14:21:52.000Z</time>
      </trkpt>
      <trkpt lat="44.15948" lon="0.76276">
        <ele>136</ele>
        <time>2024-04-11T14:21:53.000Z</time>
      </trkpt>
      <trkpt lat="44.15946" lon="0.76276">
        <ele>136</ele>
        <time>2024-04-11T14:21:54.000Z</time>
      </trkpt>
      <trkpt lat="44.15945" lon="0.76276">
        <ele>136</ele>
        <time>2024-04-11T14:21:55.000Z</time>
      </trkpt>
      <trkpt lat="44.15944" lon="0.76276">
        <ele>136</ele>
        <time>2024-04-11T14:21:56.000Z</time>
      </trkpt>
      <trkpt lat="44.15943" lon="0.76275">
        <ele>136</ele>
        <time>2024-04-11T14:21:57.000Z</time>
      </trkpt>
      <trkpt lat="44.15942" lon="0.76275">
        <ele>136</ele>
        <time>2024-04-11T14:21:58.000Z</time>
      </trkpt>
      <trkpt lat="44.15941" lon="0.76275">
        <ele>135</ele>
        <time>2024-04-11T14:21:59.000Z</time>
      </trkpt>
      <trkpt lat="44.1594" lon="0.76275">
        <ele>135</ele>
        <time>2024-04-11T14:22:00.000Z</time>
      </trkpt>
      <trkpt lat="44.15939" lon="0.76274">
        <ele>135</ele>
        <time>2024-04-11T14:22:01.000Z</time>
      </trkpt>
      <trkpt lat="44.15937" lon="0.76274">
        <ele>135</ele>
        <time>2024-04-11T14:22:02.000Z</time>
      </trkpt>
      <trkpt lat="44.15936" lon="0.76274">
        <ele>135</ele>
        <time>2024-04-11T14:22:03.000Z</time>
      </trkpt>
      <trkpt lat="44.15935" lon="0.76273">
        <ele>135</ele>
        <time>2024-04-11T14:22:04.000Z</time>
      </trkpt>
      <trkpt lat="44.15934" lon="0.76273">
        <ele>134</ele>
        <time>2024-04-11T14:22:05.000Z</time>
      </trkpt>
      <trkpt lat="44.15933" lon="0.76272">
        <ele>134</ele>
        <time>2024-04-11T14:22:06.000Z</time>
      </trkpt>
      <trkpt lat="44.15932" lon="0.76272">
        <ele>134</ele>
        <time>2024-04-11T14:22:07.000Z</time>
      </trkpt>
      <trkpt lat="44.15931" lon="0.76271">
        <ele>134</ele>
        <time>2024-04-11T14:22:08.000Z</time>
      </trkpt>
      <trkpt lat="44.1593" lon="0.76271">
        <ele>134</ele>
        <time>2024-04-11T14:22:09.000Z</time>
      </trkpt>
      <trkpt lat="44.15929" lon="0.7627">
        <ele>134</ele>
        <time>2024-04-11T14:22:10.000Z</time>
      </trkpt>
      <trkpt lat="44.15928" lon="0.76269">
        <ele>134</ele>
        <time>2024-04-11T14:22:11.000Z</time>
      </trkpt>
      <trkpt lat="44.15927" lon="0.76269">
        <ele>134</ele>
        <time>2024-04-11T14:22:12.000Z</time>
      </trkpt>
      <trkpt lat="44.15926" lon="0.76268">
        <ele>134</ele>
        <time>2024-04-11T14:22:13.000Z</time>
      </trkpt>
      <trkpt lat="44.15925" lon="0.76267">
        <ele>134</ele>
        <time>2024-04-11T14:22:14.000Z</time>
      </trkpt>
      <trkpt lat="44.15923" lon="0.76267">
        <ele>134</ele>
        <time>2024-04-11T14:22:15.000Z</time>
      </trkpt>
      <trkpt lat="44.15923" lon="0.76266">
        <ele>134</ele>
        <time>2024-04-11T14:22:16.000Z</time>
      </trkpt>
      <trkpt lat="44.15922" lon="0.76266">
        <ele>134</ele>
        <time>2024-04-11T14:22:17.000Z</time>
      </trkpt>
      <trkpt lat="44.15921" lon="0.76265">
        <ele>134</ele>
        <time>2024-04-11T14:22:18.000Z</time>
      </trkpt>
      <trkpt lat="44.1592" lon="0.76265">
        <ele>135</ele>
        <time>2024-04-11T14:22:19.000Z</time>
      </trkpt>
      <trkpt lat="44.15919" lon="0.76264">
        <ele>134</ele>
        <time>2024-04-11T14:22:20.000Z</time>
      </trkpt>
      <trkpt lat="44.15918" lon="0.76264">
        <ele>134</ele>
        <time>2024-04-11T14:22:21.000Z</time>
      </trkpt>
      <trkpt lat="44.15917" lon="0.76263">
        <ele>134</ele>
        <time>2024-04-11T14:22:22.000Z</time>
      </trkpt>
      <trkpt lat="44.15916" lon="0.76263">
        <ele>134</ele>
        <time>2024-04-11T14:22:23.000Z</time>
      </trkpt>
      <trkpt lat="44.15915" lon="0.76262">
        <ele>134</ele>
        <time>2024-04-11T14:22:24.000Z</time>
      </trkpt>
      <trkpt lat="44.15914" lon="0.76262">
        <ele>133</ele>
        <time>2024-04-11T14:22:25.000Z</time>
      </trkpt>
      <trkpt lat="44.15913" lon="0.76262">
        <ele>134</ele>
        <time>2024-04-11T14:22:26.000Z</time>
      </trkpt>
      <trkpt lat="44.15912" lon="0.76261">
        <ele>133</ele>
        <time>2024-04-11T14:22:27.000Z</time>
      </trkpt>
      <trkpt lat="44.15911" lon="0.76261">
        <ele>134</ele>
        <time>2024-04-11T14:22:28.000Z</time>
      </trkpt>
      <trkpt lat="44.1591" lon="0.7626">
        <ele>133</ele>
        <time>2024-04-11T14:22:29.000Z</time>
      </trkpt>
      <trkpt lat="44.15909" lon="0.7626">
        <ele>133</ele>
        <time>2024-04-11T14:22:30.000Z</time>
      </trkpt>
      <trkpt lat="44.15907" lon="0.7626">
        <ele>133</ele>
        <time>2024-04-11T14:22:31.000Z</time>
      </trkpt>
      <trkpt lat="44.15906" lon="0.76259">
        <ele>133</ele>
        <time>2024-04-11T14:22:32.000Z</time>
      </trkpt>
      <trkpt lat="44.15905" lon="0.76259">
        <ele>133</ele>
        <time>2024-04-11T14:22:33.000Z</time>
      </trkpt>
      <trkpt lat="44.15904" lon="0.76259">
        <ele>133</ele>
        <time>2024-04-11T14:22:34.000Z</time>
      </trkpt>
      <trkpt lat="44.15903" lon="0.76258">
        <ele>132</ele>
        <time>2024-04-11T14:22:35.000Z</time>
      </trkpt>
      <trkpt lat="44.15902" lon="0.76258">
        <ele>132</ele>
        <time>2024-04-11T14:22:36.000Z</time>
      </trkpt>
      <trkpt lat="44.15901" lon="0.76257">
        <ele>132</ele>
        <time>2024-04-11T14:22:37.000Z</time>
      </trkpt>
      <trkpt lat="44.159" lon="0.76257">
        <ele>132</ele>
        <time>2024-04-11T14:22:38.000Z</time>
      </trkpt>
      <trkpt lat="44.15899" lon="0.76256">
        <ele>132</ele>
        <time>2024-04-11T14:22:39.000Z</time>
      </trkpt>
      <trkpt lat="44.15898" lon="0.76255">
        <ele>132</ele>
        <time>2024-04-11T14:22:40.000Z</time>
      </trkpt>
      <trkpt lat="44.15898" lon="0.76255">
        <ele>132</ele>
        <time>2024-04-11T14:22:41.000Z</time>
      </trkpt>
      <trkpt lat="44.15897" lon="0.76254">
        <ele>132</ele>
        <time>2024-04-11T14:22:42.000Z</time>
      </trkpt>
      <trkpt lat="44.15896" lon="0.76253">
        <ele>132</ele>
        <time>2024-04-11T14:22:43.000Z</time>
      </trkpt>
      <trkpt lat="44.15895" lon="0.76253">
        <ele>131</ele>
        <time>2024-04-11T14:22:44.000Z</time>
      </trkpt>
      <trkpt lat="44.15895" lon="0.76252">
        <ele>131</ele>
        <time>2024-04-11T14:22:45.000Z</time>
      </trkpt>
      <trkpt lat="44.15894" lon="0.76251">
        <ele>131</ele>
        <time>2024-04-11T14:22:46.000Z</time>
      </trkpt>
      <trkpt lat="44.15893" lon="0.76251">
        <ele>131</ele>
        <time>2024-04-11T14:22:47.000Z</time>
      </trkpt>
      <trkpt lat="44.15892" lon="0.7625">
        <ele>131</ele>
        <time>2024-04-11T14:22:48.000Z</time>
      </trkpt>
      <trkpt lat="44.15892" lon="0.76249">
        <ele>130</ele>
        <time>2024-04-11T14:22:49.000Z</time>
      </trkpt>
      <trkpt lat="44.15891" lon="0.76249">
        <ele>130</ele>
        <time>2024-04-11T14:22:50.000Z</time>
      </trkpt>
      <trkpt lat="44.1589" lon="0.76248">
        <ele>130</ele>
        <time>2024-04-11T14:22:51.000Z</time>
      </trkpt>
      <trkpt lat="44.1589" lon="0.76247">
        <ele>130</ele>
        <time>2024-04-11T14:22:52.000Z</time>
      </trkpt>
      <trkpt lat="44.15889" lon="0.76247">
        <ele>129</ele>
        <time>2024-04-11T14:22:53.000Z</time>
      </trkpt>
      <trkpt lat="44.15888" lon="0.76246">
        <ele>129</ele>
        <time>2024-04-11T14:22:54.000Z</time>
      </trkpt>
      <trkpt lat="44.15888" lon="0.76246">
        <ele>129</ele>
        <time>2024-04-11T14:22:55.000Z</time>
      </trkpt>
      <trkpt lat="44.15887" lon="0.76245">
        <ele>129</ele>
        <time>2024-04-11T14:22:56.000Z</time>
      </trkpt>
      <trkpt lat="44.15886" lon="0.76245">
        <ele>128</ele>
        <time>2024-04-11T14:22:57.000Z</time>
      </trkpt>
      <trkpt lat="44.15885" lon="0.76245">
        <ele>128</ele>
        <time>2024-04-11T14:22:58.000Z</time>
      </trkpt>
      <trkpt lat="44.15884" lon="0.76244">
        <ele>128</ele>
        <time>2024-04-11T14:22:59.000Z</time>
      </trkpt>
      <trkpt lat="44.15884" lon="0.76244">
        <ele>128</ele>
        <time>2024-04-11T14:23:00.000Z</time>
      </trkpt>
      <trkpt lat="44.15883" lon="0.76243">
        <ele>127</ele>
        <time>2024-04-11T14:23:01.000Z</time>
      </trkpt>
      <trkpt lat="44.15882" lon="0.76243">
        <ele>127</ele>
        <time>2024-04-11T14:23:02.000Z</time>
      </trkpt>
      <trkpt lat="44.15881" lon="0.76242">
        <ele>127</ele>
        <time>2024-04-11T14:23:03.000Z</time>
      </trkpt>
      <trkpt lat="44.1588" lon="0.76242">
        <ele>126</ele>
        <time>2024-04-11T14:23:04.000Z</time>
      </trkpt>
      <trkpt lat="44.15879" lon="0.76241">
        <ele>126</ele>
        <time>2024-04-11T14:23:05.000Z</time>
      </trkpt>
      <trkpt lat="44.15878" lon="0.76241">
        <ele>126</ele>
        <time>2024-04-11T14:23:06.000Z</time>
      </trkpt>
      <trkpt lat="44.15877" lon="0.7624">
        <ele>126</ele>
        <time>2024-04-11T14:23:07.000Z</time>
      </trkpt>
      <trkpt lat="44.15876" lon="0.76239">
        <ele>126</ele>
        <time>2024-04-11T14:23:08.000Z</time>
      </trkpt>
      <trkpt lat="44.15875" lon="0.76239">
        <ele>126</ele>
        <time>2024-04-11T14:23:09.000Z</time>
      </trkpt>
      <trkpt lat="44.15874" lon="0.76238">
        <ele>125</ele>
        <time>2024-04-11T14:23:10.000Z</time>
      </trkpt>
      <trkpt lat="44.15873" lon="0.76237">
        <ele>125</ele>
        <time>2024-04-11T14:23:11.000Z</time>
      </trkpt>
      <trkpt lat="44.15872" lon="0.76236">
        <ele>125</ele>
        <time>2024-04-11T14:23:12.000Z</time>
      </trkpt>
      <trkpt lat="44.15871" lon="0.76236">
        <ele>125</ele>
        <time>2024-04-11T14:23:13.000Z</time>
      </trkpt>
      <trkpt lat="44.1587" lon="0.76235">
        <ele>124</ele>
        <time>2024-04-11T14:23:14.000Z</time>
      </trkpt>
      <trkpt lat="44.15869" lon="0.76234">
        <ele>124</ele>
        <time>2024-04-11T14:23:15.000Z</time>
      </trkpt>
      <trkpt lat="44.15868" lon="0.76233">
        <ele>124</ele>
        <time>2024-04-11T14:23:16.000Z</time>
      </trkpt>
      <trkpt lat="44.15868" lon="0.76232">
        <ele>123</ele>
        <time>2024-04-11T14:23:17.000Z</time>
      </trkpt>
      <trkpt lat="44.15867" lon="0.76232">
        <ele>123</ele>
        <time>2024-04-11T14:23:18.000Z</time>
      </trkpt>
      <trkpt lat="44.15866" lon="0.76231">
        <ele>123</ele>
        <time>2024-04-11T14:23:19.000Z</time>
      </trkpt>
      <trkpt lat="44.15866" lon="0.7623">
        <ele>122</ele>
        <time>2024-04-11T14:23:20.000Z</time>
      </trkpt>
      <trkpt lat="44.15865" lon="0.7623">
        <ele>122</ele>
        <time>2024-04-11T14:23:21.000Z</time>
      </trkpt>
      <trkpt lat="44.15864" lon="0.76229">
        <ele>122</ele>
        <time>2024-04-11T14:23:22.000Z</time>
      </trkpt>
      <trkpt lat="44.15863" lon="0.76229">
        <ele>122</ele>
        <time>2024-04-11T14:23:23.000Z</time>
      </trkpt>
      <trkpt lat="44.15863" lon="0.76229">
        <ele>122</ele>
        <time>2024-04-11T14:23:24.000Z</time>
      </trkpt>
      <trkpt lat="44.15862" lon="0.76229">
        <ele>122</ele>
        <time>2024-04-11T14:23:25.000Z</time>
      </trkpt>
      <trkpt lat="44.15861" lon="0.76229">
        <ele>122</ele>
        <time>2024-04-11T14:23:26.000Z</time>
      </trkpt>
      <trkpt lat="44.1586" lon="0.7623">
        <ele>122</ele>
        <time>2024-04-11T14:23:27.000Z</time>
      </trkpt>
      <trkpt lat="44.15859" lon="0.76231">
        <ele>122</ele>
        <time>2024-04-11T14:23:28.000Z</time>
      </trkpt>
      <trkpt lat="44.15859" lon="0.76232">
        <ele>122</ele>
        <time>2024-04-11T14:23:29.000Z</time>
      </trkpt>
      <trkpt lat="44.15858" lon="0.76232">
        <ele>122</ele>
        <time>2024-04-11T14:23:30.000Z</time>
      </trkpt>
      <trkpt lat="44.15858" lon="0.76234">
        <ele>122</ele>
        <time>2024-04-11T14:23:31.000Z</time>
      </trkpt>
      <trkpt lat="44.15857" lon="0.76235">
        <ele>122</ele>
        <time>2024-04-11T14:23:32.000Z</time>
      </trkpt>
      <trkpt lat="44.15857" lon="0.76236">
        <ele>123</ele>
        <time>2024-04-11T14:23:33.000Z</time>
      </trkpt>
      <trkpt lat="44.15857" lon="0.76237">
        <ele>123</ele>
        <time>2024-04-11T14:23:34.000Z</time>
      </trkpt>
      <trkpt lat="44.15856" lon="0.76237">
        <ele>123</ele>
        <time>2024-04-11T14:23:35.000Z</time>
      </trkpt>
      <trkpt lat="44.15856" lon="0.76238">
        <ele>123</ele>
        <time>2024-04-11T14:23:36.000Z</time>
      </trkpt>
      <trkpt lat="44.15855" lon="0.76239">
        <ele>124</ele>
        <time>2024-04-11T14:23:37.000Z</time>
      </trkpt>
      <trkpt lat="44.15855" lon="0.7624">
        <ele>124</ele>
        <time>2024-04-11T14:23:38.000Z</time>
      </trkpt>
      <trkpt lat="44.15855" lon="0.76241">
        <ele>124</ele>
        <time>2024-04-11T14:23:39.000Z</time>
      </trkpt>
      <trkpt lat="44.15854" lon="0.76242">
        <ele>124</ele>
        <time>2024-04-11T14:23:40.000Z</time>
      </trkpt>
      <trkpt lat="44.15854" lon="0.76243">
        <ele>124</ele>
        <time>2024-04-11T14:23:41.000Z</time>
      </trkpt>
      <trkpt lat="44.15853" lon="0.76244">
        <ele>124</ele>
        <time>2024-04-11T14:23:42.000Z</time>
      </trkpt>
      <trkpt lat="44.15852" lon="0.76245">
        <ele>125</ele>
        <time>2024-04-11T14:23:43.000Z</time>
      </trkpt>
      <trkpt lat="44.15852" lon="0.76245">
        <ele>125</ele>
        <time>2024-04-11T14:23:44.000Z</time>
      </trkpt>
      <trkpt lat="44.15851" lon="0.76247">
        <ele>125</ele>
        <time>2024-04-11T14:23:45.000Z</time>
      </trkpt>
      <trkpt lat="44.1585" lon="0.76247">
        <ele>125</ele>
        <time>2024-04-11T14:23:46.000Z</time>
      </trkpt>
      <trkpt lat="44.15849" lon="0.76248">
        <ele>125</ele>
        <time>2024-04-11T14:23:47.000Z</time>
      </trkpt>
      <trkpt lat="44.15848" lon="0.76248">
        <ele>125</ele>
        <time>2024-04-11T14:23:48.000Z</time>
      </trkpt>
      <trkpt lat="44.15847" lon="0.76248">
        <ele>125</ele>
        <time>2024-04-11T14:23:49.000Z</time>
      </trkpt>
      <trkpt lat="44.15846" lon="0.76249">
        <ele>125</ele>
        <time>2024-04-11T14:23:50.000Z</time>
      </trkpt>
      <trkpt lat="44.15845" lon="0.76249">
        <ele>125</ele>
        <time>2024-04-11T14:23:51.000Z</time>
      </trkpt>
      <trkpt lat="44.15844" lon="0.76249">
        <ele>124</ele>
        <time>2024-04-11T14:23:52.000Z</time>
      </trkpt>
      <trkpt lat="44.15843" lon="0.76249">
        <ele>124</ele>
        <time>2024-04-11T14:23:53.000Z</time>
      </trkpt>
      <trkpt lat="44.15842" lon="0.76249">
        <ele>123</ele>
        <time>2024-04-11T14:23:54.000Z</time>
      </trkpt>
      <trkpt lat="44.15841" lon="0.76248">
        <ele>124</ele>
        <time>2024-04-11T14:23:55.000Z</time>
      </trkpt>
      <trkpt lat="44.1584" lon="0.76248">
        <ele>124</ele>
        <time>2024-04-11T14:23:56.000Z</time>
      </trkpt>
      <trkpt lat="44.15838" lon="0.76247">
        <ele>124</ele>
        <time>2024-04-11T14:23:57.000Z</time>
      </trkpt>
      <trkpt lat="44.15837" lon="0.76247">
        <ele>124</ele>
        <time>2024-04-11T14:23:58.000Z</time>
      </trkpt>
      <trkpt lat="44.15837" lon="0.76247">
        <ele>124</ele>
        <time>2024-04-11T14:23:59.000Z</time>
      </trkpt>
      <trkpt lat="44.15836" lon="0.76247">
        <ele>125</ele>
        <time>2024-04-11T14:24:00.000Z</time>
      </trkpt>
      <trkpt lat="44.15836" lon="0.76246">
        <ele>125</ele>
        <time>2024-04-11T14:24:01.000Z</time>
      </trkpt>
      <trkpt lat="44.15835" lon="0.76246">
        <ele>124</ele>
        <time>2024-04-11T14:24:02.000Z</time>
      </trkpt>
      <trkpt lat="44.15834" lon="0.76246">
        <ele>123</ele>
        <time>2024-04-11T14:24:03.000Z</time>
      </trkpt>
      <trkpt lat="44.15834" lon="0.76246">
        <ele>123</ele>
        <time>2024-04-11T14:24:04.000Z</time>
      </trkpt>
      <trkpt lat="44.15833" lon="0.76246">
        <ele>123</ele>
        <time>2024-04-11T14:24:05.000Z</time>
      </trkpt>
      <trkpt lat="44.15832" lon="0.76246">
        <ele>124</ele>
        <time>2024-04-11T14:24:06.000Z</time>
      </trkpt>
      <trkpt lat="44.15831" lon="0.76245">
        <ele>124</ele>
        <time>2024-04-11T14:24:07.000Z</time>
      </trkpt>
      <trkpt lat="44.1583" lon="0.76245">
        <ele>124</ele>
        <time>2024-04-11T14:24:08.000Z</time>
      </trkpt>
      <trkpt lat="44.15829" lon="0.76245">
        <ele>124</ele>
        <time>2024-04-11T14:24:09.000Z</time>
      </trkpt>
      <trkpt lat="44.15828" lon="0.76245">
        <ele>124</ele>
        <time>2024-04-11T14:24:10.000Z</time>
      </trkpt>
      <trkpt lat="44.15827" lon="0.76244">
        <ele>124</ele>
        <time>2024-04-11T14:24:11.000Z</time>
      </trkpt>
      <trkpt lat="44.15826" lon="0.76244">
        <ele>125</ele>
        <time>2024-04-11T14:24:12.000Z</time>
      </trkpt>
      <trkpt lat="44.15825" lon="0.76243">
        <ele>125</ele>
        <time>2024-04-11T14:24:13.000Z</time>
      </trkpt>
      <trkpt lat="44.15824" lon="0.76243">
        <ele>125</ele>
        <time>2024-04-11T14:24:14.000Z</time>
      </trkpt>
      <trkpt lat="44.15823" lon="0.76243">
        <ele>126</ele>
        <time>2024-04-11T14:24:15.000Z</time>
      </trkpt>
      <trkpt lat="44.15822" lon="0.76243">
        <ele>126</ele>
        <time>2024-04-11T14:24:16.000Z</time>
      </trkpt>
      <trkpt lat="44.15821" lon="0.76242">
        <ele>126</ele>
        <time>2024-04-11T14:24:17.000Z</time>
      </trkpt>
      <trkpt lat="44.15821" lon="0.76242">
        <ele>126</ele>
        <time>2024-04-11T14:24:18.000Z</time>
      </trkpt>
      <trkpt lat="44.1582" lon="0.76242">
        <ele>126</ele>
        <time>2024-04-11T14:24:19.000Z</time>
      </trkpt>
      <trkpt lat="44.15819" lon="0.76242">
        <ele>126</ele>
        <time>2024-04-11T14:24:20.000Z</time>
      </trkpt>
      <trkpt lat="44.15818" lon="0.76241">
        <ele>126</ele>
        <time>2024-04-11T14:24:21.000Z</time>
      </trkpt>
      <trkpt lat="44.15817" lon="0.7624">
        <ele>127</ele>
        <time>2024-04-11T14:24:22.000Z</time>
      </trkpt>
      <trkpt lat="44.15816" lon="0.76239">
        <ele>127</ele>
        <time>2024-04-11T14:24:23.000Z</time>
      </trkpt>
      <trkpt lat="44.15815" lon="0.76239">
        <ele>127</ele>
        <time>2024-04-11T14:24:24.000Z</time>
      </trkpt>
      <trkpt lat="44.15814" lon="0.76238">
        <ele>127</ele>
        <time>2024-04-11T14:24:25.000Z</time>
      </trkpt>
      <trkpt lat="44.15813" lon="0.76238">
        <ele>126</ele>
        <time>2024-04-11T14:24:26.000Z</time>
      </trkpt>
      <trkpt lat="44.15812" lon="0.76237">
        <ele>126</ele>
        <time>2024-04-11T14:24:27.000Z</time>
      </trkpt>
      <trkpt lat="44.15811" lon="0.76237">
        <ele>126</ele>
        <time>2024-04-11T14:24:28.000Z</time>
      </trkpt>
      <trkpt lat="44.1581" lon="0.76236">
        <ele>127</ele>
        <time>2024-04-11T14:24:29.000Z</time>
      </trkpt>
      <trkpt lat="44.15809" lon="0.76235">
        <ele>126</ele>
        <time>2024-04-11T14:24:30.000Z</time>
      </trkpt>
      <trkpt lat="44.15808" lon="0.76234">
        <ele>127</ele>
        <time>2024-04-11T14:24:31.000Z</time>
      </trkpt>
      <trkpt lat="44.15807" lon="0.76233">
        <ele>127</ele>
        <time>2024-04-11T14:24:32.000Z</time>
      </trkpt>
      <trkpt lat="44.15806" lon="0.76233">
        <ele>127</ele>
        <time>2024-04-11T14:24:33.000Z</time>
      </trkpt>
      <trkpt lat="44.15805" lon="0.76232">
        <ele>127</ele>
        <time>2024-04-11T14:24:34.000Z</time>
      </trkpt>
      <trkpt lat="44.15804" lon="0.76231">
        <ele>127</ele>
        <time>2024-04-11T14:24:35.000Z</time>
      </trkpt>
      <trkpt lat="44.15803" lon="0.76231">
        <ele>127</ele>
        <time>2024-04-11T14:24:36.000Z</time>
      </trkpt>
      <trkpt lat="44.15803" lon="0.7623">
        <ele>127</ele>
        <time>2024-04-11T14:24:37.000Z</time>
      </trkpt>
      <trkpt lat="44.15802" lon="0.7623">
        <ele>127</ele>
        <time>2024-04-11T14:24:38.000Z</time>
      </trkpt>
      <trkpt lat="44.15801" lon="0.76229">
        <ele>127</ele>
        <time>2024-04-11T14:24:39.000Z</time>
      </trkpt>
      <trkpt lat="44.15801" lon="0.76229">
        <ele>127</ele>
        <time>2024-04-11T14:24:40.000Z</time>
      </trkpt>
      <trkpt lat="44.158" lon="0.76229">
        <ele>128</ele>
        <time>2024-04-11T14:24:41.000Z</time>
      </trkpt>
      <trkpt lat="44.158" lon="0.76228">
        <ele>128</ele>
        <time>2024-04-11T14:24:42.000Z</time>
      </trkpt>
      <trkpt lat="44.15799" lon="0.76228">
        <ele>129</ele>
        <time>2024-04-11T14:24:43.000Z</time>
      </trkpt>
      <trkpt lat="44.15798" lon="0.76228">
        <ele>128</ele>
        <time>2024-04-11T14:24:44.000Z</time>
      </trkpt>
      <trkpt lat="44.15798" lon="0.76228">
        <ele>128</ele>
        <time>2024-04-11T14:24:45.000Z</time>
      </trkpt>
      <trkpt lat="44.15797" lon="0.76228">
        <ele>128</ele>
        <time>2024-04-11T14:24:46.000Z</time>
      </trkpt>
      <trkpt lat="44.15797" lon="0.76228">
        <ele>128</ele>
        <time>2024-04-11T14:24:47.000Z</time>
      </trkpt>
      <trkpt lat="44.15797" lon="0.76228">
        <ele>129</ele>
        <time>2024-04-11T14:24:48.000Z</time>
      </trkpt>
      <trkpt lat="44.15796" lon="0.76228">
        <ele>129</ele>
        <time>2024-04-11T14:24:49.000Z</time>
      </trkpt>
      <trkpt lat="44.15796" lon="0.76228">
        <ele>129</ele>
        <time>2024-04-11T14:24:50.000Z</time>
      </trkpt>
      <trkpt lat="44.15796" lon="0.76228">
        <ele>129</ele>
        <time>2024-04-11T14:24:51.000Z</time>
      </trkpt>
      <trkpt lat="44.15795" lon="0.76228">
        <ele>129</ele>
        <time>2024-04-11T14:24:52.000Z</time>
      </trkpt>
      <trkpt lat="44.15795" lon="0.76227">
        <ele>130</ele>
        <time>2024-04-11T14:24:53.000Z</time>
      </trkpt>
      <trkpt lat="44.15795" lon="0.76227">
        <ele>130</ele>
        <time>2024-04-11T14:24:54.000Z</time>
      </trkpt>
      <trkpt lat="44.15795" lon="0.76227">
        <ele>130</ele>
        <time>2024-04-11T14:24:55.000Z</time>
      </trkpt>
      <trkpt lat="44.15795" lon="0.76227">
        <ele>130</ele>
        <time>2024-04-11T14:24:56.000Z</time>
      </trkpt>
      <trkpt lat="44.15795" lon="0.76227">
        <ele>130</ele>
        <time>2024-04-11T14:24:57.000Z</time>
      </trkpt>
      <trkpt lat="44.15794" lon="0.76227">
        <ele>130</ele>
        <time>2024-04-11T14:24:58.000Z</time>
      </trkpt>
      <trkpt lat="44.15794" lon="0.76228">
        <ele>130</ele>
        <time>2024-04-11T14:24:59.000Z</time>
      </trkpt>
      <trkpt lat="44.15794" lon="0.76228">
        <ele>130</ele>
        <time>2024-04-11T14:25:00.000Z</time>
      </trkpt>
      <trkpt lat="44.15794" lon="0.76228">
        <ele>130</ele>
        <time>2024-04-11T14:25:01.000Z</time>
      </trkpt>
      <trkpt lat="44.15794" lon="0.76227">
        <ele>130</ele>
        <time>2024-04-11T14:25:02.000Z</time>
      </trkpt>
      <trkpt lat="44.15794" lon="0.76227">
        <ele>130</ele>
        <time>2024-04-11T14:25:03.000Z</time>
      </trkpt>
      <trkpt lat="44.15794" lon="0.76227">
        <ele>130</ele>
        <time>2024-04-11T14:25:04.000Z</time>
      </trkpt>
      <trkpt lat="44.15794" lon="0.76227">
        <ele>131</ele>
        <time>2024-04-11T14:25:05.000Z</time>
      </trkpt>
      <trkpt lat="44.15793" lon="0.76227">
        <ele>131</ele>
        <time>2024-04-11T14:25:06.000Z</time>
      </trkpt>
      <trkpt lat="44.15793" lon="0.76227">
        <ele>131</ele>
        <time>2024-04-11T14:25:07.000Z</time>
      </trkpt>
      <trkpt lat="44.15793" lon="0.76226">
        <ele>131</ele>
        <time>2024-04-11T14:25:08.000Z</time>
      </trkpt>
      <trkpt lat="44.15793" lon="0.76226">
        <ele>131</ele>
        <time>2024-04-11T14:25:09.000Z</time>
      </trkpt>
      <trkpt lat="44.15793" lon="0.76226">
        <ele>131</ele>
        <time>2024-04-11T14:25:10.000Z</time>
      </trkpt>
      <trkpt lat="44.15793" lon="0.76226">
        <ele>132</ele>
        <time>2024-04-11T14:25:11.000Z</time>
      </trkpt>
      <trkpt lat="44.15793" lon="0.76226">
        <ele>132</ele>
        <time>2024-04-11T14:25:12.000Z</time>
      </trkpt>
      <trkpt lat="44.15792" lon="0.76225">
        <ele>132</ele>
        <time>2024-04-11T14:25:13.000Z</time>
      </trkpt>
      <trkpt lat="44.15792" lon="0.76225">
        <ele>132</ele>
        <time>2024-04-11T14:25:14.000Z</time>
      </trkpt>
      <trkpt lat="44.15792" lon="0.76225">
        <ele>132</ele>
        <time>2024-04-11T14:25:15.000Z</time>
      </trkpt>
      <trkpt lat="44.15792" lon="0.76225">
        <ele>132</ele>
        <time>2024-04-11T14:25:16.000Z</time>
      </trkpt>
      <trkpt lat="44.15792" lon="0.76225">
        <ele>132</ele>
        <time>2024-04-11T14:25:17.000Z</time>
      </trkpt>
      <trkpt lat="44.15792" lon="0.76225">
        <ele>132</ele>
        <time>2024-04-11T14:25:18.000Z</time>
      </trkpt>
      <trkpt lat="44.15792" lon="0.76225">
        <ele>132</ele>
        <time>2024-04-11T14:25:19.000Z</time>
      </trkpt>
      <trkpt lat="44.15792" lon="0.76225">
        <ele>133</ele>
        <time>2024-04-11T14:25:20.000Z</time>
      </trkpt>
      <trkpt lat="44.15791" lon="0.76225">
        <ele>133</ele>
        <time>2024-04-11T14:25:21.000Z</time>
      </trkpt>
      <trkpt lat="44.15791" lon="0.76225">
        <ele>133</ele>
        <time>2024-04-11T14:25:22.000Z</time>
      </trkpt>
      <trkpt lat="44.15791" lon="0.76225">
        <ele>132</ele>
        <time>2024-04-11T14:25:23.000Z</time>
      </trkpt>
      <trkpt lat="44.15791" lon="0.76225">
        <ele>133</ele>
        <time>2024-04-11T14:25:24.000Z</time>
      </trkpt>
      <trkpt lat="44.15791" lon="0.76225">
        <ele>132</ele>
        <time>2024-04-11T14:25:25.000Z</time>
      </trkpt>
      <trkpt lat="44.15791" lon="0.76225">
        <ele>132</ele>
        <time>2024-04-11T14:25:26.000Z</time>
      </trkpt>
      <trkpt lat="44.15791" lon="0.76225">
        <ele>132</ele>
        <time>2024-04-11T14:25:27.000Z</time>
      </trkpt>
      <trkpt lat="44.15791" lon="0.76225">
        <ele>132</ele>
        <time>2024-04-11T14:25:28.000Z</time>
      </trkpt>
      <trkpt lat="44.15791" lon="0.76225">
        <ele>133</ele>
        <time>2024-04-11T14:25:29.000Z</time>
      </trkpt>
      <trkpt lat="44.15791" lon="0.76225">
        <ele>133</ele>
        <time>2024-04-11T14:25:30.000Z</time>
      </trkpt>
      <trkpt lat="44.15791" lon="0.76224">
        <ele>132</ele>
        <time>2024-04-11T14:25:31.000Z</time>
      </trkpt>
      <trkpt lat="44.15791" lon="0.76224">
        <ele>132</ele>
        <time>2024-04-11T14:25:32.000Z</time>
      </trkpt>
      <trkpt lat="44.15791" lon="0.76224">
        <ele>132</ele>
        <time>2024-04-11T14:25:33.000Z</time>
      </trkpt>
      <trkpt lat="44.1579" lon="0.76224">
        <ele>132</ele>
        <time>2024-04-11T14:25:34.000Z</time>
      </trkpt>
      <trkpt lat="44.1579" lon="0.76224">
        <ele>132</ele>
        <time>2024-04-11T14:25:35.000Z</time>
      </trkpt>
      <trkpt lat="44.1579" lon="0.76224">
        <ele>132</ele>
        <time>2024-04-11T14:25:36.000Z</time>
      </trkpt>
      <trkpt lat="44.1579" lon="0.76224">
        <ele>132</ele>
        <time>2024-04-11T14:25:37.000Z</time>
      </trkpt>
      <trkpt lat="44.1579" lon="0.76224">
        <ele>131</ele>
        <time>2024-04-11T14:25:38.000Z</time>
      </trkpt>
      <trkpt lat="44.1579" lon="0.76224">
        <ele>131</ele>
        <time>2024-04-11T14:25:39.000Z</time>
      </trkpt>
      <trkpt lat="44.1579" lon="0.76225">
        <ele>131</ele>
        <time>2024-04-11T14:25:40.000Z</time>
      </trkpt>
      <trkpt lat="44.1579" lon="0.76225">
        <ele>131</ele>
        <time>2024-04-11T14:25:41.000Z</time>
      </trkpt>
      <trkpt lat="44.1579" lon="0.76225">
        <ele>132</ele>
        <time>2024-04-11T14:25:42.000Z</time>
      </trkpt>
      <trkpt lat="44.1579" lon="0.76225">
        <ele>132</ele>
        <time>2024-04-11T14:25:43.000Z</time>
      </trkpt>
      <trkpt lat="44.1579" lon="0.76226">
        <ele>132</ele>
        <time>2024-04-11T14:25:44.000Z</time>
      </trkpt>
      <trkpt lat="44.1579" lon="0.76226">
        <ele>132</ele>
        <time>2024-04-11T14:25:45.000Z</time>
      </trkpt>
      <trkpt lat="44.1579" lon="0.76226">
        <ele>131</ele>
        <time>2024-04-11T14:25:46.000Z</time>
      </trkpt>
      <trkpt lat="44.1579" lon="0.76226">
        <ele>131</ele>
        <time>2024-04-11T14:25:47.000Z</time>
      </trkpt>
      <trkpt lat="44.1579" lon="0.76226">
        <ele>131</ele>
        <time>2024-04-11T14:25:48.000Z</time>
      </trkpt>
      <trkpt lat="44.1579" lon="0.76226">
        <ele>131</ele>
        <time>2024-04-11T14:25:49.000Z</time>
      </trkpt>
      <trkpt lat="44.1579" lon="0.76226">
        <ele>131</ele>
        <time>2024-04-11T14:25:50.000Z</time>
      </trkpt>
      <trkpt lat="44.1579" lon="0.76226">
        <ele>131</ele>
        <time>2024-04-11T14:25:51.000Z</time>
      </trkpt>
      <trkpt lat="44.1579" lon="0.76226">
        <ele>131</ele>
        <time>2024-04-11T14:25:52.000Z</time>
      </trkpt>
      <trkpt lat="44.1579" lon="0.76226">
        <ele>131</ele>
        <time>2024-04-11T14:25:53.000Z</time>
      </trkpt>
      <trkpt lat="44.1579" lon="0.76226">
        <ele>131</ele>
        <time>2024-04-11T14:25:54.000Z</time>
      </trkpt>
      <trkpt lat="44.1579" lon="0.76226">
        <ele>131</ele>
        <time>2024-04-11T14:25:55.000Z</time>
      </trkpt>
      <trkpt lat="44.1579" lon="0.76226">
        <ele>130</ele>
        <time>2024-04-11T14:25:56.000Z</time>
      </trkpt>
      <trkpt lat="44.1579" lon="0.76226">
        <ele>130</ele>
        <time>2024-04-11T14:25:57.000Z</time>
      </trkpt>
      <trkpt lat="44.1579" lon="0.76226">
        <ele>130</ele>
        <time>2024-04-11T14:25:58.000Z</time>
      </trkpt>
      <trkpt lat="44.1579" lon="0.76225">
        <ele>129</ele>
        <time>2024-04-11T14:25:59.000Z</time>
      </trkpt>
      <trkpt lat="44.15789" lon="0.76225">
        <ele>129</ele>
        <time>2024-04-11T14:26:00.000Z</time>
      </trkpt>
      <trkpt lat="44.15789" lon="0.76225">
        <ele>129</ele>
        <time>2024-04-11T14:26:01.000Z</time>
      </trkpt>
      <trkpt lat="44.15789" lon="0.76226">
        <ele>129</ele>
        <time>2024-04-11T14:26:02.000Z</time>
      </trkpt>
      <trkpt lat="44.15789" lon="0.76226">
        <ele>128</ele>
        <time>2024-04-11T14:26:03.000Z</time>
      </trkpt>
      <trkpt lat="44.15789" lon="0.76226">
        <ele>129</ele>
        <time>2024-04-11T14:26:04.000Z</time>
      </trkpt>
      <trkpt lat="44.15789" lon="0.76226">
        <ele>129</ele>
        <time>2024-04-11T14:26:05.000Z</time>
      </trkpt>
      <trkpt lat="44.15789" lon="0.76226">
        <ele>129</ele>
        <time>2024-04-11T14:26:06.000Z</time>
      </trkpt>
      <trkpt lat="44.15789" lon="0.76226">
        <ele>129</ele>
        <time>2024-04-11T14:26:07.000Z</time>
      </trkpt>
      <trkpt lat="44.15789" lon="0.76226">
        <ele>129</ele>
        <time>2024-04-11T14:26:08.000Z</time>
      </trkpt>
      <trkpt lat="44.15789" lon="0.76226">
        <ele>129</ele>
        <time>2024-04-11T14:26:09.000Z</time>
      </trkpt>
      <trkpt lat="44.15789" lon="0.76226">
        <ele>128</ele>
        <time>2024-04-11T14:26:10.000Z</time>
      </trkpt>
      <trkpt lat="44.15788" lon="0.76227">
        <ele>128</ele>
        <time>2024-04-11T14:26:11.000Z</time>
      </trkpt>
      <trkpt lat="44.15788" lon="0.76227">
        <ele>128</ele>
        <time>2024-04-11T14:26:12.000Z</time>
      </trkpt>
      <trkpt lat="44.15787" lon="0.76227">
        <ele>128</ele>
        <time>2024-04-11T14:26:13.000Z</time>
      </trkpt>
      <trkpt lat="44.15787" lon="0.76227">
        <ele>128</ele>
        <time>2024-04-11T14:26:14.000Z</time>
      </trkpt>
      <trkpt lat="44.15786" lon="0.76227">
        <ele>128</ele>
        <time>2024-04-11T14:26:15.000Z</time>
      </trkpt>
      <trkpt lat="44.15785" lon="0.76227">
        <ele>129</ele>
        <time>2024-04-11T14:26:16.000Z</time>
      </trkpt>
      <trkpt lat="44.15784" lon="0.76227">
        <ele>129</ele>
        <time>2024-04-11T14:26:17.000Z</time>
      </trkpt>
      <trkpt lat="44.15783" lon="0.76227">
        <ele>129</ele>
        <time>2024-04-11T14:26:18.000Z</time>
      </trkpt>
      <trkpt lat="44.15783" lon="0.76227">
        <ele>129</ele>
        <time>2024-04-11T14:26:19.000Z</time>
      </trkpt>
      <trkpt lat="44.15782" lon="0.76228">
        <ele>128</ele>
        <time>2024-04-11T14:26:20.000Z</time>
      </trkpt>
      <trkpt lat="44.15781" lon="0.76228">
        <ele>129</ele>
        <time>2024-04-11T14:26:21.000Z</time>
      </trkpt>
      <trkpt lat="44.15781" lon="0.76228">
        <ele>129</ele>
        <time>2024-04-11T14:26:22.000Z</time>
      </trkpt>
      <trkpt lat="44.1578" lon="0.76228">
        <ele>129</ele>
        <time>2024-04-11T14:26:23.000Z</time>
      </trkpt>
      <trkpt lat="44.15779" lon="0.76228">
        <ele>129</ele>
        <time>2024-04-11T14:26:24.000Z</time>
      </trkpt>
      <trkpt lat="44.15779" lon="0.76228">
        <ele>128</ele>
        <time>2024-04-11T14:26:25.000Z</time>
      </trkpt>
      <trkpt lat="44.15779" lon="0.76228">
        <ele>128</ele>
        <time>2024-04-11T14:26:26.000Z</time>
      </trkpt>
      <trkpt lat="44.15779" lon="0.76228">
        <ele>128</ele>
        <time>2024-04-11T14:26:27.000Z</time>
      </trkpt>
      <trkpt lat="44.15779" lon="0.76228">
        <ele>128</ele>
        <time>2024-04-11T14:26:28.000Z</time>
      </trkpt>
      <trkpt lat="44.15779" lon="0.76228">
        <ele>128</ele>
        <time>2024-04-11T14:26:29.000Z</time>
      </trkpt>
      <trkpt lat="44.15779" lon="0.76228">
        <ele>128</ele>
        <time>2024-04-11T14:26:30.000Z</time>
      </trkpt>
      <trkpt lat="44.15779" lon="0.76227">
        <ele>128</ele>
        <time>2024-04-11T14:26:31.000Z</time>
      </trkpt>
      <trkpt lat="44.15778" lon="0.76227">
        <ele>128</ele>
        <time>2024-04-11T14:26:32.000Z</time>
      </trkpt>
      <trkpt lat="44.15777" lon="0.76226">
        <ele>128</ele>
        <time>2024-04-11T14:26:33.000Z</time>
      </trkpt>
      <trkpt lat="44.15777" lon="0.76226">
        <ele>128</ele>
        <time>2024-04-11T14:26:34.000Z</time>
      </trkpt>
      <trkpt lat="44.15776" lon="0.76225">
        <ele>128</ele>
        <time>2024-04-11T14:26:35.000Z</time>
      </trkpt>
      <trkpt lat="44.15775" lon="0.76225">
        <ele>127</ele>
        <time>2024-04-11T14:26:36.000Z</time>
      </trkpt>
      <trkpt lat="44.15775" lon="0.76224">
        <ele>127</ele>
        <time>2024-04-11T14:26:37.000Z</time>
      </trkpt>
      <trkpt lat="44.15774" lon="0.76224">
        <ele>127</ele>
        <time>2024-04-11T14:26:38.000Z</time>
      </trkpt>
      <trkpt lat="44.15773" lon="0.76223">
        <ele>127</ele>
        <time>2024-04-11T14:26:39.000Z</time>
      </trkpt>
      <trkpt lat="44.15773" lon="0.76223">
        <ele>126</ele>
        <time>2024-04-11T14:26:40.000Z</time>
      </trkpt>
      <trkpt lat="44.15772" lon="0.76222">
        <ele>126</ele>
        <time>2024-04-11T14:26:41.000Z</time>
      </trkpt>
      <trkpt lat="44.15771" lon="0.76221">
        <ele>125</ele>
        <time>2024-04-11T14:26:42.000Z</time>
      </trkpt>
      <trkpt lat="44.1577" lon="0.7622">
        <ele>125</ele>
        <time>2024-04-11T14:26:43.000Z</time>
      </trkpt>
      <trkpt lat="44.1577" lon="0.76219">
        <ele>125</ele>
        <time>2024-04-11T14:26:44.000Z</time>
      </trkpt>
      <trkpt lat="44.15769" lon="0.76218">
        <ele>125</ele>
        <time>2024-04-11T14:26:45.000Z</time>
      </trkpt>
      <trkpt lat="44.15769" lon="0.76217">
        <ele>124</ele>
        <time>2024-04-11T14:26:46.000Z</time>
      </trkpt>
      <trkpt lat="44.15768" lon="0.76216">
        <ele>124</ele>
        <time>2024-04-11T14:26:47.000Z</time>
      </trkpt>
      <trkpt lat="44.15767" lon="0.76215">
        <ele>124</ele>
        <time>2024-04-11T14:26:48.000Z</time>
      </trkpt>
      <trkpt lat="44.15767" lon="0.76214">
        <ele>124</ele>
        <time>2024-04-11T14:26:49.000Z</time>
      </trkpt>
      <trkpt lat="44.15766" lon="0.76213">
        <ele>124</ele>
        <time>2024-04-11T14:26:50.000Z</time>
      </trkpt>
      <trkpt lat="44.15765" lon="0.76212">
        <ele>124</ele>
        <time>2024-04-11T14:26:51.000Z</time>
      </trkpt>
      <trkpt lat="44.15764" lon="0.76211">
        <ele>124</ele>
        <time>2024-04-11T14:26:52.000Z</time>
      </trkpt>
      <trkpt lat="44.15764" lon="0.7621">
        <ele>123</ele>
        <time>2024-04-11T14:26:53.000Z</time>
      </trkpt>
      <trkpt lat="44.15763" lon="0.76209">
        <ele>123</ele>
        <time>2024-04-11T14:26:54.000Z</time>
      </trkpt>
      <trkpt lat="44.15762" lon="0.76208">
        <ele>123</ele>
        <time>2024-04-11T14:26:55.000Z</time>
      </trkpt>
      <trkpt lat="44.15762" lon="0.76207">
        <ele>123</ele>
        <time>2024-04-11T14:26:56.000Z</time>
      </trkpt>
      <trkpt lat="44.15761" lon="0.76206">
        <ele>123</ele>
        <time>2024-04-11T14:26:57.000Z</time>
      </trkpt>
      <trkpt lat="44.15761" lon="0.76205">
        <ele>123</ele>
        <time>2024-04-11T14:26:58.000Z</time>
      </trkpt>
      <trkpt lat="44.1576" lon="0.76203">
        <ele>122</ele>
        <time>2024-04-11T14:26:59.000Z</time>
      </trkpt>
      <trkpt lat="44.15759" lon="0.76202">
        <ele>123</ele>
        <time>2024-04-11T14:27:00.000Z</time>
      </trkpt>
      <trkpt lat="44.15758" lon="0.76201">
        <ele>122</ele>
        <time>2024-04-11T14:27:01.000Z</time>
      </trkpt>
      <trkpt lat="44.15758" lon="0.762">
        <ele>122</ele>
        <time>2024-04-11T14:27:02.000Z</time>
      </trkpt>
      <trkpt lat="44.15757" lon="0.76199">
        <ele>122</ele>
        <time>2024-04-11T14:27:03.000Z</time>
      </trkpt>
      <trkpt lat="44.15756" lon="0.76198">
        <ele>121</ele>
        <time>2024-04-11T14:27:04.000Z</time>
      </trkpt>
      <trkpt lat="44.15755" lon="0.76196">
        <ele>122</ele>
        <time>2024-04-11T14:27:05.000Z</time>
      </trkpt>
      <trkpt lat="44.15755" lon="0.76195">
        <ele>121</ele>
        <time>2024-04-11T14:27:06.000Z</time>
      </trkpt>
      <trkpt lat="44.15754" lon="0.76194">
        <ele>121</ele>
        <time>2024-04-11T14:27:07.000Z</time>
      </trkpt>
      <trkpt lat="44.15753" lon="0.76193">
        <ele>121</ele>
        <time>2024-04-11T14:27:08.000Z</time>
      </trkpt>
      <trkpt lat="44.15753" lon="0.76191">
        <ele>121</ele>
        <time>2024-04-11T14:27:09.000Z</time>
      </trkpt>
      <trkpt lat="44.15752" lon="0.7619">
        <ele>121</ele>
        <time>2024-04-11T14:27:10.000Z</time>
      </trkpt>
      <trkpt lat="44.15751" lon="0.76189">
        <ele>121</ele>
        <time>2024-04-11T14:27:11.000Z</time>
      </trkpt>
      <trkpt lat="44.15751" lon="0.76187">
        <ele>120</ele>
        <time>2024-04-11T14:27:12.000Z</time>
      </trkpt>
      <trkpt lat="44.1575" lon="0.76186">
        <ele>120</ele>
        <time>2024-04-11T14:27:13.000Z</time>
      </trkpt>
      <trkpt lat="44.1575" lon="0.76185">
        <ele>120</ele>
        <time>2024-04-11T14:27:14.000Z</time>
      </trkpt>
      <trkpt lat="44.15749" lon="0.76183">
        <ele>120</ele>
        <time>2024-04-11T14:27:15.000Z</time>
      </trkpt>
      <trkpt lat="44.15748" lon="0.76182">
        <ele>119</ele>
        <time>2024-04-11T14:27:16.000Z</time>
      </trkpt>
      <trkpt lat="44.15748" lon="0.76181">
        <ele>119</ele>
        <time>2024-04-11T14:27:17.000Z</time>
      </trkpt>
      <trkpt lat="44.15747" lon="0.76179">
        <ele>119</ele>
        <time>2024-04-11T14:27:18.000Z</time>
      </trkpt>
      <trkpt lat="44.15747" lon="0.76178">
        <ele>119</ele>
        <time>2024-04-11T14:27:19.000Z</time>
      </trkpt>
      <trkpt lat="44.15746" lon="0.76177">
        <ele>119</ele>
        <time>2024-04-11T14:27:20.000Z</time>
      </trkpt>
      <trkpt lat="44.15745" lon="0.76175">
        <ele>119</ele>
        <time>2024-04-11T14:27:21.000Z</time>
      </trkpt>
      <trkpt lat="44.15745" lon="0.76174">
        <ele>118</ele>
        <time>2024-04-11T14:27:22.000Z</time>
      </trkpt>
      <trkpt lat="44.15744" lon="0.76172">
        <ele>118</ele>
        <time>2024-04-11T14:27:23.000Z</time>
      </trkpt>
      <trkpt lat="44.15744" lon="0.76171">
        <ele>118</ele>
        <time>2024-04-11T14:27:24.000Z</time>
      </trkpt>
      <trkpt lat="44.15743" lon="0.7617">
        <ele>118</ele>
        <time>2024-04-11T14:27:25.000Z</time>
      </trkpt>
      <trkpt lat="44.15743" lon="0.76168">
        <ele>118</ele>
        <time>2024-04-11T14:27:26.000Z</time>
      </trkpt>
      <trkpt lat="44.15742" lon="0.76167">
        <ele>118</ele>
        <time>2024-04-11T14:27:27.000Z</time>
      </trkpt>
      <trkpt lat="44.15742" lon="0.76165">
        <ele>118</ele>
        <time>2024-04-11T14:27:28.000Z</time>
      </trkpt>
      <trkpt lat="44.15741" lon="0.76164">
        <ele>118</ele>
        <time>2024-04-11T14:27:29.000Z</time>
      </trkpt>
      <trkpt lat="44.1574" lon="0.76162">
        <ele>118</ele>
        <time>2024-04-11T14:27:30.000Z</time>
      </trkpt>
      <trkpt lat="44.1574" lon="0.76161">
        <ele>118</ele>
        <time>2024-04-11T14:27:31.000Z</time>
      </trkpt>
      <trkpt lat="44.15739" lon="0.76159">
        <ele>118</ele>
        <time>2024-04-11T14:27:32.000Z</time>
      </trkpt>
      <trkpt lat="44.15739" lon="0.76158">
        <ele>118</ele>
        <time>2024-04-11T14:27:33.000Z</time>
      </trkpt>
      <trkpt lat="44.15738" lon="0.76156">
        <ele>118</ele>
        <time>2024-04-11T14:27:34.000Z</time>
      </trkpt>
      <trkpt lat="44.15738" lon="0.76155">
        <ele>118</ele>
        <time>2024-04-11T14:27:35.000Z</time>
      </trkpt>
      <trkpt lat="44.15738" lon="0.76153">
        <ele>118</ele>
        <time>2024-04-11T14:27:36.000Z</time>
      </trkpt>
      <trkpt lat="44.15737" lon="0.76152">
        <ele>118</ele>
        <time>2024-04-11T14:27:37.000Z</time>
      </trkpt>
      <trkpt lat="44.15737" lon="0.7615">
        <ele>118</ele>
        <time>2024-04-11T14:27:38.000Z</time>
      </trkpt>
      <trkpt lat="44.15737" lon="0.76149">
        <ele>118</ele>
        <time>2024-04-11T14:27:39.000Z</time>
      </trkpt>
      <trkpt lat="44.15736" lon="0.76147">
        <ele>118</ele>
        <time>2024-04-11T14:27:40.000Z</time>
      </trkpt>
      <trkpt lat="44.15736" lon="0.76145">
        <ele>118</ele>
        <time>2024-04-11T14:27:41.000Z</time>
      </trkpt>
      <trkpt lat="44.15735" lon="0.76144">
        <ele>118</ele>
        <time>2024-04-11T14:27:42.000Z</time>
      </trkpt>
      <trkpt lat="44.15735" lon="0.76142">
        <ele>118</ele>
        <time>2024-04-11T14:27:43.000Z</time>
      </trkpt>
      <trkpt lat="44.15735" lon="0.76141">
        <ele>117</ele>
        <time>2024-04-11T14:27:44.000Z</time>
      </trkpt>
      <trkpt lat="44.15734" lon="0.76139">
        <ele>118</ele>
        <time>2024-04-11T14:27:45.000Z</time>
      </trkpt>
      <trkpt lat="44.15734" lon="0.76138">
        <ele>117</ele>
        <time>2024-04-11T14:27:46.000Z</time>
      </trkpt>
      <trkpt lat="44.15733" lon="0.76136">
        <ele>117</ele>
        <time>2024-04-11T14:27:47.000Z</time>
      </trkpt>
      <trkpt lat="44.15733" lon="0.76135">
        <ele>117</ele>
        <time>2024-04-11T14:27:48.000Z</time>
      </trkpt>
      <trkpt lat="44.15733" lon="0.76133">
        <ele>117</ele>
        <time>2024-04-11T14:27:49.000Z</time>
      </trkpt>
      <trkpt lat="44.15733" lon="0.76132">
        <ele>117</ele>
        <time>2024-04-11T14:27:50.000Z</time>
      </trkpt>
      <trkpt lat="44.15733" lon="0.7613">
        <ele>117</ele>
        <time>2024-04-11T14:27:51.000Z</time>
      </trkpt>
      <trkpt lat="44.15733" lon="0.76129">
        <ele>117</ele>
        <time>2024-04-11T14:27:52.000Z</time>
      </trkpt>
      <trkpt lat="44.15732" lon="0.76127">
        <ele>117</ele>
        <time>2024-04-11T14:27:53.000Z</time>
      </trkpt>
      <trkpt lat="44.15732" lon="0.76126">
        <ele>117</ele>
        <time>2024-04-11T14:27:54.000Z</time>
      </trkpt>
      <trkpt lat="44.15732" lon="0.76124">
        <ele>117</ele>
        <time>2024-04-11T14:27:55.000Z</time>
      </trkpt>
      <trkpt lat="44.15731" lon="0.76123">
        <ele>117</ele>
        <time>2024-04-11T14:27:56.000Z</time>
      </trkpt>
      <trkpt lat="44.15731" lon="0.76121">
        <ele>116</ele>
        <time>2024-04-11T14:27:57.000Z</time>
      </trkpt>
      <trkpt lat="44.1573" lon="0.7612">
        <ele>116</ele>
        <time>2024-04-11T14:27:58.000Z</time>
      </trkpt>
      <trkpt lat="44.1573" lon="0.76118">
        <ele>116</ele>
        <time>2024-04-11T14:27:59.000Z</time>
      </trkpt>
      <trkpt lat="44.1573" lon="0.76117">
        <ele>116</ele>
        <time>2024-04-11T14:28:00.000Z</time>
      </trkpt>
      <trkpt lat="44.1573" lon="0.76115">
        <ele>116</ele>
        <time>2024-04-11T14:28:01.000Z</time>
      </trkpt>
      <trkpt lat="44.15729" lon="0.76114">
        <ele>116</ele>
        <time>2024-04-11T14:28:02.000Z</time>
      </trkpt>
      <trkpt lat="44.15729" lon="0.76112">
        <ele>115</ele>
        <time>2024-04-11T14:28:03.000Z</time>
      </trkpt>
      <trkpt lat="44.15729" lon="0.76111">
        <ele>115</ele>
        <time>2024-04-11T14:28:04.000Z</time>
      </trkpt>
      <trkpt lat="44.15729" lon="0.76109">
        <ele>115</ele>
        <time>2024-04-11T14:28:05.000Z</time>
      </trkpt>
      <trkpt lat="44.15728" lon="0.76107">
        <ele>115</ele>
        <time>2024-04-11T14:28:06.000Z</time>
      </trkpt>
      <trkpt lat="44.15728" lon="0.76106">
        <ele>115</ele>
        <time>2024-04-11T14:28:07.000Z</time>
      </trkpt>
      <trkpt lat="44.15728" lon="0.76104">
        <ele>115</ele>
        <time>2024-04-11T14:28:08.000Z</time>
      </trkpt>
      <trkpt lat="44.15728" lon="0.76103">
        <ele>114</ele>
        <time>2024-04-11T14:28:09.000Z</time>
      </trkpt>
      <trkpt lat="44.15728" lon="0.76101">
        <ele>114</ele>
        <time>2024-04-11T14:28:10.000Z</time>
      </trkpt>
      <trkpt lat="44.15728" lon="0.761">
        <ele>114</ele>
        <time>2024-04-11T14:28:11.000Z</time>
      </trkpt>
      <trkpt lat="44.15728" lon="0.76098">
        <ele>114</ele>
        <time>2024-04-11T14:28:12.000Z</time>
      </trkpt>
      <trkpt lat="44.15727" lon="0.76097">
        <ele>114</ele>
        <time>2024-04-11T14:28:13.000Z</time>
      </trkpt>
      <trkpt lat="44.15727" lon="0.76095">
        <ele>114</ele>
        <time>2024-04-11T14:28:14.000Z</time>
      </trkpt>
      <trkpt lat="44.15727" lon="0.76094">
        <ele>114</ele>
        <time>2024-04-11T14:28:15.000Z</time>
      </trkpt>
      <trkpt lat="44.15727" lon="0.76092">
        <ele>114</ele>
        <time>2024-04-11T14:28:16.000Z</time>
      </trkpt>
      <trkpt lat="44.15726" lon="0.76091">
        <ele>113</ele>
        <time>2024-04-11T14:28:17.000Z</time>
      </trkpt>
      <trkpt lat="44.15726" lon="0.76089">
        <ele>113</ele>
        <time>2024-04-11T14:28:18.000Z</time>
      </trkpt>
      <trkpt lat="44.15726" lon="0.76088">
        <ele>113</ele>
        <time>2024-04-11T14:28:19.000Z</time>
      </trkpt>
      <trkpt lat="44.15726" lon="0.76086">
        <ele>113</ele>
        <time>2024-04-11T14:28:20.000Z</time>
      </trkpt>
      <trkpt lat="44.15725" lon="0.76084">
        <ele>113</ele>
        <time>2024-04-11T14:28:21.000Z</time>
      </trkpt>
      <trkpt lat="44.15725" lon="0.76083">
        <ele>113</ele>
        <time>2024-04-11T14:28:22.000Z</time>
      </trkpt>
      <trkpt lat="44.15725" lon="0.76081">
        <ele>113</ele>
        <time>2024-04-11T14:28:23.000Z</time>
      </trkpt>
      <trkpt lat="44.15725" lon="0.76079">
        <ele>113</ele>
        <time>2024-04-11T14:28:24.000Z</time>
      </trkpt>
      <trkpt lat="44.15725" lon="0.76078">
        <ele>113</ele>
        <time>2024-04-11T14:28:25.000Z</time>
      </trkpt>
      <trkpt lat="44.15725" lon="0.76076">
        <ele>113</ele>
        <time>2024-04-11T14:28:26.000Z</time>
      </trkpt>
      <trkpt lat="44.15724" lon="0.76074">
        <ele>112</ele>
        <time>2024-04-11T14:28:27.000Z</time>
      </trkpt>
      <trkpt lat="44.15724" lon="0.76073">
        <ele>112</ele>
        <time>2024-04-11T14:28:28.000Z</time>
      </trkpt>
      <trkpt lat="44.15724" lon="0.76071">
        <ele>112</ele>
        <time>2024-04-11T14:28:29.000Z</time>
      </trkpt>
      <trkpt lat="44.15724" lon="0.76069">
        <ele>112</ele>
        <time>2024-04-11T14:28:30.000Z</time>
      </trkpt>
      <trkpt lat="44.15724" lon="0.76068">
        <ele>112</ele>
        <time>2024-04-11T14:28:31.000Z</time>
      </trkpt>
      <trkpt lat="44.15724" lon="0.76066">
        <ele>112</ele>
        <time>2024-04-11T14:28:32.000Z</time>
      </trkpt>
      <trkpt lat="44.15724" lon="0.76064">
        <ele>112</ele>
        <time>2024-04-11T14:28:33.000Z</time>
      </trkpt>
      <trkpt lat="44.15724" lon="0.76062">
        <ele>112</ele>
        <time>2024-04-11T14:28:34.000Z</time>
      </trkpt>
      <trkpt lat="44.15724" lon="0.76061">
        <ele>111</ele>
        <time>2024-04-11T14:28:35.000Z</time>
      </trkpt>
      <trkpt lat="44.15724" lon="0.76059">
        <ele>111</ele>
        <time>2024-04-11T14:28:36.000Z</time>
      </trkpt>
      <trkpt lat="44.15724" lon="0.76058">
        <ele>111</ele>
        <time>2024-04-11T14:28:37.000Z</time>
      </trkpt>
      <trkpt lat="44.15724" lon="0.76056">
        <ele>111</ele>
        <time>2024-04-11T14:28:38.000Z</time>
      </trkpt>
      <trkpt lat="44.15724" lon="0.76054">
        <ele>111</ele>
        <time>2024-04-11T14:28:39.000Z</time>
      </trkpt>
      <trkpt lat="44.15724" lon="0.76053">
        <ele>111</ele>
        <time>2024-04-11T14:28:40.000Z</time>
      </trkpt>
      <trkpt lat="44.15724" lon="0.76051">
        <ele>111</ele>
        <time>2024-04-11T14:28:41.000Z</time>
      </trkpt>
      <trkpt lat="44.15724" lon="0.7605">
        <ele>111</ele>
        <time>2024-04-11T14:28:42.000Z</time>
      </trkpt>
      <trkpt lat="44.15723" lon="0.76048">
        <ele>110</ele>
        <time>2024-04-11T14:28:43.000Z</time>
      </trkpt>
      <trkpt lat="44.15723" lon="0.76047">
        <ele>110</ele>
        <time>2024-04-11T14:28:44.000Z</time>
      </trkpt>
      <trkpt lat="44.15723" lon="0.76045">
        <ele>110</ele>
        <time>2024-04-11T14:28:45.000Z</time>
      </trkpt>
      <trkpt lat="44.15723" lon="0.76044">
        <ele>110</ele>
        <time>2024-04-11T14:28:46.000Z</time>
      </trkpt>
      <trkpt lat="44.15723" lon="0.76042">
        <ele>110</ele>
        <time>2024-04-11T14:28:47.000Z</time>
      </trkpt>
      <trkpt lat="44.15723" lon="0.76041">
        <ele>110</ele>
        <time>2024-04-11T14:28:48.000Z</time>
      </trkpt>
      <trkpt lat="44.15723" lon="0.76039">
        <ele>110</ele>
        <time>2024-04-11T14:28:49.000Z</time>
      </trkpt>
      <trkpt lat="44.15723" lon="0.76038">
        <ele>109</ele>
        <time>2024-04-11T14:28:50.000Z</time>
      </trkpt>
      <trkpt lat="44.15723" lon="0.76036">
        <ele>109</ele>
        <time>2024-04-11T14:28:51.000Z</time>
      </trkpt>
      <trkpt lat="44.15722" lon="0.76035">
        <ele>109</ele>
        <time>2024-04-11T14:28:52.000Z</time>
      </trkpt>
      <trkpt lat="44.15722" lon="0.76033">
        <ele>109</ele>
        <time>2024-04-11T14:28:53.000Z</time>
      </trkpt>
      <trkpt lat="44.15722" lon="0.76032">
        <ele>109</ele>
        <time>2024-04-11T14:28:54.000Z</time>
      </trkpt>
      <trkpt lat="44.15722" lon="0.7603">
        <ele>109</ele>
        <time>2024-04-11T14:28:55.000Z</time>
      </trkpt>
      <trkpt lat="44.15722" lon="0.76029">
        <ele>109</ele>
        <time>2024-04-11T14:28:56.000Z</time>
      </trkpt>
      <trkpt lat="44.15722" lon="0.76027">
        <ele>108</ele>
        <time>2024-04-11T14:28:57.000Z</time>
      </trkpt>
      <trkpt lat="44.15721" lon="0.76026">
        <ele>108</ele>
        <time>2024-04-11T14:28:58.000Z</time>
      </trkpt>
      <trkpt lat="44.15721" lon="0.76024">
        <ele>108</ele>
        <time>2024-04-11T14:28:59.000Z</time>
      </trkpt>
      <trkpt lat="44.15721" lon="0.76023">
        <ele>108</ele>
        <time>2024-04-11T14:29:00.000Z</time>
      </trkpt>
      <trkpt lat="44.15721" lon="0.76021">
        <ele>108</ele>
        <time>2024-04-11T14:29:01.000Z</time>
      </trkpt>
      <trkpt lat="44.15721" lon="0.7602">
        <ele>108</ele>
        <time>2024-04-11T14:29:02.000Z</time>
      </trkpt>
      <trkpt lat="44.1572" lon="0.76018">
        <ele>107</ele>
        <time>2024-04-11T14:29:03.000Z</time>
      </trkpt>
      <trkpt lat="44.1572" lon="0.76017">
        <ele>107</ele>
        <time>2024-04-11T14:29:04.000Z</time>
      </trkpt>
      <trkpt lat="44.1572" lon="0.76015">
        <ele>107</ele>
        <time>2024-04-11T14:29:05.000Z</time>
      </trkpt>
      <trkpt lat="44.15719" lon="0.76014">
        <ele>107</ele>
        <time>2024-04-11T14:29:06.000Z</time>
      </trkpt>
      <trkpt lat="44.15719" lon="0.76012">
        <ele>107</ele>
        <time>2024-04-11T14:29:07.000Z</time>
      </trkpt>
      <trkpt lat="44.15719" lon="0.7601">
        <ele>107</ele>
        <time>2024-04-11T14:29:08.000Z</time>
      </trkpt>
      <trkpt lat="44.15718" lon="0.76009">
        <ele>107</ele>
        <time>2024-04-11T14:29:09.000Z</time>
      </trkpt>
      <trkpt lat="44.15718" lon="0.76007">
        <ele>106</ele>
        <time>2024-04-11T14:29:10.000Z</time>
      </trkpt>
      <trkpt lat="44.15717" lon="0.76006">
        <ele>106</ele>
        <time>2024-04-11T14:29:11.000Z</time>
      </trkpt>
      <trkpt lat="44.15717" lon="0.76004">
        <ele>106</ele>
        <time>2024-04-11T14:29:12.000Z</time>
      </trkpt>
      <trkpt lat="44.15717" lon="0.76003">
        <ele>106</ele>
        <time>2024-04-11T14:29:13.000Z</time>
      </trkpt>
      <trkpt lat="44.15716" lon="0.76001">
        <ele>106</ele>
        <time>2024-04-11T14:29:14.000Z</time>
      </trkpt>
      <trkpt lat="44.15716" lon="0.76">
        <ele>105</ele>
        <time>2024-04-11T14:29:15.000Z</time>
      </trkpt>
      <trkpt lat="44.15716" lon="0.75998">
        <ele>105</ele>
        <time>2024-04-11T14:29:16.000Z</time>
      </trkpt>
      <trkpt lat="44.15715" lon="0.75997">
        <ele>105</ele>
        <time>2024-04-11T14:29:17.000Z</time>
      </trkpt>
      <trkpt lat="44.15715" lon="0.75995">
        <ele>105</ele>
        <time>2024-04-11T14:29:18.000Z</time>
      </trkpt>
      <trkpt lat="44.15715" lon="0.75993">
        <ele>106</ele>
        <time>2024-04-11T14:29:19.000Z</time>
      </trkpt>
      <trkpt lat="44.15714" lon="0.75992">
        <ele>105</ele>
        <time>2024-04-11T14:29:20.000Z</time>
      </trkpt>
      <trkpt lat="44.15714" lon="0.7599">
        <ele>105</ele>
        <time>2024-04-11T14:29:21.000Z</time>
      </trkpt>
      <trkpt lat="44.15714" lon="0.75989">
        <ele>105</ele>
        <time>2024-04-11T14:29:22.000Z</time>
      </trkpt>
      <trkpt lat="44.15714" lon="0.75987">
        <ele>105</ele>
        <time>2024-04-11T14:29:23.000Z</time>
      </trkpt>
      <trkpt lat="44.15713" lon="0.75985">
        <ele>105</ele>
        <time>2024-04-11T14:29:24.000Z</time>
      </trkpt>
      <trkpt lat="44.15713" lon="0.75984">
        <ele>105</ele>
        <time>2024-04-11T14:29:25.000Z</time>
      </trkpt>
      <trkpt lat="44.15713" lon="0.75982">
        <ele>105</ele>
        <time>2024-04-11T14:29:26.000Z</time>
      </trkpt>
      <trkpt lat="44.15712" lon="0.7598">
        <ele>105</ele>
        <time>2024-04-11T14:29:27.000Z</time>
      </trkpt>
      <trkpt lat="44.15712" lon="0.75979">
        <ele>105</ele>
        <time>2024-04-11T14:29:28.000Z</time>
      </trkpt>
      <trkpt lat="44.15711" lon="0.75977">
        <ele>105</ele>
        <time>2024-04-11T14:29:29.000Z</time>
      </trkpt>
      <trkpt lat="44.15711" lon="0.75976">
        <ele>105</ele>
        <time>2024-04-11T14:29:30.000Z</time>
      </trkpt>
      <trkpt lat="44.15711" lon="0.75974">
        <ele>104</ele>
        <time>2024-04-11T14:29:31.000Z</time>
      </trkpt>
      <trkpt lat="44.1571" lon="0.75973">
        <ele>104</ele>
        <time>2024-04-11T14:29:32.000Z</time>
      </trkpt>
      <trkpt lat="44.1571" lon="0.75971">
        <ele>104</ele>
        <time>2024-04-11T14:29:33.000Z</time>
      </trkpt>
      <trkpt lat="44.15709" lon="0.7597">
        <ele>104</ele>
        <time>2024-04-11T14:29:34.000Z</time>
      </trkpt>
      <trkpt lat="44.15709" lon="0.75968">
        <ele>104</ele>
        <time>2024-04-11T14:29:35.000Z</time>
      </trkpt>
      <trkpt lat="44.15709" lon="0.75967">
        <ele>104</ele>
        <time>2024-04-11T14:29:36.000Z</time>
      </trkpt>
      <trkpt lat="44.15708" lon="0.75965">
        <ele>104</ele>
        <time>2024-04-11T14:29:37.000Z</time>
      </trkpt>
      <trkpt lat="44.15708" lon="0.75964">
        <ele>103</ele>
        <time>2024-04-11T14:29:38.000Z</time>
      </trkpt>
      <trkpt lat="44.15707" lon="0.75962">
        <ele>103</ele>
        <time>2024-04-11T14:29:39.000Z</time>
      </trkpt>
      <trkpt lat="44.15707" lon="0.75961">
        <ele>103</ele>
        <time>2024-04-11T14:29:40.000Z</time>
      </trkpt>
      <trkpt lat="44.15707" lon="0.75959">
        <ele>103</ele>
        <time>2024-04-11T14:29:41.000Z</time>
      </trkpt>
      <trkpt lat="44.15706" lon="0.75958">
        <ele>103</ele>
        <time>2024-04-11T14:29:42.000Z</time>
      </trkpt>
      <trkpt lat="44.15706" lon="0.75956">
        <ele>103</ele>
        <time>2024-04-11T14:29:43.000Z</time>
      </trkpt>
      <trkpt lat="44.15706" lon="0.75955">
        <ele>103</ele>
        <time>2024-04-11T14:29:44.000Z</time>
      </trkpt>
      <trkpt lat="44.15705" lon="0.75953">
        <ele>103</ele>
        <time>2024-04-11T14:29:45.000Z</time>
      </trkpt>
      <trkpt lat="44.15705" lon="0.75952">
        <ele>102</ele>
        <time>2024-04-11T14:29:46.000Z</time>
      </trkpt>
      <trkpt lat="44.15704" lon="0.7595">
        <ele>102</ele>
        <time>2024-04-11T14:29:47.000Z</time>
      </trkpt>
      <trkpt lat="44.15704" lon="0.75949">
        <ele>102</ele>
        <time>2024-04-11T14:29:48.000Z</time>
      </trkpt>
      <trkpt lat="44.15704" lon="0.75947">
        <ele>102</ele>
        <time>2024-04-11T14:29:49.000Z</time>
      </trkpt>
      <trkpt lat="44.15703" lon="0.75946">
        <ele>102</ele>
        <time>2024-04-11T14:29:50.000Z</time>
      </trkpt>
      <trkpt lat="44.15703" lon="0.75944">
        <ele>102</ele>
        <time>2024-04-11T14:29:51.000Z</time>
      </trkpt>
      <trkpt lat="44.15702" lon="0.75943">
        <ele>102</ele>
        <time>2024-04-11T14:29:52.000Z</time>
      </trkpt>
      <trkpt lat="44.15702" lon="0.75941">
        <ele>101</ele>
        <time>2024-04-11T14:29:53.000Z</time>
      </trkpt>
      <trkpt lat="44.15701" lon="0.7594">
        <ele>101</ele>
        <time>2024-04-11T14:29:54.000Z</time>
      </trkpt>
      <trkpt lat="44.15701" lon="0.75938">
        <ele>101</ele>
        <time>2024-04-11T14:29:55.000Z</time>
      </trkpt>
      <trkpt lat="44.15701" lon="0.75937">
        <ele>101</ele>
        <time>2024-04-11T14:29:56.000Z</time>
      </trkpt>
      <trkpt lat="44.157" lon="0.75935">
        <ele>101</ele>
        <time>2024-04-11T14:29:57.000Z</time>
      </trkpt>
      <trkpt lat="44.157" lon="0.75934">
        <ele>100</ele>
        <time>2024-04-11T14:29:58.000Z</time>
      </trkpt>
      <trkpt lat="44.157" lon="0.75932">
        <ele>100</ele>
        <time>2024-04-11T14:29:59.000Z</time>
      </trkpt>
      <trkpt lat="44.15699" lon="0.75931">
        <ele>100</ele>
        <time>2024-04-11T14:30:00.000Z</time>
      </trkpt>
      <trkpt lat="44.15699" lon="0.75929">
        <ele>100</ele>
        <time>2024-04-11T14:30:01.000Z</time>
      </trkpt>
      <trkpt lat="44.15698" lon="0.75928">
        <ele>100</ele>
        <time>2024-04-11T14:30:02.000Z</time>
      </trkpt>
      <trkpt lat="44.15698" lon="0.75926">
        <ele>99</ele>
        <time>2024-04-11T14:30:03.000Z</time>
      </trkpt>
      <trkpt lat="44.15698" lon="0.75925">
        <ele>99</ele>
        <time>2024-04-11T14:30:04.000Z</time>
      </trkpt>
      <trkpt lat="44.15698" lon="0.75923">
        <ele>99</ele>
        <time>2024-04-11T14:30:05.000Z</time>
      </trkpt>
      <trkpt lat="44.15697" lon="0.75922">
        <ele>99</ele>
        <time>2024-04-11T14:30:06.000Z</time>
      </trkpt>
      <trkpt lat="44.15697" lon="0.7592">
        <ele>98</ele>
        <time>2024-04-11T14:30:07.000Z</time>
      </trkpt>
      <trkpt lat="44.15697" lon="0.75919">
        <ele>98</ele>
        <time>2024-04-11T14:30:08.000Z</time>
      </trkpt>
      <trkpt lat="44.15696" lon="0.75917">
        <ele>98</ele>
        <time>2024-04-11T14:30:09.000Z</time>
      </trkpt>
      <trkpt lat="44.15696" lon="0.75916">
        <ele>98</ele>
        <time>2024-04-11T14:30:10.000Z</time>
      </trkpt>
      <trkpt lat="44.15695" lon="0.75914">
        <ele>98</ele>
        <time>2024-04-11T14:30:11.000Z</time>
      </trkpt>
      <trkpt lat="44.15695" lon="0.75912">
        <ele>98</ele>
        <time>2024-04-11T14:30:12.000Z</time>
      </trkpt>
      <trkpt lat="44.15695" lon="0.75911">
        <ele>98</ele>
        <time>2024-04-11T14:30:13.000Z</time>
      </trkpt>
      <trkpt lat="44.15695" lon="0.75909">
        <ele>98</ele>
        <time>2024-04-11T14:30:14.000Z</time>
      </trkpt>
      <trkpt lat="44.15694" lon="0.75907">
        <ele>98</ele>
        <time>2024-04-11T14:30:15.000Z</time>
      </trkpt>
      <trkpt lat="44.15694" lon="0.75906">
        <ele>98</ele>
        <time>2024-04-11T14:30:16.000Z</time>
      </trkpt>
      <trkpt lat="44.15693" lon="0.75904">
        <ele>98</ele>
        <time>2024-04-11T14:30:17.000Z</time>
      </trkpt>
      <trkpt lat="44.15693" lon="0.75903">
        <ele>98</ele>
        <time>2024-04-11T14:30:18.000Z</time>
      </trkpt>
      <trkpt lat="44.15692" lon="0.75901">
        <ele>98</ele>
        <time>2024-04-11T14:30:19.000Z</time>
      </trkpt>
      <trkpt lat="44.15692" lon="0.75899">
        <ele>98</ele>
        <time>2024-04-11T14:30:20.000Z</time>
      </trkpt>
      <trkpt lat="44.15692" lon="0.75898">
        <ele>98</ele>
        <time>2024-04-11T14:30:21.000Z</time>
      </trkpt>
      <trkpt lat="44.15691" lon="0.75896">
        <ele>98</ele>
        <time>2024-04-11T14:30:22.000Z</time>
      </trkpt>
      <trkpt lat="44.15691" lon="0.75895">
        <ele>98</ele>
        <time>2024-04-11T14:30:23.000Z</time>
      </trkpt>
      <trkpt lat="44.1569" lon="0.75893">
        <ele>98</ele>
        <time>2024-04-11T14:30:24.000Z</time>
      </trkpt>
      <trkpt lat="44.1569" lon="0.75892">
        <ele>98</ele>
        <time>2024-04-11T14:30:25.000Z</time>
      </trkpt>
      <trkpt lat="44.15689" lon="0.7589">
        <ele>98</ele>
        <time>2024-04-11T14:30:26.000Z</time>
      </trkpt>
      <trkpt lat="44.15688" lon="0.75889">
        <ele>98</ele>
        <time>2024-04-11T14:30:27.000Z</time>
      </trkpt>
      <trkpt lat="44.15688" lon="0.75887">
        <ele>97</ele>
        <time>2024-04-11T14:30:28.000Z</time>
      </trkpt>
      <trkpt lat="44.15687" lon="0.75886">
        <ele>97</ele>
        <time>2024-04-11T14:30:29.000Z</time>
      </trkpt>
      <trkpt lat="44.15686" lon="0.75885">
        <ele>97</ele>
        <time>2024-04-11T14:30:30.000Z</time>
      </trkpt>
      <trkpt lat="44.15686" lon="0.75883">
        <ele>97</ele>
        <time>2024-04-11T14:30:31.000Z</time>
      </trkpt>
      <trkpt lat="44.15685" lon="0.75882">
        <ele>97</ele>
        <time>2024-04-11T14:30:32.000Z</time>
      </trkpt>
      <trkpt lat="44.15684" lon="0.75881">
        <ele>96</ele>
        <time>2024-04-11T14:30:33.000Z</time>
      </trkpt>
      <trkpt lat="44.15684" lon="0.75879">
        <ele>96</ele>
        <time>2024-04-11T14:30:34.000Z</time>
      </trkpt>
      <trkpt lat="44.15683" lon="0.75878">
        <ele>96</ele>
        <time>2024-04-11T14:30:35.000Z</time>
      </trkpt>
      <trkpt lat="44.15683" lon="0.75876">
        <ele>97</ele>
        <time>2024-04-11T14:30:36.000Z</time>
      </trkpt>
      <trkpt lat="44.15682" lon="0.75875">
        <ele>97</ele>
        <time>2024-04-11T14:30:37.000Z</time>
      </trkpt>
      <trkpt lat="44.15682" lon="0.75873">
        <ele>97</ele>
        <time>2024-04-11T14:30:38.000Z</time>
      </trkpt>
      <trkpt lat="44.15681" lon="0.75872">
        <ele>97</ele>
        <time>2024-04-11T14:30:39.000Z</time>
      </trkpt>
      <trkpt lat="44.15681" lon="0.7587">
        <ele>97</ele>
        <time>2024-04-11T14:30:40.000Z</time>
      </trkpt>
      <trkpt lat="44.1568" lon="0.75869">
        <ele>96</ele>
        <time>2024-04-11T14:30:41.000Z</time>
      </trkpt>
      <trkpt lat="44.1568" lon="0.75867">
        <ele>96</ele>
        <time>2024-04-11T14:30:42.000Z</time>
      </trkpt>
      <trkpt lat="44.15679" lon="0.75866">
        <ele>96</ele>
        <time>2024-04-11T14:30:43.000Z</time>
      </trkpt>
      <trkpt lat="44.15679" lon="0.75865">
        <ele>96</ele>
        <time>2024-04-11T14:30:44.000Z</time>
      </trkpt>
      <trkpt lat="44.15678" lon="0.75863">
        <ele>96</ele>
        <time>2024-04-11T14:30:45.000Z</time>
      </trkpt>
      <trkpt lat="44.15678" lon="0.75861">
        <ele>96</ele>
        <time>2024-04-11T14:30:46.000Z</time>
      </trkpt>
      <trkpt lat="44.15677" lon="0.7586">
        <ele>96</ele>
        <time>2024-04-11T14:30:47.000Z</time>
      </trkpt>
      <trkpt lat="44.15676" lon="0.75859">
        <ele>96</ele>
        <time>2024-04-11T14:30:48.000Z</time>
      </trkpt>
      <trkpt lat="44.15676" lon="0.75857">
        <ele>96</ele>
        <time>2024-04-11T14:30:49.000Z</time>
      </trkpt>
      <trkpt lat="44.15676" lon="0.75856">
        <ele>96</ele>
        <time>2024-04-11T14:30:50.000Z</time>
      </trkpt>
      <trkpt lat="44.15675" lon="0.75854">
        <ele>96</ele>
        <time>2024-04-11T14:30:51.000Z</time>
      </trkpt>
      <trkpt lat="44.15674" lon="0.75853">
        <ele>96</ele>
        <time>2024-04-11T14:30:52.000Z</time>
      </trkpt>
      <trkpt lat="44.15674" lon="0.75851">
        <ele>96</ele>
        <time>2024-04-11T14:30:53.000Z</time>
      </trkpt>
      <trkpt lat="44.15674" lon="0.7585">
        <ele>96</ele>
        <time>2024-04-11T14:30:54.000Z</time>
      </trkpt>
      <trkpt lat="44.15674" lon="0.75848">
        <ele>96</ele>
        <time>2024-04-11T14:30:55.000Z</time>
      </trkpt>
      <trkpt lat="44.15673" lon="0.75847">
        <ele>95</ele>
        <time>2024-04-11T14:30:56.000Z</time>
      </trkpt>
      <trkpt lat="44.15673" lon="0.75845">
        <ele>96</ele>
        <time>2024-04-11T14:30:57.000Z</time>
      </trkpt>
      <trkpt lat="44.15673" lon="0.75844">
        <ele>96</ele>
        <time>2024-04-11T14:30:58.000Z</time>
      </trkpt>
      <trkpt lat="44.15673" lon="0.75842">
        <ele>96</ele>
        <time>2024-04-11T14:30:59.000Z</time>
      </trkpt>
      <trkpt lat="44.15672" lon="0.75841">
        <ele>95</ele>
        <time>2024-04-11T14:31:00.000Z</time>
      </trkpt>
      <trkpt lat="44.15672" lon="0.75839">
        <ele>95</ele>
        <time>2024-04-11T14:31:01.000Z</time>
      </trkpt>
      <trkpt lat="44.15671" lon="0.75838">
        <ele>95</ele>
        <time>2024-04-11T14:31:02.000Z</time>
      </trkpt>
      <trkpt lat="44.15671" lon="0.75836">
        <ele>95</ele>
        <time>2024-04-11T14:31:03.000Z</time>
      </trkpt>
      <trkpt lat="44.15671" lon="0.75835">
        <ele>95</ele>
        <time>2024-04-11T14:31:04.000Z</time>
      </trkpt>
      <trkpt lat="44.1567" lon="0.75833">
        <ele>95</ele>
        <time>2024-04-11T14:31:05.000Z</time>
      </trkpt>
      <trkpt lat="44.1567" lon="0.75832">
        <ele>95</ele>
        <time>2024-04-11T14:31:06.000Z</time>
      </trkpt>
      <trkpt lat="44.1567" lon="0.7583">
        <ele>95</ele>
        <time>2024-04-11T14:31:07.000Z</time>
      </trkpt>
      <trkpt lat="44.15669" lon="0.75828">
        <ele>95</ele>
        <time>2024-04-11T14:31:08.000Z</time>
      </trkpt>
      <trkpt lat="44.15669" lon="0.75827">
        <ele>95</ele>
        <time>2024-04-11T14:31:09.000Z</time>
      </trkpt>
      <trkpt lat="44.15669" lon="0.75826">
        <ele>95</ele>
        <time>2024-04-11T14:31:10.000Z</time>
      </trkpt>
      <trkpt lat="44.15668" lon="0.75824">
        <ele>94</ele>
        <time>2024-04-11T14:31:11.000Z</time>
      </trkpt>
      <trkpt lat="44.15668" lon="0.75823">
        <ele>94</ele>
        <time>2024-04-11T14:31:12.000Z</time>
      </trkpt>
      <trkpt lat="44.15667" lon="0.75821">
        <ele>94</ele>
        <time>2024-04-11T14:31:13.000Z</time>
      </trkpt>
      <trkpt lat="44.15667" lon="0.7582">
        <ele>94</ele>
        <time>2024-04-11T14:31:14.000Z</time>
      </trkpt>
      <trkpt lat="44.15667" lon="0.75818">
        <ele>94</ele>
        <time>2024-04-11T14:31:15.000Z</time>
      </trkpt>
      <trkpt lat="44.15667" lon="0.75817">
        <ele>94</ele>
        <time>2024-04-11T14:31:16.000Z</time>
      </trkpt>
      <trkpt lat="44.15666" lon="0.75815">
        <ele>94</ele>
        <time>2024-04-11T14:31:17.000Z</time>
      </trkpt>
      <trkpt lat="44.15666" lon="0.75814">
        <ele>94</ele>
        <time>2024-04-11T14:31:18.000Z</time>
      </trkpt>
      <trkpt lat="44.15666" lon="0.75812">
        <ele>94</ele>
        <time>2024-04-11T14:31:19.000Z</time>
      </trkpt>
      <trkpt lat="44.15666" lon="0.7581">
        <ele>94</ele>
        <time>2024-04-11T14:31:20.000Z</time>
      </trkpt>
      <trkpt lat="44.15665" lon="0.75809">
        <ele>94</ele>
        <time>2024-04-11T14:31:21.000Z</time>
      </trkpt>
      <trkpt lat="44.15665" lon="0.75807">
        <ele>94</ele>
        <time>2024-04-11T14:31:22.000Z</time>
      </trkpt>
      <trkpt lat="44.15665" lon="0.75806">
        <ele>94</ele>
        <time>2024-04-11T14:31:23.000Z</time>
      </trkpt>
      <trkpt lat="44.15664" lon="0.75804">
        <ele>94</ele>
        <time>2024-04-11T14:31:24.000Z</time>
      </trkpt>
      <trkpt lat="44.15664" lon="0.75802">
        <ele>94</ele>
        <time>2024-04-11T14:31:25.000Z</time>
      </trkpt>
      <trkpt lat="44.15664" lon="0.75801">
        <ele>94</ele>
        <time>2024-04-11T14:31:26.000Z</time>
      </trkpt>
      <trkpt lat="44.15663" lon="0.75799">
        <ele>94</ele>
        <time>2024-04-11T14:31:27.000Z</time>
      </trkpt>
      <trkpt lat="44.15663" lon="0.75797">
        <ele>94</ele>
        <time>2024-04-11T14:31:28.000Z</time>
      </trkpt>
      <trkpt lat="44.15663" lon="0.75796">
        <ele>94</ele>
        <time>2024-04-11T14:31:29.000Z</time>
      </trkpt>
      <trkpt lat="44.15662" lon="0.75795">
        <ele>93</ele>
        <time>2024-04-11T14:31:30.000Z</time>
      </trkpt>
      <trkpt lat="44.15662" lon="0.75793">
        <ele>93</ele>
        <time>2024-04-11T14:31:31.000Z</time>
      </trkpt>
      <trkpt lat="44.15661" lon="0.75792">
        <ele>93</ele>
        <time>2024-04-11T14:31:32.000Z</time>
      </trkpt>
      <trkpt lat="44.15661" lon="0.75791">
        <ele>93</ele>
        <time>2024-04-11T14:31:33.000Z</time>
      </trkpt>
      <trkpt lat="44.1566" lon="0.75789">
        <ele>93</ele>
        <time>2024-04-11T14:31:34.000Z</time>
      </trkpt>
      <trkpt lat="44.1566" lon="0.75788">
        <ele>92</ele>
        <time>2024-04-11T14:31:35.000Z</time>
      </trkpt>
      <trkpt lat="44.15659" lon="0.75787">
        <ele>92</ele>
        <time>2024-04-11T14:31:36.000Z</time>
      </trkpt>
      <trkpt lat="44.15659" lon="0.75785">
        <ele>92</ele>
        <time>2024-04-11T14:31:37.000Z</time>
      </trkpt>
      <trkpt lat="44.15659" lon="0.75784">
        <ele>92</ele>
        <time>2024-04-11T14:31:38.000Z</time>
      </trkpt>
      <trkpt lat="44.15658" lon="0.75782">
        <ele>92</ele>
        <time>2024-04-11T14:31:39.000Z</time>
      </trkpt>
      <trkpt lat="44.15658" lon="0.7578">
        <ele>92</ele>
        <time>2024-04-11T14:31:40.000Z</time>
      </trkpt>
      <trkpt lat="44.15658" lon="0.75779">
        <ele>92</ele>
        <time>2024-04-11T14:31:41.000Z</time>
      </trkpt>
      <trkpt lat="44.15658" lon="0.75777">
        <ele>92</ele>
        <time>2024-04-11T14:31:42.000Z</time>
      </trkpt>
      <trkpt lat="44.15658" lon="0.75776">
        <ele>92</ele>
        <time>2024-04-11T14:31:43.000Z</time>
      </trkpt>
      <trkpt lat="44.15657" lon="0.75774">
        <ele>92</ele>
        <time>2024-04-11T14:31:44.000Z</time>
      </trkpt>
      <trkpt lat="44.15657" lon="0.75773">
        <ele>92</ele>
        <time>2024-04-11T14:31:45.000Z</time>
      </trkpt>
      <trkpt lat="44.15656" lon="0.75771">
        <ele>92</ele>
        <time>2024-04-11T14:31:46.000Z</time>
      </trkpt>
      <trkpt lat="44.15656" lon="0.7577">
        <ele>92</ele>
        <time>2024-04-11T14:31:47.000Z</time>
      </trkpt>
      <trkpt lat="44.15655" lon="0.75768">
        <ele>92</ele>
        <time>2024-04-11T14:31:48.000Z</time>
      </trkpt>
      <trkpt lat="44.15655" lon="0.75767">
        <ele>91</ele>
        <time>2024-04-11T14:31:49.000Z</time>
      </trkpt>
      <trkpt lat="44.15654" lon="0.75765">
        <ele>91</ele>
        <time>2024-04-11T14:31:50.000Z</time>
      </trkpt>
      <trkpt lat="44.15654" lon="0.75764">
        <ele>91</ele>
        <time>2024-04-11T14:31:51.000Z</time>
      </trkpt>
      <trkpt lat="44.15653" lon="0.75762">
        <ele>91</ele>
        <time>2024-04-11T14:31:52.000Z</time>
      </trkpt>
      <trkpt lat="44.15653" lon="0.75761">
        <ele>91</ele>
        <time>2024-04-11T14:31:53.000Z</time>
      </trkpt>
      <trkpt lat="44.15653" lon="0.75759">
        <ele>92</ele>
        <time>2024-04-11T14:31:54.000Z</time>
      </trkpt>
      <trkpt lat="44.15652" lon="0.75758">
        <ele>91</ele>
        <time>2024-04-11T14:31:55.000Z</time>
      </trkpt>
      <trkpt lat="44.15652" lon="0.75756">
        <ele>91</ele>
        <time>2024-04-11T14:31:56.000Z</time>
      </trkpt>
      <trkpt lat="44.15652" lon="0.75755">
        <ele>91</ele>
        <time>2024-04-11T14:31:57.000Z</time>
      </trkpt>
      <trkpt lat="44.15651" lon="0.75753">
        <ele>91</ele>
        <time>2024-04-11T14:31:58.000Z</time>
      </trkpt>
      <trkpt lat="44.1565" lon="0.75752">
        <ele>90</ele>
        <time>2024-04-11T14:31:59.000Z</time>
      </trkpt>
      <trkpt lat="44.1565" lon="0.7575">
        <ele>90</ele>
        <time>2024-04-11T14:32:00.000Z</time>
      </trkpt>
      <trkpt lat="44.15649" lon="0.75749">
        <ele>90</ele>
        <time>2024-04-11T14:32:01.000Z</time>
      </trkpt>
      <trkpt lat="44.15649" lon="0.75748">
        <ele>90</ele>
        <time>2024-04-11T14:32:02.000Z</time>
      </trkpt>
      <trkpt lat="44.15648" lon="0.75746">
        <ele>90</ele>
        <time>2024-04-11T14:32:03.000Z</time>
      </trkpt>
      <trkpt lat="44.15648" lon="0.75745">
        <ele>90</ele>
        <time>2024-04-11T14:32:04.000Z</time>
      </trkpt>
      <trkpt lat="44.15647" lon="0.75743">
        <ele>90</ele>
        <time>2024-04-11T14:32:05.000Z</time>
      </trkpt>
      <trkpt lat="44.15646" lon="0.75742">
        <ele>91</ele>
        <time>2024-04-11T14:32:06.000Z</time>
      </trkpt>
      <trkpt lat="44.15645" lon="0.7574">
        <ele>90</ele>
        <time>2024-04-11T14:32:07.000Z</time>
      </trkpt>
      <trkpt lat="44.15644" lon="0.75739">
        <ele>90</ele>
        <time>2024-04-11T14:32:08.000Z</time>
      </trkpt>
      <trkpt lat="44.15644" lon="0.75737">
        <ele>90</ele>
        <time>2024-04-11T14:32:09.000Z</time>
      </trkpt>
      <trkpt lat="44.15643" lon="0.75736">
        <ele>90</ele>
        <time>2024-04-11T14:32:10.000Z</time>
      </trkpt>
      <trkpt lat="44.15642" lon="0.75735">
        <ele>90</ele>
        <time>2024-04-11T14:32:11.000Z</time>
      </trkpt>
      <trkpt lat="44.15642" lon="0.75733">
        <ele>90</ele>
        <time>2024-04-11T14:32:12.000Z</time>
      </trkpt>
      <trkpt lat="44.15641" lon="0.75732">
        <ele>89</ele>
        <time>2024-04-11T14:32:13.000Z</time>
      </trkpt>
      <trkpt lat="44.15641" lon="0.7573">
        <ele>89</ele>
        <time>2024-04-11T14:32:14.000Z</time>
      </trkpt>
      <trkpt lat="44.1564" lon="0.75729">
        <ele>89</ele>
        <time>2024-04-11T14:32:15.000Z</time>
      </trkpt>
      <trkpt lat="44.1564" lon="0.75727">
        <ele>89</ele>
        <time>2024-04-11T14:32:16.000Z</time>
      </trkpt>
      <trkpt lat="44.15639" lon="0.75726">
        <ele>89</ele>
        <time>2024-04-11T14:32:17.000Z</time>
      </trkpt>
      <trkpt lat="44.15638" lon="0.75724">
        <ele>89</ele>
        <time>2024-04-11T14:32:18.000Z</time>
      </trkpt>
      <trkpt lat="44.15637" lon="0.75723">
        <ele>89</ele>
        <time>2024-04-11T14:32:19.000Z</time>
      </trkpt>
      <trkpt lat="44.15637" lon="0.75722">
        <ele>89</ele>
        <time>2024-04-11T14:32:20.000Z</time>
      </trkpt>
      <trkpt lat="44.15636" lon="0.7572">
        <ele>88</ele>
        <time>2024-04-11T14:32:21.000Z</time>
      </trkpt>
      <trkpt lat="44.15636" lon="0.75719">
        <ele>88</ele>
        <time>2024-04-11T14:32:22.000Z</time>
      </trkpt>
      <trkpt lat="44.15635" lon="0.75717">
        <ele>88</ele>
        <time>2024-04-11T14:32:23.000Z</time>
      </trkpt>
      <trkpt lat="44.15635" lon="0.75716">
        <ele>88</ele>
        <time>2024-04-11T14:32:24.000Z</time>
      </trkpt>
      <trkpt lat="44.15634" lon="0.75714">
        <ele>88</ele>
        <time>2024-04-11T14:32:25.000Z</time>
      </trkpt>
      <trkpt lat="44.15634" lon="0.75712">
        <ele>88</ele>
        <time>2024-04-11T14:32:26.000Z</time>
      </trkpt>
      <trkpt lat="44.15633" lon="0.75711">
        <ele>88</ele>
        <time>2024-04-11T14:32:27.000Z</time>
      </trkpt>
      <trkpt lat="44.15632" lon="0.75709">
        <ele>88</ele>
        <time>2024-04-11T14:32:28.000Z</time>
      </trkpt>
      <trkpt lat="44.15632" lon="0.75708">
        <ele>88</ele>
        <time>2024-04-11T14:32:29.000Z</time>
      </trkpt>
      <trkpt lat="44.15631" lon="0.75706">
        <ele>88</ele>
        <time>2024-04-11T14:32:30.000Z</time>
      </trkpt>
      <trkpt lat="44.15631" lon="0.75705">
        <ele>88</ele>
        <time>2024-04-11T14:32:31.000Z</time>
      </trkpt>
      <trkpt lat="44.1563" lon="0.75703">
        <ele>88</ele>
        <time>2024-04-11T14:32:32.000Z</time>
      </trkpt>
      <trkpt lat="44.1563" lon="0.75702">
        <ele>88</ele>
        <time>2024-04-11T14:32:33.000Z</time>
      </trkpt>
      <trkpt lat="44.15629" lon="0.757">
        <ele>88</ele>
        <time>2024-04-11T14:32:34.000Z</time>
      </trkpt>
      <trkpt lat="44.15628" lon="0.75699">
        <ele>87</ele>
        <time>2024-04-11T14:32:35.000Z</time>
      </trkpt>
      <trkpt lat="44.15628" lon="0.75698">
        <ele>87</ele>
        <time>2024-04-11T14:32:36.000Z</time>
      </trkpt>
      <trkpt lat="44.15627" lon="0.75697">
        <ele>87</ele>
        <time>2024-04-11T14:32:37.000Z</time>
      </trkpt>
      <trkpt lat="44.15627" lon="0.75695">
        <ele>87</ele>
        <time>2024-04-11T14:32:38.000Z</time>
      </trkpt>
      <trkpt lat="44.15626" lon="0.75694">
        <ele>87</ele>
        <time>2024-04-11T14:32:39.000Z</time>
      </trkpt>
      <trkpt lat="44.15626" lon="0.75692">
        <ele>87</ele>
        <time>2024-04-11T14:32:40.000Z</time>
      </trkpt>
      <trkpt lat="44.15625" lon="0.75691">
        <ele>87</ele>
        <time>2024-04-11T14:32:41.000Z</time>
      </trkpt>
      <trkpt lat="44.15625" lon="0.75689">
        <ele>87</ele>
        <time>2024-04-11T14:32:42.000Z</time>
      </trkpt>
      <trkpt lat="44.15624" lon="0.75688">
        <ele>87</ele>
        <time>2024-04-11T14:32:43.000Z</time>
      </trkpt>
      <trkpt lat="44.15624" lon="0.75686">
        <ele>87</ele>
        <time>2024-04-11T14:32:44.000Z</time>
      </trkpt>
      <trkpt lat="44.15624" lon="0.75685">
        <ele>87</ele>
        <time>2024-04-11T14:32:45.000Z</time>
      </trkpt>
      <trkpt lat="44.15623" lon="0.75684">
        <ele>87</ele>
        <time>2024-04-11T14:32:46.000Z</time>
      </trkpt>
      <trkpt lat="44.15623" lon="0.75682">
        <ele>87</ele>
        <time>2024-04-11T14:32:47.000Z</time>
      </trkpt>
      <trkpt lat="44.15622" lon="0.75681">
        <ele>87</ele>
        <time>2024-04-11T14:32:48.000Z</time>
      </trkpt>
      <trkpt lat="44.15622" lon="0.7568">
        <ele>87</ele>
        <time>2024-04-11T14:32:49.000Z</time>
      </trkpt>
      <trkpt lat="44.15621" lon="0.75678">
        <ele>87</ele>
        <time>2024-04-11T14:32:50.000Z</time>
      </trkpt>
      <trkpt lat="44.15621" lon="0.75677">
        <ele>87</ele>
        <time>2024-04-11T14:32:51.000Z</time>
      </trkpt>
      <trkpt lat="44.1562" lon="0.75675">
        <ele>87</ele>
        <time>2024-04-11T14:32:52.000Z</time>
      </trkpt>
      <trkpt lat="44.1562" lon="0.75674">
        <ele>87</ele>
        <time>2024-04-11T14:32:53.000Z</time>
      </trkpt>
      <trkpt lat="44.15619" lon="0.75673">
        <ele>87</ele>
        <time>2024-04-11T14:32:54.000Z</time>
      </trkpt>
      <trkpt lat="44.15618" lon="0.75671">
        <ele>88</ele>
        <time>2024-04-11T14:32:55.000Z</time>
      </trkpt>
      <trkpt lat="44.15618" lon="0.7567">
        <ele>88</ele>
        <time>2024-04-11T14:32:56.000Z</time>
      </trkpt>
      <trkpt lat="44.15617" lon="0.75669">
        <ele>88</ele>
        <time>2024-04-11T14:32:57.000Z</time>
      </trkpt>
      <trkpt lat="44.15616" lon="0.75668">
        <ele>88</ele>
        <time>2024-04-11T14:32:58.000Z</time>
      </trkpt>
      <trkpt lat="44.15615" lon="0.75667">
        <ele>88</ele>
        <time>2024-04-11T14:32:59.000Z</time>
      </trkpt>
      <trkpt lat="44.15614" lon="0.75666">
        <ele>88</ele>
        <time>2024-04-11T14:33:00.000Z</time>
      </trkpt>
      <trkpt lat="44.15614" lon="0.75665">
        <ele>89</ele>
        <time>2024-04-11T14:33:01.000Z</time>
      </trkpt>
      <trkpt lat="44.15613" lon="0.75664">
        <ele>89</ele>
        <time>2024-04-11T14:33:02.000Z</time>
      </trkpt>
      <trkpt lat="44.15612" lon="0.75663">
        <ele>89</ele>
        <time>2024-04-11T14:33:03.000Z</time>
      </trkpt>
      <trkpt lat="44.15611" lon="0.75662">
        <ele>90</ele>
        <time>2024-04-11T14:33:04.000Z</time>
      </trkpt>
      <trkpt lat="44.1561" lon="0.75661">
        <ele>91</ele>
        <time>2024-04-11T14:33:05.000Z</time>
      </trkpt>
      <trkpt lat="44.15609" lon="0.7566">
        <ele>91</ele>
        <time>2024-04-11T14:33:06.000Z</time>
      </trkpt>
      <trkpt lat="44.15608" lon="0.75659">
        <ele>91</ele>
        <time>2024-04-11T14:33:07.000Z</time>
      </trkpt>
      <trkpt lat="44.15607" lon="0.75659">
        <ele>92</ele>
        <time>2024-04-11T14:33:08.000Z</time>
      </trkpt>
      <trkpt lat="44.15606" lon="0.75658">
        <ele>92</ele>
        <time>2024-04-11T14:33:09.000Z</time>
      </trkpt>
      <trkpt lat="44.15605" lon="0.75657">
        <ele>92</ele>
        <time>2024-04-11T14:33:10.000Z</time>
      </trkpt>
      <trkpt lat="44.15603" lon="0.75657">
        <ele>92</ele>
        <time>2024-04-11T14:33:11.000Z</time>
      </trkpt>
      <trkpt lat="44.15602" lon="0.75656">
        <ele>92</ele>
        <time>2024-04-11T14:33:12.000Z</time>
      </trkpt>
      <trkpt lat="44.15601" lon="0.75655">
        <ele>92</ele>
        <time>2024-04-11T14:33:13.000Z</time>
      </trkpt>
      <trkpt lat="44.156" lon="0.75655">
        <ele>92</ele>
        <time>2024-04-11T14:33:14.000Z</time>
      </trkpt>
      <trkpt lat="44.15599" lon="0.75654">
        <ele>92</ele>
        <time>2024-04-11T14:33:15.000Z</time>
      </trkpt>
      <trkpt lat="44.15598" lon="0.75654">
        <ele>92</ele>
        <time>2024-04-11T14:33:16.000Z</time>
      </trkpt>
      <trkpt lat="44.15597" lon="0.75653">
        <ele>91</ele>
        <time>2024-04-11T14:33:17.000Z</time>
      </trkpt>
      <trkpt lat="44.15596" lon="0.75653">
        <ele>91</ele>
        <time>2024-04-11T14:33:18.000Z</time>
      </trkpt>
      <trkpt lat="44.15595" lon="0.75653">
        <ele>91</ele>
        <time>2024-04-11T14:33:19.000Z</time>
      </trkpt>
      <trkpt lat="44.15593" lon="0.75652">
        <ele>92</ele>
        <time>2024-04-11T14:33:20.000Z</time>
      </trkpt>
      <trkpt lat="44.15592" lon="0.75652">
        <ele>91</ele>
        <time>2024-04-11T14:33:21.000Z</time>
      </trkpt>
      <trkpt lat="44.15591" lon="0.75651">
        <ele>91</ele>
        <time>2024-04-11T14:33:22.000Z</time>
      </trkpt>
      <trkpt lat="44.1559" lon="0.75651">
        <ele>91</ele>
        <time>2024-04-11T14:33:23.000Z</time>
      </trkpt>
      <trkpt lat="44.15589" lon="0.7565">
        <ele>91</ele>
        <time>2024-04-11T14:33:24.000Z</time>
      </trkpt>
      <trkpt lat="44.15587" lon="0.7565">
        <ele>91</ele>
        <time>2024-04-11T14:33:25.000Z</time>
      </trkpt>
      <trkpt lat="44.15586" lon="0.7565">
        <ele>92</ele>
        <time>2024-04-11T14:33:26.000Z</time>
      </trkpt>
      <trkpt lat="44.15585" lon="0.75649">
        <ele>91</ele>
        <time>2024-04-11T14:33:27.000Z</time>
      </trkpt>
      <trkpt lat="44.15584" lon="0.75649">
        <ele>92</ele>
        <time>2024-04-11T14:33:28.000Z</time>
      </trkpt>
      <trkpt lat="44.15583" lon="0.75648">
        <ele>92</ele>
        <time>2024-04-11T14:33:29.000Z</time>
      </trkpt>
      <trkpt lat="44.15582" lon="0.75648">
        <ele>93</ele>
        <time>2024-04-11T14:33:30.000Z</time>
      </trkpt>
      <trkpt lat="44.1558" lon="0.75647">
        <ele>93</ele>
        <time>2024-04-11T14:33:31.000Z</time>
      </trkpt>
      <trkpt lat="44.15579" lon="0.75647">
        <ele>93</ele>
        <time>2024-04-11T14:33:32.000Z</time>
      </trkpt>
      <trkpt lat="44.15578" lon="0.75647">
        <ele>94</ele>
        <time>2024-04-11T14:33:33.000Z</time>
      </trkpt>
      <trkpt lat="44.15577" lon="0.75646">
        <ele>94</ele>
        <time>2024-04-11T14:33:34.000Z</time>
      </trkpt>
      <trkpt lat="44.15575" lon="0.75646">
        <ele>94</ele>
        <time>2024-04-11T14:33:35.000Z</time>
      </trkpt>
      <trkpt lat="44.15574" lon="0.75646">
        <ele>94</ele>
        <time>2024-04-11T14:33:36.000Z</time>
      </trkpt>
      <trkpt lat="44.15573" lon="0.75645">
        <ele>94</ele>
        <time>2024-04-11T14:33:37.000Z</time>
      </trkpt>
      <trkpt lat="44.15571" lon="0.75645">
        <ele>94</ele>
        <time>2024-04-11T14:33:38.000Z</time>
      </trkpt>
      <trkpt lat="44.1557" lon="0.75645">
        <ele>95</ele>
        <time>2024-04-11T14:33:39.000Z</time>
      </trkpt>
      <trkpt lat="44.15569" lon="0.75645">
        <ele>95</ele>
        <time>2024-04-11T14:33:40.000Z</time>
      </trkpt>
      <trkpt lat="44.15567" lon="0.75645">
        <ele>95</ele>
        <time>2024-04-11T14:33:41.000Z</time>
      </trkpt>
      <trkpt lat="44.15566" lon="0.75644">
        <ele>95</ele>
        <time>2024-04-11T14:33:42.000Z</time>
      </trkpt>
      <trkpt lat="44.15565" lon="0.75644">
        <ele>95</ele>
        <time>2024-04-11T14:33:43.000Z</time>
      </trkpt>
      <trkpt lat="44.15564" lon="0.75644">
        <ele>95</ele>
        <time>2024-04-11T14:33:44.000Z</time>
      </trkpt>
      <trkpt lat="44.15562" lon="0.75643">
        <ele>95</ele>
        <time>2024-04-11T14:33:45.000Z</time>
      </trkpt>
      <trkpt lat="44.15561" lon="0.75643">
        <ele>95</ele>
        <time>2024-04-11T14:33:46.000Z</time>
      </trkpt>
      <trkpt lat="44.1556" lon="0.75643">
        <ele>94</ele>
        <time>2024-04-11T14:33:47.000Z</time>
      </trkpt>
      <trkpt lat="44.15559" lon="0.75643">
        <ele>95</ele>
        <time>2024-04-11T14:33:48.000Z</time>
      </trkpt>
      <trkpt lat="44.15557" lon="0.75643">
        <ele>94</ele>
        <time>2024-04-11T14:33:49.000Z</time>
      </trkpt>
      <trkpt lat="44.15556" lon="0.75643">
        <ele>94</ele>
        <time>2024-04-11T14:33:50.000Z</time>
      </trkpt>
      <trkpt lat="44.15555" lon="0.75643">
        <ele>94</ele>
        <time>2024-04-11T14:33:51.000Z</time>
      </trkpt>
      <trkpt lat="44.15554" lon="0.75643">
        <ele>94</ele>
        <time>2024-04-11T14:33:52.000Z</time>
      </trkpt>
      <trkpt lat="44.15553" lon="0.75643">
        <ele>94</ele>
        <time>2024-04-11T14:33:53.000Z</time>
      </trkpt>
      <trkpt lat="44.15551" lon="0.75643">
        <ele>95</ele>
        <time>2024-04-11T14:33:54.000Z</time>
      </trkpt>
      <trkpt lat="44.1555" lon="0.75643">
        <ele>95</ele>
        <time>2024-04-11T14:33:55.000Z</time>
      </trkpt>
      <trkpt lat="44.15548" lon="0.75642">
        <ele>96</ele>
        <time>2024-04-11T14:33:56.000Z</time>
      </trkpt>
      <trkpt lat="44.15547" lon="0.75642">
        <ele>95</ele>
        <time>2024-04-11T14:33:57.000Z</time>
      </trkpt>
      <trkpt lat="44.15546" lon="0.75643">
        <ele>96</ele>
        <time>2024-04-11T14:33:58.000Z</time>
      </trkpt>
      <trkpt lat="44.15545" lon="0.75643">
        <ele>96</ele>
        <time>2024-04-11T14:33:59.000Z</time>
      </trkpt>
      <trkpt lat="44.15544" lon="0.75643">
        <ele>95</ele>
        <time>2024-04-11T14:34:00.000Z</time>
      </trkpt>
      <trkpt lat="44.15542" lon="0.75643">
        <ele>96</ele>
        <time>2024-04-11T14:34:01.000Z</time>
      </trkpt>
      <trkpt lat="44.15541" lon="0.75643">
        <ele>96</ele>
        <time>2024-04-11T14:34:02.000Z</time>
      </trkpt>
      <trkpt lat="44.1554" lon="0.75642">
        <ele>97</ele>
        <time>2024-04-11T14:34:03.000Z</time>
      </trkpt>
      <trkpt lat="44.15538" lon="0.75642">
        <ele>96</ele>
        <time>2024-04-11T14:34:04.000Z</time>
      </trkpt>
      <trkpt lat="44.15537" lon="0.75642">
        <ele>95</ele>
        <time>2024-04-11T14:34:05.000Z</time>
      </trkpt>
      <trkpt lat="44.15536" lon="0.75642">
        <ele>96</ele>
        <time>2024-04-11T14:34:06.000Z</time>
      </trkpt>
      <trkpt lat="44.15534" lon="0.75642">
        <ele>97</ele>
        <time>2024-04-11T14:34:07.000Z</time>
      </trkpt>
      <trkpt lat="44.15533" lon="0.75642">
        <ele>97</ele>
        <time>2024-04-11T14:34:08.000Z</time>
      </trkpt>
      <trkpt lat="44.15532" lon="0.75642">
        <ele>97</ele>
        <time>2024-04-11T14:34:09.000Z</time>
      </trkpt>
      <trkpt lat="44.1553" lon="0.75642">
        <ele>97</ele>
        <time>2024-04-11T14:34:10.000Z</time>
      </trkpt>
      <trkpt lat="44.15529" lon="0.75643">
        <ele>96</ele>
        <time>2024-04-11T14:34:11.000Z</time>
      </trkpt>
      <trkpt lat="44.15528" lon="0.75643">
        <ele>97</ele>
        <time>2024-04-11T14:34:12.000Z</time>
      </trkpt>
      <trkpt lat="44.15526" lon="0.75643">
        <ele>96</ele>
        <time>2024-04-11T14:34:13.000Z</time>
      </trkpt>
      <trkpt lat="44.15525" lon="0.75643">
        <ele>95</ele>
        <time>2024-04-11T14:34:14.000Z</time>
      </trkpt>
      <trkpt lat="44.15524" lon="0.75643">
        <ele>95</ele>
        <time>2024-04-11T14:34:15.000Z</time>
      </trkpt>
      <trkpt lat="44.15522" lon="0.75643">
        <ele>95</ele>
        <time>2024-04-11T14:34:16.000Z</time>
      </trkpt>
      <trkpt lat="44.15521" lon="0.75643">
        <ele>95</ele>
        <time>2024-04-11T14:34:17.000Z</time>
      </trkpt>
      <trkpt lat="44.1552" lon="0.75643">
        <ele>95</ele>
        <time>2024-04-11T14:34:18.000Z</time>
      </trkpt>
      <trkpt lat="44.15518" lon="0.75643">
        <ele>95</ele>
        <time>2024-04-11T14:34:19.000Z</time>
      </trkpt>
      <trkpt lat="44.15517" lon="0.75643">
        <ele>95</ele>
        <time>2024-04-11T14:34:20.000Z</time>
      </trkpt>
      <trkpt lat="44.15516" lon="0.75643">
        <ele>95</ele>
        <time>2024-04-11T14:34:21.000Z</time>
      </trkpt>
      <trkpt lat="44.15514" lon="0.75643">
        <ele>95</ele>
        <time>2024-04-11T14:34:22.000Z</time>
      </trkpt>
      <trkpt lat="44.15513" lon="0.75643">
        <ele>95</ele>
        <time>2024-04-11T14:34:23.000Z</time>
      </trkpt>
      <trkpt lat="44.15512" lon="0.75643">
        <ele>95</ele>
        <time>2024-04-11T14:34:24.000Z</time>
      </trkpt>
      <trkpt lat="44.15511" lon="0.75643">
        <ele>95</ele>
        <time>2024-04-11T14:34:25.000Z</time>
      </trkpt>
      <trkpt lat="44.15509" lon="0.75643">
        <ele>95</ele>
        <time>2024-04-11T14:34:26.000Z</time>
      </trkpt>
      <trkpt lat="44.15508" lon="0.75643">
        <ele>95</ele>
        <time>2024-04-11T14:34:27.000Z</time>
      </trkpt>
      <trkpt lat="44.15507" lon="0.75643">
        <ele>95</ele>
        <time>2024-04-11T14:34:28.000Z</time>
      </trkpt>
      <trkpt lat="44.15506" lon="0.75643">
        <ele>95</ele>
        <time>2024-04-11T14:34:29.000Z</time>
      </trkpt>
      <trkpt lat="44.15504" lon="0.75643">
        <ele>95</ele>
        <time>2024-04-11T14:34:30.000Z</time>
      </trkpt>
      <trkpt lat="44.15503" lon="0.75644">
        <ele>95</ele>
        <time>2024-04-11T14:34:31.000Z</time>
      </trkpt>
      <trkpt lat="44.15502" lon="0.75644">
        <ele>94</ele>
        <time>2024-04-11T14:34:32.000Z</time>
      </trkpt>
      <trkpt lat="44.15501" lon="0.75644">
        <ele>94</ele>
        <time>2024-04-11T14:34:33.000Z</time>
      </trkpt>
      <trkpt lat="44.155" lon="0.75645">
        <ele>94</ele>
        <time>2024-04-11T14:34:34.000Z</time>
      </trkpt>
      <trkpt lat="44.15499" lon="0.75645">
        <ele>94</ele>
        <time>2024-04-11T14:34:35.000Z</time>
      </trkpt>
      <trkpt lat="44.15498" lon="0.75645">
        <ele>93</ele>
        <time>2024-04-11T14:34:36.000Z</time>
      </trkpt>
      <trkpt lat="44.15497" lon="0.75646">
        <ele>93</ele>
        <time>2024-04-11T14:34:37.000Z</time>
      </trkpt>
      <trkpt lat="44.15496" lon="0.75646">
        <ele>93</ele>
        <time>2024-04-11T14:34:38.000Z</time>
      </trkpt>
      <trkpt lat="44.15495" lon="0.75646">
        <ele>94</ele>
        <time>2024-04-11T14:34:39.000Z</time>
      </trkpt>
      <trkpt lat="44.15494" lon="0.75647">
        <ele>94</ele>
        <time>2024-04-11T14:34:40.000Z</time>
      </trkpt>
      <trkpt lat="44.15492" lon="0.75647">
        <ele>94</ele>
        <time>2024-04-11T14:34:41.000Z</time>
      </trkpt>
      <trkpt lat="44.15491" lon="0.75648">
        <ele>93</ele>
        <time>2024-04-11T14:34:42.000Z</time>
      </trkpt>
      <trkpt lat="44.1549" lon="0.75648">
        <ele>93</ele>
        <time>2024-04-11T14:34:43.000Z</time>
      </trkpt>
      <trkpt lat="44.15489" lon="0.75649">
        <ele>93</ele>
        <time>2024-04-11T14:34:44.000Z</time>
      </trkpt>
      <trkpt lat="44.15488" lon="0.75649">
        <ele>94</ele>
        <time>2024-04-11T14:34:45.000Z</time>
      </trkpt>
      <trkpt lat="44.15487" lon="0.75649">
        <ele>94</ele>
        <time>2024-04-11T14:34:46.000Z</time>
      </trkpt>
      <trkpt lat="44.15486" lon="0.75649">
        <ele>94</ele>
        <time>2024-04-11T14:34:47.000Z</time>
      </trkpt>
      <trkpt lat="44.15485" lon="0.7565">
        <ele>95</ele>
        <time>2024-04-11T14:34:48.000Z</time>
      </trkpt>
      <trkpt lat="44.15483" lon="0.7565">
        <ele>94</ele>
        <time>2024-04-11T14:34:49.000Z</time>
      </trkpt>
      <trkpt lat="44.15482" lon="0.75651">
        <ele>95</ele>
        <time>2024-04-11T14:34:50.000Z</time>
      </trkpt>
      <trkpt lat="44.15481" lon="0.75651">
        <ele>95</ele>
        <time>2024-04-11T14:34:51.000Z</time>
      </trkpt>
      <trkpt lat="44.1548" lon="0.75651">
        <ele>96</ele>
        <time>2024-04-11T14:34:52.000Z</time>
      </trkpt>
      <trkpt lat="44.15478" lon="0.75651">
        <ele>96</ele>
        <time>2024-04-11T14:34:53.000Z</time>
      </trkpt>
      <trkpt lat="44.15477" lon="0.75652">
        <ele>96</ele>
        <time>2024-04-11T14:34:54.000Z</time>
      </trkpt>
      <trkpt lat="44.15476" lon="0.75652">
        <ele>96</ele>
        <time>2024-04-11T14:34:55.000Z</time>
      </trkpt>
      <trkpt lat="44.15475" lon="0.75653">
        <ele>96</ele>
        <time>2024-04-11T14:34:56.000Z</time>
      </trkpt>
      <trkpt lat="44.15474" lon="0.75653">
        <ele>96</ele>
        <time>2024-04-11T14:34:57.000Z</time>
      </trkpt>
      <trkpt lat="44.15473" lon="0.75654">
        <ele>96</ele>
        <time>2024-04-11T14:34:58.000Z</time>
      </trkpt>
      <trkpt lat="44.15472" lon="0.75655">
        <ele>95</ele>
        <time>2024-04-11T14:34:59.000Z</time>
      </trkpt>
      <trkpt lat="44.15471" lon="0.75655">
        <ele>95</ele>
        <time>2024-04-11T14:35:00.000Z</time>
      </trkpt>
      <trkpt lat="44.1547" lon="0.75656">
        <ele>95</ele>
        <time>2024-04-11T14:35:01.000Z</time>
      </trkpt>
      <trkpt lat="44.15469" lon="0.75656">
        <ele>95</ele>
        <time>2024-04-11T14:35:02.000Z</time>
      </trkpt>
      <trkpt lat="44.15468" lon="0.75657">
        <ele>95</ele>
        <time>2024-04-11T14:35:03.000Z</time>
      </trkpt>
      <trkpt lat="44.15467" lon="0.75658">
        <ele>96</ele>
        <time>2024-04-11T14:35:04.000Z</time>
      </trkpt>
      <trkpt lat="44.15466" lon="0.75658">
        <ele>96</ele>
        <time>2024-04-11T14:35:05.000Z</time>
      </trkpt>
      <trkpt lat="44.15465" lon="0.75659">
        <ele>95</ele>
        <time>2024-04-11T14:35:06.000Z</time>
      </trkpt>
      <trkpt lat="44.15464" lon="0.7566">
        <ele>95</ele>
        <time>2024-04-11T14:35:07.000Z</time>
      </trkpt>
      <trkpt lat="44.15463" lon="0.75661">
        <ele>94</ele>
        <time>2024-04-11T14:35:08.000Z</time>
      </trkpt>
      <trkpt lat="44.15462" lon="0.75662">
        <ele>94</ele>
        <time>2024-04-11T14:35:09.000Z</time>
      </trkpt>
      <trkpt lat="44.15461" lon="0.75662">
        <ele>93</ele>
        <time>2024-04-11T14:35:10.000Z</time>
      </trkpt>
      <trkpt lat="44.15459" lon="0.75663">
        <ele>93</ele>
        <time>2024-04-11T14:35:11.000Z</time>
      </trkpt>
      <trkpt lat="44.15458" lon="0.75664">
        <ele>93</ele>
        <time>2024-04-11T14:35:12.000Z</time>
      </trkpt>
      <trkpt lat="44.15457" lon="0.75665">
        <ele>93</ele>
        <time>2024-04-11T14:35:13.000Z</time>
      </trkpt>
      <trkpt lat="44.15456" lon="0.75666">
        <ele>92</ele>
        <time>2024-04-11T14:35:14.000Z</time>
      </trkpt>
      <trkpt lat="44.15455" lon="0.75667">
        <ele>91</ele>
        <time>2024-04-11T14:35:15.000Z</time>
      </trkpt>
      <trkpt lat="44.15454" lon="0.75667">
        <ele>91</ele>
        <time>2024-04-11T14:35:16.000Z</time>
      </trkpt>
      <trkpt lat="44.15453" lon="0.75668">
        <ele>91</ele>
        <time>2024-04-11T14:35:17.000Z</time>
      </trkpt>
      <trkpt lat="44.15452" lon="0.75669">
        <ele>91</ele>
        <time>2024-04-11T14:35:18.000Z</time>
      </trkpt>
      <trkpt lat="44.1545" lon="0.75669">
        <ele>91</ele>
        <time>2024-04-11T14:35:19.000Z</time>
      </trkpt>
      <trkpt lat="44.15449" lon="0.7567">
        <ele>91</ele>
        <time>2024-04-11T14:35:20.000Z</time>
      </trkpt>
      <trkpt lat="44.15448" lon="0.7567">
        <ele>91</ele>
        <time>2024-04-11T14:35:21.000Z</time>
      </trkpt>
      <trkpt lat="44.15446" lon="0.75671">
        <ele>91</ele>
        <time>2024-04-11T14:35:22.000Z</time>
      </trkpt>
      <trkpt lat="44.15445" lon="0.75671">
        <ele>91</ele>
        <time>2024-04-11T14:35:23.000Z</time>
      </trkpt>
      <trkpt lat="44.15444" lon="0.75672">
        <ele>91</ele>
        <time>2024-04-11T14:35:24.000Z</time>
      </trkpt>
      <trkpt lat="44.15443" lon="0.75672">
        <ele>92</ele>
        <time>2024-04-11T14:35:25.000Z</time>
      </trkpt>
      <trkpt lat="44.15442" lon="0.75672">
        <ele>92</ele>
        <time>2024-04-11T14:35:26.000Z</time>
      </trkpt>
      <trkpt lat="44.15441" lon="0.75672">
        <ele>93</ele>
        <time>2024-04-11T14:35:27.000Z</time>
      </trkpt>
      <trkpt lat="44.15439" lon="0.75673">
        <ele>93</ele>
        <time>2024-04-11T14:35:28.000Z</time>
      </trkpt>
      <trkpt lat="44.15438" lon="0.75673">
        <ele>92</ele>
        <time>2024-04-11T14:35:29.000Z</time>
      </trkpt>
      <trkpt lat="44.15437" lon="0.75673">
        <ele>92</ele>
        <time>2024-04-11T14:35:30.000Z</time>
      </trkpt>
      <trkpt lat="44.15436" lon="0.75674">
        <ele>92</ele>
        <time>2024-04-11T14:35:31.000Z</time>
      </trkpt>
      <trkpt lat="44.15435" lon="0.75674">
        <ele>92</ele>
        <time>2024-04-11T14:35:32.000Z</time>
      </trkpt>
      <trkpt lat="44.15434" lon="0.75675">
        <ele>92</ele>
        <time>2024-04-11T14:35:33.000Z</time>
      </trkpt>
      <trkpt lat="44.15432" lon="0.75675">
        <ele>92</ele>
        <time>2024-04-11T14:35:34.000Z</time>
      </trkpt>
      <trkpt lat="44.15431" lon="0.75675">
        <ele>92</ele>
        <time>2024-04-11T14:35:35.000Z</time>
      </trkpt>
      <trkpt lat="44.1543" lon="0.75676">
        <ele>92</ele>
        <time>2024-04-11T14:35:36.000Z</time>
      </trkpt>
      <trkpt lat="44.15429" lon="0.75676">
        <ele>92</ele>
        <time>2024-04-11T14:35:37.000Z</time>
      </trkpt>
      <trkpt lat="44.15428" lon="0.75676">
        <ele>92</ele>
        <time>2024-04-11T14:35:38.000Z</time>
      </trkpt>
      <trkpt lat="44.15426" lon="0.75676">
        <ele>92</ele>
        <time>2024-04-11T14:35:39.000Z</time>
      </trkpt>
      <trkpt lat="44.15425" lon="0.75677">
        <ele>92</ele>
        <time>2024-04-11T14:35:40.000Z</time>
      </trkpt>
      <trkpt lat="44.15424" lon="0.75677">
        <ele>92</ele>
        <time>2024-04-11T14:35:41.000Z</time>
      </trkpt>
      <trkpt lat="44.15423" lon="0.75677">
        <ele>93</ele>
        <time>2024-04-11T14:35:42.000Z</time>
      </trkpt>
      <trkpt lat="44.15421" lon="0.75677">
        <ele>92</ele>
        <time>2024-04-11T14:35:43.000Z</time>
      </trkpt>
      <trkpt lat="44.1542" lon="0.75677">
        <ele>92</ele>
        <time>2024-04-11T14:35:44.000Z</time>
      </trkpt>
      <trkpt lat="44.15419" lon="0.75678">
        <ele>91</ele>
        <time>2024-04-11T14:35:45.000Z</time>
      </trkpt>
      <trkpt lat="44.15418" lon="0.75678">
        <ele>91</ele>
        <time>2024-04-11T14:35:46.000Z</time>
      </trkpt>
      <trkpt lat="44.15417" lon="0.75678">
        <ele>91</ele>
        <time>2024-04-11T14:35:47.000Z</time>
      </trkpt>
      <trkpt lat="44.15416" lon="0.75679">
        <ele>90</ele>
        <time>2024-04-11T14:35:48.000Z</time>
      </trkpt>
      <trkpt lat="44.15415" lon="0.75679">
        <ele>90</ele>
        <time>2024-04-11T14:35:49.000Z</time>
      </trkpt>
      <trkpt lat="44.15413" lon="0.7568">
        <ele>89</ele>
        <time>2024-04-11T14:35:50.000Z</time>
      </trkpt>
      <trkpt lat="44.15412" lon="0.7568">
        <ele>89</ele>
        <time>2024-04-11T14:35:51.000Z</time>
      </trkpt>
      <trkpt lat="44.15411" lon="0.7568">
        <ele>89</ele>
        <time>2024-04-11T14:35:52.000Z</time>
      </trkpt>
      <trkpt lat="44.1541" lon="0.75681">
        <ele>88</ele>
        <time>2024-04-11T14:35:53.000Z</time>
      </trkpt>
      <trkpt lat="44.15409" lon="0.75681">
        <ele>88</ele>
        <time>2024-04-11T14:35:54.000Z</time>
      </trkpt>
      <trkpt lat="44.15408" lon="0.75682">
        <ele>88</ele>
        <time>2024-04-11T14:35:55.000Z</time>
      </trkpt>
      <trkpt lat="44.15407" lon="0.75682">
        <ele>88</ele>
        <time>2024-04-11T14:35:56.000Z</time>
      </trkpt>
      <trkpt lat="44.15405" lon="0.75682">
        <ele>88</ele>
        <time>2024-04-11T14:35:57.000Z</time>
      </trkpt>
      <trkpt lat="44.15404" lon="0.75683">
        <ele>88</ele>
        <time>2024-04-11T14:35:58.000Z</time>
      </trkpt>
      <trkpt lat="44.15403" lon="0.75683">
        <ele>88</ele>
        <time>2024-04-11T14:35:59.000Z</time>
      </trkpt>
      <trkpt lat="44.15402" lon="0.75683">
        <ele>88</ele>
        <time>2024-04-11T14:36:00.000Z</time>
      </trkpt>
      <trkpt lat="44.15401" lon="0.75684">
        <ele>88</ele>
        <time>2024-04-11T14:36:01.000Z</time>
      </trkpt>
      <trkpt lat="44.15399" lon="0.75684">
        <ele>88</ele>
        <time>2024-04-11T14:36:02.000Z</time>
      </trkpt>
      <trkpt lat="44.15398" lon="0.75684">
        <ele>88</ele>
        <time>2024-04-11T14:36:03.000Z</time>
      </trkpt>
      <trkpt lat="44.15397" lon="0.75684">
        <ele>88</ele>
        <time>2024-04-11T14:36:04.000Z</time>
      </trkpt>
      <trkpt lat="44.15396" lon="0.75685">
        <ele>87</ele>
        <time>2024-04-11T14:36:05.000Z</time>
      </trkpt>
      <trkpt lat="44.15395" lon="0.75685">
        <ele>88</ele>
        <time>2024-04-11T14:36:06.000Z</time>
      </trkpt>
      <trkpt lat="44.15394" lon="0.75685">
        <ele>87</ele>
        <time>2024-04-11T14:36:07.000Z</time>
      </trkpt>
      <trkpt lat="44.15392" lon="0.75685">
        <ele>87</ele>
        <time>2024-04-11T14:36:08.000Z</time>
      </trkpt>
      <trkpt lat="44.15391" lon="0.75686">
        <ele>87</ele>
        <time>2024-04-11T14:36:09.000Z</time>
      </trkpt>
      <trkpt lat="44.1539" lon="0.75686">
        <ele>87</ele>
        <time>2024-04-11T14:36:10.000Z</time>
      </trkpt>
      <trkpt lat="44.15389" lon="0.75687">
        <ele>87</ele>
        <time>2024-04-11T14:36:11.000Z</time>
      </trkpt>
      <trkpt lat="44.15388" lon="0.75687">
        <ele>87</ele>
        <time>2024-04-11T14:36:12.000Z</time>
      </trkpt>
      <trkpt lat="44.15387" lon="0.75687">
        <ele>87</ele>
        <time>2024-04-11T14:36:13.000Z</time>
      </trkpt>
      <trkpt lat="44.15385" lon="0.75687">
        <ele>87</ele>
        <time>2024-04-11T14:36:14.000Z</time>
      </trkpt>
      <trkpt lat="44.15384" lon="0.75688">
        <ele>87</ele>
        <time>2024-04-11T14:36:15.000Z</time>
      </trkpt>
      <trkpt lat="44.15383" lon="0.75688">
        <ele>87</ele>
        <time>2024-04-11T14:36:16.000Z</time>
      </trkpt>
      <trkpt lat="44.15381" lon="0.75688">
        <ele>87</ele>
        <time>2024-04-11T14:36:17.000Z</time>
      </trkpt>
      <trkpt lat="44.1538" lon="0.75689">
        <ele>87</ele>
        <time>2024-04-11T14:36:18.000Z</time>
      </trkpt>
      <trkpt lat="44.15379" lon="0.75689">
        <ele>87</ele>
        <time>2024-04-11T14:36:19.000Z</time>
      </trkpt>
      <trkpt lat="44.15378" lon="0.7569">
        <ele>87</ele>
        <time>2024-04-11T14:36:20.000Z</time>
      </trkpt>
      <trkpt lat="44.15377" lon="0.7569">
        <ele>87</ele>
        <time>2024-04-11T14:36:21.000Z</time>
      </trkpt>
      <trkpt lat="44.15376" lon="0.75691">
        <ele>86</ele>
        <time>2024-04-11T14:36:22.000Z</time>
      </trkpt>
      <trkpt lat="44.15375" lon="0.75691">
        <ele>86</ele>
        <time>2024-04-11T14:36:23.000Z</time>
      </trkpt>
      <trkpt lat="44.15374" lon="0.75692">
        <ele>86</ele>
        <time>2024-04-11T14:36:24.000Z</time>
      </trkpt>
      <trkpt lat="44.15373" lon="0.75692">
        <ele>86</ele>
        <time>2024-04-11T14:36:25.000Z</time>
      </trkpt>
      <trkpt lat="44.15372" lon="0.75692">
        <ele>85</ele>
        <time>2024-04-11T14:36:26.000Z</time>
      </trkpt>
      <trkpt lat="44.15371" lon="0.75693">
        <ele>85</ele>
        <time>2024-04-11T14:36:27.000Z</time>
      </trkpt>
      <trkpt lat="44.15369" lon="0.75693">
        <ele>85</ele>
        <time>2024-04-11T14:36:28.000Z</time>
      </trkpt>
      <trkpt lat="44.15368" lon="0.75693">
        <ele>85</ele>
        <time>2024-04-11T14:36:29.000Z</time>
      </trkpt>
      <trkpt lat="44.15367" lon="0.75694">
        <ele>85</ele>
        <time>2024-04-11T14:36:30.000Z</time>
      </trkpt>
      <trkpt lat="44.15366" lon="0.75694">
        <ele>84</ele>
        <time>2024-04-11T14:36:31.000Z</time>
      </trkpt>
      <trkpt lat="44.15365" lon="0.75694">
        <ele>84</ele>
        <time>2024-04-11T14:36:32.000Z</time>
      </trkpt>
      <trkpt lat="44.15364" lon="0.75695">
        <ele>84</ele>
        <time>2024-04-11T14:36:33.000Z</time>
      </trkpt>
      <trkpt lat="44.15362" lon="0.75695">
        <ele>85</ele>
        <time>2024-04-11T14:36:34.000Z</time>
      </trkpt>
      <trkpt lat="44.15361" lon="0.75695">
        <ele>85</ele>
        <time>2024-04-11T14:36:35.000Z</time>
      </trkpt>
      <trkpt lat="44.1536" lon="0.75695">
        <ele>85</ele>
        <time>2024-04-11T14:36:36.000Z</time>
      </trkpt>
      <trkpt lat="44.15358" lon="0.75695">
        <ele>85</ele>
        <time>2024-04-11T14:36:37.000Z</time>
      </trkpt>
      <trkpt lat="44.15357" lon="0.75695">
        <ele>85</ele>
        <time>2024-04-11T14:36:38.000Z</time>
      </trkpt>
      <trkpt lat="44.15356" lon="0.75695">
        <ele>85</ele>
        <time>2024-04-11T14:36:39.000Z</time>
      </trkpt>
      <trkpt lat="44.15355" lon="0.75696">
        <ele>84</ele>
        <time>2024-04-11T14:36:40.000Z</time>
      </trkpt>
      <trkpt lat="44.15354" lon="0.75696">
        <ele>84</ele>
        <time>2024-04-11T14:36:41.000Z</time>
      </trkpt>
      <trkpt lat="44.15353" lon="0.75696">
        <ele>84</ele>
        <time>2024-04-11T14:36:42.000Z</time>
      </trkpt>
      <trkpt lat="44.15352" lon="0.75697">
        <ele>84</ele>
        <time>2024-04-11T14:36:43.000Z</time>
      </trkpt>
      <trkpt lat="44.15351" lon="0.75697">
        <ele>83</ele>
        <time>2024-04-11T14:36:44.000Z</time>
      </trkpt>
      <trkpt lat="44.1535" lon="0.75697">
        <ele>83</ele>
        <time>2024-04-11T14:36:45.000Z</time>
      </trkpt>
      <trkpt lat="44.15348" lon="0.75697">
        <ele>83</ele>
        <time>2024-04-11T14:36:46.000Z</time>
      </trkpt>
      <trkpt lat="44.15347" lon="0.75697">
        <ele>83</ele>
        <time>2024-04-11T14:36:47.000Z</time>
      </trkpt>
      <trkpt lat="44.15346" lon="0.75698">
        <ele>83</ele>
        <time>2024-04-11T14:36:48.000Z</time>
      </trkpt>
      <trkpt lat="44.15345" lon="0.75698">
        <ele>83</ele>
        <time>2024-04-11T14:36:49.000Z</time>
      </trkpt>
      <trkpt lat="44.15344" lon="0.75698">
        <ele>82</ele>
        <time>2024-04-11T14:36:50.000Z</time>
      </trkpt>
      <trkpt lat="44.15343" lon="0.75698">
        <ele>83</ele>
        <time>2024-04-11T14:36:51.000Z</time>
      </trkpt>
      <trkpt lat="44.15341" lon="0.75698">
        <ele>82</ele>
        <time>2024-04-11T14:36:52.000Z</time>
      </trkpt>
      <trkpt lat="44.1534" lon="0.75698">
        <ele>82</ele>
        <time>2024-04-11T14:36:53.000Z</time>
      </trkpt>
      <trkpt lat="44.15339" lon="0.75698">
        <ele>82</ele>
        <time>2024-04-11T14:36:54.000Z</time>
      </trkpt>
      <trkpt lat="44.15338" lon="0.75698">
        <ele>81</ele>
        <time>2024-04-11T14:36:55.000Z</time>
      </trkpt>
      <trkpt lat="44.15337" lon="0.75698">
        <ele>81</ele>
        <time>2024-04-11T14:36:56.000Z</time>
      </trkpt>
      <trkpt lat="44.15336" lon="0.75698">
        <ele>81</ele>
        <time>2024-04-11T14:36:57.000Z</time>
      </trkpt>
      <trkpt lat="44.15335" lon="0.75698">
        <ele>81</ele>
        <time>2024-04-11T14:36:58.000Z</time>
      </trkpt>
      <trkpt lat="44.15333" lon="0.75698">
        <ele>81</ele>
        <time>2024-04-11T14:36:59.000Z</time>
      </trkpt>
      <trkpt lat="44.15332" lon="0.75698">
        <ele>81</ele>
        <time>2024-04-11T14:37:00.000Z</time>
      </trkpt>
      <trkpt lat="44.15331" lon="0.75698">
        <ele>80</ele>
        <time>2024-04-11T14:37:01.000Z</time>
      </trkpt>
      <trkpt lat="44.1533" lon="0.75698">
        <ele>80</ele>
        <time>2024-04-11T14:37:02.000Z</time>
      </trkpt>
      <trkpt lat="44.15328" lon="0.75698">
        <ele>80</ele>
        <time>2024-04-11T14:37:03.000Z</time>
      </trkpt>
      <trkpt lat="44.15327" lon="0.75698">
        <ele>80</ele>
        <time>2024-04-11T14:37:04.000Z</time>
      </trkpt>
      <trkpt lat="44.15326" lon="0.75698">
        <ele>80</ele>
        <time>2024-04-11T14:37:05.000Z</time>
      </trkpt>
      <trkpt lat="44.15325" lon="0.75698">
        <ele>80</ele>
        <time>2024-04-11T14:37:06.000Z</time>
      </trkpt>
      <trkpt lat="44.15323" lon="0.75698">
        <ele>80</ele>
        <time>2024-04-11T14:37:07.000Z</time>
      </trkpt>
      <trkpt lat="44.15322" lon="0.75698">
        <ele>80</ele>
        <time>2024-04-11T14:37:08.000Z</time>
      </trkpt>
      <trkpt lat="44.15321" lon="0.75698">
        <ele>80</ele>
        <time>2024-04-11T14:37:09.000Z</time>
      </trkpt>
      <trkpt lat="44.1532" lon="0.75698">
        <ele>80</ele>
        <time>2024-04-11T14:37:10.000Z</time>
      </trkpt>
      <trkpt lat="44.15318" lon="0.75698">
        <ele>79</ele>
        <time>2024-04-11T14:37:11.000Z</time>
      </trkpt>
      <trkpt lat="44.15317" lon="0.75698">
        <ele>79</ele>
        <time>2024-04-11T14:37:12.000Z</time>
      </trkpt>
      <trkpt lat="44.15316" lon="0.75698">
        <ele>79</ele>
        <time>2024-04-11T14:37:13.000Z</time>
      </trkpt>
      <trkpt lat="44.15315" lon="0.75698">
        <ele>79</ele>
        <time>2024-04-11T14:37:14.000Z</time>
      </trkpt>
      <trkpt lat="44.15314" lon="0.75699">
        <ele>79</ele>
        <time>2024-04-11T14:37:15.000Z</time>
      </trkpt>
      <trkpt lat="44.15312" lon="0.75699">
        <ele>79</ele>
        <time>2024-04-11T14:37:16.000Z</time>
      </trkpt>
      <trkpt lat="44.15311" lon="0.75699">
        <ele>79</ele>
        <time>2024-04-11T14:37:17.000Z</time>
      </trkpt>
      <trkpt lat="44.1531" lon="0.75699">
        <ele>78</ele>
        <time>2024-04-11T14:37:18.000Z</time>
      </trkpt>
      <trkpt lat="44.15309" lon="0.757">
        <ele>78</ele>
        <time>2024-04-11T14:37:19.000Z</time>
      </trkpt>
      <trkpt lat="44.15308" lon="0.757">
        <ele>78</ele>
        <time>2024-04-11T14:37:20.000Z</time>
      </trkpt>
      <trkpt lat="44.15306" lon="0.757">
        <ele>78</ele>
        <time>2024-04-11T14:37:21.000Z</time>
      </trkpt>
      <trkpt lat="44.15305" lon="0.75701">
        <ele>79</ele>
        <time>2024-04-11T14:37:22.000Z</time>
      </trkpt>
      <trkpt lat="44.15304" lon="0.75701">
        <ele>79</ele>
        <time>2024-04-11T14:37:23.000Z</time>
      </trkpt>
      <trkpt lat="44.15303" lon="0.75701">
        <ele>79</ele>
        <time>2024-04-11T14:37:24.000Z</time>
      </trkpt>
      <trkpt lat="44.15301" lon="0.75701">
        <ele>78</ele>
        <time>2024-04-11T14:37:25.000Z</time>
      </trkpt>
      <trkpt lat="44.153" lon="0.75702">
        <ele>79</ele>
        <time>2024-04-11T14:37:26.000Z</time>
      </trkpt>
      <trkpt lat="44.15299" lon="0.75702">
        <ele>79</ele>
        <time>2024-04-11T14:37:27.000Z</time>
      </trkpt>
      <trkpt lat="44.15298" lon="0.75702">
        <ele>79</ele>
        <time>2024-04-11T14:37:28.000Z</time>
      </trkpt>
      <trkpt lat="44.15296" lon="0.75702">
        <ele>79</ele>
        <time>2024-04-11T14:37:29.000Z</time>
      </trkpt>
      <trkpt lat="44.15295" lon="0.75703">
        <ele>79</ele>
        <time>2024-04-11T14:37:30.000Z</time>
      </trkpt>
      <trkpt lat="44.15294" lon="0.75703">
        <ele>78</ele>
        <time>2024-04-11T14:37:31.000Z</time>
      </trkpt>
      <trkpt lat="44.15293" lon="0.75704">
        <ele>78</ele>
        <time>2024-04-11T14:37:32.000Z</time>
      </trkpt>
      <trkpt lat="44.15292" lon="0.75704">
        <ele>78</ele>
        <time>2024-04-11T14:37:33.000Z</time>
      </trkpt>
      <trkpt lat="44.15291" lon="0.75704">
        <ele>78</ele>
        <time>2024-04-11T14:37:34.000Z</time>
      </trkpt>
      <trkpt lat="44.1529" lon="0.75705">
        <ele>78</ele>
        <time>2024-04-11T14:37:35.000Z</time>
      </trkpt>
      <trkpt lat="44.15289" lon="0.75706">
        <ele>78</ele>
        <time>2024-04-11T14:37:36.000Z</time>
      </trkpt>
      <trkpt lat="44.15287" lon="0.75706">
        <ele>78</ele>
        <time>2024-04-11T14:37:37.000Z</time>
      </trkpt>
      <trkpt lat="44.15286" lon="0.75706">
        <ele>78</ele>
        <time>2024-04-11T14:37:38.000Z</time>
      </trkpt>
      <trkpt lat="44.15285" lon="0.75706">
        <ele>78</ele>
        <time>2024-04-11T14:37:39.000Z</time>
      </trkpt>
      <trkpt lat="44.15284" lon="0.75707">
        <ele>78</ele>
        <time>2024-04-11T14:37:40.000Z</time>
      </trkpt>
      <trkpt lat="44.15283" lon="0.75707">
        <ele>77</ele>
        <time>2024-04-11T14:37:41.000Z</time>
      </trkpt>
      <trkpt lat="44.15281" lon="0.75707">
        <ele>77</ele>
        <time>2024-04-11T14:37:42.000Z</time>
      </trkpt>
      <trkpt lat="44.1528" lon="0.75707">
        <ele>77</ele>
        <time>2024-04-11T14:37:43.000Z</time>
      </trkpt>
      <trkpt lat="44.15279" lon="0.75707">
        <ele>77</ele>
        <time>2024-04-11T14:37:44.000Z</time>
      </trkpt>
      <trkpt lat="44.15278" lon="0.75707">
        <ele>77</ele>
        <time>2024-04-11T14:37:45.000Z</time>
      </trkpt>
      <trkpt lat="44.15277" lon="0.75708">
        <ele>77</ele>
        <time>2024-04-11T14:37:46.000Z</time>
      </trkpt>
      <trkpt lat="44.15276" lon="0.75708">
        <ele>77</ele>
        <time>2024-04-11T14:37:47.000Z</time>
      </trkpt>
      <trkpt lat="44.15275" lon="0.75708">
        <ele>78</ele>
        <time>2024-04-11T14:37:48.000Z</time>
      </trkpt>
      <trkpt lat="44.15274" lon="0.75709">
        <ele>77</ele>
        <time>2024-04-11T14:37:49.000Z</time>
      </trkpt>
      <trkpt lat="44.15273" lon="0.75709">
        <ele>78</ele>
        <time>2024-04-11T14:37:50.000Z</time>
      </trkpt>
      <trkpt lat="44.15271" lon="0.75709">
        <ele>78</ele>
        <time>2024-04-11T14:37:51.000Z</time>
      </trkpt>
      <trkpt lat="44.1527" lon="0.75709">
        <ele>78</ele>
        <time>2024-04-11T14:37:52.000Z</time>
      </trkpt>
      <trkpt lat="44.15269" lon="0.75709">
        <ele>78</ele>
        <time>2024-04-11T14:37:53.000Z</time>
      </trkpt>
      <trkpt lat="44.15268" lon="0.7571">
        <ele>78</ele>
        <time>2024-04-11T14:37:54.000Z</time>
      </trkpt>
      <trkpt lat="44.15267" lon="0.7571">
        <ele>78</ele>
        <time>2024-04-11T14:37:55.000Z</time>
      </trkpt>
      <trkpt lat="44.15265" lon="0.7571">
        <ele>79</ele>
        <time>2024-04-11T14:37:56.000Z</time>
      </trkpt>
      <trkpt lat="44.15264" lon="0.7571">
        <ele>79</ele>
        <time>2024-04-11T14:37:57.000Z</time>
      </trkpt>
      <trkpt lat="44.15263" lon="0.7571">
        <ele>79</ele>
        <time>2024-04-11T14:37:58.000Z</time>
      </trkpt>
      <trkpt lat="44.15262" lon="0.7571">
        <ele>79</ele>
        <time>2024-04-11T14:37:59.000Z</time>
      </trkpt>
      <trkpt lat="44.15261" lon="0.75711">
        <ele>79</ele>
        <time>2024-04-11T14:38:00.000Z</time>
      </trkpt>
      <trkpt lat="44.15259" lon="0.75711">
        <ele>79</ele>
        <time>2024-04-11T14:38:01.000Z</time>
      </trkpt>
      <trkpt lat="44.15258" lon="0.75711">
        <ele>79</ele>
        <time>2024-04-11T14:38:02.000Z</time>
      </trkpt>
      <trkpt lat="44.15257" lon="0.75712">
        <ele>79</ele>
        <time>2024-04-11T14:38:03.000Z</time>
      </trkpt>
      <trkpt lat="44.15256" lon="0.75712">
        <ele>79</ele>
        <time>2024-04-11T14:38:04.000Z</time>
      </trkpt>
      <trkpt lat="44.15255" lon="0.75713">
        <ele>79</ele>
        <time>2024-04-11T14:38:05.000Z</time>
      </trkpt>
      <trkpt lat="44.15254" lon="0.75713">
        <ele>78</ele>
        <time>2024-04-11T14:38:06.000Z</time>
      </trkpt>
      <trkpt lat="44.15253" lon="0.75713">
        <ele>78</ele>
        <time>2024-04-11T14:38:07.000Z</time>
      </trkpt>
      <trkpt lat="44.15252" lon="0.75714">
        <ele>79</ele>
        <time>2024-04-11T14:38:08.000Z</time>
      </trkpt>
      <trkpt lat="44.1525" lon="0.75714">
        <ele>79</ele>
        <time>2024-04-11T14:38:09.000Z</time>
      </trkpt>
      <trkpt lat="44.15249" lon="0.75715">
        <ele>79</ele>
        <time>2024-04-11T14:38:10.000Z</time>
      </trkpt>
      <trkpt lat="44.15248" lon="0.75715">
        <ele>79</ele>
        <time>2024-04-11T14:38:11.000Z</time>
      </trkpt>
      <trkpt lat="44.15247" lon="0.75715">
        <ele>79</ele>
        <time>2024-04-11T14:38:12.000Z</time>
      </trkpt>
      <trkpt lat="44.15246" lon="0.75716">
        <ele>79</ele>
        <time>2024-04-11T14:38:13.000Z</time>
      </trkpt>
      <trkpt lat="44.15245" lon="0.75716">
        <ele>79</ele>
        <time>2024-04-11T14:38:14.000Z</time>
      </trkpt>
      <trkpt lat="44.15244" lon="0.75716">
        <ele>79</ele>
        <time>2024-04-11T14:38:15.000Z</time>
      </trkpt>
      <trkpt lat="44.15243" lon="0.75717">
        <ele>78</ele>
        <time>2024-04-11T14:38:16.000Z</time>
      </trkpt>
      <trkpt lat="44.15242" lon="0.75718">
        <ele>78</ele>
        <time>2024-04-11T14:38:17.000Z</time>
      </trkpt>
      <trkpt lat="44.15241" lon="0.75718">
        <ele>78</ele>
        <time>2024-04-11T14:38:18.000Z</time>
      </trkpt>
      <trkpt lat="44.1524" lon="0.75719">
        <ele>77</ele>
        <time>2024-04-11T14:38:19.000Z</time>
      </trkpt>
      <trkpt lat="44.15239" lon="0.7572">
        <ele>78</ele>
        <time>2024-04-11T14:38:20.000Z</time>
      </trkpt>
      <trkpt lat="44.15238" lon="0.75721">
        <ele>78</ele>
        <time>2024-04-11T14:38:21.000Z</time>
      </trkpt>
      <trkpt lat="44.15237" lon="0.75721">
        <ele>78</ele>
        <time>2024-04-11T14:38:22.000Z</time>
      </trkpt>
      <trkpt lat="44.15236" lon="0.75721">
        <ele>79</ele>
        <time>2024-04-11T14:38:23.000Z</time>
      </trkpt>
      <trkpt lat="44.15235" lon="0.75722">
        <ele>79</ele>
        <time>2024-04-11T14:38:24.000Z</time>
      </trkpt>
      <trkpt lat="44.15233" lon="0.75722">
        <ele>79</ele>
        <time>2024-04-11T14:38:25.000Z</time>
      </trkpt>
      <trkpt lat="44.15232" lon="0.75723">
        <ele>79</ele>
        <time>2024-04-11T14:38:26.000Z</time>
      </trkpt>
      <trkpt lat="44.15231" lon="0.75723">
        <ele>79</ele>
        <time>2024-04-11T14:38:27.000Z</time>
      </trkpt>
      <trkpt lat="44.1523" lon="0.75724">
        <ele>80</ele>
        <time>2024-04-11T14:38:28.000Z</time>
      </trkpt>
      <trkpt lat="44.15229" lon="0.75724">
        <ele>80</ele>
        <time>2024-04-11T14:38:29.000Z</time>
      </trkpt>
      <trkpt lat="44.15227" lon="0.75725">
        <ele>80</ele>
        <time>2024-04-11T14:38:30.000Z</time>
      </trkpt>
      <trkpt lat="44.15226" lon="0.75726">
        <ele>80</ele>
        <time>2024-04-11T14:38:31.000Z</time>
      </trkpt>
      <trkpt lat="44.15225" lon="0.75726">
        <ele>80</ele>
        <time>2024-04-11T14:38:32.000Z</time>
      </trkpt>
      <trkpt lat="44.15224" lon="0.75727">
        <ele>81</ele>
        <time>2024-04-11T14:38:33.000Z</time>
      </trkpt>
      <trkpt lat="44.15223" lon="0.75728">
        <ele>81</ele>
        <time>2024-04-11T14:38:34.000Z</time>
      </trkpt>
      <trkpt lat="44.15222" lon="0.75728">
        <ele>80</ele>
        <time>2024-04-11T14:38:35.000Z</time>
      </trkpt>
      <trkpt lat="44.15221" lon="0.75729">
        <ele>80</ele>
        <time>2024-04-11T14:38:36.000Z</time>
      </trkpt>
      <trkpt lat="44.1522" lon="0.7573">
        <ele>80</ele>
        <time>2024-04-11T14:38:37.000Z</time>
      </trkpt>
      <trkpt lat="44.15219" lon="0.75731">
        <ele>78</ele>
        <time>2024-04-11T14:38:38.000Z</time>
      </trkpt>
      <trkpt lat="44.15218" lon="0.75732">
        <ele>78</ele>
        <time>2024-04-11T14:38:39.000Z</time>
      </trkpt>
      <trkpt lat="44.15217" lon="0.75733">
        <ele>78</ele>
        <time>2024-04-11T14:38:40.000Z</time>
      </trkpt>
      <trkpt lat="44.15216" lon="0.75733">
        <ele>78</ele>
        <time>2024-04-11T14:38:41.000Z</time>
      </trkpt>
      <trkpt lat="44.15215" lon="0.75734">
        <ele>78</ele>
        <time>2024-04-11T14:38:42.000Z</time>
      </trkpt>
      <trkpt lat="44.15214" lon="0.75734">
        <ele>78</ele>
        <time>2024-04-11T14:38:43.000Z</time>
      </trkpt>
      <trkpt lat="44.15213" lon="0.75735">
        <ele>78</ele>
        <time>2024-04-11T14:38:44.000Z</time>
      </trkpt>
      <trkpt lat="44.15211" lon="0.75736">
        <ele>78</ele>
        <time>2024-04-11T14:38:45.000Z</time>
      </trkpt>
      <trkpt lat="44.1521" lon="0.75737">
        <ele>78</ele>
        <time>2024-04-11T14:38:46.000Z</time>
      </trkpt>
      <trkpt lat="44.15209" lon="0.75737">
        <ele>78</ele>
        <time>2024-04-11T14:38:47.000Z</time>
      </trkpt>
      <trkpt lat="44.15208" lon="0.75738">
        <ele>78</ele>
        <time>2024-04-11T14:38:48.000Z</time>
      </trkpt>
      <trkpt lat="44.15207" lon="0.75738">
        <ele>78</ele>
        <time>2024-04-11T14:38:49.000Z</time>
      </trkpt>
      <trkpt lat="44.15206" lon="0.75739">
        <ele>77</ele>
        <time>2024-04-11T14:38:50.000Z</time>
      </trkpt>
      <trkpt lat="44.15205" lon="0.7574">
        <ele>78</ele>
        <time>2024-04-11T14:38:51.000Z</time>
      </trkpt>
      <trkpt lat="44.15203" lon="0.7574">
        <ele>78</ele>
        <time>2024-04-11T14:38:52.000Z</time>
      </trkpt>
      <trkpt lat="44.15202" lon="0.75741">
        <ele>78</ele>
        <time>2024-04-11T14:38:53.000Z</time>
      </trkpt>
      <trkpt lat="44.15201" lon="0.75741">
        <ele>79</ele>
        <time>2024-04-11T14:38:54.000Z</time>
      </trkpt>
      <trkpt lat="44.15199" lon="0.75741">
        <ele>79</ele>
        <time>2024-04-11T14:38:55.000Z</time>
      </trkpt>
      <trkpt lat="44.15198" lon="0.75741">
        <ele>79</ele>
        <time>2024-04-11T14:38:56.000Z</time>
      </trkpt>
      <trkpt lat="44.15197" lon="0.75741">
        <ele>79</ele>
        <time>2024-04-11T14:38:57.000Z</time>
      </trkpt>
      <trkpt lat="44.15196" lon="0.75742">
        <ele>79</ele>
        <time>2024-04-11T14:38:58.000Z</time>
      </trkpt>
      <trkpt lat="44.15194" lon="0.75742">
        <ele>80</ele>
        <time>2024-04-11T14:38:59.000Z</time>
      </trkpt>
      <trkpt lat="44.15193" lon="0.75742">
        <ele>80</ele>
        <time>2024-04-11T14:39:00.000Z</time>
      </trkpt>
      <trkpt lat="44.15192" lon="0.75742">
        <ele>80</ele>
        <time>2024-04-11T14:39:01.000Z</time>
      </trkpt>
      <trkpt lat="44.15191" lon="0.75742">
        <ele>80</ele>
        <time>2024-04-11T14:39:02.000Z</time>
      </trkpt>
      <trkpt lat="44.1519" lon="0.75743">
        <ele>79</ele>
        <time>2024-04-11T14:39:03.000Z</time>
      </trkpt>
      <trkpt lat="44.15189" lon="0.75743">
        <ele>80</ele>
        <time>2024-04-11T14:39:04.000Z</time>
      </trkpt>
      <trkpt lat="44.15188" lon="0.75743">
        <ele>80</ele>
        <time>2024-04-11T14:39:05.000Z</time>
      </trkpt>
      <trkpt lat="44.15187" lon="0.75743">
        <ele>80</ele>
        <time>2024-04-11T14:39:06.000Z</time>
      </trkpt>
      <trkpt lat="44.15186" lon="0.75742">
        <ele>80</ele>
        <time>2024-04-11T14:39:07.000Z</time>
      </trkpt>
      <trkpt lat="44.15185" lon="0.75742">
        <ele>80</ele>
        <time>2024-04-11T14:39:08.000Z</time>
      </trkpt>
      <trkpt lat="44.15184" lon="0.75742">
        <ele>80</ele>
        <time>2024-04-11T14:39:09.000Z</time>
      </trkpt>
      <trkpt lat="44.15182" lon="0.75742">
        <ele>80</ele>
        <time>2024-04-11T14:39:10.000Z</time>
      </trkpt>
      <trkpt lat="44.15181" lon="0.75742">
        <ele>79</ele>
        <time>2024-04-11T14:39:11.000Z</time>
      </trkpt>
      <trkpt lat="44.1518" lon="0.75741">
        <ele>78</ele>
        <time>2024-04-11T14:39:12.000Z</time>
      </trkpt>
      <trkpt lat="44.15179" lon="0.75741">
        <ele>78</ele>
        <time>2024-04-11T14:39:13.000Z</time>
      </trkpt>
      <trkpt lat="44.15178" lon="0.75741">
        <ele>78</ele>
        <time>2024-04-11T14:39:14.000Z</time>
      </trkpt>
      <trkpt lat="44.15177" lon="0.75741">
        <ele>78</ele>
        <time>2024-04-11T14:39:15.000Z</time>
      </trkpt>
      <trkpt lat="44.15176" lon="0.75741">
        <ele>78</ele>
        <time>2024-04-11T14:39:16.000Z</time>
      </trkpt>
      <trkpt lat="44.15175" lon="0.75741">
        <ele>77</ele>
        <time>2024-04-11T14:39:17.000Z</time>
      </trkpt>
      <trkpt lat="44.15175" lon="0.7574">
        <ele>77</ele>
        <time>2024-04-11T14:39:18.000Z</time>
      </trkpt>
      <trkpt lat="44.15174" lon="0.75739">
        <ele>76</ele>
        <time>2024-04-11T14:39:19.000Z</time>
      </trkpt>
      <trkpt lat="44.15173" lon="0.75739">
        <ele>75</ele>
        <time>2024-04-11T14:39:20.000Z</time>
      </trkpt>
      <trkpt lat="44.15172" lon="0.75738">
        <ele>75</ele>
        <time>2024-04-11T14:39:21.000Z</time>
      </trkpt>
      <trkpt lat="44.15171" lon="0.75737">
        <ele>75</ele>
        <time>2024-04-11T14:39:22.000Z</time>
      </trkpt>
      <trkpt lat="44.15171" lon="0.75736">
        <ele>73</ele>
        <time>2024-04-11T14:39:23.000Z</time>
      </trkpt>
      <trkpt lat="44.1517" lon="0.75735">
        <ele>72</ele>
        <time>2024-04-11T14:39:24.000Z</time>
      </trkpt>
      <trkpt lat="44.1517" lon="0.75734">
        <ele>72</ele>
        <time>2024-04-11T14:39:25.000Z</time>
      </trkpt>
      <trkpt lat="44.15169" lon="0.75733">
        <ele>72</ele>
        <time>2024-04-11T14:39:26.000Z</time>
      </trkpt>
      <trkpt lat="44.15168" lon="0.75732">
        <ele>72</ele>
        <time>2024-04-11T14:39:27.000Z</time>
      </trkpt>
      <trkpt lat="44.15167" lon="0.75732">
        <ele>70</ele>
        <time>2024-04-11T14:39:28.000Z</time>
      </trkpt>
      <trkpt lat="44.15166" lon="0.75731">
        <ele>69</ele>
        <time>2024-04-11T14:39:29.000Z</time>
      </trkpt>
      <trkpt lat="44.15166" lon="0.7573">
        <ele>69</ele>
        <time>2024-04-11T14:39:30.000Z</time>
      </trkpt>
      <trkpt lat="44.15165" lon="0.75729">
        <ele>68</ele>
        <time>2024-04-11T14:39:31.000Z</time>
      </trkpt>
      <trkpt lat="44.15164" lon="0.75727">
        <ele>68</ele>
        <time>2024-04-11T14:39:32.000Z</time>
      </trkpt>
      <trkpt lat="44.15163" lon="0.75726">
        <ele>67</ele>
        <time>2024-04-11T14:39:33.000Z</time>
      </trkpt>
      <trkpt lat="44.15163" lon="0.75725">
        <ele>67</ele>
        <time>2024-04-11T14:39:34.000Z</time>
      </trkpt>
      <trkpt lat="44.15162" lon="0.75724">
        <ele>66</ele>
        <time>2024-04-11T14:39:35.000Z</time>
      </trkpt>
      <trkpt lat="44.15162" lon="0.75723">
        <ele>66</ele>
        <time>2024-04-11T14:39:36.000Z</time>
      </trkpt>
      <trkpt lat="44.15161" lon="0.75722">
        <ele>66</ele>
        <time>2024-04-11T14:39:37.000Z</time>
      </trkpt>
      <trkpt lat="44.1516" lon="0.75721">
        <ele>66</ele>
        <time>2024-04-11T14:39:38.000Z</time>
      </trkpt>
      <trkpt lat="44.15159" lon="0.75719">
        <ele>66</ele>
        <time>2024-04-11T14:39:39.000Z</time>
      </trkpt>
      <trkpt lat="44.15158" lon="0.75718">
        <ele>66</ele>
        <time>2024-04-11T14:39:40.000Z</time>
      </trkpt>
      <trkpt lat="44.15157" lon="0.75717">
        <ele>66</ele>
        <time>2024-04-11T14:39:41.000Z</time>
      </trkpt>
      <trkpt lat="44.15157" lon="0.75716">
        <ele>66</ele>
        <time>2024-04-11T14:39:42.000Z</time>
      </trkpt>
      <trkpt lat="44.15156" lon="0.75714">
        <ele>66</ele>
        <time>2024-04-11T14:39:43.000Z</time>
      </trkpt>
      <trkpt lat="44.15155" lon="0.75713">
        <ele>66</ele>
        <time>2024-04-11T14:39:44.000Z</time>
      </trkpt>
      <trkpt lat="44.15155" lon="0.75712">
        <ele>66</ele>
        <time>2024-04-11T14:39:45.000Z</time>
      </trkpt>
      <trkpt lat="44.15154" lon="0.75711">
        <ele>66</ele>
        <time>2024-04-11T14:39:46.000Z</time>
      </trkpt>
      <trkpt lat="44.15153" lon="0.75709">
        <ele>66</ele>
        <time>2024-04-11T14:39:47.000Z</time>
      </trkpt>
      <trkpt lat="44.15153" lon="0.75708">
        <ele>65</ele>
        <time>2024-04-11T14:39:48.000Z</time>
      </trkpt>
      <trkpt lat="44.15152" lon="0.75707">
        <ele>65</ele>
        <time>2024-04-11T14:39:49.000Z</time>
      </trkpt>
      <trkpt lat="44.15151" lon="0.75706">
        <ele>65</ele>
        <time>2024-04-11T14:39:50.000Z</time>
      </trkpt>
      <trkpt lat="44.1515" lon="0.75704">
        <ele>64</ele>
        <time>2024-04-11T14:39:51.000Z</time>
      </trkpt>
      <trkpt lat="44.15149" lon="0.75703">
        <ele>64</ele>
        <time>2024-04-11T14:39:52.000Z</time>
      </trkpt>
      <trkpt lat="44.15148" lon="0.75702">
        <ele>64</ele>
        <time>2024-04-11T14:39:53.000Z</time>
      </trkpt>
      <trkpt lat="44.15147" lon="0.75701">
        <ele>64</ele>
        <time>2024-04-11T14:39:54.000Z</time>
      </trkpt>
      <trkpt lat="44.15147" lon="0.757">
        <ele>63</ele>
        <time>2024-04-11T14:39:55.000Z</time>
      </trkpt>
      <trkpt lat="44.15146" lon="0.75698">
        <ele>63</ele>
        <time>2024-04-11T14:39:56.000Z</time>
      </trkpt>
      <trkpt lat="44.15145" lon="0.75697">
        <ele>63</ele>
        <time>2024-04-11T14:39:57.000Z</time>
      </trkpt>
      <trkpt lat="44.15144" lon="0.75696">
        <ele>62</ele>
        <time>2024-04-11T14:39:58.000Z</time>
      </trkpt>
      <trkpt lat="44.15144" lon="0.75695">
        <ele>62</ele>
        <time>2024-04-11T14:39:59.000Z</time>
      </trkpt>
      <trkpt lat="44.15143" lon="0.75694">
        <ele>62</ele>
        <time>2024-04-11T14:40:00.000Z</time>
      </trkpt>
      <trkpt lat="44.15142" lon="0.75693">
        <ele>62</ele>
        <time>2024-04-11T14:40:01.000Z</time>
      </trkpt>
      <trkpt lat="44.15141" lon="0.75692">
        <ele>62</ele>
        <time>2024-04-11T14:40:02.000Z</time>
      </trkpt>
      <trkpt lat="44.1514" lon="0.75691">
        <ele>62</ele>
        <time>2024-04-11T14:40:03.000Z</time>
      </trkpt>
      <trkpt lat="44.15139" lon="0.7569">
        <ele>62</ele>
        <time>2024-04-11T14:40:04.000Z</time>
      </trkpt>
      <trkpt lat="44.15138" lon="0.75689">
        <ele>62</ele>
        <time>2024-04-11T14:40:05.000Z</time>
      </trkpt>
      <trkpt lat="44.15138" lon="0.75687">
        <ele>62</ele>
        <time>2024-04-11T14:40:06.000Z</time>
      </trkpt>
      <trkpt lat="44.15137" lon="0.75686">
        <ele>63</ele>
        <time>2024-04-11T14:40:07.000Z</time>
      </trkpt>
      <trkpt lat="44.15136" lon="0.75684">
        <ele>63</ele>
        <time>2024-04-11T14:40:08.000Z</time>
      </trkpt>
      <trkpt lat="44.15135" lon="0.75683">
        <ele>62</ele>
        <time>2024-04-11T14:40:09.000Z</time>
      </trkpt>
      <trkpt lat="44.15135" lon="0.75681">
        <ele>62</ele>
        <time>2024-04-11T14:40:10.000Z</time>
      </trkpt>
      <trkpt lat="44.15134" lon="0.7568">
        <ele>62</ele>
        <time>2024-04-11T14:40:11.000Z</time>
      </trkpt>
      <trkpt lat="44.15133" lon="0.75679">
        <ele>62</ele>
        <time>2024-04-11T14:40:12.000Z</time>
      </trkpt>
      <trkpt lat="44.15132" lon="0.75677">
        <ele>61</ele>
        <time>2024-04-11T14:40:13.000Z</time>
      </trkpt>
      <trkpt lat="44.15131" lon="0.75676">
        <ele>61</ele>
        <time>2024-04-11T14:40:14.000Z</time>
      </trkpt>
      <trkpt lat="44.1513" lon="0.75675">
        <ele>61</ele>
        <time>2024-04-11T14:40:15.000Z</time>
      </trkpt>
      <trkpt lat="44.15129" lon="0.75674">
        <ele>61</ele>
        <time>2024-04-11T14:40:16.000Z</time>
      </trkpt>
      <trkpt lat="44.15128" lon="0.75673">
        <ele>61</ele>
        <time>2024-04-11T14:40:17.000Z</time>
      </trkpt>
      <trkpt lat="44.15127" lon="0.75671">
        <ele>61</ele>
        <time>2024-04-11T14:40:18.000Z</time>
      </trkpt>
      <trkpt lat="44.15126" lon="0.7567">
        <ele>61</ele>
        <time>2024-04-11T14:40:19.000Z</time>
      </trkpt>
      <trkpt lat="44.15125" lon="0.75669">
        <ele>60</ele>
        <time>2024-04-11T14:40:20.000Z</time>
      </trkpt>
      <trkpt lat="44.15124" lon="0.75668">
        <ele>60</ele>
        <time>2024-04-11T14:40:21.000Z</time>
      </trkpt>
      <trkpt lat="44.15123" lon="0.75667">
        <ele>60</ele>
        <time>2024-04-11T14:40:22.000Z</time>
      </trkpt>
      <trkpt lat="44.15122" lon="0.75666">
        <ele>60</ele>
        <time>2024-04-11T14:40:23.000Z</time>
      </trkpt>
      <trkpt lat="44.15121" lon="0.75665">
        <ele>60</ele>
        <time>2024-04-11T14:40:24.000Z</time>
      </trkpt>
      <trkpt lat="44.1512" lon="0.75664">
        <ele>60</ele>
        <time>2024-04-11T14:40:25.000Z</time>
      </trkpt>
      <trkpt lat="44.15119" lon="0.75663">
        <ele>59</ele>
        <time>2024-04-11T14:40:26.000Z</time>
      </trkpt>
      <trkpt lat="44.15118" lon="0.75662">
        <ele>59</ele>
        <time>2024-04-11T14:40:27.000Z</time>
      </trkpt>
      <trkpt lat="44.15117" lon="0.75662">
        <ele>60</ele>
        <time>2024-04-11T14:40:28.000Z</time>
      </trkpt>
      <trkpt lat="44.15116" lon="0.75661">
        <ele>59</ele>
        <time>2024-04-11T14:40:29.000Z</time>
      </trkpt>
      <trkpt lat="44.15115" lon="0.7566">
        <ele>59</ele>
        <time>2024-04-11T14:40:30.000Z</time>
      </trkpt>
      <trkpt lat="44.15114" lon="0.75659">
        <ele>59</ele>
        <time>2024-04-11T14:40:31.000Z</time>
      </trkpt>
      <trkpt lat="44.15113" lon="0.75659">
        <ele>59</ele>
        <time>2024-04-11T14:40:32.000Z</time>
      </trkpt>
      <trkpt lat="44.15112" lon="0.75659">
        <ele>59</ele>
        <time>2024-04-11T14:40:33.000Z</time>
      </trkpt>
      <trkpt lat="44.15111" lon="0.75658">
        <ele>59</ele>
        <time>2024-04-11T14:40:34.000Z</time>
      </trkpt>
      <trkpt lat="44.1511" lon="0.75657">
        <ele>59</ele>
        <time>2024-04-11T14:40:35.000Z</time>
      </trkpt>
      <trkpt lat="44.15109" lon="0.75657">
        <ele>59</ele>
        <time>2024-04-11T14:40:36.000Z</time>
      </trkpt>
      <trkpt lat="44.15108" lon="0.75656">
        <ele>59</ele>
        <time>2024-04-11T14:40:37.000Z</time>
      </trkpt>
      <trkpt lat="44.15107" lon="0.75655">
        <ele>58</ele>
        <time>2024-04-11T14:40:38.000Z</time>
      </trkpt>
      <trkpt lat="44.15106" lon="0.75655">
        <ele>58</ele>
        <time>2024-04-11T14:40:39.000Z</time>
      </trkpt>
      <trkpt lat="44.15105" lon="0.75654">
        <ele>58</ele>
        <time>2024-04-11T14:40:40.000Z</time>
      </trkpt>
      <trkpt lat="44.15104" lon="0.75653">
        <ele>58</ele>
        <time>2024-04-11T14:40:41.000Z</time>
      </trkpt>
      <trkpt lat="44.15102" lon="0.75652">
        <ele>58</ele>
        <time>2024-04-11T14:40:42.000Z</time>
      </trkpt>
      <trkpt lat="44.15101" lon="0.75652">
        <ele>58</ele>
        <time>2024-04-11T14:40:43.000Z</time>
      </trkpt>
      <trkpt lat="44.151" lon="0.75651">
        <ele>58</ele>
        <time>2024-04-11T14:40:44.000Z</time>
      </trkpt>
      <trkpt lat="44.15099" lon="0.75651">
        <ele>58</ele>
        <time>2024-04-11T14:40:45.000Z</time>
      </trkpt>
      <trkpt lat="44.15098" lon="0.7565">
        <ele>58</ele>
        <time>2024-04-11T14:40:46.000Z</time>
      </trkpt>
      <trkpt lat="44.15097" lon="0.7565">
        <ele>58</ele>
        <time>2024-04-11T14:40:47.000Z</time>
      </trkpt>
      <trkpt lat="44.15096" lon="0.75649">
        <ele>58</ele>
        <time>2024-04-11T14:40:48.000Z</time>
      </trkpt>
      <trkpt lat="44.15095" lon="0.75649">
        <ele>58</ele>
        <time>2024-04-11T14:40:49.000Z</time>
      </trkpt>
      <trkpt lat="44.15094" lon="0.75648">
        <ele>58</ele>
        <time>2024-04-11T14:40:50.000Z</time>
      </trkpt>
      <trkpt lat="44.15093" lon="0.75648">
        <ele>57</ele>
        <time>2024-04-11T14:40:51.000Z</time>
      </trkpt>
      <trkpt lat="44.15092" lon="0.75647">
        <ele>57</ele>
        <time>2024-04-11T14:40:52.000Z</time>
      </trkpt>
      <trkpt lat="44.15091" lon="0.75646">
        <ele>57</ele>
        <time>2024-04-11T14:40:53.000Z</time>
      </trkpt>
      <trkpt lat="44.1509" lon="0.75646">
        <ele>56</ele>
        <time>2024-04-11T14:40:54.000Z</time>
      </trkpt>
      <trkpt lat="44.15089" lon="0.75646">
        <ele>56</ele>
        <time>2024-04-11T14:40:55.000Z</time>
      </trkpt>
      <trkpt lat="44.15088" lon="0.75645">
        <ele>55</ele>
        <time>2024-04-11T14:40:56.000Z</time>
      </trkpt>
      <trkpt lat="44.15087" lon="0.75645">
        <ele>55</ele>
        <time>2024-04-11T14:40:57.000Z</time>
      </trkpt>
      <trkpt lat="44.15086" lon="0.75645">
        <ele>56</ele>
        <time>2024-04-11T14:40:58.000Z</time>
      </trkpt>
      <trkpt lat="44.15084" lon="0.75644">
        <ele>55</ele>
        <time>2024-04-11T14:40:59.000Z</time>
      </trkpt>
      <trkpt lat="44.15083" lon="0.75644">
        <ele>55</ele>
        <time>2024-04-11T14:41:00.000Z</time>
      </trkpt>
      <trkpt lat="44.15082" lon="0.75644">
        <ele>56</ele>
        <time>2024-04-11T14:41:01.000Z</time>
      </trkpt>
      <trkpt lat="44.15081" lon="0.75644">
        <ele>56</ele>
        <time>2024-04-11T14:41:02.000Z</time>
      </trkpt>
      <trkpt lat="44.1508" lon="0.75644">
        <ele>56</ele>
        <time>2024-04-11T14:41:03.000Z</time>
      </trkpt>
      <trkpt lat="44.15078" lon="0.75643">
        <ele>56</ele>
        <time>2024-04-11T14:41:04.000Z</time>
      </trkpt>
      <trkpt lat="44.15077" lon="0.75643">
        <ele>56</ele>
        <time>2024-04-11T14:41:05.000Z</time>
      </trkpt>
      <trkpt lat="44.15076" lon="0.75643">
        <ele>56</ele>
        <time>2024-04-11T14:41:06.000Z</time>
      </trkpt>
      <trkpt lat="44.15075" lon="0.75642">
        <ele>56</ele>
        <time>2024-04-11T14:41:07.000Z</time>
      </trkpt>
      <trkpt lat="44.15074" lon="0.75642">
        <ele>56</ele>
        <time>2024-04-11T14:41:08.000Z</time>
      </trkpt>
      <trkpt lat="44.15072" lon="0.75642">
        <ele>56</ele>
        <time>2024-04-11T14:41:09.000Z</time>
      </trkpt>
      <trkpt lat="44.15071" lon="0.75642">
        <ele>55</ele>
        <time>2024-04-11T14:41:10.000Z</time>
      </trkpt>
      <trkpt lat="44.1507" lon="0.75642">
        <ele>55</ele>
        <time>2024-04-11T14:41:11.000Z</time>
      </trkpt>
      <trkpt lat="44.15069" lon="0.75641">
        <ele>55</ele>
        <time>2024-04-11T14:41:12.000Z</time>
      </trkpt>
      <trkpt lat="44.15068" lon="0.75641">
        <ele>56</ele>
        <time>2024-04-11T14:41:13.000Z</time>
      </trkpt>
      <trkpt lat="44.15066" lon="0.7564">
        <ele>56</ele>
        <time>2024-04-11T14:41:14.000Z</time>
      </trkpt>
      <trkpt lat="44.15065" lon="0.7564">
        <ele>55</ele>
        <time>2024-04-11T14:41:15.000Z</time>
      </trkpt>
      <trkpt lat="44.15064" lon="0.7564">
        <ele>55</ele>
        <time>2024-04-11T14:41:16.000Z</time>
      </trkpt>
      <trkpt lat="44.15063" lon="0.75639">
        <ele>55</ele>
        <time>2024-04-11T14:41:17.000Z</time>
      </trkpt>
      <trkpt lat="44.15062" lon="0.75639">
        <ele>55</ele>
        <time>2024-04-11T14:41:18.000Z</time>
      </trkpt>
      <trkpt lat="44.15061" lon="0.75638">
        <ele>55</ele>
        <time>2024-04-11T14:41:19.000Z</time>
      </trkpt>
      <trkpt lat="44.15059" lon="0.75638">
        <ele>55</ele>
        <time>2024-04-11T14:41:20.000Z</time>
      </trkpt>
      <trkpt lat="44.15058" lon="0.75637">
        <ele>55</ele>
        <time>2024-04-11T14:41:21.000Z</time>
      </trkpt>
      <trkpt lat="44.15057" lon="0.75637">
        <ele>55</ele>
        <time>2024-04-11T14:41:22.000Z</time>
      </trkpt>
      <trkpt lat="44.15056" lon="0.75636">
        <ele>55</ele>
        <time>2024-04-11T14:41:23.000Z</time>
      </trkpt>
      <trkpt lat="44.15054" lon="0.75636">
        <ele>55</ele>
        <time>2024-04-11T14:41:24.000Z</time>
      </trkpt>
      <trkpt lat="44.15053" lon="0.75636">
        <ele>55</ele>
        <time>2024-04-11T14:41:25.000Z</time>
      </trkpt>
      <trkpt lat="44.15052" lon="0.75635">
        <ele>54</ele>
        <time>2024-04-11T14:41:26.000Z</time>
      </trkpt>
      <trkpt lat="44.15051" lon="0.75635">
        <ele>54</ele>
        <time>2024-04-11T14:41:27.000Z</time>
      </trkpt>
      <trkpt lat="44.1505" lon="0.75635">
        <ele>54</ele>
        <time>2024-04-11T14:41:28.000Z</time>
      </trkpt>
      <trkpt lat="44.15048" lon="0.75635">
        <ele>54</ele>
        <time>2024-04-11T14:41:29.000Z</time>
      </trkpt>
      <trkpt lat="44.15047" lon="0.75634">
        <ele>54</ele>
        <time>2024-04-11T14:41:30.000Z</time>
      </trkpt>
      <trkpt lat="44.15046" lon="0.75634">
        <ele>54</ele>
        <time>2024-04-11T14:41:31.000Z</time>
      </trkpt>
      <trkpt lat="44.15045" lon="0.75634">
        <ele>54</ele>
        <time>2024-04-11T14:41:32.000Z</time>
      </trkpt>
      <trkpt lat="44.15043" lon="0.75633">
        <ele>54</ele>
        <time>2024-04-11T14:41:33.000Z</time>
      </trkpt>
      <trkpt lat="44.15042" lon="0.75633">
        <ele>54</ele>
        <time>2024-04-11T14:41:34.000Z</time>
      </trkpt>
      <trkpt lat="44.15041" lon="0.75632">
        <ele>54</ele>
        <time>2024-04-11T14:41:35.000Z</time>
      </trkpt>
      <trkpt lat="44.1504" lon="0.75632">
        <ele>54</ele>
        <time>2024-04-11T14:41:36.000Z</time>
      </trkpt>
      <trkpt lat="44.15039" lon="0.75632">
        <ele>54</ele>
        <time>2024-04-11T14:41:37.000Z</time>
      </trkpt>
      <trkpt lat="44.15038" lon="0.75632">
        <ele>54</ele>
        <time>2024-04-11T14:41:38.000Z</time>
      </trkpt>
      <trkpt lat="44.15037" lon="0.75631">
        <ele>54</ele>
        <time>2024-04-11T14:41:39.000Z</time>
      </trkpt>
      <trkpt lat="44.15035" lon="0.75631">
        <ele>54</ele>
        <time>2024-04-11T14:41:40.000Z</time>
      </trkpt>
      <trkpt lat="44.15034" lon="0.75631">
        <ele>54</ele>
        <time>2024-04-11T14:41:41.000Z</time>
      </trkpt>
      <trkpt lat="44.15033" lon="0.7563">
        <ele>54</ele>
        <time>2024-04-11T14:41:42.000Z</time>
      </trkpt>
      <trkpt lat="44.15032" lon="0.7563">
        <ele>54</ele>
        <time>2024-04-11T14:41:43.000Z</time>
      </trkpt>
      <trkpt lat="44.15031" lon="0.7563">
        <ele>54</ele>
        <time>2024-04-11T14:41:44.000Z</time>
      </trkpt>
      <trkpt lat="44.1503" lon="0.75629">
        <ele>54</ele>
        <time>2024-04-11T14:41:45.000Z</time>
      </trkpt>
      <trkpt lat="44.15029" lon="0.75629">
        <ele>54</ele>
        <time>2024-04-11T14:41:46.000Z</time>
      </trkpt>
      <trkpt lat="44.15027" lon="0.75629">
        <ele>54</ele>
        <time>2024-04-11T14:41:47.000Z</time>
      </trkpt>
      <trkpt lat="44.15026" lon="0.75628">
        <ele>54</ele>
        <time>2024-04-11T14:41:48.000Z</time>
      </trkpt>
      <trkpt lat="44.15025" lon="0.75628">
        <ele>55</ele>
        <time>2024-04-11T14:41:49.000Z</time>
      </trkpt>
      <trkpt lat="44.15024" lon="0.75627">
        <ele>54</ele>
        <time>2024-04-11T14:41:50.000Z</time>
      </trkpt>
      <trkpt lat="44.15023" lon="0.75627">
        <ele>54</ele>
        <time>2024-04-11T14:41:51.000Z</time>
      </trkpt>
      <trkpt lat="44.15022" lon="0.75627">
        <ele>54</ele>
        <time>2024-04-11T14:41:52.000Z</time>
      </trkpt>
      <trkpt lat="44.15021" lon="0.75627">
        <ele>54</ele>
        <time>2024-04-11T14:41:53.000Z</time>
      </trkpt>
      <trkpt lat="44.1502" lon="0.75626">
        <ele>54</ele>
        <time>2024-04-11T14:41:54.000Z</time>
      </trkpt>
      <trkpt lat="44.15019" lon="0.75626">
        <ele>54</ele>
        <time>2024-04-11T14:41:55.000Z</time>
      </trkpt>
      <trkpt lat="44.15017" lon="0.75626">
        <ele>54</ele>
        <time>2024-04-11T14:41:56.000Z</time>
      </trkpt>
      <trkpt lat="44.15016" lon="0.75625">
        <ele>54</ele>
        <time>2024-04-11T14:41:57.000Z</time>
      </trkpt>
      <trkpt lat="44.15015" lon="0.75625">
        <ele>54</ele>
        <time>2024-04-11T14:41:58.000Z</time>
      </trkpt>
      <trkpt lat="44.15014" lon="0.75625">
        <ele>54</ele>
        <time>2024-04-11T14:41:59.000Z</time>
      </trkpt>
      <trkpt lat="44.15013" lon="0.75624">
        <ele>54</ele>
        <time>2024-04-11T14:42:00.000Z</time>
      </trkpt>
      <trkpt lat="44.15012" lon="0.75624">
        <ele>54</ele>
        <time>2024-04-11T14:42:01.000Z</time>
      </trkpt>
      <trkpt lat="44.15011" lon="0.75624">
        <ele>54</ele>
        <time>2024-04-11T14:42:02.000Z</time>
      </trkpt>
      <trkpt lat="44.1501" lon="0.75624">
        <ele>54</ele>
        <time>2024-04-11T14:42:03.000Z</time>
      </trkpt>
      <trkpt lat="44.15009" lon="0.75623">
        <ele>54</ele>
        <time>2024-04-11T14:42:04.000Z</time>
      </trkpt>
      <trkpt lat="44.15008" lon="0.75623">
        <ele>53</ele>
        <time>2024-04-11T14:42:05.000Z</time>
      </trkpt>
      <trkpt lat="44.15007" lon="0.75623">
        <ele>53</ele>
        <time>2024-04-11T14:42:06.000Z</time>
      </trkpt>
      <trkpt lat="44.15006" lon="0.75622">
        <ele>53</ele>
        <time>2024-04-11T14:42:07.000Z</time>
      </trkpt>
      <trkpt lat="44.15004" lon="0.75622">
        <ele>53</ele>
        <time>2024-04-11T14:42:08.000Z</time>
      </trkpt>
      <trkpt lat="44.15003" lon="0.75622">
        <ele>53</ele>
        <time>2024-04-11T14:42:09.000Z</time>
      </trkpt>
      <trkpt lat="44.15002" lon="0.75621">
        <ele>53</ele>
        <time>2024-04-11T14:42:10.000Z</time>
      </trkpt>
      <trkpt lat="44.15001" lon="0.75621">
        <ele>53</ele>
        <time>2024-04-11T14:42:11.000Z</time>
      </trkpt>
      <trkpt lat="44.15" lon="0.7562">
        <ele>53</ele>
        <time>2024-04-11T14:42:12.000Z</time>
      </trkpt>
      <trkpt lat="44.14999" lon="0.7562">
        <ele>53</ele>
        <time>2024-04-11T14:42:13.000Z</time>
      </trkpt>
      <trkpt lat="44.14998" lon="0.7562">
        <ele>53</ele>
        <time>2024-04-11T14:42:14.000Z</time>
      </trkpt>
      <trkpt lat="44.14997" lon="0.75619">
        <ele>53</ele>
        <time>2024-04-11T14:42:15.000Z</time>
      </trkpt>
      <trkpt lat="44.14996" lon="0.75619">
        <ele>53</ele>
        <time>2024-04-11T14:42:16.000Z</time>
      </trkpt>
      <trkpt lat="44.14995" lon="0.75619">
        <ele>53</ele>
        <time>2024-04-11T14:42:17.000Z</time>
      </trkpt>
      <trkpt lat="44.14994" lon="0.75619">
        <ele>53</ele>
        <time>2024-04-11T14:42:18.000Z</time>
      </trkpt>
      <trkpt lat="44.14993" lon="0.75618">
        <ele>53</ele>
        <time>2024-04-11T14:42:19.000Z</time>
      </trkpt>
      <trkpt lat="44.14992" lon="0.75618">
        <ele>53</ele>
        <time>2024-04-11T14:42:20.000Z</time>
      </trkpt>
      <trkpt lat="44.14991" lon="0.75618">
        <ele>53</ele>
        <time>2024-04-11T14:42:21.000Z</time>
      </trkpt>
      <trkpt lat="44.1499" lon="0.75618">
        <ele>53</ele>
        <time>2024-04-11T14:42:22.000Z</time>
      </trkpt>
      <trkpt lat="44.14989" lon="0.75618">
        <ele>53</ele>
        <time>2024-04-11T14:42:23.000Z</time>
      </trkpt>
      <trkpt lat="44.14988" lon="0.75617">
        <ele>53</ele>
        <time>2024-04-11T14:42:24.000Z</time>
      </trkpt>
      <trkpt lat="44.14986" lon="0.75617">
        <ele>53</ele>
        <time>2024-04-11T14:42:25.000Z</time>
      </trkpt>
      <trkpt lat="44.14985" lon="0.75616">
        <ele>53</ele>
        <time>2024-04-11T14:42:26.000Z</time>
      </trkpt>
      <trkpt lat="44.14984" lon="0.75616">
        <ele>53</ele>
        <time>2024-04-11T14:42:27.000Z</time>
      </trkpt>
      <trkpt lat="44.14983" lon="0.75616">
        <ele>53</ele>
        <time>2024-04-11T14:42:28.000Z</time>
      </trkpt>
      <trkpt lat="44.14982" lon="0.75616">
        <ele>53</ele>
        <time>2024-04-11T14:42:29.000Z</time>
      </trkpt>
      <trkpt lat="44.14981" lon="0.75615">
        <ele>53</ele>
        <time>2024-04-11T14:42:30.000Z</time>
      </trkpt>
      <trkpt lat="44.1498" lon="0.75615">
        <ele>53</ele>
        <time>2024-04-11T14:42:31.000Z</time>
      </trkpt>
      <trkpt lat="44.14979" lon="0.75615">
        <ele>53</ele>
        <time>2024-04-11T14:42:32.000Z</time>
      </trkpt>
      <trkpt lat="44.14978" lon="0.75614">
        <ele>53</ele>
        <time>2024-04-11T14:42:33.000Z</time>
      </trkpt>
      <trkpt lat="44.14977" lon="0.75614">
        <ele>53</ele>
        <time>2024-04-11T14:42:34.000Z</time>
      </trkpt>
      <trkpt lat="44.14976" lon="0.75614">
        <ele>53</ele>
        <time>2024-04-11T14:42:35.000Z</time>
      </trkpt>
      <trkpt lat="44.14975" lon="0.75613">
        <ele>53</ele>
        <time>2024-04-11T14:42:36.000Z</time>
      </trkpt>
      <trkpt lat="44.14974" lon="0.75613">
        <ele>53</ele>
        <time>2024-04-11T14:42:37.000Z</time>
      </trkpt>
      <trkpt lat="44.14973" lon="0.75612">
        <ele>54</ele>
        <time>2024-04-11T14:42:38.000Z</time>
      </trkpt>
      <trkpt lat="44.14972" lon="0.75612">
        <ele>54</ele>
        <time>2024-04-11T14:42:39.000Z</time>
      </trkpt>
      <trkpt lat="44.14971" lon="0.75611">
        <ele>54</ele>
        <time>2024-04-11T14:42:40.000Z</time>
      </trkpt>
      <trkpt lat="44.1497" lon="0.75611">
        <ele>54</ele>
        <time>2024-04-11T14:42:41.000Z</time>
      </trkpt>
      <trkpt lat="44.14969" lon="0.7561">
        <ele>54</ele>
        <time>2024-04-11T14:42:42.000Z</time>
      </trkpt>
      <trkpt lat="44.14968" lon="0.75609">
        <ele>54</ele>
        <time>2024-04-11T14:42:43.000Z</time>
      </trkpt>
      <trkpt lat="44.14968" lon="0.75608">
        <ele>54</ele>
        <time>2024-04-11T14:42:44.000Z</time>
      </trkpt>
      <trkpt lat="44.14967" lon="0.75607">
        <ele>54</ele>
        <time>2024-04-11T14:42:45.000Z</time>
      </trkpt>
      <trkpt lat="44.14966" lon="0.75606">
        <ele>55</ele>
        <time>2024-04-11T14:42:46.000Z</time>
      </trkpt>
      <trkpt lat="44.14965" lon="0.75605">
        <ele>56</ele>
        <time>2024-04-11T14:42:47.000Z</time>
      </trkpt>
      <trkpt lat="44.14964" lon="0.75604">
        <ele>55</ele>
        <time>2024-04-11T14:42:48.000Z</time>
      </trkpt>
      <trkpt lat="44.14963" lon="0.75603">
        <ele>56</ele>
        <time>2024-04-11T14:42:49.000Z</time>
      </trkpt>
      <trkpt lat="44.14962" lon="0.75602">
        <ele>56</ele>
        <time>2024-04-11T14:42:50.000Z</time>
      </trkpt>
      <trkpt lat="44.14961" lon="0.756">
        <ele>57</ele>
        <time>2024-04-11T14:42:51.000Z</time>
      </trkpt>
      <trkpt lat="44.14961" lon="0.75599">
        <ele>56</ele>
        <time>2024-04-11T14:42:52.000Z</time>
      </trkpt>
      <trkpt lat="44.1496" lon="0.75597">
        <ele>56</ele>
        <time>2024-04-11T14:42:53.000Z</time>
      </trkpt>
      <trkpt lat="44.1496" lon="0.75596">
        <ele>56</ele>
        <time>2024-04-11T14:42:54.000Z</time>
      </trkpt>
      <trkpt lat="44.14959" lon="0.75594">
        <ele>56</ele>
        <time>2024-04-11T14:42:55.000Z</time>
      </trkpt>
      <trkpt lat="44.14959" lon="0.75593">
        <ele>55</ele>
        <time>2024-04-11T14:42:56.000Z</time>
      </trkpt>
      <trkpt lat="44.14959" lon="0.75592">
        <ele>55</ele>
        <time>2024-04-11T14:42:57.000Z</time>
      </trkpt>
      <trkpt lat="44.14959" lon="0.7559">
        <ele>55</ele>
        <time>2024-04-11T14:42:58.000Z</time>
      </trkpt>
      <trkpt lat="44.14959" lon="0.75589">
        <ele>55</ele>
        <time>2024-04-11T14:42:59.000Z</time>
      </trkpt>
      <trkpt lat="44.1496" lon="0.75587">
        <ele>55</ele>
        <time>2024-04-11T14:43:00.000Z</time>
      </trkpt>
      <trkpt lat="44.1496" lon="0.75586">
        <ele>55</ele>
        <time>2024-04-11T14:43:01.000Z</time>
      </trkpt>
      <trkpt lat="44.14961" lon="0.75584">
        <ele>55</ele>
        <time>2024-04-11T14:43:02.000Z</time>
      </trkpt>
      <trkpt lat="44.14961" lon="0.75583">
        <ele>55</ele>
        <time>2024-04-11T14:43:03.000Z</time>
      </trkpt>
      <trkpt lat="44.14961" lon="0.75581">
        <ele>55</ele>
        <time>2024-04-11T14:43:04.000Z</time>
      </trkpt>
      <trkpt lat="44.14962" lon="0.7558">
        <ele>55</ele>
        <time>2024-04-11T14:43:05.000Z</time>
      </trkpt>
      <trkpt lat="44.14962" lon="0.75578">
        <ele>55</ele>
        <time>2024-04-11T14:43:06.000Z</time>
      </trkpt>
      <trkpt lat="44.14963" lon="0.75577">
        <ele>55</ele>
        <time>2024-04-11T14:43:07.000Z</time>
      </trkpt>
      <trkpt lat="44.14963" lon="0.75575">
        <ele>55</ele>
        <time>2024-04-11T14:43:08.000Z</time>
      </trkpt>
      <trkpt lat="44.14964" lon="0.75573">
        <ele>55</ele>
        <time>2024-04-11T14:43:09.000Z</time>
      </trkpt>
      <trkpt lat="44.14964" lon="0.75572">
        <ele>55</ele>
        <time>2024-04-11T14:43:10.000Z</time>
      </trkpt>
      <trkpt lat="44.14964" lon="0.7557">
        <ele>55</ele>
        <time>2024-04-11T14:43:11.000Z</time>
      </trkpt>
      <trkpt lat="44.14965" lon="0.75569">
        <ele>55</ele>
        <time>2024-04-11T14:43:12.000Z</time>
      </trkpt>
      <trkpt lat="44.14965" lon="0.75567">
        <ele>55</ele>
        <time>2024-04-11T14:43:13.000Z</time>
      </trkpt>
      <trkpt lat="44.14965" lon="0.75566">
        <ele>55</ele>
        <time>2024-04-11T14:43:14.000Z</time>
      </trkpt>
      <trkpt lat="44.14965" lon="0.75565">
        <ele>55</ele>
        <time>2024-04-11T14:43:15.000Z</time>
      </trkpt>
      <trkpt lat="44.14966" lon="0.75563">
        <ele>55</ele>
        <time>2024-04-11T14:43:16.000Z</time>
      </trkpt>
      <trkpt lat="44.14966" lon="0.75562">
        <ele>54</ele>
        <time>2024-04-11T14:43:17.000Z</time>
      </trkpt>
      <trkpt lat="44.14966" lon="0.7556">
        <ele>54</ele>
        <time>2024-04-11T14:43:18.000Z</time>
      </trkpt>
      <trkpt lat="44.14966" lon="0.75558">
        <ele>54</ele>
        <time>2024-04-11T14:43:19.000Z</time>
      </trkpt>
      <trkpt lat="44.14967" lon="0.75557">
        <ele>54</ele>
        <time>2024-04-11T14:43:20.000Z</time>
      </trkpt>
      <trkpt lat="44.14967" lon="0.75556">
        <ele>54</ele>
        <time>2024-04-11T14:43:21.000Z</time>
      </trkpt>
      <trkpt lat="44.14967" lon="0.75554">
        <ele>54</ele>
        <time>2024-04-11T14:43:22.000Z</time>
      </trkpt>
      <trkpt lat="44.14968" lon="0.75553">
        <ele>54</ele>
        <time>2024-04-11T14:43:23.000Z</time>
      </trkpt>
      <trkpt lat="44.14968" lon="0.75552">
        <ele>54</ele>
        <time>2024-04-11T14:43:24.000Z</time>
      </trkpt>
      <trkpt lat="44.14968" lon="0.7555">
        <ele>54</ele>
        <time>2024-04-11T14:43:25.000Z</time>
      </trkpt>
      <trkpt lat="44.14969" lon="0.75549">
        <ele>54</ele>
        <time>2024-04-11T14:43:26.000Z</time>
      </trkpt>
      <trkpt lat="44.14969" lon="0.75547">
        <ele>54</ele>
        <time>2024-04-11T14:43:27.000Z</time>
      </trkpt>
      <trkpt lat="44.1497" lon="0.75546">
        <ele>53</ele>
        <time>2024-04-11T14:43:28.000Z</time>
      </trkpt>
      <trkpt lat="44.1497" lon="0.75544">
        <ele>53</ele>
        <time>2024-04-11T14:43:29.000Z</time>
      </trkpt>
      <trkpt lat="44.1497" lon="0.75543">
        <ele>54</ele>
        <time>2024-04-11T14:43:30.000Z</time>
      </trkpt>
      <trkpt lat="44.14971" lon="0.75542">
        <ele>54</ele>
        <time>2024-04-11T14:43:31.000Z</time>
      </trkpt>
      <trkpt lat="44.14971" lon="0.7554">
        <ele>53</ele>
        <time>2024-04-11T14:43:32.000Z</time>
      </trkpt>
      <trkpt lat="44.14971" lon="0.75539">
        <ele>53</ele>
        <time>2024-04-11T14:43:33.000Z</time>
      </trkpt>
      <trkpt lat="44.14972" lon="0.75537">
        <ele>53</ele>
        <time>2024-04-11T14:43:34.000Z</time>
      </trkpt>
      <trkpt lat="44.14972" lon="0.75536">
        <ele>53</ele>
        <time>2024-04-11T14:43:35.000Z</time>
      </trkpt>
      <trkpt lat="44.14972" lon="0.75534">
        <ele>53</ele>
        <time>2024-04-11T14:43:36.000Z</time>
      </trkpt>
      <trkpt lat="44.14972" lon="0.75533">
        <ele>53</ele>
        <time>2024-04-11T14:43:37.000Z</time>
      </trkpt>
      <trkpt lat="44.14973" lon="0.75532">
        <ele>53</ele>
        <time>2024-04-11T14:43:38.000Z</time>
      </trkpt>
      <trkpt lat="44.14973" lon="0.75531">
        <ele>53</ele>
        <time>2024-04-11T14:43:39.000Z</time>
      </trkpt>
      <trkpt lat="44.14972" lon="0.7553">
        <ele>53</ele>
        <time>2024-04-11T14:43:40.000Z</time>
      </trkpt>
      <trkpt lat="44.14972" lon="0.75529">
        <ele>53</ele>
        <time>2024-04-11T14:43:41.000Z</time>
      </trkpt>
      <trkpt lat="44.14972" lon="0.75529">
        <ele>53</ele>
        <time>2024-04-11T14:43:42.000Z</time>
      </trkpt>
      <trkpt lat="44.14971" lon="0.75528">
        <ele>53</ele>
        <time>2024-04-11T14:43:43.000Z</time>
      </trkpt>
      <trkpt lat="44.14971" lon="0.75527">
        <ele>53</ele>
        <time>2024-04-11T14:43:44.000Z</time>
      </trkpt>
      <trkpt lat="44.1497" lon="0.75527">
        <ele>52</ele>
        <time>2024-04-11T14:43:45.000Z</time>
      </trkpt>
      <trkpt lat="44.14969" lon="0.75526">
        <ele>52</ele>
        <time>2024-04-11T14:43:46.000Z</time>
      </trkpt>
      <trkpt lat="44.14968" lon="0.75525">
        <ele>52</ele>
        <time>2024-04-11T14:43:47.000Z</time>
      </trkpt>
      <trkpt lat="44.14968" lon="0.75524">
        <ele>52</ele>
        <time>2024-04-11T14:43:48.000Z</time>
      </trkpt>
      <trkpt lat="44.14967" lon="0.75523">
        <ele>52</ele>
        <time>2024-04-11T14:43:49.000Z</time>
      </trkpt>
      <trkpt lat="44.14966" lon="0.75523">
        <ele>52</ele>
        <time>2024-04-11T14:43:50.000Z</time>
      </trkpt>
      <trkpt lat="44.14966" lon="0.75523">
        <ele>52</ele>
        <time>2024-04-11T14:43:51.000Z</time>
      </trkpt>
      <trkpt lat="44.14965" lon="0.75522">
        <ele>52</ele>
        <time>2024-04-11T14:43:52.000Z</time>
      </trkpt>
      <trkpt lat="44.14964" lon="0.75521">
        <ele>52</ele>
        <time>2024-04-11T14:43:53.000Z</time>
      </trkpt>
      <trkpt lat="44.14964" lon="0.7552">
        <ele>52</ele>
        <time>2024-04-11T14:43:54.000Z</time>
      </trkpt>
      <trkpt lat="44.14964" lon="0.7552">
        <ele>52</ele>
        <time>2024-04-11T14:43:55.000Z</time>
      </trkpt>
      <trkpt lat="44.14964" lon="0.75519">
        <ele>52</ele>
        <time>2024-04-11T14:43:56.000Z</time>
      </trkpt>
    </trkseg>
  </trk>
</gpx>